<?xml version="1.0" encoding="UTF-8" standalone="no" ?>
<gpx xmlns="http://www.topografix.com/GPX/1/1" xmlns:xsi="http://www.w3.org/2001/XMLSchema-instance" xsi:schemaLocation="http://www.topografix.com/GPX/1/1 http://www.topografix.com/GPX/1/1/gpx.xsd" version="1.1" creator="VisuGPX - https://www.visugpx.com">
  <metadata>
    <name>10 Villages</name>
    <desc><![CDATA[Odomez, Bruille-Saint-Ammand, Chateau-L'Abbaye, Mortagne-du-Nord, Flines-Les-Mortagne, Laplaigne, Bléharies, Maulde, Thun-Saint-Amand, Nivelle.]]></desc>
  </metadata>
  <trk>
    <name><![CDATA[Parcours du 2022-04-03 08:33:55]]></name>
    <extensions>
      <line xmlns="http://www.topografix.com/GPX/gpx_style/0/2">
        <color>0000FF</color>
        <width>4</width>
      </line>
    </extensions>
    <trkseg>
      <trkpt lat="50.45005" lon="3.52613">
        <ele>28.8</ele>
        <time>2022-04-03T06:34:03.007Z</time>
      </trkpt>
      <trkpt lat="50.4501" lon="3.52612">
        <ele>28.7</ele>
        <time>2022-04-03T06:34:05.000Z</time>
      </trkpt>
      <trkpt lat="50.45016" lon="3.52608">
        <ele>28.4</ele>
        <time>2022-04-03T06:34:07.000Z</time>
      </trkpt>
      <trkpt lat="50.4502" lon="3.52605">
        <ele>28.2</ele>
        <time>2022-04-03T06:34:08.000Z</time>
      </trkpt>
      <trkpt lat="50.45028" lon="3.52598">
        <ele>28</ele>
        <time>2022-04-03T06:34:10.000Z</time>
      </trkpt>
      <trkpt lat="50.45036" lon="3.52592">
        <ele>27.8</ele>
        <time>2022-04-03T06:34:12.000Z</time>
      </trkpt>
      <trkpt lat="50.45041" lon="3.52589">
        <ele>27.6</ele>
        <time>2022-04-03T06:34:13.000Z</time>
      </trkpt>
      <trkpt lat="50.45045" lon="3.52586">
        <ele>27.4</ele>
        <time>2022-04-03T06:34:13.984Z</time>
      </trkpt>
      <trkpt lat="50.4505" lon="3.52582">
        <ele>27.2</ele>
        <time>2022-04-03T06:34:15.000Z</time>
      </trkpt>
      <trkpt lat="50.45058" lon="3.52574">
        <ele>27</ele>
        <time>2022-04-03T06:34:17.066Z</time>
      </trkpt>
      <trkpt lat="50.45063" lon="3.52568">
        <ele>26.9</ele>
        <time>2022-04-03T06:34:18.113Z</time>
      </trkpt>
      <trkpt lat="50.45068" lon="3.52562">
        <ele>26.7</ele>
        <time>2022-04-03T06:34:19.316Z</time>
      </trkpt>
      <trkpt lat="50.45075" lon="3.52549">
        <ele>26.1</ele>
        <time>2022-04-03T06:34:21.000Z</time>
      </trkpt>
      <trkpt lat="50.45078" lon="3.52542">
        <ele>25.7</ele>
        <time>2022-04-03T06:34:22.000Z</time>
      </trkpt>
      <trkpt lat="50.45081" lon="3.52535">
        <ele>25.3</ele>
        <time>2022-04-03T06:34:23.000Z</time>
      </trkpt>
      <trkpt lat="50.45084" lon="3.52528">
        <ele>25</ele>
        <time>2022-04-03T06:34:24.000Z</time>
      </trkpt>
      <trkpt lat="50.45088" lon="3.52521">
        <ele>24.8</ele>
        <time>2022-04-03T06:34:25.000Z</time>
      </trkpt>
      <trkpt lat="50.45092" lon="3.52514">
        <ele>24.5</ele>
        <time>2022-04-03T06:34:26.000Z</time>
      </trkpt>
      <trkpt lat="50.45096" lon="3.52506">
        <ele>24.2</ele>
        <time>2022-04-03T06:34:27.000Z</time>
      </trkpt>
      <trkpt lat="50.45101" lon="3.52499">
        <ele>24</ele>
        <time>2022-04-03T06:34:28.000Z</time>
      </trkpt>
      <trkpt lat="50.45106" lon="3.52492">
        <ele>23.8</ele>
        <time>2022-04-03T06:34:29.000Z</time>
      </trkpt>
      <trkpt lat="50.4511" lon="3.52484">
        <ele>23.4</ele>
        <time>2022-04-03T06:34:30.000Z</time>
      </trkpt>
      <trkpt lat="50.45115" lon="3.52475">
        <ele>22.9</ele>
        <time>2022-04-03T06:34:31.000Z</time>
      </trkpt>
      <trkpt lat="50.45119" lon="3.52467">
        <ele>22.5</ele>
        <time>2022-04-03T06:34:32.000Z</time>
      </trkpt>
      <trkpt lat="50.45123" lon="3.52458">
        <ele>22.1</ele>
        <time>2022-04-03T06:34:33.000Z</time>
      </trkpt>
      <trkpt lat="50.45128" lon="3.5245">
        <ele>21.6</ele>
        <time>2022-04-03T06:34:34.000Z</time>
      </trkpt>
      <trkpt lat="50.45133" lon="3.52442">
        <ele>21.2</ele>
        <time>2022-04-03T06:34:35.000Z</time>
      </trkpt>
      <trkpt lat="50.45138" lon="3.52435">
        <ele>21</ele>
        <time>2022-04-03T06:34:36.000Z</time>
      </trkpt>
      <trkpt lat="50.45143" lon="3.52428">
        <ele>20.9</ele>
        <time>2022-04-03T06:34:37.000Z</time>
      </trkpt>
      <trkpt lat="50.45148" lon="3.52421">
        <ele>20.7</ele>
        <time>2022-04-03T06:34:38.000Z</time>
      </trkpt>
      <trkpt lat="50.45153" lon="3.52413">
        <ele>20.4</ele>
        <time>2022-04-03T06:34:39.000Z</time>
      </trkpt>
      <trkpt lat="50.45158" lon="3.52406">
        <ele>20.2</ele>
        <time>2022-04-03T06:34:40.000Z</time>
      </trkpt>
      <trkpt lat="50.45163" lon="3.52399">
        <ele>20</ele>
        <time>2022-04-03T06:34:41.000Z</time>
      </trkpt>
      <trkpt lat="50.45168" lon="3.52392">
        <ele>20</ele>
        <time>2022-04-03T06:34:42.000Z</time>
      </trkpt>
      <trkpt lat="50.45173" lon="3.52386">
        <ele>19.7</ele>
        <time>2022-04-03T06:34:43.000Z</time>
      </trkpt>
      <trkpt lat="50.45178" lon="3.52379">
        <ele>19.4</ele>
        <time>2022-04-03T06:34:44.000Z</time>
      </trkpt>
      <trkpt lat="50.45183" lon="3.52372">
        <ele>19.2</ele>
        <time>2022-04-03T06:34:45.000Z</time>
      </trkpt>
      <trkpt lat="50.45188" lon="3.52365">
        <ele>19</ele>
        <time>2022-04-03T06:34:46.000Z</time>
      </trkpt>
      <trkpt lat="50.45193" lon="3.52358">
        <ele>19</ele>
        <time>2022-04-03T06:34:47.000Z</time>
      </trkpt>
      <trkpt lat="50.45198" lon="3.52352">
        <ele>19</ele>
        <time>2022-04-03T06:34:48.000Z</time>
      </trkpt>
      <trkpt lat="50.45203" lon="3.52346">
        <ele>19</ele>
        <time>2022-04-03T06:34:49.000Z</time>
      </trkpt>
      <trkpt lat="50.45208" lon="3.52339">
        <ele>19</ele>
        <time>2022-04-03T06:34:50.000Z</time>
      </trkpt>
      <trkpt lat="50.45213" lon="3.52333">
        <ele>19</ele>
        <time>2022-04-03T06:34:51.000Z</time>
      </trkpt>
      <trkpt lat="50.45217" lon="3.52327">
        <ele>19</ele>
        <time>2022-04-03T06:34:52.000Z</time>
      </trkpt>
      <trkpt lat="50.45222" lon="3.5232">
        <ele>19</ele>
        <time>2022-04-03T06:34:53.000Z</time>
      </trkpt>
      <trkpt lat="50.45226" lon="3.52314">
        <ele>19</ele>
        <time>2022-04-03T06:34:54.000Z</time>
      </trkpt>
      <trkpt lat="50.4523" lon="3.52308">
        <ele>19</ele>
        <time>2022-04-03T06:34:55.000Z</time>
      </trkpt>
      <trkpt lat="50.45235" lon="3.52302">
        <ele>19</ele>
        <time>2022-04-03T06:34:56.000Z</time>
      </trkpt>
      <trkpt lat="50.45239" lon="3.52296">
        <ele>19</ele>
        <time>2022-04-03T06:34:57.000Z</time>
      </trkpt>
      <trkpt lat="50.45243" lon="3.52291">
        <ele>19</ele>
        <time>2022-04-03T06:34:58.000Z</time>
      </trkpt>
      <trkpt lat="50.45248" lon="3.52285">
        <ele>19</ele>
        <time>2022-04-03T06:34:59.000Z</time>
      </trkpt>
      <trkpt lat="50.45251" lon="3.5228">
        <ele>19</ele>
        <time>2022-04-03T06:35:00.000Z</time>
      </trkpt>
      <trkpt lat="50.45255" lon="3.52275">
        <ele>19</ele>
        <time>2022-04-03T06:35:01.000Z</time>
      </trkpt>
      <trkpt lat="50.45259" lon="3.52269">
        <ele>19.1</ele>
        <time>2022-04-03T06:35:02.000Z</time>
      </trkpt>
      <trkpt lat="50.45262" lon="3.52263">
        <ele>19.2</ele>
        <time>2022-04-03T06:35:03.000Z</time>
      </trkpt>
      <trkpt lat="50.45266" lon="3.52257">
        <ele>19.4</ele>
        <time>2022-04-03T06:35:04.000Z</time>
      </trkpt>
      <trkpt lat="50.45269" lon="3.52252">
        <ele>19.6</ele>
        <time>2022-04-03T06:35:05.000Z</time>
      </trkpt>
      <trkpt lat="50.45273" lon="3.52246">
        <ele>19.8</ele>
        <time>2022-04-03T06:35:06.000Z</time>
      </trkpt>
      <trkpt lat="50.45277" lon="3.5224">
        <ele>20</ele>
        <time>2022-04-03T06:35:07.000Z</time>
      </trkpt>
      <trkpt lat="50.4528" lon="3.52234">
        <ele>20</ele>
        <time>2022-04-03T06:35:08.000Z</time>
      </trkpt>
      <trkpt lat="50.45284" lon="3.52229">
        <ele>20</ele>
        <time>2022-04-03T06:35:09.000Z</time>
      </trkpt>
      <trkpt lat="50.45288" lon="3.52224">
        <ele>20</ele>
        <time>2022-04-03T06:35:10.000Z</time>
      </trkpt>
      <trkpt lat="50.45291" lon="3.52218">
        <ele>20</ele>
        <time>2022-04-03T06:35:11.000Z</time>
      </trkpt>
      <trkpt lat="50.45294" lon="3.52212">
        <ele>20</ele>
        <time>2022-04-03T06:35:12.000Z</time>
      </trkpt>
      <trkpt lat="50.45297" lon="3.52206">
        <ele>20</ele>
        <time>2022-04-03T06:35:13.000Z</time>
      </trkpt>
      <trkpt lat="50.45304" lon="3.52196">
        <ele>20</ele>
        <time>2022-04-03T06:35:15.000Z</time>
      </trkpt>
      <trkpt lat="50.45308" lon="3.5219">
        <ele>20.1</ele>
        <time>2022-04-03T06:35:16.000Z</time>
      </trkpt>
      <trkpt lat="50.45311" lon="3.52185">
        <ele>20.2</ele>
        <time>2022-04-03T06:35:17.000Z</time>
      </trkpt>
      <trkpt lat="50.45315" lon="3.5218">
        <ele>20.3</ele>
        <time>2022-04-03T06:35:18.000Z</time>
      </trkpt>
      <trkpt lat="50.45321" lon="3.52172">
        <ele>20.6</ele>
        <time>2022-04-03T06:35:20.000Z</time>
      </trkpt>
      <trkpt lat="50.45325" lon="3.52166">
        <ele>20.7</ele>
        <time>2022-04-03T06:35:21.000Z</time>
      </trkpt>
      <trkpt lat="50.45328" lon="3.52161">
        <ele>20.8</ele>
        <time>2022-04-03T06:35:22.000Z</time>
      </trkpt>
      <trkpt lat="50.45332" lon="3.52156">
        <ele>21</ele>
        <time>2022-04-03T06:35:23.000Z</time>
      </trkpt>
      <trkpt lat="50.45335" lon="3.5215">
        <ele>21</ele>
        <time>2022-04-03T06:35:24.000Z</time>
      </trkpt>
      <trkpt lat="50.45338" lon="3.52144">
        <ele>21</ele>
        <time>2022-04-03T06:35:25.000Z</time>
      </trkpt>
      <trkpt lat="50.45344" lon="3.52133">
        <ele>21</ele>
        <time>2022-04-03T06:35:27.000Z</time>
      </trkpt>
      <trkpt lat="50.45347" lon="3.52127">
        <ele>21</ele>
        <time>2022-04-03T06:35:28.000Z</time>
      </trkpt>
      <trkpt lat="50.4535" lon="3.52122">
        <ele>21</ele>
        <time>2022-04-03T06:35:29.000Z</time>
      </trkpt>
      <trkpt lat="50.45354" lon="3.52117">
        <ele>21</ele>
        <time>2022-04-03T06:35:30.000Z</time>
      </trkpt>
      <trkpt lat="50.4536" lon="3.52107">
        <ele>21.1</ele>
        <time>2022-04-03T06:35:32.000Z</time>
      </trkpt>
      <trkpt lat="50.45367" lon="3.52097">
        <ele>21.6</ele>
        <time>2022-04-03T06:35:34.000Z</time>
      </trkpt>
      <trkpt lat="50.45372" lon="3.52088">
        <ele>21.9</ele>
        <time>2022-04-03T06:35:36.065Z</time>
      </trkpt>
      <trkpt lat="50.45374" lon="3.52081">
        <ele>22</ele>
        <time>2022-04-03T06:35:38.000Z</time>
      </trkpt>
      <trkpt lat="50.45378" lon="3.52076">
        <ele>22</ele>
        <time>2022-04-03T06:35:39.000Z</time>
      </trkpt>
      <trkpt lat="50.45385" lon="3.52068">
        <ele>22</ele>
        <time>2022-04-03T06:35:40.908Z</time>
      </trkpt>
      <trkpt lat="50.45389" lon="3.52063">
        <ele>22</ele>
        <time>2022-04-03T06:35:42.000Z</time>
      </trkpt>
      <trkpt lat="50.45393" lon="3.52058">
        <ele>22.1</ele>
        <time>2022-04-03T06:35:43.128Z</time>
      </trkpt>
      <trkpt lat="50.45398" lon="3.52052">
        <ele>22.3</ele>
        <time>2022-04-03T06:35:44.581Z</time>
      </trkpt>
      <trkpt lat="50.45402" lon="3.52046">
        <ele>22.5</ele>
        <time>2022-04-03T06:35:46.000Z</time>
      </trkpt>
      <trkpt lat="50.45407" lon="3.52039">
        <ele>22.7</ele>
        <time>2022-04-03T06:35:48.000Z</time>
      </trkpt>
      <trkpt lat="50.45413" lon="3.52032">
        <ele>22.9</ele>
        <time>2022-04-03T06:35:50.000Z</time>
      </trkpt>
      <trkpt lat="50.4542" lon="3.52022">
        <ele>23</ele>
        <time>2022-04-03T06:35:53.000Z</time>
      </trkpt>
      <trkpt lat="50.45425" lon="3.52015">
        <ele>23.1</ele>
        <time>2022-04-03T06:35:55.000Z</time>
      </trkpt>
      <trkpt lat="50.4543" lon="3.52009">
        <ele>23.3</ele>
        <time>2022-04-03T06:35:56.887Z</time>
      </trkpt>
      <trkpt lat="50.45436" lon="3.52007">
        <ele>23.5</ele>
        <time>2022-04-03T06:35:59.468Z</time>
      </trkpt>
      <trkpt lat="50.45441" lon="3.52007">
        <ele>23.7</ele>
        <time>2022-04-03T06:36:01.785Z</time>
      </trkpt>
      <trkpt lat="50.45446" lon="3.52005">
        <ele>23.9</ele>
        <time>2022-04-03T06:36:05.000Z</time>
      </trkpt>
      <trkpt lat="50.45451" lon="3.52003">
        <ele>24.1</ele>
        <time>2022-04-03T06:36:12.000Z</time>
      </trkpt>
      <trkpt lat="50.45457" lon="3.52">
        <ele>24.5</ele>
        <time>2022-04-03T06:36:14.000Z</time>
      </trkpt>
      <trkpt lat="50.45464" lon="3.51995">
        <ele>24.7</ele>
        <time>2022-04-03T06:36:16.000Z</time>
      </trkpt>
      <trkpt lat="50.45468" lon="3.5199">
        <ele>24.8</ele>
        <time>2022-04-03T06:36:17.565Z</time>
      </trkpt>
      <trkpt lat="50.45474" lon="3.51985">
        <ele>25.1</ele>
        <time>2022-04-03T06:36:20.000Z</time>
      </trkpt>
      <trkpt lat="50.4548" lon="3.51979">
        <ele>25.6</ele>
        <time>2022-04-03T06:36:22.000Z</time>
      </trkpt>
      <trkpt lat="50.45484" lon="3.51974">
        <ele>25.8</ele>
        <time>2022-04-03T06:36:24.000Z</time>
      </trkpt>
      <trkpt lat="50.45489" lon="3.51969">
        <ele>26.3</ele>
        <time>2022-04-03T06:36:26.945Z</time>
      </trkpt>
      <trkpt lat="50.45494" lon="3.51964">
        <ele>26.6</ele>
        <time>2022-04-03T06:36:31.025Z</time>
      </trkpt>
      <trkpt lat="50.45499" lon="3.51961">
        <ele>26.9</ele>
        <time>2022-04-03T06:36:33.000Z</time>
      </trkpt>
      <trkpt lat="50.45505" lon="3.51956">
        <ele>27.5</ele>
        <time>2022-04-03T06:36:36.548Z</time>
      </trkpt>
      <trkpt lat="50.4551" lon="3.51952">
        <ele>28</ele>
        <time>2022-04-03T06:36:38.885Z</time>
      </trkpt>
      <trkpt lat="50.45514" lon="3.51948">
        <ele>28.4</ele>
        <time>2022-04-03T06:36:41.000Z</time>
      </trkpt>
      <trkpt lat="50.45519" lon="3.51944">
        <ele>29.1</ele>
        <time>2022-04-03T06:36:42.846Z</time>
      </trkpt>
      <trkpt lat="50.45525" lon="3.51935">
        <ele>29.7</ele>
        <time>2022-04-03T06:36:45.668Z</time>
      </trkpt>
      <trkpt lat="50.4553" lon="3.5193">
        <ele>30</ele>
        <time>2022-04-03T06:36:48.000Z</time>
      </trkpt>
      <trkpt lat="50.45535" lon="3.51924">
        <ele>30.1</ele>
        <time>2022-04-03T06:36:50.000Z</time>
      </trkpt>
      <trkpt lat="50.4554" lon="3.5192">
        <ele>30.1</ele>
        <time>2022-04-03T06:36:51.808Z</time>
      </trkpt>
      <trkpt lat="50.45546" lon="3.51916">
        <ele>30</ele>
        <time>2022-04-03T06:36:54.000Z</time>
      </trkpt>
      <trkpt lat="50.45552" lon="3.51911">
        <ele>30.2</ele>
        <time>2022-04-03T06:36:56.000Z</time>
      </trkpt>
      <trkpt lat="50.45556" lon="3.51905">
        <ele>30.5</ele>
        <time>2022-04-03T06:36:57.828Z</time>
      </trkpt>
      <trkpt lat="50.45561" lon="3.51897">
        <ele>31.1</ele>
        <time>2022-04-03T06:37:00.027Z</time>
      </trkpt>
      <trkpt lat="50.45566" lon="3.51891">
        <ele>31.7</ele>
        <time>2022-04-03T06:37:02.000Z</time>
      </trkpt>
      <trkpt lat="50.45569" lon="3.51883">
        <ele>32</ele>
        <time>2022-04-03T06:37:04.000Z</time>
      </trkpt>
      <trkpt lat="50.45573" lon="3.51875">
        <ele>32.1</ele>
        <time>2022-04-03T06:37:06.065Z</time>
      </trkpt>
      <trkpt lat="50.45577" lon="3.51866">
        <ele>32.1</ele>
        <time>2022-04-03T06:37:08.785Z</time>
      </trkpt>
      <trkpt lat="50.45581" lon="3.51859">
        <ele>32</ele>
        <time>2022-04-03T06:37:10.947Z</time>
      </trkpt>
      <trkpt lat="50.45584" lon="3.51851">
        <ele>32</ele>
        <time>2022-04-03T06:37:13.048Z</time>
      </trkpt>
      <trkpt lat="50.4559" lon="3.51842">
        <ele>32.2</ele>
        <time>2022-04-03T06:37:16.000Z</time>
      </trkpt>
      <trkpt lat="50.45595" lon="3.51833">
        <ele>32.4</ele>
        <time>2022-04-03T06:37:18.826Z</time>
      </trkpt>
      <trkpt lat="50.456" lon="3.51826">
        <ele>32.4</ele>
        <time>2022-04-03T06:37:21.000Z</time>
      </trkpt>
      <trkpt lat="50.45604" lon="3.51818">
        <ele>32.3</ele>
        <time>2022-04-03T06:37:23.355Z</time>
      </trkpt>
      <trkpt lat="50.45608" lon="3.51812">
        <ele>32.2</ele>
        <time>2022-04-03T06:37:26.000Z</time>
      </trkpt>
      <trkpt lat="50.45613" lon="3.51806">
        <ele>32.1</ele>
        <time>2022-04-03T06:37:28.929Z</time>
      </trkpt>
      <trkpt lat="50.45617" lon="3.518">
        <ele>32.3</ele>
        <time>2022-04-03T06:37:31.000Z</time>
      </trkpt>
      <trkpt lat="50.4562" lon="3.51795">
        <ele>32.5</ele>
        <time>2022-04-03T06:37:33.000Z</time>
      </trkpt>
      <trkpt lat="50.45625" lon="3.5179">
        <ele>32.5</ele>
        <time>2022-04-03T06:37:35.000Z</time>
      </trkpt>
      <trkpt lat="50.45631" lon="3.51782">
        <ele>32.3</ele>
        <time>2022-04-03T06:37:37.765Z</time>
      </trkpt>
      <trkpt lat="50.45636" lon="3.51776">
        <ele>32.2</ele>
        <time>2022-04-03T06:37:40.107Z</time>
      </trkpt>
      <trkpt lat="50.45641" lon="3.51771">
        <ele>32.3</ele>
        <time>2022-04-03T06:37:42.000Z</time>
      </trkpt>
      <trkpt lat="50.45645" lon="3.51768">
        <ele>32.5</ele>
        <time>2022-04-03T06:37:43.887Z</time>
      </trkpt>
      <trkpt lat="50.45651" lon="3.51762">
        <ele>32.8</ele>
        <time>2022-04-03T06:37:46.345Z</time>
      </trkpt>
      <trkpt lat="50.45657" lon="3.51757">
        <ele>32.9</ele>
        <time>2022-04-03T06:37:48.625Z</time>
      </trkpt>
      <trkpt lat="50.45662" lon="3.51751">
        <ele>33</ele>
        <time>2022-04-03T06:37:50.866Z</time>
      </trkpt>
      <trkpt lat="50.45667" lon="3.51747">
        <ele>33</ele>
        <time>2022-04-03T06:37:53.000Z</time>
      </trkpt>
      <trkpt lat="50.45671" lon="3.51742">
        <ele>33.2</ele>
        <time>2022-04-03T06:37:54.946Z</time>
      </trkpt>
      <trkpt lat="50.45675" lon="3.51737">
        <ele>33.3</ele>
        <time>2022-04-03T06:37:57.000Z</time>
      </trkpt>
      <trkpt lat="50.45679" lon="3.51732">
        <ele>33.4</ele>
        <time>2022-04-03T06:37:59.000Z</time>
      </trkpt>
      <trkpt lat="50.45683" lon="3.51727">
        <ele>33.6</ele>
        <time>2022-04-03T06:38:00.869Z</time>
      </trkpt>
      <trkpt lat="50.45687" lon="3.51722">
        <ele>33.7</ele>
        <time>2022-04-03T06:38:03.053Z</time>
      </trkpt>
      <trkpt lat="50.45691" lon="3.51718">
        <ele>33.9</ele>
        <time>2022-04-03T06:38:04.865Z</time>
      </trkpt>
      <trkpt lat="50.45695" lon="3.51712">
        <ele>34</ele>
        <time>2022-04-03T06:38:08.000Z</time>
      </trkpt>
      <trkpt lat="50.457" lon="3.51705">
        <ele>33.9</ele>
        <time>2022-04-03T06:38:11.120Z</time>
      </trkpt>
      <trkpt lat="50.45704" lon="3.51701">
        <ele>33.9</ele>
        <time>2022-04-03T06:38:12.866Z</time>
      </trkpt>
      <trkpt lat="50.45708" lon="3.51695">
        <ele>34</ele>
        <time>2022-04-03T06:38:15.000Z</time>
      </trkpt>
      <trkpt lat="50.45712" lon="3.51688">
        <ele>34</ele>
        <time>2022-04-03T06:38:16.984Z</time>
      </trkpt>
      <trkpt lat="50.45717" lon="3.51682">
        <ele>34</ele>
        <time>2022-04-03T06:38:19.000Z</time>
      </trkpt>
      <trkpt lat="50.45722" lon="3.51675">
        <ele>34</ele>
        <time>2022-04-03T06:38:21.449Z</time>
      </trkpt>
      <trkpt lat="50.45726" lon="3.51669">
        <ele>34</ele>
        <time>2022-04-03T06:38:23.000Z</time>
      </trkpt>
      <trkpt lat="50.45731" lon="3.51662">
        <ele>34</ele>
        <time>2022-04-03T06:38:25.000Z</time>
      </trkpt>
      <trkpt lat="50.45736" lon="3.51655">
        <ele>34</ele>
        <time>2022-04-03T06:38:27.000Z</time>
      </trkpt>
      <trkpt lat="50.45742" lon="3.51648">
        <ele>34</ele>
        <time>2022-04-03T06:38:28.925Z</time>
      </trkpt>
      <trkpt lat="50.45749" lon="3.51639">
        <ele>34</ele>
        <time>2022-04-03T06:38:31.065Z</time>
      </trkpt>
      <trkpt lat="50.45757" lon="3.5163">
        <ele>34</ele>
        <time>2022-04-03T06:38:33.686Z</time>
      </trkpt>
      <trkpt lat="50.45762" lon="3.51626">
        <ele>34</ele>
        <time>2022-04-03T06:38:35.067Z</time>
      </trkpt>
      <trkpt lat="50.45767" lon="3.5162">
        <ele>34</ele>
        <time>2022-04-03T06:38:36.748Z</time>
      </trkpt>
      <trkpt lat="50.45774" lon="3.51612">
        <ele>34</ele>
        <time>2022-04-03T06:38:38.984Z</time>
      </trkpt>
      <trkpt lat="50.4578" lon="3.51606">
        <ele>34</ele>
        <time>2022-04-03T06:38:41.000Z</time>
      </trkpt>
      <trkpt lat="50.45787" lon="3.51599">
        <ele>34</ele>
        <time>2022-04-03T06:38:42.948Z</time>
      </trkpt>
      <trkpt lat="50.45794" lon="3.51592">
        <ele>34</ele>
        <time>2022-04-03T06:38:45.000Z</time>
      </trkpt>
      <trkpt lat="50.45801" lon="3.51587">
        <ele>34</ele>
        <time>2022-04-03T06:38:47.099Z</time>
      </trkpt>
      <trkpt lat="50.45809" lon="3.5158">
        <ele>34</ele>
        <time>2022-04-03T06:38:49.570Z</time>
      </trkpt>
      <trkpt lat="50.45813" lon="3.51576">
        <ele>34</ele>
        <time>2022-04-03T06:38:51.000Z</time>
      </trkpt>
      <trkpt lat="50.45819" lon="3.5157">
        <ele>34</ele>
        <time>2022-04-03T06:38:53.000Z</time>
      </trkpt>
      <trkpt lat="50.45826" lon="3.51564">
        <ele>34</ele>
        <time>2022-04-03T06:38:55.030Z</time>
      </trkpt>
      <trkpt lat="50.45833" lon="3.51558">
        <ele>34</ele>
        <time>2022-04-03T06:38:57.000Z</time>
      </trkpt>
      <trkpt lat="50.45839" lon="3.51552">
        <ele>34</ele>
        <time>2022-04-03T06:38:58.946Z</time>
      </trkpt>
      <trkpt lat="50.45845" lon="3.5155">
        <ele>34</ele>
        <time>2022-04-03T06:39:01.000Z</time>
      </trkpt>
      <trkpt lat="50.45852" lon="3.51546">
        <ele>34</ele>
        <time>2022-04-03T06:39:03.000Z</time>
      </trkpt>
      <trkpt lat="50.45859" lon="3.51542">
        <ele>34</ele>
        <time>2022-04-03T06:39:05.000Z</time>
      </trkpt>
      <trkpt lat="50.45868" lon="3.51537">
        <ele>33.9</ele>
        <time>2022-04-03T06:39:07.268Z</time>
      </trkpt>
      <trkpt lat="50.45877" lon="3.51534">
        <ele>33.9</ele>
        <time>2022-04-03T06:39:09.368Z</time>
      </trkpt>
      <trkpt lat="50.45884" lon="3.51531">
        <ele>33.9</ele>
        <time>2022-04-03T06:39:11.446Z</time>
      </trkpt>
      <trkpt lat="50.4589" lon="3.51529">
        <ele>33.9</ele>
        <time>2022-04-03T06:39:13.046Z</time>
      </trkpt>
      <trkpt lat="50.45896" lon="3.51526">
        <ele>33.8</ele>
        <time>2022-04-03T06:39:15.000Z</time>
      </trkpt>
      <trkpt lat="50.45904" lon="3.51522">
        <ele>33.6</ele>
        <time>2022-04-03T06:39:17.049Z</time>
      </trkpt>
      <trkpt lat="50.45908" lon="3.51519">
        <ele>33.5</ele>
        <time>2022-04-03T06:39:18.329Z</time>
      </trkpt>
      <trkpt lat="50.45918" lon="3.51513">
        <ele>33.5</ele>
        <time>2022-04-03T06:39:20.926Z</time>
      </trkpt>
      <trkpt lat="50.45925" lon="3.51507">
        <ele>33.5</ele>
        <time>2022-04-03T06:39:23.000Z</time>
      </trkpt>
      <trkpt lat="50.45932" lon="3.51499">
        <ele>33.5</ele>
        <time>2022-04-03T06:39:25.000Z</time>
      </trkpt>
      <trkpt lat="50.45939" lon="3.51493">
        <ele>33.4</ele>
        <time>2022-04-03T06:39:27.086Z</time>
      </trkpt>
      <trkpt lat="50.45944" lon="3.51488">
        <ele>33.4</ele>
        <time>2022-04-03T06:39:28.388Z</time>
      </trkpt>
      <trkpt lat="50.45948" lon="3.51484">
        <ele>33.5</ele>
        <time>2022-04-03T06:39:29.767Z</time>
      </trkpt>
      <trkpt lat="50.45953" lon="3.5148">
        <ele>33.5</ele>
        <time>2022-04-03T06:39:31.046Z</time>
      </trkpt>
      <trkpt lat="50.45962" lon="3.51473">
        <ele>33.4</ele>
        <time>2022-04-03T06:39:33.000Z</time>
      </trkpt>
      <trkpt lat="50.45966" lon="3.5147">
        <ele>33.2</ele>
        <time>2022-04-03T06:39:34.000Z</time>
      </trkpt>
      <trkpt lat="50.45971" lon="3.51466">
        <ele>33</ele>
        <time>2022-04-03T06:39:35.000Z</time>
      </trkpt>
      <trkpt lat="50.45975" lon="3.51462">
        <ele>33</ele>
        <time>2022-04-03T06:39:36.000Z</time>
      </trkpt>
      <trkpt lat="50.45979" lon="3.51459">
        <ele>33</ele>
        <time>2022-04-03T06:39:37.000Z</time>
      </trkpt>
      <trkpt lat="50.45984" lon="3.51455">
        <ele>33</ele>
        <time>2022-04-03T06:39:38.000Z</time>
      </trkpt>
      <trkpt lat="50.45989" lon="3.51452">
        <ele>33</ele>
        <time>2022-04-03T06:39:39.000Z</time>
      </trkpt>
      <trkpt lat="50.45993" lon="3.51448">
        <ele>33</ele>
        <time>2022-04-03T06:39:40.000Z</time>
      </trkpt>
      <trkpt lat="50.45998" lon="3.51444">
        <ele>33</ele>
        <time>2022-04-03T06:39:41.000Z</time>
      </trkpt>
      <trkpt lat="50.46003" lon="3.5144">
        <ele>32.9</ele>
        <time>2022-04-03T06:39:42.000Z</time>
      </trkpt>
      <trkpt lat="50.46008" lon="3.51435">
        <ele>32.7</ele>
        <time>2022-04-03T06:39:43.000Z</time>
      </trkpt>
      <trkpt lat="50.46013" lon="3.51431">
        <ele>32.5</ele>
        <time>2022-04-03T06:39:44.000Z</time>
      </trkpt>
      <trkpt lat="50.46018" lon="3.51427">
        <ele>32.4</ele>
        <time>2022-04-03T06:39:45.000Z</time>
      </trkpt>
      <trkpt lat="50.46023" lon="3.51423">
        <ele>32.2</ele>
        <time>2022-04-03T06:39:46.000Z</time>
      </trkpt>
      <trkpt lat="50.46027" lon="3.51419">
        <ele>32</ele>
        <time>2022-04-03T06:39:47.000Z</time>
      </trkpt>
      <trkpt lat="50.46032" lon="3.51414">
        <ele>32.1</ele>
        <time>2022-04-03T06:39:48.000Z</time>
      </trkpt>
      <trkpt lat="50.46037" lon="3.51409">
        <ele>32.2</ele>
        <time>2022-04-03T06:39:49.000Z</time>
      </trkpt>
      <trkpt lat="50.46041" lon="3.51405">
        <ele>32.2</ele>
        <time>2022-04-03T06:39:50.000Z</time>
      </trkpt>
      <trkpt lat="50.46046" lon="3.514">
        <ele>32.2</ele>
        <time>2022-04-03T06:39:51.000Z</time>
      </trkpt>
      <trkpt lat="50.4605" lon="3.51395">
        <ele>32.2</ele>
        <time>2022-04-03T06:39:52.000Z</time>
      </trkpt>
      <trkpt lat="50.46054" lon="3.5139">
        <ele>32.1</ele>
        <time>2022-04-03T06:39:53.000Z</time>
      </trkpt>
      <trkpt lat="50.46059" lon="3.51385">
        <ele>31.9</ele>
        <time>2022-04-03T06:39:54.000Z</time>
      </trkpt>
      <trkpt lat="50.46064" lon="3.5138">
        <ele>31.8</ele>
        <time>2022-04-03T06:39:55.000Z</time>
      </trkpt>
      <trkpt lat="50.46067" lon="3.51374">
        <ele>31.8</ele>
        <time>2022-04-03T06:39:56.000Z</time>
      </trkpt>
      <trkpt lat="50.46071" lon="3.51368">
        <ele>31.9</ele>
        <time>2022-04-03T06:39:57.000Z</time>
      </trkpt>
      <trkpt lat="50.46074" lon="3.51362">
        <ele>32</ele>
        <time>2022-04-03T06:39:58.000Z</time>
      </trkpt>
      <trkpt lat="50.46077" lon="3.51355">
        <ele>32</ele>
        <time>2022-04-03T06:39:59.000Z</time>
      </trkpt>
      <trkpt lat="50.4608" lon="3.51348">
        <ele>32</ele>
        <time>2022-04-03T06:40:00.000Z</time>
      </trkpt>
      <trkpt lat="50.46083" lon="3.51342">
        <ele>32</ele>
        <time>2022-04-03T06:40:01.000Z</time>
      </trkpt>
      <trkpt lat="50.46086" lon="3.51335">
        <ele>32</ele>
        <time>2022-04-03T06:40:02.000Z</time>
      </trkpt>
      <trkpt lat="50.46089" lon="3.51329">
        <ele>32</ele>
        <time>2022-04-03T06:40:03.000Z</time>
      </trkpt>
      <trkpt lat="50.46093" lon="3.51318">
        <ele>32</ele>
        <time>2022-04-03T06:40:05.000Z</time>
      </trkpt>
      <trkpt lat="50.46096" lon="3.51312">
        <ele>32</ele>
        <time>2022-04-03T06:40:06.000Z</time>
      </trkpt>
      <trkpt lat="50.46099" lon="3.51306">
        <ele>32</ele>
        <time>2022-04-03T06:40:07.000Z</time>
      </trkpt>
      <trkpt lat="50.46101" lon="3.51299">
        <ele>31.8</ele>
        <time>2022-04-03T06:40:08.000Z</time>
      </trkpt>
      <trkpt lat="50.46104" lon="3.51293">
        <ele>31.7</ele>
        <time>2022-04-03T06:40:09.000Z</time>
      </trkpt>
      <trkpt lat="50.46107" lon="3.51287">
        <ele>31.4</ele>
        <time>2022-04-03T06:40:10.000Z</time>
      </trkpt>
      <trkpt lat="50.4611" lon="3.51281">
        <ele>31.2</ele>
        <time>2022-04-03T06:40:11.000Z</time>
      </trkpt>
      <trkpt lat="50.46113" lon="3.51275">
        <ele>31</ele>
        <time>2022-04-03T06:40:12.000Z</time>
      </trkpt>
      <trkpt lat="50.46116" lon="3.5127">
        <ele>31</ele>
        <time>2022-04-03T06:40:13.000Z</time>
      </trkpt>
      <trkpt lat="50.4612" lon="3.51265">
        <ele>31</ele>
        <time>2022-04-03T06:40:14.000Z</time>
      </trkpt>
      <trkpt lat="50.46123" lon="3.51259">
        <ele>31</ele>
        <time>2022-04-03T06:40:15.000Z</time>
      </trkpt>
      <trkpt lat="50.46127" lon="3.51254">
        <ele>31</ele>
        <time>2022-04-03T06:40:16.000Z</time>
      </trkpt>
      <trkpt lat="50.4613" lon="3.51249">
        <ele>31</ele>
        <time>2022-04-03T06:40:17.000Z</time>
      </trkpt>
      <trkpt lat="50.46134" lon="3.51243">
        <ele>31</ele>
        <time>2022-04-03T06:40:18.000Z</time>
      </trkpt>
      <trkpt lat="50.46137" lon="3.51237">
        <ele>31</ele>
        <time>2022-04-03T06:40:19.000Z</time>
      </trkpt>
      <trkpt lat="50.46141" lon="3.51232">
        <ele>30.9</ele>
        <time>2022-04-03T06:40:20.000Z</time>
      </trkpt>
      <trkpt lat="50.46144" lon="3.51226">
        <ele>30.8</ele>
        <time>2022-04-03T06:40:21.000Z</time>
      </trkpt>
      <trkpt lat="50.46148" lon="3.51219">
        <ele>30.7</ele>
        <time>2022-04-03T06:40:22.000Z</time>
      </trkpt>
      <trkpt lat="50.46151" lon="3.51212">
        <ele>30.6</ele>
        <time>2022-04-03T06:40:23.000Z</time>
      </trkpt>
      <trkpt lat="50.46155" lon="3.51206">
        <ele>30.4</ele>
        <time>2022-04-03T06:40:24.000Z</time>
      </trkpt>
      <trkpt lat="50.46158" lon="3.512">
        <ele>30.3</ele>
        <time>2022-04-03T06:40:25.000Z</time>
      </trkpt>
      <trkpt lat="50.46162" lon="3.51195">
        <ele>30.2</ele>
        <time>2022-04-03T06:40:26.000Z</time>
      </trkpt>
      <trkpt lat="50.46166" lon="3.5119">
        <ele>30</ele>
        <time>2022-04-03T06:40:27.000Z</time>
      </trkpt>
      <trkpt lat="50.46169" lon="3.51185">
        <ele>29.9</ele>
        <time>2022-04-03T06:40:28.000Z</time>
      </trkpt>
      <trkpt lat="50.46172" lon="3.5118">
        <ele>29.8</ele>
        <time>2022-04-03T06:40:29.000Z</time>
      </trkpt>
      <trkpt lat="50.46176" lon="3.51175">
        <ele>29.7</ele>
        <time>2022-04-03T06:40:30.000Z</time>
      </trkpt>
      <trkpt lat="50.46179" lon="3.5117">
        <ele>29.6</ele>
        <time>2022-04-03T06:40:31.000Z</time>
      </trkpt>
      <trkpt lat="50.46182" lon="3.51164">
        <ele>29.5</ele>
        <time>2022-04-03T06:40:32.000Z</time>
      </trkpt>
      <trkpt lat="50.46185" lon="3.51159">
        <ele>29.5</ele>
        <time>2022-04-03T06:40:33.000Z</time>
      </trkpt>
      <trkpt lat="50.46189" lon="3.51154">
        <ele>29.6</ele>
        <time>2022-04-03T06:40:34.000Z</time>
      </trkpt>
      <trkpt lat="50.46192" lon="3.51149">
        <ele>29.7</ele>
        <time>2022-04-03T06:40:35.000Z</time>
      </trkpt>
      <trkpt lat="50.46196" lon="3.51143">
        <ele>29.8</ele>
        <time>2022-04-03T06:40:36.000Z</time>
      </trkpt>
      <trkpt lat="50.46199" lon="3.51138">
        <ele>29.8</ele>
        <time>2022-04-03T06:40:37.000Z</time>
      </trkpt>
      <trkpt lat="50.46202" lon="3.51132">
        <ele>29.7</ele>
        <time>2022-04-03T06:40:38.000Z</time>
      </trkpt>
      <trkpt lat="50.46206" lon="3.51127">
        <ele>29.6</ele>
        <time>2022-04-03T06:40:39.000Z</time>
      </trkpt>
      <trkpt lat="50.46209" lon="3.51122">
        <ele>29.5</ele>
        <time>2022-04-03T06:40:40.000Z</time>
      </trkpt>
      <trkpt lat="50.46213" lon="3.51116">
        <ele>29.3</ele>
        <time>2022-04-03T06:40:41.000Z</time>
      </trkpt>
      <trkpt lat="50.46216" lon="3.5111">
        <ele>29.3</ele>
        <time>2022-04-03T06:40:42.000Z</time>
      </trkpt>
      <trkpt lat="50.4622" lon="3.51105">
        <ele>29.3</ele>
        <time>2022-04-03T06:40:43.000Z</time>
      </trkpt>
      <trkpt lat="50.46223" lon="3.511">
        <ele>29.4</ele>
        <time>2022-04-03T06:40:44.000Z</time>
      </trkpt>
      <trkpt lat="50.46226" lon="3.51094">
        <ele>29.5</ele>
        <time>2022-04-03T06:40:45.000Z</time>
      </trkpt>
      <trkpt lat="50.46229" lon="3.51089">
        <ele>29.6</ele>
        <time>2022-04-03T06:40:46.000Z</time>
      </trkpt>
      <trkpt lat="50.46232" lon="3.51083">
        <ele>29.7</ele>
        <time>2022-04-03T06:40:47.000Z</time>
      </trkpt>
      <trkpt lat="50.46236" lon="3.51078">
        <ele>29.6</ele>
        <time>2022-04-03T06:40:48.000Z</time>
      </trkpt>
      <trkpt lat="50.46239" lon="3.51073">
        <ele>29.6</ele>
        <time>2022-04-03T06:40:49.000Z</time>
      </trkpt>
      <trkpt lat="50.46242" lon="3.51068">
        <ele>29.7</ele>
        <time>2022-04-03T06:40:50.000Z</time>
      </trkpt>
      <trkpt lat="50.46246" lon="3.51063">
        <ele>29.8</ele>
        <time>2022-04-03T06:40:51.000Z</time>
      </trkpt>
      <trkpt lat="50.46252" lon="3.51055">
        <ele>29.9</ele>
        <time>2022-04-03T06:40:53.000Z</time>
      </trkpt>
      <trkpt lat="50.46258" lon="3.51045">
        <ele>29.8</ele>
        <time>2022-04-03T06:40:55.000Z</time>
      </trkpt>
      <trkpt lat="50.46263" lon="3.51037">
        <ele>29.8</ele>
        <time>2022-04-03T06:40:57.000Z</time>
      </trkpt>
      <trkpt lat="50.46269" lon="3.51028">
        <ele>30</ele>
        <time>2022-04-03T06:41:00.183Z</time>
      </trkpt>
      <trkpt lat="50.46275" lon="3.51019">
        <ele>30</ele>
        <time>2022-04-03T06:41:01.555Z</time>
      </trkpt>
      <trkpt lat="50.46279" lon="3.51013">
        <ele>30</ele>
        <time>2022-04-03T06:41:02.699Z</time>
      </trkpt>
      <trkpt lat="50.46284" lon="3.51007">
        <ele>29.9</ele>
        <time>2022-04-03T06:41:03.840Z</time>
      </trkpt>
      <trkpt lat="50.46291" lon="3.50997">
        <ele>30</ele>
        <time>2022-04-03T06:41:06.000Z</time>
      </trkpt>
      <trkpt lat="50.46294" lon="3.50991">
        <ele>30</ele>
        <time>2022-04-03T06:41:07.000Z</time>
      </trkpt>
      <trkpt lat="50.46297" lon="3.50986">
        <ele>30</ele>
        <time>2022-04-03T06:41:08.067Z</time>
      </trkpt>
      <trkpt lat="50.463" lon="3.5098">
        <ele>30</ele>
        <time>2022-04-03T06:41:09.189Z</time>
      </trkpt>
      <trkpt lat="50.46303" lon="3.50974">
        <ele>30</ele>
        <time>2022-04-03T06:41:10.403Z</time>
      </trkpt>
      <trkpt lat="50.46308" lon="3.50964">
        <ele>29.9</ele>
        <time>2022-04-03T06:41:12.000Z</time>
      </trkpt>
      <trkpt lat="50.46311" lon="3.50958">
        <ele>29.8</ele>
        <time>2022-04-03T06:41:13.000Z</time>
      </trkpt>
      <trkpt lat="50.46313" lon="3.50952">
        <ele>29.7</ele>
        <time>2022-04-03T06:41:14.000Z</time>
      </trkpt>
      <trkpt lat="50.46316" lon="3.50945">
        <ele>29.6</ele>
        <time>2022-04-03T06:41:15.000Z</time>
      </trkpt>
      <trkpt lat="50.46319" lon="3.50938">
        <ele>29.5</ele>
        <time>2022-04-03T06:41:16.000Z</time>
      </trkpt>
      <trkpt lat="50.46322" lon="3.50932">
        <ele>29.4</ele>
        <time>2022-04-03T06:41:17.000Z</time>
      </trkpt>
      <trkpt lat="50.46325" lon="3.50925">
        <ele>29.3</ele>
        <time>2022-04-03T06:41:18.000Z</time>
      </trkpt>
      <trkpt lat="50.46329" lon="3.50918">
        <ele>29.2</ele>
        <time>2022-04-03T06:41:19.000Z</time>
      </trkpt>
      <trkpt lat="50.46332" lon="3.50911">
        <ele>29</ele>
        <time>2022-04-03T06:41:20.000Z</time>
      </trkpt>
      <trkpt lat="50.46335" lon="3.50905">
        <ele>29</ele>
        <time>2022-04-03T06:41:21.000Z</time>
      </trkpt>
      <trkpt lat="50.46339" lon="3.50899">
        <ele>28.9</ele>
        <time>2022-04-03T06:41:22.000Z</time>
      </trkpt>
      <trkpt lat="50.46343" lon="3.50893">
        <ele>28.7</ele>
        <time>2022-04-03T06:41:23.000Z</time>
      </trkpt>
      <trkpt lat="50.46347" lon="3.50888">
        <ele>28.5</ele>
        <time>2022-04-03T06:41:24.000Z</time>
      </trkpt>
      <trkpt lat="50.46352" lon="3.50883">
        <ele>28.3</ele>
        <time>2022-04-03T06:41:25.000Z</time>
      </trkpt>
      <trkpt lat="50.46356" lon="3.50877">
        <ele>28.2</ele>
        <time>2022-04-03T06:41:26.000Z</time>
      </trkpt>
      <trkpt lat="50.4636" lon="3.50872">
        <ele>28</ele>
        <time>2022-04-03T06:41:27.000Z</time>
      </trkpt>
      <trkpt lat="50.46365" lon="3.50868">
        <ele>28</ele>
        <time>2022-04-03T06:41:28.000Z</time>
      </trkpt>
      <trkpt lat="50.46369" lon="3.50863">
        <ele>28</ele>
        <time>2022-04-03T06:41:29.000Z</time>
      </trkpt>
      <trkpt lat="50.46374" lon="3.50858">
        <ele>27.9</ele>
        <time>2022-04-03T06:41:30.000Z</time>
      </trkpt>
      <trkpt lat="50.46379" lon="3.50854">
        <ele>27.8</ele>
        <time>2022-04-03T06:41:31.000Z</time>
      </trkpt>
      <trkpt lat="50.46384" lon="3.50849">
        <ele>27.6</ele>
        <time>2022-04-03T06:41:32.000Z</time>
      </trkpt>
      <trkpt lat="50.46388" lon="3.50845">
        <ele>27.4</ele>
        <time>2022-04-03T06:41:33.000Z</time>
      </trkpt>
      <trkpt lat="50.46393" lon="3.5084">
        <ele>27.2</ele>
        <time>2022-04-03T06:41:34.000Z</time>
      </trkpt>
      <trkpt lat="50.46397" lon="3.50836">
        <ele>27.1</ele>
        <time>2022-04-03T06:41:35.000Z</time>
      </trkpt>
      <trkpt lat="50.46402" lon="3.50832">
        <ele>27</ele>
        <time>2022-04-03T06:41:36.000Z</time>
      </trkpt>
      <trkpt lat="50.46407" lon="3.50828">
        <ele>27.1</ele>
        <time>2022-04-03T06:41:37.000Z</time>
      </trkpt>
      <trkpt lat="50.46412" lon="3.50823">
        <ele>27.1</ele>
        <time>2022-04-03T06:41:38.000Z</time>
      </trkpt>
      <trkpt lat="50.46417" lon="3.50819">
        <ele>27</ele>
        <time>2022-04-03T06:41:39.000Z</time>
      </trkpt>
      <trkpt lat="50.46422" lon="3.50814">
        <ele>26.8</ele>
        <time>2022-04-03T06:41:40.000Z</time>
      </trkpt>
      <trkpt lat="50.46427" lon="3.5081">
        <ele>26.6</ele>
        <time>2022-04-03T06:41:41.000Z</time>
      </trkpt>
      <trkpt lat="50.46432" lon="3.50807">
        <ele>26.4</ele>
        <time>2022-04-03T06:41:42.000Z</time>
      </trkpt>
      <trkpt lat="50.46436" lon="3.50803">
        <ele>26.4</ele>
        <time>2022-04-03T06:41:43.000Z</time>
      </trkpt>
      <trkpt lat="50.46441" lon="3.50799">
        <ele>26.3</ele>
        <time>2022-04-03T06:41:44.000Z</time>
      </trkpt>
      <trkpt lat="50.46445" lon="3.50795">
        <ele>26.4</ele>
        <time>2022-04-03T06:41:45.000Z</time>
      </trkpt>
      <trkpt lat="50.46449" lon="3.50791">
        <ele>26.4</ele>
        <time>2022-04-03T06:41:46.000Z</time>
      </trkpt>
      <trkpt lat="50.46454" lon="3.50788">
        <ele>26.3</ele>
        <time>2022-04-03T06:41:47.000Z</time>
      </trkpt>
      <trkpt lat="50.46458" lon="3.50785">
        <ele>26.3</ele>
        <time>2022-04-03T06:41:48.000Z</time>
      </trkpt>
      <trkpt lat="50.46463" lon="3.50783">
        <ele>26.1</ele>
        <time>2022-04-03T06:41:49.000Z</time>
      </trkpt>
      <trkpt lat="50.46467" lon="3.50779">
        <ele>26.1</ele>
        <time>2022-04-03T06:41:50.000Z</time>
      </trkpt>
      <trkpt lat="50.46472" lon="3.50776">
        <ele>26.1</ele>
        <time>2022-04-03T06:41:51.000Z</time>
      </trkpt>
      <trkpt lat="50.46476" lon="3.50772">
        <ele>26.1</ele>
        <time>2022-04-03T06:41:52.000Z</time>
      </trkpt>
      <trkpt lat="50.46484" lon="3.5077">
        <ele>25.9</ele>
        <time>2022-04-03T06:41:54.000Z</time>
      </trkpt>
      <trkpt lat="50.46489" lon="3.50771">
        <ele>25.6</ele>
        <time>2022-04-03T06:41:55.000Z</time>
      </trkpt>
      <trkpt lat="50.46494" lon="3.50772">
        <ele>25.4</ele>
        <time>2022-04-03T06:41:56.000Z</time>
      </trkpt>
      <trkpt lat="50.46498" lon="3.50773">
        <ele>25.2</ele>
        <time>2022-04-03T06:41:57.000Z</time>
      </trkpt>
      <trkpt lat="50.46504" lon="3.50775">
        <ele>25</ele>
        <time>2022-04-03T06:41:58.000Z</time>
      </trkpt>
      <trkpt lat="50.46509" lon="3.50776">
        <ele>24.7</ele>
        <time>2022-04-03T06:41:59.000Z</time>
      </trkpt>
      <trkpt lat="50.46515" lon="3.50776">
        <ele>24.5</ele>
        <time>2022-04-03T06:42:00.000Z</time>
      </trkpt>
      <trkpt lat="50.46521" lon="3.50776">
        <ele>24.3</ele>
        <time>2022-04-03T06:42:01.000Z</time>
      </trkpt>
      <trkpt lat="50.46528" lon="3.50775">
        <ele>24.1</ele>
        <time>2022-04-03T06:42:02.000Z</time>
      </trkpt>
      <trkpt lat="50.46534" lon="3.50775">
        <ele>23.9</ele>
        <time>2022-04-03T06:42:03.000Z</time>
      </trkpt>
      <trkpt lat="50.46541" lon="3.50775">
        <ele>23.6</ele>
        <time>2022-04-03T06:42:04.000Z</time>
      </trkpt>
      <trkpt lat="50.46548" lon="3.50775">
        <ele>23.3</ele>
        <time>2022-04-03T06:42:05.000Z</time>
      </trkpt>
      <trkpt lat="50.46555" lon="3.50774">
        <ele>23</ele>
        <time>2022-04-03T06:42:06.000Z</time>
      </trkpt>
      <trkpt lat="50.46561" lon="3.50774">
        <ele>22.8</ele>
        <time>2022-04-03T06:42:07.000Z</time>
      </trkpt>
      <trkpt lat="50.46568" lon="3.50775">
        <ele>22.6</ele>
        <time>2022-04-03T06:42:08.000Z</time>
      </trkpt>
      <trkpt lat="50.46575" lon="3.50776">
        <ele>22.3</ele>
        <time>2022-04-03T06:42:09.000Z</time>
      </trkpt>
      <trkpt lat="50.46581" lon="3.50778">
        <ele>22.1</ele>
        <time>2022-04-03T06:42:10.000Z</time>
      </trkpt>
      <trkpt lat="50.46588" lon="3.50779">
        <ele>21.8</ele>
        <time>2022-04-03T06:42:11.000Z</time>
      </trkpt>
      <trkpt lat="50.46595" lon="3.50781">
        <ele>21.6</ele>
        <time>2022-04-03T06:42:12.000Z</time>
      </trkpt>
      <trkpt lat="50.46601" lon="3.50782">
        <ele>21.4</ele>
        <time>2022-04-03T06:42:13.000Z</time>
      </trkpt>
      <trkpt lat="50.46608" lon="3.50783">
        <ele>21.1</ele>
        <time>2022-04-03T06:42:14.000Z</time>
      </trkpt>
      <trkpt lat="50.46614" lon="3.50783">
        <ele>20.9</ele>
        <time>2022-04-03T06:42:15.000Z</time>
      </trkpt>
      <trkpt lat="50.46621" lon="3.50783">
        <ele>20.6</ele>
        <time>2022-04-03T06:42:16.000Z</time>
      </trkpt>
      <trkpt lat="50.46627" lon="3.50785">
        <ele>20.4</ele>
        <time>2022-04-03T06:42:17.000Z</time>
      </trkpt>
      <trkpt lat="50.46633" lon="3.50786">
        <ele>20.2</ele>
        <time>2022-04-03T06:42:18.000Z</time>
      </trkpt>
      <trkpt lat="50.46638" lon="3.50787">
        <ele>20</ele>
        <time>2022-04-03T06:42:19.000Z</time>
      </trkpt>
      <trkpt lat="50.46644" lon="3.50788">
        <ele>19.9</ele>
        <time>2022-04-03T06:42:20.000Z</time>
      </trkpt>
      <trkpt lat="50.4665" lon="3.50789">
        <ele>19.8</ele>
        <time>2022-04-03T06:42:21.000Z</time>
      </trkpt>
      <trkpt lat="50.46656" lon="3.50789">
        <ele>19.8</ele>
        <time>2022-04-03T06:42:22.000Z</time>
      </trkpt>
      <trkpt lat="50.46661" lon="3.5079">
        <ele>19.6</ele>
        <time>2022-04-03T06:42:23.000Z</time>
      </trkpt>
      <trkpt lat="50.46667" lon="3.50791">
        <ele>19.5</ele>
        <time>2022-04-03T06:42:24.000Z</time>
      </trkpt>
      <trkpt lat="50.46672" lon="3.50792">
        <ele>19.4</ele>
        <time>2022-04-03T06:42:25.000Z</time>
      </trkpt>
      <trkpt lat="50.46678" lon="3.50793">
        <ele>19.3</ele>
        <time>2022-04-03T06:42:26.000Z</time>
      </trkpt>
      <trkpt lat="50.46684" lon="3.50793">
        <ele>19.2</ele>
        <time>2022-04-03T06:42:27.000Z</time>
      </trkpt>
      <trkpt lat="50.46689" lon="3.50794">
        <ele>19.1</ele>
        <time>2022-04-03T06:42:28.000Z</time>
      </trkpt>
      <trkpt lat="50.46694" lon="3.50795">
        <ele>19</ele>
        <time>2022-04-03T06:42:29.000Z</time>
      </trkpt>
      <trkpt lat="50.467" lon="3.50796">
        <ele>19</ele>
        <time>2022-04-03T06:42:30.000Z</time>
      </trkpt>
      <trkpt lat="50.46705" lon="3.50797">
        <ele>19</ele>
        <time>2022-04-03T06:42:31.000Z</time>
      </trkpt>
      <trkpt lat="50.46711" lon="3.50797">
        <ele>19</ele>
        <time>2022-04-03T06:42:32.000Z</time>
      </trkpt>
      <trkpt lat="50.46716" lon="3.50798">
        <ele>19</ele>
        <time>2022-04-03T06:42:33.000Z</time>
      </trkpt>
      <trkpt lat="50.46721" lon="3.50798">
        <ele>19</ele>
        <time>2022-04-03T06:42:34.000Z</time>
      </trkpt>
      <trkpt lat="50.46727" lon="3.50797">
        <ele>18.9</ele>
        <time>2022-04-03T06:42:35.000Z</time>
      </trkpt>
      <trkpt lat="50.46732" lon="3.50798">
        <ele>18.7</ele>
        <time>2022-04-03T06:42:36.000Z</time>
      </trkpt>
      <trkpt lat="50.46737" lon="3.50798">
        <ele>18.6</ele>
        <time>2022-04-03T06:42:37.000Z</time>
      </trkpt>
      <trkpt lat="50.46741" lon="3.508">
        <ele>18.5</ele>
        <time>2022-04-03T06:42:38.000Z</time>
      </trkpt>
      <trkpt lat="50.46745" lon="3.50805">
        <ele>18.2</ele>
        <time>2022-04-03T06:42:40.000Z</time>
      </trkpt>
      <trkpt lat="50.46749" lon="3.50812">
        <ele>18</ele>
        <time>2022-04-03T06:42:43.000Z</time>
      </trkpt>
      <trkpt lat="50.46754" lon="3.50811">
        <ele>18</ele>
        <time>2022-04-03T06:42:45.000Z</time>
      </trkpt>
      <trkpt lat="50.46755" lon="3.50804">
        <ele>18</ele>
        <time>2022-04-03T06:42:46.840Z</time>
      </trkpt>
      <trkpt lat="50.46759" lon="3.50799">
        <ele>18.2</ele>
        <time>2022-04-03T06:42:47.920Z</time>
      </trkpt>
      <trkpt lat="50.46762" lon="3.50794">
        <ele>18.2</ele>
        <time>2022-04-03T06:42:48.903Z</time>
      </trkpt>
      <trkpt lat="50.46766" lon="3.50788">
        <ele>18.3</ele>
        <time>2022-04-03T06:42:50.000Z</time>
      </trkpt>
      <trkpt lat="50.46772" lon="3.50777">
        <ele>18.2</ele>
        <time>2022-04-03T06:42:52.101Z</time>
      </trkpt>
      <trkpt lat="50.46775" lon="3.50771">
        <ele>18.3</ele>
        <time>2022-04-03T06:42:53.185Z</time>
      </trkpt>
      <trkpt lat="50.46782" lon="3.5076">
        <ele>18.5</ele>
        <time>2022-04-03T06:42:55.000Z</time>
      </trkpt>
      <trkpt lat="50.46786" lon="3.50755">
        <ele>18.6</ele>
        <time>2022-04-03T06:42:56.000Z</time>
      </trkpt>
      <trkpt lat="50.46789" lon="3.5075">
        <ele>18.6</ele>
        <time>2022-04-03T06:42:57.000Z</time>
      </trkpt>
      <trkpt lat="50.46793" lon="3.50746">
        <ele>18.4</ele>
        <time>2022-04-03T06:42:58.000Z</time>
      </trkpt>
      <trkpt lat="50.46798" lon="3.50743">
        <ele>18.2</ele>
        <time>2022-04-03T06:42:59.000Z</time>
      </trkpt>
      <trkpt lat="50.46802" lon="3.50739">
        <ele>18.1</ele>
        <time>2022-04-03T06:43:00.000Z</time>
      </trkpt>
      <trkpt lat="50.46807" lon="3.50736">
        <ele>18</ele>
        <time>2022-04-03T06:43:01.000Z</time>
      </trkpt>
      <trkpt lat="50.46811" lon="3.50732">
        <ele>18</ele>
        <time>2022-04-03T06:43:02.000Z</time>
      </trkpt>
      <trkpt lat="50.46815" lon="3.50728">
        <ele>18</ele>
        <time>2022-04-03T06:43:03.000Z</time>
      </trkpt>
      <trkpt lat="50.46819" lon="3.50724">
        <ele>18</ele>
        <time>2022-04-03T06:43:04.000Z</time>
      </trkpt>
      <trkpt lat="50.46823" lon="3.5072">
        <ele>18</ele>
        <time>2022-04-03T06:43:05.000Z</time>
      </trkpt>
      <trkpt lat="50.46828" lon="3.50716">
        <ele>18</ele>
        <time>2022-04-03T06:43:06.000Z</time>
      </trkpt>
      <trkpt lat="50.46832" lon="3.50712">
        <ele>18</ele>
        <time>2022-04-03T06:43:07.000Z</time>
      </trkpt>
      <trkpt lat="50.46835" lon="3.50708">
        <ele>18</ele>
        <time>2022-04-03T06:43:08.000Z</time>
      </trkpt>
      <trkpt lat="50.46839" lon="3.50704">
        <ele>18</ele>
        <time>2022-04-03T06:43:09.000Z</time>
      </trkpt>
      <trkpt lat="50.46843" lon="3.507">
        <ele>18</ele>
        <time>2022-04-03T06:43:10.000Z</time>
      </trkpt>
      <trkpt lat="50.46847" lon="3.50695">
        <ele>18</ele>
        <time>2022-04-03T06:43:11.000Z</time>
      </trkpt>
      <trkpt lat="50.46851" lon="3.50691">
        <ele>18.1</ele>
        <time>2022-04-03T06:43:12.000Z</time>
      </trkpt>
      <trkpt lat="50.46855" lon="3.50687">
        <ele>18.3</ele>
        <time>2022-04-03T06:43:13.000Z</time>
      </trkpt>
      <trkpt lat="50.46859" lon="3.50683">
        <ele>18.4</ele>
        <time>2022-04-03T06:43:14.000Z</time>
      </trkpt>
      <trkpt lat="50.46865" lon="3.50676">
        <ele>18.6</ele>
        <time>2022-04-03T06:43:16.000Z</time>
      </trkpt>
      <trkpt lat="50.46871" lon="3.50669">
        <ele>18.6</ele>
        <time>2022-04-03T06:43:18.000Z</time>
      </trkpt>
      <trkpt lat="50.46875" lon="3.50665">
        <ele>18.6</ele>
        <time>2022-04-03T06:43:19.000Z</time>
      </trkpt>
      <trkpt lat="50.46882" lon="3.50661">
        <ele>18.5</ele>
        <time>2022-04-03T06:43:21.000Z</time>
      </trkpt>
      <trkpt lat="50.46888" lon="3.50653">
        <ele>18.5</ele>
        <time>2022-04-03T06:43:22.913Z</time>
      </trkpt>
      <trkpt lat="50.46892" lon="3.50648">
        <ele>18.6</ele>
        <time>2022-04-03T06:43:24.000Z</time>
      </trkpt>
      <trkpt lat="50.46898" lon="3.5064">
        <ele>18.6</ele>
        <time>2022-04-03T06:43:25.974Z</time>
      </trkpt>
      <trkpt lat="50.46905" lon="3.50632">
        <ele>18.7</ele>
        <time>2022-04-03T06:43:28.000Z</time>
      </trkpt>
      <trkpt lat="50.46911" lon="3.50625">
        <ele>18.7</ele>
        <time>2022-04-03T06:43:29.871Z</time>
      </trkpt>
      <trkpt lat="50.46918" lon="3.50618">
        <ele>18.7</ele>
        <time>2022-04-03T06:43:32.074Z</time>
      </trkpt>
      <trkpt lat="50.46922" lon="3.50614">
        <ele>18.7</ele>
        <time>2022-04-03T06:43:33.185Z</time>
      </trkpt>
      <trkpt lat="50.46926" lon="3.5061">
        <ele>18.7</ele>
        <time>2022-04-03T06:43:34.474Z</time>
      </trkpt>
      <trkpt lat="50.4693" lon="3.50605">
        <ele>18.7</ele>
        <time>2022-04-03T06:43:35.894Z</time>
      </trkpt>
      <trkpt lat="50.46937" lon="3.50597">
        <ele>18.8</ele>
        <time>2022-04-03T06:43:38.000Z</time>
      </trkpt>
      <trkpt lat="50.46943" lon="3.50591">
        <ele>18.8</ele>
        <time>2022-04-03T06:43:40.000Z</time>
      </trkpt>
      <trkpt lat="50.4695" lon="3.50583">
        <ele>18.8</ele>
        <time>2022-04-03T06:43:42.165Z</time>
      </trkpt>
      <trkpt lat="50.46956" lon="3.50575">
        <ele>18.9</ele>
        <time>2022-04-03T06:43:44.292Z</time>
      </trkpt>
      <trkpt lat="50.46959" lon="3.5057">
        <ele>19</ele>
        <time>2022-04-03T06:43:45.472Z</time>
      </trkpt>
      <trkpt lat="50.46965" lon="3.50557">
        <ele>19.2</ele>
        <time>2022-04-03T06:43:47.936Z</time>
      </trkpt>
      <trkpt lat="50.46969" lon="3.50547">
        <ele>19.4</ele>
        <time>2022-04-03T06:43:50.000Z</time>
      </trkpt>
      <trkpt lat="50.46972" lon="3.50535">
        <ele>19.7</ele>
        <time>2022-04-03T06:43:52.292Z</time>
      </trkpt>
      <trkpt lat="50.46973" lon="3.50526">
        <ele>20</ele>
        <time>2022-04-03T06:43:53.972Z</time>
      </trkpt>
      <trkpt lat="50.46976" lon="3.50518">
        <ele>20</ele>
        <time>2022-04-03T06:43:55.586Z</time>
      </trkpt>
      <trkpt lat="50.46979" lon="3.50512">
        <ele>20.1</ele>
        <time>2022-04-03T06:43:56.773Z</time>
      </trkpt>
      <trkpt lat="50.46986" lon="3.50506">
        <ele>20.4</ele>
        <time>2022-04-03T06:43:59.000Z</time>
      </trkpt>
      <trkpt lat="50.46993" lon="3.505">
        <ele>20.7</ele>
        <time>2022-04-03T06:44:01.052Z</time>
      </trkpt>
      <trkpt lat="50.47002" lon="3.50493">
        <ele>20.9</ele>
        <time>2022-04-03T06:44:03.792Z</time>
      </trkpt>
      <trkpt lat="50.47008" lon="3.50487">
        <ele>20.7</ele>
        <time>2022-04-03T06:44:06.000Z</time>
      </trkpt>
      <trkpt lat="50.47014" lon="3.50481">
        <ele>20.7</ele>
        <time>2022-04-03T06:44:08.000Z</time>
      </trkpt>
      <trkpt lat="50.4702" lon="3.50476">
        <ele>20.8</ele>
        <time>2022-04-03T06:44:10.000Z</time>
      </trkpt>
      <trkpt lat="50.47027" lon="3.5047">
        <ele>21.1</ele>
        <time>2022-04-03T06:44:12.155Z</time>
      </trkpt>
      <trkpt lat="50.47034" lon="3.50463">
        <ele>21.1</ele>
        <time>2022-04-03T06:44:14.435Z</time>
      </trkpt>
      <trkpt lat="50.4704" lon="3.50456">
        <ele>21.1</ele>
        <time>2022-04-03T06:44:16.613Z</time>
      </trkpt>
      <trkpt lat="50.47047" lon="3.50448">
        <ele>21.2</ele>
        <time>2022-04-03T06:44:18.811Z</time>
      </trkpt>
      <trkpt lat="50.47053" lon="3.5044">
        <ele>21.4</ele>
        <time>2022-04-03T06:44:20.995Z</time>
      </trkpt>
      <trkpt lat="50.47059" lon="3.50433">
        <ele>21.6</ele>
        <time>2022-04-03T06:44:22.937Z</time>
      </trkpt>
      <trkpt lat="50.47065" lon="3.50425">
        <ele>21.7</ele>
        <time>2022-04-03T06:44:25.000Z</time>
      </trkpt>
      <trkpt lat="50.47073" lon="3.50414">
        <ele>21.8</ele>
        <time>2022-04-03T06:44:27.751Z</time>
      </trkpt>
      <trkpt lat="50.47081" lon="3.50405">
        <ele>21.6</ele>
        <time>2022-04-03T06:44:30.391Z</time>
      </trkpt>
      <trkpt lat="50.47087" lon="3.50396">
        <ele>21.6</ele>
        <time>2022-04-03T06:44:32.934Z</time>
      </trkpt>
      <trkpt lat="50.47093" lon="3.50388">
        <ele>21.7</ele>
        <time>2022-04-03T06:44:35.000Z</time>
      </trkpt>
      <trkpt lat="50.47098" lon="3.5038">
        <ele>22.1</ele>
        <time>2022-04-03T06:44:36.893Z</time>
      </trkpt>
      <trkpt lat="50.47105" lon="3.50374">
        <ele>22.3</ele>
        <time>2022-04-03T06:44:39.034Z</time>
      </trkpt>
      <trkpt lat="50.47112" lon="3.50365">
        <ele>22.7</ele>
        <time>2022-04-03T06:44:41.390Z</time>
      </trkpt>
      <trkpt lat="50.47116" lon="3.5036">
        <ele>22.8</ele>
        <time>2022-04-03T06:44:42.735Z</time>
      </trkpt>
      <trkpt lat="50.47121" lon="3.50352">
        <ele>22.8</ele>
        <time>2022-04-03T06:44:44.731Z</time>
      </trkpt>
      <trkpt lat="50.47127" lon="3.50342">
        <ele>22.8</ele>
        <time>2022-04-03T06:44:47.278Z</time>
      </trkpt>
      <trkpt lat="50.4713" lon="3.50335">
        <ele>23</ele>
        <time>2022-04-03T06:44:49.030Z</time>
      </trkpt>
      <trkpt lat="50.47134" lon="3.50326">
        <ele>23.1</ele>
        <time>2022-04-03T06:44:50.992Z</time>
      </trkpt>
      <trkpt lat="50.47138" lon="3.50318">
        <ele>23</ele>
        <time>2022-04-03T06:44:52.893Z</time>
      </trkpt>
      <trkpt lat="50.47142" lon="3.50308">
        <ele>23</ele>
        <time>2022-04-03T06:44:54.913Z</time>
      </trkpt>
      <trkpt lat="50.47146" lon="3.50294">
        <ele>23.4</ele>
        <time>2022-04-03T06:44:57.912Z</time>
      </trkpt>
      <trkpt lat="50.4715" lon="3.50282">
        <ele>23.8</ele>
        <time>2022-04-03T06:45:00.753Z</time>
      </trkpt>
      <trkpt lat="50.47153" lon="3.50272">
        <ele>24.2</ele>
        <time>2022-04-03T06:45:03.000Z</time>
      </trkpt>
      <trkpt lat="50.47155" lon="3.50263">
        <ele>24.4</ele>
        <time>2022-04-03T06:45:04.954Z</time>
      </trkpt>
      <trkpt lat="50.47159" lon="3.50253">
        <ele>24.5</ele>
        <time>2022-04-03T06:45:07.392Z</time>
      </trkpt>
      <trkpt lat="50.47162" lon="3.50242">
        <ele>24.7</ele>
        <time>2022-04-03T06:45:09.973Z</time>
      </trkpt>
      <trkpt lat="50.47165" lon="3.50233">
        <ele>24.8</ele>
        <time>2022-04-03T06:45:12.000Z</time>
      </trkpt>
      <trkpt lat="50.47168" lon="3.50225">
        <ele>24.9</ele>
        <time>2022-04-03T06:45:13.854Z</time>
      </trkpt>
      <trkpt lat="50.47172" lon="3.50216">
        <ele>25.4</ele>
        <time>2022-04-03T06:45:16.000Z</time>
      </trkpt>
      <trkpt lat="50.47176" lon="3.50207">
        <ele>25.7</ele>
        <time>2022-04-03T06:45:17.991Z</time>
      </trkpt>
      <trkpt lat="50.4718" lon="3.502">
        <ele>25.8</ele>
        <time>2022-04-03T06:45:19.973Z</time>
      </trkpt>
      <trkpt lat="50.47185" lon="3.50193">
        <ele>25.7</ele>
        <time>2022-04-03T06:45:22.000Z</time>
      </trkpt>
      <trkpt lat="50.47188" lon="3.50184">
        <ele>25.8</ele>
        <time>2022-04-03T06:45:24.152Z</time>
      </trkpt>
      <trkpt lat="50.47192" lon="3.50175">
        <ele>25.9</ele>
        <time>2022-04-03T06:45:26.595Z</time>
      </trkpt>
      <trkpt lat="50.47197" lon="3.50166">
        <ele>26</ele>
        <time>2022-04-03T06:45:28.894Z</time>
      </trkpt>
      <trkpt lat="50.47202" lon="3.50158">
        <ele>26.2</ele>
        <time>2022-04-03T06:45:31.000Z</time>
      </trkpt>
      <trkpt lat="50.47206" lon="3.50152">
        <ele>26.3</ele>
        <time>2022-04-03T06:45:33.000Z</time>
      </trkpt>
      <trkpt lat="50.47211" lon="3.50145">
        <ele>26.3</ele>
        <time>2022-04-03T06:45:35.014Z</time>
      </trkpt>
      <trkpt lat="50.47216" lon="3.50136">
        <ele>26.3</ele>
        <time>2022-04-03T06:45:37.714Z</time>
      </trkpt>
      <trkpt lat="50.47222" lon="3.50127">
        <ele>26.4</ele>
        <time>2022-04-03T06:45:39.994Z</time>
      </trkpt>
      <trkpt lat="50.47226" lon="3.50119">
        <ele>26.7</ele>
        <time>2022-04-03T06:45:41.971Z</time>
      </trkpt>
      <trkpt lat="50.4723" lon="3.5011">
        <ele>27</ele>
        <time>2022-04-03T06:45:43.873Z</time>
      </trkpt>
      <trkpt lat="50.47235" lon="3.50102">
        <ele>27</ele>
        <time>2022-04-03T06:45:46.000Z</time>
      </trkpt>
      <trkpt lat="50.47239" lon="3.50093">
        <ele>27</ele>
        <time>2022-04-03T06:45:47.856Z</time>
      </trkpt>
      <trkpt lat="50.47244" lon="3.5008">
        <ele>27</ele>
        <time>2022-04-03T06:45:49.991Z</time>
      </trkpt>
      <trkpt lat="50.47247" lon="3.50074">
        <ele>27</ele>
        <time>2022-04-03T06:45:51.000Z</time>
      </trkpt>
      <trkpt lat="50.4725" lon="3.50067">
        <ele>27</ele>
        <time>2022-04-03T06:45:52.000Z</time>
      </trkpt>
      <trkpt lat="50.47253" lon="3.50061">
        <ele>27</ele>
        <time>2022-04-03T06:45:53.000Z</time>
      </trkpt>
      <trkpt lat="50.47257" lon="3.50055">
        <ele>27</ele>
        <time>2022-04-03T06:45:54.000Z</time>
      </trkpt>
      <trkpt lat="50.4726" lon="3.50049">
        <ele>26.9</ele>
        <time>2022-04-03T06:45:55.000Z</time>
      </trkpt>
      <trkpt lat="50.47264" lon="3.50042">
        <ele>26.8</ele>
        <time>2022-04-03T06:45:56.000Z</time>
      </trkpt>
      <trkpt lat="50.47267" lon="3.50036">
        <ele>26.6</ele>
        <time>2022-04-03T06:45:57.000Z</time>
      </trkpt>
      <trkpt lat="50.47271" lon="3.50029">
        <ele>26.3</ele>
        <time>2022-04-03T06:45:58.000Z</time>
      </trkpt>
      <trkpt lat="50.47275" lon="3.50023">
        <ele>26.1</ele>
        <time>2022-04-03T06:45:59.000Z</time>
      </trkpt>
      <trkpt lat="50.47278" lon="3.50016">
        <ele>26</ele>
        <time>2022-04-03T06:46:00.000Z</time>
      </trkpt>
      <trkpt lat="50.47282" lon="3.50009">
        <ele>25.9</ele>
        <time>2022-04-03T06:46:01.000Z</time>
      </trkpt>
      <trkpt lat="50.47286" lon="3.50003">
        <ele>25.8</ele>
        <time>2022-04-03T06:46:02.000Z</time>
      </trkpt>
      <trkpt lat="50.4729" lon="3.49997">
        <ele>25.6</ele>
        <time>2022-04-03T06:46:03.000Z</time>
      </trkpt>
      <trkpt lat="50.47294" lon="3.4999">
        <ele>25.4</ele>
        <time>2022-04-03T06:46:04.000Z</time>
      </trkpt>
      <trkpt lat="50.47298" lon="3.49983">
        <ele>25</ele>
        <time>2022-04-03T06:46:05.000Z</time>
      </trkpt>
      <trkpt lat="50.47301" lon="3.49976">
        <ele>24.6</ele>
        <time>2022-04-03T06:46:06.000Z</time>
      </trkpt>
      <trkpt lat="50.47305" lon="3.49969">
        <ele>24.2</ele>
        <time>2022-04-03T06:46:07.000Z</time>
      </trkpt>
      <trkpt lat="50.47309" lon="3.49962">
        <ele>24.3</ele>
        <time>2022-04-03T06:46:08.000Z</time>
      </trkpt>
      <trkpt lat="50.47313" lon="3.49956">
        <ele>24.3</ele>
        <time>2022-04-03T06:46:09.000Z</time>
      </trkpt>
      <trkpt lat="50.47318" lon="3.4995">
        <ele>24.1</ele>
        <time>2022-04-03T06:46:10.000Z</time>
      </trkpt>
      <trkpt lat="50.47322" lon="3.49944">
        <ele>23.8</ele>
        <time>2022-04-03T06:46:11.000Z</time>
      </trkpt>
      <trkpt lat="50.47326" lon="3.49938">
        <ele>23.5</ele>
        <time>2022-04-03T06:46:12.000Z</time>
      </trkpt>
      <trkpt lat="50.47331" lon="3.49933">
        <ele>23.2</ele>
        <time>2022-04-03T06:46:13.000Z</time>
      </trkpt>
      <trkpt lat="50.47336" lon="3.49928">
        <ele>22.9</ele>
        <time>2022-04-03T06:46:14.000Z</time>
      </trkpt>
      <trkpt lat="50.47342" lon="3.49924">
        <ele>22.7</ele>
        <time>2022-04-03T06:46:15.000Z</time>
      </trkpt>
      <trkpt lat="50.47347" lon="3.49919">
        <ele>22.5</ele>
        <time>2022-04-03T06:46:16.000Z</time>
      </trkpt>
      <trkpt lat="50.47353" lon="3.49915">
        <ele>22.3</ele>
        <time>2022-04-03T06:46:17.000Z</time>
      </trkpt>
      <trkpt lat="50.47358" lon="3.49911">
        <ele>22.1</ele>
        <time>2022-04-03T06:46:18.000Z</time>
      </trkpt>
      <trkpt lat="50.47363" lon="3.49908">
        <ele>22</ele>
        <time>2022-04-03T06:46:19.000Z</time>
      </trkpt>
      <trkpt lat="50.4737" lon="3.49904">
        <ele>21.8</ele>
        <time>2022-04-03T06:46:20.000Z</time>
      </trkpt>
      <trkpt lat="50.47375" lon="3.49902">
        <ele>21.8</ele>
        <time>2022-04-03T06:46:21.000Z</time>
      </trkpt>
      <trkpt lat="50.47381" lon="3.49899">
        <ele>21.7</ele>
        <time>2022-04-03T06:46:22.000Z</time>
      </trkpt>
      <trkpt lat="50.47386" lon="3.49895">
        <ele>21.8</ele>
        <time>2022-04-03T06:46:23.000Z</time>
      </trkpt>
      <trkpt lat="50.4739" lon="3.4989">
        <ele>22</ele>
        <time>2022-04-03T06:46:24.000Z</time>
      </trkpt>
      <trkpt lat="50.47393" lon="3.49884">
        <ele>22.3</ele>
        <time>2022-04-03T06:46:25.000Z</time>
      </trkpt>
      <trkpt lat="50.47396" lon="3.49878">
        <ele>22.5</ele>
        <time>2022-04-03T06:46:26.000Z</time>
      </trkpt>
      <trkpt lat="50.474" lon="3.49872">
        <ele>22.8</ele>
        <time>2022-04-03T06:46:27.000Z</time>
      </trkpt>
      <trkpt lat="50.47404" lon="3.49867">
        <ele>22.9</ele>
        <time>2022-04-03T06:46:28.000Z</time>
      </trkpt>
      <trkpt lat="50.47407" lon="3.49861">
        <ele>23</ele>
        <time>2022-04-03T06:46:29.000Z</time>
      </trkpt>
      <trkpt lat="50.4741" lon="3.49856">
        <ele>23</ele>
        <time>2022-04-03T06:46:30.000Z</time>
      </trkpt>
      <trkpt lat="50.47413" lon="3.49849">
        <ele>23</ele>
        <time>2022-04-03T06:46:31.000Z</time>
      </trkpt>
      <trkpt lat="50.47416" lon="3.49844">
        <ele>23</ele>
        <time>2022-04-03T06:46:32.000Z</time>
      </trkpt>
      <trkpt lat="50.4742" lon="3.49837">
        <ele>23.1</ele>
        <time>2022-04-03T06:46:33.000Z</time>
      </trkpt>
      <trkpt lat="50.47423" lon="3.49831">
        <ele>23.3</ele>
        <time>2022-04-03T06:46:34.000Z</time>
      </trkpt>
      <trkpt lat="50.47427" lon="3.49825">
        <ele>23.6</ele>
        <time>2022-04-03T06:46:35.000Z</time>
      </trkpt>
      <trkpt lat="50.4743" lon="3.4982">
        <ele>23.7</ele>
        <time>2022-04-03T06:46:36.000Z</time>
      </trkpt>
      <trkpt lat="50.47434" lon="3.49811">
        <ele>23.9</ele>
        <time>2022-04-03T06:46:38.000Z</time>
      </trkpt>
      <trkpt lat="50.47437" lon="3.49806">
        <ele>24</ele>
        <time>2022-04-03T06:46:39.000Z</time>
      </trkpt>
      <trkpt lat="50.47443" lon="3.49797">
        <ele>24</ele>
        <time>2022-04-03T06:46:41.000Z</time>
      </trkpt>
      <trkpt lat="50.47447" lon="3.49787">
        <ele>24.2</ele>
        <time>2022-04-03T06:46:43.113Z</time>
      </trkpt>
      <trkpt lat="50.4745" lon="3.4978">
        <ele>24.4</ele>
        <time>2022-04-03T06:46:44.754Z</time>
      </trkpt>
      <trkpt lat="50.47457" lon="3.49773">
        <ele>24.9</ele>
        <time>2022-04-03T06:46:47.000Z</time>
      </trkpt>
      <trkpt lat="50.47464" lon="3.49765">
        <ele>25.2</ele>
        <time>2022-04-03T06:46:49.370Z</time>
      </trkpt>
      <trkpt lat="50.47468" lon="3.4976">
        <ele>25.3</ele>
        <time>2022-04-03T06:46:50.854Z</time>
      </trkpt>
      <trkpt lat="50.47477" lon="3.49751">
        <ele>25.2</ele>
        <time>2022-04-03T06:46:53.890Z</time>
      </trkpt>
      <trkpt lat="50.47483" lon="3.49746">
        <ele>25.5</ele>
        <time>2022-04-03T06:46:56.074Z</time>
      </trkpt>
      <trkpt lat="50.47488" lon="3.49741">
        <ele>25.7</ele>
        <time>2022-04-03T06:46:58.000Z</time>
      </trkpt>
      <trkpt lat="50.47493" lon="3.49735">
        <ele>25.9</ele>
        <time>2022-04-03T06:46:59.851Z</time>
      </trkpt>
      <trkpt lat="50.475" lon="3.49727">
        <ele>26</ele>
        <time>2022-04-03T06:47:03.000Z</time>
      </trkpt>
      <trkpt lat="50.47504" lon="3.49722">
        <ele>26</ele>
        <time>2022-04-03T06:47:05.000Z</time>
      </trkpt>
      <trkpt lat="50.47508" lon="3.49717">
        <ele>26.2</ele>
        <time>2022-04-03T06:47:07.000Z</time>
      </trkpt>
      <trkpt lat="50.47511" lon="3.49713">
        <ele>26.3</ele>
        <time>2022-04-03T06:47:08.910Z</time>
      </trkpt>
      <trkpt lat="50.47515" lon="3.49708">
        <ele>26.5</ele>
        <time>2022-04-03T06:47:11.000Z</time>
      </trkpt>
      <trkpt lat="50.47518" lon="3.49704">
        <ele>26.7</ele>
        <time>2022-04-03T06:47:13.169Z</time>
      </trkpt>
      <trkpt lat="50.47524" lon="3.49697">
        <ele>26.9</ele>
        <time>2022-04-03T06:47:16.000Z</time>
      </trkpt>
      <trkpt lat="50.47527" lon="3.49692">
        <ele>27</ele>
        <time>2022-04-03T06:47:18.000Z</time>
      </trkpt>
      <trkpt lat="50.47532" lon="3.49685">
        <ele>26.9</ele>
        <time>2022-04-03T06:47:20.000Z</time>
      </trkpt>
      <trkpt lat="50.47535" lon="3.4968">
        <ele>26.9</ele>
        <time>2022-04-03T06:47:22.000Z</time>
      </trkpt>
      <trkpt lat="50.47539" lon="3.49674">
        <ele>26.9</ele>
        <time>2022-04-03T06:47:24.000Z</time>
      </trkpt>
      <trkpt lat="50.47543" lon="3.49668">
        <ele>27</ele>
        <time>2022-04-03T06:47:26.000Z</time>
      </trkpt>
      <trkpt lat="50.47547" lon="3.49662">
        <ele>27</ele>
        <time>2022-04-03T06:47:28.000Z</time>
      </trkpt>
      <trkpt lat="50.47552" lon="3.49655">
        <ele>27</ele>
        <time>2022-04-03T06:47:29.991Z</time>
      </trkpt>
      <trkpt lat="50.47556" lon="3.49649">
        <ele>27</ele>
        <time>2022-04-03T06:47:31.991Z</time>
      </trkpt>
      <trkpt lat="50.47561" lon="3.49642">
        <ele>26.8</ele>
        <time>2022-04-03T06:47:33.892Z</time>
      </trkpt>
      <trkpt lat="50.47565" lon="3.49634">
        <ele>26.7</ele>
        <time>2022-04-03T06:47:36.134Z</time>
      </trkpt>
      <trkpt lat="50.47569" lon="3.49628">
        <ele>26.7</ele>
        <time>2022-04-03T06:47:37.600Z</time>
      </trkpt>
      <trkpt lat="50.47575" lon="3.49619">
        <ele>26.8</ele>
        <time>2022-04-03T06:47:40.294Z</time>
      </trkpt>
      <trkpt lat="50.47578" lon="3.49613">
        <ele>26.9</ele>
        <time>2022-04-03T06:47:42.000Z</time>
      </trkpt>
      <trkpt lat="50.47583" lon="3.49607">
        <ele>27</ele>
        <time>2022-04-03T06:47:44.000Z</time>
      </trkpt>
      <trkpt lat="50.47589" lon="3.49599">
        <ele>27.1</ele>
        <time>2022-04-03T06:47:46.091Z</time>
      </trkpt>
      <trkpt lat="50.47596" lon="3.49587">
        <ele>27.4</ele>
        <time>2022-04-03T06:47:49.000Z</time>
      </trkpt>
      <trkpt lat="50.47602" lon="3.49576">
        <ele>27.8</ele>
        <time>2022-04-03T06:47:52.000Z</time>
      </trkpt>
      <trkpt lat="50.47607" lon="3.4957">
        <ele>27.9</ele>
        <time>2022-04-03T06:47:54.000Z</time>
      </trkpt>
      <trkpt lat="50.47612" lon="3.49562">
        <ele>28</ele>
        <time>2022-04-03T06:47:56.000Z</time>
      </trkpt>
      <trkpt lat="50.47616" lon="3.49554">
        <ele>28</ele>
        <time>2022-04-03T06:47:57.953Z</time>
      </trkpt>
      <trkpt lat="50.47621" lon="3.49546">
        <ele>28</ele>
        <time>2022-04-03T06:48:00.179Z</time>
      </trkpt>
      <trkpt lat="50.47628" lon="3.49536">
        <ele>28</ele>
        <time>2022-04-03T06:48:02.992Z</time>
      </trkpt>
      <trkpt lat="50.47635" lon="3.49526">
        <ele>28.1</ele>
        <time>2022-04-03T06:48:05.590Z</time>
      </trkpt>
      <trkpt lat="50.4764" lon="3.49517">
        <ele>28.4</ele>
        <time>2022-04-03T06:48:07.949Z</time>
      </trkpt>
      <trkpt lat="50.47645" lon="3.4951">
        <ele>28.6</ele>
        <time>2022-04-03T06:48:10.000Z</time>
      </trkpt>
      <trkpt lat="50.4765" lon="3.49502">
        <ele>28.9</ele>
        <time>2022-04-03T06:48:12.092Z</time>
      </trkpt>
      <trkpt lat="50.47654" lon="3.49495">
        <ele>29</ele>
        <time>2022-04-03T06:48:13.693Z</time>
      </trkpt>
      <trkpt lat="50.47658" lon="3.49489">
        <ele>29</ele>
        <time>2022-04-03T06:48:15.094Z</time>
      </trkpt>
      <trkpt lat="50.47667" lon="3.49477">
        <ele>29</ele>
        <time>2022-04-03T06:48:18.013Z</time>
      </trkpt>
      <trkpt lat="50.47673" lon="3.49469">
        <ele>28.8</ele>
        <time>2022-04-03T06:48:19.971Z</time>
      </trkpt>
      <trkpt lat="50.47679" lon="3.49461">
        <ele>28.7</ele>
        <time>2022-04-03T06:48:22.000Z</time>
      </trkpt>
      <trkpt lat="50.47685" lon="3.49452">
        <ele>28.8</ele>
        <time>2022-04-03T06:48:23.992Z</time>
      </trkpt>
      <trkpt lat="50.47691" lon="3.49443">
        <ele>29</ele>
        <time>2022-04-03T06:48:25.854Z</time>
      </trkpt>
      <trkpt lat="50.47695" lon="3.49438">
        <ele>29</ele>
        <time>2022-04-03T06:48:26.990Z</time>
      </trkpt>
      <trkpt lat="50.47699" lon="3.49433">
        <ele>28.8</ele>
        <time>2022-04-03T06:48:28.174Z</time>
      </trkpt>
      <trkpt lat="50.47703" lon="3.49428">
        <ele>28.7</ele>
        <time>2022-04-03T06:48:29.472Z</time>
      </trkpt>
      <trkpt lat="50.47709" lon="3.4942">
        <ele>28.5</ele>
        <time>2022-04-03T06:48:31.000Z</time>
      </trkpt>
      <trkpt lat="50.47713" lon="3.49416">
        <ele>28.3</ele>
        <time>2022-04-03T06:48:32.000Z</time>
      </trkpt>
      <trkpt lat="50.4772" lon="3.49407">
        <ele>28.1</ele>
        <time>2022-04-03T06:48:34.000Z</time>
      </trkpt>
      <trkpt lat="50.47723" lon="3.49402">
        <ele>28</ele>
        <time>2022-04-03T06:48:35.000Z</time>
      </trkpt>
      <trkpt lat="50.47727" lon="3.49397">
        <ele>28</ele>
        <time>2022-04-03T06:48:36.000Z</time>
      </trkpt>
      <trkpt lat="50.47731" lon="3.49393">
        <ele>28</ele>
        <time>2022-04-03T06:48:37.000Z</time>
      </trkpt>
      <trkpt lat="50.47738" lon="3.49384">
        <ele>28</ele>
        <time>2022-04-03T06:48:39.000Z</time>
      </trkpt>
      <trkpt lat="50.47741" lon="3.49379">
        <ele>28</ele>
        <time>2022-04-03T06:48:40.000Z</time>
      </trkpt>
      <trkpt lat="50.47745" lon="3.49374">
        <ele>28</ele>
        <time>2022-04-03T06:48:41.000Z</time>
      </trkpt>
      <trkpt lat="50.47749" lon="3.4937">
        <ele>28</ele>
        <time>2022-04-03T06:48:42.000Z</time>
      </trkpt>
      <trkpt lat="50.47753" lon="3.49365">
        <ele>27.9</ele>
        <time>2022-04-03T06:48:43.000Z</time>
      </trkpt>
      <trkpt lat="50.47756" lon="3.4936">
        <ele>27.8</ele>
        <time>2022-04-03T06:48:44.000Z</time>
      </trkpt>
      <trkpt lat="50.4776" lon="3.49355">
        <ele>27.6</ele>
        <time>2022-04-03T06:48:45.000Z</time>
      </trkpt>
      <trkpt lat="50.47764" lon="3.4935">
        <ele>27.5</ele>
        <time>2022-04-03T06:48:46.000Z</time>
      </trkpt>
      <trkpt lat="50.47768" lon="3.49345">
        <ele>27.4</ele>
        <time>2022-04-03T06:48:47.000Z</time>
      </trkpt>
      <trkpt lat="50.47772" lon="3.4934">
        <ele>27.2</ele>
        <time>2022-04-03T06:48:48.000Z</time>
      </trkpt>
      <trkpt lat="50.47776" lon="3.49335">
        <ele>27.1</ele>
        <time>2022-04-03T06:48:49.000Z</time>
      </trkpt>
      <trkpt lat="50.4778" lon="3.4933">
        <ele>27</ele>
        <time>2022-04-03T06:48:50.000Z</time>
      </trkpt>
      <trkpt lat="50.47783" lon="3.49326">
        <ele>27</ele>
        <time>2022-04-03T06:48:51.000Z</time>
      </trkpt>
      <trkpt lat="50.47787" lon="3.49321">
        <ele>27</ele>
        <time>2022-04-03T06:48:52.000Z</time>
      </trkpt>
      <trkpt lat="50.47791" lon="3.49316">
        <ele>27</ele>
        <time>2022-04-03T06:48:53.000Z</time>
      </trkpt>
      <trkpt lat="50.47795" lon="3.49311">
        <ele>27</ele>
        <time>2022-04-03T06:48:54.000Z</time>
      </trkpt>
      <trkpt lat="50.47799" lon="3.49305">
        <ele>27</ele>
        <time>2022-04-03T06:48:55.000Z</time>
      </trkpt>
      <trkpt lat="50.47803" lon="3.493">
        <ele>26.8</ele>
        <time>2022-04-03T06:48:56.000Z</time>
      </trkpt>
      <trkpt lat="50.47808" lon="3.49294">
        <ele>26.5</ele>
        <time>2022-04-03T06:48:57.000Z</time>
      </trkpt>
      <trkpt lat="50.47812" lon="3.49289">
        <ele>26.3</ele>
        <time>2022-04-03T06:48:58.000Z</time>
      </trkpt>
      <trkpt lat="50.47817" lon="3.49283">
        <ele>26.1</ele>
        <time>2022-04-03T06:48:59.000Z</time>
      </trkpt>
      <trkpt lat="50.47821" lon="3.49277">
        <ele>26</ele>
        <time>2022-04-03T06:49:00.000Z</time>
      </trkpt>
      <trkpt lat="50.47825" lon="3.49272">
        <ele>26</ele>
        <time>2022-04-03T06:49:01.000Z</time>
      </trkpt>
      <trkpt lat="50.47829" lon="3.49266">
        <ele>26</ele>
        <time>2022-04-03T06:49:02.000Z</time>
      </trkpt>
      <trkpt lat="50.47834" lon="3.49262">
        <ele>26</ele>
        <time>2022-04-03T06:49:03.000Z</time>
      </trkpt>
      <trkpt lat="50.47838" lon="3.49256">
        <ele>26</ele>
        <time>2022-04-03T06:49:04.000Z</time>
      </trkpt>
      <trkpt lat="50.47843" lon="3.49252">
        <ele>26</ele>
        <time>2022-04-03T06:49:05.000Z</time>
      </trkpt>
      <trkpt lat="50.47847" lon="3.49246">
        <ele>25.9</ele>
        <time>2022-04-03T06:49:06.000Z</time>
      </trkpt>
      <trkpt lat="50.47852" lon="3.49241">
        <ele>25.9</ele>
        <time>2022-04-03T06:49:07.000Z</time>
      </trkpt>
      <trkpt lat="50.47856" lon="3.49236">
        <ele>25.9</ele>
        <time>2022-04-03T06:49:08.000Z</time>
      </trkpt>
      <trkpt lat="50.4786" lon="3.49231">
        <ele>26</ele>
        <time>2022-04-03T06:49:09.000Z</time>
      </trkpt>
      <trkpt lat="50.47865" lon="3.49226">
        <ele>25.9</ele>
        <time>2022-04-03T06:49:10.000Z</time>
      </trkpt>
      <trkpt lat="50.47869" lon="3.49221">
        <ele>25.7</ele>
        <time>2022-04-03T06:49:11.000Z</time>
      </trkpt>
      <trkpt lat="50.47873" lon="3.49216">
        <ele>25.4</ele>
        <time>2022-04-03T06:49:12.000Z</time>
      </trkpt>
      <trkpt lat="50.47877" lon="3.4921">
        <ele>25.2</ele>
        <time>2022-04-03T06:49:13.000Z</time>
      </trkpt>
      <trkpt lat="50.47882" lon="3.49205">
        <ele>25.1</ele>
        <time>2022-04-03T06:49:14.000Z</time>
      </trkpt>
      <trkpt lat="50.47886" lon="3.492">
        <ele>25</ele>
        <time>2022-04-03T06:49:15.000Z</time>
      </trkpt>
      <trkpt lat="50.47891" lon="3.49195">
        <ele>25</ele>
        <time>2022-04-03T06:49:16.000Z</time>
      </trkpt>
      <trkpt lat="50.47895" lon="3.4919">
        <ele>25</ele>
        <time>2022-04-03T06:49:17.000Z</time>
      </trkpt>
      <trkpt lat="50.47899" lon="3.49185">
        <ele>25</ele>
        <time>2022-04-03T06:49:18.000Z</time>
      </trkpt>
      <trkpt lat="50.47903" lon="3.4918">
        <ele>25</ele>
        <time>2022-04-03T06:49:19.000Z</time>
      </trkpt>
      <trkpt lat="50.47907" lon="3.49174">
        <ele>25</ele>
        <time>2022-04-03T06:49:20.000Z</time>
      </trkpt>
      <trkpt lat="50.47912" lon="3.49169">
        <ele>25</ele>
        <time>2022-04-03T06:49:21.000Z</time>
      </trkpt>
      <trkpt lat="50.47916" lon="3.49164">
        <ele>25</ele>
        <time>2022-04-03T06:49:22.000Z</time>
      </trkpt>
      <trkpt lat="50.4792" lon="3.49159">
        <ele>24.9</ele>
        <time>2022-04-03T06:49:23.000Z</time>
      </trkpt>
      <trkpt lat="50.47924" lon="3.49154">
        <ele>24.9</ele>
        <time>2022-04-03T06:49:24.000Z</time>
      </trkpt>
      <trkpt lat="50.47928" lon="3.49149">
        <ele>24.9</ele>
        <time>2022-04-03T06:49:25.000Z</time>
      </trkpt>
      <trkpt lat="50.47932" lon="3.49144">
        <ele>24.9</ele>
        <time>2022-04-03T06:49:26.000Z</time>
      </trkpt>
      <trkpt lat="50.47936" lon="3.49139">
        <ele>25</ele>
        <time>2022-04-03T06:49:27.000Z</time>
      </trkpt>
      <trkpt lat="50.47941" lon="3.49134">
        <ele>24.8</ele>
        <time>2022-04-03T06:49:28.000Z</time>
      </trkpt>
      <trkpt lat="50.47945" lon="3.4913">
        <ele>24.7</ele>
        <time>2022-04-03T06:49:29.000Z</time>
      </trkpt>
      <trkpt lat="50.47949" lon="3.49125">
        <ele>24.4</ele>
        <time>2022-04-03T06:49:30.000Z</time>
      </trkpt>
      <trkpt lat="50.47953" lon="3.4912">
        <ele>24.2</ele>
        <time>2022-04-03T06:49:31.000Z</time>
      </trkpt>
      <trkpt lat="50.47957" lon="3.49115">
        <ele>24.1</ele>
        <time>2022-04-03T06:49:32.000Z</time>
      </trkpt>
      <trkpt lat="50.47961" lon="3.4911">
        <ele>24</ele>
        <time>2022-04-03T06:49:33.000Z</time>
      </trkpt>
      <trkpt lat="50.47965" lon="3.49104">
        <ele>24</ele>
        <time>2022-04-03T06:49:34.000Z</time>
      </trkpt>
      <trkpt lat="50.47969" lon="3.491">
        <ele>24</ele>
        <time>2022-04-03T06:49:35.000Z</time>
      </trkpt>
      <trkpt lat="50.47973" lon="3.49095">
        <ele>24</ele>
        <time>2022-04-03T06:49:36.000Z</time>
      </trkpt>
      <trkpt lat="50.47976" lon="3.49091">
        <ele>24</ele>
        <time>2022-04-03T06:49:37.000Z</time>
      </trkpt>
      <trkpt lat="50.47981" lon="3.49085">
        <ele>24</ele>
        <time>2022-04-03T06:49:38.000Z</time>
      </trkpt>
      <trkpt lat="50.47985" lon="3.4908">
        <ele>24</ele>
        <time>2022-04-03T06:49:39.000Z</time>
      </trkpt>
      <trkpt lat="50.47989" lon="3.49075">
        <ele>24</ele>
        <time>2022-04-03T06:49:40.000Z</time>
      </trkpt>
      <trkpt lat="50.47993" lon="3.4907">
        <ele>24</ele>
        <time>2022-04-03T06:49:41.000Z</time>
      </trkpt>
      <trkpt lat="50.47997" lon="3.49065">
        <ele>24</ele>
        <time>2022-04-03T06:49:42.000Z</time>
      </trkpt>
      <trkpt lat="50.48001" lon="3.4906">
        <ele>24</ele>
        <time>2022-04-03T06:49:43.000Z</time>
      </trkpt>
      <trkpt lat="50.48005" lon="3.49056">
        <ele>23.8</ele>
        <time>2022-04-03T06:49:44.000Z</time>
      </trkpt>
      <trkpt lat="50.48009" lon="3.49051">
        <ele>23.7</ele>
        <time>2022-04-03T06:49:45.000Z</time>
      </trkpt>
      <trkpt lat="50.48013" lon="3.49045">
        <ele>23.7</ele>
        <time>2022-04-03T06:49:46.000Z</time>
      </trkpt>
      <trkpt lat="50.48017" lon="3.4904">
        <ele>23.7</ele>
        <time>2022-04-03T06:49:47.000Z</time>
      </trkpt>
      <trkpt lat="50.48021" lon="3.49036">
        <ele>23.8</ele>
        <time>2022-04-03T06:49:48.000Z</time>
      </trkpt>
      <trkpt lat="50.48025" lon="3.49031">
        <ele>23.9</ele>
        <time>2022-04-03T06:49:49.000Z</time>
      </trkpt>
      <trkpt lat="50.48028" lon="3.49026">
        <ele>24</ele>
        <time>2022-04-03T06:49:50.000Z</time>
      </trkpt>
      <trkpt lat="50.48032" lon="3.49022">
        <ele>23.9</ele>
        <time>2022-04-03T06:49:51.000Z</time>
      </trkpt>
      <trkpt lat="50.48036" lon="3.49017">
        <ele>23.8</ele>
        <time>2022-04-03T06:49:52.000Z</time>
      </trkpt>
      <trkpt lat="50.4804" lon="3.49012">
        <ele>23.8</ele>
        <time>2022-04-03T06:49:53.000Z</time>
      </trkpt>
      <trkpt lat="50.48043" lon="3.49007">
        <ele>23.9</ele>
        <time>2022-04-03T06:49:54.000Z</time>
      </trkpt>
      <trkpt lat="50.48047" lon="3.49002">
        <ele>24</ele>
        <time>2022-04-03T06:49:55.000Z</time>
      </trkpt>
      <trkpt lat="50.4805" lon="3.48998">
        <ele>24</ele>
        <time>2022-04-03T06:49:56.000Z</time>
      </trkpt>
      <trkpt lat="50.48054" lon="3.48993">
        <ele>24</ele>
        <time>2022-04-03T06:49:57.000Z</time>
      </trkpt>
      <trkpt lat="50.48061" lon="3.48983">
        <ele>23.8</ele>
        <time>2022-04-03T06:49:59.000Z</time>
      </trkpt>
      <trkpt lat="50.48064" lon="3.48978">
        <ele>23.7</ele>
        <time>2022-04-03T06:50:00.000Z</time>
      </trkpt>
      <trkpt lat="50.48067" lon="3.48973">
        <ele>23.6</ele>
        <time>2022-04-03T06:50:01.000Z</time>
      </trkpt>
      <trkpt lat="50.4807" lon="3.48967">
        <ele>23.6</ele>
        <time>2022-04-03T06:50:02.000Z</time>
      </trkpt>
      <trkpt lat="50.48076" lon="3.48958">
        <ele>23.6</ele>
        <time>2022-04-03T06:50:04.000Z</time>
      </trkpt>
      <trkpt lat="50.48082" lon="3.48948">
        <ele>23.9</ele>
        <time>2022-04-03T06:50:06.000Z</time>
      </trkpt>
      <trkpt lat="50.48085" lon="3.48942">
        <ele>23.9</ele>
        <time>2022-04-03T06:50:07.000Z</time>
      </trkpt>
      <trkpt lat="50.48088" lon="3.48937">
        <ele>23.6</ele>
        <time>2022-04-03T06:50:08.000Z</time>
      </trkpt>
      <trkpt lat="50.48091" lon="3.48931">
        <ele>23.4</ele>
        <time>2022-04-03T06:50:09.000Z</time>
      </trkpt>
      <trkpt lat="50.48095" lon="3.48926">
        <ele>23.2</ele>
        <time>2022-04-03T06:50:10.000Z</time>
      </trkpt>
      <trkpt lat="50.48098" lon="3.4892">
        <ele>23.1</ele>
        <time>2022-04-03T06:50:11.000Z</time>
      </trkpt>
      <trkpt lat="50.48101" lon="3.48915">
        <ele>23</ele>
        <time>2022-04-03T06:50:12.000Z</time>
      </trkpt>
      <trkpt lat="50.48105" lon="3.48909">
        <ele>23</ele>
        <time>2022-04-03T06:50:13.000Z</time>
      </trkpt>
      <trkpt lat="50.48108" lon="3.48903">
        <ele>23</ele>
        <time>2022-04-03T06:50:14.000Z</time>
      </trkpt>
      <trkpt lat="50.48111" lon="3.48898">
        <ele>23</ele>
        <time>2022-04-03T06:50:15.000Z</time>
      </trkpt>
      <trkpt lat="50.48114" lon="3.48892">
        <ele>22.9</ele>
        <time>2022-04-03T06:50:16.000Z</time>
      </trkpt>
      <trkpt lat="50.48118" lon="3.48886">
        <ele>22.8</ele>
        <time>2022-04-03T06:50:17.000Z</time>
      </trkpt>
      <trkpt lat="50.48121" lon="3.48881">
        <ele>22.7</ele>
        <time>2022-04-03T06:50:18.000Z</time>
      </trkpt>
      <trkpt lat="50.48124" lon="3.48875">
        <ele>22.8</ele>
        <time>2022-04-03T06:50:19.000Z</time>
      </trkpt>
      <trkpt lat="50.48128" lon="3.4887">
        <ele>22.8</ele>
        <time>2022-04-03T06:50:20.000Z</time>
      </trkpt>
      <trkpt lat="50.48131" lon="3.48864">
        <ele>22.9</ele>
        <time>2022-04-03T06:50:21.000Z</time>
      </trkpt>
      <trkpt lat="50.48135" lon="3.48858">
        <ele>22.9</ele>
        <time>2022-04-03T06:50:22.000Z</time>
      </trkpt>
      <trkpt lat="50.48139" lon="3.48852">
        <ele>22.7</ele>
        <time>2022-04-03T06:50:23.000Z</time>
      </trkpt>
      <trkpt lat="50.48142" lon="3.48846">
        <ele>22.4</ele>
        <time>2022-04-03T06:50:24.000Z</time>
      </trkpt>
      <trkpt lat="50.48146" lon="3.4884">
        <ele>22.2</ele>
        <time>2022-04-03T06:50:25.000Z</time>
      </trkpt>
      <trkpt lat="50.48149" lon="3.48834">
        <ele>22</ele>
        <time>2022-04-03T06:50:26.000Z</time>
      </trkpt>
      <trkpt lat="50.48153" lon="3.48828">
        <ele>22</ele>
        <time>2022-04-03T06:50:27.000Z</time>
      </trkpt>
      <trkpt lat="50.48156" lon="3.48821">
        <ele>22</ele>
        <time>2022-04-03T06:50:28.000Z</time>
      </trkpt>
      <trkpt lat="50.4816" lon="3.48815">
        <ele>22</ele>
        <time>2022-04-03T06:50:29.000Z</time>
      </trkpt>
      <trkpt lat="50.48164" lon="3.48808">
        <ele>22</ele>
        <time>2022-04-03T06:50:30.000Z</time>
      </trkpt>
      <trkpt lat="50.48167" lon="3.48802">
        <ele>22</ele>
        <time>2022-04-03T06:50:31.000Z</time>
      </trkpt>
      <trkpt lat="50.48171" lon="3.48796">
        <ele>21.8</ele>
        <time>2022-04-03T06:50:32.000Z</time>
      </trkpt>
      <trkpt lat="50.48174" lon="3.48789">
        <ele>21.7</ele>
        <time>2022-04-03T06:50:33.000Z</time>
      </trkpt>
      <trkpt lat="50.48178" lon="3.48783">
        <ele>21.6</ele>
        <time>2022-04-03T06:50:34.000Z</time>
      </trkpt>
      <trkpt lat="50.48182" lon="3.48777">
        <ele>21.4</ele>
        <time>2022-04-03T06:50:35.000Z</time>
      </trkpt>
      <trkpt lat="50.48186" lon="3.4877">
        <ele>21.3</ele>
        <time>2022-04-03T06:50:36.000Z</time>
      </trkpt>
      <trkpt lat="50.4819" lon="3.48764">
        <ele>21.2</ele>
        <time>2022-04-03T06:50:37.000Z</time>
      </trkpt>
      <trkpt lat="50.48194" lon="3.48758">
        <ele>21</ele>
        <time>2022-04-03T06:50:38.000Z</time>
      </trkpt>
      <trkpt lat="50.48199" lon="3.48752">
        <ele>21</ele>
        <time>2022-04-03T06:50:39.000Z</time>
      </trkpt>
      <trkpt lat="50.48204" lon="3.48748">
        <ele>21</ele>
        <time>2022-04-03T06:50:40.000Z</time>
      </trkpt>
      <trkpt lat="50.48209" lon="3.48745">
        <ele>21</ele>
        <time>2022-04-03T06:50:41.000Z</time>
      </trkpt>
      <trkpt lat="50.48215" lon="3.48742">
        <ele>21</ele>
        <time>2022-04-03T06:50:42.000Z</time>
      </trkpt>
      <trkpt lat="50.48221" lon="3.4874">
        <ele>21</ele>
        <time>2022-04-03T06:50:43.000Z</time>
      </trkpt>
      <trkpt lat="50.48227" lon="3.48738">
        <ele>20.9</ele>
        <time>2022-04-03T06:50:44.000Z</time>
      </trkpt>
      <trkpt lat="50.48233" lon="3.48735">
        <ele>20.8</ele>
        <time>2022-04-03T06:50:45.000Z</time>
      </trkpt>
      <trkpt lat="50.48239" lon="3.48732">
        <ele>20.8</ele>
        <time>2022-04-03T06:50:46.000Z</time>
      </trkpt>
      <trkpt lat="50.48244" lon="3.4873">
        <ele>20.8</ele>
        <time>2022-04-03T06:50:47.000Z</time>
      </trkpt>
      <trkpt lat="50.4825" lon="3.48728">
        <ele>20.8</ele>
        <time>2022-04-03T06:50:48.000Z</time>
      </trkpt>
      <trkpt lat="50.48256" lon="3.48726">
        <ele>20.7</ele>
        <time>2022-04-03T06:50:49.000Z</time>
      </trkpt>
      <trkpt lat="50.48262" lon="3.48724">
        <ele>20.5</ele>
        <time>2022-04-03T06:50:50.000Z</time>
      </trkpt>
      <trkpt lat="50.48267" lon="3.48721">
        <ele>20.4</ele>
        <time>2022-04-03T06:50:51.000Z</time>
      </trkpt>
      <trkpt lat="50.48273" lon="3.48719">
        <ele>20.3</ele>
        <time>2022-04-03T06:50:52.000Z</time>
      </trkpt>
      <trkpt lat="50.48278" lon="3.48717">
        <ele>20.2</ele>
        <time>2022-04-03T06:50:53.000Z</time>
      </trkpt>
      <trkpt lat="50.48283" lon="3.48715">
        <ele>20.2</ele>
        <time>2022-04-03T06:50:54.000Z</time>
      </trkpt>
      <trkpt lat="50.48289" lon="3.48712">
        <ele>20.2</ele>
        <time>2022-04-03T06:50:55.000Z</time>
      </trkpt>
      <trkpt lat="50.48294" lon="3.4871">
        <ele>20.2</ele>
        <time>2022-04-03T06:50:56.000Z</time>
      </trkpt>
      <trkpt lat="50.48299" lon="3.48708">
        <ele>20.1</ele>
        <time>2022-04-03T06:50:57.000Z</time>
      </trkpt>
      <trkpt lat="50.48305" lon="3.48705">
        <ele>20</ele>
        <time>2022-04-03T06:50:58.000Z</time>
      </trkpt>
      <trkpt lat="50.48309" lon="3.48702">
        <ele>19.9</ele>
        <time>2022-04-03T06:50:59.000Z</time>
      </trkpt>
      <trkpt lat="50.48314" lon="3.48699">
        <ele>19.7</ele>
        <time>2022-04-03T06:51:00.000Z</time>
      </trkpt>
      <trkpt lat="50.48319" lon="3.48694">
        <ele>19.5</ele>
        <time>2022-04-03T06:51:01.000Z</time>
      </trkpt>
      <trkpt lat="50.48323" lon="3.48689">
        <ele>19.4</ele>
        <time>2022-04-03T06:51:02.000Z</time>
      </trkpt>
      <trkpt lat="50.48328" lon="3.48684">
        <ele>19.2</ele>
        <time>2022-04-03T06:51:03.000Z</time>
      </trkpt>
      <trkpt lat="50.48332" lon="3.48678">
        <ele>19</ele>
        <time>2022-04-03T06:51:04.000Z</time>
      </trkpt>
      <trkpt lat="50.48335" lon="3.48672">
        <ele>19</ele>
        <time>2022-04-03T06:51:05.000Z</time>
      </trkpt>
      <trkpt lat="50.48339" lon="3.48665">
        <ele>19</ele>
        <time>2022-04-03T06:51:06.000Z</time>
      </trkpt>
      <trkpt lat="50.48343" lon="3.48659">
        <ele>19</ele>
        <time>2022-04-03T06:51:07.000Z</time>
      </trkpt>
      <trkpt lat="50.48347" lon="3.48653">
        <ele>19</ele>
        <time>2022-04-03T06:51:08.000Z</time>
      </trkpt>
      <trkpt lat="50.4835" lon="3.48647">
        <ele>19</ele>
        <time>2022-04-03T06:51:09.000Z</time>
      </trkpt>
      <trkpt lat="50.48354" lon="3.48641">
        <ele>19</ele>
        <time>2022-04-03T06:51:10.000Z</time>
      </trkpt>
      <trkpt lat="50.48357" lon="3.48635">
        <ele>19</ele>
        <time>2022-04-03T06:51:11.000Z</time>
      </trkpt>
      <trkpt lat="50.48361" lon="3.48629">
        <ele>19</ele>
        <time>2022-04-03T06:51:12.000Z</time>
      </trkpt>
      <trkpt lat="50.48365" lon="3.48623">
        <ele>19</ele>
        <time>2022-04-03T06:51:13.000Z</time>
      </trkpt>
      <trkpt lat="50.48368" lon="3.48615">
        <ele>19</ele>
        <time>2022-04-03T06:51:14.000Z</time>
      </trkpt>
      <trkpt lat="50.48372" lon="3.48609">
        <ele>19</ele>
        <time>2022-04-03T06:51:15.000Z</time>
      </trkpt>
      <trkpt lat="50.48375" lon="3.48603">
        <ele>19</ele>
        <time>2022-04-03T06:51:16.000Z</time>
      </trkpt>
      <trkpt lat="50.48378" lon="3.48597">
        <ele>19</ele>
        <time>2022-04-03T06:51:17.000Z</time>
      </trkpt>
      <trkpt lat="50.48382" lon="3.4859">
        <ele>19</ele>
        <time>2022-04-03T06:51:18.000Z</time>
      </trkpt>
      <trkpt lat="50.48385" lon="3.48584">
        <ele>19</ele>
        <time>2022-04-03T06:51:19.000Z</time>
      </trkpt>
      <trkpt lat="50.48388" lon="3.48577">
        <ele>18.8</ele>
        <time>2022-04-03T06:51:20.000Z</time>
      </trkpt>
      <trkpt lat="50.48391" lon="3.4857">
        <ele>18.5</ele>
        <time>2022-04-03T06:51:21.000Z</time>
      </trkpt>
      <trkpt lat="50.48394" lon="3.48563">
        <ele>18.2</ele>
        <time>2022-04-03T06:51:22.000Z</time>
      </trkpt>
      <trkpt lat="50.48397" lon="3.48556">
        <ele>18</ele>
        <time>2022-04-03T06:51:23.000Z</time>
      </trkpt>
      <trkpt lat="50.484" lon="3.4855">
        <ele>18</ele>
        <time>2022-04-03T06:51:24.000Z</time>
      </trkpt>
      <trkpt lat="50.48403" lon="3.48544">
        <ele>18</ele>
        <time>2022-04-03T06:51:25.000Z</time>
      </trkpt>
      <trkpt lat="50.48406" lon="3.48537">
        <ele>18</ele>
        <time>2022-04-03T06:51:26.000Z</time>
      </trkpt>
      <trkpt lat="50.48409" lon="3.4853">
        <ele>18</ele>
        <time>2022-04-03T06:51:27.000Z</time>
      </trkpt>
      <trkpt lat="50.48412" lon="3.48524">
        <ele>18</ele>
        <time>2022-04-03T06:51:28.000Z</time>
      </trkpt>
      <trkpt lat="50.48414" lon="3.48517">
        <ele>18</ele>
        <time>2022-04-03T06:51:29.000Z</time>
      </trkpt>
      <trkpt lat="50.48417" lon="3.4851">
        <ele>18</ele>
        <time>2022-04-03T06:51:30.000Z</time>
      </trkpt>
      <trkpt lat="50.4842" lon="3.48503">
        <ele>18</ele>
        <time>2022-04-03T06:51:31.000Z</time>
      </trkpt>
      <trkpt lat="50.48422" lon="3.48495">
        <ele>18</ele>
        <time>2022-04-03T06:51:32.000Z</time>
      </trkpt>
      <trkpt lat="50.48423" lon="3.48488">
        <ele>18</ele>
        <time>2022-04-03T06:51:33.000Z</time>
      </trkpt>
      <trkpt lat="50.48425" lon="3.4848">
        <ele>18</ele>
        <time>2022-04-03T06:51:34.000Z</time>
      </trkpt>
      <trkpt lat="50.48425" lon="3.48472">
        <ele>18</ele>
        <time>2022-04-03T06:51:35.000Z</time>
      </trkpt>
      <trkpt lat="50.48426" lon="3.48464">
        <ele>18</ele>
        <time>2022-04-03T06:51:36.000Z</time>
      </trkpt>
      <trkpt lat="50.48426" lon="3.48456">
        <ele>18</ele>
        <time>2022-04-03T06:51:37.000Z</time>
      </trkpt>
      <trkpt lat="50.48426" lon="3.48448">
        <ele>18</ele>
        <time>2022-04-03T06:51:38.000Z</time>
      </trkpt>
      <trkpt lat="50.48426" lon="3.4844">
        <ele>18</ele>
        <time>2022-04-03T06:51:39.000Z</time>
      </trkpt>
      <trkpt lat="50.48426" lon="3.48432">
        <ele>18</ele>
        <time>2022-04-03T06:51:40.000Z</time>
      </trkpt>
      <trkpt lat="50.48427" lon="3.48424">
        <ele>18</ele>
        <time>2022-04-03T06:51:41.000Z</time>
      </trkpt>
      <trkpt lat="50.48426" lon="3.48416">
        <ele>18</ele>
        <time>2022-04-03T06:51:42.000Z</time>
      </trkpt>
      <trkpt lat="50.48426" lon="3.48408">
        <ele>18</ele>
        <time>2022-04-03T06:51:43.000Z</time>
      </trkpt>
      <trkpt lat="50.48426" lon="3.484">
        <ele>18</ele>
        <time>2022-04-03T06:51:44.000Z</time>
      </trkpt>
      <trkpt lat="50.48425" lon="3.48392">
        <ele>18</ele>
        <time>2022-04-03T06:51:45.000Z</time>
      </trkpt>
      <trkpt lat="50.48425" lon="3.48385">
        <ele>18</ele>
        <time>2022-04-03T06:51:46.000Z</time>
      </trkpt>
      <trkpt lat="50.48425" lon="3.48377">
        <ele>18</ele>
        <time>2022-04-03T06:51:47.000Z</time>
      </trkpt>
      <trkpt lat="50.48425" lon="3.4837">
        <ele>18</ele>
        <time>2022-04-03T06:51:48.000Z</time>
      </trkpt>
      <trkpt lat="50.48425" lon="3.48363">
        <ele>18</ele>
        <time>2022-04-03T06:51:49.000Z</time>
      </trkpt>
      <trkpt lat="50.48425" lon="3.48355">
        <ele>18</ele>
        <time>2022-04-03T06:51:50.000Z</time>
      </trkpt>
      <trkpt lat="50.48424" lon="3.48348">
        <ele>18</ele>
        <time>2022-04-03T06:51:51.000Z</time>
      </trkpt>
      <trkpt lat="50.48424" lon="3.4834">
        <ele>18</ele>
        <time>2022-04-03T06:51:52.000Z</time>
      </trkpt>
      <trkpt lat="50.48424" lon="3.48333">
        <ele>18</ele>
        <time>2022-04-03T06:51:53.000Z</time>
      </trkpt>
      <trkpt lat="50.48424" lon="3.48325">
        <ele>17.8</ele>
        <time>2022-04-03T06:51:54.000Z</time>
      </trkpt>
      <trkpt lat="50.48424" lon="3.48317">
        <ele>17.6</ele>
        <time>2022-04-03T06:51:55.000Z</time>
      </trkpt>
      <trkpt lat="50.48423" lon="3.4831">
        <ele>17.4</ele>
        <time>2022-04-03T06:51:56.000Z</time>
      </trkpt>
      <trkpt lat="50.48423" lon="3.48302">
        <ele>17.2</ele>
        <time>2022-04-03T06:51:57.000Z</time>
      </trkpt>
      <trkpt lat="50.48422" lon="3.48294">
        <ele>17.2</ele>
        <time>2022-04-03T06:51:58.000Z</time>
      </trkpt>
      <trkpt lat="50.48422" lon="3.48286">
        <ele>17.2</ele>
        <time>2022-04-03T06:51:59.000Z</time>
      </trkpt>
      <trkpt lat="50.48421" lon="3.48278">
        <ele>17.2</ele>
        <time>2022-04-03T06:52:00.000Z</time>
      </trkpt>
      <trkpt lat="50.48421" lon="3.4827">
        <ele>17.2</ele>
        <time>2022-04-03T06:52:01.000Z</time>
      </trkpt>
      <trkpt lat="50.48421" lon="3.48263">
        <ele>17.2</ele>
        <time>2022-04-03T06:52:02.000Z</time>
      </trkpt>
      <trkpt lat="50.48421" lon="3.48255">
        <ele>17.2</ele>
        <time>2022-04-03T06:52:03.000Z</time>
      </trkpt>
      <trkpt lat="50.4842" lon="3.48248">
        <ele>17.1</ele>
        <time>2022-04-03T06:52:04.000Z</time>
      </trkpt>
      <trkpt lat="50.4842" lon="3.4824">
        <ele>17.1</ele>
        <time>2022-04-03T06:52:05.000Z</time>
      </trkpt>
      <trkpt lat="50.48419" lon="3.48233">
        <ele>17</ele>
        <time>2022-04-03T06:52:06.000Z</time>
      </trkpt>
      <trkpt lat="50.48418" lon="3.48218">
        <ele>17</ele>
        <time>2022-04-03T06:52:08.000Z</time>
      </trkpt>
      <trkpt lat="50.48418" lon="3.4821">
        <ele>17</ele>
        <time>2022-04-03T06:52:09.000Z</time>
      </trkpt>
      <trkpt lat="50.48418" lon="3.48203">
        <ele>17</ele>
        <time>2022-04-03T06:52:10.000Z</time>
      </trkpt>
      <trkpt lat="50.48418" lon="3.48195">
        <ele>17</ele>
        <time>2022-04-03T06:52:11.000Z</time>
      </trkpt>
      <trkpt lat="50.48418" lon="3.48187">
        <ele>17</ele>
        <time>2022-04-03T06:52:12.000Z</time>
      </trkpt>
      <trkpt lat="50.48417" lon="3.4818">
        <ele>17</ele>
        <time>2022-04-03T06:52:13.000Z</time>
      </trkpt>
      <trkpt lat="50.48416" lon="3.48173">
        <ele>17</ele>
        <time>2022-04-03T06:52:14.000Z</time>
      </trkpt>
      <trkpt lat="50.48415" lon="3.48165">
        <ele>17</ele>
        <time>2022-04-03T06:52:15.000Z</time>
      </trkpt>
      <trkpt lat="50.48415" lon="3.48158">
        <ele>17</ele>
        <time>2022-04-03T06:52:16.000Z</time>
      </trkpt>
      <trkpt lat="50.48414" lon="3.48143">
        <ele>17</ele>
        <time>2022-04-03T06:52:18.000Z</time>
      </trkpt>
      <trkpt lat="50.48413" lon="3.48136">
        <ele>17.1</ele>
        <time>2022-04-03T06:52:19.000Z</time>
      </trkpt>
      <trkpt lat="50.48413" lon="3.48129">
        <ele>17.3</ele>
        <time>2022-04-03T06:52:20.000Z</time>
      </trkpt>
      <trkpt lat="50.48413" lon="3.48121">
        <ele>17.6</ele>
        <time>2022-04-03T06:52:21.000Z</time>
      </trkpt>
      <trkpt lat="50.48412" lon="3.48108">
        <ele>17.9</ele>
        <time>2022-04-03T06:52:23.000Z</time>
      </trkpt>
      <trkpt lat="50.48412" lon="3.48095">
        <ele>17.9</ele>
        <time>2022-04-03T06:52:25.000Z</time>
      </trkpt>
      <trkpt lat="50.48412" lon="3.48087">
        <ele>18</ele>
        <time>2022-04-03T06:52:26.000Z</time>
      </trkpt>
      <trkpt lat="50.48412" lon="3.4808">
        <ele>18</ele>
        <time>2022-04-03T06:52:27.000Z</time>
      </trkpt>
      <trkpt lat="50.48411" lon="3.48072">
        <ele>18</ele>
        <time>2022-04-03T06:52:28.000Z</time>
      </trkpt>
      <trkpt lat="50.48411" lon="3.48064">
        <ele>18</ele>
        <time>2022-04-03T06:52:29.000Z</time>
      </trkpt>
      <trkpt lat="50.4841" lon="3.48057">
        <ele>18</ele>
        <time>2022-04-03T06:52:30.000Z</time>
      </trkpt>
      <trkpt lat="50.4841" lon="3.48049">
        <ele>18</ele>
        <time>2022-04-03T06:52:31.000Z</time>
      </trkpt>
      <trkpt lat="50.48411" lon="3.48042">
        <ele>18</ele>
        <time>2022-04-03T06:52:32.000Z</time>
      </trkpt>
      <trkpt lat="50.48411" lon="3.48034">
        <ele>18</ele>
        <time>2022-04-03T06:52:33.000Z</time>
      </trkpt>
      <trkpt lat="50.48412" lon="3.48027">
        <ele>18</ele>
        <time>2022-04-03T06:52:34.000Z</time>
      </trkpt>
      <trkpt lat="50.48413" lon="3.4802">
        <ele>18</ele>
        <time>2022-04-03T06:52:35.000Z</time>
      </trkpt>
      <trkpt lat="50.48413" lon="3.48013">
        <ele>17.9</ele>
        <time>2022-04-03T06:52:36.000Z</time>
      </trkpt>
      <trkpt lat="50.48414" lon="3.48006">
        <ele>17.9</ele>
        <time>2022-04-03T06:52:37.000Z</time>
      </trkpt>
      <trkpt lat="50.48419" lon="3.47995">
        <ele>18</ele>
        <time>2022-04-03T06:52:41.000Z</time>
      </trkpt>
      <trkpt lat="50.48421" lon="3.47985">
        <ele>17.9</ele>
        <time>2022-04-03T06:52:42.000Z</time>
      </trkpt>
      <trkpt lat="50.48423" lon="3.47978">
        <ele>17.8</ele>
        <time>2022-04-03T06:52:43.010Z</time>
      </trkpt>
      <trkpt lat="50.48426" lon="3.47969">
        <ele>17.7</ele>
        <time>2022-04-03T06:52:44.000Z</time>
      </trkpt>
      <trkpt lat="50.48428" lon="3.47962">
        <ele>17.7</ele>
        <time>2022-04-03T06:52:44.991Z</time>
      </trkpt>
      <trkpt lat="50.4843" lon="3.47956">
        <ele>17.8</ele>
        <time>2022-04-03T06:52:46.000Z</time>
      </trkpt>
      <trkpt lat="50.48435" lon="3.47945">
        <ele>18</ele>
        <time>2022-04-03T06:52:48.000Z</time>
      </trkpt>
      <trkpt lat="50.4844" lon="3.47935">
        <ele>17.9</ele>
        <time>2022-04-03T06:52:50.000Z</time>
      </trkpt>
      <trkpt lat="50.48445" lon="3.47928">
        <ele>18</ele>
        <time>2022-04-03T06:52:52.000Z</time>
      </trkpt>
      <trkpt lat="50.48447" lon="3.47922">
        <ele>17.9</ele>
        <time>2022-04-03T06:52:54.000Z</time>
      </trkpt>
      <trkpt lat="50.48441" lon="3.47926">
        <ele>17.9</ele>
        <time>2022-04-03T06:52:57.000Z</time>
      </trkpt>
      <trkpt lat="50.48438" lon="3.47931">
        <ele>17.9</ele>
        <time>2022-04-03T06:52:58.000Z</time>
      </trkpt>
      <trkpt lat="50.48434" lon="3.47938">
        <ele>17.9</ele>
        <time>2022-04-03T06:52:59.000Z</time>
      </trkpt>
      <trkpt lat="50.48429" lon="3.47944">
        <ele>18</ele>
        <time>2022-04-03T06:53:00.000Z</time>
      </trkpt>
      <trkpt lat="50.48425" lon="3.4795">
        <ele>17.9</ele>
        <time>2022-04-03T06:53:01.000Z</time>
      </trkpt>
      <trkpt lat="50.48421" lon="3.47955">
        <ele>17.9</ele>
        <time>2022-04-03T06:53:02.000Z</time>
      </trkpt>
      <trkpt lat="50.48416" lon="3.4796">
        <ele>18</ele>
        <time>2022-04-03T06:53:03.000Z</time>
      </trkpt>
      <trkpt lat="50.48411" lon="3.47964">
        <ele>17.8</ele>
        <time>2022-04-03T06:53:04.000Z</time>
      </trkpt>
      <trkpt lat="50.48406" lon="3.47966">
        <ele>17.6</ele>
        <time>2022-04-03T06:53:05.000Z</time>
      </trkpt>
      <trkpt lat="50.48399" lon="3.47964">
        <ele>17.4</ele>
        <time>2022-04-03T06:53:06.000Z</time>
      </trkpt>
      <trkpt lat="50.48394" lon="3.47958">
        <ele>17.2</ele>
        <time>2022-04-03T06:53:07.000Z</time>
      </trkpt>
      <trkpt lat="50.48391" lon="3.4795">
        <ele>17.1</ele>
        <time>2022-04-03T06:53:08.000Z</time>
      </trkpt>
      <trkpt lat="50.48388" lon="3.47941">
        <ele>17</ele>
        <time>2022-04-03T06:53:09.000Z</time>
      </trkpt>
      <trkpt lat="50.48385" lon="3.47933">
        <ele>17.1</ele>
        <time>2022-04-03T06:53:10.000Z</time>
      </trkpt>
      <trkpt lat="50.48383" lon="3.47926">
        <ele>17.1</ele>
        <time>2022-04-03T06:53:11.000Z</time>
      </trkpt>
      <trkpt lat="50.48381" lon="3.47918">
        <ele>17.3</ele>
        <time>2022-04-03T06:53:12.000Z</time>
      </trkpt>
      <trkpt lat="50.48379" lon="3.4791">
        <ele>17.4</ele>
        <time>2022-04-03T06:53:13.000Z</time>
      </trkpt>
      <trkpt lat="50.48377" lon="3.47902">
        <ele>17.4</ele>
        <time>2022-04-03T06:53:14.000Z</time>
      </trkpt>
      <trkpt lat="50.48374" lon="3.47895">
        <ele>17.5</ele>
        <time>2022-04-03T06:53:15.000Z</time>
      </trkpt>
      <trkpt lat="50.48372" lon="3.47888">
        <ele>17.6</ele>
        <time>2022-04-03T06:53:16.000Z</time>
      </trkpt>
      <trkpt lat="50.4837" lon="3.47881">
        <ele>17.7</ele>
        <time>2022-04-03T06:53:17.000Z</time>
      </trkpt>
      <trkpt lat="50.48367" lon="3.47874">
        <ele>17.8</ele>
        <time>2022-04-03T06:53:18.000Z</time>
      </trkpt>
      <trkpt lat="50.48365" lon="3.47867">
        <ele>17.9</ele>
        <time>2022-04-03T06:53:19.000Z</time>
      </trkpt>
      <trkpt lat="50.48363" lon="3.4786">
        <ele>17.9</ele>
        <time>2022-04-03T06:53:20.000Z</time>
      </trkpt>
      <trkpt lat="50.4836" lon="3.47854">
        <ele>18</ele>
        <time>2022-04-03T06:53:21.000Z</time>
      </trkpt>
      <trkpt lat="50.48357" lon="3.47848">
        <ele>18</ele>
        <time>2022-04-03T06:53:22.000Z</time>
      </trkpt>
      <trkpt lat="50.48355" lon="3.47841">
        <ele>18</ele>
        <time>2022-04-03T06:53:23.000Z</time>
      </trkpt>
      <trkpt lat="50.48352" lon="3.47835">
        <ele>18</ele>
        <time>2022-04-03T06:53:24.000Z</time>
      </trkpt>
      <trkpt lat="50.4835" lon="3.47829">
        <ele>18</ele>
        <time>2022-04-03T06:53:25.000Z</time>
      </trkpt>
      <trkpt lat="50.48347" lon="3.47822">
        <ele>18</ele>
        <time>2022-04-03T06:53:26.000Z</time>
      </trkpt>
      <trkpt lat="50.48345" lon="3.47815">
        <ele>18</ele>
        <time>2022-04-03T06:53:27.000Z</time>
      </trkpt>
      <trkpt lat="50.48344" lon="3.47807">
        <ele>18</ele>
        <time>2022-04-03T06:53:28.000Z</time>
      </trkpt>
      <trkpt lat="50.48341" lon="3.478">
        <ele>18</ele>
        <time>2022-04-03T06:53:29.000Z</time>
      </trkpt>
      <trkpt lat="50.4834" lon="3.47794">
        <ele>18</ele>
        <time>2022-04-03T06:53:30.000Z</time>
      </trkpt>
      <trkpt lat="50.48337" lon="3.47787">
        <ele>18</ele>
        <time>2022-04-03T06:53:31.000Z</time>
      </trkpt>
      <trkpt lat="50.48335" lon="3.47781">
        <ele>18</ele>
        <time>2022-04-03T06:53:32.000Z</time>
      </trkpt>
      <trkpt lat="50.48333" lon="3.47774">
        <ele>18</ele>
        <time>2022-04-03T06:53:33.000Z</time>
      </trkpt>
      <trkpt lat="50.48331" lon="3.47768">
        <ele>18</ele>
        <time>2022-04-03T06:53:34.000Z</time>
      </trkpt>
      <trkpt lat="50.48327" lon="3.47755">
        <ele>18</ele>
        <time>2022-04-03T06:53:36.000Z</time>
      </trkpt>
      <trkpt lat="50.48323" lon="3.47744">
        <ele>18</ele>
        <time>2022-04-03T06:53:38.000Z</time>
      </trkpt>
      <trkpt lat="50.48319" lon="3.47732">
        <ele>18</ele>
        <time>2022-04-03T06:53:40.000Z</time>
      </trkpt>
      <trkpt lat="50.48316" lon="3.47725">
        <ele>18</ele>
        <time>2022-04-03T06:53:42.000Z</time>
      </trkpt>
      <trkpt lat="50.48313" lon="3.47719">
        <ele>18</ele>
        <time>2022-04-03T06:53:44.000Z</time>
      </trkpt>
      <trkpt lat="50.48311" lon="3.47711">
        <ele>17.9</ele>
        <time>2022-04-03T06:53:45.018Z</time>
      </trkpt>
      <trkpt lat="50.48309" lon="3.47704">
        <ele>17.9</ele>
        <time>2022-04-03T06:53:46.000Z</time>
      </trkpt>
      <trkpt lat="50.48306" lon="3.47691">
        <ele>18</ele>
        <time>2022-04-03T06:53:48.000Z</time>
      </trkpt>
      <trkpt lat="50.48303" lon="3.47685">
        <ele>18</ele>
        <time>2022-04-03T06:53:49.040Z</time>
      </trkpt>
      <trkpt lat="50.48296" lon="3.47681">
        <ele>18</ele>
        <time>2022-04-03T06:53:51.000Z</time>
      </trkpt>
      <trkpt lat="50.48285" lon="3.47677">
        <ele>18</ele>
        <time>2022-04-03T06:53:54.100Z</time>
      </trkpt>
      <trkpt lat="50.4828" lon="3.47676">
        <ele>18</ele>
        <time>2022-04-03T06:53:55.259Z</time>
      </trkpt>
      <trkpt lat="50.48275" lon="3.47675">
        <ele>18.1</ele>
        <time>2022-04-03T06:53:56.610Z</time>
      </trkpt>
      <trkpt lat="50.4827" lon="3.47675">
        <ele>18.3</ele>
        <time>2022-04-03T06:53:57.815Z</time>
      </trkpt>
      <trkpt lat="50.48263" lon="3.47675">
        <ele>18.5</ele>
        <time>2022-04-03T06:53:59.838Z</time>
      </trkpt>
      <trkpt lat="50.48256" lon="3.47674">
        <ele>18.8</ele>
        <time>2022-04-03T06:54:01.918Z</time>
      </trkpt>
      <trkpt lat="50.48251" lon="3.47684">
        <ele>19</ele>
        <time>2022-04-03T06:54:04.000Z</time>
      </trkpt>
      <trkpt lat="50.48253" lon="3.47696">
        <ele>18.8</ele>
        <time>2022-04-03T06:54:06.000Z</time>
      </trkpt>
      <trkpt lat="50.48256" lon="3.47709">
        <ele>18.4</ele>
        <time>2022-04-03T06:54:08.000Z</time>
      </trkpt>
      <trkpt lat="50.48257" lon="3.47723">
        <ele>18</ele>
        <time>2022-04-03T06:54:10.095Z</time>
      </trkpt>
      <trkpt lat="50.48258" lon="3.47736">
        <ele>18</ele>
        <time>2022-04-03T06:54:11.976Z</time>
      </trkpt>
      <trkpt lat="50.48258" lon="3.47744">
        <ele>18</ele>
        <time>2022-04-03T06:54:13.169Z</time>
      </trkpt>
      <trkpt lat="50.48259" lon="3.47758">
        <ele>18.2</ele>
        <time>2022-04-03T06:54:15.436Z</time>
      </trkpt>
      <trkpt lat="50.4826" lon="3.47766">
        <ele>18.4</ele>
        <time>2022-04-03T06:54:16.698Z</time>
      </trkpt>
      <trkpt lat="50.48261" lon="3.47774">
        <ele>18.5</ele>
        <time>2022-04-03T06:54:18.017Z</time>
      </trkpt>
      <trkpt lat="50.48264" lon="3.47786">
        <ele>18.5</ele>
        <time>2022-04-03T06:54:20.000Z</time>
      </trkpt>
      <trkpt lat="50.48271" lon="3.4779">
        <ele>18.2</ele>
        <time>2022-04-03T06:54:22.040Z</time>
      </trkpt>
      <trkpt lat="50.48279" lon="3.47794">
        <ele>18</ele>
        <time>2022-04-03T06:54:23.959Z</time>
      </trkpt>
      <trkpt lat="50.48284" lon="3.47796">
        <ele>18</ele>
        <time>2022-04-03T06:54:25.077Z</time>
      </trkpt>
      <trkpt lat="50.48294" lon="3.478">
        <ele>18</ele>
        <time>2022-04-03T06:54:27.000Z</time>
      </trkpt>
      <trkpt lat="50.48299" lon="3.47803">
        <ele>18</ele>
        <time>2022-04-03T06:54:28.000Z</time>
      </trkpt>
      <trkpt lat="50.48304" lon="3.47805">
        <ele>18</ele>
        <time>2022-04-03T06:54:29.000Z</time>
      </trkpt>
      <trkpt lat="50.48308" lon="3.47808">
        <ele>18</ele>
        <time>2022-04-03T06:54:30.000Z</time>
      </trkpt>
      <trkpt lat="50.48313" lon="3.4781">
        <ele>18</ele>
        <time>2022-04-03T06:54:31.000Z</time>
      </trkpt>
      <trkpt lat="50.48318" lon="3.47813">
        <ele>18</ele>
        <time>2022-04-03T06:54:32.000Z</time>
      </trkpt>
      <trkpt lat="50.48322" lon="3.47816">
        <ele>18</ele>
        <time>2022-04-03T06:54:33.000Z</time>
      </trkpt>
      <trkpt lat="50.48328" lon="3.47819">
        <ele>18</ele>
        <time>2022-04-03T06:54:34.000Z</time>
      </trkpt>
      <trkpt lat="50.48333" lon="3.47821">
        <ele>18</ele>
        <time>2022-04-03T06:54:35.000Z</time>
      </trkpt>
      <trkpt lat="50.48338" lon="3.47823">
        <ele>18</ele>
        <time>2022-04-03T06:54:36.000Z</time>
      </trkpt>
      <trkpt lat="50.48342" lon="3.47826">
        <ele>18</ele>
        <time>2022-04-03T06:54:37.000Z</time>
      </trkpt>
      <trkpt lat="50.48347" lon="3.47828">
        <ele>18</ele>
        <time>2022-04-03T06:54:38.000Z</time>
      </trkpt>
      <trkpt lat="50.48351" lon="3.47831">
        <ele>18</ele>
        <time>2022-04-03T06:54:39.000Z</time>
      </trkpt>
      <trkpt lat="50.48355" lon="3.47836">
        <ele>18</ele>
        <time>2022-04-03T06:54:40.000Z</time>
      </trkpt>
      <trkpt lat="50.48359" lon="3.47848">
        <ele>18</ele>
        <time>2022-04-03T06:54:42.000Z</time>
      </trkpt>
      <trkpt lat="50.48361" lon="3.47855">
        <ele>18</ele>
        <time>2022-04-03T06:54:43.000Z</time>
      </trkpt>
      <trkpt lat="50.48362" lon="3.47862">
        <ele>18</ele>
        <time>2022-04-03T06:54:44.000Z</time>
      </trkpt>
      <trkpt lat="50.48363" lon="3.47869">
        <ele>17.9</ele>
        <time>2022-04-03T06:54:45.000Z</time>
      </trkpt>
      <trkpt lat="50.48365" lon="3.47877">
        <ele>17.9</ele>
        <time>2022-04-03T06:54:46.000Z</time>
      </trkpt>
      <trkpt lat="50.48367" lon="3.47884">
        <ele>17.8</ele>
        <time>2022-04-03T06:54:47.000Z</time>
      </trkpt>
      <trkpt lat="50.48369" lon="3.4789">
        <ele>17.7</ele>
        <time>2022-04-03T06:54:48.000Z</time>
      </trkpt>
      <trkpt lat="50.48371" lon="3.47897">
        <ele>17.6</ele>
        <time>2022-04-03T06:54:49.000Z</time>
      </trkpt>
      <trkpt lat="50.48374" lon="3.47903">
        <ele>17.5</ele>
        <time>2022-04-03T06:54:50.000Z</time>
      </trkpt>
      <trkpt lat="50.48376" lon="3.47909">
        <ele>17.5</ele>
        <time>2022-04-03T06:54:51.000Z</time>
      </trkpt>
      <trkpt lat="50.48378" lon="3.47916">
        <ele>17.4</ele>
        <time>2022-04-03T06:54:52.000Z</time>
      </trkpt>
      <trkpt lat="50.48381" lon="3.47923">
        <ele>17.2</ele>
        <time>2022-04-03T06:54:53.000Z</time>
      </trkpt>
      <trkpt lat="50.48383" lon="3.4793">
        <ele>17.1</ele>
        <time>2022-04-03T06:54:54.000Z</time>
      </trkpt>
      <trkpt lat="50.48386" lon="3.47936">
        <ele>17</ele>
        <time>2022-04-03T06:54:55.000Z</time>
      </trkpt>
      <trkpt lat="50.48388" lon="3.47943">
        <ele>17</ele>
        <time>2022-04-03T06:54:56.000Z</time>
      </trkpt>
      <trkpt lat="50.48391" lon="3.4795">
        <ele>17.1</ele>
        <time>2022-04-03T06:54:57.000Z</time>
      </trkpt>
      <trkpt lat="50.48393" lon="3.47957">
        <ele>17.1</ele>
        <time>2022-04-03T06:54:58.000Z</time>
      </trkpt>
      <trkpt lat="50.48396" lon="3.47964">
        <ele>17.3</ele>
        <time>2022-04-03T06:54:59.000Z</time>
      </trkpt>
      <trkpt lat="50.48399" lon="3.4797">
        <ele>17.4</ele>
        <time>2022-04-03T06:55:00.000Z</time>
      </trkpt>
      <trkpt lat="50.48405" lon="3.47977">
        <ele>17.6</ele>
        <time>2022-04-03T06:55:02.000Z</time>
      </trkpt>
      <trkpt lat="50.48413" lon="3.4798">
        <ele>17.9</ele>
        <time>2022-04-03T06:55:04.000Z</time>
      </trkpt>
      <trkpt lat="50.4842" lon="3.47975">
        <ele>17.9</ele>
        <time>2022-04-03T06:55:06.000Z</time>
      </trkpt>
      <trkpt lat="50.48426" lon="3.47966">
        <ele>17.7</ele>
        <time>2022-04-03T06:55:08.000Z</time>
      </trkpt>
      <trkpt lat="50.48429" lon="3.47958">
        <ele>17.8</ele>
        <time>2022-04-03T06:55:09.000Z</time>
      </trkpt>
      <trkpt lat="50.48432" lon="3.47951">
        <ele>17.9</ele>
        <time>2022-04-03T06:55:10.000Z</time>
      </trkpt>
      <trkpt lat="50.48435" lon="3.47944">
        <ele>18</ele>
        <time>2022-04-03T06:55:11.000Z</time>
      </trkpt>
      <trkpt lat="50.48438" lon="3.47938">
        <ele>17.9</ele>
        <time>2022-04-03T06:55:12.000Z</time>
      </trkpt>
      <trkpt lat="50.48441" lon="3.47933">
        <ele>17.9</ele>
        <time>2022-04-03T06:55:13.000Z</time>
      </trkpt>
      <trkpt lat="50.48445" lon="3.47928">
        <ele>18</ele>
        <time>2022-04-03T06:55:14.000Z</time>
      </trkpt>
      <trkpt lat="50.48452" lon="3.47919">
        <ele>17.7</ele>
        <time>2022-04-03T06:55:16.000Z</time>
      </trkpt>
      <trkpt lat="50.48456" lon="3.47915">
        <ele>17.5</ele>
        <time>2022-04-03T06:55:17.000Z</time>
      </trkpt>
      <trkpt lat="50.48464" lon="3.47909">
        <ele>17.2</ele>
        <time>2022-04-03T06:55:19.000Z</time>
      </trkpt>
      <trkpt lat="50.48468" lon="3.47905">
        <ele>17.1</ele>
        <time>2022-04-03T06:55:20.000Z</time>
      </trkpt>
      <trkpt lat="50.48472" lon="3.47901">
        <ele>17</ele>
        <time>2022-04-03T06:55:21.000Z</time>
      </trkpt>
      <trkpt lat="50.48476" lon="3.47898">
        <ele>17</ele>
        <time>2022-04-03T06:55:22.000Z</time>
      </trkpt>
      <trkpt lat="50.48485" lon="3.47893">
        <ele>17</ele>
        <time>2022-04-03T06:55:24.000Z</time>
      </trkpt>
      <trkpt lat="50.48489" lon="3.4789">
        <ele>17</ele>
        <time>2022-04-03T06:55:25.000Z</time>
      </trkpt>
      <trkpt lat="50.48497" lon="3.47885">
        <ele>17</ele>
        <time>2022-04-03T06:55:27.000Z</time>
      </trkpt>
      <trkpt lat="50.485" lon="3.4788">
        <ele>17</ele>
        <time>2022-04-03T06:55:29.000Z</time>
      </trkpt>
      <trkpt lat="50.48513" lon="3.47875">
        <ele>17</ele>
        <time>2022-04-03T06:55:31.000Z</time>
      </trkpt>
      <trkpt lat="50.48524" lon="3.47868">
        <ele>17</ele>
        <time>2022-04-03T06:55:34.376Z</time>
      </trkpt>
      <trkpt lat="50.48531" lon="3.47864">
        <ele>17</ele>
        <time>2022-04-03T06:55:36.000Z</time>
      </trkpt>
      <trkpt lat="50.48537" lon="3.47862">
        <ele>17</ele>
        <time>2022-04-03T06:55:37.037Z</time>
      </trkpt>
      <trkpt lat="50.48545" lon="3.47858">
        <ele>17</ele>
        <time>2022-04-03T06:55:39.000Z</time>
      </trkpt>
      <trkpt lat="50.48553" lon="3.47853">
        <ele>17</ele>
        <time>2022-04-03T06:55:41.000Z</time>
      </trkpt>
      <trkpt lat="50.48562" lon="3.47849">
        <ele>17</ele>
        <time>2022-04-03T06:55:43.000Z</time>
      </trkpt>
      <trkpt lat="50.48572" lon="3.47842">
        <ele>17</ele>
        <time>2022-04-03T06:55:45.578Z</time>
      </trkpt>
      <trkpt lat="50.48581" lon="3.47838">
        <ele>17</ele>
        <time>2022-04-03T06:55:47.857Z</time>
      </trkpt>
      <trkpt lat="50.48588" lon="3.47833">
        <ele>17</ele>
        <time>2022-04-03T06:55:50.000Z</time>
      </trkpt>
      <trkpt lat="50.48597" lon="3.4783">
        <ele>17</ele>
        <time>2022-04-03T06:55:52.000Z</time>
      </trkpt>
      <trkpt lat="50.48606" lon="3.47826">
        <ele>17</ele>
        <time>2022-04-03T06:55:54.185Z</time>
      </trkpt>
      <trkpt lat="50.48613" lon="3.47822">
        <ele>17</ele>
        <time>2022-04-03T06:55:55.798Z</time>
      </trkpt>
      <trkpt lat="50.48618" lon="3.4782">
        <ele>17</ele>
        <time>2022-04-03T06:55:57.039Z</time>
      </trkpt>
      <trkpt lat="50.48626" lon="3.47818">
        <ele>17</ele>
        <time>2022-04-03T06:55:59.000Z</time>
      </trkpt>
      <trkpt lat="50.48633" lon="3.47814">
        <ele>17</ele>
        <time>2022-04-03T06:56:01.000Z</time>
      </trkpt>
      <trkpt lat="50.48642" lon="3.47809">
        <ele>17</ele>
        <time>2022-04-03T06:56:03.582Z</time>
      </trkpt>
      <trkpt lat="50.48647" lon="3.47806">
        <ele>17</ele>
        <time>2022-04-03T06:56:05.000Z</time>
      </trkpt>
      <trkpt lat="50.48654" lon="3.47802">
        <ele>17</ele>
        <time>2022-04-03T06:56:06.858Z</time>
      </trkpt>
      <trkpt lat="50.48659" lon="3.478">
        <ele>17</ele>
        <time>2022-04-03T06:56:08.036Z</time>
      </trkpt>
      <trkpt lat="50.48664" lon="3.47797">
        <ele>17</ele>
        <time>2022-04-03T06:56:09.077Z</time>
      </trkpt>
      <trkpt lat="50.48669" lon="3.47795">
        <ele>17</ele>
        <time>2022-04-03T06:56:10.543Z</time>
      </trkpt>
      <trkpt lat="50.48678" lon="3.47791">
        <ele>17</ele>
        <time>2022-04-03T06:56:13.000Z</time>
      </trkpt>
      <trkpt lat="50.48681" lon="3.47784">
        <ele>17</ele>
        <time>2022-04-03T06:56:14.000Z</time>
      </trkpt>
      <trkpt lat="50.48683" lon="3.47776">
        <ele>17</ele>
        <time>2022-04-03T06:56:15.123Z</time>
      </trkpt>
      <trkpt lat="50.48685" lon="3.47761">
        <ele>17.4</ele>
        <time>2022-04-03T06:56:16.899Z</time>
      </trkpt>
      <trkpt lat="50.48688" lon="3.47746">
        <ele>17.8</ele>
        <time>2022-04-03T06:56:19.000Z</time>
      </trkpt>
      <trkpt lat="50.4869" lon="3.47739">
        <ele>17.8</ele>
        <time>2022-04-03T06:56:20.000Z</time>
      </trkpt>
      <trkpt lat="50.48692" lon="3.47732">
        <ele>17.9</ele>
        <time>2022-04-03T06:56:21.000Z</time>
      </trkpt>
      <trkpt lat="50.48693" lon="3.47724">
        <ele>17.9</ele>
        <time>2022-04-03T06:56:22.000Z</time>
      </trkpt>
      <trkpt lat="50.48694" lon="3.47717">
        <ele>17.8</ele>
        <time>2022-04-03T06:56:23.000Z</time>
      </trkpt>
      <trkpt lat="50.48695" lon="3.4771">
        <ele>17.6</ele>
        <time>2022-04-03T06:56:24.000Z</time>
      </trkpt>
      <trkpt lat="50.48697" lon="3.47703">
        <ele>17.4</ele>
        <time>2022-04-03T06:56:25.000Z</time>
      </trkpt>
      <trkpt lat="50.48698" lon="3.47696">
        <ele>17.2</ele>
        <time>2022-04-03T06:56:26.000Z</time>
      </trkpt>
      <trkpt lat="50.487" lon="3.47689">
        <ele>17.2</ele>
        <time>2022-04-03T06:56:27.000Z</time>
      </trkpt>
      <trkpt lat="50.48702" lon="3.47681">
        <ele>17.1</ele>
        <time>2022-04-03T06:56:28.000Z</time>
      </trkpt>
      <trkpt lat="50.48704" lon="3.47674">
        <ele>17.1</ele>
        <time>2022-04-03T06:56:29.000Z</time>
      </trkpt>
      <trkpt lat="50.48705" lon="3.47667">
        <ele>17</ele>
        <time>2022-04-03T06:56:30.000Z</time>
      </trkpt>
      <trkpt lat="50.48706" lon="3.4766">
        <ele>17</ele>
        <time>2022-04-03T06:56:31.000Z</time>
      </trkpt>
      <trkpt lat="50.48708" lon="3.47646">
        <ele>17</ele>
        <time>2022-04-03T06:56:33.000Z</time>
      </trkpt>
      <trkpt lat="50.48709" lon="3.47633">
        <ele>17</ele>
        <time>2022-04-03T06:56:35.000Z</time>
      </trkpt>
      <trkpt lat="50.48711" lon="3.47626">
        <ele>17</ele>
        <time>2022-04-03T06:56:36.000Z</time>
      </trkpt>
      <trkpt lat="50.48713" lon="3.47612">
        <ele>17</ele>
        <time>2022-04-03T06:56:38.000Z</time>
      </trkpt>
      <trkpt lat="50.48715" lon="3.47605">
        <ele>17</ele>
        <time>2022-04-03T06:56:39.000Z</time>
      </trkpt>
      <trkpt lat="50.48717" lon="3.47598">
        <ele>17</ele>
        <time>2022-04-03T06:56:40.000Z</time>
      </trkpt>
      <trkpt lat="50.48719" lon="3.47591">
        <ele>17</ele>
        <time>2022-04-03T06:56:41.000Z</time>
      </trkpt>
      <trkpt lat="50.48721" lon="3.47584">
        <ele>17</ele>
        <time>2022-04-03T06:56:42.000Z</time>
      </trkpt>
      <trkpt lat="50.48723" lon="3.4757">
        <ele>17</ele>
        <time>2022-04-03T06:56:44.000Z</time>
      </trkpt>
      <trkpt lat="50.48725" lon="3.47563">
        <ele>17</ele>
        <time>2022-04-03T06:56:45.000Z</time>
      </trkpt>
      <trkpt lat="50.48727" lon="3.47556">
        <ele>17</ele>
        <time>2022-04-03T06:56:46.000Z</time>
      </trkpt>
      <trkpt lat="50.4873" lon="3.47543">
        <ele>17</ele>
        <time>2022-04-03T06:56:48.000Z</time>
      </trkpt>
      <trkpt lat="50.48732" lon="3.47536">
        <ele>17</ele>
        <time>2022-04-03T06:56:49.000Z</time>
      </trkpt>
      <trkpt lat="50.48734" lon="3.47529">
        <ele>17</ele>
        <time>2022-04-03T06:56:50.000Z</time>
      </trkpt>
      <trkpt lat="50.48735" lon="3.47523">
        <ele>17</ele>
        <time>2022-04-03T06:56:51.000Z</time>
      </trkpt>
      <trkpt lat="50.48737" lon="3.47511">
        <ele>17</ele>
        <time>2022-04-03T06:56:53.000Z</time>
      </trkpt>
      <trkpt lat="50.48739" lon="3.47499">
        <ele>17</ele>
        <time>2022-04-03T06:56:55.000Z</time>
      </trkpt>
      <trkpt lat="50.4874" lon="3.47491">
        <ele>17</ele>
        <time>2022-04-03T06:56:56.000Z</time>
      </trkpt>
      <trkpt lat="50.48741" lon="3.47478">
        <ele>17</ele>
        <time>2022-04-03T06:56:58.034Z</time>
      </trkpt>
      <trkpt lat="50.48742" lon="3.47472">
        <ele>17</ele>
        <time>2022-04-03T06:56:59.000Z</time>
      </trkpt>
      <trkpt lat="50.48744" lon="3.47457">
        <ele>17</ele>
        <time>2022-04-03T06:57:01.167Z</time>
      </trkpt>
      <trkpt lat="50.48747" lon="3.47444">
        <ele>17</ele>
        <time>2022-04-03T06:57:03.065Z</time>
      </trkpt>
      <trkpt lat="50.48748" lon="3.4743">
        <ele>17</ele>
        <time>2022-04-03T06:57:05.030Z</time>
      </trkpt>
      <trkpt lat="50.48749" lon="3.47422">
        <ele>17</ele>
        <time>2022-04-03T06:57:06.090Z</time>
      </trkpt>
      <trkpt lat="50.4875" lon="3.4741">
        <ele>17</ele>
        <time>2022-04-03T06:57:07.889Z</time>
      </trkpt>
      <trkpt lat="50.48752" lon="3.47396">
        <ele>17</ele>
        <time>2022-04-03T06:57:10.176Z</time>
      </trkpt>
      <trkpt lat="50.48753" lon="3.47387">
        <ele>17</ele>
        <time>2022-04-03T06:57:11.670Z</time>
      </trkpt>
      <trkpt lat="50.48754" lon="3.47378">
        <ele>17</ele>
        <time>2022-04-03T06:57:13.000Z</time>
      </trkpt>
      <trkpt lat="50.48756" lon="3.47365">
        <ele>17</ele>
        <time>2022-04-03T06:57:15.000Z</time>
      </trkpt>
      <trkpt lat="50.48758" lon="3.47352">
        <ele>17</ele>
        <time>2022-04-03T06:57:17.000Z</time>
      </trkpt>
      <trkpt lat="50.48759" lon="3.47338">
        <ele>17</ele>
        <time>2022-04-03T06:57:19.309Z</time>
      </trkpt>
      <trkpt lat="50.4876" lon="3.47328">
        <ele>17</ele>
        <time>2022-04-03T06:57:21.000Z</time>
      </trkpt>
      <trkpt lat="50.48761" lon="3.47315">
        <ele>17</ele>
        <time>2022-04-03T06:57:23.042Z</time>
      </trkpt>
      <trkpt lat="50.48763" lon="3.47302">
        <ele>17</ele>
        <time>2022-04-03T06:57:25.000Z</time>
      </trkpt>
      <trkpt lat="50.48765" lon="3.4729">
        <ele>17</ele>
        <time>2022-04-03T06:57:26.912Z</time>
      </trkpt>
      <trkpt lat="50.48765" lon="3.47281">
        <ele>17</ele>
        <time>2022-04-03T06:57:28.152Z</time>
      </trkpt>
      <trkpt lat="50.48766" lon="3.47269">
        <ele>17</ele>
        <time>2022-04-03T06:57:30.000Z</time>
      </trkpt>
      <trkpt lat="50.48767" lon="3.47256">
        <ele>17</ele>
        <time>2022-04-03T06:57:32.000Z</time>
      </trkpt>
      <trkpt lat="50.48769" lon="3.47242">
        <ele>17</ele>
        <time>2022-04-03T06:57:34.000Z</time>
      </trkpt>
      <trkpt lat="50.4877" lon="3.47235">
        <ele>17</ele>
        <time>2022-04-03T06:57:35.031Z</time>
      </trkpt>
      <trkpt lat="50.4877" lon="3.47227">
        <ele>17</ele>
        <time>2022-04-03T06:57:36.000Z</time>
      </trkpt>
      <trkpt lat="50.48772" lon="3.47214">
        <ele>17</ele>
        <time>2022-04-03T06:57:38.000Z</time>
      </trkpt>
      <trkpt lat="50.48773" lon="3.47205">
        <ele>17</ele>
        <time>2022-04-03T06:57:39.386Z</time>
      </trkpt>
      <trkpt lat="50.48773" lon="3.47196">
        <ele>17</ele>
        <time>2022-04-03T06:57:40.567Z</time>
      </trkpt>
      <trkpt lat="50.48775" lon="3.47179">
        <ele>17</ele>
        <time>2022-04-03T06:57:43.048Z</time>
      </trkpt>
      <trkpt lat="50.48775" lon="3.47166">
        <ele>17</ele>
        <time>2022-04-03T06:57:45.000Z</time>
      </trkpt>
      <trkpt lat="50.48776" lon="3.47158">
        <ele>17</ele>
        <time>2022-04-03T06:57:46.147Z</time>
      </trkpt>
      <trkpt lat="50.48777" lon="3.47149">
        <ele>17</ele>
        <time>2022-04-03T06:57:47.488Z</time>
      </trkpt>
      <trkpt lat="50.48778" lon="3.47139">
        <ele>17</ele>
        <time>2022-04-03T06:57:49.000Z</time>
      </trkpt>
      <trkpt lat="50.48778" lon="3.47132">
        <ele>17</ele>
        <time>2022-04-03T06:57:50.010Z</time>
      </trkpt>
      <trkpt lat="50.48778" lon="3.47125">
        <ele>17</ele>
        <time>2022-04-03T06:57:51.000Z</time>
      </trkpt>
      <trkpt lat="50.48779" lon="3.47117">
        <ele>17</ele>
        <time>2022-04-03T06:57:52.012Z</time>
      </trkpt>
      <trkpt lat="50.48778" lon="3.4711">
        <ele>17</ele>
        <time>2022-04-03T06:57:53.000Z</time>
      </trkpt>
      <trkpt lat="50.48779" lon="3.47096">
        <ele>17</ele>
        <time>2022-04-03T06:57:55.000Z</time>
      </trkpt>
      <trkpt lat="50.4878" lon="3.47078">
        <ele>17</ele>
        <time>2022-04-03T06:57:57.649Z</time>
      </trkpt>
      <trkpt lat="50.4878" lon="3.47065">
        <ele>17</ele>
        <time>2022-04-03T06:57:59.626Z</time>
      </trkpt>
      <trkpt lat="50.48781" lon="3.47056">
        <ele>17</ele>
        <time>2022-04-03T06:58:00.927Z</time>
      </trkpt>
      <trkpt lat="50.48782" lon="3.47049">
        <ele>17</ele>
        <time>2022-04-03T06:58:02.025Z</time>
      </trkpt>
      <trkpt lat="50.48782" lon="3.47042">
        <ele>17</ele>
        <time>2022-04-03T06:58:03.000Z</time>
      </trkpt>
      <trkpt lat="50.48784" lon="3.47028">
        <ele>17</ele>
        <time>2022-04-03T06:58:05.000Z</time>
      </trkpt>
      <trkpt lat="50.48785" lon="3.47015">
        <ele>17</ele>
        <time>2022-04-03T06:58:07.000Z</time>
      </trkpt>
      <trkpt lat="50.48785" lon="3.47008">
        <ele>17</ele>
        <time>2022-04-03T06:58:08.000Z</time>
      </trkpt>
      <trkpt lat="50.48785" lon="3.46996">
        <ele>17</ele>
        <time>2022-04-03T06:58:09.856Z</time>
      </trkpt>
      <trkpt lat="50.48786" lon="3.46986">
        <ele>17</ele>
        <time>2022-04-03T06:58:11.000Z</time>
      </trkpt>
      <trkpt lat="50.48787" lon="3.46978">
        <ele>17</ele>
        <time>2022-04-03T06:58:12.000Z</time>
      </trkpt>
      <trkpt lat="50.48788" lon="3.4697">
        <ele>17</ele>
        <time>2022-04-03T06:58:13.000Z</time>
      </trkpt>
      <trkpt lat="50.4879" lon="3.46963">
        <ele>17</ele>
        <time>2022-04-03T06:58:14.000Z</time>
      </trkpt>
      <trkpt lat="50.48791" lon="3.46956">
        <ele>17</ele>
        <time>2022-04-03T06:58:15.000Z</time>
      </trkpt>
      <trkpt lat="50.48792" lon="3.46943">
        <ele>17</ele>
        <time>2022-04-03T06:58:17.025Z</time>
      </trkpt>
      <trkpt lat="50.48793" lon="3.46935">
        <ele>17</ele>
        <time>2022-04-03T06:58:18.000Z</time>
      </trkpt>
      <trkpt lat="50.48794" lon="3.46927">
        <ele>17</ele>
        <time>2022-04-03T06:58:19.000Z</time>
      </trkpt>
      <trkpt lat="50.48795" lon="3.4692">
        <ele>17</ele>
        <time>2022-04-03T06:58:20.000Z</time>
      </trkpt>
      <trkpt lat="50.48796" lon="3.46913">
        <ele>17</ele>
        <time>2022-04-03T06:58:21.000Z</time>
      </trkpt>
      <trkpt lat="50.48797" lon="3.46898">
        <ele>17</ele>
        <time>2022-04-03T06:58:23.000Z</time>
      </trkpt>
      <trkpt lat="50.48798" lon="3.46891">
        <ele>17</ele>
        <time>2022-04-03T06:58:24.000Z</time>
      </trkpt>
      <trkpt lat="50.48798" lon="3.46884">
        <ele>17</ele>
        <time>2022-04-03T06:58:25.000Z</time>
      </trkpt>
      <trkpt lat="50.48799" lon="3.46876">
        <ele>17</ele>
        <time>2022-04-03T06:58:26.000Z</time>
      </trkpt>
      <trkpt lat="50.488" lon="3.46868">
        <ele>17</ele>
        <time>2022-04-03T06:58:27.000Z</time>
      </trkpt>
      <trkpt lat="50.48801" lon="3.46861">
        <ele>17</ele>
        <time>2022-04-03T06:58:28.000Z</time>
      </trkpt>
      <trkpt lat="50.48801" lon="3.46854">
        <ele>17</ele>
        <time>2022-04-03T06:58:29.000Z</time>
      </trkpt>
      <trkpt lat="50.48802" lon="3.46846">
        <ele>17</ele>
        <time>2022-04-03T06:58:30.000Z</time>
      </trkpt>
      <trkpt lat="50.48803" lon="3.46839">
        <ele>17</ele>
        <time>2022-04-03T06:58:31.000Z</time>
      </trkpt>
      <trkpt lat="50.48804" lon="3.46832">
        <ele>17</ele>
        <time>2022-04-03T06:58:32.000Z</time>
      </trkpt>
      <trkpt lat="50.48805" lon="3.46825">
        <ele>17</ele>
        <time>2022-04-03T06:58:33.000Z</time>
      </trkpt>
      <trkpt lat="50.48807" lon="3.46817">
        <ele>17</ele>
        <time>2022-04-03T06:58:34.000Z</time>
      </trkpt>
      <trkpt lat="50.48809" lon="3.4681">
        <ele>17</ele>
        <time>2022-04-03T06:58:35.000Z</time>
      </trkpt>
      <trkpt lat="50.48812" lon="3.46803">
        <ele>17</ele>
        <time>2022-04-03T06:58:36.000Z</time>
      </trkpt>
      <trkpt lat="50.48815" lon="3.46797">
        <ele>17</ele>
        <time>2022-04-03T06:58:37.000Z</time>
      </trkpt>
      <trkpt lat="50.48818" lon="3.46791">
        <ele>17</ele>
        <time>2022-04-03T06:58:38.000Z</time>
      </trkpt>
      <trkpt lat="50.48821" lon="3.46785">
        <ele>17</ele>
        <time>2022-04-03T06:58:39.000Z</time>
      </trkpt>
      <trkpt lat="50.48824" lon="3.46779">
        <ele>17</ele>
        <time>2022-04-03T06:58:40.000Z</time>
      </trkpt>
      <trkpt lat="50.48827" lon="3.46773">
        <ele>17</ele>
        <time>2022-04-03T06:58:41.000Z</time>
      </trkpt>
      <trkpt lat="50.48829" lon="3.46767">
        <ele>17</ele>
        <time>2022-04-03T06:58:42.000Z</time>
      </trkpt>
      <trkpt lat="50.48832" lon="3.46761">
        <ele>17</ele>
        <time>2022-04-03T06:58:43.000Z</time>
      </trkpt>
      <trkpt lat="50.48835" lon="3.46756">
        <ele>17</ele>
        <time>2022-04-03T06:58:44.000Z</time>
      </trkpt>
      <trkpt lat="50.48838" lon="3.4675">
        <ele>17</ele>
        <time>2022-04-03T06:58:45.000Z</time>
      </trkpt>
      <trkpt lat="50.4884" lon="3.46744">
        <ele>17</ele>
        <time>2022-04-03T06:58:46.000Z</time>
      </trkpt>
      <trkpt lat="50.48845" lon="3.46733">
        <ele>17</ele>
        <time>2022-04-03T06:58:48.000Z</time>
      </trkpt>
      <trkpt lat="50.48848" lon="3.46726">
        <ele>17</ele>
        <time>2022-04-03T06:58:49.000Z</time>
      </trkpt>
      <trkpt lat="50.48851" lon="3.4672">
        <ele>17</ele>
        <time>2022-04-03T06:58:50.000Z</time>
      </trkpt>
      <trkpt lat="50.48855" lon="3.46711">
        <ele>17</ele>
        <time>2022-04-03T06:58:52.000Z</time>
      </trkpt>
      <trkpt lat="50.48861" lon="3.46699">
        <ele>17</ele>
        <time>2022-04-03T06:58:54.000Z</time>
      </trkpt>
      <trkpt lat="50.48864" lon="3.46693">
        <ele>16.9</ele>
        <time>2022-04-03T06:58:55.000Z</time>
      </trkpt>
      <trkpt lat="50.48869" lon="3.46682">
        <ele>16.8</ele>
        <time>2022-04-03T06:58:57.000Z</time>
      </trkpt>
      <trkpt lat="50.48872" lon="3.46676">
        <ele>16.9</ele>
        <time>2022-04-03T06:58:58.000Z</time>
      </trkpt>
      <trkpt lat="50.48875" lon="3.4667">
        <ele>16.9</ele>
        <time>2022-04-03T06:58:59.000Z</time>
      </trkpt>
      <trkpt lat="50.48878" lon="3.46665">
        <ele>17</ele>
        <time>2022-04-03T06:59:00.000Z</time>
      </trkpt>
      <trkpt lat="50.4888" lon="3.46654">
        <ele>17</ele>
        <time>2022-04-03T06:59:02.000Z</time>
      </trkpt>
      <trkpt lat="50.48884" lon="3.46647">
        <ele>17</ele>
        <time>2022-04-03T06:59:03.000Z</time>
      </trkpt>
      <trkpt lat="50.48887" lon="3.46641">
        <ele>17</ele>
        <time>2022-04-03T06:59:04.000Z</time>
      </trkpt>
      <trkpt lat="50.48891" lon="3.46636">
        <ele>16.9</ele>
        <time>2022-04-03T06:59:05.000Z</time>
      </trkpt>
      <trkpt lat="50.48894" lon="3.46631">
        <ele>16.9</ele>
        <time>2022-04-03T06:59:06.000Z</time>
      </trkpt>
      <trkpt lat="50.48901" lon="3.46622">
        <ele>16.8</ele>
        <time>2022-04-03T06:59:08.000Z</time>
      </trkpt>
      <trkpt lat="50.48904" lon="3.46617">
        <ele>16.9</ele>
        <time>2022-04-03T06:59:09.000Z</time>
      </trkpt>
      <trkpt lat="50.48908" lon="3.46612">
        <ele>17</ele>
        <time>2022-04-03T06:59:10.000Z</time>
      </trkpt>
      <trkpt lat="50.48912" lon="3.46604">
        <ele>17</ele>
        <time>2022-04-03T06:59:11.570Z</time>
      </trkpt>
      <trkpt lat="50.48919" lon="3.46602">
        <ele>16.9</ele>
        <time>2022-04-03T06:59:13.000Z</time>
      </trkpt>
      <trkpt lat="50.48924" lon="3.46599">
        <ele>16.7</ele>
        <time>2022-04-03T06:59:14.000Z</time>
      </trkpt>
      <trkpt lat="50.48928" lon="3.46595">
        <ele>16.6</ele>
        <time>2022-04-03T06:59:15.000Z</time>
      </trkpt>
      <trkpt lat="50.48932" lon="3.46591">
        <ele>16.4</ele>
        <time>2022-04-03T06:59:16.000Z</time>
      </trkpt>
      <trkpt lat="50.48937" lon="3.46587">
        <ele>16.3</ele>
        <time>2022-04-03T06:59:17.000Z</time>
      </trkpt>
      <trkpt lat="50.48941" lon="3.46584">
        <ele>16.1</ele>
        <time>2022-04-03T06:59:18.000Z</time>
      </trkpt>
      <trkpt lat="50.48945" lon="3.4658">
        <ele>16</ele>
        <time>2022-04-03T06:59:19.000Z</time>
      </trkpt>
      <trkpt lat="50.48949" lon="3.46576">
        <ele>15.9</ele>
        <time>2022-04-03T06:59:20.000Z</time>
      </trkpt>
      <trkpt lat="50.48953" lon="3.46572">
        <ele>15.8</ele>
        <time>2022-04-03T06:59:21.000Z</time>
      </trkpt>
      <trkpt lat="50.48957" lon="3.46568">
        <ele>15.8</ele>
        <time>2022-04-03T06:59:22.000Z</time>
      </trkpt>
      <trkpt lat="50.48964" lon="3.46561">
        <ele>15.9</ele>
        <time>2022-04-03T06:59:24.000Z</time>
      </trkpt>
      <trkpt lat="50.48971" lon="3.46554">
        <ele>16</ele>
        <time>2022-04-03T06:59:26.000Z</time>
      </trkpt>
      <trkpt lat="50.48978" lon="3.46547">
        <ele>15.9</ele>
        <time>2022-04-03T06:59:28.000Z</time>
      </trkpt>
      <trkpt lat="50.48985" lon="3.46542">
        <ele>15.8</ele>
        <time>2022-04-03T06:59:30.000Z</time>
      </trkpt>
      <trkpt lat="50.48992" lon="3.46536">
        <ele>15.8</ele>
        <time>2022-04-03T06:59:32.000Z</time>
      </trkpt>
      <trkpt lat="50.49" lon="3.46528">
        <ele>16</ele>
        <time>2022-04-03T06:59:34.000Z</time>
      </trkpt>
      <trkpt lat="50.49004" lon="3.46523">
        <ele>15.9</ele>
        <time>2022-04-03T06:59:35.000Z</time>
      </trkpt>
      <trkpt lat="50.49011" lon="3.46515">
        <ele>15.8</ele>
        <time>2022-04-03T06:59:37.000Z</time>
      </trkpt>
      <trkpt lat="50.49018" lon="3.46507">
        <ele>15.8</ele>
        <time>2022-04-03T06:59:38.877Z</time>
      </trkpt>
      <trkpt lat="50.49022" lon="3.46502">
        <ele>15.9</ele>
        <time>2022-04-03T06:59:40.000Z</time>
      </trkpt>
      <trkpt lat="50.4903" lon="3.46495">
        <ele>15.9</ele>
        <time>2022-04-03T06:59:42.000Z</time>
      </trkpt>
      <trkpt lat="50.49034" lon="3.46491">
        <ele>15.8</ele>
        <time>2022-04-03T06:59:43.000Z</time>
      </trkpt>
      <trkpt lat="50.49038" lon="3.46488">
        <ele>15.8</ele>
        <time>2022-04-03T06:59:44.000Z</time>
      </trkpt>
      <trkpt lat="50.49046" lon="3.4648">
        <ele>15.8</ele>
        <time>2022-04-03T06:59:46.000Z</time>
      </trkpt>
      <trkpt lat="50.49053" lon="3.46472">
        <ele>16</ele>
        <time>2022-04-03T06:59:48.000Z</time>
      </trkpt>
      <trkpt lat="50.49061" lon="3.46465">
        <ele>16</ele>
        <time>2022-04-03T06:59:50.000Z</time>
      </trkpt>
      <trkpt lat="50.49065" lon="3.46461">
        <ele>16</ele>
        <time>2022-04-03T06:59:51.000Z</time>
      </trkpt>
      <trkpt lat="50.49069" lon="3.46457">
        <ele>16</ele>
        <time>2022-04-03T06:59:52.000Z</time>
      </trkpt>
      <trkpt lat="50.49073" lon="3.46453">
        <ele>16</ele>
        <time>2022-04-03T06:59:53.000Z</time>
      </trkpt>
      <trkpt lat="50.49077" lon="3.46449">
        <ele>16</ele>
        <time>2022-04-03T06:59:54.000Z</time>
      </trkpt>
      <trkpt lat="50.49084" lon="3.46442">
        <ele>16</ele>
        <time>2022-04-03T06:59:56.000Z</time>
      </trkpt>
      <trkpt lat="50.49092" lon="3.46434">
        <ele>16</ele>
        <time>2022-04-03T06:59:58.000Z</time>
      </trkpt>
      <trkpt lat="50.49099" lon="3.46427">
        <ele>16</ele>
        <time>2022-04-03T07:00:00.000Z</time>
      </trkpt>
      <trkpt lat="50.49103" lon="3.46422">
        <ele>16</ele>
        <time>2022-04-03T07:00:01.000Z</time>
      </trkpt>
      <trkpt lat="50.49107" lon="3.46418">
        <ele>16</ele>
        <time>2022-04-03T07:00:02.000Z</time>
      </trkpt>
      <trkpt lat="50.49111" lon="3.46414">
        <ele>16</ele>
        <time>2022-04-03T07:00:03.000Z</time>
      </trkpt>
      <trkpt lat="50.49115" lon="3.4641">
        <ele>16</ele>
        <time>2022-04-03T07:00:04.000Z</time>
      </trkpt>
      <trkpt lat="50.49119" lon="3.46406">
        <ele>16</ele>
        <time>2022-04-03T07:00:05.000Z</time>
      </trkpt>
      <trkpt lat="50.49123" lon="3.46401">
        <ele>16</ele>
        <time>2022-04-03T07:00:06.000Z</time>
      </trkpt>
      <trkpt lat="50.49129" lon="3.46392">
        <ele>16</ele>
        <time>2022-04-03T07:00:08.000Z</time>
      </trkpt>
      <trkpt lat="50.49137" lon="3.46383">
        <ele>16</ele>
        <time>2022-04-03T07:00:10.000Z</time>
      </trkpt>
      <trkpt lat="50.49143" lon="3.46374">
        <ele>16</ele>
        <time>2022-04-03T07:00:12.000Z</time>
      </trkpt>
      <trkpt lat="50.4915" lon="3.46365">
        <ele>16</ele>
        <time>2022-04-03T07:00:14.000Z</time>
      </trkpt>
      <trkpt lat="50.49153" lon="3.4636">
        <ele>16</ele>
        <time>2022-04-03T07:00:15.000Z</time>
      </trkpt>
      <trkpt lat="50.4916" lon="3.46351">
        <ele>16.3</ele>
        <time>2022-04-03T07:00:17.000Z</time>
      </trkpt>
      <trkpt lat="50.49164" lon="3.46347">
        <ele>16.5</ele>
        <time>2022-04-03T07:00:18.000Z</time>
      </trkpt>
      <trkpt lat="50.49172" lon="3.46339">
        <ele>16.6</ele>
        <time>2022-04-03T07:00:20.000Z</time>
      </trkpt>
      <trkpt lat="50.49178" lon="3.46331">
        <ele>16.6</ele>
        <time>2022-04-03T07:00:22.000Z</time>
      </trkpt>
      <trkpt lat="50.49185" lon="3.46322">
        <ele>16.5</ele>
        <time>2022-04-03T07:00:23.993Z</time>
      </trkpt>
      <trkpt lat="50.49188" lon="3.46317">
        <ele>16.5</ele>
        <time>2022-04-03T07:00:25.000Z</time>
      </trkpt>
      <trkpt lat="50.49192" lon="3.46313">
        <ele>16.7</ele>
        <time>2022-04-03T07:00:26.000Z</time>
      </trkpt>
      <trkpt lat="50.49196" lon="3.46308">
        <ele>16.9</ele>
        <time>2022-04-03T07:00:27.097Z</time>
      </trkpt>
      <trkpt lat="50.49202" lon="3.46299">
        <ele>16.7</ele>
        <time>2022-04-03T07:00:28.773Z</time>
      </trkpt>
      <trkpt lat="50.49205" lon="3.46294">
        <ele>16.6</ele>
        <time>2022-04-03T07:00:30.000Z</time>
      </trkpt>
      <trkpt lat="50.49211" lon="3.46285">
        <ele>16.4</ele>
        <time>2022-04-03T07:00:32.000Z</time>
      </trkpt>
      <trkpt lat="50.49217" lon="3.46275">
        <ele>16.3</ele>
        <time>2022-04-03T07:00:34.104Z</time>
      </trkpt>
      <trkpt lat="50.49223" lon="3.46265">
        <ele>16.4</ele>
        <time>2022-04-03T07:00:35.977Z</time>
      </trkpt>
      <trkpt lat="50.49228" lon="3.46256">
        <ele>16.6</ele>
        <time>2022-04-03T07:00:38.000Z</time>
      </trkpt>
      <trkpt lat="50.49233" lon="3.46245">
        <ele>16.6</ele>
        <time>2022-04-03T07:00:40.095Z</time>
      </trkpt>
      <trkpt lat="50.49236" lon="3.46239">
        <ele>16.5</ele>
        <time>2022-04-03T07:00:41.316Z</time>
      </trkpt>
      <trkpt lat="50.4924" lon="3.46232">
        <ele>16.4</ele>
        <time>2022-04-03T07:00:42.775Z</time>
      </trkpt>
      <trkpt lat="50.49243" lon="3.46225">
        <ele>16.3</ele>
        <time>2022-04-03T07:00:44.000Z</time>
      </trkpt>
      <trkpt lat="50.49248" lon="3.46213">
        <ele>16.4</ele>
        <time>2022-04-03T07:00:46.000Z</time>
      </trkpt>
      <trkpt lat="50.49254" lon="3.46202">
        <ele>16.7</ele>
        <time>2022-04-03T07:00:48.000Z</time>
      </trkpt>
      <trkpt lat="50.49257" lon="3.46195">
        <ele>17</ele>
        <time>2022-04-03T07:00:49.000Z</time>
      </trkpt>
      <trkpt lat="50.49262" lon="3.46185">
        <ele>17</ele>
        <time>2022-04-03T07:00:51.156Z</time>
      </trkpt>
      <trkpt lat="50.49268" lon="3.46173">
        <ele>17</ele>
        <time>2022-04-03T07:00:53.290Z</time>
      </trkpt>
      <trkpt lat="50.4927" lon="3.46166">
        <ele>17</ele>
        <time>2022-04-03T07:00:54.369Z</time>
      </trkpt>
      <trkpt lat="50.49274" lon="3.46155">
        <ele>17</ele>
        <time>2022-04-03T07:00:56.000Z</time>
      </trkpt>
      <trkpt lat="50.49277" lon="3.46148">
        <ele>17</ele>
        <time>2022-04-03T07:00:57.000Z</time>
      </trkpt>
      <trkpt lat="50.49282" lon="3.46138">
        <ele>17</ele>
        <time>2022-04-03T07:00:59.000Z</time>
      </trkpt>
      <trkpt lat="50.49284" lon="3.46132">
        <ele>17</ele>
        <time>2022-04-03T07:01:00.000Z</time>
      </trkpt>
      <trkpt lat="50.49287" lon="3.46126">
        <ele>17</ele>
        <time>2022-04-03T07:01:01.000Z</time>
      </trkpt>
      <trkpt lat="50.4929" lon="3.4612">
        <ele>17</ele>
        <time>2022-04-03T07:01:02.000Z</time>
      </trkpt>
      <trkpt lat="50.49293" lon="3.46115">
        <ele>17</ele>
        <time>2022-04-03T07:01:03.000Z</time>
      </trkpt>
      <trkpt lat="50.49296" lon="3.46109">
        <ele>17</ele>
        <time>2022-04-03T07:01:04.000Z</time>
      </trkpt>
      <trkpt lat="50.49299" lon="3.46102">
        <ele>17</ele>
        <time>2022-04-03T07:01:06.223Z</time>
      </trkpt>
      <trkpt lat="50.49303" lon="3.46096">
        <ele>17</ele>
        <time>2022-04-03T07:01:07.220Z</time>
      </trkpt>
      <trkpt lat="50.49306" lon="3.46089">
        <ele>17</ele>
        <time>2022-04-03T07:01:08.207Z</time>
      </trkpt>
      <trkpt lat="50.4931" lon="3.46082">
        <ele>17</ele>
        <time>2022-04-03T07:01:09.183Z</time>
      </trkpt>
      <trkpt lat="50.49316" lon="3.46072">
        <ele>17</ele>
        <time>2022-04-03T07:01:11.000Z</time>
      </trkpt>
      <trkpt lat="50.49323" lon="3.46063">
        <ele>17</ele>
        <time>2022-04-03T07:01:12.968Z</time>
      </trkpt>
      <trkpt lat="50.49325" lon="3.46055">
        <ele>17</ele>
        <time>2022-04-03T07:01:14.000Z</time>
      </trkpt>
      <trkpt lat="50.4933" lon="3.46043">
        <ele>17</ele>
        <time>2022-04-03T07:01:16.332Z</time>
      </trkpt>
      <trkpt lat="50.49335" lon="3.46034">
        <ele>17</ele>
        <time>2022-04-03T07:01:18.000Z</time>
      </trkpt>
      <trkpt lat="50.49338" lon="3.46029">
        <ele>17</ele>
        <time>2022-04-03T07:01:19.000Z</time>
      </trkpt>
      <trkpt lat="50.49342" lon="3.46025">
        <ele>17</ele>
        <time>2022-04-03T07:01:20.000Z</time>
      </trkpt>
      <trkpt lat="50.49345" lon="3.46019">
        <ele>17</ele>
        <time>2022-04-03T07:01:21.053Z</time>
      </trkpt>
      <trkpt lat="50.49349" lon="3.46014">
        <ele>17</ele>
        <time>2022-04-03T07:01:22.000Z</time>
      </trkpt>
      <trkpt lat="50.49352" lon="3.46009">
        <ele>17</ele>
        <time>2022-04-03T07:01:23.000Z</time>
      </trkpt>
      <trkpt lat="50.49356" lon="3.46003">
        <ele>17</ele>
        <time>2022-04-03T07:01:24.000Z</time>
      </trkpt>
      <trkpt lat="50.49361" lon="3.45992">
        <ele>17</ele>
        <time>2022-04-03T07:01:26.000Z</time>
      </trkpt>
      <trkpt lat="50.49364" lon="3.45987">
        <ele>17</ele>
        <time>2022-04-03T07:01:27.000Z</time>
      </trkpt>
      <trkpt lat="50.4937" lon="3.45977">
        <ele>17</ele>
        <time>2022-04-03T07:01:29.015Z</time>
      </trkpt>
      <trkpt lat="50.49373" lon="3.45971">
        <ele>17</ele>
        <time>2022-04-03T07:01:30.162Z</time>
      </trkpt>
      <trkpt lat="50.49376" lon="3.45965">
        <ele>17</ele>
        <time>2022-04-03T07:01:31.276Z</time>
      </trkpt>
      <trkpt lat="50.4938" lon="3.45951">
        <ele>17</ele>
        <time>2022-04-03T07:01:33.482Z</time>
      </trkpt>
      <trkpt lat="50.49383" lon="3.45941">
        <ele>17</ele>
        <time>2022-04-03T07:01:34.999Z</time>
      </trkpt>
      <trkpt lat="50.49386" lon="3.45929">
        <ele>17</ele>
        <time>2022-04-03T07:01:37.000Z</time>
      </trkpt>
      <trkpt lat="50.4939" lon="3.45915">
        <ele>17</ele>
        <time>2022-04-03T07:01:39.173Z</time>
      </trkpt>
      <trkpt lat="50.49392" lon="3.45903">
        <ele>17</ele>
        <time>2022-04-03T07:01:41.035Z</time>
      </trkpt>
      <trkpt lat="50.49395" lon="3.4589">
        <ele>17</ele>
        <time>2022-04-03T07:01:43.000Z</time>
      </trkpt>
      <trkpt lat="50.49396" lon="3.45883">
        <ele>17</ele>
        <time>2022-04-03T07:01:44.080Z</time>
      </trkpt>
      <trkpt lat="50.49399" lon="3.45871">
        <ele>17</ele>
        <time>2022-04-03T07:01:46.036Z</time>
      </trkpt>
      <trkpt lat="50.49401" lon="3.45862">
        <ele>17</ele>
        <time>2022-04-03T07:01:47.319Z</time>
      </trkpt>
      <trkpt lat="50.49403" lon="3.45854">
        <ele>17</ele>
        <time>2022-04-03T07:01:48.719Z</time>
      </trkpt>
      <trkpt lat="50.49404" lon="3.45848">
        <ele>17</ele>
        <time>2022-04-03T07:01:49.898Z</time>
      </trkpt>
      <trkpt lat="50.49406" lon="3.45841">
        <ele>17</ele>
        <time>2022-04-03T07:01:51.000Z</time>
      </trkpt>
      <trkpt lat="50.49409" lon="3.45828">
        <ele>17</ele>
        <time>2022-04-03T07:01:53.000Z</time>
      </trkpt>
      <trkpt lat="50.49411" lon="3.45817">
        <ele>17</ele>
        <time>2022-04-03T07:01:54.677Z</time>
      </trkpt>
      <trkpt lat="50.49413" lon="3.4581">
        <ele>17</ele>
        <time>2022-04-03T07:01:56.000Z</time>
      </trkpt>
      <trkpt lat="50.49414" lon="3.45799">
        <ele>17</ele>
        <time>2022-04-03T07:01:57.576Z</time>
      </trkpt>
      <trkpt lat="50.49416" lon="3.45791">
        <ele>17</ele>
        <time>2022-04-03T07:01:58.674Z</time>
      </trkpt>
      <trkpt lat="50.49417" lon="3.45782">
        <ele>17</ele>
        <time>2022-04-03T07:02:00.000Z</time>
      </trkpt>
      <trkpt lat="50.49419" lon="3.45768">
        <ele>17</ele>
        <time>2022-04-03T07:02:02.000Z</time>
      </trkpt>
      <trkpt lat="50.49419" lon="3.45761">
        <ele>17</ele>
        <time>2022-04-03T07:02:03.000Z</time>
      </trkpt>
      <trkpt lat="50.4942" lon="3.45753">
        <ele>17</ele>
        <time>2022-04-03T07:02:04.036Z</time>
      </trkpt>
      <trkpt lat="50.49422" lon="3.45747">
        <ele>17</ele>
        <time>2022-04-03T07:02:05.000Z</time>
      </trkpt>
      <trkpt lat="50.49425" lon="3.45737">
        <ele>17</ele>
        <time>2022-04-03T07:02:06.559Z</time>
      </trkpt>
      <trkpt lat="50.49428" lon="3.45728">
        <ele>17</ele>
        <time>2022-04-03T07:02:07.918Z</time>
      </trkpt>
      <trkpt lat="50.49431" lon="3.45719">
        <ele>17</ele>
        <time>2022-04-03T07:02:09.000Z</time>
      </trkpt>
      <trkpt lat="50.49433" lon="3.45712">
        <ele>17</ele>
        <time>2022-04-03T07:02:10.000Z</time>
      </trkpt>
      <trkpt lat="50.49434" lon="3.45704">
        <ele>17</ele>
        <time>2022-04-03T07:02:11.000Z</time>
      </trkpt>
      <trkpt lat="50.49436" lon="3.45696">
        <ele>17</ele>
        <time>2022-04-03T07:02:12.000Z</time>
      </trkpt>
      <trkpt lat="50.49438" lon="3.45689">
        <ele>17</ele>
        <time>2022-04-03T07:02:13.000Z</time>
      </trkpt>
      <trkpt lat="50.4944" lon="3.45681">
        <ele>17</ele>
        <time>2022-04-03T07:02:14.000Z</time>
      </trkpt>
      <trkpt lat="50.49443" lon="3.45673">
        <ele>17</ele>
        <time>2022-04-03T07:02:15.000Z</time>
      </trkpt>
      <trkpt lat="50.49445" lon="3.45666">
        <ele>17</ele>
        <time>2022-04-03T07:02:16.000Z</time>
      </trkpt>
      <trkpt lat="50.49447" lon="3.45658">
        <ele>17</ele>
        <time>2022-04-03T07:02:17.000Z</time>
      </trkpt>
      <trkpt lat="50.49449" lon="3.4565">
        <ele>17</ele>
        <time>2022-04-03T07:02:18.000Z</time>
      </trkpt>
      <trkpt lat="50.4945" lon="3.45643">
        <ele>17</ele>
        <time>2022-04-03T07:02:19.000Z</time>
      </trkpt>
      <trkpt lat="50.49452" lon="3.45635">
        <ele>17</ele>
        <time>2022-04-03T07:02:20.000Z</time>
      </trkpt>
      <trkpt lat="50.49454" lon="3.45626">
        <ele>17</ele>
        <time>2022-04-03T07:02:21.000Z</time>
      </trkpt>
      <trkpt lat="50.49456" lon="3.45618">
        <ele>17</ele>
        <time>2022-04-03T07:02:22.000Z</time>
      </trkpt>
      <trkpt lat="50.49458" lon="3.45611">
        <ele>17</ele>
        <time>2022-04-03T07:02:23.000Z</time>
      </trkpt>
      <trkpt lat="50.4946" lon="3.45603">
        <ele>17</ele>
        <time>2022-04-03T07:02:24.000Z</time>
      </trkpt>
      <trkpt lat="50.49462" lon="3.45594">
        <ele>17</ele>
        <time>2022-04-03T07:02:25.000Z</time>
      </trkpt>
      <trkpt lat="50.49464" lon="3.45586">
        <ele>17</ele>
        <time>2022-04-03T07:02:26.000Z</time>
      </trkpt>
      <trkpt lat="50.49466" lon="3.45577">
        <ele>17</ele>
        <time>2022-04-03T07:02:27.000Z</time>
      </trkpt>
      <trkpt lat="50.49467" lon="3.45569">
        <ele>17</ele>
        <time>2022-04-03T07:02:28.000Z</time>
      </trkpt>
      <trkpt lat="50.49469" lon="3.4556">
        <ele>17</ele>
        <time>2022-04-03T07:02:29.000Z</time>
      </trkpt>
      <trkpt lat="50.49471" lon="3.45552">
        <ele>17</ele>
        <time>2022-04-03T07:02:30.000Z</time>
      </trkpt>
      <trkpt lat="50.49473" lon="3.45544">
        <ele>17</ele>
        <time>2022-04-03T07:02:31.000Z</time>
      </trkpt>
      <trkpt lat="50.49475" lon="3.45535">
        <ele>16.9</ele>
        <time>2022-04-03T07:02:32.000Z</time>
      </trkpt>
      <trkpt lat="50.49477" lon="3.45528">
        <ele>16.8</ele>
        <time>2022-04-03T07:02:33.000Z</time>
      </trkpt>
      <trkpt lat="50.49479" lon="3.4552">
        <ele>16.8</ele>
        <time>2022-04-03T07:02:34.000Z</time>
      </trkpt>
      <trkpt lat="50.49481" lon="3.45512">
        <ele>16.7</ele>
        <time>2022-04-03T07:02:35.000Z</time>
      </trkpt>
      <trkpt lat="50.49483" lon="3.45504">
        <ele>16.6</ele>
        <time>2022-04-03T07:02:36.000Z</time>
      </trkpt>
      <trkpt lat="50.49484" lon="3.45496">
        <ele>16.6</ele>
        <time>2022-04-03T07:02:37.000Z</time>
      </trkpt>
      <trkpt lat="50.49486" lon="3.45488">
        <ele>16.7</ele>
        <time>2022-04-03T07:02:38.000Z</time>
      </trkpt>
      <trkpt lat="50.49488" lon="3.4548">
        <ele>16.8</ele>
        <time>2022-04-03T07:02:39.000Z</time>
      </trkpt>
      <trkpt lat="50.4949" lon="3.45471">
        <ele>17</ele>
        <time>2022-04-03T07:02:40.000Z</time>
      </trkpt>
      <trkpt lat="50.49492" lon="3.45462">
        <ele>17</ele>
        <time>2022-04-03T07:02:41.000Z</time>
      </trkpt>
      <trkpt lat="50.49494" lon="3.45454">
        <ele>17</ele>
        <time>2022-04-03T07:02:42.000Z</time>
      </trkpt>
      <trkpt lat="50.49495" lon="3.45445">
        <ele>17</ele>
        <time>2022-04-03T07:02:43.000Z</time>
      </trkpt>
      <trkpt lat="50.49497" lon="3.45437">
        <ele>17</ele>
        <time>2022-04-03T07:02:44.000Z</time>
      </trkpt>
      <trkpt lat="50.49499" lon="3.45428">
        <ele>17</ele>
        <time>2022-04-03T07:02:45.000Z</time>
      </trkpt>
      <trkpt lat="50.49501" lon="3.4542">
        <ele>17</ele>
        <time>2022-04-03T07:02:46.000Z</time>
      </trkpt>
      <trkpt lat="50.49504" lon="3.45412">
        <ele>17.1</ele>
        <time>2022-04-03T07:02:47.000Z</time>
      </trkpt>
      <trkpt lat="50.49507" lon="3.45404">
        <ele>17.3</ele>
        <time>2022-04-03T07:02:48.000Z</time>
      </trkpt>
      <trkpt lat="50.4951" lon="3.45397">
        <ele>17.4</ele>
        <time>2022-04-03T07:02:49.000Z</time>
      </trkpt>
      <trkpt lat="50.49513" lon="3.4539">
        <ele>17.5</ele>
        <time>2022-04-03T07:02:50.000Z</time>
      </trkpt>
      <trkpt lat="50.49516" lon="3.45383">
        <ele>17.7</ele>
        <time>2022-04-03T07:02:51.000Z</time>
      </trkpt>
      <trkpt lat="50.4952" lon="3.45377">
        <ele>18</ele>
        <time>2022-04-03T07:02:52.000Z</time>
      </trkpt>
      <trkpt lat="50.49523" lon="3.4537">
        <ele>18.4</ele>
        <time>2022-04-03T07:02:53.000Z</time>
      </trkpt>
      <trkpt lat="50.49527" lon="3.45364">
        <ele>18.8</ele>
        <time>2022-04-03T07:02:54.000Z</time>
      </trkpt>
      <trkpt lat="50.4953" lon="3.45358">
        <ele>18.9</ele>
        <time>2022-04-03T07:02:55.000Z</time>
      </trkpt>
      <trkpt lat="50.49533" lon="3.45352">
        <ele>18.8</ele>
        <time>2022-04-03T07:02:56.000Z</time>
      </trkpt>
      <trkpt lat="50.49537" lon="3.45346">
        <ele>18.7</ele>
        <time>2022-04-03T07:02:57.000Z</time>
      </trkpt>
      <trkpt lat="50.4954" lon="3.45339">
        <ele>18.6</ele>
        <time>2022-04-03T07:02:58.000Z</time>
      </trkpt>
      <trkpt lat="50.49545" lon="3.45333">
        <ele>18.4</ele>
        <time>2022-04-03T07:02:59.000Z</time>
      </trkpt>
      <trkpt lat="50.49549" lon="3.45327">
        <ele>18.4</ele>
        <time>2022-04-03T07:03:00.000Z</time>
      </trkpt>
      <trkpt lat="50.49554" lon="3.45322">
        <ele>18.4</ele>
        <time>2022-04-03T07:03:01.000Z</time>
      </trkpt>
      <trkpt lat="50.49558" lon="3.45316">
        <ele>18.6</ele>
        <time>2022-04-03T07:03:02.000Z</time>
      </trkpt>
      <trkpt lat="50.49563" lon="3.4531">
        <ele>18.6</ele>
        <time>2022-04-03T07:03:03.000Z</time>
      </trkpt>
      <trkpt lat="50.49568" lon="3.45304">
        <ele>18.6</ele>
        <time>2022-04-03T07:03:04.000Z</time>
      </trkpt>
      <trkpt lat="50.49573" lon="3.45298">
        <ele>18.5</ele>
        <time>2022-04-03T07:03:05.000Z</time>
      </trkpt>
      <trkpt lat="50.49578" lon="3.45292">
        <ele>18.6</ele>
        <time>2022-04-03T07:03:06.000Z</time>
      </trkpt>
      <trkpt lat="50.49584" lon="3.45287">
        <ele>18.7</ele>
        <time>2022-04-03T07:03:07.000Z</time>
      </trkpt>
      <trkpt lat="50.49589" lon="3.45282">
        <ele>18.7</ele>
        <time>2022-04-03T07:03:08.000Z</time>
      </trkpt>
      <trkpt lat="50.49595" lon="3.45277">
        <ele>18.6</ele>
        <time>2022-04-03T07:03:09.000Z</time>
      </trkpt>
      <trkpt lat="50.496" lon="3.45272">
        <ele>18.5</ele>
        <time>2022-04-03T07:03:10.000Z</time>
      </trkpt>
      <trkpt lat="50.49606" lon="3.45267">
        <ele>18.5</ele>
        <time>2022-04-03T07:03:11.000Z</time>
      </trkpt>
      <trkpt lat="50.49612" lon="3.45264">
        <ele>18.5</ele>
        <time>2022-04-03T07:03:12.000Z</time>
      </trkpt>
      <trkpt lat="50.49617" lon="3.45261">
        <ele>18.6</ele>
        <time>2022-04-03T07:03:13.000Z</time>
      </trkpt>
      <trkpt lat="50.49623" lon="3.45258">
        <ele>18.7</ele>
        <time>2022-04-03T07:03:14.000Z</time>
      </trkpt>
      <trkpt lat="50.4963" lon="3.45255">
        <ele>18.8</ele>
        <time>2022-04-03T07:03:15.000Z</time>
      </trkpt>
      <trkpt lat="50.49636" lon="3.45252">
        <ele>18.9</ele>
        <time>2022-04-03T07:03:16.000Z</time>
      </trkpt>
      <trkpt lat="50.49641" lon="3.45249">
        <ele>18.9</ele>
        <time>2022-04-03T07:03:17.000Z</time>
      </trkpt>
      <trkpt lat="50.49647" lon="3.45246">
        <ele>18.6</ele>
        <time>2022-04-03T07:03:18.000Z</time>
      </trkpt>
      <trkpt lat="50.49653" lon="3.45244">
        <ele>18.5</ele>
        <time>2022-04-03T07:03:19.000Z</time>
      </trkpt>
      <trkpt lat="50.49658" lon="3.45242">
        <ele>18.4</ele>
        <time>2022-04-03T07:03:20.000Z</time>
      </trkpt>
      <trkpt lat="50.49664" lon="3.45239">
        <ele>18.4</ele>
        <time>2022-04-03T07:03:21.000Z</time>
      </trkpt>
      <trkpt lat="50.49669" lon="3.45236">
        <ele>18.5</ele>
        <time>2022-04-03T07:03:22.000Z</time>
      </trkpt>
      <trkpt lat="50.49675" lon="3.45234">
        <ele>18.7</ele>
        <time>2022-04-03T07:03:23.000Z</time>
      </trkpt>
      <trkpt lat="50.49681" lon="3.45231">
        <ele>18.8</ele>
        <time>2022-04-03T07:03:24.000Z</time>
      </trkpt>
      <trkpt lat="50.49686" lon="3.45229">
        <ele>18.9</ele>
        <time>2022-04-03T07:03:25.000Z</time>
      </trkpt>
      <trkpt lat="50.49691" lon="3.45226">
        <ele>19</ele>
        <time>2022-04-03T07:03:26.000Z</time>
      </trkpt>
      <trkpt lat="50.49697" lon="3.45224">
        <ele>19</ele>
        <time>2022-04-03T07:03:27.000Z</time>
      </trkpt>
      <trkpt lat="50.49702" lon="3.45222">
        <ele>19</ele>
        <time>2022-04-03T07:03:28.000Z</time>
      </trkpt>
      <trkpt lat="50.49707" lon="3.4522">
        <ele>18.9</ele>
        <time>2022-04-03T07:03:29.000Z</time>
      </trkpt>
      <trkpt lat="50.49712" lon="3.45217">
        <ele>18.8</ele>
        <time>2022-04-03T07:03:30.000Z</time>
      </trkpt>
      <trkpt lat="50.49717" lon="3.45215">
        <ele>18.7</ele>
        <time>2022-04-03T07:03:31.000Z</time>
      </trkpt>
      <trkpt lat="50.49723" lon="3.45213">
        <ele>18.7</ele>
        <time>2022-04-03T07:03:32.000Z</time>
      </trkpt>
      <trkpt lat="50.49728" lon="3.4521">
        <ele>18.7</ele>
        <time>2022-04-03T07:03:33.000Z</time>
      </trkpt>
      <trkpt lat="50.49733" lon="3.45209">
        <ele>18.7</ele>
        <time>2022-04-03T07:03:34.000Z</time>
      </trkpt>
      <trkpt lat="50.49738" lon="3.45207">
        <ele>18.8</ele>
        <time>2022-04-03T07:03:35.000Z</time>
      </trkpt>
      <trkpt lat="50.49743" lon="3.45205">
        <ele>18.8</ele>
        <time>2022-04-03T07:03:36.000Z</time>
      </trkpt>
      <trkpt lat="50.49748" lon="3.45202">
        <ele>18.9</ele>
        <time>2022-04-03T07:03:37.000Z</time>
      </trkpt>
      <trkpt lat="50.49753" lon="3.452">
        <ele>19</ele>
        <time>2022-04-03T07:03:38.000Z</time>
      </trkpt>
      <trkpt lat="50.49758" lon="3.45198">
        <ele>19</ele>
        <time>2022-04-03T07:03:39.000Z</time>
      </trkpt>
      <trkpt lat="50.49763" lon="3.45197">
        <ele>19</ele>
        <time>2022-04-03T07:03:40.000Z</time>
      </trkpt>
      <trkpt lat="50.49768" lon="3.45195">
        <ele>19</ele>
        <time>2022-04-03T07:03:41.000Z</time>
      </trkpt>
      <trkpt lat="50.49773" lon="3.45194">
        <ele>19</ele>
        <time>2022-04-03T07:03:42.000Z</time>
      </trkpt>
      <trkpt lat="50.49778" lon="3.45193">
        <ele>19</ele>
        <time>2022-04-03T07:03:43.000Z</time>
      </trkpt>
      <trkpt lat="50.49783" lon="3.45192">
        <ele>18.8</ele>
        <time>2022-04-03T07:03:44.000Z</time>
      </trkpt>
      <trkpt lat="50.49788" lon="3.45191">
        <ele>18.7</ele>
        <time>2022-04-03T07:03:45.000Z</time>
      </trkpt>
      <trkpt lat="50.49793" lon="3.45189">
        <ele>18.6</ele>
        <time>2022-04-03T07:03:46.000Z</time>
      </trkpt>
      <trkpt lat="50.49798" lon="3.45187">
        <ele>18.5</ele>
        <time>2022-04-03T07:03:47.000Z</time>
      </trkpt>
      <trkpt lat="50.49803" lon="3.45185">
        <ele>18.4</ele>
        <time>2022-04-03T07:03:48.000Z</time>
      </trkpt>
      <trkpt lat="50.49808" lon="3.45183">
        <ele>18.4</ele>
        <time>2022-04-03T07:03:49.000Z</time>
      </trkpt>
      <trkpt lat="50.49812" lon="3.45181">
        <ele>18.5</ele>
        <time>2022-04-03T07:03:50.000Z</time>
      </trkpt>
      <trkpt lat="50.49817" lon="3.45179">
        <ele>18.6</ele>
        <time>2022-04-03T07:03:51.000Z</time>
      </trkpt>
      <trkpt lat="50.49821" lon="3.45176">
        <ele>18.7</ele>
        <time>2022-04-03T07:03:52.000Z</time>
      </trkpt>
      <trkpt lat="50.49826" lon="3.45174">
        <ele>18.7</ele>
        <time>2022-04-03T07:03:53.000Z</time>
      </trkpt>
      <trkpt lat="50.4983" lon="3.45172">
        <ele>18.8</ele>
        <time>2022-04-03T07:03:54.000Z</time>
      </trkpt>
      <trkpt lat="50.49835" lon="3.4517">
        <ele>18.9</ele>
        <time>2022-04-03T07:03:55.000Z</time>
      </trkpt>
      <trkpt lat="50.49839" lon="3.45168">
        <ele>19</ele>
        <time>2022-04-03T07:03:56.000Z</time>
      </trkpt>
      <trkpt lat="50.49844" lon="3.45165">
        <ele>19</ele>
        <time>2022-04-03T07:03:57.000Z</time>
      </trkpt>
      <trkpt lat="50.49852" lon="3.45161">
        <ele>19</ele>
        <time>2022-04-03T07:03:59.000Z</time>
      </trkpt>
      <trkpt lat="50.49857" lon="3.45159">
        <ele>19</ele>
        <time>2022-04-03T07:04:00.000Z</time>
      </trkpt>
      <trkpt lat="50.49865" lon="3.45155">
        <ele>18.9</ele>
        <time>2022-04-03T07:04:02.000Z</time>
      </trkpt>
      <trkpt lat="50.49873" lon="3.45151">
        <ele>18.6</ele>
        <time>2022-04-03T07:04:04.000Z</time>
      </trkpt>
      <trkpt lat="50.49877" lon="3.45148">
        <ele>18.4</ele>
        <time>2022-04-03T07:04:05.000Z</time>
      </trkpt>
      <trkpt lat="50.49886" lon="3.45143">
        <ele>18.1</ele>
        <time>2022-04-03T07:04:07.000Z</time>
      </trkpt>
      <trkpt lat="50.49894" lon="3.45137">
        <ele>18.2</ele>
        <time>2022-04-03T07:04:09.000Z</time>
      </trkpt>
      <trkpt lat="50.49902" lon="3.45131">
        <ele>18.5</ele>
        <time>2022-04-03T07:04:11.000Z</time>
      </trkpt>
      <trkpt lat="50.49908" lon="3.45125">
        <ele>18.7</ele>
        <time>2022-04-03T07:04:13.060Z</time>
      </trkpt>
      <trkpt lat="50.49917" lon="3.4512">
        <ele>19</ele>
        <time>2022-04-03T07:04:15.605Z</time>
      </trkpt>
      <trkpt lat="50.49923" lon="3.45116">
        <ele>19</ele>
        <time>2022-04-03T07:04:17.000Z</time>
      </trkpt>
      <trkpt lat="50.4993" lon="3.45112">
        <ele>19</ele>
        <time>2022-04-03T07:04:19.000Z</time>
      </trkpt>
      <trkpt lat="50.49935" lon="3.45117">
        <ele>19</ele>
        <time>2022-04-03T07:04:21.944Z</time>
      </trkpt>
      <trkpt lat="50.4994" lon="3.45129">
        <ele>19</ele>
        <time>2022-04-03T07:04:24.157Z</time>
      </trkpt>
      <trkpt lat="50.49943" lon="3.45136">
        <ele>19</ele>
        <time>2022-04-03T07:04:25.668Z</time>
      </trkpt>
      <trkpt lat="50.49947" lon="3.45143">
        <ele>19</ele>
        <time>2022-04-03T07:04:27.025Z</time>
      </trkpt>
      <trkpt lat="50.49952" lon="3.45152">
        <ele>19</ele>
        <time>2022-04-03T07:04:28.863Z</time>
      </trkpt>
      <trkpt lat="50.49955" lon="3.45159">
        <ele>19</ele>
        <time>2022-04-03T07:04:30.000Z</time>
      </trkpt>
      <trkpt lat="50.4996" lon="3.45169">
        <ele>19</ele>
        <time>2022-04-03T07:04:32.000Z</time>
      </trkpt>
      <trkpt lat="50.49968" lon="3.45178">
        <ele>19</ele>
        <time>2022-04-03T07:04:34.464Z</time>
      </trkpt>
      <trkpt lat="50.49976" lon="3.45182">
        <ele>19</ele>
        <time>2022-04-03T07:04:36.000Z</time>
      </trkpt>
      <trkpt lat="50.49984" lon="3.45185">
        <ele>19</ele>
        <time>2022-04-03T07:04:39.000Z</time>
      </trkpt>
      <trkpt lat="50.4999" lon="3.45187">
        <ele>19</ele>
        <time>2022-04-03T07:04:40.000Z</time>
      </trkpt>
      <trkpt lat="50.49997" lon="3.45196">
        <ele>19</ele>
        <time>2022-04-03T07:04:42.056Z</time>
      </trkpt>
      <trkpt lat="50.50003" lon="3.45194">
        <ele>19.1</ele>
        <time>2022-04-03T07:04:43.000Z</time>
      </trkpt>
      <trkpt lat="50.50007" lon="3.45193">
        <ele>19.2</ele>
        <time>2022-04-03T07:04:44.000Z</time>
      </trkpt>
      <trkpt lat="50.50012" lon="3.45192">
        <ele>19.4</ele>
        <time>2022-04-03T07:04:45.000Z</time>
      </trkpt>
      <trkpt lat="50.5002" lon="3.45191">
        <ele>19.6</ele>
        <time>2022-04-03T07:04:47.000Z</time>
      </trkpt>
      <trkpt lat="50.50027" lon="3.4519">
        <ele>19.8</ele>
        <time>2022-04-03T07:04:49.035Z</time>
      </trkpt>
      <trkpt lat="50.50034" lon="3.45191">
        <ele>20.1</ele>
        <time>2022-04-03T07:04:51.064Z</time>
      </trkpt>
      <trkpt lat="50.5004" lon="3.45193">
        <ele>20.4</ele>
        <time>2022-04-03T07:04:53.174Z</time>
      </trkpt>
      <trkpt lat="50.50046" lon="3.45197">
        <ele>20.6</ele>
        <time>2022-04-03T07:04:55.396Z</time>
      </trkpt>
      <trkpt lat="50.5005" lon="3.452">
        <ele>20.6</ele>
        <time>2022-04-03T07:04:57.000Z</time>
      </trkpt>
      <trkpt lat="50.50056" lon="3.45205">
        <ele>20.6</ele>
        <time>2022-04-03T07:04:59.000Z</time>
      </trkpt>
      <trkpt lat="50.50064" lon="3.4521">
        <ele>20.5</ele>
        <time>2022-04-03T07:05:01.997Z</time>
      </trkpt>
      <trkpt lat="50.50068" lon="3.45215">
        <ele>20.5</ele>
        <time>2022-04-03T07:05:04.000Z</time>
      </trkpt>
      <trkpt lat="50.50076" lon="3.45221">
        <ele>20.7</ele>
        <time>2022-04-03T07:05:06.755Z</time>
      </trkpt>
      <trkpt lat="50.50084" lon="3.45225">
        <ele>20.9</ele>
        <time>2022-04-03T07:05:09.000Z</time>
      </trkpt>
      <trkpt lat="50.50089" lon="3.45229">
        <ele>20.4</ele>
        <time>2022-04-03T07:05:10.000Z</time>
      </trkpt>
      <trkpt lat="50.50094" lon="3.45232">
        <ele>20</ele>
        <time>2022-04-03T07:05:11.000Z</time>
      </trkpt>
      <trkpt lat="50.50099" lon="3.45235">
        <ele>19.7</ele>
        <time>2022-04-03T07:05:12.000Z</time>
      </trkpt>
      <trkpt lat="50.50105" lon="3.45238">
        <ele>19.3</ele>
        <time>2022-04-03T07:05:13.000Z</time>
      </trkpt>
      <trkpt lat="50.50111" lon="3.45241">
        <ele>19</ele>
        <time>2022-04-03T07:05:14.000Z</time>
      </trkpt>
      <trkpt lat="50.50118" lon="3.45245">
        <ele>19</ele>
        <time>2022-04-03T07:05:15.000Z</time>
      </trkpt>
      <trkpt lat="50.50124" lon="3.45248">
        <ele>19</ele>
        <time>2022-04-03T07:05:16.000Z</time>
      </trkpt>
      <trkpt lat="50.50131" lon="3.45252">
        <ele>19</ele>
        <time>2022-04-03T07:05:17.000Z</time>
      </trkpt>
      <trkpt lat="50.50137" lon="3.45256">
        <ele>19</ele>
        <time>2022-04-03T07:05:18.000Z</time>
      </trkpt>
      <trkpt lat="50.50144" lon="3.4526">
        <ele>19</ele>
        <time>2022-04-03T07:05:19.000Z</time>
      </trkpt>
      <trkpt lat="50.5015" lon="3.45264">
        <ele>19</ele>
        <time>2022-04-03T07:05:20.000Z</time>
      </trkpt>
      <trkpt lat="50.50156" lon="3.45268">
        <ele>19</ele>
        <time>2022-04-03T07:05:21.000Z</time>
      </trkpt>
      <trkpt lat="50.50161" lon="3.45272">
        <ele>19</ele>
        <time>2022-04-03T07:05:22.000Z</time>
      </trkpt>
      <trkpt lat="50.50166" lon="3.45276">
        <ele>19</ele>
        <time>2022-04-03T07:05:23.000Z</time>
      </trkpt>
      <trkpt lat="50.50171" lon="3.4528">
        <ele>19</ele>
        <time>2022-04-03T07:05:24.000Z</time>
      </trkpt>
      <trkpt lat="50.50176" lon="3.45284">
        <ele>19</ele>
        <time>2022-04-03T07:05:25.000Z</time>
      </trkpt>
      <trkpt lat="50.50181" lon="3.45287">
        <ele>19</ele>
        <time>2022-04-03T07:05:26.000Z</time>
      </trkpt>
      <trkpt lat="50.50186" lon="3.4529">
        <ele>19</ele>
        <time>2022-04-03T07:05:27.000Z</time>
      </trkpt>
      <trkpt lat="50.50191" lon="3.45294">
        <ele>19</ele>
        <time>2022-04-03T07:05:28.000Z</time>
      </trkpt>
      <trkpt lat="50.50197" lon="3.45298">
        <ele>19</ele>
        <time>2022-04-03T07:05:29.000Z</time>
      </trkpt>
      <trkpt lat="50.50201" lon="3.45302">
        <ele>19</ele>
        <time>2022-04-03T07:05:30.000Z</time>
      </trkpt>
      <trkpt lat="50.50206" lon="3.45306">
        <ele>19</ele>
        <time>2022-04-03T07:05:31.000Z</time>
      </trkpt>
      <trkpt lat="50.5021" lon="3.4531">
        <ele>19</ele>
        <time>2022-04-03T07:05:32.000Z</time>
      </trkpt>
      <trkpt lat="50.50215" lon="3.45313">
        <ele>19</ele>
        <time>2022-04-03T07:05:33.000Z</time>
      </trkpt>
      <trkpt lat="50.50219" lon="3.45317">
        <ele>19</ele>
        <time>2022-04-03T07:05:34.000Z</time>
      </trkpt>
      <trkpt lat="50.50227" lon="3.45323">
        <ele>18.9</ele>
        <time>2022-04-03T07:05:36.000Z</time>
      </trkpt>
      <trkpt lat="50.50231" lon="3.45327">
        <ele>18.9</ele>
        <time>2022-04-03T07:05:37.000Z</time>
      </trkpt>
      <trkpt lat="50.50236" lon="3.4533">
        <ele>18.9</ele>
        <time>2022-04-03T07:05:38.000Z</time>
      </trkpt>
      <trkpt lat="50.5024" lon="3.45334">
        <ele>19</ele>
        <time>2022-04-03T07:05:39.000Z</time>
      </trkpt>
      <trkpt lat="50.50249" lon="3.45341">
        <ele>19</ele>
        <time>2022-04-03T07:05:41.000Z</time>
      </trkpt>
      <trkpt lat="50.50254" lon="3.45344">
        <ele>19</ele>
        <time>2022-04-03T07:05:42.000Z</time>
      </trkpt>
      <trkpt lat="50.50259" lon="3.45348">
        <ele>19</ele>
        <time>2022-04-03T07:05:43.000Z</time>
      </trkpt>
      <trkpt lat="50.50263" lon="3.45351">
        <ele>19</ele>
        <time>2022-04-03T07:05:44.000Z</time>
      </trkpt>
      <trkpt lat="50.50268" lon="3.45355">
        <ele>19</ele>
        <time>2022-04-03T07:05:45.000Z</time>
      </trkpt>
      <trkpt lat="50.50273" lon="3.45359">
        <ele>19</ele>
        <time>2022-04-03T07:05:46.000Z</time>
      </trkpt>
      <trkpt lat="50.50278" lon="3.45363">
        <ele>19</ele>
        <time>2022-04-03T07:05:47.000Z</time>
      </trkpt>
      <trkpt lat="50.50282" lon="3.45368">
        <ele>19</ele>
        <time>2022-04-03T07:05:48.000Z</time>
      </trkpt>
      <trkpt lat="50.50287" lon="3.45372">
        <ele>19</ele>
        <time>2022-04-03T07:05:49.000Z</time>
      </trkpt>
      <trkpt lat="50.50292" lon="3.45375">
        <ele>19</ele>
        <time>2022-04-03T07:05:50.000Z</time>
      </trkpt>
      <trkpt lat="50.50299" lon="3.45381">
        <ele>19</ele>
        <time>2022-04-03T07:05:52.000Z</time>
      </trkpt>
      <trkpt lat="50.50306" lon="3.45386">
        <ele>19</ele>
        <time>2022-04-03T07:05:54.000Z</time>
      </trkpt>
      <trkpt lat="50.5031" lon="3.45391">
        <ele>18.8</ele>
        <time>2022-04-03T07:05:55.000Z</time>
      </trkpt>
      <trkpt lat="50.50314" lon="3.45395">
        <ele>18.6</ele>
        <time>2022-04-03T07:05:56.000Z</time>
      </trkpt>
      <trkpt lat="50.50318" lon="3.45398">
        <ele>18.5</ele>
        <time>2022-04-03T07:05:57.000Z</time>
      </trkpt>
      <trkpt lat="50.50324" lon="3.45404">
        <ele>18.5</ele>
        <time>2022-04-03T07:05:59.000Z</time>
      </trkpt>
      <trkpt lat="50.50331" lon="3.45412">
        <ele>18.8</ele>
        <time>2022-04-03T07:06:01.000Z</time>
      </trkpt>
      <trkpt lat="50.50335" lon="3.45415">
        <ele>18.9</ele>
        <time>2022-04-03T07:06:02.000Z</time>
      </trkpt>
      <trkpt lat="50.50342" lon="3.4542">
        <ele>19</ele>
        <time>2022-04-03T07:06:03.659Z</time>
      </trkpt>
      <trkpt lat="50.50347" lon="3.45424">
        <ele>19</ele>
        <time>2022-04-03T07:06:05.000Z</time>
      </trkpt>
      <trkpt lat="50.50352" lon="3.45428">
        <ele>19</ele>
        <time>2022-04-03T07:06:06.103Z</time>
      </trkpt>
      <trkpt lat="50.50358" lon="3.45432">
        <ele>19</ele>
        <time>2022-04-03T07:06:07.840Z</time>
      </trkpt>
      <trkpt lat="50.50363" lon="3.45435">
        <ele>19</ele>
        <time>2022-04-03T07:06:09.000Z</time>
      </trkpt>
      <trkpt lat="50.50369" lon="3.4544">
        <ele>19</ele>
        <time>2022-04-03T07:06:10.960Z</time>
      </trkpt>
      <trkpt lat="50.50377" lon="3.45445">
        <ele>19</ele>
        <time>2022-04-03T07:06:12.960Z</time>
      </trkpt>
      <trkpt lat="50.50385" lon="3.45449">
        <ele>19</ele>
        <time>2022-04-03T07:06:15.000Z</time>
      </trkpt>
      <trkpt lat="50.50393" lon="3.45454">
        <ele>19</ele>
        <time>2022-04-03T07:06:17.000Z</time>
      </trkpt>
      <trkpt lat="50.50401" lon="3.4546">
        <ele>19</ele>
        <time>2022-04-03T07:06:19.034Z</time>
      </trkpt>
      <trkpt lat="50.50406" lon="3.45462">
        <ele>19</ele>
        <time>2022-04-03T07:06:20.197Z</time>
      </trkpt>
      <trkpt lat="50.50411" lon="3.45466">
        <ele>19</ele>
        <time>2022-04-03T07:06:21.856Z</time>
      </trkpt>
      <trkpt lat="50.50418" lon="3.45469">
        <ele>19</ele>
        <time>2022-04-03T07:06:24.000Z</time>
      </trkpt>
      <trkpt lat="50.50426" lon="3.45472">
        <ele>19</ele>
        <time>2022-04-03T07:06:26.000Z</time>
      </trkpt>
      <trkpt lat="50.50434" lon="3.45474">
        <ele>19.1</ele>
        <time>2022-04-03T07:06:27.957Z</time>
      </trkpt>
      <trkpt lat="50.50438" lon="3.45478">
        <ele>19.2</ele>
        <time>2022-04-03T07:06:29.090Z</time>
      </trkpt>
      <trkpt lat="50.50444" lon="3.45489">
        <ele>19.6</ele>
        <time>2022-04-03T07:06:31.177Z</time>
      </trkpt>
      <trkpt lat="50.50446" lon="3.45498">
        <ele>19.9</ele>
        <time>2022-04-03T07:06:32.598Z</time>
      </trkpt>
      <trkpt lat="50.50446" lon="3.45506">
        <ele>20</ele>
        <time>2022-04-03T07:06:34.000Z</time>
      </trkpt>
      <trkpt lat="50.50443" lon="3.45519">
        <ele>20</ele>
        <time>2022-04-03T07:06:36.000Z</time>
      </trkpt>
      <trkpt lat="50.50441" lon="3.45532">
        <ele>20</ele>
        <time>2022-04-03T07:06:38.074Z</time>
      </trkpt>
      <trkpt lat="50.5044" lon="3.45546">
        <ele>20.1</ele>
        <time>2022-04-03T07:06:40.420Z</time>
      </trkpt>
      <trkpt lat="50.50439" lon="3.45555">
        <ele>20.2</ele>
        <time>2022-04-03T07:06:42.000Z</time>
      </trkpt>
      <trkpt lat="50.50438" lon="3.45568">
        <ele>20.6</ele>
        <time>2022-04-03T07:06:44.058Z</time>
      </trkpt>
      <trkpt lat="50.50437" lon="3.45577">
        <ele>20.8</ele>
        <time>2022-04-03T07:06:45.497Z</time>
      </trkpt>
      <trkpt lat="50.50436" lon="3.45585">
        <ele>21</ele>
        <time>2022-04-03T07:06:47.000Z</time>
      </trkpt>
      <trkpt lat="50.50435" lon="3.45594">
        <ele>21</ele>
        <time>2022-04-03T07:06:49.000Z</time>
      </trkpt>
      <trkpt lat="50.50434" lon="3.45608">
        <ele>21</ele>
        <time>2022-04-03T07:06:51.557Z</time>
      </trkpt>
      <trkpt lat="50.50434" lon="3.4562">
        <ele>21</ele>
        <time>2022-04-03T07:06:53.938Z</time>
      </trkpt>
      <trkpt lat="50.50434" lon="3.45631">
        <ele>21</ele>
        <time>2022-04-03T07:06:56.000Z</time>
      </trkpt>
      <trkpt lat="50.50433" lon="3.45643">
        <ele>21.1</ele>
        <time>2022-04-03T07:06:58.514Z</time>
      </trkpt>
      <trkpt lat="50.50433" lon="3.45654">
        <ele>21.3</ele>
        <time>2022-04-03T07:07:01.034Z</time>
      </trkpt>
      <trkpt lat="50.50432" lon="3.45664">
        <ele>21.5</ele>
        <time>2022-04-03T07:07:03.000Z</time>
      </trkpt>
      <trkpt lat="50.50432" lon="3.45674">
        <ele>21.7</ele>
        <time>2022-04-03T07:07:05.000Z</time>
      </trkpt>
      <trkpt lat="50.50432" lon="3.45684">
        <ele>21.8</ele>
        <time>2022-04-03T07:07:07.157Z</time>
      </trkpt>
      <trkpt lat="50.50432" lon="3.45697">
        <ele>22</ele>
        <time>2022-04-03T07:07:09.900Z</time>
      </trkpt>
      <trkpt lat="50.50431" lon="3.45708">
        <ele>22</ele>
        <time>2022-04-03T07:07:12.000Z</time>
      </trkpt>
      <trkpt lat="50.5043" lon="3.45718">
        <ele>22</ele>
        <time>2022-04-03T07:07:13.959Z</time>
      </trkpt>
      <trkpt lat="50.50429" lon="3.45729">
        <ele>22</ele>
        <time>2022-04-03T07:07:15.877Z</time>
      </trkpt>
      <trkpt lat="50.50427" lon="3.45741">
        <ele>22</ele>
        <time>2022-04-03T07:07:17.917Z</time>
      </trkpt>
      <trkpt lat="50.50425" lon="3.45753">
        <ele>22</ele>
        <time>2022-04-03T07:07:20.000Z</time>
      </trkpt>
      <trkpt lat="50.50423" lon="3.45765">
        <ele>22</ele>
        <time>2022-04-03T07:07:22.000Z</time>
      </trkpt>
      <trkpt lat="50.50421" lon="3.45777">
        <ele>22</ele>
        <time>2022-04-03T07:07:24.000Z</time>
      </trkpt>
      <trkpt lat="50.50419" lon="3.45789">
        <ele>22</ele>
        <time>2022-04-03T07:07:25.956Z</time>
      </trkpt>
      <trkpt lat="50.50417" lon="3.45801">
        <ele>22</ele>
        <time>2022-04-03T07:07:28.000Z</time>
      </trkpt>
      <trkpt lat="50.50415" lon="3.4581">
        <ele>22</ele>
        <time>2022-04-03T07:07:29.317Z</time>
      </trkpt>
      <trkpt lat="50.50414" lon="3.45817">
        <ele>22</ele>
        <time>2022-04-03T07:07:30.357Z</time>
      </trkpt>
      <trkpt lat="50.50412" lon="3.45826">
        <ele>22</ele>
        <time>2022-04-03T07:07:31.676Z</time>
      </trkpt>
      <trkpt lat="50.5041" lon="3.45834">
        <ele>22</ele>
        <time>2022-04-03T07:07:33.041Z</time>
      </trkpt>
      <trkpt lat="50.50406" lon="3.45846">
        <ele>22</ele>
        <time>2022-04-03T07:07:35.000Z</time>
      </trkpt>
      <trkpt lat="50.50404" lon="3.45858">
        <ele>22</ele>
        <time>2022-04-03T07:07:37.000Z</time>
      </trkpt>
      <trkpt lat="50.50401" lon="3.45871">
        <ele>22</ele>
        <time>2022-04-03T07:07:38.878Z</time>
      </trkpt>
      <trkpt lat="50.504" lon="3.45878">
        <ele>22</ele>
        <time>2022-04-03T07:07:40.055Z</time>
      </trkpt>
      <trkpt lat="50.50399" lon="3.45888">
        <ele>22</ele>
        <time>2022-04-03T07:07:41.419Z</time>
      </trkpt>
      <trkpt lat="50.50395" lon="3.45903">
        <ele>21.6</ele>
        <time>2022-04-03T07:07:44.039Z</time>
      </trkpt>
      <trkpt lat="50.50392" lon="3.45918">
        <ele>21.1</ele>
        <time>2022-04-03T07:07:46.677Z</time>
      </trkpt>
      <trkpt lat="50.5039" lon="3.45926">
        <ele>21</ele>
        <time>2022-04-03T07:07:48.080Z</time>
      </trkpt>
      <trkpt lat="50.50389" lon="3.45935">
        <ele>21</ele>
        <time>2022-04-03T07:07:49.715Z</time>
      </trkpt>
      <trkpt lat="50.50387" lon="3.45941">
        <ele>20.9</ele>
        <time>2022-04-03T07:07:50.938Z</time>
      </trkpt>
      <trkpt lat="50.50384" lon="3.45953">
        <ele>21.1</ele>
        <time>2022-04-03T07:07:53.118Z</time>
      </trkpt>
      <trkpt lat="50.50382" lon="3.45965">
        <ele>21.5</ele>
        <time>2022-04-03T07:07:55.000Z</time>
      </trkpt>
      <trkpt lat="50.50379" lon="3.45976">
        <ele>21.6</ele>
        <time>2022-04-03T07:07:57.000Z</time>
      </trkpt>
      <trkpt lat="50.50377" lon="3.45988">
        <ele>21.6</ele>
        <time>2022-04-03T07:07:59.000Z</time>
      </trkpt>
      <trkpt lat="50.50374" lon="3.46">
        <ele>21.5</ele>
        <time>2022-04-03T07:08:00.998Z</time>
      </trkpt>
      <trkpt lat="50.50371" lon="3.46011">
        <ele>21.6</ele>
        <time>2022-04-03T07:08:02.937Z</time>
      </trkpt>
      <trkpt lat="50.50369" lon="3.46023">
        <ele>21.9</ele>
        <time>2022-04-03T07:08:04.996Z</time>
      </trkpt>
      <trkpt lat="50.50365" lon="3.46033">
        <ele>22</ele>
        <time>2022-04-03T07:08:08.000Z</time>
      </trkpt>
      <trkpt lat="50.50366" lon="3.46043">
        <ele>22</ele>
        <time>2022-04-03T07:08:30.000Z</time>
      </trkpt>
      <trkpt lat="50.50364" lon="3.46053">
        <ele>22</ele>
        <time>2022-04-03T07:08:32.940Z</time>
      </trkpt>
      <trkpt lat="50.50362" lon="3.4606">
        <ele>22</ele>
        <time>2022-04-03T07:08:34.936Z</time>
      </trkpt>
      <trkpt lat="50.5036" lon="3.46068">
        <ele>22</ele>
        <time>2022-04-03T07:08:36.818Z</time>
      </trkpt>
      <trkpt lat="50.50356" lon="3.46079">
        <ele>22</ele>
        <time>2022-04-03T07:08:38.977Z</time>
      </trkpt>
      <trkpt lat="50.50354" lon="3.4609">
        <ele>22</ele>
        <time>2022-04-03T07:08:40.858Z</time>
      </trkpt>
      <trkpt lat="50.50353" lon="3.46102">
        <ele>22</ele>
        <time>2022-04-03T07:08:43.056Z</time>
      </trkpt>
      <trkpt lat="50.50351" lon="3.46113">
        <ele>22</ele>
        <time>2022-04-03T07:08:44.880Z</time>
      </trkpt>
      <trkpt lat="50.50349" lon="3.46124">
        <ele>22.3</ele>
        <time>2022-04-03T07:08:46.957Z</time>
      </trkpt>
      <trkpt lat="50.50348" lon="3.46135">
        <ele>22.5</ele>
        <time>2022-04-03T07:08:49.000Z</time>
      </trkpt>
      <trkpt lat="50.50346" lon="3.46147">
        <ele>22.5</ele>
        <time>2022-04-03T07:08:51.000Z</time>
      </trkpt>
      <trkpt lat="50.50344" lon="3.46158">
        <ele>22.4</ele>
        <time>2022-04-03T07:08:53.178Z</time>
      </trkpt>
      <trkpt lat="50.50342" lon="3.46167">
        <ele>22.3</ele>
        <time>2022-04-03T07:08:54.739Z</time>
      </trkpt>
      <trkpt lat="50.50341" lon="3.46174">
        <ele>22.3</ele>
        <time>2022-04-03T07:08:56.037Z</time>
      </trkpt>
      <trkpt lat="50.50339" lon="3.46186">
        <ele>22.2</ele>
        <time>2022-04-03T07:08:58.123Z</time>
      </trkpt>
      <trkpt lat="50.50338" lon="3.46197">
        <ele>22.2</ele>
        <time>2022-04-03T07:08:59.839Z</time>
      </trkpt>
      <trkpt lat="50.50337" lon="3.46205">
        <ele>22.1</ele>
        <time>2022-04-03T07:09:01.175Z</time>
      </trkpt>
      <trkpt lat="50.50335" lon="3.46216">
        <ele>22.1</ele>
        <time>2022-04-03T07:09:03.180Z</time>
      </trkpt>
      <trkpt lat="50.50333" lon="3.46225">
        <ele>22</ele>
        <time>2022-04-03T07:09:04.618Z</time>
      </trkpt>
      <trkpt lat="50.50331" lon="3.4624">
        <ele>22</ele>
        <time>2022-04-03T07:09:06.880Z</time>
      </trkpt>
      <trkpt lat="50.5033" lon="3.46248">
        <ele>22</ele>
        <time>2022-04-03T07:09:08.000Z</time>
      </trkpt>
      <trkpt lat="50.5033" lon="3.46255">
        <ele>22</ele>
        <time>2022-04-03T07:09:08.999Z</time>
      </trkpt>
      <trkpt lat="50.50329" lon="3.46263">
        <ele>22</ele>
        <time>2022-04-03T07:09:10.000Z</time>
      </trkpt>
      <trkpt lat="50.50328" lon="3.46271">
        <ele>22</ele>
        <time>2022-04-03T07:09:11.214Z</time>
      </trkpt>
      <trkpt lat="50.50327" lon="3.46278">
        <ele>22</ele>
        <time>2022-04-03T07:09:12.367Z</time>
      </trkpt>
      <trkpt lat="50.50325" lon="3.46294">
        <ele>22</ele>
        <time>2022-04-03T07:09:14.656Z</time>
      </trkpt>
      <trkpt lat="50.50324" lon="3.46301">
        <ele>22</ele>
        <time>2022-04-03T07:09:15.840Z</time>
      </trkpt>
      <trkpt lat="50.50323" lon="3.46309">
        <ele>22</ele>
        <time>2022-04-03T07:09:16.959Z</time>
      </trkpt>
      <trkpt lat="50.50322" lon="3.46316">
        <ele>22</ele>
        <time>2022-04-03T07:09:18.000Z</time>
      </trkpt>
      <trkpt lat="50.5032" lon="3.46329">
        <ele>22</ele>
        <time>2022-04-03T07:09:19.938Z</time>
      </trkpt>
      <trkpt lat="50.50319" lon="3.46338">
        <ele>22</ele>
        <time>2022-04-03T07:09:21.197Z</time>
      </trkpt>
      <trkpt lat="50.50317" lon="3.46354">
        <ele>22</ele>
        <time>2022-04-03T07:09:23.717Z</time>
      </trkpt>
      <trkpt lat="50.50315" lon="3.46369">
        <ele>21.8</ele>
        <time>2022-04-03T07:09:25.896Z</time>
      </trkpt>
      <trkpt lat="50.50314" lon="3.46376">
        <ele>21.6</ele>
        <time>2022-04-03T07:09:26.956Z</time>
      </trkpt>
      <trkpt lat="50.50313" lon="3.46383">
        <ele>21.4</ele>
        <time>2022-04-03T07:09:28.000Z</time>
      </trkpt>
      <trkpt lat="50.50312" lon="3.46395">
        <ele>21.2</ele>
        <time>2022-04-03T07:09:30.000Z</time>
      </trkpt>
      <trkpt lat="50.50309" lon="3.46406">
        <ele>21.1</ele>
        <time>2022-04-03T07:09:32.657Z</time>
      </trkpt>
      <trkpt lat="50.50304" lon="3.46403">
        <ele>21</ele>
        <time>2022-04-03T07:09:34.696Z</time>
      </trkpt>
      <trkpt lat="50.503" lon="3.46398">
        <ele>21</ele>
        <time>2022-04-03T07:09:36.000Z</time>
      </trkpt>
      <trkpt lat="50.50293" lon="3.46393">
        <ele>21</ele>
        <time>2022-04-03T07:09:38.000Z</time>
      </trkpt>
      <trkpt lat="50.50285" lon="3.46389">
        <ele>21</ele>
        <time>2022-04-03T07:09:40.000Z</time>
      </trkpt>
      <trkpt lat="50.50276" lon="3.46387">
        <ele>21</ele>
        <time>2022-04-03T07:09:42.000Z</time>
      </trkpt>
      <trkpt lat="50.50267" lon="3.46385">
        <ele>20.9</ele>
        <time>2022-04-03T07:09:44.099Z</time>
      </trkpt>
      <trkpt lat="50.50262" lon="3.46387">
        <ele>21</ele>
        <time>2022-04-03T07:09:45.436Z</time>
      </trkpt>
      <trkpt lat="50.50255" lon="3.4639">
        <ele>21</ele>
        <time>2022-04-03T07:09:47.000Z</time>
      </trkpt>
      <trkpt lat="50.5025" lon="3.46392">
        <ele>21</ele>
        <time>2022-04-03T07:09:48.000Z</time>
      </trkpt>
      <trkpt lat="50.50246" lon="3.46394">
        <ele>21</ele>
        <time>2022-04-03T07:09:49.137Z</time>
      </trkpt>
      <trkpt lat="50.50237" lon="3.46399">
        <ele>21</ele>
        <time>2022-04-03T07:09:51.396Z</time>
      </trkpt>
      <trkpt lat="50.50231" lon="3.46402">
        <ele>21</ele>
        <time>2022-04-03T07:09:53.000Z</time>
      </trkpt>
      <trkpt lat="50.50224" lon="3.46404">
        <ele>21</ele>
        <time>2022-04-03T07:09:55.000Z</time>
      </trkpt>
      <trkpt lat="50.50217" lon="3.46408">
        <ele>21</ele>
        <time>2022-04-03T07:09:57.000Z</time>
      </trkpt>
      <trkpt lat="50.5021" lon="3.4641">
        <ele>21</ele>
        <time>2022-04-03T07:09:59.000Z</time>
      </trkpt>
      <trkpt lat="50.50205" lon="3.46413">
        <ele>21</ele>
        <time>2022-04-03T07:10:00.881Z</time>
      </trkpt>
      <trkpt lat="50.50199" lon="3.46417">
        <ele>21</ele>
        <time>2022-04-03T07:10:03.038Z</time>
      </trkpt>
      <trkpt lat="50.50192" lon="3.46417">
        <ele>21.1</ele>
        <time>2022-04-03T07:10:05.000Z</time>
      </trkpt>
      <trkpt lat="50.50186" lon="3.46415">
        <ele>21.3</ele>
        <time>2022-04-03T07:10:07.000Z</time>
      </trkpt>
      <trkpt lat="50.50179" lon="3.4641">
        <ele>21.4</ele>
        <time>2022-04-03T07:10:09.000Z</time>
      </trkpt>
      <trkpt lat="50.5017" lon="3.46403">
        <ele>21.4</ele>
        <time>2022-04-03T07:10:11.479Z</time>
      </trkpt>
      <trkpt lat="50.50164" lon="3.46401">
        <ele>21.3</ele>
        <time>2022-04-03T07:10:13.040Z</time>
      </trkpt>
      <trkpt lat="50.50156" lon="3.46397">
        <ele>20.9</ele>
        <time>2022-04-03T07:10:15.000Z</time>
      </trkpt>
      <trkpt lat="50.50149" lon="3.46399">
        <ele>20.7</ele>
        <time>2022-04-03T07:10:17.000Z</time>
      </trkpt>
      <trkpt lat="50.50143" lon="3.46407">
        <ele>20.8</ele>
        <time>2022-04-03T07:10:19.000Z</time>
      </trkpt>
      <trkpt lat="50.50139" lon="3.4642">
        <ele>21</ele>
        <time>2022-04-03T07:10:21.000Z</time>
      </trkpt>
      <trkpt lat="50.50138" lon="3.46426">
        <ele>20.9</ele>
        <time>2022-04-03T07:10:22.000Z</time>
      </trkpt>
      <trkpt lat="50.50137" lon="3.46434">
        <ele>20.8</ele>
        <time>2022-04-03T07:10:23.118Z</time>
      </trkpt>
      <trkpt lat="50.50134" lon="3.46445">
        <ele>20.6</ele>
        <time>2022-04-03T07:10:24.738Z</time>
      </trkpt>
      <trkpt lat="50.50133" lon="3.46454">
        <ele>20.5</ele>
        <time>2022-04-03T07:10:26.118Z</time>
      </trkpt>
      <trkpt lat="50.50133" lon="3.46463">
        <ele>20.4</ele>
        <time>2022-04-03T07:10:27.362Z</time>
      </trkpt>
      <trkpt lat="50.50134" lon="3.46472">
        <ele>20.5</ele>
        <time>2022-04-03T07:10:29.000Z</time>
      </trkpt>
      <trkpt lat="50.50136" lon="3.46481">
        <ele>20.5</ele>
        <time>2022-04-03T07:10:30.497Z</time>
      </trkpt>
      <trkpt lat="50.50139" lon="3.46489">
        <ele>20.4</ele>
        <time>2022-04-03T07:10:31.923Z</time>
      </trkpt>
      <trkpt lat="50.50143" lon="3.465">
        <ele>20.1</ele>
        <time>2022-04-03T07:10:34.000Z</time>
      </trkpt>
      <trkpt lat="50.50143" lon="3.46511">
        <ele>20</ele>
        <time>2022-04-03T07:10:36.000Z</time>
      </trkpt>
      <trkpt lat="50.50142" lon="3.46518">
        <ele>20</ele>
        <time>2022-04-03T07:10:37.101Z</time>
      </trkpt>
      <trkpt lat="50.50141" lon="3.46528">
        <ele>19.9</ele>
        <time>2022-04-03T07:10:38.495Z</time>
      </trkpt>
      <trkpt lat="50.50141" lon="3.46541">
        <ele>19.5</ele>
        <time>2022-04-03T07:10:40.699Z</time>
      </trkpt>
      <trkpt lat="50.50143" lon="3.46549">
        <ele>19.3</ele>
        <time>2022-04-03T07:10:42.000Z</time>
      </trkpt>
      <trkpt lat="50.5015" lon="3.46557">
        <ele>19.4</ele>
        <time>2022-04-03T07:10:44.000Z</time>
      </trkpt>
      <trkpt lat="50.50158" lon="3.46564">
        <ele>19.7</ele>
        <time>2022-04-03T07:10:46.166Z</time>
      </trkpt>
      <trkpt lat="50.50162" lon="3.46568">
        <ele>19.8</ele>
        <time>2022-04-03T07:10:47.619Z</time>
      </trkpt>
      <trkpt lat="50.50166" lon="3.46572">
        <ele>20</ele>
        <time>2022-04-03T07:10:48.900Z</time>
      </trkpt>
      <trkpt lat="50.50173" lon="3.46577">
        <ele>20.1</ele>
        <time>2022-04-03T07:10:51.078Z</time>
      </trkpt>
      <trkpt lat="50.50177" lon="3.46582">
        <ele>20.3</ele>
        <time>2022-04-03T07:10:52.639Z</time>
      </trkpt>
      <trkpt lat="50.50185" lon="3.46589">
        <ele>20.8</ele>
        <time>2022-04-03T07:10:55.618Z</time>
      </trkpt>
      <trkpt lat="50.50191" lon="3.46595">
        <ele>21.2</ele>
        <time>2022-04-03T07:10:57.999Z</time>
      </trkpt>
      <trkpt lat="50.50194" lon="3.46602">
        <ele>21.6</ele>
        <time>2022-04-03T07:10:59.639Z</time>
      </trkpt>
      <trkpt lat="50.50193" lon="3.4661">
        <ele>21.9</ele>
        <time>2022-04-03T07:11:01.515Z</time>
      </trkpt>
      <trkpt lat="50.50188" lon="3.4662">
        <ele>21.8</ele>
        <time>2022-04-03T07:11:04.000Z</time>
      </trkpt>
      <trkpt lat="50.50185" lon="3.46628">
        <ele>21.7</ele>
        <time>2022-04-03T07:11:06.018Z</time>
      </trkpt>
      <trkpt lat="50.50182" lon="3.46634">
        <ele>21.6</ele>
        <time>2022-04-03T07:11:07.576Z</time>
      </trkpt>
      <trkpt lat="50.50176" lon="3.46646">
        <ele>21.2</ele>
        <time>2022-04-03T07:11:10.077Z</time>
      </trkpt>
      <trkpt lat="50.50172" lon="3.46655">
        <ele>21</ele>
        <time>2022-04-03T07:11:11.839Z</time>
      </trkpt>
      <trkpt lat="50.50167" lon="3.46664">
        <ele>20.9</ele>
        <time>2022-04-03T07:11:13.997Z</time>
      </trkpt>
      <trkpt lat="50.50163" lon="3.46671">
        <ele>20.8</ele>
        <time>2022-04-03T07:11:15.347Z</time>
      </trkpt>
      <trkpt lat="50.50159" lon="3.46681">
        <ele>20.7</ele>
        <time>2022-04-03T07:11:17.419Z</time>
      </trkpt>
      <trkpt lat="50.50156" lon="3.46688">
        <ele>20.6</ele>
        <time>2022-04-03T07:11:18.796Z</time>
      </trkpt>
      <trkpt lat="50.50151" lon="3.46698">
        <ele>20.4</ele>
        <time>2022-04-03T07:11:21.000Z</time>
      </trkpt>
      <trkpt lat="50.50146" lon="3.46707">
        <ele>20.2</ele>
        <time>2022-04-03T07:11:23.000Z</time>
      </trkpt>
      <trkpt lat="50.50141" lon="3.46719">
        <ele>20.1</ele>
        <time>2022-04-03T07:11:25.456Z</time>
      </trkpt>
      <trkpt lat="50.50137" lon="3.46725">
        <ele>20</ele>
        <time>2022-04-03T07:11:26.916Z</time>
      </trkpt>
      <trkpt lat="50.50133" lon="3.46735">
        <ele>20</ele>
        <time>2022-04-03T07:11:29.000Z</time>
      </trkpt>
      <trkpt lat="50.50128" lon="3.46745">
        <ele>20</ele>
        <time>2022-04-03T07:11:31.000Z</time>
      </trkpt>
      <trkpt lat="50.50121" lon="3.46759">
        <ele>20.2</ele>
        <time>2022-04-03T07:11:33.682Z</time>
      </trkpt>
      <trkpt lat="50.50116" lon="3.4677">
        <ele>20.7</ele>
        <time>2022-04-03T07:11:35.879Z</time>
      </trkpt>
      <trkpt lat="50.50111" lon="3.4678">
        <ele>21</ele>
        <time>2022-04-03T07:11:38.000Z</time>
      </trkpt>
      <trkpt lat="50.50106" lon="3.46791">
        <ele>20.7</ele>
        <time>2022-04-03T07:11:40.000Z</time>
      </trkpt>
      <trkpt lat="50.50101" lon="3.46802">
        <ele>20.6</ele>
        <time>2022-04-03T07:11:42.000Z</time>
      </trkpt>
      <trkpt lat="50.50097" lon="3.46814">
        <ele>20.8</ele>
        <time>2022-04-03T07:11:44.037Z</time>
      </trkpt>
      <trkpt lat="50.50093" lon="3.46822">
        <ele>20.9</ele>
        <time>2022-04-03T07:11:45.438Z</time>
      </trkpt>
      <trkpt lat="50.5009" lon="3.4683">
        <ele>21.1</ele>
        <time>2022-04-03T07:11:46.758Z</time>
      </trkpt>
      <trkpt lat="50.50086" lon="3.46837">
        <ele>21.1</ele>
        <time>2022-04-03T07:11:48.000Z</time>
      </trkpt>
      <trkpt lat="50.50081" lon="3.46848">
        <ele>20.9</ele>
        <time>2022-04-03T07:11:50.000Z</time>
      </trkpt>
      <trkpt lat="50.50074" lon="3.46861">
        <ele>20.7</ele>
        <time>2022-04-03T07:11:52.562Z</time>
      </trkpt>
      <trkpt lat="50.50071" lon="3.46871">
        <ele>20.8</ele>
        <time>2022-04-03T07:11:54.000Z</time>
      </trkpt>
      <trkpt lat="50.50068" lon="3.46877">
        <ele>20.7</ele>
        <time>2022-04-03T07:11:55.000Z</time>
      </trkpt>
      <trkpt lat="50.50065" lon="3.46883">
        <ele>20.6</ele>
        <time>2022-04-03T07:11:56.000Z</time>
      </trkpt>
      <trkpt lat="50.50063" lon="3.46889">
        <ele>20.5</ele>
        <time>2022-04-03T07:11:57.000Z</time>
      </trkpt>
      <trkpt lat="50.5006" lon="3.46896">
        <ele>20.3</ele>
        <time>2022-04-03T07:11:58.000Z</time>
      </trkpt>
      <trkpt lat="50.50058" lon="3.46902">
        <ele>20.2</ele>
        <time>2022-04-03T07:11:59.000Z</time>
      </trkpt>
      <trkpt lat="50.50055" lon="3.46909">
        <ele>20</ele>
        <time>2022-04-03T07:12:00.000Z</time>
      </trkpt>
      <trkpt lat="50.50053" lon="3.46916">
        <ele>19.8</ele>
        <time>2022-04-03T07:12:01.000Z</time>
      </trkpt>
      <trkpt lat="50.5005" lon="3.46923">
        <ele>19.8</ele>
        <time>2022-04-03T07:12:02.000Z</time>
      </trkpt>
      <trkpt lat="50.50048" lon="3.46931">
        <ele>20</ele>
        <time>2022-04-03T07:12:03.000Z</time>
      </trkpt>
      <trkpt lat="50.50046" lon="3.46938">
        <ele>20.1</ele>
        <time>2022-04-03T07:12:04.000Z</time>
      </trkpt>
      <trkpt lat="50.50043" lon="3.46945">
        <ele>20.1</ele>
        <time>2022-04-03T07:12:05.000Z</time>
      </trkpt>
      <trkpt lat="50.5004" lon="3.46953">
        <ele>19.9</ele>
        <time>2022-04-03T07:12:06.000Z</time>
      </trkpt>
      <trkpt lat="50.50037" lon="3.4696">
        <ele>19.7</ele>
        <time>2022-04-03T07:12:07.000Z</time>
      </trkpt>
      <trkpt lat="50.50034" lon="3.46968">
        <ele>19.4</ele>
        <time>2022-04-03T07:12:08.000Z</time>
      </trkpt>
      <trkpt lat="50.50032" lon="3.46976">
        <ele>19.4</ele>
        <time>2022-04-03T07:12:09.000Z</time>
      </trkpt>
      <trkpt lat="50.50029" lon="3.46983">
        <ele>19.5</ele>
        <time>2022-04-03T07:12:10.000Z</time>
      </trkpt>
      <trkpt lat="50.50027" lon="3.46991">
        <ele>19.6</ele>
        <time>2022-04-03T07:12:11.000Z</time>
      </trkpt>
      <trkpt lat="50.50024" lon="3.46998">
        <ele>19.7</ele>
        <time>2022-04-03T07:12:12.000Z</time>
      </trkpt>
      <trkpt lat="50.50021" lon="3.47005">
        <ele>19.6</ele>
        <time>2022-04-03T07:12:13.000Z</time>
      </trkpt>
      <trkpt lat="50.50019" lon="3.47013">
        <ele>19.5</ele>
        <time>2022-04-03T07:12:14.000Z</time>
      </trkpt>
      <trkpt lat="50.50014" lon="3.47026">
        <ele>19.5</ele>
        <time>2022-04-03T07:12:16.000Z</time>
      </trkpt>
      <trkpt lat="50.50012" lon="3.47033">
        <ele>19.4</ele>
        <time>2022-04-03T07:12:17.000Z</time>
      </trkpt>
      <trkpt lat="50.5001" lon="3.4704">
        <ele>19.4</ele>
        <time>2022-04-03T07:12:18.000Z</time>
      </trkpt>
      <trkpt lat="50.50008" lon="3.47047">
        <ele>19.3</ele>
        <time>2022-04-03T07:12:19.000Z</time>
      </trkpt>
      <trkpt lat="50.50007" lon="3.47054">
        <ele>19.3</ele>
        <time>2022-04-03T07:12:20.000Z</time>
      </trkpt>
      <trkpt lat="50.50005" lon="3.47061">
        <ele>19.4</ele>
        <time>2022-04-03T07:12:21.000Z</time>
      </trkpt>
      <trkpt lat="50.50004" lon="3.47067">
        <ele>19.6</ele>
        <time>2022-04-03T07:12:22.000Z</time>
      </trkpt>
      <trkpt lat="50.50003" lon="3.47075">
        <ele>19.8</ele>
        <time>2022-04-03T07:12:23.000Z</time>
      </trkpt>
      <trkpt lat="50.5" lon="3.47088">
        <ele>20</ele>
        <time>2022-04-03T07:12:25.000Z</time>
      </trkpt>
      <trkpt lat="50.49998" lon="3.47095">
        <ele>19.9</ele>
        <time>2022-04-03T07:12:26.000Z</time>
      </trkpt>
      <trkpt lat="50.49995" lon="3.47106">
        <ele>19.8</ele>
        <time>2022-04-03T07:12:28.000Z</time>
      </trkpt>
      <trkpt lat="50.49992" lon="3.47118">
        <ele>20</ele>
        <time>2022-04-03T07:12:30.000Z</time>
      </trkpt>
      <trkpt lat="50.49988" lon="3.47128">
        <ele>20.2</ele>
        <time>2022-04-03T07:12:32.000Z</time>
      </trkpt>
      <trkpt lat="50.49988" lon="3.47141">
        <ele>20.6</ele>
        <time>2022-04-03T07:12:34.083Z</time>
      </trkpt>
      <trkpt lat="50.49993" lon="3.47148">
        <ele>20.7</ele>
        <time>2022-04-03T07:12:35.359Z</time>
      </trkpt>
      <trkpt lat="50.49996" lon="3.47154">
        <ele>20.9</ele>
        <time>2022-04-03T07:12:36.544Z</time>
      </trkpt>
      <trkpt lat="50.5" lon="3.4716">
        <ele>21</ele>
        <time>2022-04-03T07:12:38.000Z</time>
      </trkpt>
      <trkpt lat="50.50007" lon="3.47168">
        <ele>21.3</ele>
        <time>2022-04-03T07:12:40.163Z</time>
      </trkpt>
      <trkpt lat="50.50015" lon="3.47177">
        <ele>21.9</ele>
        <time>2022-04-03T07:12:43.000Z</time>
      </trkpt>
      <trkpt lat="50.5002" lon="3.47185">
        <ele>22.4</ele>
        <time>2022-04-03T07:12:45.000Z</time>
      </trkpt>
      <trkpt lat="50.50024" lon="3.47196">
        <ele>22.9</ele>
        <time>2022-04-03T07:12:47.399Z</time>
      </trkpt>
      <trkpt lat="50.50028" lon="3.47203">
        <ele>23</ele>
        <time>2022-04-03T07:12:49.000Z</time>
      </trkpt>
      <trkpt lat="50.50031" lon="3.4721">
        <ele>23.1</ele>
        <time>2022-04-03T07:12:50.544Z</time>
      </trkpt>
      <trkpt lat="50.50034" lon="3.47222">
        <ele>23.2</ele>
        <time>2022-04-03T07:12:52.803Z</time>
      </trkpt>
      <trkpt lat="50.50036" lon="3.47233">
        <ele>23.7</ele>
        <time>2022-04-03T07:12:55.062Z</time>
      </trkpt>
      <trkpt lat="50.50037" lon="3.47244">
        <ele>24.1</ele>
        <time>2022-04-03T07:12:57.149Z</time>
      </trkpt>
      <trkpt lat="50.50039" lon="3.47253">
        <ele>24.4</ele>
        <time>2022-04-03T07:12:59.640Z</time>
      </trkpt>
      <trkpt lat="50.50041" lon="3.47263">
        <ele>24.5</ele>
        <time>2022-04-03T07:13:02.002Z</time>
      </trkpt>
      <trkpt lat="50.50043" lon="3.47271">
        <ele>24.5</ele>
        <time>2022-04-03T07:13:04.000Z</time>
      </trkpt>
      <trkpt lat="50.50044" lon="3.47278">
        <ele>24.6</ele>
        <time>2022-04-03T07:13:06.108Z</time>
      </trkpt>
      <trkpt lat="50.50045" lon="3.47286">
        <ele>24.6</ele>
        <time>2022-04-03T07:13:08.165Z</time>
      </trkpt>
      <trkpt lat="50.50046" lon="3.47295">
        <ele>24.7</ele>
        <time>2022-04-03T07:13:10.444Z</time>
      </trkpt>
      <trkpt lat="50.50047" lon="3.47303">
        <ele>24.7</ele>
        <time>2022-04-03T07:13:12.679Z</time>
      </trkpt>
      <trkpt lat="50.50048" lon="3.47314">
        <ele>24.8</ele>
        <time>2022-04-03T07:13:15.859Z</time>
      </trkpt>
      <trkpt lat="50.5005" lon="3.47323">
        <ele>24.9</ele>
        <time>2022-04-03T07:13:18.220Z</time>
      </trkpt>
      <trkpt lat="50.50052" lon="3.47332">
        <ele>25</ele>
        <time>2022-04-03T07:13:20.541Z</time>
      </trkpt>
      <trkpt lat="50.50054" lon="3.47342">
        <ele>25</ele>
        <time>2022-04-03T07:13:22.919Z</time>
      </trkpt>
      <trkpt lat="50.50056" lon="3.47349">
        <ele>25</ele>
        <time>2022-04-03T07:13:25.042Z</time>
      </trkpt>
      <trkpt lat="50.50057" lon="3.4736">
        <ele>25</ele>
        <time>2022-04-03T07:13:27.242Z</time>
      </trkpt>
      <trkpt lat="50.50059" lon="3.47371">
        <ele>25</ele>
        <time>2022-04-03T07:13:30.000Z</time>
      </trkpt>
      <trkpt lat="50.5006" lon="3.47381">
        <ele>25</ele>
        <time>2022-04-03T07:13:32.462Z</time>
      </trkpt>
      <trkpt lat="50.50061" lon="3.47392">
        <ele>25</ele>
        <time>2022-04-03T07:13:34.884Z</time>
      </trkpt>
      <trkpt lat="50.50062" lon="3.474">
        <ele>25</ele>
        <time>2022-04-03T07:13:36.801Z</time>
      </trkpt>
      <trkpt lat="50.50063" lon="3.4741">
        <ele>25</ele>
        <time>2022-04-03T07:13:38.928Z</time>
      </trkpt>
      <trkpt lat="50.50064" lon="3.4742">
        <ele>25</ele>
        <time>2022-04-03T07:13:40.841Z</time>
      </trkpt>
      <trkpt lat="50.50064" lon="3.47429">
        <ele>25</ele>
        <time>2022-04-03T07:13:42.962Z</time>
      </trkpt>
      <trkpt lat="50.50065" lon="3.4744">
        <ele>25</ele>
        <time>2022-04-03T07:13:45.174Z</time>
      </trkpt>
      <trkpt lat="50.50066" lon="3.47451">
        <ele>25</ele>
        <time>2022-04-03T07:13:47.642Z</time>
      </trkpt>
      <trkpt lat="50.50067" lon="3.47462">
        <ele>25</ele>
        <time>2022-04-03T07:13:49.941Z</time>
      </trkpt>
      <trkpt lat="50.50068" lon="3.47472">
        <ele>25</ele>
        <time>2022-04-03T07:13:51.878Z</time>
      </trkpt>
      <trkpt lat="50.50067" lon="3.47484">
        <ele>25</ele>
        <time>2022-04-03T07:13:54.044Z</time>
      </trkpt>
      <trkpt lat="50.50067" lon="3.47494">
        <ele>25</ele>
        <time>2022-04-03T07:13:55.982Z</time>
      </trkpt>
      <trkpt lat="50.50066" lon="3.47505">
        <ele>25</ele>
        <time>2022-04-03T07:13:58.000Z</time>
      </trkpt>
      <trkpt lat="50.50066" lon="3.47516">
        <ele>25</ele>
        <time>2022-04-03T07:14:00.000Z</time>
      </trkpt>
      <trkpt lat="50.50064" lon="3.47536">
        <ele>25</ele>
        <time>2022-04-03T07:14:03.000Z</time>
      </trkpt>
      <trkpt lat="50.50064" lon="3.47547">
        <ele>25</ele>
        <time>2022-04-03T07:14:04.700Z</time>
      </trkpt>
      <trkpt lat="50.50063" lon="3.47555">
        <ele>25</ele>
        <time>2022-04-03T07:14:06.001Z</time>
      </trkpt>
      <trkpt lat="50.50062" lon="3.47563">
        <ele>25</ele>
        <time>2022-04-03T07:14:07.641Z</time>
      </trkpt>
      <trkpt lat="50.50062" lon="3.47571">
        <ele>25</ele>
        <time>2022-04-03T07:14:09.000Z</time>
      </trkpt>
      <trkpt lat="50.50062" lon="3.47583">
        <ele>25</ele>
        <time>2022-04-03T07:14:11.000Z</time>
      </trkpt>
      <trkpt lat="50.50062" lon="3.47594">
        <ele>25</ele>
        <time>2022-04-03T07:14:13.000Z</time>
      </trkpt>
      <trkpt lat="50.5006" lon="3.47607">
        <ele>25</ele>
        <time>2022-04-03T07:14:15.382Z</time>
      </trkpt>
      <trkpt lat="50.50059" lon="3.47614">
        <ele>25</ele>
        <time>2022-04-03T07:14:16.539Z</time>
      </trkpt>
      <trkpt lat="50.50059" lon="3.47622">
        <ele>25</ele>
        <time>2022-04-03T07:14:17.886Z</time>
      </trkpt>
      <trkpt lat="50.50059" lon="3.47629">
        <ele>25</ele>
        <time>2022-04-03T07:14:19.000Z</time>
      </trkpt>
      <trkpt lat="50.50058" lon="3.47641">
        <ele>24.9</ele>
        <time>2022-04-03T07:14:21.000Z</time>
      </trkpt>
      <trkpt lat="50.50057" lon="3.47653">
        <ele>24.5</ele>
        <time>2022-04-03T07:14:23.041Z</time>
      </trkpt>
      <trkpt lat="50.50056" lon="3.47664">
        <ele>24.1</ele>
        <time>2022-04-03T07:14:25.000Z</time>
      </trkpt>
      <trkpt lat="50.50057" lon="3.47676">
        <ele>24.1</ele>
        <time>2022-04-03T07:14:27.000Z</time>
      </trkpt>
      <trkpt lat="50.50058" lon="3.47687">
        <ele>24.1</ele>
        <time>2022-04-03T07:14:29.000Z</time>
      </trkpt>
      <trkpt lat="50.50057" lon="3.477">
        <ele>24</ele>
        <time>2022-04-03T07:14:31.003Z</time>
      </trkpt>
      <trkpt lat="50.50057" lon="3.47709">
        <ele>24</ele>
        <time>2022-04-03T07:14:32.165Z</time>
      </trkpt>
      <trkpt lat="50.50057" lon="3.47717">
        <ele>24</ele>
        <time>2022-04-03T07:14:33.421Z</time>
      </trkpt>
      <trkpt lat="50.50056" lon="3.4773">
        <ele>23.7</ele>
        <time>2022-04-03T07:14:35.579Z</time>
      </trkpt>
      <trkpt lat="50.50056" lon="3.47739">
        <ele>23.4</ele>
        <time>2022-04-03T07:14:37.019Z</time>
      </trkpt>
      <trkpt lat="50.50055" lon="3.47752">
        <ele>22.9</ele>
        <time>2022-04-03T07:14:39.123Z</time>
      </trkpt>
      <trkpt lat="50.50055" lon="3.47762">
        <ele>22.6</ele>
        <time>2022-04-03T07:14:40.579Z</time>
      </trkpt>
      <trkpt lat="50.50055" lon="3.47769">
        <ele>22.3</ele>
        <time>2022-04-03T07:14:41.660Z</time>
      </trkpt>
      <trkpt lat="50.50054" lon="3.47778">
        <ele>22.1</ele>
        <time>2022-04-03T07:14:43.000Z</time>
      </trkpt>
      <trkpt lat="50.50054" lon="3.47788">
        <ele>22.1</ele>
        <time>2022-04-03T07:14:44.278Z</time>
      </trkpt>
      <trkpt lat="50.50054" lon="3.47797">
        <ele>22.1</ele>
        <time>2022-04-03T07:14:45.227Z</time>
      </trkpt>
      <trkpt lat="50.50051" lon="3.4781">
        <ele>22</ele>
        <time>2022-04-03T07:14:47.000Z</time>
      </trkpt>
      <trkpt lat="50.50051" lon="3.47818">
        <ele>21.7</ele>
        <time>2022-04-03T07:14:48.000Z</time>
      </trkpt>
      <trkpt lat="50.5005" lon="3.47825">
        <ele>21.5</ele>
        <time>2022-04-03T07:14:49.000Z</time>
      </trkpt>
      <trkpt lat="50.50049" lon="3.47834">
        <ele>21.2</ele>
        <time>2022-04-03T07:14:50.000Z</time>
      </trkpt>
      <trkpt lat="50.50047" lon="3.47842">
        <ele>21</ele>
        <time>2022-04-03T07:14:51.000Z</time>
      </trkpt>
      <trkpt lat="50.50045" lon="3.47851">
        <ele>20.7</ele>
        <time>2022-04-03T07:14:52.000Z</time>
      </trkpt>
      <trkpt lat="50.50043" lon="3.47859">
        <ele>20.5</ele>
        <time>2022-04-03T07:14:53.000Z</time>
      </trkpt>
      <trkpt lat="50.5004" lon="3.47869">
        <ele>20.4</ele>
        <time>2022-04-03T07:14:54.000Z</time>
      </trkpt>
      <trkpt lat="50.50038" lon="3.47877">
        <ele>20.3</ele>
        <time>2022-04-03T07:14:55.000Z</time>
      </trkpt>
      <trkpt lat="50.50035" lon="3.47886">
        <ele>20.1</ele>
        <time>2022-04-03T07:14:56.000Z</time>
      </trkpt>
      <trkpt lat="50.50033" lon="3.47894">
        <ele>20</ele>
        <time>2022-04-03T07:14:57.000Z</time>
      </trkpt>
      <trkpt lat="50.5003" lon="3.47901">
        <ele>20</ele>
        <time>2022-04-03T07:14:58.000Z</time>
      </trkpt>
      <trkpt lat="50.50027" lon="3.47909">
        <ele>20</ele>
        <time>2022-04-03T07:14:59.000Z</time>
      </trkpt>
      <trkpt lat="50.50024" lon="3.47917">
        <ele>20.1</ele>
        <time>2022-04-03T07:15:00.000Z</time>
      </trkpt>
      <trkpt lat="50.50021" lon="3.47926">
        <ele>20</ele>
        <time>2022-04-03T07:15:01.000Z</time>
      </trkpt>
      <trkpt lat="50.50018" lon="3.47936">
        <ele>19.9</ele>
        <time>2022-04-03T07:15:02.000Z</time>
      </trkpt>
      <trkpt lat="50.50014" lon="3.47947">
        <ele>19.9</ele>
        <time>2022-04-03T07:15:03.000Z</time>
      </trkpt>
      <trkpt lat="50.50011" lon="3.47957">
        <ele>19.9</ele>
        <time>2022-04-03T07:15:04.000Z</time>
      </trkpt>
      <trkpt lat="50.50007" lon="3.47966">
        <ele>19.9</ele>
        <time>2022-04-03T07:15:05.000Z</time>
      </trkpt>
      <trkpt lat="50.50004" lon="3.47975">
        <ele>19.8</ele>
        <time>2022-04-03T07:15:06.000Z</time>
      </trkpt>
      <trkpt lat="50.5" lon="3.47984">
        <ele>20</ele>
        <time>2022-04-03T07:15:07.000Z</time>
      </trkpt>
      <trkpt lat="50.49997" lon="3.47994">
        <ele>20</ele>
        <time>2022-04-03T07:15:08.000Z</time>
      </trkpt>
      <trkpt lat="50.49993" lon="3.48004">
        <ele>19.9</ele>
        <time>2022-04-03T07:15:09.000Z</time>
      </trkpt>
      <trkpt lat="50.4999" lon="3.48013">
        <ele>19.5</ele>
        <time>2022-04-03T07:15:10.000Z</time>
      </trkpt>
      <trkpt lat="50.49987" lon="3.48021">
        <ele>19.2</ele>
        <time>2022-04-03T07:15:11.000Z</time>
      </trkpt>
      <trkpt lat="50.49983" lon="3.48031">
        <ele>19</ele>
        <time>2022-04-03T07:15:12.000Z</time>
      </trkpt>
      <trkpt lat="50.49979" lon="3.48039">
        <ele>18.9</ele>
        <time>2022-04-03T07:15:13.000Z</time>
      </trkpt>
      <trkpt lat="50.49976" lon="3.48048">
        <ele>18.9</ele>
        <time>2022-04-03T07:15:14.000Z</time>
      </trkpt>
      <trkpt lat="50.49973" lon="3.48057">
        <ele>18.9</ele>
        <time>2022-04-03T07:15:15.000Z</time>
      </trkpt>
      <trkpt lat="50.49969" lon="3.48065">
        <ele>18.6</ele>
        <time>2022-04-03T07:15:16.000Z</time>
      </trkpt>
      <trkpt lat="50.49966" lon="3.48074">
        <ele>18.3</ele>
        <time>2022-04-03T07:15:17.000Z</time>
      </trkpt>
      <trkpt lat="50.49963" lon="3.48082">
        <ele>18</ele>
        <time>2022-04-03T07:15:18.000Z</time>
      </trkpt>
      <trkpt lat="50.4996" lon="3.48091">
        <ele>18</ele>
        <time>2022-04-03T07:15:19.000Z</time>
      </trkpt>
      <trkpt lat="50.49956" lon="3.481">
        <ele>18</ele>
        <time>2022-04-03T07:15:20.000Z</time>
      </trkpt>
      <trkpt lat="50.49954" lon="3.48109">
        <ele>18</ele>
        <time>2022-04-03T07:15:21.000Z</time>
      </trkpt>
      <trkpt lat="50.49951" lon="3.48117">
        <ele>18</ele>
        <time>2022-04-03T07:15:22.000Z</time>
      </trkpt>
      <trkpt lat="50.49948" lon="3.48125">
        <ele>18</ele>
        <time>2022-04-03T07:15:23.000Z</time>
      </trkpt>
      <trkpt lat="50.49945" lon="3.48133">
        <ele>18</ele>
        <time>2022-04-03T07:15:24.000Z</time>
      </trkpt>
      <trkpt lat="50.49942" lon="3.48141">
        <ele>18</ele>
        <time>2022-04-03T07:15:25.000Z</time>
      </trkpt>
      <trkpt lat="50.49939" lon="3.4815">
        <ele>18</ele>
        <time>2022-04-03T07:15:26.000Z</time>
      </trkpt>
      <trkpt lat="50.49936" lon="3.48158">
        <ele>18</ele>
        <time>2022-04-03T07:15:27.000Z</time>
      </trkpt>
      <trkpt lat="50.49933" lon="3.48166">
        <ele>18</ele>
        <time>2022-04-03T07:15:28.000Z</time>
      </trkpt>
      <trkpt lat="50.49931" lon="3.48175">
        <ele>18</ele>
        <time>2022-04-03T07:15:29.000Z</time>
      </trkpt>
      <trkpt lat="50.49928" lon="3.48183">
        <ele>18</ele>
        <time>2022-04-03T07:15:30.000Z</time>
      </trkpt>
      <trkpt lat="50.49925" lon="3.48191">
        <ele>18</ele>
        <time>2022-04-03T07:15:31.000Z</time>
      </trkpt>
      <trkpt lat="50.49923" lon="3.482">
        <ele>18</ele>
        <time>2022-04-03T07:15:32.000Z</time>
      </trkpt>
      <trkpt lat="50.49922" lon="3.48208">
        <ele>18</ele>
        <time>2022-04-03T07:15:33.000Z</time>
      </trkpt>
      <trkpt lat="50.4992" lon="3.48216">
        <ele>18</ele>
        <time>2022-04-03T07:15:34.000Z</time>
      </trkpt>
      <trkpt lat="50.49919" lon="3.48224">
        <ele>18</ele>
        <time>2022-04-03T07:15:35.000Z</time>
      </trkpt>
      <trkpt lat="50.49918" lon="3.48232">
        <ele>18</ele>
        <time>2022-04-03T07:15:36.000Z</time>
      </trkpt>
      <trkpt lat="50.49917" lon="3.4824">
        <ele>18</ele>
        <time>2022-04-03T07:15:37.000Z</time>
      </trkpt>
      <trkpt lat="50.49916" lon="3.48248">
        <ele>18</ele>
        <time>2022-04-03T07:15:38.000Z</time>
      </trkpt>
      <trkpt lat="50.49915" lon="3.48256">
        <ele>17.9</ele>
        <time>2022-04-03T07:15:39.000Z</time>
      </trkpt>
      <trkpt lat="50.49914" lon="3.48265">
        <ele>17.9</ele>
        <time>2022-04-03T07:15:40.000Z</time>
      </trkpt>
      <trkpt lat="50.49914" lon="3.48272">
        <ele>17.9</ele>
        <time>2022-04-03T07:15:41.000Z</time>
      </trkpt>
      <trkpt lat="50.49914" lon="3.4828">
        <ele>17.9</ele>
        <time>2022-04-03T07:15:42.000Z</time>
      </trkpt>
      <trkpt lat="50.49913" lon="3.48287">
        <ele>17.9</ele>
        <time>2022-04-03T07:15:43.000Z</time>
      </trkpt>
      <trkpt lat="50.49913" lon="3.48295">
        <ele>17.9</ele>
        <time>2022-04-03T07:15:44.000Z</time>
      </trkpt>
      <trkpt lat="50.49912" lon="3.48302">
        <ele>17.8</ele>
        <time>2022-04-03T07:15:45.000Z</time>
      </trkpt>
      <trkpt lat="50.4991" lon="3.48316">
        <ele>17.9</ele>
        <time>2022-04-03T07:15:47.000Z</time>
      </trkpt>
      <trkpt lat="50.4991" lon="3.48328">
        <ele>18</ele>
        <time>2022-04-03T07:15:49.000Z</time>
      </trkpt>
      <trkpt lat="50.49909" lon="3.48341">
        <ele>18</ele>
        <time>2022-04-03T07:15:51.000Z</time>
      </trkpt>
      <trkpt lat="50.49907" lon="3.48355">
        <ele>18</ele>
        <time>2022-04-03T07:15:53.000Z</time>
      </trkpt>
      <trkpt lat="50.49907" lon="3.48368">
        <ele>17.8</ele>
        <time>2022-04-03T07:15:55.000Z</time>
      </trkpt>
      <trkpt lat="50.49908" lon="3.48381">
        <ele>17.3</ele>
        <time>2022-04-03T07:15:57.161Z</time>
      </trkpt>
      <trkpt lat="50.49915" lon="3.48389">
        <ele>17</ele>
        <time>2022-04-03T07:15:59.182Z</time>
      </trkpt>
      <trkpt lat="50.49921" lon="3.48393">
        <ele>17</ele>
        <time>2022-04-03T07:16:00.729Z</time>
      </trkpt>
      <trkpt lat="50.49929" lon="3.48397">
        <ele>17</ele>
        <time>2022-04-03T07:16:02.571Z</time>
      </trkpt>
      <trkpt lat="50.49933" lon="3.48401">
        <ele>17</ele>
        <time>2022-04-03T07:16:03.772Z</time>
      </trkpt>
      <trkpt lat="50.49937" lon="3.48408">
        <ele>17</ele>
        <time>2022-04-03T07:16:05.011Z</time>
      </trkpt>
      <trkpt lat="50.49934" lon="3.48423">
        <ele>17</ele>
        <time>2022-04-03T07:16:07.152Z</time>
      </trkpt>
      <trkpt lat="50.49928" lon="3.48439">
        <ele>17</ele>
        <time>2022-04-03T07:16:09.669Z</time>
      </trkpt>
      <trkpt lat="50.49924" lon="3.48447">
        <ele>17</ele>
        <time>2022-04-03T07:16:11.000Z</time>
      </trkpt>
      <trkpt lat="50.49922" lon="3.48454">
        <ele>17</ele>
        <time>2022-04-03T07:16:11.932Z</time>
      </trkpt>
      <trkpt lat="50.4992" lon="3.4846">
        <ele>17</ele>
        <time>2022-04-03T07:16:13.010Z</time>
      </trkpt>
      <trkpt lat="50.49918" lon="3.48471">
        <ele>17</ele>
        <time>2022-04-03T07:16:14.973Z</time>
      </trkpt>
      <trkpt lat="50.49913" lon="3.48485">
        <ele>17</ele>
        <time>2022-04-03T07:16:17.000Z</time>
      </trkpt>
      <trkpt lat="50.49911" lon="3.48492">
        <ele>17</ele>
        <time>2022-04-03T07:16:18.000Z</time>
      </trkpt>
      <trkpt lat="50.49909" lon="3.48499">
        <ele>17</ele>
        <time>2022-04-03T07:16:19.000Z</time>
      </trkpt>
      <trkpt lat="50.49907" lon="3.48506">
        <ele>16.9</ele>
        <time>2022-04-03T07:16:20.000Z</time>
      </trkpt>
      <trkpt lat="50.49906" lon="3.48513">
        <ele>16.7</ele>
        <time>2022-04-03T07:16:21.000Z</time>
      </trkpt>
      <trkpt lat="50.49904" lon="3.4852">
        <ele>16.6</ele>
        <time>2022-04-03T07:16:22.000Z</time>
      </trkpt>
      <trkpt lat="50.49901" lon="3.48527">
        <ele>16.6</ele>
        <time>2022-04-03T07:16:23.000Z</time>
      </trkpt>
      <trkpt lat="50.49899" lon="3.48533">
        <ele>16.6</ele>
        <time>2022-04-03T07:16:24.000Z</time>
      </trkpt>
      <trkpt lat="50.49894" lon="3.48542">
        <ele>16.8</ele>
        <time>2022-04-03T07:16:26.000Z</time>
      </trkpt>
      <trkpt lat="50.49888" lon="3.4855">
        <ele>17</ele>
        <time>2022-04-03T07:16:28.614Z</time>
      </trkpt>
      <trkpt lat="50.4989" lon="3.4856">
        <ele>16.8</ele>
        <time>2022-04-03T07:16:31.896Z</time>
      </trkpt>
      <trkpt lat="50.49894" lon="3.48567">
        <ele>16.5</ele>
        <time>2022-04-03T07:16:34.000Z</time>
      </trkpt>
      <trkpt lat="50.49898" lon="3.48578">
        <ele>16.1</ele>
        <time>2022-04-03T07:16:36.279Z</time>
      </trkpt>
      <trkpt lat="50.49899" lon="3.48585">
        <ele>16</ele>
        <time>2022-04-03T07:16:37.597Z</time>
      </trkpt>
      <trkpt lat="50.49899" lon="3.48598">
        <ele>16</ele>
        <time>2022-04-03T07:16:39.895Z</time>
      </trkpt>
      <trkpt lat="50.49899" lon="3.48606">
        <ele>16</ele>
        <time>2022-04-03T07:16:41.078Z</time>
      </trkpt>
      <trkpt lat="50.49897" lon="3.48617">
        <ele>16</ele>
        <time>2022-04-03T07:16:42.975Z</time>
      </trkpt>
      <trkpt lat="50.49896" lon="3.48629">
        <ele>16</ele>
        <time>2022-04-03T07:16:44.958Z</time>
      </trkpt>
      <trkpt lat="50.49895" lon="3.48641">
        <ele>16</ele>
        <time>2022-04-03T07:16:47.000Z</time>
      </trkpt>
      <trkpt lat="50.49894" lon="3.48653">
        <ele>16</ele>
        <time>2022-04-03T07:16:48.957Z</time>
      </trkpt>
      <trkpt lat="50.49895" lon="3.48666">
        <ele>16</ele>
        <time>2022-04-03T07:16:51.000Z</time>
      </trkpt>
      <trkpt lat="50.49895" lon="3.48678">
        <ele>16</ele>
        <time>2022-04-03T07:16:53.014Z</time>
      </trkpt>
      <trkpt lat="50.49894" lon="3.48692">
        <ele>16</ele>
        <time>2022-04-03T07:16:55.441Z</time>
      </trkpt>
      <trkpt lat="50.49894" lon="3.48701">
        <ele>16</ele>
        <time>2022-04-03T07:16:57.000Z</time>
      </trkpt>
      <trkpt lat="50.49894" lon="3.48713">
        <ele>16</ele>
        <time>2022-04-03T07:16:59.000Z</time>
      </trkpt>
      <trkpt lat="50.49893" lon="3.48725">
        <ele>16</ele>
        <time>2022-04-03T07:17:01.000Z</time>
      </trkpt>
      <trkpt lat="50.49893" lon="3.48735">
        <ele>16</ele>
        <time>2022-04-03T07:17:03.000Z</time>
      </trkpt>
      <trkpt lat="50.49892" lon="3.48747">
        <ele>16</ele>
        <time>2022-04-03T07:17:04.918Z</time>
      </trkpt>
      <trkpt lat="50.49892" lon="3.48759">
        <ele>16</ele>
        <time>2022-04-03T07:17:07.000Z</time>
      </trkpt>
      <trkpt lat="50.49891" lon="3.48777">
        <ele>16</ele>
        <time>2022-04-03T07:17:10.000Z</time>
      </trkpt>
      <trkpt lat="50.49891" lon="3.48789">
        <ele>16</ele>
        <time>2022-04-03T07:17:12.134Z</time>
      </trkpt>
      <trkpt lat="50.49893" lon="3.48802">
        <ele>16</ele>
        <time>2022-04-03T07:17:14.337Z</time>
      </trkpt>
      <trkpt lat="50.49893" lon="3.48811">
        <ele>16</ele>
        <time>2022-04-03T07:17:15.678Z</time>
      </trkpt>
      <trkpt lat="50.49895" lon="3.48818">
        <ele>16</ele>
        <time>2022-04-03T07:17:16.954Z</time>
      </trkpt>
      <trkpt lat="50.49898" lon="3.48831">
        <ele>16</ele>
        <time>2022-04-03T07:17:19.044Z</time>
      </trkpt>
      <trkpt lat="50.49902" lon="3.48841">
        <ele>16.1</ele>
        <time>2022-04-03T07:17:21.165Z</time>
      </trkpt>
      <trkpt lat="50.49906" lon="3.48856">
        <ele>16.3</ele>
        <time>2022-04-03T07:17:24.000Z</time>
      </trkpt>
      <trkpt lat="50.4991" lon="3.48866">
        <ele>16.2</ele>
        <time>2022-04-03T07:17:26.000Z</time>
      </trkpt>
      <trkpt lat="50.49914" lon="3.48877">
        <ele>16.1</ele>
        <time>2022-04-03T07:17:27.939Z</time>
      </trkpt>
      <trkpt lat="50.49916" lon="3.48883">
        <ele>16</ele>
        <time>2022-04-03T07:17:29.000Z</time>
      </trkpt>
      <trkpt lat="50.49921" lon="3.48898">
        <ele>16</ele>
        <time>2022-04-03T07:17:31.000Z</time>
      </trkpt>
      <trkpt lat="50.49922" lon="3.48905">
        <ele>16</ele>
        <time>2022-04-03T07:17:32.000Z</time>
      </trkpt>
      <trkpt lat="50.49923" lon="3.48912">
        <ele>16</ele>
        <time>2022-04-03T07:17:33.000Z</time>
      </trkpt>
      <trkpt lat="50.49924" lon="3.4892">
        <ele>16</ele>
        <time>2022-04-03T07:17:34.000Z</time>
      </trkpt>
      <trkpt lat="50.49924" lon="3.48927">
        <ele>16</ele>
        <time>2022-04-03T07:17:35.000Z</time>
      </trkpt>
      <trkpt lat="50.49923" lon="3.48935">
        <ele>16</ele>
        <time>2022-04-03T07:17:36.000Z</time>
      </trkpt>
      <trkpt lat="50.49921" lon="3.48941">
        <ele>16</ele>
        <time>2022-04-03T07:17:37.000Z</time>
      </trkpt>
      <trkpt lat="50.49918" lon="3.48947">
        <ele>16</ele>
        <time>2022-04-03T07:17:38.000Z</time>
      </trkpt>
      <trkpt lat="50.49914" lon="3.48952">
        <ele>16.1</ele>
        <time>2022-04-03T07:17:39.000Z</time>
      </trkpt>
      <trkpt lat="50.49905" lon="3.48956">
        <ele>16.2</ele>
        <time>2022-04-03T07:17:41.153Z</time>
      </trkpt>
      <trkpt lat="50.49898" lon="3.48957">
        <ele>16.4</ele>
        <time>2022-04-03T07:17:42.927Z</time>
      </trkpt>
      <trkpt lat="50.49892" lon="3.48954">
        <ele>16.6</ele>
        <time>2022-04-03T07:17:45.046Z</time>
      </trkpt>
      <trkpt lat="50.49887" lon="3.48959">
        <ele>16.5</ele>
        <time>2022-04-03T07:17:46.000Z</time>
      </trkpt>
      <trkpt lat="50.49882" lon="3.48963">
        <ele>16.5</ele>
        <time>2022-04-03T07:17:47.000Z</time>
      </trkpt>
      <trkpt lat="50.49877" lon="3.48968">
        <ele>16.5</ele>
        <time>2022-04-03T07:17:48.113Z</time>
      </trkpt>
      <trkpt lat="50.49872" lon="3.48976">
        <ele>16.5</ele>
        <time>2022-04-03T07:17:49.158Z</time>
      </trkpt>
      <trkpt lat="50.49866" lon="3.4898">
        <ele>16.6</ele>
        <time>2022-04-03T07:17:50.945Z</time>
      </trkpt>
      <trkpt lat="50.49858" lon="3.48986">
        <ele>16.6</ele>
        <time>2022-04-03T07:17:53.746Z</time>
      </trkpt>
      <trkpt lat="50.49852" lon="3.4899">
        <ele>16.6</ele>
        <time>2022-04-03T07:17:54.945Z</time>
      </trkpt>
      <trkpt lat="50.49848" lon="3.48994">
        <ele>16.6</ele>
        <time>2022-04-03T07:17:56.063Z</time>
      </trkpt>
      <trkpt lat="50.4984" lon="3.49">
        <ele>16.8</ele>
        <time>2022-04-03T07:17:57.883Z</time>
      </trkpt>
      <trkpt lat="50.49836" lon="3.49005">
        <ele>16.7</ele>
        <time>2022-04-03T07:17:59.000Z</time>
      </trkpt>
      <trkpt lat="50.49833" lon="3.4901">
        <ele>16.6</ele>
        <time>2022-04-03T07:18:00.023Z</time>
      </trkpt>
      <trkpt lat="50.49828" lon="3.49019">
        <ele>16.3</ele>
        <time>2022-04-03T07:18:02.000Z</time>
      </trkpt>
      <trkpt lat="50.49823" lon="3.4903">
        <ele>16</ele>
        <time>2022-04-03T07:18:04.000Z</time>
      </trkpt>
      <trkpt lat="50.49819" lon="3.49041">
        <ele>16</ele>
        <time>2022-04-03T07:18:06.000Z</time>
      </trkpt>
      <trkpt lat="50.49815" lon="3.49053">
        <ele>16</ele>
        <time>2022-04-03T07:18:08.067Z</time>
      </trkpt>
      <trkpt lat="50.49811" lon="3.49064">
        <ele>16</ele>
        <time>2022-04-03T07:18:09.920Z</time>
      </trkpt>
      <trkpt lat="50.49806" lon="3.49076">
        <ele>16</ele>
        <time>2022-04-03T07:18:12.109Z</time>
      </trkpt>
      <trkpt lat="50.49803" lon="3.49086">
        <ele>16</ele>
        <time>2022-04-03T07:18:13.704Z</time>
      </trkpt>
      <trkpt lat="50.49801" lon="3.49092">
        <ele>16.1</ele>
        <time>2022-04-03T07:18:14.843Z</time>
      </trkpt>
      <trkpt lat="50.49796" lon="3.49101">
        <ele>16.2</ele>
        <time>2022-04-03T07:18:15.982Z</time>
      </trkpt>
      <trkpt lat="50.49792" lon="3.49112">
        <ele>16.5</ele>
        <time>2022-04-03T07:18:18.000Z</time>
      </trkpt>
      <trkpt lat="50.49786" lon="3.49123">
        <ele>16.4</ele>
        <time>2022-04-03T07:18:20.153Z</time>
      </trkpt>
      <trkpt lat="50.4978" lon="3.49131">
        <ele>16.3</ele>
        <time>2022-04-03T07:18:22.065Z</time>
      </trkpt>
      <trkpt lat="50.49776" lon="3.49137">
        <ele>16.1</ele>
        <time>2022-04-03T07:18:23.406Z</time>
      </trkpt>
      <trkpt lat="50.49771" lon="3.49145">
        <ele>16.2</ele>
        <time>2022-04-03T07:18:25.562Z</time>
      </trkpt>
      <trkpt lat="50.49766" lon="3.49152">
        <ele>16.5</ele>
        <time>2022-04-03T07:18:27.824Z</time>
      </trkpt>
      <trkpt lat="50.49761" lon="3.49158">
        <ele>16.7</ele>
        <time>2022-04-03T07:18:30.345Z</time>
      </trkpt>
      <trkpt lat="50.49757" lon="3.49162">
        <ele>16.8</ele>
        <time>2022-04-03T07:18:33.000Z</time>
      </trkpt>
      <trkpt lat="50.49758" lon="3.49171">
        <ele>17</ele>
        <time>2022-04-03T07:18:56.000Z</time>
      </trkpt>
      <trkpt lat="50.49761" lon="3.49165">
        <ele>16.9</ele>
        <time>2022-04-03T07:18:59.800Z</time>
      </trkpt>
      <trkpt lat="50.49764" lon="3.49159">
        <ele>16.7</ele>
        <time>2022-04-03T07:19:01.000Z</time>
      </trkpt>
      <trkpt lat="50.4977" lon="3.49151">
        <ele>16.4</ele>
        <time>2022-04-03T07:19:03.000Z</time>
      </trkpt>
      <trkpt lat="50.49775" lon="3.49143">
        <ele>16.1</ele>
        <time>2022-04-03T07:19:05.000Z</time>
      </trkpt>
      <trkpt lat="50.49781" lon="3.49134">
        <ele>16.2</ele>
        <time>2022-04-03T07:19:07.043Z</time>
      </trkpt>
      <trkpt lat="50.49785" lon="3.49128">
        <ele>16.3</ele>
        <time>2022-04-03T07:19:08.602Z</time>
      </trkpt>
      <trkpt lat="50.49788" lon="3.49122">
        <ele>16.4</ele>
        <time>2022-04-03T07:19:10.000Z</time>
      </trkpt>
      <trkpt lat="50.49793" lon="3.49112">
        <ele>16.4</ele>
        <time>2022-04-03T07:19:12.000Z</time>
      </trkpt>
      <trkpt lat="50.49797" lon="3.49102">
        <ele>16.2</ele>
        <time>2022-04-03T07:19:13.925Z</time>
      </trkpt>
      <trkpt lat="50.49802" lon="3.4909">
        <ele>16</ele>
        <time>2022-04-03T07:19:16.185Z</time>
      </trkpt>
      <trkpt lat="50.49804" lon="3.49084">
        <ele>16</ele>
        <time>2022-04-03T07:19:17.322Z</time>
      </trkpt>
      <trkpt lat="50.49807" lon="3.49077">
        <ele>16</ele>
        <time>2022-04-03T07:19:18.493Z</time>
      </trkpt>
      <trkpt lat="50.49812" lon="3.49065">
        <ele>16</ele>
        <time>2022-04-03T07:19:20.681Z</time>
      </trkpt>
      <trkpt lat="50.49816" lon="3.49054">
        <ele>16</ele>
        <time>2022-04-03T07:19:22.700Z</time>
      </trkpt>
      <trkpt lat="50.49819" lon="3.49049">
        <ele>16</ele>
        <time>2022-04-03T07:19:23.862Z</time>
      </trkpt>
      <trkpt lat="50.49822" lon="3.49041">
        <ele>16</ele>
        <time>2022-04-03T07:19:25.283Z</time>
      </trkpt>
      <trkpt lat="50.49825" lon="3.49035">
        <ele>16</ele>
        <time>2022-04-03T07:19:26.443Z</time>
      </trkpt>
      <trkpt lat="50.49828" lon="3.49027">
        <ele>16</ele>
        <time>2022-04-03T07:19:27.903Z</time>
      </trkpt>
      <trkpt lat="50.49831" lon="3.49018">
        <ele>16.3</ele>
        <time>2022-04-03T07:19:29.000Z</time>
      </trkpt>
      <trkpt lat="50.49836" lon="3.49008">
        <ele>16.6</ele>
        <time>2022-04-03T07:19:31.079Z</time>
      </trkpt>
      <trkpt lat="50.4984" lon="3.49003">
        <ele>16.7</ele>
        <time>2022-04-03T07:19:32.148Z</time>
      </trkpt>
      <trkpt lat="50.49844" lon="3.48998">
        <ele>16.6</ele>
        <time>2022-04-03T07:19:33.268Z</time>
      </trkpt>
      <trkpt lat="50.49852" lon="3.48991">
        <ele>16.5</ele>
        <time>2022-04-03T07:19:35.388Z</time>
      </trkpt>
      <trkpt lat="50.49857" lon="3.48988">
        <ele>16.5</ele>
        <time>2022-04-03T07:19:36.670Z</time>
      </trkpt>
      <trkpt lat="50.49861" lon="3.48985">
        <ele>16.5</ele>
        <time>2022-04-03T07:19:37.871Z</time>
      </trkpt>
      <trkpt lat="50.49868" lon="3.48979">
        <ele>16.6</ele>
        <time>2022-04-03T07:19:39.967Z</time>
      </trkpt>
      <trkpt lat="50.49875" lon="3.48974">
        <ele>16.5</ele>
        <time>2022-04-03T07:19:42.310Z</time>
      </trkpt>
      <trkpt lat="50.49885" lon="3.48966">
        <ele>16.3</ele>
        <time>2022-04-03T07:19:44.871Z</time>
      </trkpt>
      <trkpt lat="50.49889" lon="3.48963">
        <ele>16.3</ele>
        <time>2022-04-03T07:19:46.000Z</time>
      </trkpt>
      <trkpt lat="50.49894" lon="3.4896">
        <ele>16.4</ele>
        <time>2022-04-03T07:19:47.000Z</time>
      </trkpt>
      <trkpt lat="50.49902" lon="3.48955">
        <ele>16.3</ele>
        <time>2022-04-03T07:19:49.000Z</time>
      </trkpt>
      <trkpt lat="50.49909" lon="3.48952">
        <ele>16.2</ele>
        <time>2022-04-03T07:19:51.000Z</time>
      </trkpt>
      <trkpt lat="50.49919" lon="3.48946">
        <ele>16</ele>
        <time>2022-04-03T07:19:53.470Z</time>
      </trkpt>
      <trkpt lat="50.49922" lon="3.48939">
        <ele>16</ele>
        <time>2022-04-03T07:19:54.929Z</time>
      </trkpt>
      <trkpt lat="50.49924" lon="3.48927">
        <ele>16</ele>
        <time>2022-04-03T07:19:57.000Z</time>
      </trkpt>
      <trkpt lat="50.49924" lon="3.48915">
        <ele>16</ele>
        <time>2022-04-03T07:19:58.950Z</time>
      </trkpt>
      <trkpt lat="50.49923" lon="3.48908">
        <ele>16</ele>
        <time>2022-04-03T07:20:00.094Z</time>
      </trkpt>
      <trkpt lat="50.49922" lon="3.48901">
        <ele>16</ele>
        <time>2022-04-03T07:20:01.389Z</time>
      </trkpt>
      <trkpt lat="50.49919" lon="3.48889">
        <ele>16</ele>
        <time>2022-04-03T07:20:03.687Z</time>
      </trkpt>
      <trkpt lat="50.49916" lon="3.48879">
        <ele>16</ele>
        <time>2022-04-03T07:20:05.668Z</time>
      </trkpt>
      <trkpt lat="50.49912" lon="3.48869">
        <ele>16.2</ele>
        <time>2022-04-03T07:20:07.651Z</time>
      </trkpt>
      <trkpt lat="50.4991" lon="3.48862">
        <ele>16.2</ele>
        <time>2022-04-03T07:20:08.971Z</time>
      </trkpt>
      <trkpt lat="50.49905" lon="3.48848">
        <ele>16.2</ele>
        <time>2022-04-03T07:20:11.686Z</time>
      </trkpt>
      <trkpt lat="50.49901" lon="3.48838">
        <ele>16.1</ele>
        <time>2022-04-03T07:20:13.770Z</time>
      </trkpt>
      <trkpt lat="50.499" lon="3.48831">
        <ele>16</ele>
        <time>2022-04-03T07:20:14.931Z</time>
      </trkpt>
      <trkpt lat="50.49898" lon="3.48824">
        <ele>16</ele>
        <time>2022-04-03T07:20:16.000Z</time>
      </trkpt>
      <trkpt lat="50.49895" lon="3.48813">
        <ele>16</ele>
        <time>2022-04-03T07:20:18.000Z</time>
      </trkpt>
      <trkpt lat="50.49894" lon="3.48806">
        <ele>16</ele>
        <time>2022-04-03T07:20:19.094Z</time>
      </trkpt>
      <trkpt lat="50.49893" lon="3.48796">
        <ele>16</ele>
        <time>2022-04-03T07:20:20.609Z</time>
      </trkpt>
      <trkpt lat="50.49892" lon="3.48781">
        <ele>16</ele>
        <time>2022-04-03T07:20:23.000Z</time>
      </trkpt>
      <trkpt lat="50.49892" lon="3.48771">
        <ele>16</ele>
        <time>2022-04-03T07:20:24.408Z</time>
      </trkpt>
      <trkpt lat="50.49892" lon="3.48763">
        <ele>16</ele>
        <time>2022-04-03T07:20:25.607Z</time>
      </trkpt>
      <trkpt lat="50.49893" lon="3.48748">
        <ele>16</ele>
        <time>2022-04-03T07:20:27.786Z</time>
      </trkpt>
      <trkpt lat="50.49893" lon="3.48741">
        <ele>16</ele>
        <time>2022-04-03T07:20:29.000Z</time>
      </trkpt>
      <trkpt lat="50.49895" lon="3.48726">
        <ele>16</ele>
        <time>2022-04-03T07:20:31.427Z</time>
      </trkpt>
      <trkpt lat="50.49895" lon="3.48712">
        <ele>16</ele>
        <time>2022-04-03T07:20:33.729Z</time>
      </trkpt>
      <trkpt lat="50.49896" lon="3.48698">
        <ele>16</ele>
        <time>2022-04-03T07:20:36.069Z</time>
      </trkpt>
      <trkpt lat="50.49896" lon="3.4869">
        <ele>16</ele>
        <time>2022-04-03T07:20:37.306Z</time>
      </trkpt>
      <trkpt lat="50.49896" lon="3.4868">
        <ele>16</ele>
        <time>2022-04-03T07:20:38.909Z</time>
      </trkpt>
      <trkpt lat="50.49896" lon="3.48672">
        <ele>16</ele>
        <time>2022-04-03T07:20:40.267Z</time>
      </trkpt>
      <trkpt lat="50.49896" lon="3.48662">
        <ele>16</ele>
        <time>2022-04-03T07:20:42.000Z</time>
      </trkpt>
      <trkpt lat="50.49896" lon="3.4865">
        <ele>16</ele>
        <time>2022-04-03T07:20:44.000Z</time>
      </trkpt>
      <trkpt lat="50.49896" lon="3.48639">
        <ele>16</ele>
        <time>2022-04-03T07:20:45.906Z</time>
      </trkpt>
      <trkpt lat="50.49897" lon="3.48627">
        <ele>16</ele>
        <time>2022-04-03T07:20:48.311Z</time>
      </trkpt>
      <trkpt lat="50.49897" lon="3.48618">
        <ele>16</ele>
        <time>2022-04-03T07:20:49.992Z</time>
      </trkpt>
      <trkpt lat="50.49898" lon="3.48607">
        <ele>16</ele>
        <time>2022-04-03T07:20:51.967Z</time>
      </trkpt>
      <trkpt lat="50.49898" lon="3.48597">
        <ele>16</ele>
        <time>2022-04-03T07:20:54.000Z</time>
      </trkpt>
      <trkpt lat="50.499" lon="3.48587">
        <ele>16</ele>
        <time>2022-04-03T07:20:56.000Z</time>
      </trkpt>
      <trkpt lat="50.49905" lon="3.48584">
        <ele>16</ele>
        <time>2022-04-03T07:20:57.409Z</time>
      </trkpt>
      <trkpt lat="50.4991" lon="3.4858">
        <ele>16</ele>
        <time>2022-04-03T07:20:58.712Z</time>
      </trkpt>
      <trkpt lat="50.49915" lon="3.4857">
        <ele>16</ele>
        <time>2022-04-03T07:21:01.000Z</time>
      </trkpt>
      <trkpt lat="50.49921" lon="3.4856">
        <ele>16</ele>
        <time>2022-04-03T07:21:02.990Z</time>
      </trkpt>
      <trkpt lat="50.49927" lon="3.48552">
        <ele>16</ele>
        <time>2022-04-03T07:21:04.990Z</time>
      </trkpt>
      <trkpt lat="50.49934" lon="3.4855">
        <ele>16</ele>
        <time>2022-04-03T07:21:07.100Z</time>
      </trkpt>
      <trkpt lat="50.49942" lon="3.48549">
        <ele>16</ele>
        <time>2022-04-03T07:21:09.367Z</time>
      </trkpt>
      <trkpt lat="50.49947" lon="3.4855">
        <ele>16</ele>
        <time>2022-04-03T07:21:10.569Z</time>
      </trkpt>
      <trkpt lat="50.49957" lon="3.48551">
        <ele>16</ele>
        <time>2022-04-03T07:21:13.000Z</time>
      </trkpt>
      <trkpt lat="50.49965" lon="3.48553">
        <ele>16</ele>
        <time>2022-04-03T07:21:15.050Z</time>
      </trkpt>
      <trkpt lat="50.4997" lon="3.48555">
        <ele>16</ele>
        <time>2022-04-03T07:21:16.186Z</time>
      </trkpt>
      <trkpt lat="50.49975" lon="3.48556">
        <ele>16</ele>
        <time>2022-04-03T07:21:17.507Z</time>
      </trkpt>
      <trkpt lat="50.49979" lon="3.48556">
        <ele>16</ele>
        <time>2022-04-03T07:21:18.772Z</time>
      </trkpt>
      <trkpt lat="50.49987" lon="3.48553">
        <ele>16</ele>
        <time>2022-04-03T07:21:21.000Z</time>
      </trkpt>
      <trkpt lat="50.49994" lon="3.48545">
        <ele>16</ele>
        <time>2022-04-03T07:21:23.000Z</time>
      </trkpt>
      <trkpt lat="50.5" lon="3.48536">
        <ele>16</ele>
        <time>2022-04-03T07:21:25.105Z</time>
      </trkpt>
      <trkpt lat="50.50004" lon="3.48529">
        <ele>16</ele>
        <time>2022-04-03T07:21:26.786Z</time>
      </trkpt>
      <trkpt lat="50.50009" lon="3.48519">
        <ele>16.2</ele>
        <time>2022-04-03T07:21:29.000Z</time>
      </trkpt>
      <trkpt lat="50.50013" lon="3.4851">
        <ele>16.3</ele>
        <time>2022-04-03T07:21:31.000Z</time>
      </trkpt>
      <trkpt lat="50.50017" lon="3.48499">
        <ele>16.4</ele>
        <time>2022-04-03T07:21:33.000Z</time>
      </trkpt>
      <trkpt lat="50.50022" lon="3.48488">
        <ele>16.2</ele>
        <time>2022-04-03T07:21:35.147Z</time>
      </trkpt>
      <trkpt lat="50.50025" lon="3.4848">
        <ele>16.1</ele>
        <time>2022-04-03T07:21:36.632Z</time>
      </trkpt>
      <trkpt lat="50.50027" lon="3.48473">
        <ele>16</ele>
        <time>2022-04-03T07:21:37.969Z</time>
      </trkpt>
      <trkpt lat="50.5003" lon="3.48462">
        <ele>16</ele>
        <time>2022-04-03T07:21:40.000Z</time>
      </trkpt>
      <trkpt lat="50.50032" lon="3.48455">
        <ele>16</ele>
        <time>2022-04-03T07:21:41.000Z</time>
      </trkpt>
      <trkpt lat="50.50036" lon="3.48446">
        <ele>16</ele>
        <time>2022-04-03T07:21:42.908Z</time>
      </trkpt>
      <trkpt lat="50.5004" lon="3.48434">
        <ele>16</ele>
        <time>2022-04-03T07:21:45.489Z</time>
      </trkpt>
      <trkpt lat="50.50043" lon="3.48427">
        <ele>16</ele>
        <time>2022-04-03T07:21:46.789Z</time>
      </trkpt>
      <trkpt lat="50.50045" lon="3.4842">
        <ele>16</ele>
        <time>2022-04-03T07:21:47.851Z</time>
      </trkpt>
      <trkpt lat="50.50048" lon="3.48413">
        <ele>16</ele>
        <time>2022-04-03T07:21:49.000Z</time>
      </trkpt>
      <trkpt lat="50.50051" lon="3.484">
        <ele>16</ele>
        <time>2022-04-03T07:21:51.000Z</time>
      </trkpt>
      <trkpt lat="50.50056" lon="3.48389">
        <ele>16</ele>
        <time>2022-04-03T07:21:53.000Z</time>
      </trkpt>
      <trkpt lat="50.5006" lon="3.48378">
        <ele>16</ele>
        <time>2022-04-03T07:21:55.000Z</time>
      </trkpt>
      <trkpt lat="50.50063" lon="3.48367">
        <ele>16</ele>
        <time>2022-04-03T07:21:57.054Z</time>
      </trkpt>
      <trkpt lat="50.50066" lon="3.48355">
        <ele>16.1</ele>
        <time>2022-04-03T07:21:59.000Z</time>
      </trkpt>
      <trkpt lat="50.5007" lon="3.48346">
        <ele>16.3</ele>
        <time>2022-04-03T07:22:01.000Z</time>
      </trkpt>
      <trkpt lat="50.50072" lon="3.48337">
        <ele>16.4</ele>
        <time>2022-04-03T07:22:03.083Z</time>
      </trkpt>
      <trkpt lat="50.50076" lon="3.4833">
        <ele>16.4</ele>
        <time>2022-04-03T07:22:05.605Z</time>
      </trkpt>
      <trkpt lat="50.50078" lon="3.4832">
        <ele>16.6</ele>
        <time>2022-04-03T07:22:07.890Z</time>
      </trkpt>
      <trkpt lat="50.5008" lon="3.4831">
        <ele>16.9</ele>
        <time>2022-04-03T07:22:10.008Z</time>
      </trkpt>
      <trkpt lat="50.50081" lon="3.483">
        <ele>17</ele>
        <time>2022-04-03T07:22:12.000Z</time>
      </trkpt>
      <trkpt lat="50.50083" lon="3.48287">
        <ele>17</ele>
        <time>2022-04-03T07:22:14.451Z</time>
      </trkpt>
      <trkpt lat="50.50084" lon="3.48278">
        <ele>17</ele>
        <time>2022-04-03T07:22:16.591Z</time>
      </trkpt>
      <trkpt lat="50.50087" lon="3.48271">
        <ele>17</ele>
        <time>2022-04-03T07:22:20.000Z</time>
      </trkpt>
      <trkpt lat="50.50088" lon="3.48261">
        <ele>17</ele>
        <time>2022-04-03T07:22:23.289Z</time>
      </trkpt>
      <trkpt lat="50.50091" lon="3.48254">
        <ele>17</ele>
        <time>2022-04-03T07:22:26.007Z</time>
      </trkpt>
      <trkpt lat="50.50094" lon="3.48247">
        <ele>17</ele>
        <time>2022-04-03T07:22:28.000Z</time>
      </trkpt>
      <trkpt lat="50.50097" lon="3.4824">
        <ele>17.2</ele>
        <time>2022-04-03T07:22:30.068Z</time>
      </trkpt>
      <trkpt lat="50.50102" lon="3.48228">
        <ele>17.5</ele>
        <time>2022-04-03T07:22:32.807Z</time>
      </trkpt>
      <trkpt lat="50.50105" lon="3.4822">
        <ele>17.8</ele>
        <time>2022-04-03T07:22:34.947Z</time>
      </trkpt>
      <trkpt lat="50.50108" lon="3.48213">
        <ele>17.9</ele>
        <time>2022-04-03T07:22:37.029Z</time>
      </trkpt>
      <trkpt lat="50.50114" lon="3.48204">
        <ele>18</ele>
        <time>2022-04-03T07:22:40.000Z</time>
      </trkpt>
      <trkpt lat="50.50118" lon="3.48198">
        <ele>18</ele>
        <time>2022-04-03T07:22:42.270Z</time>
      </trkpt>
      <trkpt lat="50.50122" lon="3.48194">
        <ele>18</ele>
        <time>2022-04-03T07:22:44.334Z</time>
      </trkpt>
      <trkpt lat="50.50127" lon="3.48188">
        <ele>18</ele>
        <time>2022-04-03T07:22:47.000Z</time>
      </trkpt>
      <trkpt lat="50.50131" lon="3.48184">
        <ele>18</ele>
        <time>2022-04-03T07:22:49.093Z</time>
      </trkpt>
      <trkpt lat="50.50137" lon="3.48177">
        <ele>18</ele>
        <time>2022-04-03T07:22:51.747Z</time>
      </trkpt>
      <trkpt lat="50.50141" lon="3.48172">
        <ele>18</ele>
        <time>2022-04-03T07:22:54.000Z</time>
      </trkpt>
      <trkpt lat="50.50145" lon="3.48166">
        <ele>18</ele>
        <time>2022-04-03T07:22:56.000Z</time>
      </trkpt>
      <trkpt lat="50.50151" lon="3.48158">
        <ele>18</ele>
        <time>2022-04-03T07:22:58.749Z</time>
      </trkpt>
      <trkpt lat="50.50155" lon="3.48154">
        <ele>18</ele>
        <time>2022-04-03T07:23:00.751Z</time>
      </trkpt>
      <trkpt lat="50.50161" lon="3.48149">
        <ele>18</ele>
        <time>2022-04-03T07:23:02.948Z</time>
      </trkpt>
      <trkpt lat="50.50166" lon="3.48144">
        <ele>18</ele>
        <time>2022-04-03T07:23:05.000Z</time>
      </trkpt>
      <trkpt lat="50.50171" lon="3.48142">
        <ele>18.1</ele>
        <time>2022-04-03T07:23:07.072Z</time>
      </trkpt>
      <trkpt lat="50.50177" lon="3.48138">
        <ele>18.4</ele>
        <time>2022-04-03T07:23:09.000Z</time>
      </trkpt>
      <trkpt lat="50.50181" lon="3.48133">
        <ele>18.6</ele>
        <time>2022-04-03T07:23:10.726Z</time>
      </trkpt>
      <trkpt lat="50.50187" lon="3.48129">
        <ele>18.8</ele>
        <time>2022-04-03T07:23:13.000Z</time>
      </trkpt>
      <trkpt lat="50.50193" lon="3.48125">
        <ele>19</ele>
        <time>2022-04-03T07:23:15.000Z</time>
      </trkpt>
      <trkpt lat="50.50199" lon="3.48121">
        <ele>19</ele>
        <time>2022-04-03T07:23:16.990Z</time>
      </trkpt>
      <trkpt lat="50.50203" lon="3.48118">
        <ele>19</ele>
        <time>2022-04-03T07:23:18.550Z</time>
      </trkpt>
      <trkpt lat="50.50207" lon="3.48115">
        <ele>19</ele>
        <time>2022-04-03T07:23:20.000Z</time>
      </trkpt>
      <trkpt lat="50.50215" lon="3.48112">
        <ele>19</ele>
        <time>2022-04-03T07:23:22.888Z</time>
      </trkpt>
      <trkpt lat="50.50219" lon="3.4811">
        <ele>19</ele>
        <time>2022-04-03T07:23:24.990Z</time>
      </trkpt>
      <trkpt lat="50.50225" lon="3.48108">
        <ele>19.1</ele>
        <time>2022-04-03T07:23:27.000Z</time>
      </trkpt>
      <trkpt lat="50.50231" lon="3.48106">
        <ele>19.1</ele>
        <time>2022-04-03T07:23:29.000Z</time>
      </trkpt>
      <trkpt lat="50.50238" lon="3.48105">
        <ele>19.1</ele>
        <time>2022-04-03T07:23:30.932Z</time>
      </trkpt>
      <trkpt lat="50.50245" lon="3.48104">
        <ele>19</ele>
        <time>2022-04-03T07:23:33.000Z</time>
      </trkpt>
      <trkpt lat="50.50252" lon="3.48105">
        <ele>19</ele>
        <time>2022-04-03T07:23:35.000Z</time>
      </trkpt>
      <trkpt lat="50.50258" lon="3.48106">
        <ele>19</ele>
        <time>2022-04-03T07:23:37.008Z</time>
      </trkpt>
      <trkpt lat="50.50263" lon="3.48107">
        <ele>19</ele>
        <time>2022-04-03T07:23:39.026Z</time>
      </trkpt>
      <trkpt lat="50.50268" lon="3.48108">
        <ele>19</ele>
        <time>2022-04-03T07:23:41.000Z</time>
      </trkpt>
      <trkpt lat="50.50275" lon="3.48108">
        <ele>19</ele>
        <time>2022-04-03T07:23:43.906Z</time>
      </trkpt>
      <trkpt lat="50.50279" lon="3.48107">
        <ele>19</ele>
        <time>2022-04-03T07:23:46.000Z</time>
      </trkpt>
      <trkpt lat="50.50286" lon="3.48107">
        <ele>19</ele>
        <time>2022-04-03T07:23:48.650Z</time>
      </trkpt>
      <trkpt lat="50.50294" lon="3.48103">
        <ele>19.2</ele>
        <time>2022-04-03T07:23:51.000Z</time>
      </trkpt>
      <trkpt lat="50.503" lon="3.48099">
        <ele>19.3</ele>
        <time>2022-04-03T07:23:53.000Z</time>
      </trkpt>
      <trkpt lat="50.50307" lon="3.48095">
        <ele>19.6</ele>
        <time>2022-04-03T07:23:55.000Z</time>
      </trkpt>
      <trkpt lat="50.50315" lon="3.48092">
        <ele>19.8</ele>
        <time>2022-04-03T07:23:57.589Z</time>
      </trkpt>
      <trkpt lat="50.50323" lon="3.4809">
        <ele>19.9</ele>
        <time>2022-04-03T07:24:00.000Z</time>
      </trkpt>
      <trkpt lat="50.50329" lon="3.4809">
        <ele>20</ele>
        <time>2022-04-03T07:24:02.009Z</time>
      </trkpt>
      <trkpt lat="50.50336" lon="3.4809">
        <ele>20</ele>
        <time>2022-04-03T07:24:04.000Z</time>
      </trkpt>
      <trkpt lat="50.50345" lon="3.4809">
        <ele>20</ele>
        <time>2022-04-03T07:24:06.272Z</time>
      </trkpt>
      <trkpt lat="50.50353" lon="3.48091">
        <ele>20</ele>
        <time>2022-04-03T07:24:08.771Z</time>
      </trkpt>
      <trkpt lat="50.50361" lon="3.48093">
        <ele>20</ele>
        <time>2022-04-03T07:24:11.000Z</time>
      </trkpt>
      <trkpt lat="50.50367" lon="3.48097">
        <ele>20</ele>
        <time>2022-04-03T07:24:13.000Z</time>
      </trkpt>
      <trkpt lat="50.50374" lon="3.48099">
        <ele>20</ele>
        <time>2022-04-03T07:24:15.000Z</time>
      </trkpt>
      <trkpt lat="50.50381" lon="3.48103">
        <ele>20</ele>
        <time>2022-04-03T07:24:17.408Z</time>
      </trkpt>
      <trkpt lat="50.50389" lon="3.48106">
        <ele>20</ele>
        <time>2022-04-03T07:24:20.010Z</time>
      </trkpt>
      <trkpt lat="50.50395" lon="3.48106">
        <ele>20</ele>
        <time>2022-04-03T07:24:22.030Z</time>
      </trkpt>
      <trkpt lat="50.504" lon="3.48109">
        <ele>20</ele>
        <time>2022-04-03T07:24:24.000Z</time>
      </trkpt>
      <trkpt lat="50.50408" lon="3.4811">
        <ele>20</ele>
        <time>2022-04-03T07:24:26.791Z</time>
      </trkpt>
      <trkpt lat="50.50415" lon="3.48112">
        <ele>20</ele>
        <time>2022-04-03T07:24:29.000Z</time>
      </trkpt>
      <trkpt lat="50.50421" lon="3.48116">
        <ele>20</ele>
        <time>2022-04-03T07:24:31.049Z</time>
      </trkpt>
      <trkpt lat="50.50426" lon="3.48118">
        <ele>19.9</ele>
        <time>2022-04-03T07:24:32.093Z</time>
      </trkpt>
      <trkpt lat="50.50433" lon="3.48121">
        <ele>19.8</ele>
        <time>2022-04-03T07:24:33.750Z</time>
      </trkpt>
      <trkpt lat="50.5044" lon="3.48122">
        <ele>19.7</ele>
        <time>2022-04-03T07:24:36.000Z</time>
      </trkpt>
      <trkpt lat="50.50446" lon="3.48124">
        <ele>19.5</ele>
        <time>2022-04-03T07:24:37.909Z</time>
      </trkpt>
      <trkpt lat="50.50454" lon="3.48125">
        <ele>19.3</ele>
        <time>2022-04-03T07:24:40.000Z</time>
      </trkpt>
      <trkpt lat="50.5046" lon="3.48128">
        <ele>19.2</ele>
        <time>2022-04-03T07:24:42.000Z</time>
      </trkpt>
      <trkpt lat="50.50467" lon="3.48131">
        <ele>19.1</ele>
        <time>2022-04-03T07:24:44.250Z</time>
      </trkpt>
      <trkpt lat="50.50472" lon="3.48132">
        <ele>19</ele>
        <time>2022-04-03T07:24:45.728Z</time>
      </trkpt>
      <trkpt lat="50.50481" lon="3.48134">
        <ele>19</ele>
        <time>2022-04-03T07:24:49.000Z</time>
      </trkpt>
      <trkpt lat="50.50488" lon="3.48136">
        <ele>19</ele>
        <time>2022-04-03T07:24:51.000Z</time>
      </trkpt>
      <trkpt lat="50.50497" lon="3.48139">
        <ele>19</ele>
        <time>2022-04-03T07:24:53.080Z</time>
      </trkpt>
      <trkpt lat="50.50508" lon="3.48142">
        <ele>18.7</ele>
        <time>2022-04-03T07:24:55.867Z</time>
      </trkpt>
      <trkpt lat="50.50514" lon="3.48145">
        <ele>18.5</ele>
        <time>2022-04-03T07:24:57.888Z</time>
      </trkpt>
      <trkpt lat="50.5052" lon="3.48148">
        <ele>18.3</ele>
        <time>2022-04-03T07:24:59.927Z</time>
      </trkpt>
      <trkpt lat="50.50527" lon="3.4815">
        <ele>18</ele>
        <time>2022-04-03T07:25:02.000Z</time>
      </trkpt>
      <trkpt lat="50.50537" lon="3.48152">
        <ele>18</ele>
        <time>2022-04-03T07:25:04.608Z</time>
      </trkpt>
      <trkpt lat="50.50542" lon="3.48152">
        <ele>18</ele>
        <time>2022-04-03T07:25:06.000Z</time>
      </trkpt>
      <trkpt lat="50.50548" lon="3.48154">
        <ele>18</ele>
        <time>2022-04-03T07:25:08.029Z</time>
      </trkpt>
      <trkpt lat="50.50554" lon="3.48156">
        <ele>18</ele>
        <time>2022-04-03T07:25:10.000Z</time>
      </trkpt>
      <trkpt lat="50.5056" lon="3.48159">
        <ele>18</ele>
        <time>2022-04-03T07:25:12.107Z</time>
      </trkpt>
      <trkpt lat="50.50568" lon="3.48161">
        <ele>18</ele>
        <time>2022-04-03T07:25:15.000Z</time>
      </trkpt>
      <trkpt lat="50.50574" lon="3.48162">
        <ele>18</ele>
        <time>2022-04-03T07:25:17.000Z</time>
      </trkpt>
      <trkpt lat="50.5058" lon="3.48164">
        <ele>18</ele>
        <time>2022-04-03T07:25:19.000Z</time>
      </trkpt>
      <trkpt lat="50.50586" lon="3.48166">
        <ele>18</ele>
        <time>2022-04-03T07:25:21.000Z</time>
      </trkpt>
      <trkpt lat="50.50591" lon="3.48167">
        <ele>18</ele>
        <time>2022-04-03T07:25:22.469Z</time>
      </trkpt>
      <trkpt lat="50.50599" lon="3.48167">
        <ele>18</ele>
        <time>2022-04-03T07:25:24.667Z</time>
      </trkpt>
      <trkpt lat="50.50606" lon="3.48167">
        <ele>18</ele>
        <time>2022-04-03T07:25:27.000Z</time>
      </trkpt>
      <trkpt lat="50.50613" lon="3.48167">
        <ele>18</ele>
        <time>2022-04-03T07:25:29.000Z</time>
      </trkpt>
      <trkpt lat="50.5062" lon="3.48169">
        <ele>18</ele>
        <time>2022-04-03T07:25:31.080Z</time>
      </trkpt>
      <trkpt lat="50.50626" lon="3.48171">
        <ele>18.1</ele>
        <time>2022-04-03T07:25:33.670Z</time>
      </trkpt>
      <trkpt lat="50.50633" lon="3.48173">
        <ele>18.2</ele>
        <time>2022-04-03T07:25:35.888Z</time>
      </trkpt>
      <trkpt lat="50.50639" lon="3.48175">
        <ele>18.3</ele>
        <time>2022-04-03T07:25:38.000Z</time>
      </trkpt>
      <trkpt lat="50.50646" lon="3.48175">
        <ele>18.5</ele>
        <time>2022-04-03T07:25:40.088Z</time>
      </trkpt>
      <trkpt lat="50.50654" lon="3.48175">
        <ele>18.7</ele>
        <time>2022-04-03T07:25:42.347Z</time>
      </trkpt>
      <trkpt lat="50.50658" lon="3.48174">
        <ele>18.8</ele>
        <time>2022-04-03T07:25:43.690Z</time>
      </trkpt>
      <trkpt lat="50.50666" lon="3.48174">
        <ele>19</ele>
        <time>2022-04-03T07:25:45.687Z</time>
      </trkpt>
      <trkpt lat="50.50673" lon="3.48175">
        <ele>19</ele>
        <time>2022-04-03T07:25:48.000Z</time>
      </trkpt>
      <trkpt lat="50.50679" lon="3.48176">
        <ele>19</ele>
        <time>2022-04-03T07:25:50.092Z</time>
      </trkpt>
      <trkpt lat="50.50686" lon="3.48178">
        <ele>19</ele>
        <time>2022-04-03T07:25:52.213Z</time>
      </trkpt>
      <trkpt lat="50.50691" lon="3.48178">
        <ele>19</ele>
        <time>2022-04-03T07:25:53.591Z</time>
      </trkpt>
      <trkpt lat="50.50695" lon="3.48178">
        <ele>19</ele>
        <time>2022-04-03T07:25:54.867Z</time>
      </trkpt>
      <trkpt lat="50.50702" lon="3.48177">
        <ele>19</ele>
        <time>2022-04-03T07:25:57.051Z</time>
      </trkpt>
      <trkpt lat="50.50707" lon="3.48175">
        <ele>19</ele>
        <time>2022-04-03T07:25:59.000Z</time>
      </trkpt>
      <trkpt lat="50.50712" lon="3.48174">
        <ele>19</ele>
        <time>2022-04-03T07:26:01.000Z</time>
      </trkpt>
      <trkpt lat="50.5072" lon="3.4817">
        <ele>19</ele>
        <time>2022-04-03T07:26:03.827Z</time>
      </trkpt>
      <trkpt lat="50.50726" lon="3.48167">
        <ele>19</ele>
        <time>2022-04-03T07:26:06.000Z</time>
      </trkpt>
      <trkpt lat="50.50731" lon="3.48165">
        <ele>19</ele>
        <time>2022-04-03T07:26:08.000Z</time>
      </trkpt>
      <trkpt lat="50.50736" lon="3.48163">
        <ele>19</ele>
        <time>2022-04-03T07:26:10.047Z</time>
      </trkpt>
      <trkpt lat="50.50741" lon="3.48163">
        <ele>19</ele>
        <time>2022-04-03T07:26:12.028Z</time>
      </trkpt>
      <trkpt lat="50.50747" lon="3.48165">
        <ele>19</ele>
        <time>2022-04-03T07:26:15.000Z</time>
      </trkpt>
      <trkpt lat="50.50752" lon="3.48166">
        <ele>19</ele>
        <time>2022-04-03T07:26:17.000Z</time>
      </trkpt>
      <trkpt lat="50.50758" lon="3.48169">
        <ele>19</ele>
        <time>2022-04-03T07:26:19.299Z</time>
      </trkpt>
      <trkpt lat="50.50763" lon="3.48172">
        <ele>19</ele>
        <time>2022-04-03T07:26:21.387Z</time>
      </trkpt>
      <trkpt lat="50.50769" lon="3.48177">
        <ele>19</ele>
        <time>2022-04-03T07:26:23.930Z</time>
      </trkpt>
      <trkpt lat="50.50776" lon="3.48179">
        <ele>19</ele>
        <time>2022-04-03T07:26:26.000Z</time>
      </trkpt>
      <trkpt lat="50.50782" lon="3.4818">
        <ele>19</ele>
        <time>2022-04-03T07:26:28.000Z</time>
      </trkpt>
      <trkpt lat="50.50789" lon="3.48182">
        <ele>19</ele>
        <time>2022-04-03T07:26:30.049Z</time>
      </trkpt>
      <trkpt lat="50.50794" lon="3.48185">
        <ele>19</ele>
        <time>2022-04-03T07:26:32.000Z</time>
      </trkpt>
      <trkpt lat="50.50801" lon="3.48186">
        <ele>19</ele>
        <time>2022-04-03T07:26:34.430Z</time>
      </trkpt>
      <trkpt lat="50.50807" lon="3.48185">
        <ele>19</ele>
        <time>2022-04-03T07:26:36.932Z</time>
      </trkpt>
      <trkpt lat="50.50815" lon="3.48182">
        <ele>19</ele>
        <time>2022-04-03T07:26:39.889Z</time>
      </trkpt>
      <trkpt lat="50.50821" lon="3.4818">
        <ele>19</ele>
        <time>2022-04-03T07:26:42.000Z</time>
      </trkpt>
      <trkpt lat="50.50826" lon="3.48177">
        <ele>19</ele>
        <time>2022-04-03T07:26:44.000Z</time>
      </trkpt>
      <trkpt lat="50.50833" lon="3.48174">
        <ele>19</ele>
        <time>2022-04-03T07:26:46.000Z</time>
      </trkpt>
      <trkpt lat="50.50838" lon="3.48171">
        <ele>19</ele>
        <time>2022-04-03T07:26:48.000Z</time>
      </trkpt>
      <trkpt lat="50.50845" lon="3.48167">
        <ele>19</ele>
        <time>2022-04-03T07:26:50.000Z</time>
      </trkpt>
      <trkpt lat="50.50852" lon="3.48163">
        <ele>19</ele>
        <time>2022-04-03T07:26:52.010Z</time>
      </trkpt>
      <trkpt lat="50.50858" lon="3.4816">
        <ele>19</ele>
        <time>2022-04-03T07:26:54.000Z</time>
      </trkpt>
      <trkpt lat="50.50864" lon="3.48158">
        <ele>19</ele>
        <time>2022-04-03T07:26:55.887Z</time>
      </trkpt>
      <trkpt lat="50.5087" lon="3.48156">
        <ele>19</ele>
        <time>2022-04-03T07:26:57.867Z</time>
      </trkpt>
      <trkpt lat="50.50877" lon="3.48153">
        <ele>19</ele>
        <time>2022-04-03T07:27:00.000Z</time>
      </trkpt>
      <trkpt lat="50.50884" lon="3.48152">
        <ele>19</ele>
        <time>2022-04-03T07:27:01.986Z</time>
      </trkpt>
      <trkpt lat="50.50891" lon="3.48151">
        <ele>19</ele>
        <time>2022-04-03T07:27:03.929Z</time>
      </trkpt>
      <trkpt lat="50.50898" lon="3.48156">
        <ele>19</ele>
        <time>2022-04-03T07:27:06.000Z</time>
      </trkpt>
      <trkpt lat="50.50904" lon="3.48163">
        <ele>19</ele>
        <time>2022-04-03T07:27:08.000Z</time>
      </trkpt>
      <trkpt lat="50.5091" lon="3.4817">
        <ele>19</ele>
        <time>2022-04-03T07:27:10.000Z</time>
      </trkpt>
      <trkpt lat="50.50917" lon="3.48178">
        <ele>19</ele>
        <time>2022-04-03T07:27:12.000Z</time>
      </trkpt>
      <trkpt lat="50.50923" lon="3.48185">
        <ele>19</ele>
        <time>2022-04-03T07:27:13.950Z</time>
      </trkpt>
      <trkpt lat="50.50927" lon="3.4819">
        <ele>19</ele>
        <time>2022-04-03T07:27:15.169Z</time>
      </trkpt>
      <trkpt lat="50.50935" lon="3.482">
        <ele>19</ele>
        <time>2022-04-03T07:27:17.908Z</time>
      </trkpt>
      <trkpt lat="50.50941" lon="3.48208">
        <ele>19</ele>
        <time>2022-04-03T07:27:20.000Z</time>
      </trkpt>
      <trkpt lat="50.50947" lon="3.48214">
        <ele>19</ele>
        <time>2022-04-03T07:27:22.008Z</time>
      </trkpt>
      <trkpt lat="50.50952" lon="3.4822">
        <ele>19</ele>
        <time>2022-04-03T07:27:24.000Z</time>
      </trkpt>
      <trkpt lat="50.50957" lon="3.48226">
        <ele>19</ele>
        <time>2022-04-03T07:27:26.029Z</time>
      </trkpt>
      <trkpt lat="50.50962" lon="3.48229">
        <ele>19</ele>
        <time>2022-04-03T07:27:27.671Z</time>
      </trkpt>
      <trkpt lat="50.5097" lon="3.4823">
        <ele>19</ele>
        <time>2022-04-03T07:27:30.047Z</time>
      </trkpt>
      <trkpt lat="50.50976" lon="3.48228">
        <ele>19</ele>
        <time>2022-04-03T07:27:32.000Z</time>
      </trkpt>
      <trkpt lat="50.50982" lon="3.48225">
        <ele>19</ele>
        <time>2022-04-03T07:27:34.000Z</time>
      </trkpt>
      <trkpt lat="50.50987" lon="3.48222">
        <ele>19</ele>
        <time>2022-04-03T07:27:35.930Z</time>
      </trkpt>
      <trkpt lat="50.50993" lon="3.4822">
        <ele>19</ele>
        <time>2022-04-03T07:27:38.052Z</time>
      </trkpt>
      <trkpt lat="50.51002" lon="3.48221">
        <ele>19.1</ele>
        <time>2022-04-03T07:27:41.000Z</time>
      </trkpt>
      <trkpt lat="50.5101" lon="3.48223">
        <ele>19.4</ele>
        <time>2022-04-03T07:27:43.527Z</time>
      </trkpt>
      <trkpt lat="50.51015" lon="3.48226">
        <ele>19.6</ele>
        <time>2022-04-03T07:27:45.086Z</time>
      </trkpt>
      <trkpt lat="50.51022" lon="3.48229">
        <ele>19.8</ele>
        <time>2022-04-03T07:27:47.586Z</time>
      </trkpt>
      <trkpt lat="50.51027" lon="3.4823">
        <ele>20</ele>
        <time>2022-04-03T07:27:49.808Z</time>
      </trkpt>
      <trkpt lat="50.51033" lon="3.48233">
        <ele>20.1</ele>
        <time>2022-04-03T07:27:52.000Z</time>
      </trkpt>
      <trkpt lat="50.5104" lon="3.48237">
        <ele>20.2</ele>
        <time>2022-04-03T07:27:55.000Z</time>
      </trkpt>
      <trkpt lat="50.51047" lon="3.4824">
        <ele>20.4</ele>
        <time>2022-04-03T07:27:57.968Z</time>
      </trkpt>
      <trkpt lat="50.51052" lon="3.48243">
        <ele>20.7</ele>
        <time>2022-04-03T07:27:59.929Z</time>
      </trkpt>
      <trkpt lat="50.51057" lon="3.48246">
        <ele>20.9</ele>
        <time>2022-04-03T07:28:01.886Z</time>
      </trkpt>
      <trkpt lat="50.51061" lon="3.48249">
        <ele>21</ele>
        <time>2022-04-03T07:28:04.000Z</time>
      </trkpt>
      <trkpt lat="50.51065" lon="3.48253">
        <ele>21</ele>
        <time>2022-04-03T07:28:06.000Z</time>
      </trkpt>
      <trkpt lat="50.51068" lon="3.4826">
        <ele>21.2</ele>
        <time>2022-04-03T07:28:08.000Z</time>
      </trkpt>
      <trkpt lat="50.51071" lon="3.48268">
        <ele>21.4</ele>
        <time>2022-04-03T07:28:10.000Z</time>
      </trkpt>
      <trkpt lat="50.51074" lon="3.48275">
        <ele>21.6</ele>
        <time>2022-04-03T07:28:12.000Z</time>
      </trkpt>
      <trkpt lat="50.51077" lon="3.48282">
        <ele>21.7</ele>
        <time>2022-04-03T07:28:14.307Z</time>
      </trkpt>
      <trkpt lat="50.51079" lon="3.48291">
        <ele>21.4</ele>
        <time>2022-04-03T07:28:17.050Z</time>
      </trkpt>
      <trkpt lat="50.51081" lon="3.48301">
        <ele>21.2</ele>
        <time>2022-04-03T07:28:20.000Z</time>
      </trkpt>
      <trkpt lat="50.51085" lon="3.48309">
        <ele>21.1</ele>
        <time>2022-04-03T07:28:23.000Z</time>
      </trkpt>
      <trkpt lat="50.51088" lon="3.48316">
        <ele>21.2</ele>
        <time>2022-04-03T07:28:26.000Z</time>
      </trkpt>
      <trkpt lat="50.51091" lon="3.48322">
        <ele>21.3</ele>
        <time>2022-04-03T07:28:28.000Z</time>
      </trkpt>
      <trkpt lat="50.51094" lon="3.48329">
        <ele>21.4</ele>
        <time>2022-04-03T07:28:30.000Z</time>
      </trkpt>
      <trkpt lat="50.511" lon="3.48331">
        <ele>21.6</ele>
        <time>2022-04-03T07:28:33.000Z</time>
      </trkpt>
      <trkpt lat="50.51102" lon="3.48322">
        <ele>21.7</ele>
        <time>2022-04-03T07:28:35.000Z</time>
      </trkpt>
      <trkpt lat="50.51106" lon="3.48316">
        <ele>21.8</ele>
        <time>2022-04-03T07:28:37.000Z</time>
      </trkpt>
      <trkpt lat="50.51111" lon="3.48304">
        <ele>22</ele>
        <time>2022-04-03T07:28:40.000Z</time>
      </trkpt>
      <trkpt lat="50.51113" lon="3.48297">
        <ele>22</ele>
        <time>2022-04-03T07:28:42.000Z</time>
      </trkpt>
      <trkpt lat="50.51116" lon="3.4829">
        <ele>22.1</ele>
        <time>2022-04-03T07:28:44.000Z</time>
      </trkpt>
      <trkpt lat="50.51119" lon="3.48281">
        <ele>22</ele>
        <time>2022-04-03T07:28:46.000Z</time>
      </trkpt>
      <trkpt lat="50.51122" lon="3.48272">
        <ele>22</ele>
        <time>2022-04-03T07:28:47.987Z</time>
      </trkpt>
      <trkpt lat="50.51125" lon="3.48264">
        <ele>22</ele>
        <time>2022-04-03T07:28:50.000Z</time>
      </trkpt>
      <trkpt lat="50.51128" lon="3.48255">
        <ele>22</ele>
        <time>2022-04-03T07:28:52.000Z</time>
      </trkpt>
      <trkpt lat="50.51131" lon="3.48248">
        <ele>22</ele>
        <time>2022-04-03T07:28:54.000Z</time>
      </trkpt>
      <trkpt lat="50.51135" lon="3.48237">
        <ele>22</ele>
        <time>2022-04-03T07:28:56.531Z</time>
      </trkpt>
      <trkpt lat="50.51138" lon="3.48226">
        <ele>22</ele>
        <time>2022-04-03T07:28:59.006Z</time>
      </trkpt>
      <trkpt lat="50.51139" lon="3.48217">
        <ele>22</ele>
        <time>2022-04-03T07:29:01.000Z</time>
      </trkpt>
      <trkpt lat="50.5114" lon="3.48207">
        <ele>22</ele>
        <time>2022-04-03T07:29:03.000Z</time>
      </trkpt>
      <trkpt lat="50.51139" lon="3.48198">
        <ele>22</ele>
        <time>2022-04-03T07:29:05.000Z</time>
      </trkpt>
      <trkpt lat="50.51141" lon="3.48189">
        <ele>22.1</ele>
        <time>2022-04-03T07:29:07.000Z</time>
      </trkpt>
      <trkpt lat="50.51142" lon="3.4818">
        <ele>22.1</ele>
        <time>2022-04-03T07:29:09.000Z</time>
      </trkpt>
      <trkpt lat="50.51143" lon="3.4817">
        <ele>22.1</ele>
        <time>2022-04-03T07:29:10.768Z</time>
      </trkpt>
      <trkpt lat="50.51142" lon="3.48159">
        <ele>22.1</ele>
        <time>2022-04-03T07:29:13.000Z</time>
      </trkpt>
      <trkpt lat="50.51142" lon="3.48148">
        <ele>22.1</ele>
        <time>2022-04-03T07:29:15.000Z</time>
      </trkpt>
      <trkpt lat="50.5114" lon="3.48136">
        <ele>22</ele>
        <time>2022-04-03T07:29:17.429Z</time>
      </trkpt>
      <trkpt lat="50.51138" lon="3.48125">
        <ele>22</ele>
        <time>2022-04-03T07:29:19.950Z</time>
      </trkpt>
      <trkpt lat="50.51137" lon="3.48114">
        <ele>22</ele>
        <time>2022-04-03T07:29:22.000Z</time>
      </trkpt>
      <trkpt lat="50.51135" lon="3.48105">
        <ele>22</ele>
        <time>2022-04-03T07:29:24.000Z</time>
      </trkpt>
      <trkpt lat="50.51135" lon="3.48096">
        <ele>21.9</ele>
        <time>2022-04-03T07:29:26.000Z</time>
      </trkpt>
      <trkpt lat="50.51135" lon="3.48086">
        <ele>21.9</ele>
        <time>2022-04-03T07:29:28.000Z</time>
      </trkpt>
      <trkpt lat="50.51135" lon="3.48073">
        <ele>21.9</ele>
        <time>2022-04-03T07:29:30.488Z</time>
      </trkpt>
      <trkpt lat="50.51134" lon="3.48066">
        <ele>21.9</ele>
        <time>2022-04-03T07:29:31.968Z</time>
      </trkpt>
      <trkpt lat="50.51134" lon="3.48055">
        <ele>22</ele>
        <time>2022-04-03T07:29:34.000Z</time>
      </trkpt>
      <trkpt lat="50.51133" lon="3.48045">
        <ele>22</ele>
        <time>2022-04-03T07:29:35.907Z</time>
      </trkpt>
      <trkpt lat="50.51133" lon="3.48035">
        <ele>22</ele>
        <time>2022-04-03T07:29:38.000Z</time>
      </trkpt>
      <trkpt lat="50.51132" lon="3.48024">
        <ele>22</ele>
        <time>2022-04-03T07:29:40.000Z</time>
      </trkpt>
      <trkpt lat="50.51131" lon="3.48014">
        <ele>22</ele>
        <time>2022-04-03T07:29:42.000Z</time>
      </trkpt>
      <trkpt lat="50.5113" lon="3.48004">
        <ele>22</ele>
        <time>2022-04-03T07:29:44.000Z</time>
      </trkpt>
      <trkpt lat="50.51127" lon="3.4799">
        <ele>22</ele>
        <time>2022-04-03T07:29:47.000Z</time>
      </trkpt>
      <trkpt lat="50.51127" lon="3.47982">
        <ele>22</ele>
        <time>2022-04-03T07:29:48.327Z</time>
      </trkpt>
      <trkpt lat="50.51126" lon="3.47974">
        <ele>22</ele>
        <time>2022-04-03T07:29:50.000Z</time>
      </trkpt>
      <trkpt lat="50.51125" lon="3.47962">
        <ele>21.8</ele>
        <time>2022-04-03T07:29:52.000Z</time>
      </trkpt>
      <trkpt lat="50.51124" lon="3.47951">
        <ele>21.6</ele>
        <time>2022-04-03T07:29:54.048Z</time>
      </trkpt>
      <trkpt lat="50.51125" lon="3.47941">
        <ele>21.5</ele>
        <time>2022-04-03T07:29:56.370Z</time>
      </trkpt>
      <trkpt lat="50.51126" lon="3.47933">
        <ele>21.5</ele>
        <time>2022-04-03T07:29:58.631Z</time>
      </trkpt>
      <trkpt lat="50.51124" lon="3.47926">
        <ele>21.5</ele>
        <time>2022-04-03T07:30:02.009Z</time>
      </trkpt>
      <trkpt lat="50.5112" lon="3.47932">
        <ele>21.3</ele>
        <time>2022-04-03T07:30:04.000Z</time>
      </trkpt>
      <trkpt lat="50.5112" lon="3.47944">
        <ele>21.3</ele>
        <time>2022-04-03T07:30:06.000Z</time>
      </trkpt>
      <trkpt lat="50.5112" lon="3.47958">
        <ele>21.7</ele>
        <time>2022-04-03T07:30:08.030Z</time>
      </trkpt>
      <trkpt lat="50.51122" lon="3.47971">
        <ele>22</ele>
        <time>2022-04-03T07:30:10.000Z</time>
      </trkpt>
      <trkpt lat="50.51124" lon="3.47983">
        <ele>22</ele>
        <time>2022-04-03T07:30:12.000Z</time>
      </trkpt>
      <trkpt lat="50.51125" lon="3.47994">
        <ele>22</ele>
        <time>2022-04-03T07:30:14.000Z</time>
      </trkpt>
      <trkpt lat="50.51127" lon="3.48005">
        <ele>22</ele>
        <time>2022-04-03T07:30:16.000Z</time>
      </trkpt>
      <trkpt lat="50.51129" lon="3.48016">
        <ele>22</ele>
        <time>2022-04-03T07:30:18.000Z</time>
      </trkpt>
      <trkpt lat="50.5113" lon="3.48026">
        <ele>22</ele>
        <time>2022-04-03T07:30:20.000Z</time>
      </trkpt>
      <trkpt lat="50.51137" lon="3.48026">
        <ele>22</ele>
        <time>2022-04-03T07:30:23.000Z</time>
      </trkpt>
      <trkpt lat="50.51141" lon="3.48024">
        <ele>22.1</ele>
        <time>2022-04-03T07:30:25.000Z</time>
      </trkpt>
      <trkpt lat="50.51146" lon="3.48027">
        <ele>22.3</ele>
        <time>2022-04-03T07:30:27.000Z</time>
      </trkpt>
      <trkpt lat="50.51152" lon="3.4803">
        <ele>22.5</ele>
        <time>2022-04-03T07:30:30.000Z</time>
      </trkpt>
      <trkpt lat="50.51157" lon="3.48035">
        <ele>22.7</ele>
        <time>2022-04-03T07:30:32.082Z</time>
      </trkpt>
      <trkpt lat="50.51165" lon="3.4804">
        <ele>22.9</ele>
        <time>2022-04-03T07:30:35.000Z</time>
      </trkpt>
      <trkpt lat="50.51171" lon="3.48043">
        <ele>23</ele>
        <time>2022-04-03T07:30:37.609Z</time>
      </trkpt>
      <trkpt lat="50.51177" lon="3.48047">
        <ele>23</ele>
        <time>2022-04-03T07:30:41.052Z</time>
      </trkpt>
      <trkpt lat="50.51182" lon="3.4805">
        <ele>23</ele>
        <time>2022-04-03T07:30:43.192Z</time>
      </trkpt>
      <trkpt lat="50.51188" lon="3.48055">
        <ele>23</ele>
        <time>2022-04-03T07:30:45.566Z</time>
      </trkpt>
      <trkpt lat="50.51194" lon="3.48059">
        <ele>23</ele>
        <time>2022-04-03T07:30:48.000Z</time>
      </trkpt>
      <trkpt lat="50.51198" lon="3.48055">
        <ele>23.1</ele>
        <time>2022-04-03T07:30:51.008Z</time>
      </trkpt>
      <trkpt lat="50.512" lon="3.48046">
        <ele>23.2</ele>
        <time>2022-04-03T07:30:53.049Z</time>
      </trkpt>
      <trkpt lat="50.51201" lon="3.48037">
        <ele>23.2</ele>
        <time>2022-04-03T07:30:54.829Z</time>
      </trkpt>
      <trkpt lat="50.51203" lon="3.48026">
        <ele>23.4</ele>
        <time>2022-04-03T07:30:57.000Z</time>
      </trkpt>
      <trkpt lat="50.51205" lon="3.48017">
        <ele>23.6</ele>
        <time>2022-04-03T07:30:59.000Z</time>
      </trkpt>
      <trkpt lat="50.51206" lon="3.48008">
        <ele>23.8</ele>
        <time>2022-04-03T07:31:02.488Z</time>
      </trkpt>
      <trkpt lat="50.51208" lon="3.47998">
        <ele>24</ele>
        <time>2022-04-03T07:31:06.000Z</time>
      </trkpt>
      <trkpt lat="50.5121" lon="3.4799">
        <ele>23.8</ele>
        <time>2022-04-03T07:31:08.000Z</time>
      </trkpt>
      <trkpt lat="50.51212" lon="3.47981">
        <ele>23.7</ele>
        <time>2022-04-03T07:31:10.069Z</time>
      </trkpt>
      <trkpt lat="50.51214" lon="3.47973">
        <ele>23.7</ele>
        <time>2022-04-03T07:31:11.928Z</time>
      </trkpt>
      <trkpt lat="50.51217" lon="3.47966">
        <ele>24</ele>
        <time>2022-04-03T07:31:13.790Z</time>
      </trkpt>
      <trkpt lat="50.51218" lon="3.47958">
        <ele>24.4</ele>
        <time>2022-04-03T07:31:16.000Z</time>
      </trkpt>
      <trkpt lat="50.5122" lon="3.47948">
        <ele>24.8</ele>
        <time>2022-04-03T07:31:19.107Z</time>
      </trkpt>
      <trkpt lat="50.51222" lon="3.47939">
        <ele>25</ele>
        <time>2022-04-03T07:31:21.829Z</time>
      </trkpt>
      <trkpt lat="50.51224" lon="3.47929">
        <ele>25</ele>
        <time>2022-04-03T07:31:25.000Z</time>
      </trkpt>
      <trkpt lat="50.51226" lon="3.4792">
        <ele>25</ele>
        <time>2022-04-03T07:31:28.000Z</time>
      </trkpt>
      <trkpt lat="50.51229" lon="3.47913">
        <ele>25</ele>
        <time>2022-04-03T07:31:30.289Z</time>
      </trkpt>
      <trkpt lat="50.5123" lon="3.47905">
        <ele>25.1</ele>
        <time>2022-04-03T07:31:32.828Z</time>
      </trkpt>
      <trkpt lat="50.51228" lon="3.47917">
        <ele>25</ele>
        <time>2022-04-03T07:32:28.788Z</time>
      </trkpt>
      <trkpt lat="50.51226" lon="3.47925">
        <ele>25</ele>
        <time>2022-04-03T07:32:30.000Z</time>
      </trkpt>
      <trkpt lat="50.51224" lon="3.47934">
        <ele>25</ele>
        <time>2022-04-03T07:32:32.189Z</time>
      </trkpt>
      <trkpt lat="50.51222" lon="3.47945">
        <ele>25</ele>
        <time>2022-04-03T07:32:35.070Z</time>
      </trkpt>
      <trkpt lat="50.5122" lon="3.47955">
        <ele>24.5</ele>
        <time>2022-04-03T07:32:38.007Z</time>
      </trkpt>
      <trkpt lat="50.51218" lon="3.47963">
        <ele>24.2</ele>
        <time>2022-04-03T07:32:40.110Z</time>
      </trkpt>
      <trkpt lat="50.51216" lon="3.47971">
        <ele>23.8</ele>
        <time>2022-04-03T07:32:42.249Z</time>
      </trkpt>
      <trkpt lat="50.51213" lon="3.4798">
        <ele>23.8</ele>
        <time>2022-04-03T07:32:44.731Z</time>
      </trkpt>
      <trkpt lat="50.51212" lon="3.47989">
        <ele>23.9</ele>
        <time>2022-04-03T07:32:47.000Z</time>
      </trkpt>
      <trkpt lat="50.51209" lon="3.47998">
        <ele>24</ele>
        <time>2022-04-03T07:32:49.000Z</time>
      </trkpt>
      <trkpt lat="50.51208" lon="3.48007">
        <ele>23.9</ele>
        <time>2022-04-03T07:32:51.629Z</time>
      </trkpt>
      <trkpt lat="50.51205" lon="3.48021">
        <ele>23.5</ele>
        <time>2022-04-03T07:32:54.891Z</time>
      </trkpt>
      <trkpt lat="50.51202" lon="3.48032">
        <ele>23.3</ele>
        <time>2022-04-03T07:32:57.027Z</time>
      </trkpt>
      <trkpt lat="50.51199" lon="3.48043">
        <ele>23.2</ele>
        <time>2022-04-03T07:32:59.490Z</time>
      </trkpt>
      <trkpt lat="50.51196" lon="3.48054">
        <ele>23.1</ele>
        <time>2022-04-03T07:33:01.729Z</time>
      </trkpt>
      <trkpt lat="50.51193" lon="3.48062">
        <ele>23</ele>
        <time>2022-04-03T07:33:04.000Z</time>
      </trkpt>
      <trkpt lat="50.51187" lon="3.48057">
        <ele>23</ele>
        <time>2022-04-03T07:33:06.000Z</time>
      </trkpt>
      <trkpt lat="50.51182" lon="3.48052">
        <ele>23</ele>
        <time>2022-04-03T07:33:08.000Z</time>
      </trkpt>
      <trkpt lat="50.51177" lon="3.48047">
        <ele>23</ele>
        <time>2022-04-03T07:33:10.008Z</time>
      </trkpt>
      <trkpt lat="50.51171" lon="3.48044">
        <ele>23</ele>
        <time>2022-04-03T07:33:11.873Z</time>
      </trkpt>
      <trkpt lat="50.51165" lon="3.48039">
        <ele>22.9</ele>
        <time>2022-04-03T07:33:14.000Z</time>
      </trkpt>
      <trkpt lat="50.51158" lon="3.48035">
        <ele>22.7</ele>
        <time>2022-04-03T07:33:16.000Z</time>
      </trkpt>
      <trkpt lat="50.5115" lon="3.4803">
        <ele>22.4</ele>
        <time>2022-04-03T07:33:18.508Z</time>
      </trkpt>
      <trkpt lat="50.51145" lon="3.48026">
        <ele>22.2</ele>
        <time>2022-04-03T07:33:20.000Z</time>
      </trkpt>
      <trkpt lat="50.51137" lon="3.48021">
        <ele>22</ele>
        <time>2022-04-03T07:33:22.000Z</time>
      </trkpt>
      <trkpt lat="50.51131" lon="3.48013">
        <ele>22</ele>
        <time>2022-04-03T07:33:23.927Z</time>
      </trkpt>
      <trkpt lat="50.51129" lon="3.48006">
        <ele>22</ele>
        <time>2022-04-03T07:33:25.000Z</time>
      </trkpt>
      <trkpt lat="50.51128" lon="3.47993">
        <ele>22</ele>
        <time>2022-04-03T07:33:26.950Z</time>
      </trkpt>
      <trkpt lat="50.51126" lon="3.47981">
        <ele>22</ele>
        <time>2022-04-03T07:33:29.000Z</time>
      </trkpt>
      <trkpt lat="50.51126" lon="3.47966">
        <ele>21.9</ele>
        <time>2022-04-03T07:33:30.985Z</time>
      </trkpt>
      <trkpt lat="50.51125" lon="3.47952">
        <ele>21.6</ele>
        <time>2022-04-03T07:33:33.000Z</time>
      </trkpt>
      <trkpt lat="50.51126" lon="3.47938">
        <ele>21.5</ele>
        <time>2022-04-03T07:33:35.000Z</time>
      </trkpt>
      <trkpt lat="50.51125" lon="3.47923">
        <ele>21.5</ele>
        <time>2022-04-03T07:33:37.289Z</time>
      </trkpt>
      <trkpt lat="50.51125" lon="3.47912">
        <ele>21.6</ele>
        <time>2022-04-03T07:33:39.000Z</time>
      </trkpt>
      <trkpt lat="50.51126" lon="3.47899">
        <ele>21.8</ele>
        <time>2022-04-03T07:33:41.000Z</time>
      </trkpt>
      <trkpt lat="50.51126" lon="3.47886">
        <ele>22.1</ele>
        <time>2022-04-03T07:33:42.949Z</time>
      </trkpt>
      <trkpt lat="50.51125" lon="3.47874">
        <ele>22.3</ele>
        <time>2022-04-03T07:33:45.117Z</time>
      </trkpt>
      <trkpt lat="50.51124" lon="3.47861">
        <ele>22.5</ele>
        <time>2022-04-03T07:33:47.428Z</time>
      </trkpt>
      <trkpt lat="50.51123" lon="3.47854">
        <ele>22.4</ele>
        <time>2022-04-03T07:33:48.627Z</time>
      </trkpt>
      <trkpt lat="50.51121" lon="3.47846">
        <ele>22.4</ele>
        <time>2022-04-03T07:33:50.000Z</time>
      </trkpt>
      <trkpt lat="50.51118" lon="3.47836">
        <ele>22.2</ele>
        <time>2022-04-03T07:33:51.867Z</time>
      </trkpt>
      <trkpt lat="50.51113" lon="3.47826">
        <ele>22.1</ele>
        <time>2022-04-03T07:33:54.081Z</time>
      </trkpt>
      <trkpt lat="50.51105" lon="3.47815">
        <ele>22</ele>
        <time>2022-04-03T07:33:56.927Z</time>
      </trkpt>
      <trkpt lat="50.51099" lon="3.47808">
        <ele>22</ele>
        <time>2022-04-03T07:33:59.047Z</time>
      </trkpt>
      <trkpt lat="50.51092" lon="3.47801">
        <ele>22.1</ele>
        <time>2022-04-03T07:34:01.000Z</time>
      </trkpt>
      <trkpt lat="50.51086" lon="3.47793">
        <ele>22</ele>
        <time>2022-04-03T07:34:03.000Z</time>
      </trkpt>
      <trkpt lat="50.51082" lon="3.47781">
        <ele>22</ele>
        <time>2022-04-03T07:34:05.387Z</time>
      </trkpt>
      <trkpt lat="50.51081" lon="3.47772">
        <ele>22</ele>
        <time>2022-04-03T07:34:06.848Z</time>
      </trkpt>
      <trkpt lat="50.51081" lon="3.47765">
        <ele>22</ele>
        <time>2022-04-03T07:34:08.000Z</time>
      </trkpt>
      <trkpt lat="50.51085" lon="3.47754">
        <ele>22.1</ele>
        <time>2022-04-03T07:34:09.889Z</time>
      </trkpt>
      <trkpt lat="50.51089" lon="3.47744">
        <ele>22.4</ele>
        <time>2022-04-03T07:34:12.000Z</time>
      </trkpt>
      <trkpt lat="50.51092" lon="3.47735">
        <ele>22.7</ele>
        <time>2022-04-03T07:34:14.000Z</time>
      </trkpt>
      <trkpt lat="50.51095" lon="3.47726">
        <ele>22.9</ele>
        <time>2022-04-03T07:34:15.712Z</time>
      </trkpt>
      <trkpt lat="50.51098" lon="3.47715">
        <ele>23</ele>
        <time>2022-04-03T07:34:18.000Z</time>
      </trkpt>
      <trkpt lat="50.51101" lon="3.47705">
        <ele>23</ele>
        <time>2022-04-03T07:34:19.849Z</time>
      </trkpt>
      <trkpt lat="50.51104" lon="3.47693">
        <ele>23</ele>
        <time>2022-04-03T07:34:22.072Z</time>
      </trkpt>
      <trkpt lat="50.51106" lon="3.47686">
        <ele>23.1</ele>
        <time>2022-04-03T07:34:23.409Z</time>
      </trkpt>
      <trkpt lat="50.51108" lon="3.47673">
        <ele>23.1</ele>
        <time>2022-04-03T07:34:26.000Z</time>
      </trkpt>
      <trkpt lat="50.5111" lon="3.47662">
        <ele>23</ele>
        <time>2022-04-03T07:34:27.988Z</time>
      </trkpt>
      <trkpt lat="50.5111" lon="3.47652">
        <ele>23</ele>
        <time>2022-04-03T07:34:30.000Z</time>
      </trkpt>
      <trkpt lat="50.51111" lon="3.47642">
        <ele>23</ele>
        <time>2022-04-03T07:34:32.000Z</time>
      </trkpt>
      <trkpt lat="50.51111" lon="3.47633">
        <ele>23.2</ele>
        <time>2022-04-03T07:34:34.000Z</time>
      </trkpt>
      <trkpt lat="50.5111" lon="3.47625">
        <ele>23.5</ele>
        <time>2022-04-03T07:34:35.711Z</time>
      </trkpt>
      <trkpt lat="50.51109" lon="3.47613">
        <ele>23.9</ele>
        <time>2022-04-03T07:34:37.909Z</time>
      </trkpt>
      <trkpt lat="50.51108" lon="3.47603">
        <ele>24</ele>
        <time>2022-04-03T07:34:40.000Z</time>
      </trkpt>
      <trkpt lat="50.51105" lon="3.47594">
        <ele>24</ele>
        <time>2022-04-03T07:34:42.000Z</time>
      </trkpt>
      <trkpt lat="50.51101" lon="3.47583">
        <ele>24</ele>
        <time>2022-04-03T07:34:44.531Z</time>
      </trkpt>
      <trkpt lat="50.51097" lon="3.47574">
        <ele>24</ele>
        <time>2022-04-03T07:34:46.786Z</time>
      </trkpt>
      <trkpt lat="50.51091" lon="3.47566">
        <ele>24</ele>
        <time>2022-04-03T07:34:49.000Z</time>
      </trkpt>
      <trkpt lat="50.51086" lon="3.47557">
        <ele>24</ele>
        <time>2022-04-03T07:34:51.000Z</time>
      </trkpt>
      <trkpt lat="50.5108" lon="3.47546">
        <ele>24</ele>
        <time>2022-04-03T07:34:53.809Z</time>
      </trkpt>
      <trkpt lat="50.51072" lon="3.47536">
        <ele>24.3</ele>
        <time>2022-04-03T07:34:56.908Z</time>
      </trkpt>
      <trkpt lat="50.51066" lon="3.47529">
        <ele>24.6</ele>
        <time>2022-04-03T07:34:59.000Z</time>
      </trkpt>
      <trkpt lat="50.51059" lon="3.47521">
        <ele>24.9</ele>
        <time>2022-04-03T07:35:02.000Z</time>
      </trkpt>
      <trkpt lat="50.51051" lon="3.47513">
        <ele>25</ele>
        <time>2022-04-03T07:35:05.000Z</time>
      </trkpt>
      <trkpt lat="50.51045" lon="3.47508">
        <ele>25</ele>
        <time>2022-04-03T07:35:07.000Z</time>
      </trkpt>
      <trkpt lat="50.5104" lon="3.47501">
        <ele>25</ele>
        <time>2022-04-03T07:35:09.000Z</time>
      </trkpt>
      <trkpt lat="50.51035" lon="3.47496">
        <ele>25</ele>
        <time>2022-04-03T07:35:11.000Z</time>
      </trkpt>
      <trkpt lat="50.5103" lon="3.4749">
        <ele>25</ele>
        <time>2022-04-03T07:35:13.000Z</time>
      </trkpt>
      <trkpt lat="50.51024" lon="3.47484">
        <ele>25.1</ele>
        <time>2022-04-03T07:35:15.000Z</time>
      </trkpt>
      <trkpt lat="50.51019" lon="3.47478">
        <ele>25.3</ele>
        <time>2022-04-03T07:35:17.000Z</time>
      </trkpt>
      <trkpt lat="50.51015" lon="3.4747">
        <ele>25.5</ele>
        <time>2022-04-03T07:35:19.000Z</time>
      </trkpt>
      <trkpt lat="50.51011" lon="3.47463">
        <ele>25.6</ele>
        <time>2022-04-03T07:35:21.000Z</time>
      </trkpt>
      <trkpt lat="50.51008" lon="3.47454">
        <ele>25.7</ele>
        <time>2022-04-03T07:35:23.000Z</time>
      </trkpt>
      <trkpt lat="50.51008" lon="3.47442">
        <ele>25.7</ele>
        <time>2022-04-03T07:35:25.000Z</time>
      </trkpt>
      <trkpt lat="50.51009" lon="3.47432">
        <ele>25.7</ele>
        <time>2022-04-03T07:35:27.000Z</time>
      </trkpt>
      <trkpt lat="50.51011" lon="3.47422">
        <ele>25.6</ele>
        <time>2022-04-03T07:35:29.000Z</time>
      </trkpt>
      <trkpt lat="50.51015" lon="3.47413">
        <ele>25.5</ele>
        <time>2022-04-03T07:35:31.000Z</time>
      </trkpt>
      <trkpt lat="50.5102" lon="3.47401">
        <ele>25.3</ele>
        <time>2022-04-03T07:35:33.769Z</time>
      </trkpt>
      <trkpt lat="50.51024" lon="3.47391">
        <ele>25.1</ele>
        <time>2022-04-03T07:35:36.000Z</time>
      </trkpt>
      <trkpt lat="50.51028" lon="3.4738">
        <ele>25</ele>
        <time>2022-04-03T07:35:38.328Z</time>
      </trkpt>
      <trkpt lat="50.5103" lon="3.47372">
        <ele>25</ele>
        <time>2022-04-03T07:35:40.000Z</time>
      </trkpt>
      <trkpt lat="50.51034" lon="3.47363">
        <ele>25</ele>
        <time>2022-04-03T07:35:42.000Z</time>
      </trkpt>
      <trkpt lat="50.51038" lon="3.47353">
        <ele>25</ele>
        <time>2022-04-03T07:35:44.000Z</time>
      </trkpt>
      <trkpt lat="50.51042" lon="3.47344">
        <ele>25</ele>
        <time>2022-04-03T07:35:46.000Z</time>
      </trkpt>
      <trkpt lat="50.51045" lon="3.47335">
        <ele>25</ele>
        <time>2022-04-03T07:35:48.000Z</time>
      </trkpt>
      <trkpt lat="50.5105" lon="3.47324">
        <ele>25.1</ele>
        <time>2022-04-03T07:35:50.000Z</time>
      </trkpt>
      <trkpt lat="50.51053" lon="3.47314">
        <ele>25.1</ele>
        <time>2022-04-03T07:35:52.000Z</time>
      </trkpt>
      <trkpt lat="50.51058" lon="3.47304">
        <ele>25</ele>
        <time>2022-04-03T07:35:54.000Z</time>
      </trkpt>
      <trkpt lat="50.51061" lon="3.47294">
        <ele>25</ele>
        <time>2022-04-03T07:35:55.888Z</time>
      </trkpt>
      <trkpt lat="50.51064" lon="3.47288">
        <ele>25</ele>
        <time>2022-04-03T07:35:57.082Z</time>
      </trkpt>
      <trkpt lat="50.51067" lon="3.47278">
        <ele>25</ele>
        <time>2022-04-03T07:35:58.907Z</time>
      </trkpt>
      <trkpt lat="50.51074" lon="3.47267">
        <ele>25</ele>
        <time>2022-04-03T07:36:01.408Z</time>
      </trkpt>
      <trkpt lat="50.51078" lon="3.47266">
        <ele>25</ele>
        <time>2022-04-03T07:36:02.607Z</time>
      </trkpt>
      <trkpt lat="50.51084" lon="3.47268">
        <ele>25</ele>
        <time>2022-04-03T07:36:04.000Z</time>
      </trkpt>
      <trkpt lat="50.51091" lon="3.47271">
        <ele>25</ele>
        <time>2022-04-03T07:36:05.985Z</time>
      </trkpt>
      <trkpt lat="50.51096" lon="3.47273">
        <ele>25</ele>
        <time>2022-04-03T07:36:07.268Z</time>
      </trkpt>
      <trkpt lat="50.51103" lon="3.47273">
        <ele>25</ele>
        <time>2022-04-03T07:36:09.352Z</time>
      </trkpt>
      <trkpt lat="50.51112" lon="3.47275">
        <ele>25</ele>
        <time>2022-04-03T07:36:11.751Z</time>
      </trkpt>
      <trkpt lat="50.51116" lon="3.47276">
        <ele>25</ele>
        <time>2022-04-03T07:36:13.008Z</time>
      </trkpt>
      <trkpt lat="50.51124" lon="3.47278">
        <ele>25</ele>
        <time>2022-04-03T07:36:14.930Z</time>
      </trkpt>
      <trkpt lat="50.51134" lon="3.47281">
        <ele>25</ele>
        <time>2022-04-03T07:36:17.851Z</time>
      </trkpt>
      <trkpt lat="50.51142" lon="3.47284">
        <ele>25</ele>
        <time>2022-04-03T07:36:19.892Z</time>
      </trkpt>
      <trkpt lat="50.51151" lon="3.47288">
        <ele>25</ele>
        <time>2022-04-03T07:36:22.467Z</time>
      </trkpt>
      <trkpt lat="50.51156" lon="3.4729">
        <ele>25</ele>
        <time>2022-04-03T07:36:23.711Z</time>
      </trkpt>
      <trkpt lat="50.51161" lon="3.47292">
        <ele>25</ele>
        <time>2022-04-03T07:36:25.000Z</time>
      </trkpt>
      <trkpt lat="50.51167" lon="3.47295">
        <ele>25</ele>
        <time>2022-04-03T07:36:26.989Z</time>
      </trkpt>
      <trkpt lat="50.51173" lon="3.473">
        <ele>25</ele>
        <time>2022-04-03T07:36:29.000Z</time>
      </trkpt>
      <trkpt lat="50.5118" lon="3.47304">
        <ele>25</ele>
        <time>2022-04-03T07:36:31.000Z</time>
      </trkpt>
      <trkpt lat="50.51186" lon="3.4731">
        <ele>25</ele>
        <time>2022-04-03T07:36:33.000Z</time>
      </trkpt>
      <trkpt lat="50.51192" lon="3.47316">
        <ele>25</ele>
        <time>2022-04-03T07:36:35.368Z</time>
      </trkpt>
      <trkpt lat="50.51196" lon="3.4732">
        <ele>25</ele>
        <time>2022-04-03T07:36:36.789Z</time>
      </trkpt>
      <trkpt lat="50.51201" lon="3.47328">
        <ele>25</ele>
        <time>2022-04-03T07:36:38.987Z</time>
      </trkpt>
      <trkpt lat="50.51206" lon="3.47335">
        <ele>25</ele>
        <time>2022-04-03T07:36:41.000Z</time>
      </trkpt>
      <trkpt lat="50.51212" lon="3.47343">
        <ele>25</ele>
        <time>2022-04-03T07:36:43.000Z</time>
      </trkpt>
      <trkpt lat="50.51217" lon="3.4735">
        <ele>25</ele>
        <time>2022-04-03T07:36:44.930Z</time>
      </trkpt>
      <trkpt lat="50.51221" lon="3.47355">
        <ele>25</ele>
        <time>2022-04-03T07:36:46.571Z</time>
      </trkpt>
      <trkpt lat="50.51226" lon="3.47364">
        <ele>25.1</ele>
        <time>2022-04-03T07:36:48.828Z</time>
      </trkpt>
      <trkpt lat="50.51231" lon="3.47371">
        <ele>25.2</ele>
        <time>2022-04-03T07:36:51.000Z</time>
      </trkpt>
      <trkpt lat="50.51236" lon="3.47378">
        <ele>25.3</ele>
        <time>2022-04-03T07:36:53.000Z</time>
      </trkpt>
      <trkpt lat="50.51241" lon="3.47385">
        <ele>25.3</ele>
        <time>2022-04-03T07:36:55.228Z</time>
      </trkpt>
      <trkpt lat="50.51245" lon="3.47394">
        <ele>25.3</ele>
        <time>2022-04-03T07:36:57.445Z</time>
      </trkpt>
      <trkpt lat="50.51249" lon="3.47398">
        <ele>25.4</ele>
        <time>2022-04-03T07:36:58.928Z</time>
      </trkpt>
      <trkpt lat="50.51253" lon="3.47404">
        <ele>25.5</ele>
        <time>2022-04-03T07:37:01.000Z</time>
      </trkpt>
      <trkpt lat="50.51258" lon="3.47411">
        <ele>25.8</ele>
        <time>2022-04-03T07:37:03.081Z</time>
      </trkpt>
      <trkpt lat="50.51261" lon="3.47417">
        <ele>26</ele>
        <time>2022-04-03T07:37:04.985Z</time>
      </trkpt>
      <trkpt lat="50.51266" lon="3.47425">
        <ele>26.1</ele>
        <time>2022-04-03T07:37:07.467Z</time>
      </trkpt>
      <trkpt lat="50.51271" lon="3.47432">
        <ele>26.1</ele>
        <time>2022-04-03T07:37:10.000Z</time>
      </trkpt>
      <trkpt lat="50.51275" lon="3.47438">
        <ele>26.1</ele>
        <time>2022-04-03T07:37:12.000Z</time>
      </trkpt>
      <trkpt lat="50.51279" lon="3.47446">
        <ele>26.1</ele>
        <time>2022-04-03T07:37:14.529Z</time>
      </trkpt>
      <trkpt lat="50.51284" lon="3.47453">
        <ele>26.2</ele>
        <time>2022-04-03T07:37:16.732Z</time>
      </trkpt>
      <trkpt lat="50.51288" lon="3.4746">
        <ele>26.4</ele>
        <time>2022-04-03T07:37:19.000Z</time>
      </trkpt>
      <trkpt lat="50.51293" lon="3.47467">
        <ele>26.4</ele>
        <time>2022-04-03T07:37:21.000Z</time>
      </trkpt>
      <trkpt lat="50.51297" lon="3.47473">
        <ele>26.3</ele>
        <time>2022-04-03T07:37:23.112Z</time>
      </trkpt>
      <trkpt lat="50.513" lon="3.4748">
        <ele>26.2</ele>
        <time>2022-04-03T07:37:24.827Z</time>
      </trkpt>
      <trkpt lat="50.51304" lon="3.47487">
        <ele>26.1</ele>
        <time>2022-04-03T07:37:27.000Z</time>
      </trkpt>
      <trkpt lat="50.51308" lon="3.47495">
        <ele>26</ele>
        <time>2022-04-03T07:37:29.000Z</time>
      </trkpt>
      <trkpt lat="50.51312" lon="3.47502">
        <ele>26.1</ele>
        <time>2022-04-03T07:37:31.000Z</time>
      </trkpt>
      <trkpt lat="50.51316" lon="3.47509">
        <ele>26.2</ele>
        <time>2022-04-03T07:37:33.000Z</time>
      </trkpt>
      <trkpt lat="50.5132" lon="3.47515">
        <ele>26.3</ele>
        <time>2022-04-03T07:37:34.910Z</time>
      </trkpt>
      <trkpt lat="50.51324" lon="3.47523">
        <ele>26.3</ele>
        <time>2022-04-03T07:37:37.000Z</time>
      </trkpt>
      <trkpt lat="50.51328" lon="3.47531">
        <ele>26.3</ele>
        <time>2022-04-03T07:37:39.011Z</time>
      </trkpt>
      <trkpt lat="50.51332" lon="3.47537">
        <ele>26.4</ele>
        <time>2022-04-03T07:37:41.000Z</time>
      </trkpt>
      <trkpt lat="50.51338" lon="3.47543">
        <ele>26.7</ele>
        <time>2022-04-03T07:37:43.228Z</time>
      </trkpt>
      <trkpt lat="50.51345" lon="3.47544">
        <ele>27</ele>
        <time>2022-04-03T07:37:45.682Z</time>
      </trkpt>
      <trkpt lat="50.5135" lon="3.47529">
        <ele>26.6</ele>
        <time>2022-04-03T07:37:48.000Z</time>
      </trkpt>
      <trkpt lat="50.51352" lon="3.47522">
        <ele>26.7</ele>
        <time>2022-04-03T07:37:49.000Z</time>
      </trkpt>
      <trkpt lat="50.51354" lon="3.47515">
        <ele>26.7</ele>
        <time>2022-04-03T07:37:50.000Z</time>
      </trkpt>
      <trkpt lat="50.51356" lon="3.47508">
        <ele>26.8</ele>
        <time>2022-04-03T07:37:51.000Z</time>
      </trkpt>
      <trkpt lat="50.51358" lon="3.475">
        <ele>26.9</ele>
        <time>2022-04-03T07:37:52.000Z</time>
      </trkpt>
      <trkpt lat="50.5136" lon="3.47493">
        <ele>27</ele>
        <time>2022-04-03T07:37:53.000Z</time>
      </trkpt>
      <trkpt lat="50.51363" lon="3.47486">
        <ele>27</ele>
        <time>2022-04-03T07:37:54.000Z</time>
      </trkpt>
      <trkpt lat="50.51365" lon="3.47479">
        <ele>26.9</ele>
        <time>2022-04-03T07:37:55.000Z</time>
      </trkpt>
      <trkpt lat="50.51368" lon="3.47472">
        <ele>26.7</ele>
        <time>2022-04-03T07:37:56.000Z</time>
      </trkpt>
      <trkpt lat="50.51371" lon="3.47464">
        <ele>26.5</ele>
        <time>2022-04-03T07:37:57.000Z</time>
      </trkpt>
      <trkpt lat="50.51373" lon="3.47457">
        <ele>26.3</ele>
        <time>2022-04-03T07:37:58.000Z</time>
      </trkpt>
      <trkpt lat="50.51376" lon="3.47449">
        <ele>26.1</ele>
        <time>2022-04-03T07:37:59.000Z</time>
      </trkpt>
      <trkpt lat="50.51378" lon="3.47442">
        <ele>25.9</ele>
        <time>2022-04-03T07:38:00.000Z</time>
      </trkpt>
      <trkpt lat="50.5138" lon="3.47434">
        <ele>25.7</ele>
        <time>2022-04-03T07:38:01.000Z</time>
      </trkpt>
      <trkpt lat="50.51383" lon="3.47427">
        <ele>25.5</ele>
        <time>2022-04-03T07:38:02.000Z</time>
      </trkpt>
      <trkpt lat="50.51385" lon="3.4742">
        <ele>25.2</ele>
        <time>2022-04-03T07:38:03.000Z</time>
      </trkpt>
      <trkpt lat="50.51388" lon="3.47412">
        <ele>25</ele>
        <time>2022-04-03T07:38:04.000Z</time>
      </trkpt>
      <trkpt lat="50.5139" lon="3.47405">
        <ele>25</ele>
        <time>2022-04-03T07:38:05.000Z</time>
      </trkpt>
      <trkpt lat="50.51392" lon="3.47397">
        <ele>25</ele>
        <time>2022-04-03T07:38:06.000Z</time>
      </trkpt>
      <trkpt lat="50.51395" lon="3.47389">
        <ele>25</ele>
        <time>2022-04-03T07:38:07.000Z</time>
      </trkpt>
      <trkpt lat="50.51397" lon="3.47382">
        <ele>25</ele>
        <time>2022-04-03T07:38:08.000Z</time>
      </trkpt>
      <trkpt lat="50.514" lon="3.47374">
        <ele>25</ele>
        <time>2022-04-03T07:38:09.000Z</time>
      </trkpt>
      <trkpt lat="50.51403" lon="3.47366">
        <ele>25</ele>
        <time>2022-04-03T07:38:10.000Z</time>
      </trkpt>
      <trkpt lat="50.51405" lon="3.47359">
        <ele>24.9</ele>
        <time>2022-04-03T07:38:11.000Z</time>
      </trkpt>
      <trkpt lat="50.51408" lon="3.47352">
        <ele>24.7</ele>
        <time>2022-04-03T07:38:12.000Z</time>
      </trkpt>
      <trkpt lat="50.51412" lon="3.47345">
        <ele>24.4</ele>
        <time>2022-04-03T07:38:13.000Z</time>
      </trkpt>
      <trkpt lat="50.51415" lon="3.47339">
        <ele>24.2</ele>
        <time>2022-04-03T07:38:14.000Z</time>
      </trkpt>
      <trkpt lat="50.51419" lon="3.47332">
        <ele>24</ele>
        <time>2022-04-03T07:38:15.000Z</time>
      </trkpt>
      <trkpt lat="50.51422" lon="3.47326">
        <ele>24</ele>
        <time>2022-04-03T07:38:16.000Z</time>
      </trkpt>
      <trkpt lat="50.51426" lon="3.4732">
        <ele>24</ele>
        <time>2022-04-03T07:38:17.000Z</time>
      </trkpt>
      <trkpt lat="50.5143" lon="3.47314">
        <ele>24</ele>
        <time>2022-04-03T07:38:18.000Z</time>
      </trkpt>
      <trkpt lat="50.51434" lon="3.47308">
        <ele>24</ele>
        <time>2022-04-03T07:38:19.000Z</time>
      </trkpt>
      <trkpt lat="50.51437" lon="3.47302">
        <ele>24</ele>
        <time>2022-04-03T07:38:20.000Z</time>
      </trkpt>
      <trkpt lat="50.51439" lon="3.47295">
        <ele>24</ele>
        <time>2022-04-03T07:38:21.000Z</time>
      </trkpt>
      <trkpt lat="50.51442" lon="3.47288">
        <ele>24</ele>
        <time>2022-04-03T07:38:22.000Z</time>
      </trkpt>
      <trkpt lat="50.51444" lon="3.47282">
        <ele>24</ele>
        <time>2022-04-03T07:38:23.000Z</time>
      </trkpt>
      <trkpt lat="50.51447" lon="3.47275">
        <ele>24</ele>
        <time>2022-04-03T07:38:24.000Z</time>
      </trkpt>
      <trkpt lat="50.51449" lon="3.47268">
        <ele>24</ele>
        <time>2022-04-03T07:38:25.000Z</time>
      </trkpt>
      <trkpt lat="50.51452" lon="3.47261">
        <ele>24</ele>
        <time>2022-04-03T07:38:26.000Z</time>
      </trkpt>
      <trkpt lat="50.51454" lon="3.47254">
        <ele>24</ele>
        <time>2022-04-03T07:38:27.000Z</time>
      </trkpt>
      <trkpt lat="50.51457" lon="3.47247">
        <ele>23.9</ele>
        <time>2022-04-03T07:38:28.000Z</time>
      </trkpt>
      <trkpt lat="50.51459" lon="3.4724">
        <ele>23.6</ele>
        <time>2022-04-03T07:38:29.000Z</time>
      </trkpt>
      <trkpt lat="50.51462" lon="3.47233">
        <ele>23.4</ele>
        <time>2022-04-03T07:38:30.000Z</time>
      </trkpt>
      <trkpt lat="50.51465" lon="3.47222">
        <ele>23</ele>
        <time>2022-04-03T07:38:32.000Z</time>
      </trkpt>
      <trkpt lat="50.51469" lon="3.47211">
        <ele>23</ele>
        <time>2022-04-03T07:38:34.000Z</time>
      </trkpt>
      <trkpt lat="50.5147" lon="3.47205">
        <ele>23</ele>
        <time>2022-04-03T07:38:35.000Z</time>
      </trkpt>
      <trkpt lat="50.51474" lon="3.47194">
        <ele>23</ele>
        <time>2022-04-03T07:38:37.000Z</time>
      </trkpt>
      <trkpt lat="50.51482" lon="3.47189">
        <ele>23</ele>
        <time>2022-04-03T07:38:40.000Z</time>
      </trkpt>
      <trkpt lat="50.51484" lon="3.47176">
        <ele>23</ele>
        <time>2022-04-03T07:38:42.000Z</time>
      </trkpt>
      <trkpt lat="50.51487" lon="3.47164">
        <ele>23</ele>
        <time>2022-04-03T07:38:44.000Z</time>
      </trkpt>
      <trkpt lat="50.51489" lon="3.4715">
        <ele>23</ele>
        <time>2022-04-03T07:38:46.000Z</time>
      </trkpt>
      <trkpt lat="50.5149" lon="3.47143">
        <ele>23</ele>
        <time>2022-04-03T07:38:47.037Z</time>
      </trkpt>
      <trkpt lat="50.51491" lon="3.47129">
        <ele>22.9</ele>
        <time>2022-04-03T07:38:49.456Z</time>
      </trkpt>
      <trkpt lat="50.51494" lon="3.47115">
        <ele>22.8</ele>
        <time>2022-04-03T07:38:51.898Z</time>
      </trkpt>
      <trkpt lat="50.51496" lon="3.47102">
        <ele>22.9</ele>
        <time>2022-04-03T07:38:54.000Z</time>
      </trkpt>
      <trkpt lat="50.51497" lon="3.4709">
        <ele>22.9</ele>
        <time>2022-04-03T07:38:56.000Z</time>
      </trkpt>
      <trkpt lat="50.51499" lon="3.47077">
        <ele>23</ele>
        <time>2022-04-03T07:38:58.157Z</time>
      </trkpt>
      <trkpt lat="50.515" lon="3.47069">
        <ele>23</ele>
        <time>2022-04-03T07:38:59.597Z</time>
      </trkpt>
      <trkpt lat="50.51501" lon="3.47061">
        <ele>23</ele>
        <time>2022-04-03T07:39:01.000Z</time>
      </trkpt>
      <trkpt lat="50.51502" lon="3.4705">
        <ele>23</ele>
        <time>2022-04-03T07:39:02.937Z</time>
      </trkpt>
      <trkpt lat="50.51504" lon="3.47039">
        <ele>23</ele>
        <time>2022-04-03T07:39:04.919Z</time>
      </trkpt>
      <trkpt lat="50.51506" lon="3.47028">
        <ele>23</ele>
        <time>2022-04-03T07:39:07.000Z</time>
      </trkpt>
      <trkpt lat="50.51508" lon="3.47013">
        <ele>23</ele>
        <time>2022-04-03T07:39:09.700Z</time>
      </trkpt>
      <trkpt lat="50.51507" lon="3.47">
        <ele>23</ele>
        <time>2022-04-03T07:39:11.917Z</time>
      </trkpt>
      <trkpt lat="50.51508" lon="3.46988">
        <ele>23</ele>
        <time>2022-04-03T07:39:14.000Z</time>
      </trkpt>
      <trkpt lat="50.51509" lon="3.46975">
        <ele>23</ele>
        <time>2022-04-03T07:39:16.375Z</time>
      </trkpt>
      <trkpt lat="50.5151" lon="3.46965">
        <ele>22.8</ele>
        <time>2022-04-03T07:39:18.000Z</time>
      </trkpt>
      <trkpt lat="50.5151" lon="3.46954">
        <ele>22.6</ele>
        <time>2022-04-03T07:39:20.000Z</time>
      </trkpt>
      <trkpt lat="50.5151" lon="3.46942">
        <ele>22.4</ele>
        <time>2022-04-03T07:39:21.940Z</time>
      </trkpt>
      <trkpt lat="50.51511" lon="3.4693">
        <ele>22.4</ele>
        <time>2022-04-03T07:39:24.000Z</time>
      </trkpt>
      <trkpt lat="50.51512" lon="3.46919">
        <ele>22.4</ele>
        <time>2022-04-03T07:39:26.000Z</time>
      </trkpt>
      <trkpt lat="50.51512" lon="3.46908">
        <ele>22.6</ele>
        <time>2022-04-03T07:39:28.000Z</time>
      </trkpt>
      <trkpt lat="50.51512" lon="3.46898">
        <ele>22.8</ele>
        <time>2022-04-03T07:39:30.000Z</time>
      </trkpt>
      <trkpt lat="50.51513" lon="3.46887">
        <ele>23</ele>
        <time>2022-04-03T07:39:32.015Z</time>
      </trkpt>
      <trkpt lat="50.51513" lon="3.46877">
        <ele>23</ele>
        <time>2022-04-03T07:39:34.000Z</time>
      </trkpt>
      <trkpt lat="50.51514" lon="3.4687">
        <ele>23</ele>
        <time>2022-04-03T07:39:36.000Z</time>
      </trkpt>
      <trkpt lat="50.51514" lon="3.46861">
        <ele>23</ele>
        <time>2022-04-03T07:39:38.957Z</time>
      </trkpt>
      <trkpt lat="50.51514" lon="3.46852">
        <ele>23</ele>
        <time>2022-04-03T07:39:42.000Z</time>
      </trkpt>
      <trkpt lat="50.51512" lon="3.46843">
        <ele>23</ele>
        <time>2022-04-03T07:39:45.358Z</time>
      </trkpt>
      <trkpt lat="50.51506" lon="3.46842">
        <ele>23</ele>
        <time>2022-04-03T07:39:47.399Z</time>
      </trkpt>
      <trkpt lat="50.51498" lon="3.46843">
        <ele>22.9</ele>
        <time>2022-04-03T07:39:49.875Z</time>
      </trkpt>
      <trkpt lat="50.51492" lon="3.46843">
        <ele>22.7</ele>
        <time>2022-04-03T07:39:51.939Z</time>
      </trkpt>
      <trkpt lat="50.51486" lon="3.46843">
        <ele>22.5</ele>
        <time>2022-04-03T07:39:54.000Z</time>
      </trkpt>
      <trkpt lat="50.51479" lon="3.46844">
        <ele>22.2</ele>
        <time>2022-04-03T07:39:57.000Z</time>
      </trkpt>
      <trkpt lat="50.51473" lon="3.46843">
        <ele>22</ele>
        <time>2022-04-03T07:39:59.479Z</time>
      </trkpt>
      <trkpt lat="50.51467" lon="3.46843">
        <ele>22</ele>
        <time>2022-04-03T07:40:02.000Z</time>
      </trkpt>
      <trkpt lat="50.51461" lon="3.46843">
        <ele>22</ele>
        <time>2022-04-03T07:40:04.617Z</time>
      </trkpt>
      <trkpt lat="50.51455" lon="3.46843">
        <ele>22</ele>
        <time>2022-04-03T07:40:06.998Z</time>
      </trkpt>
      <trkpt lat="50.5145" lon="3.46842">
        <ele>22</ele>
        <time>2022-04-03T07:40:09.658Z</time>
      </trkpt>
      <trkpt lat="50.51445" lon="3.46841">
        <ele>22</ele>
        <time>2022-04-03T07:40:12.025Z</time>
      </trkpt>
      <trkpt lat="50.5144" lon="3.4684">
        <ele>22</ele>
        <time>2022-04-03T07:40:14.539Z</time>
      </trkpt>
      <trkpt lat="50.51435" lon="3.4684">
        <ele>22</ele>
        <time>2022-04-03T07:40:17.000Z</time>
      </trkpt>
      <trkpt lat="50.51428" lon="3.46839">
        <ele>22</ele>
        <time>2022-04-03T07:40:19.977Z</time>
      </trkpt>
      <trkpt lat="50.51423" lon="3.46839">
        <ele>22</ele>
        <time>2022-04-03T07:40:21.998Z</time>
      </trkpt>
      <trkpt lat="50.51418" lon="3.46838">
        <ele>22</ele>
        <time>2022-04-03T07:40:24.418Z</time>
      </trkpt>
      <trkpt lat="50.51411" lon="3.4684">
        <ele>21.8</ele>
        <time>2022-04-03T07:40:26.917Z</time>
      </trkpt>
      <trkpt lat="50.51404" lon="3.4684">
        <ele>21.5</ele>
        <time>2022-04-03T07:40:29.000Z</time>
      </trkpt>
      <trkpt lat="50.51398" lon="3.46843">
        <ele>21.3</ele>
        <time>2022-04-03T07:40:30.919Z</time>
      </trkpt>
      <trkpt lat="50.51389" lon="3.46843">
        <ele>21</ele>
        <time>2022-04-03T07:40:33.617Z</time>
      </trkpt>
      <trkpt lat="50.51381" lon="3.46844">
        <ele>21</ele>
        <time>2022-04-03T07:40:36.000Z</time>
      </trkpt>
      <trkpt lat="50.51375" lon="3.4684">
        <ele>21</ele>
        <time>2022-04-03T07:40:38.000Z</time>
      </trkpt>
      <trkpt lat="50.51374" lon="3.4683">
        <ele>21</ele>
        <time>2022-04-03T07:40:39.976Z</time>
      </trkpt>
      <trkpt lat="50.51373" lon="3.46819">
        <ele>21</ele>
        <time>2022-04-03T07:40:41.959Z</time>
      </trkpt>
      <trkpt lat="50.51373" lon="3.46806">
        <ele>21</ele>
        <time>2022-04-03T07:40:44.295Z</time>
      </trkpt>
      <trkpt lat="50.51373" lon="3.46798">
        <ele>21</ele>
        <time>2022-04-03T07:40:45.735Z</time>
      </trkpt>
      <trkpt lat="50.51372" lon="3.46791">
        <ele>21</ele>
        <time>2022-04-03T07:40:47.000Z</time>
      </trkpt>
      <trkpt lat="50.5137" lon="3.46778">
        <ele>21</ele>
        <time>2022-04-03T07:40:49.000Z</time>
      </trkpt>
      <trkpt lat="50.51368" lon="3.46771">
        <ele>21</ele>
        <time>2022-04-03T07:40:50.060Z</time>
      </trkpt>
      <trkpt lat="50.51364" lon="3.46765">
        <ele>21</ele>
        <time>2022-04-03T07:40:51.236Z</time>
      </trkpt>
      <trkpt lat="50.51361" lon="3.46757">
        <ele>21</ele>
        <time>2022-04-03T07:40:52.776Z</time>
      </trkpt>
      <trkpt lat="50.51357" lon="3.46751">
        <ele>21</ele>
        <time>2022-04-03T07:40:54.038Z</time>
      </trkpt>
      <trkpt lat="50.51353" lon="3.46745">
        <ele>21</ele>
        <time>2022-04-03T07:40:55.440Z</time>
      </trkpt>
      <trkpt lat="50.51348" lon="3.46739">
        <ele>21</ele>
        <time>2022-04-03T07:40:56.957Z</time>
      </trkpt>
      <trkpt lat="50.5134" lon="3.46732">
        <ele>21</ele>
        <time>2022-04-03T07:40:59.000Z</time>
      </trkpt>
      <trkpt lat="50.51331" lon="3.46726">
        <ele>20.7</ele>
        <time>2022-04-03T07:41:01.295Z</time>
      </trkpt>
      <trkpt lat="50.51323" lon="3.46724">
        <ele>19.9</ele>
        <time>2022-04-03T07:41:03.257Z</time>
      </trkpt>
      <trkpt lat="50.51318" lon="3.46723">
        <ele>19.3</ele>
        <time>2022-04-03T07:41:04.338Z</time>
      </trkpt>
      <trkpt lat="50.51313" lon="3.46723">
        <ele>18.8</ele>
        <time>2022-04-03T07:41:05.594Z</time>
      </trkpt>
      <trkpt lat="50.5131" lon="3.46716">
        <ele>18.4</ele>
        <time>2022-04-03T07:41:06.757Z</time>
      </trkpt>
      <trkpt lat="50.51311" lon="3.46707">
        <ele>18.5</ele>
        <time>2022-04-03T07:41:08.000Z</time>
      </trkpt>
      <trkpt lat="50.51315" lon="3.467">
        <ele>18.7</ele>
        <time>2022-04-03T07:41:09.000Z</time>
      </trkpt>
      <trkpt lat="50.51323" lon="3.4669">
        <ele>19.3</ele>
        <time>2022-04-03T07:41:11.258Z</time>
      </trkpt>
      <trkpt lat="50.51326" lon="3.46684">
        <ele>19.5</ele>
        <time>2022-04-03T07:41:12.357Z</time>
      </trkpt>
      <trkpt lat="50.51329" lon="3.46679">
        <ele>19.7</ele>
        <time>2022-04-03T07:41:13.438Z</time>
      </trkpt>
      <trkpt lat="50.51336" lon="3.46668">
        <ele>20.1</ele>
        <time>2022-04-03T07:41:15.755Z</time>
      </trkpt>
      <trkpt lat="50.51341" lon="3.46656">
        <ele>20.6</ele>
        <time>2022-04-03T07:41:18.059Z</time>
      </trkpt>
      <trkpt lat="50.51345" lon="3.46647">
        <ele>20.8</ele>
        <time>2022-04-03T07:41:20.000Z</time>
      </trkpt>
      <trkpt lat="50.51349" lon="3.46638">
        <ele>21</ele>
        <time>2022-04-03T07:41:22.258Z</time>
      </trkpt>
      <trkpt lat="50.51354" lon="3.46628">
        <ele>20.9</ele>
        <time>2022-04-03T07:41:24.558Z</time>
      </trkpt>
      <trkpt lat="50.51358" lon="3.46619">
        <ele>20.9</ele>
        <time>2022-04-03T07:41:26.636Z</time>
      </trkpt>
      <trkpt lat="50.51361" lon="3.46613">
        <ele>21</ele>
        <time>2022-04-03T07:41:28.000Z</time>
      </trkpt>
      <trkpt lat="50.51365" lon="3.46605">
        <ele>20.8</ele>
        <time>2022-04-03T07:41:30.000Z</time>
      </trkpt>
      <trkpt lat="50.5137" lon="3.46597">
        <ele>20.7</ele>
        <time>2022-04-03T07:41:32.000Z</time>
      </trkpt>
      <trkpt lat="50.51374" lon="3.4659">
        <ele>20.6</ele>
        <time>2022-04-03T07:41:33.595Z</time>
      </trkpt>
      <trkpt lat="50.5138" lon="3.46579">
        <ele>20.6</ele>
        <time>2022-04-03T07:41:36.038Z</time>
      </trkpt>
      <trkpt lat="50.51384" lon="3.4657">
        <ele>20.4</ele>
        <time>2022-04-03T07:41:37.939Z</time>
      </trkpt>
      <trkpt lat="50.51389" lon="3.4656">
        <ele>20.2</ele>
        <time>2022-04-03T07:41:40.415Z</time>
      </trkpt>
      <trkpt lat="50.51395" lon="3.4655">
        <ele>20.2</ele>
        <time>2022-04-03T07:41:43.000Z</time>
      </trkpt>
      <trkpt lat="50.514" lon="3.46544">
        <ele>20.4</ele>
        <time>2022-04-03T07:41:45.000Z</time>
      </trkpt>
      <trkpt lat="50.51407" lon="3.46542">
        <ele>20.7</ele>
        <time>2022-04-03T07:41:47.000Z</time>
      </trkpt>
      <trkpt lat="50.51412" lon="3.46543">
        <ele>20.8</ele>
        <time>2022-04-03T07:41:48.378Z</time>
      </trkpt>
      <trkpt lat="50.51417" lon="3.46545">
        <ele>21</ele>
        <time>2022-04-03T07:41:49.717Z</time>
      </trkpt>
      <trkpt lat="50.51424" lon="3.46551">
        <ele>21</ele>
        <time>2022-04-03T07:41:52.000Z</time>
      </trkpt>
      <trkpt lat="50.5143" lon="3.46555">
        <ele>21</ele>
        <time>2022-04-03T07:41:54.000Z</time>
      </trkpt>
      <trkpt lat="50.51436" lon="3.4656">
        <ele>21.1</ele>
        <time>2022-04-03T07:41:56.000Z</time>
      </trkpt>
      <trkpt lat="50.51442" lon="3.46567">
        <ele>21.4</ele>
        <time>2022-04-03T07:41:58.197Z</time>
      </trkpt>
      <trkpt lat="50.5145" lon="3.46574">
        <ele>21.6</ele>
        <time>2022-04-03T07:42:01.000Z</time>
      </trkpt>
      <trkpt lat="50.51456" lon="3.46579">
        <ele>21.6</ele>
        <time>2022-04-03T07:42:03.000Z</time>
      </trkpt>
      <trkpt lat="50.51461" lon="3.46584">
        <ele>21.4</ele>
        <time>2022-04-03T07:42:05.000Z</time>
      </trkpt>
      <trkpt lat="50.51467" lon="3.46589">
        <ele>21.4</ele>
        <time>2022-04-03T07:42:07.000Z</time>
      </trkpt>
      <trkpt lat="50.51471" lon="3.46593">
        <ele>21.4</ele>
        <time>2022-04-03T07:42:08.756Z</time>
      </trkpt>
      <trkpt lat="50.51477" lon="3.46598">
        <ele>21.6</ele>
        <time>2022-04-03T07:42:11.000Z</time>
      </trkpt>
      <trkpt lat="50.51482" lon="3.46602">
        <ele>21.8</ele>
        <time>2022-04-03T07:42:12.974Z</time>
      </trkpt>
      <trkpt lat="50.51488" lon="3.46606">
        <ele>21.9</ele>
        <time>2022-04-03T07:42:15.000Z</time>
      </trkpt>
      <trkpt lat="50.51495" lon="3.46604">
        <ele>22</ele>
        <time>2022-04-03T07:42:17.357Z</time>
      </trkpt>
      <trkpt lat="50.51499" lon="3.46598">
        <ele>22</ele>
        <time>2022-04-03T07:42:19.656Z</time>
      </trkpt>
      <trkpt lat="50.51501" lon="3.46589">
        <ele>22</ele>
        <time>2022-04-03T07:42:22.000Z</time>
      </trkpt>
      <trkpt lat="50.51503" lon="3.46581">
        <ele>22</ele>
        <time>2022-04-03T07:42:24.000Z</time>
      </trkpt>
      <trkpt lat="50.51505" lon="3.46572">
        <ele>22</ele>
        <time>2022-04-03T07:42:26.197Z</time>
      </trkpt>
      <trkpt lat="50.51507" lon="3.46564">
        <ele>22</ele>
        <time>2022-04-03T07:42:28.438Z</time>
      </trkpt>
      <trkpt lat="50.5151" lon="3.46552">
        <ele>21.9</ele>
        <time>2022-04-03T07:42:31.000Z</time>
      </trkpt>
      <trkpt lat="50.51512" lon="3.46544">
        <ele>21.8</ele>
        <time>2022-04-03T07:42:33.000Z</time>
      </trkpt>
      <trkpt lat="50.51515" lon="3.46536">
        <ele>21.7</ele>
        <time>2022-04-03T07:42:35.000Z</time>
      </trkpt>
      <trkpt lat="50.51518" lon="3.46527">
        <ele>21.6</ele>
        <time>2022-04-03T07:42:37.497Z</time>
      </trkpt>
      <trkpt lat="50.5152" lon="3.46518">
        <ele>21.5</ele>
        <time>2022-04-03T07:42:39.598Z</time>
      </trkpt>
      <trkpt lat="50.51523" lon="3.46507">
        <ele>21.2</ele>
        <time>2022-04-03T07:42:42.000Z</time>
      </trkpt>
      <trkpt lat="50.51525" lon="3.46498">
        <ele>21</ele>
        <time>2022-04-03T07:42:44.074Z</time>
      </trkpt>
      <trkpt lat="50.51528" lon="3.46487">
        <ele>21</ele>
        <time>2022-04-03T07:42:46.437Z</time>
      </trkpt>
      <trkpt lat="50.51531" lon="3.46478">
        <ele>21.1</ele>
        <time>2022-04-03T07:42:48.496Z</time>
      </trkpt>
      <trkpt lat="50.51534" lon="3.46466">
        <ele>21.2</ele>
        <time>2022-04-03T07:42:50.958Z</time>
      </trkpt>
      <trkpt lat="50.51536" lon="3.46456">
        <ele>21.1</ele>
        <time>2022-04-03T07:42:53.000Z</time>
      </trkpt>
      <trkpt lat="50.51538" lon="3.4645">
        <ele>21.1</ele>
        <time>2022-04-03T07:42:54.356Z</time>
      </trkpt>
      <trkpt lat="50.5154" lon="3.46442">
        <ele>21</ele>
        <time>2022-04-03T07:42:56.000Z</time>
      </trkpt>
      <trkpt lat="50.51542" lon="3.46429">
        <ele>21.3</ele>
        <time>2022-04-03T07:42:58.378Z</time>
      </trkpt>
      <trkpt lat="50.51543" lon="3.46416">
        <ele>21.5</ele>
        <time>2022-04-03T07:43:00.880Z</time>
      </trkpt>
      <trkpt lat="50.51542" lon="3.46403">
        <ele>21.3</ele>
        <time>2022-04-03T07:43:03.325Z</time>
      </trkpt>
      <trkpt lat="50.51543" lon="3.46391">
        <ele>21</ele>
        <time>2022-04-03T07:43:05.658Z</time>
      </trkpt>
      <trkpt lat="50.51542" lon="3.46378">
        <ele>21</ele>
        <time>2022-04-03T07:43:08.000Z</time>
      </trkpt>
      <trkpt lat="50.51541" lon="3.46365">
        <ele>21</ele>
        <time>2022-04-03T07:43:09.999Z</time>
      </trkpt>
      <trkpt lat="50.51539" lon="3.46354">
        <ele>21</ele>
        <time>2022-04-03T07:43:12.000Z</time>
      </trkpt>
      <trkpt lat="50.51538" lon="3.46347">
        <ele>21</ele>
        <time>2022-04-03T07:43:13.080Z</time>
      </trkpt>
      <trkpt lat="50.51535" lon="3.46336">
        <ele>21</ele>
        <time>2022-04-03T07:43:15.000Z</time>
      </trkpt>
      <trkpt lat="50.5153" lon="3.46328">
        <ele>21</ele>
        <time>2022-04-03T07:43:17.000Z</time>
      </trkpt>
      <trkpt lat="50.51525" lon="3.4632">
        <ele>21</ele>
        <time>2022-04-03T07:43:19.000Z</time>
      </trkpt>
      <trkpt lat="50.51519" lon="3.46313">
        <ele>21</ele>
        <time>2022-04-03T07:43:21.000Z</time>
      </trkpt>
      <trkpt lat="50.51513" lon="3.46305">
        <ele>21</ele>
        <time>2022-04-03T07:43:23.418Z</time>
      </trkpt>
      <trkpt lat="50.51508" lon="3.46301">
        <ele>21</ele>
        <time>2022-04-03T07:43:24.737Z</time>
      </trkpt>
      <trkpt lat="50.51501" lon="3.46295">
        <ele>21</ele>
        <time>2022-04-03T07:43:27.000Z</time>
      </trkpt>
      <trkpt lat="50.51495" lon="3.46288">
        <ele>20.9</ele>
        <time>2022-04-03T07:43:28.917Z</time>
      </trkpt>
      <trkpt lat="50.51489" lon="3.46281">
        <ele>21</ele>
        <time>2022-04-03T07:43:31.000Z</time>
      </trkpt>
      <trkpt lat="50.51485" lon="3.46274">
        <ele>20.9</ele>
        <time>2022-04-03T07:43:32.617Z</time>
      </trkpt>
      <trkpt lat="50.51482" lon="3.46262">
        <ele>20.6</ele>
        <time>2022-04-03T07:43:35.000Z</time>
      </trkpt>
      <trkpt lat="50.5148" lon="3.46251">
        <ele>20.3</ele>
        <time>2022-04-03T07:43:37.000Z</time>
      </trkpt>
      <trkpt lat="50.51479" lon="3.46239">
        <ele>20.2</ele>
        <time>2022-04-03T07:43:38.996Z</time>
      </trkpt>
      <trkpt lat="50.51478" lon="3.46227">
        <ele>20.2</ele>
        <time>2022-04-03T07:43:41.037Z</time>
      </trkpt>
      <trkpt lat="50.51474" lon="3.46218">
        <ele>20.1</ele>
        <time>2022-04-03T07:43:42.716Z</time>
      </trkpt>
      <trkpt lat="50.51469" lon="3.46206">
        <ele>20</ele>
        <time>2022-04-03T07:43:45.000Z</time>
      </trkpt>
      <trkpt lat="50.51463" lon="3.46195">
        <ele>20</ele>
        <time>2022-04-03T07:43:46.997Z</time>
      </trkpt>
      <trkpt lat="50.51457" lon="3.46185">
        <ele>19.8</ele>
        <time>2022-04-03T07:43:49.000Z</time>
      </trkpt>
      <trkpt lat="50.51451" lon="3.46175">
        <ele>19.5</ele>
        <time>2022-04-03T07:43:51.297Z</time>
      </trkpt>
      <trkpt lat="50.51444" lon="3.46166">
        <ele>19</ele>
        <time>2022-04-03T07:43:53.797Z</time>
      </trkpt>
      <trkpt lat="50.51437" lon="3.46159">
        <ele>19.2</ele>
        <time>2022-04-03T07:43:56.000Z</time>
      </trkpt>
      <trkpt lat="50.51431" lon="3.46151">
        <ele>19.3</ele>
        <time>2022-04-03T07:43:58.000Z</time>
      </trkpt>
      <trkpt lat="50.51425" lon="3.46143">
        <ele>19.3</ele>
        <time>2022-04-03T07:43:59.956Z</time>
      </trkpt>
      <trkpt lat="50.51421" lon="3.46138">
        <ele>19.2</ele>
        <time>2022-04-03T07:44:01.416Z</time>
      </trkpt>
      <trkpt lat="50.51417" lon="3.46131">
        <ele>19</ele>
        <time>2022-04-03T07:44:03.000Z</time>
      </trkpt>
      <trkpt lat="50.51411" lon="3.46122">
        <ele>19</ele>
        <time>2022-04-03T07:44:05.000Z</time>
      </trkpt>
      <trkpt lat="50.51406" lon="3.46113">
        <ele>19</ele>
        <time>2022-04-03T07:44:07.000Z</time>
      </trkpt>
      <trkpt lat="50.51403" lon="3.46101">
        <ele>18.8</ele>
        <time>2022-04-03T07:44:09.000Z</time>
      </trkpt>
      <trkpt lat="50.51402" lon="3.46085">
        <ele>18.5</ele>
        <time>2022-04-03T07:44:12.000Z</time>
      </trkpt>
      <trkpt lat="50.51405" lon="3.46069">
        <ele>18.6</ele>
        <time>2022-04-03T07:44:14.954Z</time>
      </trkpt>
      <trkpt lat="50.51408" lon="3.46061">
        <ele>18.7</ele>
        <time>2022-04-03T07:44:17.000Z</time>
      </trkpt>
      <trkpt lat="50.51409" lon="3.46051">
        <ele>18.8</ele>
        <time>2022-04-03T07:44:19.091Z</time>
      </trkpt>
      <trkpt lat="50.51411" lon="3.46044">
        <ele>18.9</ele>
        <time>2022-04-03T07:44:20.737Z</time>
      </trkpt>
      <trkpt lat="50.5141" lon="3.46034">
        <ele>18.9</ele>
        <time>2022-04-03T07:44:23.997Z</time>
      </trkpt>
      <trkpt lat="50.51415" lon="3.46016">
        <ele>19</ele>
        <time>2022-04-03T07:55:10.000Z</time>
      </trkpt>
      <trkpt lat="50.51416" lon="3.46009">
        <ele>19</ele>
        <time>2022-04-03T07:55:12.000Z</time>
      </trkpt>
      <trkpt lat="50.51418" lon="3.45997">
        <ele>19</ele>
        <time>2022-04-03T07:55:14.940Z</time>
      </trkpt>
      <trkpt lat="50.5142" lon="3.45985">
        <ele>19.1</ele>
        <time>2022-04-03T07:55:17.000Z</time>
      </trkpt>
      <trkpt lat="50.51421" lon="3.45978">
        <ele>19</ele>
        <time>2022-04-03T07:55:18.121Z</time>
      </trkpt>
      <trkpt lat="50.51422" lon="3.45961">
        <ele>19</ele>
        <time>2022-04-03T07:55:20.799Z</time>
      </trkpt>
      <trkpt lat="50.51423" lon="3.45948">
        <ele>19</ele>
        <time>2022-04-03T07:55:23.000Z</time>
      </trkpt>
      <trkpt lat="50.51426" lon="3.45937">
        <ele>19</ele>
        <time>2022-04-03T07:55:25.000Z</time>
      </trkpt>
      <trkpt lat="50.51427" lon="3.4593">
        <ele>19</ele>
        <time>2022-04-03T07:55:26.165Z</time>
      </trkpt>
      <trkpt lat="50.51428" lon="3.45922">
        <ele>19</ele>
        <time>2022-04-03T07:55:27.397Z</time>
      </trkpt>
      <trkpt lat="50.51429" lon="3.45914">
        <ele>19</ele>
        <time>2022-04-03T07:55:28.761Z</time>
      </trkpt>
      <trkpt lat="50.51431" lon="3.459">
        <ele>19</ele>
        <time>2022-04-03T07:55:31.060Z</time>
      </trkpt>
      <trkpt lat="50.51432" lon="3.45889">
        <ele>19</ele>
        <time>2022-04-03T07:55:32.700Z</time>
      </trkpt>
      <trkpt lat="50.51433" lon="3.45881">
        <ele>18.9</ele>
        <time>2022-04-03T07:55:34.002Z</time>
      </trkpt>
      <trkpt lat="50.51435" lon="3.45865">
        <ele>18.7</ele>
        <time>2022-04-03T07:55:36.422Z</time>
      </trkpt>
      <trkpt lat="50.51436" lon="3.45856">
        <ele>18.7</ele>
        <time>2022-04-03T07:55:37.802Z</time>
      </trkpt>
      <trkpt lat="50.51436" lon="3.45849">
        <ele>18.7</ele>
        <time>2022-04-03T07:55:39.000Z</time>
      </trkpt>
      <trkpt lat="50.51437" lon="3.45836">
        <ele>18.7</ele>
        <time>2022-04-03T07:55:41.000Z</time>
      </trkpt>
      <trkpt lat="50.51437" lon="3.45823">
        <ele>18.8</ele>
        <time>2022-04-03T07:55:42.919Z</time>
      </trkpt>
      <trkpt lat="50.51436" lon="3.45811">
        <ele>18.9</ele>
        <time>2022-04-03T07:55:45.058Z</time>
      </trkpt>
      <trkpt lat="50.51436" lon="3.458">
        <ele>18.9</ele>
        <time>2022-04-03T07:55:47.000Z</time>
      </trkpt>
      <trkpt lat="50.51437" lon="3.45791">
        <ele>18.9</ele>
        <time>2022-04-03T07:55:49.000Z</time>
      </trkpt>
      <trkpt lat="50.51437" lon="3.45783">
        <ele>18.8</ele>
        <time>2022-04-03T07:55:51.000Z</time>
      </trkpt>
      <trkpt lat="50.51432" lon="3.45786">
        <ele>18.7</ele>
        <time>2022-04-03T07:55:55.000Z</time>
      </trkpt>
      <trkpt lat="50.51433" lon="3.45796">
        <ele>18.9</ele>
        <time>2022-04-03T07:55:57.144Z</time>
      </trkpt>
      <trkpt lat="50.51433" lon="3.45785">
        <ele>18.7</ele>
        <time>2022-04-03T07:56:04.903Z</time>
      </trkpt>
      <trkpt lat="50.51433" lon="3.45776">
        <ele>18.6</ele>
        <time>2022-04-03T07:56:06.000Z</time>
      </trkpt>
      <trkpt lat="50.51434" lon="3.45767">
        <ele>18.6</ele>
        <time>2022-04-03T07:56:07.000Z</time>
      </trkpt>
      <trkpt lat="50.51435" lon="3.45759">
        <ele>18.7</ele>
        <time>2022-04-03T07:56:08.000Z</time>
      </trkpt>
      <trkpt lat="50.51436" lon="3.45752">
        <ele>18.7</ele>
        <time>2022-04-03T07:56:09.000Z</time>
      </trkpt>
      <trkpt lat="50.51437" lon="3.45744">
        <ele>18.7</ele>
        <time>2022-04-03T07:56:10.000Z</time>
      </trkpt>
      <trkpt lat="50.51438" lon="3.45736">
        <ele>18.8</ele>
        <time>2022-04-03T07:56:11.042Z</time>
      </trkpt>
      <trkpt lat="50.5144" lon="3.45724">
        <ele>18.8</ele>
        <time>2022-04-03T07:56:12.462Z</time>
      </trkpt>
      <trkpt lat="50.51441" lon="3.45713">
        <ele>18.6</ele>
        <time>2022-04-03T07:56:13.863Z</time>
      </trkpt>
      <trkpt lat="50.51442" lon="3.45706">
        <ele>18.4</ele>
        <time>2022-04-03T07:56:15.000Z</time>
      </trkpt>
      <trkpt lat="50.51443" lon="3.45692">
        <ele>18</ele>
        <time>2022-04-03T07:56:17.000Z</time>
      </trkpt>
      <trkpt lat="50.51444" lon="3.45679">
        <ele>18</ele>
        <time>2022-04-03T07:56:18.901Z</time>
      </trkpt>
      <trkpt lat="50.51443" lon="3.45667">
        <ele>18</ele>
        <time>2022-04-03T07:56:20.821Z</time>
      </trkpt>
      <trkpt lat="50.51441" lon="3.45655">
        <ele>18</ele>
        <time>2022-04-03T07:56:23.000Z</time>
      </trkpt>
      <trkpt lat="50.5144" lon="3.45646">
        <ele>18</ele>
        <time>2022-04-03T07:56:24.402Z</time>
      </trkpt>
      <trkpt lat="50.51438" lon="3.45639">
        <ele>18</ele>
        <time>2022-04-03T07:56:25.581Z</time>
      </trkpt>
      <trkpt lat="50.51435" lon="3.45632">
        <ele>18</ele>
        <time>2022-04-03T07:56:27.060Z</time>
      </trkpt>
      <trkpt lat="50.51431" lon="3.45622">
        <ele>18</ele>
        <time>2022-04-03T07:56:29.000Z</time>
      </trkpt>
      <trkpt lat="50.51426" lon="3.45611">
        <ele>18</ele>
        <time>2022-04-03T07:56:31.000Z</time>
      </trkpt>
      <trkpt lat="50.51423" lon="3.45603">
        <ele>18</ele>
        <time>2022-04-03T07:56:32.422Z</time>
      </trkpt>
      <trkpt lat="50.51419" lon="3.45591">
        <ele>18</ele>
        <time>2022-04-03T07:56:34.442Z</time>
      </trkpt>
      <trkpt lat="50.51416" lon="3.45581">
        <ele>18</ele>
        <time>2022-04-03T07:56:36.003Z</time>
      </trkpt>
      <trkpt lat="50.51414" lon="3.45575">
        <ele>18</ele>
        <time>2022-04-03T07:56:37.000Z</time>
      </trkpt>
      <trkpt lat="50.51412" lon="3.45568">
        <ele>17.9</ele>
        <time>2022-04-03T07:56:38.000Z</time>
      </trkpt>
      <trkpt lat="50.5141" lon="3.45561">
        <ele>17.8</ele>
        <time>2022-04-03T07:56:39.122Z</time>
      </trkpt>
      <trkpt lat="50.51406" lon="3.4555">
        <ele>17.6</ele>
        <time>2022-04-03T07:56:40.901Z</time>
      </trkpt>
      <trkpt lat="50.51405" lon="3.45543">
        <ele>17.6</ele>
        <time>2022-04-03T07:56:42.000Z</time>
      </trkpt>
      <trkpt lat="50.514" lon="3.45529">
        <ele>17.4</ele>
        <time>2022-04-03T07:56:44.000Z</time>
      </trkpt>
      <trkpt lat="50.51399" lon="3.45521">
        <ele>17.4</ele>
        <time>2022-04-03T07:56:45.000Z</time>
      </trkpt>
      <trkpt lat="50.51397" lon="3.45514">
        <ele>17.3</ele>
        <time>2022-04-03T07:56:46.000Z</time>
      </trkpt>
      <trkpt lat="50.51395" lon="3.45507">
        <ele>17.2</ele>
        <time>2022-04-03T07:56:47.000Z</time>
      </trkpt>
      <trkpt lat="50.51393" lon="3.455">
        <ele>17.1</ele>
        <time>2022-04-03T07:56:48.000Z</time>
      </trkpt>
      <trkpt lat="50.51392" lon="3.45494">
        <ele>17.3</ele>
        <time>2022-04-03T07:56:49.000Z</time>
      </trkpt>
      <trkpt lat="50.51388" lon="3.45481">
        <ele>17.7</ele>
        <time>2022-04-03T07:56:51.000Z</time>
      </trkpt>
      <trkpt lat="50.51386" lon="3.45469">
        <ele>17.8</ele>
        <time>2022-04-03T07:56:53.000Z</time>
      </trkpt>
      <trkpt lat="50.51386" lon="3.45457">
        <ele>17.4</ele>
        <time>2022-04-03T07:56:54.962Z</time>
      </trkpt>
      <trkpt lat="50.51383" lon="3.45448">
        <ele>17.1</ele>
        <time>2022-04-03T07:56:56.459Z</time>
      </trkpt>
      <trkpt lat="50.51381" lon="3.45433">
        <ele>17</ele>
        <time>2022-04-03T07:56:59.000Z</time>
      </trkpt>
      <trkpt lat="50.5138" lon="3.4542">
        <ele>17</ele>
        <time>2022-04-03T07:57:01.000Z</time>
      </trkpt>
      <trkpt lat="50.5138" lon="3.45412">
        <ele>17</ele>
        <time>2022-04-03T07:57:02.000Z</time>
      </trkpt>
      <trkpt lat="50.51381" lon="3.45398">
        <ele>17</ele>
        <time>2022-04-03T07:57:03.961Z</time>
      </trkpt>
      <trkpt lat="50.51383" lon="3.45391">
        <ele>17</ele>
        <time>2022-04-03T07:57:05.000Z</time>
      </trkpt>
      <trkpt lat="50.51384" lon="3.45384">
        <ele>17</ele>
        <time>2022-04-03T07:57:06.000Z</time>
      </trkpt>
      <trkpt lat="50.51389" lon="3.45371">
        <ele>17</ele>
        <time>2022-04-03T07:57:08.122Z</time>
      </trkpt>
      <trkpt lat="50.51397" lon="3.45367">
        <ele>17.1</ele>
        <time>2022-04-03T07:57:09.821Z</time>
      </trkpt>
      <trkpt lat="50.51402" lon="3.45369">
        <ele>17.1</ele>
        <time>2022-04-03T07:57:11.000Z</time>
      </trkpt>
      <trkpt lat="50.5141" lon="3.45372">
        <ele>17.3</ele>
        <time>2022-04-03T07:57:13.000Z</time>
      </trkpt>
      <trkpt lat="50.51418" lon="3.45377">
        <ele>17.5</ele>
        <time>2022-04-03T07:57:15.000Z</time>
      </trkpt>
      <trkpt lat="50.51425" lon="3.45381">
        <ele>17.5</ele>
        <time>2022-04-03T07:57:17.043Z</time>
      </trkpt>
      <trkpt lat="50.51432" lon="3.45385">
        <ele>17.4</ele>
        <time>2022-04-03T07:57:18.900Z</time>
      </trkpt>
      <trkpt lat="50.51439" lon="3.45388">
        <ele>17.2</ele>
        <time>2022-04-03T07:57:20.882Z</time>
      </trkpt>
      <trkpt lat="50.51445" lon="3.45393">
        <ele>17.2</ele>
        <time>2022-04-03T07:57:22.883Z</time>
      </trkpt>
      <trkpt lat="50.51452" lon="3.45397">
        <ele>17.5</ele>
        <time>2022-04-03T07:57:25.000Z</time>
      </trkpt>
      <trkpt lat="50.51458" lon="3.45401">
        <ele>17.7</ele>
        <time>2022-04-03T07:57:27.000Z</time>
      </trkpt>
      <trkpt lat="50.51463" lon="3.45398">
        <ele>17.8</ele>
        <time>2022-04-03T07:57:31.122Z</time>
      </trkpt>
      <trkpt lat="50.51467" lon="3.45403">
        <ele>17.9</ele>
        <time>2022-04-03T07:57:34.922Z</time>
      </trkpt>
      <trkpt lat="50.51474" lon="3.45406">
        <ele>18</ele>
        <time>2022-04-03T07:57:37.000Z</time>
      </trkpt>
      <trkpt lat="50.51482" lon="3.45411">
        <ele>18</ele>
        <time>2022-04-03T07:57:38.998Z</time>
      </trkpt>
      <trkpt lat="50.51487" lon="3.45413">
        <ele>18</ele>
        <time>2022-04-03T07:57:40.000Z</time>
      </trkpt>
      <trkpt lat="50.51496" lon="3.45419">
        <ele>18</ele>
        <time>2022-04-03T07:57:42.000Z</time>
      </trkpt>
      <trkpt lat="50.51501" lon="3.45422">
        <ele>18</ele>
        <time>2022-04-03T07:57:43.058Z</time>
      </trkpt>
      <trkpt lat="50.51507" lon="3.45425">
        <ele>18</ele>
        <time>2022-04-03T07:57:44.440Z</time>
      </trkpt>
      <trkpt lat="50.51512" lon="3.45425">
        <ele>18</ele>
        <time>2022-04-03T07:57:45.502Z</time>
      </trkpt>
      <trkpt lat="50.51517" lon="3.45422">
        <ele>18</ele>
        <time>2022-04-03T07:57:46.841Z</time>
      </trkpt>
      <trkpt lat="50.51522" lon="3.45421">
        <ele>18</ele>
        <time>2022-04-03T07:57:48.123Z</time>
      </trkpt>
      <trkpt lat="50.51526" lon="3.45425">
        <ele>18</ele>
        <time>2022-04-03T07:57:49.592Z</time>
      </trkpt>
      <trkpt lat="50.51532" lon="3.45426">
        <ele>18</ele>
        <time>2022-04-03T07:57:53.000Z</time>
      </trkpt>
      <trkpt lat="50.51527" lon="3.45426">
        <ele>18</ele>
        <time>2022-04-03T07:57:58.000Z</time>
      </trkpt>
      <trkpt lat="50.51529" lon="3.45434">
        <ele>18</ele>
        <time>2022-04-03T07:58:09.863Z</time>
      </trkpt>
      <trkpt lat="50.51534" lon="3.45438">
        <ele>18</ele>
        <time>2022-04-03T07:58:12.080Z</time>
      </trkpt>
      <trkpt lat="50.51543" lon="3.45439">
        <ele>18</ele>
        <time>2022-04-03T07:58:13.840Z</time>
      </trkpt>
      <trkpt lat="50.51549" lon="3.4544">
        <ele>18</ele>
        <time>2022-04-03T07:58:15.000Z</time>
      </trkpt>
      <trkpt lat="50.51555" lon="3.45441">
        <ele>18</ele>
        <time>2022-04-03T07:58:16.000Z</time>
      </trkpt>
      <trkpt lat="50.5156" lon="3.4544">
        <ele>18</ele>
        <time>2022-04-03T07:58:17.000Z</time>
      </trkpt>
      <trkpt lat="50.51572" lon="3.4544">
        <ele>18.1</ele>
        <time>2022-04-03T07:58:19.122Z</time>
      </trkpt>
      <trkpt lat="50.51577" lon="3.4544">
        <ele>18.1</ele>
        <time>2022-04-03T07:58:20.129Z</time>
      </trkpt>
      <trkpt lat="50.51585" lon="3.45439">
        <ele>18.2</ele>
        <time>2022-04-03T07:58:22.062Z</time>
      </trkpt>
      <trkpt lat="50.5159" lon="3.45438">
        <ele>18.4</ele>
        <time>2022-04-03T07:58:24.000Z</time>
      </trkpt>
      <trkpt lat="50.51597" lon="3.45436">
        <ele>18.6</ele>
        <time>2022-04-03T07:58:26.083Z</time>
      </trkpt>
      <trkpt lat="50.51604" lon="3.45434">
        <ele>18.8</ele>
        <time>2022-04-03T07:58:29.020Z</time>
      </trkpt>
      <trkpt lat="50.51609" lon="3.45434">
        <ele>19</ele>
        <time>2022-04-03T07:58:31.021Z</time>
      </trkpt>
      <trkpt lat="50.51615" lon="3.45432">
        <ele>19</ele>
        <time>2022-04-03T07:58:33.321Z</time>
      </trkpt>
      <trkpt lat="50.5162" lon="3.45431">
        <ele>19</ele>
        <time>2022-04-03T07:58:35.621Z</time>
      </trkpt>
      <trkpt lat="50.51626" lon="3.45429">
        <ele>19</ele>
        <time>2022-04-03T07:58:37.999Z</time>
      </trkpt>
      <trkpt lat="50.5163" lon="3.45427">
        <ele>19</ele>
        <time>2022-04-03T07:58:40.000Z</time>
      </trkpt>
      <trkpt lat="50.51636" lon="3.45426">
        <ele>19</ele>
        <time>2022-04-03T07:58:42.611Z</time>
      </trkpt>
      <trkpt lat="50.5164" lon="3.45424">
        <ele>19</ele>
        <time>2022-04-03T07:58:45.000Z</time>
      </trkpt>
      <trkpt lat="50.51645" lon="3.45423">
        <ele>19</ele>
        <time>2022-04-03T07:58:47.000Z</time>
      </trkpt>
      <trkpt lat="50.5165" lon="3.45422">
        <ele>19</ele>
        <time>2022-04-03T07:58:49.042Z</time>
      </trkpt>
      <trkpt lat="50.51655" lon="3.45421">
        <ele>19</ele>
        <time>2022-04-03T07:58:51.021Z</time>
      </trkpt>
      <trkpt lat="50.5166" lon="3.45421">
        <ele>19</ele>
        <time>2022-04-03T07:58:53.000Z</time>
      </trkpt>
      <trkpt lat="50.51664" lon="3.45417">
        <ele>19</ele>
        <time>2022-04-03T07:58:54.980Z</time>
      </trkpt>
      <trkpt lat="50.51667" lon="3.45411">
        <ele>19</ele>
        <time>2022-04-03T07:58:56.979Z</time>
      </trkpt>
      <trkpt lat="50.51669" lon="3.45402">
        <ele>19</ele>
        <time>2022-04-03T07:58:59.942Z</time>
      </trkpt>
      <trkpt lat="50.5167" lon="3.45393">
        <ele>19</ele>
        <time>2022-04-03T07:59:03.000Z</time>
      </trkpt>
      <trkpt lat="50.51673" lon="3.45385">
        <ele>19</ele>
        <time>2022-04-03T07:59:16.000Z</time>
      </trkpt>
      <trkpt lat="50.51672" lon="3.45378">
        <ele>19</ele>
        <time>2022-04-03T07:59:18.000Z</time>
      </trkpt>
      <trkpt lat="50.51668" lon="3.45366">
        <ele>19</ele>
        <time>2022-04-03T07:59:20.000Z</time>
      </trkpt>
      <trkpt lat="50.51666" lon="3.45359">
        <ele>19</ele>
        <time>2022-04-03T07:59:21.000Z</time>
      </trkpt>
      <trkpt lat="50.51662" lon="3.45349">
        <ele>19</ele>
        <time>2022-04-03T07:59:22.000Z</time>
      </trkpt>
      <trkpt lat="50.51659" lon="3.45343">
        <ele>19</ele>
        <time>2022-04-03T07:59:23.000Z</time>
      </trkpt>
      <trkpt lat="50.51654" lon="3.45332">
        <ele>19</ele>
        <time>2022-04-03T07:59:25.000Z</time>
      </trkpt>
      <trkpt lat="50.5165" lon="3.45322">
        <ele>19</ele>
        <time>2022-04-03T07:59:27.000Z</time>
      </trkpt>
      <trkpt lat="50.51645" lon="3.45312">
        <ele>19</ele>
        <time>2022-04-03T07:59:29.000Z</time>
      </trkpt>
      <trkpt lat="50.51642" lon="3.45302">
        <ele>19</ele>
        <time>2022-04-03T07:59:31.000Z</time>
      </trkpt>
      <trkpt lat="50.51637" lon="3.45291">
        <ele>19</ele>
        <time>2022-04-03T07:59:33.000Z</time>
      </trkpt>
      <trkpt lat="50.51632" lon="3.45282">
        <ele>19</ele>
        <time>2022-04-03T07:59:35.000Z</time>
      </trkpt>
      <trkpt lat="50.51628" lon="3.45271">
        <ele>19</ele>
        <time>2022-04-03T07:59:37.000Z</time>
      </trkpt>
      <trkpt lat="50.51624" lon="3.4526">
        <ele>19</ele>
        <time>2022-04-03T07:59:39.000Z</time>
      </trkpt>
      <trkpt lat="50.51622" lon="3.45247">
        <ele>19</ele>
        <time>2022-04-03T07:59:41.000Z</time>
      </trkpt>
      <trkpt lat="50.51622" lon="3.45235">
        <ele>19</ele>
        <time>2022-04-03T07:59:43.000Z</time>
      </trkpt>
      <trkpt lat="50.51622" lon="3.45228">
        <ele>19</ele>
        <time>2022-04-03T07:59:44.000Z</time>
      </trkpt>
      <trkpt lat="50.51623" lon="3.45215">
        <ele>19</ele>
        <time>2022-04-03T07:59:46.000Z</time>
      </trkpt>
      <trkpt lat="50.51623" lon="3.45203">
        <ele>19</ele>
        <time>2022-04-03T07:59:47.923Z</time>
      </trkpt>
      <trkpt lat="50.51622" lon="3.45191">
        <ele>19</ele>
        <time>2022-04-03T07:59:49.940Z</time>
      </trkpt>
      <trkpt lat="50.51622" lon="3.45178">
        <ele>18.8</ele>
        <time>2022-04-03T07:59:52.000Z</time>
      </trkpt>
      <trkpt lat="50.51626" lon="3.45166">
        <ele>18.5</ele>
        <time>2022-04-03T07:59:54.000Z</time>
      </trkpt>
      <trkpt lat="50.51633" lon="3.45161">
        <ele>18.2</ele>
        <time>2022-04-03T07:59:56.000Z</time>
      </trkpt>
      <trkpt lat="50.5164" lon="3.4516">
        <ele>18</ele>
        <time>2022-04-03T07:59:58.000Z</time>
      </trkpt>
      <trkpt lat="50.51648" lon="3.45163">
        <ele>18</ele>
        <time>2022-04-03T08:00:00.000Z</time>
      </trkpt>
      <trkpt lat="50.51656" lon="3.45167">
        <ele>18</ele>
        <time>2022-04-03T08:00:02.000Z</time>
      </trkpt>
      <trkpt lat="50.51664" lon="3.4517">
        <ele>18.1</ele>
        <time>2022-04-03T08:00:04.000Z</time>
      </trkpt>
      <trkpt lat="50.51672" lon="3.45172">
        <ele>18.2</ele>
        <time>2022-04-03T08:00:06.000Z</time>
      </trkpt>
      <trkpt lat="50.5168" lon="3.45171">
        <ele>18.1</ele>
        <time>2022-04-03T08:00:07.922Z</time>
      </trkpt>
      <trkpt lat="50.51688" lon="3.45171">
        <ele>18</ele>
        <time>2022-04-03T08:00:09.881Z</time>
      </trkpt>
      <trkpt lat="50.51696" lon="3.45173">
        <ele>18</ele>
        <time>2022-04-03T08:00:12.000Z</time>
      </trkpt>
      <trkpt lat="50.51704" lon="3.45175">
        <ele>18</ele>
        <time>2022-04-03T08:00:14.000Z</time>
      </trkpt>
      <trkpt lat="50.51712" lon="3.45176">
        <ele>18</ele>
        <time>2022-04-03T08:00:16.000Z</time>
      </trkpt>
      <trkpt lat="50.5172" lon="3.45177">
        <ele>18</ele>
        <time>2022-04-03T08:00:18.000Z</time>
      </trkpt>
      <trkpt lat="50.51728" lon="3.45179">
        <ele>18</ele>
        <time>2022-04-03T08:00:20.000Z</time>
      </trkpt>
      <trkpt lat="50.51736" lon="3.4518">
        <ele>18</ele>
        <time>2022-04-03T08:00:22.111Z</time>
      </trkpt>
      <trkpt lat="50.51743" lon="3.45179">
        <ele>18</ele>
        <time>2022-04-03T08:00:23.760Z</time>
      </trkpt>
      <trkpt lat="50.51752" lon="3.45179">
        <ele>18</ele>
        <time>2022-04-03T08:00:26.000Z</time>
      </trkpt>
      <trkpt lat="50.5176" lon="3.45181">
        <ele>18</ele>
        <time>2022-04-03T08:00:28.000Z</time>
      </trkpt>
      <trkpt lat="50.51768" lon="3.45182">
        <ele>18</ele>
        <time>2022-04-03T08:00:30.000Z</time>
      </trkpt>
      <trkpt lat="50.51776" lon="3.45183">
        <ele>18</ele>
        <time>2022-04-03T08:00:32.000Z</time>
      </trkpt>
      <trkpt lat="50.51784" lon="3.45184">
        <ele>18</ele>
        <time>2022-04-03T08:00:34.000Z</time>
      </trkpt>
      <trkpt lat="50.51792" lon="3.45184">
        <ele>18</ele>
        <time>2022-04-03T08:00:36.000Z</time>
      </trkpt>
      <trkpt lat="50.518" lon="3.45183">
        <ele>18</ele>
        <time>2022-04-03T08:00:38.000Z</time>
      </trkpt>
      <trkpt lat="50.51809" lon="3.45183">
        <ele>18</ele>
        <time>2022-04-03T08:00:40.000Z</time>
      </trkpt>
      <trkpt lat="50.51818" lon="3.45182">
        <ele>18</ele>
        <time>2022-04-03T08:00:42.000Z</time>
      </trkpt>
      <trkpt lat="50.51826" lon="3.45181">
        <ele>18</ele>
        <time>2022-04-03T08:00:44.104Z</time>
      </trkpt>
      <trkpt lat="50.51837" lon="3.45179">
        <ele>18</ele>
        <time>2022-04-03T08:00:46.819Z</time>
      </trkpt>
      <trkpt lat="50.51845" lon="3.45175">
        <ele>18</ele>
        <time>2022-04-03T08:00:49.000Z</time>
      </trkpt>
      <trkpt lat="50.51852" lon="3.4517">
        <ele>18</ele>
        <time>2022-04-03T08:00:51.000Z</time>
      </trkpt>
      <trkpt lat="50.51859" lon="3.45164">
        <ele>18</ele>
        <time>2022-04-03T08:00:53.000Z</time>
      </trkpt>
      <trkpt lat="50.51866" lon="3.45158">
        <ele>18</ele>
        <time>2022-04-03T08:00:55.000Z</time>
      </trkpt>
      <trkpt lat="50.51872" lon="3.45149">
        <ele>18</ele>
        <time>2022-04-03T08:00:57.000Z</time>
      </trkpt>
      <trkpt lat="50.51877" lon="3.45139">
        <ele>18</ele>
        <time>2022-04-03T08:00:59.000Z</time>
      </trkpt>
      <trkpt lat="50.51881" lon="3.45129">
        <ele>18</ele>
        <time>2022-04-03T08:01:00.957Z</time>
      </trkpt>
      <trkpt lat="50.51885" lon="3.45118">
        <ele>18</ele>
        <time>2022-04-03T08:01:03.000Z</time>
      </trkpt>
      <trkpt lat="50.5189" lon="3.45107">
        <ele>18</ele>
        <time>2022-04-03T08:01:05.023Z</time>
      </trkpt>
      <trkpt lat="50.51896" lon="3.45098">
        <ele>18</ele>
        <time>2022-04-03T08:01:07.000Z</time>
      </trkpt>
      <trkpt lat="50.519" lon="3.45088">
        <ele>18</ele>
        <time>2022-04-03T08:01:09.000Z</time>
      </trkpt>
      <trkpt lat="50.51905" lon="3.45078">
        <ele>18</ele>
        <time>2022-04-03T08:01:11.000Z</time>
      </trkpt>
      <trkpt lat="50.51908" lon="3.45068">
        <ele>18</ele>
        <time>2022-04-03T08:01:13.000Z</time>
      </trkpt>
      <trkpt lat="50.51912" lon="3.45057">
        <ele>18</ele>
        <time>2022-04-03T08:01:16.000Z</time>
      </trkpt>
      <trkpt lat="50.51918" lon="3.45048">
        <ele>18</ele>
        <time>2022-04-03T08:01:17.000Z</time>
      </trkpt>
      <trkpt lat="50.51922" lon="3.45043">
        <ele>18</ele>
        <time>2022-04-03T08:01:18.000Z</time>
      </trkpt>
      <trkpt lat="50.51928" lon="3.45032">
        <ele>18</ele>
        <time>2022-04-03T08:01:20.000Z</time>
      </trkpt>
      <trkpt lat="50.51933" lon="3.45022">
        <ele>18</ele>
        <time>2022-04-03T08:01:22.000Z</time>
      </trkpt>
      <trkpt lat="50.51938" lon="3.45011">
        <ele>18</ele>
        <time>2022-04-03T08:01:24.023Z</time>
      </trkpt>
      <trkpt lat="50.51943" lon="3.45001">
        <ele>18</ele>
        <time>2022-04-03T08:01:26.000Z</time>
      </trkpt>
      <trkpt lat="50.51948" lon="3.44989">
        <ele>18</ele>
        <time>2022-04-03T08:01:28.000Z</time>
      </trkpt>
      <trkpt lat="50.51953" lon="3.44979">
        <ele>18</ele>
        <time>2022-04-03T08:01:30.000Z</time>
      </trkpt>
      <trkpt lat="50.51956" lon="3.44972">
        <ele>18</ele>
        <time>2022-04-03T08:01:31.063Z</time>
      </trkpt>
      <trkpt lat="50.51961" lon="3.44963">
        <ele>18</ele>
        <time>2022-04-03T08:01:32.822Z</time>
      </trkpt>
      <trkpt lat="50.51968" lon="3.44946">
        <ele>18</ele>
        <time>2022-04-03T08:01:36.000Z</time>
      </trkpt>
      <trkpt lat="50.51973" lon="3.44935">
        <ele>18</ele>
        <time>2022-04-03T08:01:38.000Z</time>
      </trkpt>
      <trkpt lat="50.51978" lon="3.44924">
        <ele>18</ele>
        <time>2022-04-03T08:01:40.000Z</time>
      </trkpt>
      <trkpt lat="50.51983" lon="3.44913">
        <ele>18</ele>
        <time>2022-04-03T08:01:42.000Z</time>
      </trkpt>
      <trkpt lat="50.51988" lon="3.44902">
        <ele>18</ele>
        <time>2022-04-03T08:01:44.000Z</time>
      </trkpt>
      <trkpt lat="50.51992" lon="3.44892">
        <ele>18</ele>
        <time>2022-04-03T08:01:46.000Z</time>
      </trkpt>
      <trkpt lat="50.51997" lon="3.44881">
        <ele>18</ele>
        <time>2022-04-03T08:01:48.000Z</time>
      </trkpt>
      <trkpt lat="50.52001" lon="3.44869">
        <ele>18</ele>
        <time>2022-04-03T08:01:50.000Z</time>
      </trkpt>
      <trkpt lat="50.52007" lon="3.44858">
        <ele>18</ele>
        <time>2022-04-03T08:01:52.000Z</time>
      </trkpt>
      <trkpt lat="50.52012" lon="3.44849">
        <ele>18</ele>
        <time>2022-04-03T08:01:54.000Z</time>
      </trkpt>
      <trkpt lat="50.52017" lon="3.44839">
        <ele>18</ele>
        <time>2022-04-03T08:01:56.000Z</time>
      </trkpt>
      <trkpt lat="50.52022" lon="3.44828">
        <ele>18</ele>
        <time>2022-04-03T08:01:58.000Z</time>
      </trkpt>
      <trkpt lat="50.52028" lon="3.44818">
        <ele>18</ele>
        <time>2022-04-03T08:02:00.000Z</time>
      </trkpt>
      <trkpt lat="50.52033" lon="3.44809">
        <ele>18</ele>
        <time>2022-04-03T08:02:02.000Z</time>
      </trkpt>
      <trkpt lat="50.52037" lon="3.448">
        <ele>18</ele>
        <time>2022-04-03T08:02:04.000Z</time>
      </trkpt>
      <trkpt lat="50.52042" lon="3.44792">
        <ele>18</ele>
        <time>2022-04-03T08:02:06.000Z</time>
      </trkpt>
      <trkpt lat="50.52048" lon="3.44784">
        <ele>18</ele>
        <time>2022-04-03T08:02:08.000Z</time>
      </trkpt>
      <trkpt lat="50.52052" lon="3.44776">
        <ele>18</ele>
        <time>2022-04-03T08:02:10.000Z</time>
      </trkpt>
      <trkpt lat="50.52057" lon="3.44765">
        <ele>18</ele>
        <time>2022-04-03T08:02:12.102Z</time>
      </trkpt>
      <trkpt lat="50.5206" lon="3.44756">
        <ele>18</ele>
        <time>2022-04-03T08:02:14.000Z</time>
      </trkpt>
      <trkpt lat="50.52062" lon="3.44748">
        <ele>18</ele>
        <time>2022-04-03T08:02:15.591Z</time>
      </trkpt>
      <trkpt lat="50.52064" lon="3.44741">
        <ele>18</ele>
        <time>2022-04-03T08:02:17.000Z</time>
      </trkpt>
      <trkpt lat="50.52068" lon="3.44732">
        <ele>18</ele>
        <time>2022-04-03T08:02:19.000Z</time>
      </trkpt>
      <trkpt lat="50.5207" lon="3.44723">
        <ele>18</ele>
        <time>2022-04-03T08:02:21.000Z</time>
      </trkpt>
      <trkpt lat="50.52075" lon="3.44717">
        <ele>18</ele>
        <time>2022-04-03T08:02:23.000Z</time>
      </trkpt>
      <trkpt lat="50.5208" lon="3.44712">
        <ele>18</ele>
        <time>2022-04-03T08:02:25.000Z</time>
      </trkpt>
      <trkpt lat="50.52082" lon="3.44704">
        <ele>18</ele>
        <time>2022-04-03T08:02:27.000Z</time>
      </trkpt>
      <trkpt lat="50.52084" lon="3.44696">
        <ele>18</ele>
        <time>2022-04-03T08:02:38.000Z</time>
      </trkpt>
      <trkpt lat="50.52084" lon="3.44688">
        <ele>18</ele>
        <time>2022-04-03T08:02:39.941Z</time>
      </trkpt>
      <trkpt lat="50.52084" lon="3.44674">
        <ele>18</ele>
        <time>2022-04-03T08:02:41.960Z</time>
      </trkpt>
      <trkpt lat="50.52084" lon="3.44664">
        <ele>18</ele>
        <time>2022-04-03T08:02:43.000Z</time>
      </trkpt>
      <trkpt lat="50.52083" lon="3.44654">
        <ele>18</ele>
        <time>2022-04-03T08:02:44.000Z</time>
      </trkpt>
      <trkpt lat="50.52083" lon="3.44638">
        <ele>18</ele>
        <time>2022-04-03T08:02:45.000Z</time>
      </trkpt>
      <trkpt lat="50.52083" lon="3.44628">
        <ele>18</ele>
        <time>2022-04-03T08:02:46.000Z</time>
      </trkpt>
      <trkpt lat="50.52084" lon="3.44619">
        <ele>18</ele>
        <time>2022-04-03T08:02:47.000Z</time>
      </trkpt>
      <trkpt lat="50.52084" lon="3.44611">
        <ele>18</ele>
        <time>2022-04-03T08:02:48.000Z</time>
      </trkpt>
      <trkpt lat="50.52084" lon="3.44603">
        <ele>18</ele>
        <time>2022-04-03T08:02:49.000Z</time>
      </trkpt>
      <trkpt lat="50.52084" lon="3.44596">
        <ele>18</ele>
        <time>2022-04-03T08:02:50.000Z</time>
      </trkpt>
      <trkpt lat="50.52085" lon="3.44583">
        <ele>18</ele>
        <time>2022-04-03T08:02:52.000Z</time>
      </trkpt>
      <trkpt lat="50.52086" lon="3.44569">
        <ele>18</ele>
        <time>2022-04-03T08:02:54.000Z</time>
      </trkpt>
      <trkpt lat="50.52084" lon="3.44555">
        <ele>18</ele>
        <time>2022-04-03T08:02:57.000Z</time>
      </trkpt>
      <trkpt lat="50.52084" lon="3.44548">
        <ele>18</ele>
        <time>2022-04-03T08:02:58.000Z</time>
      </trkpt>
      <trkpt lat="50.52085" lon="3.44541">
        <ele>18</ele>
        <time>2022-04-03T08:02:58.979Z</time>
      </trkpt>
      <trkpt lat="50.52085" lon="3.44533">
        <ele>18</ele>
        <time>2022-04-03T08:03:00.000Z</time>
      </trkpt>
      <trkpt lat="50.52085" lon="3.44519">
        <ele>18</ele>
        <time>2022-04-03T08:03:02.000Z</time>
      </trkpt>
      <trkpt lat="50.52085" lon="3.44505">
        <ele>18</ele>
        <time>2022-04-03T08:03:04.000Z</time>
      </trkpt>
      <trkpt lat="50.52087" lon="3.44494">
        <ele>18</ele>
        <time>2022-04-03T08:03:06.000Z</time>
      </trkpt>
      <trkpt lat="50.52087" lon="3.44481">
        <ele>18</ele>
        <time>2022-04-03T08:03:08.000Z</time>
      </trkpt>
      <trkpt lat="50.52088" lon="3.44468">
        <ele>18</ele>
        <time>2022-04-03T08:03:10.000Z</time>
      </trkpt>
      <trkpt lat="50.52089" lon="3.44459">
        <ele>18</ele>
        <time>2022-04-03T08:03:11.858Z</time>
      </trkpt>
      <trkpt lat="50.5209" lon="3.44445">
        <ele>18</ele>
        <time>2022-04-03T08:03:14.115Z</time>
      </trkpt>
      <trkpt lat="50.5209" lon="3.44434">
        <ele>18</ele>
        <time>2022-04-03T08:03:16.000Z</time>
      </trkpt>
      <trkpt lat="50.5209" lon="3.44421">
        <ele>18</ele>
        <time>2022-04-03T08:03:18.036Z</time>
      </trkpt>
      <trkpt lat="50.5209" lon="3.44409">
        <ele>18</ele>
        <time>2022-04-03T08:03:20.000Z</time>
      </trkpt>
      <trkpt lat="50.5209" lon="3.44397">
        <ele>18</ele>
        <time>2022-04-03T08:03:22.000Z</time>
      </trkpt>
      <trkpt lat="50.52091" lon="3.4438">
        <ele>18</ele>
        <time>2022-04-03T08:03:24.799Z</time>
      </trkpt>
      <trkpt lat="50.52092" lon="3.44366">
        <ele>18</ele>
        <time>2022-04-03T08:03:27.000Z</time>
      </trkpt>
      <trkpt lat="50.52092" lon="3.44353">
        <ele>18</ele>
        <time>2022-04-03T08:03:29.016Z</time>
      </trkpt>
      <trkpt lat="50.52092" lon="3.4434">
        <ele>18</ele>
        <time>2022-04-03T08:03:31.000Z</time>
      </trkpt>
      <trkpt lat="50.52092" lon="3.44321">
        <ele>18</ele>
        <time>2022-04-03T08:03:34.000Z</time>
      </trkpt>
      <trkpt lat="50.52092" lon="3.44308">
        <ele>18</ele>
        <time>2022-04-03T08:03:36.000Z</time>
      </trkpt>
      <trkpt lat="50.52093" lon="3.44294">
        <ele>18</ele>
        <time>2022-04-03T08:03:38.000Z</time>
      </trkpt>
      <trkpt lat="50.52093" lon="3.44287">
        <ele>18</ele>
        <time>2022-04-03T08:03:39.097Z</time>
      </trkpt>
      <trkpt lat="50.52094" lon="3.44273">
        <ele>18</ele>
        <time>2022-04-03T08:03:41.000Z</time>
      </trkpt>
      <trkpt lat="50.52092" lon="3.44262">
        <ele>18</ele>
        <time>2022-04-03T08:03:43.000Z</time>
      </trkpt>
      <trkpt lat="50.5209" lon="3.44249">
        <ele>18</ele>
        <time>2022-04-03T08:03:45.000Z</time>
      </trkpt>
      <trkpt lat="50.52088" lon="3.44238">
        <ele>18</ele>
        <time>2022-04-03T08:03:47.000Z</time>
      </trkpt>
      <trkpt lat="50.52086" lon="3.44225">
        <ele>18</ele>
        <time>2022-04-03T08:03:49.000Z</time>
      </trkpt>
      <trkpt lat="50.52083" lon="3.44214">
        <ele>18</ele>
        <time>2022-04-03T08:03:51.000Z</time>
      </trkpt>
      <trkpt lat="50.52079" lon="3.44204">
        <ele>18</ele>
        <time>2022-04-03T08:03:53.000Z</time>
      </trkpt>
      <trkpt lat="50.52074" lon="3.44195">
        <ele>18</ele>
        <time>2022-04-03T08:03:55.000Z</time>
      </trkpt>
      <trkpt lat="50.5207" lon="3.44185">
        <ele>18</ele>
        <time>2022-04-03T08:03:57.000Z</time>
      </trkpt>
      <trkpt lat="50.52066" lon="3.44175">
        <ele>18</ele>
        <time>2022-04-03T08:03:59.000Z</time>
      </trkpt>
      <trkpt lat="50.5206" lon="3.44166">
        <ele>18</ele>
        <time>2022-04-03T08:04:01.000Z</time>
      </trkpt>
      <trkpt lat="50.52054" lon="3.44157">
        <ele>18</ele>
        <time>2022-04-03T08:04:03.000Z</time>
      </trkpt>
      <trkpt lat="50.52048" lon="3.44148">
        <ele>18</ele>
        <time>2022-04-03T08:04:05.000Z</time>
      </trkpt>
      <trkpt lat="50.52043" lon="3.44139">
        <ele>18</ele>
        <time>2022-04-03T08:04:06.881Z</time>
      </trkpt>
      <trkpt lat="50.5204" lon="3.44134">
        <ele>18</ele>
        <time>2022-04-03T08:04:08.000Z</time>
      </trkpt>
      <trkpt lat="50.52035" lon="3.44123">
        <ele>18</ele>
        <time>2022-04-03T08:04:10.000Z</time>
      </trkpt>
      <trkpt lat="50.5203" lon="3.44114">
        <ele>18</ele>
        <time>2022-04-03T08:04:12.056Z</time>
      </trkpt>
      <trkpt lat="50.52026" lon="3.44107">
        <ele>18</ele>
        <time>2022-04-03T08:04:13.476Z</time>
      </trkpt>
      <trkpt lat="50.52023" lon="3.44102">
        <ele>18</ele>
        <time>2022-04-03T08:04:14.599Z</time>
      </trkpt>
      <trkpt lat="50.5202" lon="3.44095">
        <ele>18</ele>
        <time>2022-04-03T08:04:16.000Z</time>
      </trkpt>
      <trkpt lat="50.52015" lon="3.44085">
        <ele>18</ele>
        <time>2022-04-03T08:04:18.062Z</time>
      </trkpt>
      <trkpt lat="50.52011" lon="3.44076">
        <ele>18.3</ele>
        <time>2022-04-03T08:04:20.000Z</time>
      </trkpt>
      <trkpt lat="50.52006" lon="3.44067">
        <ele>18.6</ele>
        <time>2022-04-03T08:04:22.000Z</time>
      </trkpt>
      <trkpt lat="50.52001" lon="3.44059">
        <ele>18.9</ele>
        <time>2022-04-03T08:04:24.000Z</time>
      </trkpt>
      <trkpt lat="50.51996" lon="3.4405">
        <ele>19</ele>
        <time>2022-04-03T08:04:26.000Z</time>
      </trkpt>
      <trkpt lat="50.51992" lon="3.44042">
        <ele>19</ele>
        <time>2022-04-03T08:04:27.898Z</time>
      </trkpt>
      <trkpt lat="50.51985" lon="3.44028">
        <ele>19</ele>
        <time>2022-04-03T08:04:31.000Z</time>
      </trkpt>
      <trkpt lat="50.5198" lon="3.44019">
        <ele>19</ele>
        <time>2022-04-03T08:04:32.876Z</time>
      </trkpt>
      <trkpt lat="50.51975" lon="3.44012">
        <ele>19</ele>
        <time>2022-04-03T08:04:35.000Z</time>
      </trkpt>
      <trkpt lat="50.51971" lon="3.44002">
        <ele>19</ele>
        <time>2022-04-03T08:04:37.000Z</time>
      </trkpt>
      <trkpt lat="50.51966" lon="3.43993">
        <ele>19</ele>
        <time>2022-04-03T08:04:39.145Z</time>
      </trkpt>
      <trkpt lat="50.51962" lon="3.43984">
        <ele>19</ele>
        <time>2022-04-03T08:04:41.297Z</time>
      </trkpt>
      <trkpt lat="50.51956" lon="3.43973">
        <ele>19</ele>
        <time>2022-04-03T08:04:44.000Z</time>
      </trkpt>
      <trkpt lat="50.51952" lon="3.43964">
        <ele>19.1</ele>
        <time>2022-04-03T08:04:46.000Z</time>
      </trkpt>
      <trkpt lat="50.51948" lon="3.43954">
        <ele>19.1</ele>
        <time>2022-04-03T08:04:48.000Z</time>
      </trkpt>
      <trkpt lat="50.51943" lon="3.43946">
        <ele>19</ele>
        <time>2022-04-03T08:04:50.000Z</time>
      </trkpt>
      <trkpt lat="50.51938" lon="3.43938">
        <ele>19.4</ele>
        <time>2022-04-03T08:04:51.874Z</time>
      </trkpt>
      <trkpt lat="50.51933" lon="3.43928">
        <ele>19.8</ele>
        <time>2022-04-03T08:04:54.000Z</time>
      </trkpt>
      <trkpt lat="50.51929" lon="3.43919">
        <ele>20</ele>
        <time>2022-04-03T08:04:56.000Z</time>
      </trkpt>
      <trkpt lat="50.51924" lon="3.43911">
        <ele>20</ele>
        <time>2022-04-03T08:04:58.000Z</time>
      </trkpt>
      <trkpt lat="50.5192" lon="3.43903">
        <ele>20</ele>
        <time>2022-04-03T08:05:00.000Z</time>
      </trkpt>
      <trkpt lat="50.51914" lon="3.43894">
        <ele>20</ele>
        <time>2022-04-03T08:05:02.000Z</time>
      </trkpt>
      <trkpt lat="50.5191" lon="3.43885">
        <ele>20</ele>
        <time>2022-04-03T08:05:04.056Z</time>
      </trkpt>
      <trkpt lat="50.51905" lon="3.43877">
        <ele>20</ele>
        <time>2022-04-03T08:05:06.000Z</time>
      </trkpt>
      <trkpt lat="50.519" lon="3.43865">
        <ele>20</ele>
        <time>2022-04-03T08:05:09.000Z</time>
      </trkpt>
      <trkpt lat="50.51896" lon="3.43858">
        <ele>20</ele>
        <time>2022-04-03T08:05:11.000Z</time>
      </trkpt>
      <trkpt lat="50.51892" lon="3.43851">
        <ele>20</ele>
        <time>2022-04-03T08:05:13.000Z</time>
      </trkpt>
      <trkpt lat="50.51888" lon="3.43843">
        <ele>20</ele>
        <time>2022-04-03T08:05:15.000Z</time>
      </trkpt>
      <trkpt lat="50.51884" lon="3.43837">
        <ele>20</ele>
        <time>2022-04-03T08:05:16.917Z</time>
      </trkpt>
      <trkpt lat="50.5188" lon="3.4383">
        <ele>20</ele>
        <time>2022-04-03T08:05:18.958Z</time>
      </trkpt>
      <trkpt lat="50.51876" lon="3.43823">
        <ele>20</ele>
        <time>2022-04-03T08:05:21.000Z</time>
      </trkpt>
      <trkpt lat="50.51872" lon="3.43815">
        <ele>20</ele>
        <time>2022-04-03T08:05:23.000Z</time>
      </trkpt>
      <trkpt lat="50.51865" lon="3.43805">
        <ele>20</ele>
        <time>2022-04-03T08:05:26.096Z</time>
      </trkpt>
      <trkpt lat="50.51861" lon="3.43799">
        <ele>20</ele>
        <time>2022-04-03T08:05:27.598Z</time>
      </trkpt>
      <trkpt lat="50.51855" lon="3.4379">
        <ele>20</ele>
        <time>2022-04-03T08:05:29.840Z</time>
      </trkpt>
      <trkpt lat="50.51849" lon="3.43782">
        <ele>20</ele>
        <time>2022-04-03T08:05:32.000Z</time>
      </trkpt>
      <trkpt lat="50.51843" lon="3.43775">
        <ele>20</ele>
        <time>2022-04-03T08:05:34.000Z</time>
      </trkpt>
      <trkpt lat="50.51837" lon="3.43768">
        <ele>20</ele>
        <time>2022-04-03T08:05:36.000Z</time>
      </trkpt>
      <trkpt lat="50.51831" lon="3.4376">
        <ele>20.1</ele>
        <time>2022-04-03T08:05:38.000Z</time>
      </trkpt>
      <trkpt lat="50.51825" lon="3.43752">
        <ele>20.3</ele>
        <time>2022-04-03T08:05:40.000Z</time>
      </trkpt>
      <trkpt lat="50.51816" lon="3.43741">
        <ele>20.6</ele>
        <time>2022-04-03T08:05:43.000Z</time>
      </trkpt>
      <trkpt lat="50.51812" lon="3.43734">
        <ele>20.8</ele>
        <time>2022-04-03T08:05:45.000Z</time>
      </trkpt>
      <trkpt lat="50.51806" lon="3.43727">
        <ele>21</ele>
        <time>2022-04-03T08:05:47.000Z</time>
      </trkpt>
      <trkpt lat="50.518" lon="3.4372">
        <ele>20.9</ele>
        <time>2022-04-03T08:05:49.000Z</time>
      </trkpt>
      <trkpt lat="50.51795" lon="3.43712">
        <ele>20.6</ele>
        <time>2022-04-03T08:05:51.000Z</time>
      </trkpt>
      <trkpt lat="50.5179" lon="3.43705">
        <ele>20.4</ele>
        <time>2022-04-03T08:05:53.000Z</time>
      </trkpt>
      <trkpt lat="50.51781" lon="3.43694">
        <ele>20</ele>
        <time>2022-04-03T08:05:56.000Z</time>
      </trkpt>
      <trkpt lat="50.51776" lon="3.43687">
        <ele>20.3</ele>
        <time>2022-04-03T08:05:58.000Z</time>
      </trkpt>
      <trkpt lat="50.5177" lon="3.43679">
        <ele>20.4</ele>
        <time>2022-04-03T08:06:00.000Z</time>
      </trkpt>
      <trkpt lat="50.51763" lon="3.43671">
        <ele>20.4</ele>
        <time>2022-04-03T08:06:02.000Z</time>
      </trkpt>
      <trkpt lat="50.51757" lon="3.43663">
        <ele>20.3</ele>
        <time>2022-04-03T08:06:04.000Z</time>
      </trkpt>
      <trkpt lat="50.51751" lon="3.43654">
        <ele>20</ele>
        <time>2022-04-03T08:06:06.056Z</time>
      </trkpt>
      <trkpt lat="50.51744" lon="3.43646">
        <ele>19.9</ele>
        <time>2022-04-03T08:06:08.124Z</time>
      </trkpt>
      <trkpt lat="50.51737" lon="3.43637">
        <ele>20</ele>
        <time>2022-04-03T08:06:10.000Z</time>
      </trkpt>
      <trkpt lat="50.51729" lon="3.43627">
        <ele>20</ele>
        <time>2022-04-03T08:06:12.176Z</time>
      </trkpt>
      <trkpt lat="50.51724" lon="3.43621">
        <ele>20</ele>
        <time>2022-04-03T08:06:13.172Z</time>
      </trkpt>
      <trkpt lat="50.5172" lon="3.43615">
        <ele>19.9</ele>
        <time>2022-04-03T08:06:14.191Z</time>
      </trkpt>
      <trkpt lat="50.51713" lon="3.43605">
        <ele>19.7</ele>
        <time>2022-04-03T08:06:16.000Z</time>
      </trkpt>
      <trkpt lat="50.51709" lon="3.436">
        <ele>19.5</ele>
        <time>2022-04-03T08:06:17.000Z</time>
      </trkpt>
      <trkpt lat="50.51704" lon="3.43594">
        <ele>19.3</ele>
        <time>2022-04-03T08:06:18.000Z</time>
      </trkpt>
      <trkpt lat="50.517" lon="3.43588">
        <ele>19.2</ele>
        <time>2022-04-03T08:06:19.000Z</time>
      </trkpt>
      <trkpt lat="50.51696" lon="3.43582">
        <ele>19.1</ele>
        <time>2022-04-03T08:06:20.000Z</time>
      </trkpt>
      <trkpt lat="50.51692" lon="3.43577">
        <ele>19</ele>
        <time>2022-04-03T08:06:21.000Z</time>
      </trkpt>
      <trkpt lat="50.51688" lon="3.43571">
        <ele>18.9</ele>
        <time>2022-04-03T08:06:22.000Z</time>
      </trkpt>
      <trkpt lat="50.51684" lon="3.43565">
        <ele>18.8</ele>
        <time>2022-04-03T08:06:23.000Z</time>
      </trkpt>
      <trkpt lat="50.5168" lon="3.43558">
        <ele>18.5</ele>
        <time>2022-04-03T08:06:24.000Z</time>
      </trkpt>
      <trkpt lat="50.51676" lon="3.43552">
        <ele>18.3</ele>
        <time>2022-04-03T08:06:25.000Z</time>
      </trkpt>
      <trkpt lat="50.51673" lon="3.43545">
        <ele>18.2</ele>
        <time>2022-04-03T08:06:26.000Z</time>
      </trkpt>
      <trkpt lat="50.51669" lon="3.43538">
        <ele>18.1</ele>
        <time>2022-04-03T08:06:27.000Z</time>
      </trkpt>
      <trkpt lat="50.51666" lon="3.43532">
        <ele>18</ele>
        <time>2022-04-03T08:06:28.000Z</time>
      </trkpt>
      <trkpt lat="50.51662" lon="3.43525">
        <ele>18</ele>
        <time>2022-04-03T08:06:29.000Z</time>
      </trkpt>
      <trkpt lat="50.51658" lon="3.43518">
        <ele>18</ele>
        <time>2022-04-03T08:06:30.000Z</time>
      </trkpt>
      <trkpt lat="50.51655" lon="3.43511">
        <ele>18</ele>
        <time>2022-04-03T08:06:31.000Z</time>
      </trkpt>
      <trkpt lat="50.51652" lon="3.43505">
        <ele>18</ele>
        <time>2022-04-03T08:06:32.000Z</time>
      </trkpt>
      <trkpt lat="50.51648" lon="3.43498">
        <ele>18</ele>
        <time>2022-04-03T08:06:33.000Z</time>
      </trkpt>
      <trkpt lat="50.51645" lon="3.43491">
        <ele>18</ele>
        <time>2022-04-03T08:06:34.000Z</time>
      </trkpt>
      <trkpt lat="50.51641" lon="3.43485">
        <ele>18</ele>
        <time>2022-04-03T08:06:35.000Z</time>
      </trkpt>
      <trkpt lat="50.51637" lon="3.43479">
        <ele>18</ele>
        <time>2022-04-03T08:06:36.000Z</time>
      </trkpt>
      <trkpt lat="50.51633" lon="3.43474">
        <ele>18</ele>
        <time>2022-04-03T08:06:37.000Z</time>
      </trkpt>
      <trkpt lat="50.5163" lon="3.43469">
        <ele>18</ele>
        <time>2022-04-03T08:06:38.000Z</time>
      </trkpt>
      <trkpt lat="50.51626" lon="3.43463">
        <ele>18</ele>
        <time>2022-04-03T08:06:39.000Z</time>
      </trkpt>
      <trkpt lat="50.51622" lon="3.43458">
        <ele>18</ele>
        <time>2022-04-03T08:06:40.000Z</time>
      </trkpt>
      <trkpt lat="50.51619" lon="3.43453">
        <ele>18</ele>
        <time>2022-04-03T08:06:41.000Z</time>
      </trkpt>
      <trkpt lat="50.51615" lon="3.43447">
        <ele>18</ele>
        <time>2022-04-03T08:06:42.000Z</time>
      </trkpt>
      <trkpt lat="50.51612" lon="3.43442">
        <ele>18</ele>
        <time>2022-04-03T08:06:43.000Z</time>
      </trkpt>
      <trkpt lat="50.51609" lon="3.43437">
        <ele>17.9</ele>
        <time>2022-04-03T08:06:44.000Z</time>
      </trkpt>
      <trkpt lat="50.51605" lon="3.43431">
        <ele>17.9</ele>
        <time>2022-04-03T08:06:45.000Z</time>
      </trkpt>
      <trkpt lat="50.51601" lon="3.43427">
        <ele>17.9</ele>
        <time>2022-04-03T08:06:46.000Z</time>
      </trkpt>
      <trkpt lat="50.51598" lon="3.43422">
        <ele>17.9</ele>
        <time>2022-04-03T08:06:47.000Z</time>
      </trkpt>
      <trkpt lat="50.51594" lon="3.43417">
        <ele>18</ele>
        <time>2022-04-03T08:06:48.000Z</time>
      </trkpt>
      <trkpt lat="50.51587" lon="3.43407">
        <ele>18</ele>
        <time>2022-04-03T08:06:50.000Z</time>
      </trkpt>
      <trkpt lat="50.51582" lon="3.43397">
        <ele>18</ele>
        <time>2022-04-03T08:06:52.000Z</time>
      </trkpt>
      <trkpt lat="50.51576" lon="3.43386">
        <ele>17.7</ele>
        <time>2022-04-03T08:06:54.000Z</time>
      </trkpt>
      <trkpt lat="50.51571" lon="3.43374">
        <ele>17.6</ele>
        <time>2022-04-03T08:06:56.000Z</time>
      </trkpt>
      <trkpt lat="50.51567" lon="3.43361">
        <ele>17.4</ele>
        <time>2022-04-03T08:06:58.000Z</time>
      </trkpt>
      <trkpt lat="50.51565" lon="3.43355">
        <ele>17.4</ele>
        <time>2022-04-03T08:06:59.000Z</time>
      </trkpt>
      <trkpt lat="50.51563" lon="3.43349">
        <ele>17.5</ele>
        <time>2022-04-03T08:07:00.000Z</time>
      </trkpt>
      <trkpt lat="50.51561" lon="3.43342">
        <ele>17.6</ele>
        <time>2022-04-03T08:07:01.000Z</time>
      </trkpt>
      <trkpt lat="50.51557" lon="3.43329">
        <ele>17.8</ele>
        <time>2022-04-03T08:07:03.000Z</time>
      </trkpt>
      <trkpt lat="50.51555" lon="3.43323">
        <ele>17.6</ele>
        <time>2022-04-03T08:07:04.000Z</time>
      </trkpt>
      <trkpt lat="50.51552" lon="3.43312">
        <ele>17.2</ele>
        <time>2022-04-03T08:07:06.000Z</time>
      </trkpt>
      <trkpt lat="50.51548" lon="3.43301">
        <ele>17</ele>
        <time>2022-04-03T08:07:08.000Z</time>
      </trkpt>
      <trkpt lat="50.51546" lon="3.43295">
        <ele>17</ele>
        <time>2022-04-03T08:07:09.000Z</time>
      </trkpt>
      <trkpt lat="50.51543" lon="3.43285">
        <ele>17</ele>
        <time>2022-04-03T08:07:11.000Z</time>
      </trkpt>
      <trkpt lat="50.51539" lon="3.43273">
        <ele>17.1</ele>
        <time>2022-04-03T08:07:13.000Z</time>
      </trkpt>
      <trkpt lat="50.51536" lon="3.43261">
        <ele>17.4</ele>
        <time>2022-04-03T08:07:14.985Z</time>
      </trkpt>
      <trkpt lat="50.51533" lon="3.4325">
        <ele>17.8</ele>
        <time>2022-04-03T08:07:17.000Z</time>
      </trkpt>
      <trkpt lat="50.5153" lon="3.43238">
        <ele>17.9</ele>
        <time>2022-04-03T08:07:19.000Z</time>
      </trkpt>
      <trkpt lat="50.51528" lon="3.43226">
        <ele>18</ele>
        <time>2022-04-03T08:07:21.000Z</time>
      </trkpt>
      <trkpt lat="50.51526" lon="3.43214">
        <ele>17.7</ele>
        <time>2022-04-03T08:07:23.000Z</time>
      </trkpt>
      <trkpt lat="50.51525" lon="3.43201">
        <ele>17.2</ele>
        <time>2022-04-03T08:07:25.000Z</time>
      </trkpt>
      <trkpt lat="50.51524" lon="3.43188">
        <ele>17</ele>
        <time>2022-04-03T08:07:27.000Z</time>
      </trkpt>
      <trkpt lat="50.51524" lon="3.43174">
        <ele>17</ele>
        <time>2022-04-03T08:07:29.000Z</time>
      </trkpt>
      <trkpt lat="50.51524" lon="3.43167">
        <ele>17</ele>
        <time>2022-04-03T08:07:30.000Z</time>
      </trkpt>
      <trkpt lat="50.51524" lon="3.4316">
        <ele>17.2</ele>
        <time>2022-04-03T08:07:31.000Z</time>
      </trkpt>
      <trkpt lat="50.51525" lon="3.43146">
        <ele>17.7</ele>
        <time>2022-04-03T08:07:32.908Z</time>
      </trkpt>
      <trkpt lat="50.51527" lon="3.43133">
        <ele>18</ele>
        <time>2022-04-03T08:07:35.000Z</time>
      </trkpt>
      <trkpt lat="50.51528" lon="3.43119">
        <ele>18</ele>
        <time>2022-04-03T08:07:37.000Z</time>
      </trkpt>
      <trkpt lat="50.51529" lon="3.43106">
        <ele>18</ele>
        <time>2022-04-03T08:07:39.000Z</time>
      </trkpt>
      <trkpt lat="50.51531" lon="3.43093">
        <ele>18</ele>
        <time>2022-04-03T08:07:41.000Z</time>
      </trkpt>
      <trkpt lat="50.51532" lon="3.43081">
        <ele>18</ele>
        <time>2022-04-03T08:07:43.000Z</time>
      </trkpt>
      <trkpt lat="50.51533" lon="3.43068">
        <ele>17.9</ele>
        <time>2022-04-03T08:07:45.000Z</time>
      </trkpt>
      <trkpt lat="50.51535" lon="3.43055">
        <ele>17.7</ele>
        <time>2022-04-03T08:07:47.000Z</time>
      </trkpt>
      <trkpt lat="50.51536" lon="3.43042">
        <ele>17.7</ele>
        <time>2022-04-03T08:07:49.000Z</time>
      </trkpt>
      <trkpt lat="50.51537" lon="3.43029">
        <ele>17.7</ele>
        <time>2022-04-03T08:07:51.000Z</time>
      </trkpt>
      <trkpt lat="50.51538" lon="3.43017">
        <ele>17.6</ele>
        <time>2022-04-03T08:07:53.000Z</time>
      </trkpt>
      <trkpt lat="50.51538" lon="3.43005">
        <ele>17.6</ele>
        <time>2022-04-03T08:07:55.000Z</time>
      </trkpt>
      <trkpt lat="50.5154" lon="3.42991">
        <ele>17.4</ele>
        <time>2022-04-03T08:07:57.000Z</time>
      </trkpt>
      <trkpt lat="50.51541" lon="3.42978">
        <ele>17.1</ele>
        <time>2022-04-03T08:07:58.989Z</time>
      </trkpt>
      <trkpt lat="50.51541" lon="3.4297">
        <ele>17</ele>
        <time>2022-04-03T08:08:00.159Z</time>
      </trkpt>
      <trkpt lat="50.51542" lon="3.4296">
        <ele>17</ele>
        <time>2022-04-03T08:08:01.618Z</time>
      </trkpt>
      <trkpt lat="50.51543" lon="3.42952">
        <ele>17</ele>
        <time>2022-04-03T08:08:03.000Z</time>
      </trkpt>
      <trkpt lat="50.51545" lon="3.4294">
        <ele>17</ele>
        <time>2022-04-03T08:08:04.866Z</time>
      </trkpt>
      <trkpt lat="50.51546" lon="3.42932">
        <ele>17</ele>
        <time>2022-04-03T08:08:06.148Z</time>
      </trkpt>
      <trkpt lat="50.51547" lon="3.42922">
        <ele>17</ele>
        <time>2022-04-03T08:08:07.645Z</time>
      </trkpt>
      <trkpt lat="50.51548" lon="3.42914">
        <ele>17</ele>
        <time>2022-04-03T08:08:08.884Z</time>
      </trkpt>
      <trkpt lat="50.51549" lon="3.42902">
        <ele>17</ele>
        <time>2022-04-03T08:08:11.000Z</time>
      </trkpt>
      <trkpt lat="50.5155" lon="3.42884">
        <ele>17.1</ele>
        <time>2022-04-03T08:08:14.000Z</time>
      </trkpt>
      <trkpt lat="50.51551" lon="3.42877">
        <ele>17.4</ele>
        <time>2022-04-03T08:08:15.000Z</time>
      </trkpt>
      <trkpt lat="50.51552" lon="3.42865">
        <ele>17.7</ele>
        <time>2022-04-03T08:08:17.000Z</time>
      </trkpt>
      <trkpt lat="50.51554" lon="3.42853">
        <ele>17.9</ele>
        <time>2022-04-03T08:08:19.000Z</time>
      </trkpt>
      <trkpt lat="50.51555" lon="3.4284">
        <ele>18</ele>
        <time>2022-04-03T08:08:21.000Z</time>
      </trkpt>
      <trkpt lat="50.51556" lon="3.42828">
        <ele>18</ele>
        <time>2022-04-03T08:08:23.000Z</time>
      </trkpt>
      <trkpt lat="50.51557" lon="3.4282">
        <ele>17.9</ele>
        <time>2022-04-03T08:08:24.103Z</time>
      </trkpt>
      <trkpt lat="50.51558" lon="3.42807">
        <ele>17.9</ele>
        <time>2022-04-03T08:08:26.000Z</time>
      </trkpt>
      <trkpt lat="50.51559" lon="3.42793">
        <ele>17.9</ele>
        <time>2022-04-03T08:08:28.000Z</time>
      </trkpt>
      <trkpt lat="50.5156" lon="3.4278">
        <ele>17.8</ele>
        <time>2022-04-03T08:08:30.000Z</time>
      </trkpt>
      <trkpt lat="50.51561" lon="3.42766">
        <ele>17.8</ele>
        <time>2022-04-03T08:08:32.000Z</time>
      </trkpt>
      <trkpt lat="50.51562" lon="3.42757">
        <ele>17.8</ele>
        <time>2022-04-03T08:08:33.000Z</time>
      </trkpt>
      <trkpt lat="50.51563" lon="3.42749">
        <ele>17.7</ele>
        <time>2022-04-03T08:08:34.000Z</time>
      </trkpt>
      <trkpt lat="50.51563" lon="3.42741">
        <ele>17.5</ele>
        <time>2022-04-03T08:08:35.000Z</time>
      </trkpt>
      <trkpt lat="50.51564" lon="3.42734">
        <ele>17.3</ele>
        <time>2022-04-03T08:08:36.000Z</time>
      </trkpt>
      <trkpt lat="50.51564" lon="3.42727">
        <ele>17.1</ele>
        <time>2022-04-03T08:08:37.000Z</time>
      </trkpt>
      <trkpt lat="50.51565" lon="3.4272">
        <ele>17</ele>
        <time>2022-04-03T08:08:38.000Z</time>
      </trkpt>
      <trkpt lat="50.51566" lon="3.42712">
        <ele>17</ele>
        <time>2022-04-03T08:08:39.000Z</time>
      </trkpt>
      <trkpt lat="50.51567" lon="3.42705">
        <ele>17</ele>
        <time>2022-04-03T08:08:40.000Z</time>
      </trkpt>
      <trkpt lat="50.51567" lon="3.42698">
        <ele>17</ele>
        <time>2022-04-03T08:08:41.000Z</time>
      </trkpt>
      <trkpt lat="50.51568" lon="3.4269">
        <ele>17</ele>
        <time>2022-04-03T08:08:42.000Z</time>
      </trkpt>
      <trkpt lat="50.51569" lon="3.42683">
        <ele>17</ele>
        <time>2022-04-03T08:08:43.000Z</time>
      </trkpt>
      <trkpt lat="50.51569" lon="3.42676">
        <ele>17</ele>
        <time>2022-04-03T08:08:44.000Z</time>
      </trkpt>
      <trkpt lat="50.5157" lon="3.42669">
        <ele>17</ele>
        <time>2022-04-03T08:08:45.000Z</time>
      </trkpt>
      <trkpt lat="50.51571" lon="3.42662">
        <ele>17</ele>
        <time>2022-04-03T08:08:46.000Z</time>
      </trkpt>
      <trkpt lat="50.51572" lon="3.42648">
        <ele>17</ele>
        <time>2022-04-03T08:08:48.000Z</time>
      </trkpt>
      <trkpt lat="50.51573" lon="3.4264">
        <ele>17</ele>
        <time>2022-04-03T08:08:49.000Z</time>
      </trkpt>
      <trkpt lat="50.51573" lon="3.42633">
        <ele>17.1</ele>
        <time>2022-04-03T08:08:50.000Z</time>
      </trkpt>
      <trkpt lat="50.51574" lon="3.42626">
        <ele>17.3</ele>
        <time>2022-04-03T08:08:51.000Z</time>
      </trkpt>
      <trkpt lat="50.51574" lon="3.42618">
        <ele>17.5</ele>
        <time>2022-04-03T08:08:52.000Z</time>
      </trkpt>
      <trkpt lat="50.51575" lon="3.42611">
        <ele>17.7</ele>
        <time>2022-04-03T08:08:53.000Z</time>
      </trkpt>
      <trkpt lat="50.51576" lon="3.42603">
        <ele>17.7</ele>
        <time>2022-04-03T08:08:54.000Z</time>
      </trkpt>
      <trkpt lat="50.51577" lon="3.42596">
        <ele>17.8</ele>
        <time>2022-04-03T08:08:55.000Z</time>
      </trkpt>
      <trkpt lat="50.51578" lon="3.42588">
        <ele>17.8</ele>
        <time>2022-04-03T08:08:56.000Z</time>
      </trkpt>
      <trkpt lat="50.51579" lon="3.4258">
        <ele>17.8</ele>
        <time>2022-04-03T08:08:57.000Z</time>
      </trkpt>
      <trkpt lat="50.51579" lon="3.42573">
        <ele>17.8</ele>
        <time>2022-04-03T08:08:58.000Z</time>
      </trkpt>
      <trkpt lat="50.5158" lon="3.42566">
        <ele>17.9</ele>
        <time>2022-04-03T08:08:59.000Z</time>
      </trkpt>
      <trkpt lat="50.5158" lon="3.42558">
        <ele>17.9</ele>
        <time>2022-04-03T08:09:00.000Z</time>
      </trkpt>
      <trkpt lat="50.51582" lon="3.42545">
        <ele>18.3</ele>
        <time>2022-04-03T08:09:02.000Z</time>
      </trkpt>
      <trkpt lat="50.51583" lon="3.42531">
        <ele>18.9</ele>
        <time>2022-04-03T08:09:04.000Z</time>
      </trkpt>
      <trkpt lat="50.51584" lon="3.4252">
        <ele>19.2</ele>
        <time>2022-04-03T08:09:06.000Z</time>
      </trkpt>
      <trkpt lat="50.51585" lon="3.42508">
        <ele>19.5</ele>
        <time>2022-04-03T08:09:08.000Z</time>
      </trkpt>
      <trkpt lat="50.51585" lon="3.42501">
        <ele>19.8</ele>
        <time>2022-04-03T08:09:09.000Z</time>
      </trkpt>
      <trkpt lat="50.51586" lon="3.42489">
        <ele>19.4</ele>
        <time>2022-04-03T08:09:11.000Z</time>
      </trkpt>
      <trkpt lat="50.51588" lon="3.42471">
        <ele>18.7</ele>
        <time>2022-04-03T08:09:14.880Z</time>
      </trkpt>
      <trkpt lat="50.51589" lon="3.42464">
        <ele>18.6</ele>
        <time>2022-04-03T08:09:16.000Z</time>
      </trkpt>
      <trkpt lat="50.51591" lon="3.42451">
        <ele>18.4</ele>
        <time>2022-04-03T08:09:18.000Z</time>
      </trkpt>
      <trkpt lat="50.51591" lon="3.42439">
        <ele>18.4</ele>
        <time>2022-04-03T08:09:20.000Z</time>
      </trkpt>
      <trkpt lat="50.51592" lon="3.42429">
        <ele>18.4</ele>
        <time>2022-04-03T08:09:22.000Z</time>
      </trkpt>
      <trkpt lat="50.51594" lon="3.42419">
        <ele>18.2</ele>
        <time>2022-04-03T08:09:24.423Z</time>
      </trkpt>
      <trkpt lat="50.51595" lon="3.4241">
        <ele>18.3</ele>
        <time>2022-04-03T08:09:26.682Z</time>
      </trkpt>
      <trkpt lat="50.51595" lon="3.42402">
        <ele>18.4</ele>
        <time>2022-04-03T08:09:29.000Z</time>
      </trkpt>
      <trkpt lat="50.51596" lon="3.42394">
        <ele>18.5</ele>
        <time>2022-04-03T08:09:31.000Z</time>
      </trkpt>
      <trkpt lat="50.51597" lon="3.42384">
        <ele>18.8</ele>
        <time>2022-04-03T08:09:34.000Z</time>
      </trkpt>
      <trkpt lat="50.51598" lon="3.42377">
        <ele>19.1</ele>
        <time>2022-04-03T08:09:36.000Z</time>
      </trkpt>
      <trkpt lat="50.51599" lon="3.42368">
        <ele>19.5</ele>
        <time>2022-04-03T08:09:39.000Z</time>
      </trkpt>
      <trkpt lat="50.516" lon="3.42358">
        <ele>19.8</ele>
        <time>2022-04-03T08:09:42.000Z</time>
      </trkpt>
      <trkpt lat="50.51601" lon="3.4235">
        <ele>19.7</ele>
        <time>2022-04-03T08:09:45.000Z</time>
      </trkpt>
      <trkpt lat="50.516" lon="3.42341">
        <ele>19.7</ele>
        <time>2022-04-03T08:09:48.000Z</time>
      </trkpt>
      <trkpt lat="50.51599" lon="3.42332">
        <ele>19.5</ele>
        <time>2022-04-03T08:09:51.000Z</time>
      </trkpt>
      <trkpt lat="50.51597" lon="3.42324">
        <ele>18.8</ele>
        <time>2022-04-03T08:09:54.000Z</time>
      </trkpt>
      <trkpt lat="50.51594" lon="3.42317">
        <ele>18.3</ele>
        <time>2022-04-03T08:09:57.000Z</time>
      </trkpt>
      <trkpt lat="50.51592" lon="3.42308">
        <ele>17.8</ele>
        <time>2022-04-03T08:10:00.000Z</time>
      </trkpt>
      <trkpt lat="50.5159" lon="3.42298">
        <ele>17.6</ele>
        <time>2022-04-03T08:10:03.000Z</time>
      </trkpt>
      <trkpt lat="50.51588" lon="3.42292">
        <ele>17.7</ele>
        <time>2022-04-03T08:10:05.000Z</time>
      </trkpt>
      <trkpt lat="50.51586" lon="3.42282">
        <ele>17.7</ele>
        <time>2022-04-03T08:10:07.000Z</time>
      </trkpt>
      <trkpt lat="50.51583" lon="3.42275">
        <ele>18.3</ele>
        <time>2022-04-03T08:10:09.000Z</time>
      </trkpt>
      <trkpt lat="50.51581" lon="3.42267">
        <ele>19.1</ele>
        <time>2022-04-03T08:10:11.000Z</time>
      </trkpt>
      <trkpt lat="50.51579" lon="3.42258">
        <ele>20.1</ele>
        <time>2022-04-03T08:10:13.000Z</time>
      </trkpt>
      <trkpt lat="50.51577" lon="3.42249">
        <ele>21</ele>
        <time>2022-04-03T08:10:15.000Z</time>
      </trkpt>
      <trkpt lat="50.51575" lon="3.42239">
        <ele>21.4</ele>
        <time>2022-04-03T08:10:17.000Z</time>
      </trkpt>
      <trkpt lat="50.51572" lon="3.42229">
        <ele>21.9</ele>
        <time>2022-04-03T08:10:19.000Z</time>
      </trkpt>
      <trkpt lat="50.5157" lon="3.4222">
        <ele>22.5</ele>
        <time>2022-04-03T08:10:21.000Z</time>
      </trkpt>
      <trkpt lat="50.51566" lon="3.42211">
        <ele>23.2</ele>
        <time>2022-04-03T08:10:23.000Z</time>
      </trkpt>
      <trkpt lat="50.51564" lon="3.42202">
        <ele>23.5</ele>
        <time>2022-04-03T08:10:25.000Z</time>
      </trkpt>
      <trkpt lat="50.51562" lon="3.42194">
        <ele>23.8</ele>
        <time>2022-04-03T08:10:27.000Z</time>
      </trkpt>
      <trkpt lat="50.51559" lon="3.42184">
        <ele>23.9</ele>
        <time>2022-04-03T08:10:29.170Z</time>
      </trkpt>
      <trkpt lat="50.51556" lon="3.42174">
        <ele>24</ele>
        <time>2022-04-03T08:10:32.000Z</time>
      </trkpt>
      <trkpt lat="50.51554" lon="3.42167">
        <ele>24.2</ele>
        <time>2022-04-03T08:10:34.000Z</time>
      </trkpt>
      <trkpt lat="50.51552" lon="3.42159">
        <ele>24.6</ele>
        <time>2022-04-03T08:10:36.000Z</time>
      </trkpt>
      <trkpt lat="50.5155" lon="3.42151">
        <ele>25.1</ele>
        <time>2022-04-03T08:10:38.000Z</time>
      </trkpt>
      <trkpt lat="50.51547" lon="3.42143">
        <ele>25.5</ele>
        <time>2022-04-03T08:10:40.000Z</time>
      </trkpt>
      <trkpt lat="50.51545" lon="3.42135">
        <ele>25.7</ele>
        <time>2022-04-03T08:10:42.000Z</time>
      </trkpt>
      <trkpt lat="50.51543" lon="3.42127">
        <ele>25.7</ele>
        <time>2022-04-03T08:10:44.000Z</time>
      </trkpt>
      <trkpt lat="50.5154" lon="3.4212">
        <ele>25.7</ele>
        <time>2022-04-03T08:10:46.000Z</time>
      </trkpt>
      <trkpt lat="50.51538" lon="3.42112">
        <ele>25.7</ele>
        <time>2022-04-03T08:10:48.000Z</time>
      </trkpt>
      <trkpt lat="50.51537" lon="3.42104">
        <ele>25.7</ele>
        <time>2022-04-03T08:10:50.000Z</time>
      </trkpt>
      <trkpt lat="50.51538" lon="3.42095">
        <ele>25.6</ele>
        <time>2022-04-03T08:10:52.000Z</time>
      </trkpt>
      <trkpt lat="50.51538" lon="3.42087">
        <ele>25.6</ele>
        <time>2022-04-03T08:10:54.000Z</time>
      </trkpt>
      <trkpt lat="50.51535" lon="3.42079">
        <ele>25.9</ele>
        <time>2022-04-03T08:10:56.000Z</time>
      </trkpt>
      <trkpt lat="50.51528" lon="3.42073">
        <ele>26</ele>
        <time>2022-04-03T08:10:59.000Z</time>
      </trkpt>
      <trkpt lat="50.51524" lon="3.42066">
        <ele>26.2</ele>
        <time>2022-04-03T08:11:01.063Z</time>
      </trkpt>
      <trkpt lat="50.51521" lon="3.42059">
        <ele>26.4</ele>
        <time>2022-04-03T08:11:02.783Z</time>
      </trkpt>
      <trkpt lat="50.51517" lon="3.4205">
        <ele>26.8</ele>
        <time>2022-04-03T08:11:05.168Z</time>
      </trkpt>
      <trkpt lat="50.51514" lon="3.42044">
        <ele>27</ele>
        <time>2022-04-03T08:11:07.000Z</time>
      </trkpt>
      <trkpt lat="50.51511" lon="3.42035">
        <ele>27.1</ele>
        <time>2022-04-03T08:11:09.700Z</time>
      </trkpt>
      <trkpt lat="50.51507" lon="3.42028">
        <ele>27</ele>
        <time>2022-04-03T08:11:12.000Z</time>
      </trkpt>
      <trkpt lat="50.51505" lon="3.42021">
        <ele>27.2</ele>
        <time>2022-04-03T08:11:14.000Z</time>
      </trkpt>
      <trkpt lat="50.51502" lon="3.42013">
        <ele>27.5</ele>
        <time>2022-04-03T08:11:15.982Z</time>
      </trkpt>
      <trkpt lat="50.515" lon="3.42006">
        <ele>27.8</ele>
        <time>2022-04-03T08:11:18.000Z</time>
      </trkpt>
      <trkpt lat="50.51497" lon="3.41999">
        <ele>28</ele>
        <time>2022-04-03T08:11:20.000Z</time>
      </trkpt>
      <trkpt lat="50.51494" lon="3.41991">
        <ele>28</ele>
        <time>2022-04-03T08:11:22.000Z</time>
      </trkpt>
      <trkpt lat="50.51492" lon="3.41984">
        <ele>28</ele>
        <time>2022-04-03T08:11:23.920Z</time>
      </trkpt>
      <trkpt lat="50.5149" lon="3.41977">
        <ele>28</ele>
        <time>2022-04-03T08:11:25.961Z</time>
      </trkpt>
      <trkpt lat="50.51488" lon="3.41968">
        <ele>28</ele>
        <time>2022-04-03T08:11:28.000Z</time>
      </trkpt>
      <trkpt lat="50.51486" lon="3.4196">
        <ele>28</ele>
        <time>2022-04-03T08:11:29.983Z</time>
      </trkpt>
      <trkpt lat="50.51483" lon="3.41952">
        <ele>28</ele>
        <time>2022-04-03T08:11:32.000Z</time>
      </trkpt>
      <trkpt lat="50.51481" lon="3.41943">
        <ele>28</ele>
        <time>2022-04-03T08:11:33.886Z</time>
      </trkpt>
      <trkpt lat="50.51479" lon="3.41932">
        <ele>28.1</ele>
        <time>2022-04-03T08:11:36.121Z</time>
      </trkpt>
      <trkpt lat="50.51477" lon="3.41922">
        <ele>28.1</ele>
        <time>2022-04-03T08:11:38.000Z</time>
      </trkpt>
      <trkpt lat="50.51474" lon="3.41911">
        <ele>28.1</ele>
        <time>2022-04-03T08:11:40.000Z</time>
      </trkpt>
      <trkpt lat="50.51471" lon="3.41902">
        <ele>28</ele>
        <time>2022-04-03T08:11:41.880Z</time>
      </trkpt>
      <trkpt lat="50.51467" lon="3.41888">
        <ele>28.2</ele>
        <time>2022-04-03T08:11:44.521Z</time>
      </trkpt>
      <trkpt lat="50.51465" lon="3.4188">
        <ele>28.5</ele>
        <time>2022-04-03T08:11:46.082Z</time>
      </trkpt>
      <trkpt lat="50.51459" lon="3.41865">
        <ele>28.9</ele>
        <time>2022-04-03T08:11:49.061Z</time>
      </trkpt>
      <trkpt lat="50.51456" lon="3.41859">
        <ele>29</ele>
        <time>2022-04-03T08:11:50.403Z</time>
      </trkpt>
      <trkpt lat="50.51449" lon="3.41849">
        <ele>29</ele>
        <time>2022-04-03T08:11:53.003Z</time>
      </trkpt>
      <trkpt lat="50.51444" lon="3.4184">
        <ele>29</ele>
        <time>2022-04-03T08:11:55.040Z</time>
      </trkpt>
      <trkpt lat="50.51438" lon="3.41832">
        <ele>29</ele>
        <time>2022-04-03T08:11:56.921Z</time>
      </trkpt>
      <trkpt lat="50.51435" lon="3.41827">
        <ele>29.1</ele>
        <time>2022-04-03T08:11:58.000Z</time>
      </trkpt>
      <trkpt lat="50.51431" lon="3.4182">
        <ele>29</ele>
        <time>2022-04-03T08:11:59.528Z</time>
      </trkpt>
      <trkpt lat="50.51427" lon="3.41814">
        <ele>28.8</ele>
        <time>2022-04-03T08:12:00.883Z</time>
      </trkpt>
      <trkpt lat="50.51421" lon="3.41805">
        <ele>28.3</ele>
        <time>2022-04-03T08:12:02.962Z</time>
      </trkpt>
      <trkpt lat="50.51415" lon="3.41796">
        <ele>28.3</ele>
        <time>2022-04-03T08:12:05.000Z</time>
      </trkpt>
      <trkpt lat="50.51409" lon="3.41788">
        <ele>28.6</ele>
        <time>2022-04-03T08:12:07.000Z</time>
      </trkpt>
      <trkpt lat="50.51403" lon="3.41779">
        <ele>29</ele>
        <time>2022-04-03T08:12:09.000Z</time>
      </trkpt>
      <trkpt lat="50.51397" lon="3.41771">
        <ele>28.9</ele>
        <time>2022-04-03T08:12:10.943Z</time>
      </trkpt>
      <trkpt lat="50.51393" lon="3.41762">
        <ele>28.9</ele>
        <time>2022-04-03T08:12:13.000Z</time>
      </trkpt>
      <trkpt lat="50.51389" lon="3.41751">
        <ele>29</ele>
        <time>2022-04-03T08:12:14.985Z</time>
      </trkpt>
      <trkpt lat="50.51386" lon="3.41745">
        <ele>29</ele>
        <time>2022-04-03T08:12:16.062Z</time>
      </trkpt>
      <trkpt lat="50.51384" lon="3.41733">
        <ele>29</ele>
        <time>2022-04-03T08:12:18.000Z</time>
      </trkpt>
      <trkpt lat="50.5138" lon="3.41722">
        <ele>29</ele>
        <time>2022-04-03T08:12:19.941Z</time>
      </trkpt>
      <trkpt lat="50.51379" lon="3.41715">
        <ele>29</ele>
        <time>2022-04-03T08:12:21.042Z</time>
      </trkpt>
      <trkpt lat="50.51378" lon="3.41702">
        <ele>29</ele>
        <time>2022-04-03T08:12:22.902Z</time>
      </trkpt>
      <trkpt lat="50.51377" lon="3.41695">
        <ele>29</ele>
        <time>2022-04-03T08:12:24.000Z</time>
      </trkpt>
      <trkpt lat="50.51375" lon="3.41681">
        <ele>29</ele>
        <time>2022-04-03T08:12:26.000Z</time>
      </trkpt>
      <trkpt lat="50.51373" lon="3.41668">
        <ele>29</ele>
        <time>2022-04-03T08:12:28.000Z</time>
      </trkpt>
      <trkpt lat="50.5137" lon="3.41659">
        <ele>29</ele>
        <time>2022-04-03T08:12:29.384Z</time>
      </trkpt>
      <trkpt lat="50.51368" lon="3.41651">
        <ele>29</ele>
        <time>2022-04-03T08:12:30.663Z</time>
      </trkpt>
      <trkpt lat="50.51366" lon="3.41643">
        <ele>29</ele>
        <time>2022-04-03T08:12:32.000Z</time>
      </trkpt>
      <trkpt lat="50.51362" lon="3.41631">
        <ele>29</ele>
        <time>2022-04-03T08:12:34.000Z</time>
      </trkpt>
      <trkpt lat="50.51358" lon="3.41619">
        <ele>29</ele>
        <time>2022-04-03T08:12:36.000Z</time>
      </trkpt>
      <trkpt lat="50.51355" lon="3.41612">
        <ele>29</ele>
        <time>2022-04-03T08:12:37.245Z</time>
      </trkpt>
      <trkpt lat="50.51351" lon="3.41603">
        <ele>29</ele>
        <time>2022-04-03T08:12:38.962Z</time>
      </trkpt>
      <trkpt lat="50.51347" lon="3.41592">
        <ele>29</ele>
        <time>2022-04-03T08:12:41.002Z</time>
      </trkpt>
      <trkpt lat="50.51343" lon="3.41582">
        <ele>29</ele>
        <time>2022-04-03T08:12:43.000Z</time>
      </trkpt>
      <trkpt lat="50.51338" lon="3.41571">
        <ele>28.6</ele>
        <time>2022-04-03T08:12:44.981Z</time>
      </trkpt>
      <trkpt lat="50.51329" lon="3.41554">
        <ele>28</ele>
        <time>2022-04-03T08:12:48.088Z</time>
      </trkpt>
      <trkpt lat="50.51326" lon="3.41545">
        <ele>28</ele>
        <time>2022-04-03T08:12:49.601Z</time>
      </trkpt>
      <trkpt lat="50.51322" lon="3.41538">
        <ele>28</ele>
        <time>2022-04-03T08:12:50.868Z</time>
      </trkpt>
      <trkpt lat="50.51319" lon="3.41532">
        <ele>28</ele>
        <time>2022-04-03T08:12:52.000Z</time>
      </trkpt>
      <trkpt lat="50.51313" lon="3.41521">
        <ele>28.1</ele>
        <time>2022-04-03T08:12:54.000Z</time>
      </trkpt>
      <trkpt lat="50.51311" lon="3.41515">
        <ele>28.1</ele>
        <time>2022-04-03T08:12:55.000Z</time>
      </trkpt>
      <trkpt lat="50.51308" lon="3.41504">
        <ele>28.1</ele>
        <time>2022-04-03T08:12:57.000Z</time>
      </trkpt>
      <trkpt lat="50.5131" lon="3.41511">
        <ele>28.1</ele>
        <time>2022-04-03T08:13:04.000Z</time>
      </trkpt>
      <trkpt lat="50.51305" lon="3.41508">
        <ele>28</ele>
        <time>2022-04-03T08:13:12.000Z</time>
      </trkpt>
      <trkpt lat="50.51302" lon="3.41502">
        <ele>27.9</ele>
        <time>2022-04-03T08:13:13.861Z</time>
      </trkpt>
      <trkpt lat="50.51295" lon="3.41485">
        <ele>27.6</ele>
        <time>2022-04-03T08:13:16.507Z</time>
      </trkpt>
      <trkpt lat="50.51292" lon="3.41477">
        <ele>27.5</ele>
        <time>2022-04-03T08:13:17.681Z</time>
      </trkpt>
      <trkpt lat="50.51289" lon="3.41468">
        <ele>27.4</ele>
        <time>2022-04-03T08:13:18.900Z</time>
      </trkpt>
      <trkpt lat="50.51286" lon="3.41462">
        <ele>27.3</ele>
        <time>2022-04-03T08:13:19.820Z</time>
      </trkpt>
      <trkpt lat="50.51282" lon="3.41452">
        <ele>27.2</ele>
        <time>2022-04-03T08:13:21.000Z</time>
      </trkpt>
      <trkpt lat="50.51279" lon="3.41445">
        <ele>27</ele>
        <time>2022-04-03T08:13:22.000Z</time>
      </trkpt>
      <trkpt lat="50.51274" lon="3.41434">
        <ele>27.3</ele>
        <time>2022-04-03T08:13:23.000Z</time>
      </trkpt>
      <trkpt lat="50.5127" lon="3.41426">
        <ele>27.5</ele>
        <time>2022-04-03T08:13:24.000Z</time>
      </trkpt>
      <trkpt lat="50.51267" lon="3.41419">
        <ele>27.6</ele>
        <time>2022-04-03T08:13:25.000Z</time>
      </trkpt>
      <trkpt lat="50.51263" lon="3.41412">
        <ele>27.3</ele>
        <time>2022-04-03T08:13:26.000Z</time>
      </trkpt>
      <trkpt lat="50.5126" lon="3.41405">
        <ele>26.9</ele>
        <time>2022-04-03T08:13:27.000Z</time>
      </trkpt>
      <trkpt lat="50.51257" lon="3.41398">
        <ele>26.6</ele>
        <time>2022-04-03T08:13:28.000Z</time>
      </trkpt>
      <trkpt lat="50.51254" lon="3.4139">
        <ele>26.2</ele>
        <time>2022-04-03T08:13:29.000Z</time>
      </trkpt>
      <trkpt lat="50.51251" lon="3.41384">
        <ele>26</ele>
        <time>2022-04-03T08:13:30.000Z</time>
      </trkpt>
      <trkpt lat="50.51247" lon="3.41377">
        <ele>26</ele>
        <time>2022-04-03T08:13:31.000Z</time>
      </trkpt>
      <trkpt lat="50.51244" lon="3.41369">
        <ele>26</ele>
        <time>2022-04-03T08:13:32.000Z</time>
      </trkpt>
      <trkpt lat="50.51241" lon="3.41362">
        <ele>26</ele>
        <time>2022-04-03T08:13:33.000Z</time>
      </trkpt>
      <trkpt lat="50.51237" lon="3.41354">
        <ele>25.9</ele>
        <time>2022-04-03T08:13:34.000Z</time>
      </trkpt>
      <trkpt lat="50.51234" lon="3.41346">
        <ele>25.7</ele>
        <time>2022-04-03T08:13:35.000Z</time>
      </trkpt>
      <trkpt lat="50.51231" lon="3.41339">
        <ele>25.5</ele>
        <time>2022-04-03T08:13:36.000Z</time>
      </trkpt>
      <trkpt lat="50.51228" lon="3.41331">
        <ele>25.2</ele>
        <time>2022-04-03T08:13:37.000Z</time>
      </trkpt>
      <trkpt lat="50.51225" lon="3.41322">
        <ele>25.1</ele>
        <time>2022-04-03T08:13:38.000Z</time>
      </trkpt>
      <trkpt lat="50.51223" lon="3.41314">
        <ele>25</ele>
        <time>2022-04-03T08:13:39.000Z</time>
      </trkpt>
      <trkpt lat="50.51222" lon="3.41306">
        <ele>25</ele>
        <time>2022-04-03T08:13:40.000Z</time>
      </trkpt>
      <trkpt lat="50.5122" lon="3.41297">
        <ele>25</ele>
        <time>2022-04-03T08:13:41.000Z</time>
      </trkpt>
      <trkpt lat="50.51219" lon="3.41289">
        <ele>25</ele>
        <time>2022-04-03T08:13:42.000Z</time>
      </trkpt>
      <trkpt lat="50.51218" lon="3.41281">
        <ele>25</ele>
        <time>2022-04-03T08:13:43.000Z</time>
      </trkpt>
      <trkpt lat="50.51216" lon="3.41273">
        <ele>25</ele>
        <time>2022-04-03T08:13:44.000Z</time>
      </trkpt>
      <trkpt lat="50.51215" lon="3.41265">
        <ele>25</ele>
        <time>2022-04-03T08:13:45.000Z</time>
      </trkpt>
      <trkpt lat="50.51213" lon="3.41257">
        <ele>25</ele>
        <time>2022-04-03T08:13:46.000Z</time>
      </trkpt>
      <trkpt lat="50.51212" lon="3.41249">
        <ele>25</ele>
        <time>2022-04-03T08:13:47.000Z</time>
      </trkpt>
      <trkpt lat="50.5121" lon="3.41242">
        <ele>25</ele>
        <time>2022-04-03T08:13:47.973Z</time>
      </trkpt>
      <trkpt lat="50.51208" lon="3.41235">
        <ele>25</ele>
        <time>2022-04-03T08:13:49.000Z</time>
      </trkpt>
      <trkpt lat="50.51206" lon="3.41227">
        <ele>25</ele>
        <time>2022-04-03T08:13:50.000Z</time>
      </trkpt>
      <trkpt lat="50.51204" lon="3.41221">
        <ele>25</ele>
        <time>2022-04-03T08:13:51.000Z</time>
      </trkpt>
      <trkpt lat="50.51202" lon="3.41215">
        <ele>25.1</ele>
        <time>2022-04-03T08:13:52.000Z</time>
      </trkpt>
      <trkpt lat="50.512" lon="3.41208">
        <ele>25.1</ele>
        <time>2022-04-03T08:13:53.000Z</time>
      </trkpt>
      <trkpt lat="50.51196" lon="3.41196">
        <ele>25.1</ele>
        <time>2022-04-03T08:13:55.000Z</time>
      </trkpt>
      <trkpt lat="50.51193" lon="3.41184">
        <ele>25.1</ele>
        <time>2022-04-03T08:13:57.000Z</time>
      </trkpt>
      <trkpt lat="50.51189" lon="3.41174">
        <ele>25.2</ele>
        <time>2022-04-03T08:13:59.000Z</time>
      </trkpt>
      <trkpt lat="50.51186" lon="3.41162">
        <ele>25.3</ele>
        <time>2022-04-03T08:14:01.000Z</time>
      </trkpt>
      <trkpt lat="50.51184" lon="3.41155">
        <ele>25.4</ele>
        <time>2022-04-03T08:14:02.000Z</time>
      </trkpt>
      <trkpt lat="50.51181" lon="3.41145">
        <ele>25.5</ele>
        <time>2022-04-03T08:14:04.000Z</time>
      </trkpt>
      <trkpt lat="50.51177" lon="3.41136">
        <ele>25.7</ele>
        <time>2022-04-03T08:14:07.000Z</time>
      </trkpt>
      <trkpt lat="50.51175" lon="3.41125">
        <ele>25.9</ele>
        <time>2022-04-03T08:14:08.294Z</time>
      </trkpt>
      <trkpt lat="50.51172" lon="3.41114">
        <ele>26</ele>
        <time>2022-04-03T08:14:09.897Z</time>
      </trkpt>
      <trkpt lat="50.51171" lon="3.41108">
        <ele>26</ele>
        <time>2022-04-03T08:14:11.054Z</time>
      </trkpt>
      <trkpt lat="50.51167" lon="3.41096">
        <ele>26</ele>
        <time>2022-04-03T08:14:13.119Z</time>
      </trkpt>
      <trkpt lat="50.51164" lon="3.41088">
        <ele>26</ele>
        <time>2022-04-03T08:14:15.057Z</time>
      </trkpt>
      <trkpt lat="50.51161" lon="3.41077">
        <ele>26.2</ele>
        <time>2022-04-03T08:14:17.614Z</time>
      </trkpt>
      <trkpt lat="50.51157" lon="3.41066">
        <ele>26.6</ele>
        <time>2022-04-03T08:14:20.000Z</time>
      </trkpt>
      <trkpt lat="50.51154" lon="3.41057">
        <ele>26.9</ele>
        <time>2022-04-03T08:14:22.000Z</time>
      </trkpt>
      <trkpt lat="50.51151" lon="3.41047">
        <ele>27</ele>
        <time>2022-04-03T08:14:24.095Z</time>
      </trkpt>
      <trkpt lat="50.51146" lon="3.41033">
        <ele>27</ele>
        <time>2022-04-03T08:14:27.000Z</time>
      </trkpt>
      <trkpt lat="50.51144" lon="3.41023">
        <ele>27</ele>
        <time>2022-04-03T08:14:29.000Z</time>
      </trkpt>
      <trkpt lat="50.51138" lon="3.41008">
        <ele>27</ele>
        <time>2022-04-03T08:14:32.000Z</time>
      </trkpt>
      <trkpt lat="50.51136" lon="3.40999">
        <ele>27.1</ele>
        <time>2022-04-03T08:14:34.000Z</time>
      </trkpt>
      <trkpt lat="50.51133" lon="3.4099">
        <ele>27.5</ele>
        <time>2022-04-03T08:14:36.000Z</time>
      </trkpt>
      <trkpt lat="50.5113" lon="3.40981">
        <ele>27.8</ele>
        <time>2022-04-03T08:14:38.000Z</time>
      </trkpt>
      <trkpt lat="50.51127" lon="3.40972">
        <ele>28</ele>
        <time>2022-04-03T08:14:40.000Z</time>
      </trkpt>
      <trkpt lat="50.51124" lon="3.40963">
        <ele>28</ele>
        <time>2022-04-03T08:14:41.853Z</time>
      </trkpt>
      <trkpt lat="50.5112" lon="3.40948">
        <ele>28</ele>
        <time>2022-04-03T08:14:44.916Z</time>
      </trkpt>
      <trkpt lat="50.51118" lon="3.4094">
        <ele>28</ele>
        <time>2022-04-03T08:14:46.654Z</time>
      </trkpt>
      <trkpt lat="50.51115" lon="3.40928">
        <ele>28</ele>
        <time>2022-04-03T08:14:49.000Z</time>
      </trkpt>
      <trkpt lat="50.51112" lon="3.40915">
        <ele>28</ele>
        <time>2022-04-03T08:14:51.674Z</time>
      </trkpt>
      <trkpt lat="50.51108" lon="3.40902">
        <ele>28.1</ele>
        <time>2022-04-03T08:14:54.699Z</time>
      </trkpt>
      <trkpt lat="50.51105" lon="3.40891">
        <ele>28.2</ele>
        <time>2022-04-03T08:14:57.000Z</time>
      </trkpt>
      <trkpt lat="50.51102" lon="3.40881">
        <ele>28.5</ele>
        <time>2022-04-03T08:14:59.095Z</time>
      </trkpt>
      <trkpt lat="50.51099" lon="3.40871">
        <ele>28.8</ele>
        <time>2022-04-03T08:15:00.996Z</time>
      </trkpt>
      <trkpt lat="50.51095" lon="3.40859">
        <ele>29</ele>
        <time>2022-04-03T08:15:03.596Z</time>
      </trkpt>
      <trkpt lat="50.51091" lon="3.40848">
        <ele>29</ele>
        <time>2022-04-03T08:15:06.000Z</time>
      </trkpt>
      <trkpt lat="50.51087" lon="3.40838">
        <ele>29</ele>
        <time>2022-04-03T08:15:08.000Z</time>
      </trkpt>
      <trkpt lat="50.51084" lon="3.40826">
        <ele>29</ele>
        <time>2022-04-03T08:15:10.526Z</time>
      </trkpt>
      <trkpt lat="50.51081" lon="3.40815">
        <ele>29</ele>
        <time>2022-04-03T08:15:13.000Z</time>
      </trkpt>
      <trkpt lat="50.51077" lon="3.40806">
        <ele>29</ele>
        <time>2022-04-03T08:15:14.976Z</time>
      </trkpt>
      <trkpt lat="50.51073" lon="3.40796">
        <ele>29</ele>
        <time>2022-04-03T08:15:17.000Z</time>
      </trkpt>
      <trkpt lat="50.5107" lon="3.40788">
        <ele>29</ele>
        <time>2022-04-03T08:15:19.000Z</time>
      </trkpt>
      <trkpt lat="50.51067" lon="3.40778">
        <ele>29</ele>
        <time>2022-04-03T08:15:21.000Z</time>
      </trkpt>
      <trkpt lat="50.51064" lon="3.40769">
        <ele>29.3</ele>
        <time>2022-04-03T08:15:23.000Z</time>
      </trkpt>
      <trkpt lat="50.51061" lon="3.40758">
        <ele>29.7</ele>
        <time>2022-04-03T08:15:25.000Z</time>
      </trkpt>
      <trkpt lat="50.51058" lon="3.40748">
        <ele>30</ele>
        <time>2022-04-03T08:15:27.000Z</time>
      </trkpt>
      <trkpt lat="50.51055" lon="3.40739">
        <ele>30</ele>
        <time>2022-04-03T08:15:28.951Z</time>
      </trkpt>
      <trkpt lat="50.51052" lon="3.4073">
        <ele>30</ele>
        <time>2022-04-03T08:15:30.816Z</time>
      </trkpt>
      <trkpt lat="50.51047" lon="3.40719">
        <ele>30</ele>
        <time>2022-04-03T08:15:33.013Z</time>
      </trkpt>
      <trkpt lat="50.51045" lon="3.40709">
        <ele>30</ele>
        <time>2022-04-03T08:15:35.000Z</time>
      </trkpt>
      <trkpt lat="50.51042" lon="3.40698">
        <ele>30</ele>
        <time>2022-04-03T08:15:37.000Z</time>
      </trkpt>
      <trkpt lat="50.51039" lon="3.40686">
        <ele>30</ele>
        <time>2022-04-03T08:15:39.316Z</time>
      </trkpt>
      <trkpt lat="50.51035" lon="3.40674">
        <ele>30</ele>
        <time>2022-04-03T08:15:42.000Z</time>
      </trkpt>
      <trkpt lat="50.51029" lon="3.40659">
        <ele>30</ele>
        <time>2022-04-03T08:15:45.000Z</time>
      </trkpt>
      <trkpt lat="50.51026" lon="3.40647">
        <ele>30</ele>
        <time>2022-04-03T08:15:47.126Z</time>
      </trkpt>
      <trkpt lat="50.51021" lon="3.40633">
        <ele>30.1</ele>
        <time>2022-04-03T08:15:50.000Z</time>
      </trkpt>
      <trkpt lat="50.51017" lon="3.40619">
        <ele>30.3</ele>
        <time>2022-04-03T08:15:52.856Z</time>
      </trkpt>
      <trkpt lat="50.51014" lon="3.40608">
        <ele>30.6</ele>
        <time>2022-04-03T08:15:54.877Z</time>
      </trkpt>
      <trkpt lat="50.51012" lon="3.40602">
        <ele>30.7</ele>
        <time>2022-04-03T08:15:56.184Z</time>
      </trkpt>
      <trkpt lat="50.51009" lon="3.40594">
        <ele>30.9</ele>
        <time>2022-04-03T08:15:57.934Z</time>
      </trkpt>
      <trkpt lat="50.51006" lon="3.40584">
        <ele>31</ele>
        <time>2022-04-03T08:15:59.916Z</time>
      </trkpt>
      <trkpt lat="50.51003" lon="3.40575">
        <ele>31</ele>
        <time>2022-04-03T08:16:02.000Z</time>
      </trkpt>
      <trkpt lat="50.51" lon="3.40566">
        <ele>31</ele>
        <time>2022-04-03T08:16:04.000Z</time>
      </trkpt>
      <trkpt lat="50.50997" lon="3.40556">
        <ele>31</ele>
        <time>2022-04-03T08:16:06.172Z</time>
      </trkpt>
      <trkpt lat="50.50994" lon="3.40549">
        <ele>31.1</ele>
        <time>2022-04-03T08:16:08.000Z</time>
      </trkpt>
      <trkpt lat="50.50992" lon="3.40541">
        <ele>31.2</ele>
        <time>2022-04-03T08:16:10.000Z</time>
      </trkpt>
      <trkpt lat="50.50989" lon="3.40533">
        <ele>31.3</ele>
        <time>2022-04-03T08:16:12.000Z</time>
      </trkpt>
      <trkpt lat="50.50987" lon="3.40524">
        <ele>31.5</ele>
        <time>2022-04-03T08:16:14.039Z</time>
      </trkpt>
      <trkpt lat="50.50984" lon="3.40515">
        <ele>31.6</ele>
        <time>2022-04-03T08:16:16.136Z</time>
      </trkpt>
      <trkpt lat="50.50981" lon="3.40503">
        <ele>31.7</ele>
        <time>2022-04-03T08:16:18.934Z</time>
      </trkpt>
      <trkpt lat="50.50977" lon="3.40492">
        <ele>31.8</ele>
        <time>2022-04-03T08:16:21.547Z</time>
      </trkpt>
      <trkpt lat="50.50974" lon="3.40481">
        <ele>31.9</ele>
        <time>2022-04-03T08:16:24.000Z</time>
      </trkpt>
      <trkpt lat="50.50971" lon="3.40473">
        <ele>32</ele>
        <time>2022-04-03T08:16:26.000Z</time>
      </trkpt>
      <trkpt lat="50.50968" lon="3.40465">
        <ele>32</ele>
        <time>2022-04-03T08:16:28.000Z</time>
      </trkpt>
      <trkpt lat="50.50965" lon="3.40455">
        <ele>32.2</ele>
        <time>2022-04-03T08:16:30.118Z</time>
      </trkpt>
      <trkpt lat="50.50962" lon="3.40446">
        <ele>32.3</ele>
        <time>2022-04-03T08:16:32.000Z</time>
      </trkpt>
      <trkpt lat="50.50959" lon="3.40437">
        <ele>32.5</ele>
        <time>2022-04-03T08:16:33.894Z</time>
      </trkpt>
      <trkpt lat="50.50956" lon="3.40428">
        <ele>32.6</ele>
        <time>2022-04-03T08:16:36.000Z</time>
      </trkpt>
      <trkpt lat="50.50953" lon="3.40419">
        <ele>32.7</ele>
        <time>2022-04-03T08:16:38.000Z</time>
      </trkpt>
      <trkpt lat="50.5095" lon="3.40411">
        <ele>32.8</ele>
        <time>2022-04-03T08:16:40.000Z</time>
      </trkpt>
      <trkpt lat="50.50948" lon="3.40402">
        <ele>32.9</ele>
        <time>2022-04-03T08:16:42.000Z</time>
      </trkpt>
      <trkpt lat="50.50945" lon="3.40394">
        <ele>33</ele>
        <time>2022-04-03T08:16:44.000Z</time>
      </trkpt>
      <trkpt lat="50.50942" lon="3.40386">
        <ele>33.1</ele>
        <time>2022-04-03T08:16:46.000Z</time>
      </trkpt>
      <trkpt lat="50.50939" lon="3.40377">
        <ele>33.2</ele>
        <time>2022-04-03T08:16:48.054Z</time>
      </trkpt>
      <trkpt lat="50.50937" lon="3.40368">
        <ele>33.3</ele>
        <time>2022-04-03T08:16:49.874Z</time>
      </trkpt>
      <trkpt lat="50.50932" lon="3.40354">
        <ele>33.4</ele>
        <time>2022-04-03T08:16:53.000Z</time>
      </trkpt>
      <trkpt lat="50.5093" lon="3.40346">
        <ele>33.5</ele>
        <time>2022-04-03T08:16:55.000Z</time>
      </trkpt>
      <trkpt lat="50.50927" lon="3.40338">
        <ele>33.6</ele>
        <time>2022-04-03T08:16:57.000Z</time>
      </trkpt>
      <trkpt lat="50.50925" lon="3.40329">
        <ele>33.7</ele>
        <time>2022-04-03T08:16:59.055Z</time>
      </trkpt>
      <trkpt lat="50.50922" lon="3.40321">
        <ele>33.8</ele>
        <time>2022-04-03T08:17:01.000Z</time>
      </trkpt>
      <trkpt lat="50.50919" lon="3.40311">
        <ele>33.9</ele>
        <time>2022-04-03T08:17:03.154Z</time>
      </trkpt>
      <trkpt lat="50.50915" lon="3.403">
        <ele>34.1</ele>
        <time>2022-04-03T08:17:06.000Z</time>
      </trkpt>
      <trkpt lat="50.50911" lon="3.40291">
        <ele>34.2</ele>
        <time>2022-04-03T08:17:08.000Z</time>
      </trkpt>
      <trkpt lat="50.50908" lon="3.40281">
        <ele>34.3</ele>
        <time>2022-04-03T08:17:10.119Z</time>
      </trkpt>
      <trkpt lat="50.50906" lon="3.40272">
        <ele>34.4</ele>
        <time>2022-04-03T08:17:12.000Z</time>
      </trkpt>
      <trkpt lat="50.50903" lon="3.40263">
        <ele>34.5</ele>
        <time>2022-04-03T08:17:14.000Z</time>
      </trkpt>
      <trkpt lat="50.50901" lon="3.40254">
        <ele>34.6</ele>
        <time>2022-04-03T08:17:15.976Z</time>
      </trkpt>
      <trkpt lat="50.50897" lon="3.40245">
        <ele>34.8</ele>
        <time>2022-04-03T08:17:18.000Z</time>
      </trkpt>
      <trkpt lat="50.50895" lon="3.40235">
        <ele>34.9</ele>
        <time>2022-04-03T08:17:20.000Z</time>
      </trkpt>
      <trkpt lat="50.50892" lon="3.40227">
        <ele>35</ele>
        <time>2022-04-03T08:17:22.000Z</time>
      </trkpt>
      <trkpt lat="50.50889" lon="3.40218">
        <ele>35</ele>
        <time>2022-04-03T08:17:24.000Z</time>
      </trkpt>
      <trkpt lat="50.50886" lon="3.4021">
        <ele>35</ele>
        <time>2022-04-03T08:17:26.000Z</time>
      </trkpt>
      <trkpt lat="50.50883" lon="3.40201">
        <ele>34.8</ele>
        <time>2022-04-03T08:17:27.994Z</time>
      </trkpt>
      <trkpt lat="50.5088" lon="3.40192">
        <ele>34.7</ele>
        <time>2022-04-03T08:17:30.000Z</time>
      </trkpt>
      <trkpt lat="50.50877" lon="3.40184">
        <ele>34.6</ele>
        <time>2022-04-03T08:17:32.000Z</time>
      </trkpt>
      <trkpt lat="50.50875" lon="3.40175">
        <ele>34.5</ele>
        <time>2022-04-03T08:17:33.995Z</time>
      </trkpt>
      <trkpt lat="50.50872" lon="3.40165">
        <ele>34.4</ele>
        <time>2022-04-03T08:17:36.000Z</time>
      </trkpt>
      <trkpt lat="50.50868" lon="3.40155">
        <ele>34.2</ele>
        <time>2022-04-03T08:17:37.896Z</time>
      </trkpt>
      <trkpt lat="50.50864" lon="3.40143">
        <ele>34.1</ele>
        <time>2022-04-03T08:17:40.173Z</time>
      </trkpt>
      <trkpt lat="50.50862" lon="3.40136">
        <ele>34</ele>
        <time>2022-04-03T08:17:41.655Z</time>
      </trkpt>
      <trkpt lat="50.5086" lon="3.40129">
        <ele>34</ele>
        <time>2022-04-03T08:17:42.973Z</time>
      </trkpt>
      <trkpt lat="50.50857" lon="3.40117">
        <ele>34</ele>
        <time>2022-04-03T08:17:44.996Z</time>
      </trkpt>
      <trkpt lat="50.50854" lon="3.40105">
        <ele>34</ele>
        <time>2022-04-03T08:17:47.000Z</time>
      </trkpt>
      <trkpt lat="50.50851" lon="3.40092">
        <ele>34</ele>
        <time>2022-04-03T08:17:49.000Z</time>
      </trkpt>
      <trkpt lat="50.50849" lon="3.40081">
        <ele>34</ele>
        <time>2022-04-03T08:17:50.794Z</time>
      </trkpt>
      <trkpt lat="50.50847" lon="3.40073">
        <ele>34</ele>
        <time>2022-04-03T08:17:52.000Z</time>
      </trkpt>
      <trkpt lat="50.50845" lon="3.40061">
        <ele>34</ele>
        <time>2022-04-03T08:17:53.892Z</time>
      </trkpt>
      <trkpt lat="50.50843" lon="3.40054">
        <ele>34</ele>
        <time>2022-04-03T08:17:55.099Z</time>
      </trkpt>
      <trkpt lat="50.50843" lon="3.40042">
        <ele>34</ele>
        <time>2022-04-03T08:17:57.000Z</time>
      </trkpt>
      <trkpt lat="50.50845" lon="3.40033">
        <ele>34</ele>
        <time>2022-04-03T08:17:59.000Z</time>
      </trkpt>
      <trkpt lat="50.50843" lon="3.40026">
        <ele>34</ele>
        <time>2022-04-03T08:18:02.000Z</time>
      </trkpt>
      <trkpt lat="50.50846" lon="3.40033">
        <ele>34</ele>
        <time>2022-04-03T08:18:09.000Z</time>
      </trkpt>
      <trkpt lat="50.50841" lon="3.40035">
        <ele>34</ele>
        <time>2022-04-03T08:18:23.000Z</time>
      </trkpt>
      <trkpt lat="50.50839" lon="3.40044">
        <ele>34</ele>
        <time>2022-04-03T08:18:25.000Z</time>
      </trkpt>
      <trkpt lat="50.50841" lon="3.40056">
        <ele>34</ele>
        <time>2022-04-03T08:18:26.976Z</time>
      </trkpt>
      <trkpt lat="50.50842" lon="3.40065">
        <ele>34</ele>
        <time>2022-04-03T08:18:28.000Z</time>
      </trkpt>
      <trkpt lat="50.50843" lon="3.40074">
        <ele>34</ele>
        <time>2022-04-03T08:18:29.098Z</time>
      </trkpt>
      <trkpt lat="50.50845" lon="3.40088">
        <ele>34</ele>
        <time>2022-04-03T08:18:30.395Z</time>
      </trkpt>
      <trkpt lat="50.50847" lon="3.40097">
        <ele>34</ele>
        <time>2022-04-03T08:18:31.655Z</time>
      </trkpt>
      <trkpt lat="50.50849" lon="3.40108">
        <ele>34</ele>
        <time>2022-04-03T08:18:33.058Z</time>
      </trkpt>
      <trkpt lat="50.50853" lon="3.40122">
        <ele>34</ele>
        <time>2022-04-03T08:18:34.916Z</time>
      </trkpt>
      <trkpt lat="50.50855" lon="3.4013">
        <ele>34</ele>
        <time>2022-04-03T08:18:36.068Z</time>
      </trkpt>
      <trkpt lat="50.50857" lon="3.40141">
        <ele>34</ele>
        <time>2022-04-03T08:18:37.913Z</time>
      </trkpt>
      <trkpt lat="50.50862" lon="3.40153">
        <ele>34</ele>
        <time>2022-04-03T08:18:40.000Z</time>
      </trkpt>
      <trkpt lat="50.50866" lon="3.40164">
        <ele>34.2</ele>
        <time>2022-04-03T08:18:42.000Z</time>
      </trkpt>
      <trkpt lat="50.5087" lon="3.40175">
        <ele>34.3</ele>
        <time>2022-04-03T08:18:44.000Z</time>
      </trkpt>
      <trkpt lat="50.50873" lon="3.40187">
        <ele>34.4</ele>
        <time>2022-04-03T08:18:46.000Z</time>
      </trkpt>
      <trkpt lat="50.50876" lon="3.40198">
        <ele>34.6</ele>
        <time>2022-04-03T08:18:48.000Z</time>
      </trkpt>
      <trkpt lat="50.5088" lon="3.40208">
        <ele>34.8</ele>
        <time>2022-04-03T08:18:49.756Z</time>
      </trkpt>
      <trkpt lat="50.50882" lon="3.40214">
        <ele>34.9</ele>
        <time>2022-04-03T08:18:51.000Z</time>
      </trkpt>
      <trkpt lat="50.50886" lon="3.40225">
        <ele>35</ele>
        <time>2022-04-03T08:18:53.000Z</time>
      </trkpt>
      <trkpt lat="50.50889" lon="3.40236">
        <ele>35</ele>
        <time>2022-04-03T08:18:55.000Z</time>
      </trkpt>
      <trkpt lat="50.50893" lon="3.40246">
        <ele>34.9</ele>
        <time>2022-04-03T08:18:57.000Z</time>
      </trkpt>
      <trkpt lat="50.50896" lon="3.40258">
        <ele>34.7</ele>
        <time>2022-04-03T08:18:59.000Z</time>
      </trkpt>
      <trkpt lat="50.50901" lon="3.40269">
        <ele>34.6</ele>
        <time>2022-04-03T08:19:01.000Z</time>
      </trkpt>
      <trkpt lat="50.50903" lon="3.40276">
        <ele>34.5</ele>
        <time>2022-04-03T08:19:02.000Z</time>
      </trkpt>
      <trkpt lat="50.50905" lon="3.40283">
        <ele>34.4</ele>
        <time>2022-04-03T08:19:03.000Z</time>
      </trkpt>
      <trkpt lat="50.5091" lon="3.40298">
        <ele>34.2</ele>
        <time>2022-04-03T08:19:05.000Z</time>
      </trkpt>
      <trkpt lat="50.50912" lon="3.40305">
        <ele>34.2</ele>
        <time>2022-04-03T08:19:06.000Z</time>
      </trkpt>
      <trkpt lat="50.50914" lon="3.40313">
        <ele>34.1</ele>
        <time>2022-04-03T08:19:07.000Z</time>
      </trkpt>
      <trkpt lat="50.50917" lon="3.4032">
        <ele>34</ele>
        <time>2022-04-03T08:19:08.000Z</time>
      </trkpt>
      <trkpt lat="50.50919" lon="3.40328">
        <ele>33.9</ele>
        <time>2022-04-03T08:19:09.000Z</time>
      </trkpt>
      <trkpt lat="50.50921" lon="3.40336">
        <ele>33.8</ele>
        <time>2022-04-03T08:19:10.000Z</time>
      </trkpt>
      <trkpt lat="50.50922" lon="3.40344">
        <ele>33.8</ele>
        <time>2022-04-03T08:19:11.000Z</time>
      </trkpt>
      <trkpt lat="50.50924" lon="3.40351">
        <ele>33.7</ele>
        <time>2022-04-03T08:19:12.000Z</time>
      </trkpt>
      <trkpt lat="50.50927" lon="3.40359">
        <ele>33.6</ele>
        <time>2022-04-03T08:19:13.000Z</time>
      </trkpt>
      <trkpt lat="50.50929" lon="3.40367">
        <ele>33.6</ele>
        <time>2022-04-03T08:19:14.000Z</time>
      </trkpt>
      <trkpt lat="50.50931" lon="3.40374">
        <ele>33.5</ele>
        <time>2022-04-03T08:19:15.000Z</time>
      </trkpt>
      <trkpt lat="50.50934" lon="3.40381">
        <ele>33.4</ele>
        <time>2022-04-03T08:19:16.000Z</time>
      </trkpt>
      <trkpt lat="50.50936" lon="3.40388">
        <ele>33.3</ele>
        <time>2022-04-03T08:19:17.000Z</time>
      </trkpt>
      <trkpt lat="50.50938" lon="3.40396">
        <ele>33.2</ele>
        <time>2022-04-03T08:19:18.000Z</time>
      </trkpt>
      <trkpt lat="50.50941" lon="3.40403">
        <ele>33.1</ele>
        <time>2022-04-03T08:19:19.000Z</time>
      </trkpt>
      <trkpt lat="50.50943" lon="3.4041">
        <ele>33</ele>
        <time>2022-04-03T08:19:20.000Z</time>
      </trkpt>
      <trkpt lat="50.50945" lon="3.40418">
        <ele>33</ele>
        <time>2022-04-03T08:19:21.000Z</time>
      </trkpt>
      <trkpt lat="50.50948" lon="3.40425">
        <ele>32.9</ele>
        <time>2022-04-03T08:19:22.000Z</time>
      </trkpt>
      <trkpt lat="50.50951" lon="3.40432">
        <ele>32.8</ele>
        <time>2022-04-03T08:19:23.000Z</time>
      </trkpt>
      <trkpt lat="50.50953" lon="3.40439">
        <ele>32.7</ele>
        <time>2022-04-03T08:19:24.000Z</time>
      </trkpt>
      <trkpt lat="50.50955" lon="3.40447">
        <ele>32.6</ele>
        <time>2022-04-03T08:19:25.000Z</time>
      </trkpt>
      <trkpt lat="50.50958" lon="3.40455">
        <ele>32.3</ele>
        <time>2022-04-03T08:19:26.000Z</time>
      </trkpt>
      <trkpt lat="50.5096" lon="3.40462">
        <ele>32.2</ele>
        <time>2022-04-03T08:19:27.000Z</time>
      </trkpt>
      <trkpt lat="50.50962" lon="3.4047">
        <ele>32</ele>
        <time>2022-04-03T08:19:28.000Z</time>
      </trkpt>
      <trkpt lat="50.50965" lon="3.40477">
        <ele>32</ele>
        <time>2022-04-03T08:19:29.000Z</time>
      </trkpt>
      <trkpt lat="50.50967" lon="3.40484">
        <ele>32</ele>
        <time>2022-04-03T08:19:30.000Z</time>
      </trkpt>
      <trkpt lat="50.50969" lon="3.40492">
        <ele>32</ele>
        <time>2022-04-03T08:19:31.000Z</time>
      </trkpt>
      <trkpt lat="50.50971" lon="3.40499">
        <ele>32</ele>
        <time>2022-04-03T08:19:32.000Z</time>
      </trkpt>
      <trkpt lat="50.50974" lon="3.40506">
        <ele>31.9</ele>
        <time>2022-04-03T08:19:33.000Z</time>
      </trkpt>
      <trkpt lat="50.50976" lon="3.40513">
        <ele>31.9</ele>
        <time>2022-04-03T08:19:34.000Z</time>
      </trkpt>
      <trkpt lat="50.50978" lon="3.4052">
        <ele>31.8</ele>
        <time>2022-04-03T08:19:35.000Z</time>
      </trkpt>
      <trkpt lat="50.5098" lon="3.40528">
        <ele>31.7</ele>
        <time>2022-04-03T08:19:36.000Z</time>
      </trkpt>
      <trkpt lat="50.50983" lon="3.40535">
        <ele>31.5</ele>
        <time>2022-04-03T08:19:37.000Z</time>
      </trkpt>
      <trkpt lat="50.50985" lon="3.40542">
        <ele>31.3</ele>
        <time>2022-04-03T08:19:38.000Z</time>
      </trkpt>
      <trkpt lat="50.50987" lon="3.40549">
        <ele>31.1</ele>
        <time>2022-04-03T08:19:39.000Z</time>
      </trkpt>
      <trkpt lat="50.5099" lon="3.40556">
        <ele>31</ele>
        <time>2022-04-03T08:19:40.000Z</time>
      </trkpt>
      <trkpt lat="50.50992" lon="3.40563">
        <ele>31</ele>
        <time>2022-04-03T08:19:41.000Z</time>
      </trkpt>
      <trkpt lat="50.50995" lon="3.4057">
        <ele>31</ele>
        <time>2022-04-03T08:19:42.000Z</time>
      </trkpt>
      <trkpt lat="50.50997" lon="3.40577">
        <ele>31</ele>
        <time>2022-04-03T08:19:43.000Z</time>
      </trkpt>
      <trkpt lat="50.51" lon="3.40585">
        <ele>31</ele>
        <time>2022-04-03T08:19:44.000Z</time>
      </trkpt>
      <trkpt lat="50.51002" lon="3.40592">
        <ele>31</ele>
        <time>2022-04-03T08:19:45.000Z</time>
      </trkpt>
      <trkpt lat="50.51005" lon="3.40599">
        <ele>30.9</ele>
        <time>2022-04-03T08:19:46.000Z</time>
      </trkpt>
      <trkpt lat="50.51007" lon="3.40606">
        <ele>30.8</ele>
        <time>2022-04-03T08:19:47.000Z</time>
      </trkpt>
      <trkpt lat="50.5101" lon="3.40613">
        <ele>30.6</ele>
        <time>2022-04-03T08:19:48.000Z</time>
      </trkpt>
      <trkpt lat="50.51012" lon="3.40621">
        <ele>30.4</ele>
        <time>2022-04-03T08:19:49.000Z</time>
      </trkpt>
      <trkpt lat="50.51015" lon="3.40628">
        <ele>30.2</ele>
        <time>2022-04-03T08:19:50.000Z</time>
      </trkpt>
      <trkpt lat="50.51018" lon="3.40635">
        <ele>30</ele>
        <time>2022-04-03T08:19:51.000Z</time>
      </trkpt>
      <trkpt lat="50.5102" lon="3.40642">
        <ele>30</ele>
        <time>2022-04-03T08:19:52.000Z</time>
      </trkpt>
      <trkpt lat="50.51023" lon="3.40649">
        <ele>30</ele>
        <time>2022-04-03T08:19:53.000Z</time>
      </trkpt>
      <trkpt lat="50.51024" lon="3.40657">
        <ele>30</ele>
        <time>2022-04-03T08:19:54.000Z</time>
      </trkpt>
      <trkpt lat="50.51027" lon="3.40664">
        <ele>30</ele>
        <time>2022-04-03T08:19:55.000Z</time>
      </trkpt>
      <trkpt lat="50.51029" lon="3.40672">
        <ele>30</ele>
        <time>2022-04-03T08:19:56.000Z</time>
      </trkpt>
      <trkpt lat="50.51031" lon="3.40679">
        <ele>30</ele>
        <time>2022-04-03T08:19:57.000Z</time>
      </trkpt>
      <trkpt lat="50.51033" lon="3.40687">
        <ele>30</ele>
        <time>2022-04-03T08:19:58.000Z</time>
      </trkpt>
      <trkpt lat="50.51036" lon="3.40694">
        <ele>30</ele>
        <time>2022-04-03T08:19:59.000Z</time>
      </trkpt>
      <trkpt lat="50.51038" lon="3.40701">
        <ele>30</ele>
        <time>2022-04-03T08:20:00.000Z</time>
      </trkpt>
      <trkpt lat="50.51041" lon="3.40709">
        <ele>30</ele>
        <time>2022-04-03T08:20:01.000Z</time>
      </trkpt>
      <trkpt lat="50.51043" lon="3.40716">
        <ele>30</ele>
        <time>2022-04-03T08:20:02.000Z</time>
      </trkpt>
      <trkpt lat="50.51045" lon="3.40723">
        <ele>30</ele>
        <time>2022-04-03T08:20:03.000Z</time>
      </trkpt>
      <trkpt lat="50.51048" lon="3.4073">
        <ele>30</ele>
        <time>2022-04-03T08:20:04.000Z</time>
      </trkpt>
      <trkpt lat="50.51051" lon="3.40737">
        <ele>30</ele>
        <time>2022-04-03T08:20:05.000Z</time>
      </trkpt>
      <trkpt lat="50.51053" lon="3.40745">
        <ele>30</ele>
        <time>2022-04-03T08:20:06.000Z</time>
      </trkpt>
      <trkpt lat="50.51056" lon="3.40752">
        <ele>29.9</ele>
        <time>2022-04-03T08:20:07.000Z</time>
      </trkpt>
      <trkpt lat="50.51058" lon="3.4076">
        <ele>29.6</ele>
        <time>2022-04-03T08:20:08.000Z</time>
      </trkpt>
      <trkpt lat="50.51061" lon="3.40767">
        <ele>29.4</ele>
        <time>2022-04-03T08:20:09.000Z</time>
      </trkpt>
      <trkpt lat="50.51064" lon="3.40774">
        <ele>29.1</ele>
        <time>2022-04-03T08:20:10.000Z</time>
      </trkpt>
      <trkpt lat="50.51066" lon="3.40782">
        <ele>29</ele>
        <time>2022-04-03T08:20:11.000Z</time>
      </trkpt>
      <trkpt lat="50.51069" lon="3.40789">
        <ele>29</ele>
        <time>2022-04-03T08:20:12.000Z</time>
      </trkpt>
      <trkpt lat="50.51071" lon="3.40797">
        <ele>29</ele>
        <time>2022-04-03T08:20:13.000Z</time>
      </trkpt>
      <trkpt lat="50.51074" lon="3.40804">
        <ele>29</ele>
        <time>2022-04-03T08:20:14.000Z</time>
      </trkpt>
      <trkpt lat="50.51076" lon="3.40812">
        <ele>29</ele>
        <time>2022-04-03T08:20:15.000Z</time>
      </trkpt>
      <trkpt lat="50.51078" lon="3.4082">
        <ele>29</ele>
        <time>2022-04-03T08:20:16.000Z</time>
      </trkpt>
      <trkpt lat="50.5108" lon="3.40827">
        <ele>29</ele>
        <time>2022-04-03T08:20:17.000Z</time>
      </trkpt>
      <trkpt lat="50.51082" lon="3.40835">
        <ele>29</ele>
        <time>2022-04-03T08:20:18.000Z</time>
      </trkpt>
      <trkpt lat="50.51084" lon="3.40842">
        <ele>29</ele>
        <time>2022-04-03T08:20:19.000Z</time>
      </trkpt>
      <trkpt lat="50.51087" lon="3.40849">
        <ele>29</ele>
        <time>2022-04-03T08:20:20.000Z</time>
      </trkpt>
      <trkpt lat="50.51089" lon="3.40856">
        <ele>29</ele>
        <time>2022-04-03T08:20:21.000Z</time>
      </trkpt>
      <trkpt lat="50.51091" lon="3.40864">
        <ele>29</ele>
        <time>2022-04-03T08:20:22.000Z</time>
      </trkpt>
      <trkpt lat="50.51093" lon="3.40871">
        <ele>28.9</ele>
        <time>2022-04-03T08:20:23.000Z</time>
      </trkpt>
      <trkpt lat="50.51095" lon="3.40879">
        <ele>28.7</ele>
        <time>2022-04-03T08:20:24.000Z</time>
      </trkpt>
      <trkpt lat="50.51098" lon="3.40886">
        <ele>28.5</ele>
        <time>2022-04-03T08:20:25.000Z</time>
      </trkpt>
      <trkpt lat="50.511" lon="3.40894">
        <ele>28.4</ele>
        <time>2022-04-03T08:20:26.000Z</time>
      </trkpt>
      <trkpt lat="50.51103" lon="3.40901">
        <ele>28.3</ele>
        <time>2022-04-03T08:20:27.000Z</time>
      </trkpt>
      <trkpt lat="50.51105" lon="3.40908">
        <ele>28.2</ele>
        <time>2022-04-03T08:20:28.000Z</time>
      </trkpt>
      <trkpt lat="50.51107" lon="3.40916">
        <ele>28.1</ele>
        <time>2022-04-03T08:20:29.000Z</time>
      </trkpt>
      <trkpt lat="50.51109" lon="3.40922">
        <ele>28.1</ele>
        <time>2022-04-03T08:20:30.000Z</time>
      </trkpt>
      <trkpt lat="50.51111" lon="3.40929">
        <ele>28</ele>
        <time>2022-04-03T08:20:31.000Z</time>
      </trkpt>
      <trkpt lat="50.51113" lon="3.40936">
        <ele>28</ele>
        <time>2022-04-03T08:20:32.000Z</time>
      </trkpt>
      <trkpt lat="50.51115" lon="3.40942">
        <ele>28</ele>
        <time>2022-04-03T08:20:33.000Z</time>
      </trkpt>
      <trkpt lat="50.51118" lon="3.40949">
        <ele>28</ele>
        <time>2022-04-03T08:20:34.000Z</time>
      </trkpt>
      <trkpt lat="50.5112" lon="3.40956">
        <ele>28</ele>
        <time>2022-04-03T08:20:35.000Z</time>
      </trkpt>
      <trkpt lat="50.51122" lon="3.40963">
        <ele>28</ele>
        <time>2022-04-03T08:20:36.000Z</time>
      </trkpt>
      <trkpt lat="50.51124" lon="3.4097">
        <ele>28</ele>
        <time>2022-04-03T08:20:37.000Z</time>
      </trkpt>
      <trkpt lat="50.51126" lon="3.40977">
        <ele>27.9</ele>
        <time>2022-04-03T08:20:38.000Z</time>
      </trkpt>
      <trkpt lat="50.51129" lon="3.40984">
        <ele>27.7</ele>
        <time>2022-04-03T08:20:39.000Z</time>
      </trkpt>
      <trkpt lat="50.51131" lon="3.40992">
        <ele>27.5</ele>
        <time>2022-04-03T08:20:40.000Z</time>
      </trkpt>
      <trkpt lat="50.51134" lon="3.40999">
        <ele>27.2</ele>
        <time>2022-04-03T08:20:41.000Z</time>
      </trkpt>
      <trkpt lat="50.51136" lon="3.41006">
        <ele>27.1</ele>
        <time>2022-04-03T08:20:42.000Z</time>
      </trkpt>
      <trkpt lat="50.51138" lon="3.41014">
        <ele>27</ele>
        <time>2022-04-03T08:20:43.000Z</time>
      </trkpt>
      <trkpt lat="50.51139" lon="3.41022">
        <ele>27</ele>
        <time>2022-04-03T08:20:45.000Z</time>
      </trkpt>
      <trkpt lat="50.51142" lon="3.41029">
        <ele>27</ele>
        <time>2022-04-03T08:21:24.000Z</time>
      </trkpt>
      <trkpt lat="50.51144" lon="3.41035">
        <ele>27</ele>
        <time>2022-04-03T08:21:27.000Z</time>
      </trkpt>
      <trkpt lat="50.51146" lon="3.41042">
        <ele>27</ele>
        <time>2022-04-03T08:21:29.000Z</time>
      </trkpt>
      <trkpt lat="50.51149" lon="3.4105">
        <ele>27</ele>
        <time>2022-04-03T08:21:31.000Z</time>
      </trkpt>
      <trkpt lat="50.51151" lon="3.41058">
        <ele>26.9</ele>
        <time>2022-04-03T08:21:35.000Z</time>
      </trkpt>
      <trkpt lat="50.5115" lon="3.41066">
        <ele>26.6</ele>
        <time>2022-04-03T08:21:49.000Z</time>
      </trkpt>
      <trkpt lat="50.51153" lon="3.41073">
        <ele>26.4</ele>
        <time>2022-04-03T08:21:50.873Z</time>
      </trkpt>
      <trkpt lat="50.51158" lon="3.41084">
        <ele>26</ele>
        <time>2022-04-03T08:21:53.000Z</time>
      </trkpt>
      <trkpt lat="50.51161" lon="3.41091">
        <ele>26</ele>
        <time>2022-04-03T08:21:54.000Z</time>
      </trkpt>
      <trkpt lat="50.51164" lon="3.41099">
        <ele>26</ele>
        <time>2022-04-03T08:21:55.000Z</time>
      </trkpt>
      <trkpt lat="50.51167" lon="3.41105">
        <ele>26</ele>
        <time>2022-04-03T08:21:56.000Z</time>
      </trkpt>
      <trkpt lat="50.51169" lon="3.41113">
        <ele>26</ele>
        <time>2022-04-03T08:21:57.018Z</time>
      </trkpt>
      <trkpt lat="50.51172" lon="3.41122">
        <ele>25.9</ele>
        <time>2022-04-03T08:21:58.000Z</time>
      </trkpt>
      <trkpt lat="50.51175" lon="3.4113">
        <ele>25.8</ele>
        <time>2022-04-03T08:21:59.000Z</time>
      </trkpt>
      <trkpt lat="50.51177" lon="3.41138">
        <ele>25.6</ele>
        <time>2022-04-03T08:22:00.000Z</time>
      </trkpt>
      <trkpt lat="50.51179" lon="3.41146">
        <ele>25.6</ele>
        <time>2022-04-03T08:22:01.000Z</time>
      </trkpt>
      <trkpt lat="50.5118" lon="3.41153">
        <ele>25.5</ele>
        <time>2022-04-03T08:22:02.000Z</time>
      </trkpt>
      <trkpt lat="50.51182" lon="3.4116">
        <ele>25.4</ele>
        <time>2022-04-03T08:22:03.000Z</time>
      </trkpt>
      <trkpt lat="50.51184" lon="3.41167">
        <ele>25.4</ele>
        <time>2022-04-03T08:22:04.000Z</time>
      </trkpt>
      <trkpt lat="50.51186" lon="3.41174">
        <ele>25.3</ele>
        <time>2022-04-03T08:22:05.000Z</time>
      </trkpt>
      <trkpt lat="50.51188" lon="3.41181">
        <ele>25.2</ele>
        <time>2022-04-03T08:22:06.056Z</time>
      </trkpt>
      <trkpt lat="50.5119" lon="3.41188">
        <ele>25.2</ele>
        <time>2022-04-03T08:22:07.037Z</time>
      </trkpt>
      <trkpt lat="50.51194" lon="3.412">
        <ele>25</ele>
        <time>2022-04-03T08:22:09.063Z</time>
      </trkpt>
      <trkpt lat="50.51198" lon="3.41212">
        <ele>25</ele>
        <time>2022-04-03T08:22:10.957Z</time>
      </trkpt>
      <trkpt lat="50.512" lon="3.41218">
        <ele>25</ele>
        <time>2022-04-03T08:22:12.074Z</time>
      </trkpt>
      <trkpt lat="50.51203" lon="3.4123">
        <ele>25</ele>
        <time>2022-04-03T08:22:13.955Z</time>
      </trkpt>
      <trkpt lat="50.51206" lon="3.41243">
        <ele>25</ele>
        <time>2022-04-03T08:22:16.000Z</time>
      </trkpt>
      <trkpt lat="50.51209" lon="3.41255">
        <ele>25</ele>
        <time>2022-04-03T08:22:17.876Z</time>
      </trkpt>
      <trkpt lat="50.51211" lon="3.41263">
        <ele>25</ele>
        <time>2022-04-03T08:22:19.135Z</time>
      </trkpt>
      <trkpt lat="50.51212" lon="3.41271">
        <ele>25</ele>
        <time>2022-04-03T08:22:20.178Z</time>
      </trkpt>
      <trkpt lat="50.51213" lon="3.41279">
        <ele>25</ele>
        <time>2022-04-03T08:22:21.478Z</time>
      </trkpt>
      <trkpt lat="50.51214" lon="3.41288">
        <ele>25</ele>
        <time>2022-04-03T08:22:23.000Z</time>
      </trkpt>
      <trkpt lat="50.51216" lon="3.41299">
        <ele>25</ele>
        <time>2022-04-03T08:22:25.000Z</time>
      </trkpt>
      <trkpt lat="50.51219" lon="3.41311">
        <ele>25</ele>
        <time>2022-04-03T08:22:27.037Z</time>
      </trkpt>
      <trkpt lat="50.51221" lon="3.41321">
        <ele>25</ele>
        <time>2022-04-03T08:22:29.000Z</time>
      </trkpt>
      <trkpt lat="50.51222" lon="3.4133">
        <ele>25</ele>
        <time>2022-04-03T08:22:31.000Z</time>
      </trkpt>
      <trkpt lat="50.51224" lon="3.41339">
        <ele>25.3</ele>
        <time>2022-04-03T08:22:33.000Z</time>
      </trkpt>
      <trkpt lat="50.51228" lon="3.41346">
        <ele>25.6</ele>
        <time>2022-04-03T08:22:35.000Z</time>
      </trkpt>
      <trkpt lat="50.51231" lon="3.41354">
        <ele>25.8</ele>
        <time>2022-04-03T08:22:37.000Z</time>
      </trkpt>
      <trkpt lat="50.51234" lon="3.41361">
        <ele>26</ele>
        <time>2022-04-03T08:22:40.000Z</time>
      </trkpt>
      <trkpt lat="50.51229" lon="3.41359">
        <ele>25.9</ele>
        <time>2022-04-03T08:22:43.000Z</time>
      </trkpt>
      <trkpt lat="50.51232" lon="3.41352">
        <ele>25.8</ele>
        <time>2022-04-03T08:22:45.000Z</time>
      </trkpt>
      <trkpt lat="50.51235" lon="3.41346">
        <ele>25.7</ele>
        <time>2022-04-03T08:23:05.000Z</time>
      </trkpt>
      <trkpt lat="50.51229" lon="3.41342">
        <ele>25.5</ele>
        <time>2022-04-03T08:23:09.000Z</time>
      </trkpt>
      <trkpt lat="50.51222" lon="3.41343">
        <ele>25.3</ele>
        <time>2022-04-03T08:23:12.000Z</time>
      </trkpt>
      <trkpt lat="50.51215" lon="3.41347">
        <ele>25.4</ele>
        <time>2022-04-03T08:23:14.000Z</time>
      </trkpt>
      <trkpt lat="50.51211" lon="3.41351">
        <ele>25.4</ele>
        <time>2022-04-03T08:23:15.034Z</time>
      </trkpt>
      <trkpt lat="50.51203" lon="3.41358">
        <ele>25.3</ele>
        <time>2022-04-03T08:23:17.000Z</time>
      </trkpt>
      <trkpt lat="50.51194" lon="3.41365">
        <ele>25.1</ele>
        <time>2022-04-03T08:23:19.075Z</time>
      </trkpt>
      <trkpt lat="50.51187" lon="3.41375">
        <ele>25.4</ele>
        <time>2022-04-03T08:23:21.000Z</time>
      </trkpt>
      <trkpt lat="50.51184" lon="3.4138">
        <ele>25.4</ele>
        <time>2022-04-03T08:23:22.000Z</time>
      </trkpt>
      <trkpt lat="50.51181" lon="3.41385">
        <ele>25.4</ele>
        <time>2022-04-03T08:23:23.000Z</time>
      </trkpt>
      <trkpt lat="50.51178" lon="3.41391">
        <ele>25.4</ele>
        <time>2022-04-03T08:23:24.000Z</time>
      </trkpt>
      <trkpt lat="50.51171" lon="3.41402">
        <ele>25.2</ele>
        <time>2022-04-03T08:23:26.113Z</time>
      </trkpt>
      <trkpt lat="50.51168" lon="3.41407">
        <ele>25</ele>
        <time>2022-04-03T08:23:27.296Z</time>
      </trkpt>
      <trkpt lat="50.51165" lon="3.41414">
        <ele>25</ele>
        <time>2022-04-03T08:23:28.655Z</time>
      </trkpt>
      <trkpt lat="50.51162" lon="3.41421">
        <ele>25.1</ele>
        <time>2022-04-03T08:23:30.000Z</time>
      </trkpt>
      <trkpt lat="50.51156" lon="3.41431">
        <ele>25.1</ele>
        <time>2022-04-03T08:23:32.000Z</time>
      </trkpt>
      <trkpt lat="50.5115" lon="3.41441">
        <ele>24.8</ele>
        <time>2022-04-03T08:23:34.000Z</time>
      </trkpt>
      <trkpt lat="50.51145" lon="3.4145">
        <ele>24.6</ele>
        <time>2022-04-03T08:23:36.000Z</time>
      </trkpt>
      <trkpt lat="50.5114" lon="3.41459">
        <ele>24.6</ele>
        <time>2022-04-03T08:23:38.000Z</time>
      </trkpt>
      <trkpt lat="50.51134" lon="3.41469">
        <ele>24.9</ele>
        <time>2022-04-03T08:23:40.000Z</time>
      </trkpt>
      <trkpt lat="50.51129" lon="3.41479">
        <ele>25</ele>
        <time>2022-04-03T08:23:42.000Z</time>
      </trkpt>
      <trkpt lat="50.51124" lon="3.41488">
        <ele>25</ele>
        <time>2022-04-03T08:23:44.000Z</time>
      </trkpt>
      <trkpt lat="50.51119" lon="3.41497">
        <ele>25</ele>
        <time>2022-04-03T08:23:46.000Z</time>
      </trkpt>
      <trkpt lat="50.51114" lon="3.41508">
        <ele>25</ele>
        <time>2022-04-03T08:23:48.000Z</time>
      </trkpt>
      <trkpt lat="50.51108" lon="3.41517">
        <ele>25</ele>
        <time>2022-04-03T08:23:50.000Z</time>
      </trkpt>
      <trkpt lat="50.51102" lon="3.41527">
        <ele>25</ele>
        <time>2022-04-03T08:23:52.000Z</time>
      </trkpt>
      <trkpt lat="50.51096" lon="3.41537">
        <ele>25.2</ele>
        <time>2022-04-03T08:23:53.978Z</time>
      </trkpt>
      <trkpt lat="50.5109" lon="3.41548">
        <ele>25.2</ele>
        <time>2022-04-03T08:23:56.000Z</time>
      </trkpt>
      <trkpt lat="50.51084" lon="3.41558">
        <ele>25</ele>
        <time>2022-04-03T08:23:58.000Z</time>
      </trkpt>
      <trkpt lat="50.51081" lon="3.41563">
        <ele>24.9</ele>
        <time>2022-04-03T08:23:59.000Z</time>
      </trkpt>
      <trkpt lat="50.51078" lon="3.41569">
        <ele>24.9</ele>
        <time>2022-04-03T08:24:00.000Z</time>
      </trkpt>
      <trkpt lat="50.51075" lon="3.41574">
        <ele>24.9</ele>
        <time>2022-04-03T08:24:01.000Z</time>
      </trkpt>
      <trkpt lat="50.51072" lon="3.4158">
        <ele>25</ele>
        <time>2022-04-03T08:24:02.000Z</time>
      </trkpt>
      <trkpt lat="50.51065" lon="3.41592">
        <ele>25</ele>
        <time>2022-04-03T08:24:04.214Z</time>
      </trkpt>
      <trkpt lat="50.51062" lon="3.41597">
        <ele>25</ele>
        <time>2022-04-03T08:24:05.295Z</time>
      </trkpt>
      <trkpt lat="50.51055" lon="3.41607">
        <ele>25</ele>
        <time>2022-04-03T08:24:07.000Z</time>
      </trkpt>
      <trkpt lat="50.51052" lon="3.41613">
        <ele>24.9</ele>
        <time>2022-04-03T08:24:08.000Z</time>
      </trkpt>
      <trkpt lat="50.51046" lon="3.41623">
        <ele>24.7</ele>
        <time>2022-04-03T08:24:10.000Z</time>
      </trkpt>
      <trkpt lat="50.51041" lon="3.41632">
        <ele>24.5</ele>
        <time>2022-04-03T08:24:12.000Z</time>
      </trkpt>
      <trkpt lat="50.51036" lon="3.41635">
        <ele>24.3</ele>
        <time>2022-04-03T08:24:13.000Z</time>
      </trkpt>
      <trkpt lat="50.51031" lon="3.41638">
        <ele>24.1</ele>
        <time>2022-04-03T08:24:14.000Z</time>
      </trkpt>
      <trkpt lat="50.51027" lon="3.41641">
        <ele>24.1</ele>
        <time>2022-04-03T08:24:15.000Z</time>
      </trkpt>
      <trkpt lat="50.51023" lon="3.41645">
        <ele>24.2</ele>
        <time>2022-04-03T08:24:16.000Z</time>
      </trkpt>
      <trkpt lat="50.51019" lon="3.41648">
        <ele>24.2</ele>
        <time>2022-04-03T08:24:17.000Z</time>
      </trkpt>
      <trkpt lat="50.51014" lon="3.41651">
        <ele>24.2</ele>
        <time>2022-04-03T08:24:18.000Z</time>
      </trkpt>
      <trkpt lat="50.5101" lon="3.41654">
        <ele>24.2</ele>
        <time>2022-04-03T08:24:19.000Z</time>
      </trkpt>
      <trkpt lat="50.51006" lon="3.41658">
        <ele>24.1</ele>
        <time>2022-04-03T08:24:20.000Z</time>
      </trkpt>
      <trkpt lat="50.51001" lon="3.41661">
        <ele>24</ele>
        <time>2022-04-03T08:24:21.000Z</time>
      </trkpt>
      <trkpt lat="50.50997" lon="3.41665">
        <ele>23.9</ele>
        <time>2022-04-03T08:24:22.000Z</time>
      </trkpt>
      <trkpt lat="50.50992" lon="3.41668">
        <ele>23.7</ele>
        <time>2022-04-03T08:24:23.000Z</time>
      </trkpt>
      <trkpt lat="50.50988" lon="3.41671">
        <ele>23.6</ele>
        <time>2022-04-03T08:24:24.000Z</time>
      </trkpt>
      <trkpt lat="50.50983" lon="3.41674">
        <ele>23.5</ele>
        <time>2022-04-03T08:24:25.000Z</time>
      </trkpt>
      <trkpt lat="50.50979" lon="3.41677">
        <ele>23.5</ele>
        <time>2022-04-03T08:24:26.000Z</time>
      </trkpt>
      <trkpt lat="50.50974" lon="3.4168">
        <ele>23.5</ele>
        <time>2022-04-03T08:24:27.000Z</time>
      </trkpt>
      <trkpt lat="50.5097" lon="3.41684">
        <ele>23.6</ele>
        <time>2022-04-03T08:24:28.000Z</time>
      </trkpt>
      <trkpt lat="50.50966" lon="3.41687">
        <ele>23.6</ele>
        <time>2022-04-03T08:24:29.000Z</time>
      </trkpt>
      <trkpt lat="50.50962" lon="3.4169">
        <ele>23.5</ele>
        <time>2022-04-03T08:24:30.000Z</time>
      </trkpt>
      <trkpt lat="50.50957" lon="3.41693">
        <ele>23.4</ele>
        <time>2022-04-03T08:24:31.000Z</time>
      </trkpt>
      <trkpt lat="50.50953" lon="3.41696">
        <ele>23.3</ele>
        <time>2022-04-03T08:24:32.000Z</time>
      </trkpt>
      <trkpt lat="50.50948" lon="3.41699">
        <ele>23.3</ele>
        <time>2022-04-03T08:24:33.000Z</time>
      </trkpt>
      <trkpt lat="50.50944" lon="3.41702">
        <ele>23.3</ele>
        <time>2022-04-03T08:24:34.000Z</time>
      </trkpt>
      <trkpt lat="50.50939" lon="3.41705">
        <ele>23.3</ele>
        <time>2022-04-03T08:24:35.000Z</time>
      </trkpt>
      <trkpt lat="50.50934" lon="3.41708">
        <ele>23.3</ele>
        <time>2022-04-03T08:24:36.000Z</time>
      </trkpt>
      <trkpt lat="50.50929" lon="3.41712">
        <ele>23.3</ele>
        <time>2022-04-03T08:24:37.000Z</time>
      </trkpt>
      <trkpt lat="50.50925" lon="3.41715">
        <ele>23.2</ele>
        <time>2022-04-03T08:24:38.000Z</time>
      </trkpt>
      <trkpt lat="50.5092" lon="3.41718">
        <ele>23.1</ele>
        <time>2022-04-03T08:24:39.000Z</time>
      </trkpt>
      <trkpt lat="50.50916" lon="3.41722">
        <ele>23</ele>
        <time>2022-04-03T08:24:40.000Z</time>
      </trkpt>
      <trkpt lat="50.50911" lon="3.41725">
        <ele>22.8</ele>
        <time>2022-04-03T08:24:41.000Z</time>
      </trkpt>
      <trkpt lat="50.50906" lon="3.41728">
        <ele>22.6</ele>
        <time>2022-04-03T08:24:42.000Z</time>
      </trkpt>
      <trkpt lat="50.50901" lon="3.41732">
        <ele>22.4</ele>
        <time>2022-04-03T08:24:43.000Z</time>
      </trkpt>
      <trkpt lat="50.50897" lon="3.41736">
        <ele>22.3</ele>
        <time>2022-04-03T08:24:44.000Z</time>
      </trkpt>
      <trkpt lat="50.50893" lon="3.41739">
        <ele>22.1</ele>
        <time>2022-04-03T08:24:45.000Z</time>
      </trkpt>
      <trkpt lat="50.50889" lon="3.41743">
        <ele>22</ele>
        <time>2022-04-03T08:24:46.000Z</time>
      </trkpt>
      <trkpt lat="50.50884" lon="3.41755">
        <ele>21.8</ele>
        <time>2022-04-03T08:24:48.000Z</time>
      </trkpt>
      <trkpt lat="50.50884" lon="3.41762">
        <ele>21.8</ele>
        <time>2022-04-03T08:24:49.000Z</time>
      </trkpt>
      <trkpt lat="50.50884" lon="3.4177">
        <ele>21.8</ele>
        <time>2022-04-03T08:24:50.000Z</time>
      </trkpt>
      <trkpt lat="50.50885" lon="3.41778">
        <ele>21.9</ele>
        <time>2022-04-03T08:24:51.000Z</time>
      </trkpt>
      <trkpt lat="50.50886" lon="3.41785">
        <ele>21.9</ele>
        <time>2022-04-03T08:24:52.000Z</time>
      </trkpt>
      <trkpt lat="50.50887" lon="3.41792">
        <ele>21.9</ele>
        <time>2022-04-03T08:24:53.000Z</time>
      </trkpt>
      <trkpt lat="50.50889" lon="3.41799">
        <ele>22</ele>
        <time>2022-04-03T08:24:54.000Z</time>
      </trkpt>
      <trkpt lat="50.50891" lon="3.41805">
        <ele>22.1</ele>
        <time>2022-04-03T08:24:55.000Z</time>
      </trkpt>
      <trkpt lat="50.50896" lon="3.41816">
        <ele>22.3</ele>
        <time>2022-04-03T08:24:57.000Z</time>
      </trkpt>
      <trkpt lat="50.509" lon="3.41825">
        <ele>22.4</ele>
        <time>2022-04-03T08:24:59.000Z</time>
      </trkpt>
      <trkpt lat="50.50905" lon="3.41836">
        <ele>22.5</ele>
        <time>2022-04-03T08:25:01.000Z</time>
      </trkpt>
      <trkpt lat="50.50909" lon="3.41846">
        <ele>22.4</ele>
        <time>2022-04-03T08:25:03.000Z</time>
      </trkpt>
      <trkpt lat="50.50914" lon="3.41856">
        <ele>22.2</ele>
        <time>2022-04-03T08:25:05.000Z</time>
      </trkpt>
      <trkpt lat="50.5092" lon="3.41866">
        <ele>22.3</ele>
        <time>2022-04-03T08:25:07.000Z</time>
      </trkpt>
      <trkpt lat="50.50926" lon="3.41876">
        <ele>22.7</ele>
        <time>2022-04-03T08:25:09.272Z</time>
      </trkpt>
      <trkpt lat="50.50932" lon="3.41888">
        <ele>23</ele>
        <time>2022-04-03T08:25:11.874Z</time>
      </trkpt>
      <trkpt lat="50.50938" lon="3.41897">
        <ele>23</ele>
        <time>2022-04-03T08:25:14.000Z</time>
      </trkpt>
      <trkpt lat="50.50943" lon="3.41907">
        <ele>23</ele>
        <time>2022-04-03T08:25:16.000Z</time>
      </trkpt>
      <trkpt lat="50.50948" lon="3.41917">
        <ele>23.1</ele>
        <time>2022-04-03T08:25:18.075Z</time>
      </trkpt>
      <trkpt lat="50.50952" lon="3.41925">
        <ele>23.3</ele>
        <time>2022-04-03T08:25:20.000Z</time>
      </trkpt>
      <trkpt lat="50.50957" lon="3.41934">
        <ele>23.5</ele>
        <time>2022-04-03T08:25:22.000Z</time>
      </trkpt>
      <trkpt lat="50.50962" lon="3.41944">
        <ele>23.6</ele>
        <time>2022-04-03T08:25:24.000Z</time>
      </trkpt>
      <trkpt lat="50.50966" lon="3.41956">
        <ele>23.5</ele>
        <time>2022-04-03T08:25:26.000Z</time>
      </trkpt>
      <trkpt lat="50.50971" lon="3.41966">
        <ele>23.2</ele>
        <time>2022-04-03T08:25:28.293Z</time>
      </trkpt>
      <trkpt lat="50.50978" lon="3.41978">
        <ele>23.2</ele>
        <time>2022-04-03T08:25:31.072Z</time>
      </trkpt>
      <trkpt lat="50.50981" lon="3.41985">
        <ele>23.3</ele>
        <time>2022-04-03T08:25:32.475Z</time>
      </trkpt>
      <trkpt lat="50.50986" lon="3.41997">
        <ele>23.5</ele>
        <time>2022-04-03T08:25:35.000Z</time>
      </trkpt>
      <trkpt lat="50.50989" lon="3.42006">
        <ele>23.4</ele>
        <time>2022-04-03T08:25:36.894Z</time>
      </trkpt>
      <trkpt lat="50.50995" lon="3.42022">
        <ele>23</ele>
        <time>2022-04-03T08:25:39.832Z</time>
      </trkpt>
      <trkpt lat="50.50998" lon="3.42032">
        <ele>22.9</ele>
        <time>2022-04-03T08:25:42.000Z</time>
      </trkpt>
      <trkpt lat="50.50999" lon="3.4204">
        <ele>23</ele>
        <time>2022-04-03T08:25:44.000Z</time>
      </trkpt>
      <trkpt lat="50.50999" lon="3.42031">
        <ele>23</ele>
        <time>2022-04-03T08:25:46.752Z</time>
      </trkpt>
      <trkpt lat="50.50996" lon="3.42024">
        <ele>23</ele>
        <time>2022-04-03T08:25:49.000Z</time>
      </trkpt>
      <trkpt lat="50.50995" lon="3.42015">
        <ele>23.3</ele>
        <time>2022-04-03T08:26:34.000Z</time>
      </trkpt>
      <trkpt lat="50.50992" lon="3.42007">
        <ele>23.5</ele>
        <time>2022-04-03T08:26:36.000Z</time>
      </trkpt>
      <trkpt lat="50.50988" lon="3.41996">
        <ele>23.6</ele>
        <time>2022-04-03T08:26:39.109Z</time>
      </trkpt>
      <trkpt lat="50.50984" lon="3.41988">
        <ele>23.4</ele>
        <time>2022-04-03T08:26:41.000Z</time>
      </trkpt>
      <trkpt lat="50.50979" lon="3.41976">
        <ele>23.2</ele>
        <time>2022-04-03T08:26:43.000Z</time>
      </trkpt>
      <trkpt lat="50.50976" lon="3.4197">
        <ele>23.2</ele>
        <time>2022-04-03T08:26:44.059Z</time>
      </trkpt>
      <trkpt lat="50.50973" lon="3.41964">
        <ele>23.3</ele>
        <time>2022-04-03T08:26:45.053Z</time>
      </trkpt>
      <trkpt lat="50.50967" lon="3.41954">
        <ele>23.5</ele>
        <time>2022-04-03T08:26:47.000Z</time>
      </trkpt>
      <trkpt lat="50.50963" lon="3.4195">
        <ele>23.5</ele>
        <time>2022-04-03T08:26:49.000Z</time>
      </trkpt>
      <trkpt lat="50.50967" lon="3.41955">
        <ele>23.5</ele>
        <time>2022-04-03T08:26:51.000Z</time>
      </trkpt>
      <trkpt lat="50.50969" lon="3.41962">
        <ele>23.3</ele>
        <time>2022-04-03T08:26:59.996Z</time>
      </trkpt>
      <trkpt lat="50.50965" lon="3.41969">
        <ele>23.1</ele>
        <time>2022-04-03T08:27:02.635Z</time>
      </trkpt>
      <trkpt lat="50.50959" lon="3.41974">
        <ele>23</ele>
        <time>2022-04-03T08:27:04.991Z</time>
      </trkpt>
      <trkpt lat="50.50952" lon="3.4198">
        <ele>23</ele>
        <time>2022-04-03T08:27:06.993Z</time>
      </trkpt>
      <trkpt lat="50.50946" lon="3.41985">
        <ele>23</ele>
        <time>2022-04-03T08:27:08.174Z</time>
      </trkpt>
      <trkpt lat="50.50941" lon="3.4199">
        <ele>22.9</ele>
        <time>2022-04-03T08:27:09.412Z</time>
      </trkpt>
      <trkpt lat="50.50937" lon="3.41994">
        <ele>22.7</ele>
        <time>2022-04-03T08:27:10.511Z</time>
      </trkpt>
      <trkpt lat="50.50932" lon="3.41999">
        <ele>22.6</ele>
        <time>2022-04-03T08:27:11.635Z</time>
      </trkpt>
      <trkpt lat="50.50928" lon="3.42006">
        <ele>22.3</ele>
        <time>2022-04-03T08:27:12.994Z</time>
      </trkpt>
      <trkpt lat="50.50925" lon="3.42012">
        <ele>22.2</ele>
        <time>2022-04-03T08:27:13.956Z</time>
      </trkpt>
      <trkpt lat="50.50921" lon="3.42025">
        <ele>22</ele>
        <time>2022-04-03T08:27:16.000Z</time>
      </trkpt>
      <trkpt lat="50.50918" lon="3.42035">
        <ele>22</ele>
        <time>2022-04-03T08:27:17.495Z</time>
      </trkpt>
      <trkpt lat="50.50915" lon="3.42043">
        <ele>21.9</ele>
        <time>2022-04-03T08:27:18.715Z</time>
      </trkpt>
      <trkpt lat="50.50913" lon="3.4205">
        <ele>21.9</ele>
        <time>2022-04-03T08:27:19.972Z</time>
      </trkpt>
      <trkpt lat="50.50909" lon="3.42064">
        <ele>21.7</ele>
        <time>2022-04-03T08:27:22.057Z</time>
      </trkpt>
      <trkpt lat="50.50905" lon="3.42076">
        <ele>21.6</ele>
        <time>2022-04-03T08:27:24.000Z</time>
      </trkpt>
      <trkpt lat="50.50903" lon="3.42083">
        <ele>21.5</ele>
        <time>2022-04-03T08:27:25.032Z</time>
      </trkpt>
      <trkpt lat="50.509" lon="3.42095">
        <ele>21.4</ele>
        <time>2022-04-03T08:27:26.995Z</time>
      </trkpt>
      <trkpt lat="50.50896" lon="3.42103">
        <ele>21.3</ele>
        <time>2022-04-03T08:27:28.333Z</time>
      </trkpt>
      <trkpt lat="50.50893" lon="3.42113">
        <ele>21.1</ele>
        <time>2022-04-03T08:27:29.874Z</time>
      </trkpt>
      <trkpt lat="50.50892" lon="3.4212">
        <ele>21.1</ele>
        <time>2022-04-03T08:27:31.000Z</time>
      </trkpt>
      <trkpt lat="50.50888" lon="3.42133">
        <ele>21</ele>
        <time>2022-04-03T08:27:33.000Z</time>
      </trkpt>
      <trkpt lat="50.50886" lon="3.42146">
        <ele>21.2</ele>
        <time>2022-04-03T08:27:35.000Z</time>
      </trkpt>
      <trkpt lat="50.50882" lon="3.42164">
        <ele>21.7</ele>
        <time>2022-04-03T08:27:37.813Z</time>
      </trkpt>
      <trkpt lat="50.5088" lon="3.42171">
        <ele>21.6</ele>
        <time>2022-04-03T08:27:39.000Z</time>
      </trkpt>
      <trkpt lat="50.50879" lon="3.4218">
        <ele>21.3</ele>
        <time>2022-04-03T08:27:40.333Z</time>
      </trkpt>
      <trkpt lat="50.50877" lon="3.4219">
        <ele>21.1</ele>
        <time>2022-04-03T08:27:42.013Z</time>
      </trkpt>
      <trkpt lat="50.50874" lon="3.42202">
        <ele>21.1</ele>
        <time>2022-04-03T08:27:44.000Z</time>
      </trkpt>
      <trkpt lat="50.50872" lon="3.42214">
        <ele>21.4</ele>
        <time>2022-04-03T08:27:46.371Z</time>
      </trkpt>
      <trkpt lat="50.5087" lon="3.42222">
        <ele>21.7</ele>
        <time>2022-04-03T08:27:48.012Z</time>
      </trkpt>
      <trkpt lat="50.50869" lon="3.4223">
        <ele>21.8</ele>
        <time>2022-04-03T08:27:49.932Z</time>
      </trkpt>
      <trkpt lat="50.50867" lon="3.42241">
        <ele>21.9</ele>
        <time>2022-04-03T08:27:51.934Z</time>
      </trkpt>
      <trkpt lat="50.50864" lon="3.4225">
        <ele>22</ele>
        <time>2022-04-03T08:27:54.096Z</time>
      </trkpt>
      <trkpt lat="50.50862" lon="3.42258">
        <ele>22</ele>
        <time>2022-04-03T08:27:56.032Z</time>
      </trkpt>
      <trkpt lat="50.50859" lon="3.42267">
        <ele>21.9</ele>
        <time>2022-04-03T08:27:58.092Z</time>
      </trkpt>
      <trkpt lat="50.50858" lon="3.42279">
        <ele>21.9</ele>
        <time>2022-04-03T08:28:01.000Z</time>
      </trkpt>
      <trkpt lat="50.50856" lon="3.42287">
        <ele>21.9</ele>
        <time>2022-04-03T08:28:03.000Z</time>
      </trkpt>
      <trkpt lat="50.50855" lon="3.42295">
        <ele>21.9</ele>
        <time>2022-04-03T08:28:05.000Z</time>
      </trkpt>
      <trkpt lat="50.50853" lon="3.42302">
        <ele>22</ele>
        <time>2022-04-03T08:28:07.000Z</time>
      </trkpt>
      <trkpt lat="50.50851" lon="3.4231">
        <ele>22</ele>
        <time>2022-04-03T08:28:09.000Z</time>
      </trkpt>
      <trkpt lat="50.50849" lon="3.42319">
        <ele>22</ele>
        <time>2022-04-03T08:28:11.000Z</time>
      </trkpt>
      <trkpt lat="50.50845" lon="3.42331">
        <ele>22</ele>
        <time>2022-04-03T08:28:13.813Z</time>
      </trkpt>
      <trkpt lat="50.50842" lon="3.42339">
        <ele>22</ele>
        <time>2022-04-03T08:28:16.000Z</time>
      </trkpt>
      <trkpt lat="50.5084" lon="3.42347">
        <ele>22</ele>
        <time>2022-04-03T08:28:18.000Z</time>
      </trkpt>
      <trkpt lat="50.50837" lon="3.42356">
        <ele>22</ele>
        <time>2022-04-03T08:28:20.012Z</time>
      </trkpt>
      <trkpt lat="50.50834" lon="3.42365">
        <ele>22</ele>
        <time>2022-04-03T08:28:22.000Z</time>
      </trkpt>
      <trkpt lat="50.50831" lon="3.42372">
        <ele>22</ele>
        <time>2022-04-03T08:28:24.000Z</time>
      </trkpt>
      <trkpt lat="50.50827" lon="3.42382">
        <ele>22</ele>
        <time>2022-04-03T08:28:27.000Z</time>
      </trkpt>
      <trkpt lat="50.50824" lon="3.42389">
        <ele>22</ele>
        <time>2022-04-03T08:28:28.934Z</time>
      </trkpt>
      <trkpt lat="50.50821" lon="3.42397">
        <ele>22</ele>
        <time>2022-04-03T08:28:31.000Z</time>
      </trkpt>
      <trkpt lat="50.50818" lon="3.42406">
        <ele>22</ele>
        <time>2022-04-03T08:28:33.000Z</time>
      </trkpt>
      <trkpt lat="50.50815" lon="3.42414">
        <ele>22</ele>
        <time>2022-04-03T08:28:35.000Z</time>
      </trkpt>
      <trkpt lat="50.50812" lon="3.42423">
        <ele>22</ele>
        <time>2022-04-03T08:28:37.000Z</time>
      </trkpt>
      <trkpt lat="50.50808" lon="3.42433">
        <ele>22</ele>
        <time>2022-04-03T08:28:39.052Z</time>
      </trkpt>
      <trkpt lat="50.50803" lon="3.42446">
        <ele>22</ele>
        <time>2022-04-03T08:28:41.813Z</time>
      </trkpt>
      <trkpt lat="50.50798" lon="3.42458">
        <ele>22</ele>
        <time>2022-04-03T08:28:44.535Z</time>
      </trkpt>
      <trkpt lat="50.50794" lon="3.42465">
        <ele>22</ele>
        <time>2022-04-03T08:28:46.714Z</time>
      </trkpt>
      <trkpt lat="50.5079" lon="3.42473">
        <ele>22</ele>
        <time>2022-04-03T08:28:49.000Z</time>
      </trkpt>
      <trkpt lat="50.50787" lon="3.42482">
        <ele>22</ele>
        <time>2022-04-03T08:28:51.000Z</time>
      </trkpt>
      <trkpt lat="50.50783" lon="3.42489">
        <ele>22</ele>
        <time>2022-04-03T08:28:53.573Z</time>
      </trkpt>
      <trkpt lat="50.50779" lon="3.42498">
        <ele>22</ele>
        <time>2022-04-03T08:28:56.000Z</time>
      </trkpt>
      <trkpt lat="50.50775" lon="3.42506">
        <ele>22</ele>
        <time>2022-04-03T08:28:58.000Z</time>
      </trkpt>
      <trkpt lat="50.50769" lon="3.42516">
        <ele>22</ele>
        <time>2022-04-03T08:29:00.069Z</time>
      </trkpt>
      <trkpt lat="50.50766" lon="3.42524">
        <ele>22</ele>
        <time>2022-04-03T08:29:01.635Z</time>
      </trkpt>
      <trkpt lat="50.50762" lon="3.42532">
        <ele>22</ele>
        <time>2022-04-03T08:29:03.051Z</time>
      </trkpt>
      <trkpt lat="50.50757" lon="3.42542">
        <ele>22</ele>
        <time>2022-04-03T08:29:04.933Z</time>
      </trkpt>
      <trkpt lat="50.50754" lon="3.42548">
        <ele>22</ele>
        <time>2022-04-03T08:29:06.032Z</time>
      </trkpt>
      <trkpt lat="50.5075" lon="3.42559">
        <ele>22</ele>
        <time>2022-04-03T08:29:08.000Z</time>
      </trkpt>
      <trkpt lat="50.50745" lon="3.42567">
        <ele>22</ele>
        <time>2022-04-03T08:29:09.972Z</time>
      </trkpt>
      <trkpt lat="50.50742" lon="3.42575">
        <ele>22</ele>
        <time>2022-04-03T08:29:12.000Z</time>
      </trkpt>
      <trkpt lat="50.50737" lon="3.42583">
        <ele>22</ele>
        <time>2022-04-03T08:29:14.052Z</time>
      </trkpt>
      <trkpt lat="50.50734" lon="3.42589">
        <ele>22</ele>
        <time>2022-04-03T08:29:15.512Z</time>
      </trkpt>
      <trkpt lat="50.50731" lon="3.42595">
        <ele>22</ele>
        <time>2022-04-03T08:29:17.000Z</time>
      </trkpt>
      <trkpt lat="50.50727" lon="3.42602">
        <ele>22</ele>
        <time>2022-04-03T08:29:18.953Z</time>
      </trkpt>
      <trkpt lat="50.50723" lon="3.42609">
        <ele>22</ele>
        <time>2022-04-03T08:29:21.012Z</time>
      </trkpt>
      <trkpt lat="50.50719" lon="3.42617">
        <ele>22.2</ele>
        <time>2022-04-03T08:29:22.994Z</time>
      </trkpt>
      <trkpt lat="50.50715" lon="3.42625">
        <ele>22.4</ele>
        <time>2022-04-03T08:29:25.000Z</time>
      </trkpt>
      <trkpt lat="50.5071" lon="3.42633">
        <ele>22.4</ele>
        <time>2022-04-03T08:29:26.973Z</time>
      </trkpt>
      <trkpt lat="50.50706" lon="3.42641">
        <ele>22.4</ele>
        <time>2022-04-03T08:29:28.874Z</time>
      </trkpt>
      <trkpt lat="50.50703" lon="3.42646">
        <ele>22.4</ele>
        <time>2022-04-03T08:29:30.231Z</time>
      </trkpt>
      <trkpt lat="50.50698" lon="3.42656">
        <ele>22.6</ele>
        <time>2022-04-03T08:29:32.615Z</time>
      </trkpt>
      <trkpt lat="50.50693" lon="3.42665">
        <ele>22.9</ele>
        <time>2022-04-03T08:29:34.634Z</time>
      </trkpt>
      <trkpt lat="50.50687" lon="3.42674">
        <ele>23</ele>
        <time>2022-04-03T08:29:36.813Z</time>
      </trkpt>
      <trkpt lat="50.50683" lon="3.42685">
        <ele>23</ele>
        <time>2022-04-03T08:29:39.355Z</time>
      </trkpt>
      <trkpt lat="50.50679" lon="3.42693">
        <ele>23</ele>
        <time>2022-04-03T08:29:41.371Z</time>
      </trkpt>
      <trkpt lat="50.50674" lon="3.42702">
        <ele>22.9</ele>
        <time>2022-04-03T08:29:43.597Z</time>
      </trkpt>
      <trkpt lat="50.5067" lon="3.42712">
        <ele>22.9</ele>
        <time>2022-04-03T08:29:45.995Z</time>
      </trkpt>
      <trkpt lat="50.50664" lon="3.4272">
        <ele>22.9</ele>
        <time>2022-04-03T08:29:48.350Z</time>
      </trkpt>
      <trkpt lat="50.5066" lon="3.42728">
        <ele>22.6</ele>
        <time>2022-04-03T08:29:50.814Z</time>
      </trkpt>
      <trkpt lat="50.50654" lon="3.42738">
        <ele>22.2</ele>
        <time>2022-04-03T08:29:53.694Z</time>
      </trkpt>
      <trkpt lat="50.50649" lon="3.42748">
        <ele>22</ele>
        <time>2022-04-03T08:29:56.000Z</time>
      </trkpt>
      <trkpt lat="50.50647" lon="3.42762">
        <ele>21.6</ele>
        <time>2022-04-03T08:29:58.532Z</time>
      </trkpt>
      <trkpt lat="50.50648" lon="3.42777">
        <ele>21</ele>
        <time>2022-04-03T08:30:00.874Z</time>
      </trkpt>
      <trkpt lat="50.50648" lon="3.42785">
        <ele>20.9</ele>
        <time>2022-04-03T08:30:02.000Z</time>
      </trkpt>
      <trkpt lat="50.50643" lon="3.42797">
        <ele>20.5</ele>
        <time>2022-04-03T08:30:03.994Z</time>
      </trkpt>
      <trkpt lat="50.5064" lon="3.42803">
        <ele>20.2</ele>
        <time>2022-04-03T08:30:05.000Z</time>
      </trkpt>
      <trkpt lat="50.50634" lon="3.42814">
        <ele>20.5</ele>
        <time>2022-04-03T08:30:06.955Z</time>
      </trkpt>
      <trkpt lat="50.50629" lon="3.4282">
        <ele>20.7</ele>
        <time>2022-04-03T08:30:08.000Z</time>
      </trkpt>
      <trkpt lat="50.50625" lon="3.42825">
        <ele>20.7</ele>
        <time>2022-04-03T08:30:09.000Z</time>
      </trkpt>
      <trkpt lat="50.50622" lon="3.4283">
        <ele>20.5</ele>
        <time>2022-04-03T08:30:10.000Z</time>
      </trkpt>
      <trkpt lat="50.50618" lon="3.42834">
        <ele>20.2</ele>
        <time>2022-04-03T08:30:11.000Z</time>
      </trkpt>
      <trkpt lat="50.50614" lon="3.42843">
        <ele>20.1</ele>
        <time>2022-04-03T08:30:13.053Z</time>
      </trkpt>
      <trkpt lat="50.50611" lon="3.42851">
        <ele>20</ele>
        <time>2022-04-03T08:30:14.879Z</time>
      </trkpt>
      <trkpt lat="50.50606" lon="3.42857">
        <ele>20</ele>
        <time>2022-04-03T08:30:16.080Z</time>
      </trkpt>
      <trkpt lat="50.50601" lon="3.42864">
        <ele>20</ele>
        <time>2022-04-03T08:30:17.556Z</time>
      </trkpt>
      <trkpt lat="50.50593" lon="3.42875">
        <ele>19.7</ele>
        <time>2022-04-03T08:30:19.760Z</time>
      </trkpt>
      <trkpt lat="50.5059" lon="3.4288">
        <ele>19.5</ele>
        <time>2022-04-03T08:30:20.879Z</time>
      </trkpt>
      <trkpt lat="50.50587" lon="3.42886">
        <ele>19.2</ele>
        <time>2022-04-03T08:30:22.000Z</time>
      </trkpt>
      <trkpt lat="50.50583" lon="3.42892">
        <ele>19</ele>
        <time>2022-04-03T08:30:23.215Z</time>
      </trkpt>
      <trkpt lat="50.50579" lon="3.42898">
        <ele>19.1</ele>
        <time>2022-04-03T08:30:24.359Z</time>
      </trkpt>
      <trkpt lat="50.50575" lon="3.42904">
        <ele>19.1</ele>
        <time>2022-04-03T08:30:25.438Z</time>
      </trkpt>
      <trkpt lat="50.5057" lon="3.42912">
        <ele>19.1</ele>
        <time>2022-04-03T08:30:27.000Z</time>
      </trkpt>
      <trkpt lat="50.50565" lon="3.42918">
        <ele>19</ele>
        <time>2022-04-03T08:30:28.000Z</time>
      </trkpt>
      <trkpt lat="50.50562" lon="3.42924">
        <ele>19</ele>
        <time>2022-04-03T08:30:29.000Z</time>
      </trkpt>
      <trkpt lat="50.50559" lon="3.42929">
        <ele>19</ele>
        <time>2022-04-03T08:30:30.000Z</time>
      </trkpt>
      <trkpt lat="50.50553" lon="3.42939">
        <ele>19</ele>
        <time>2022-04-03T08:30:32.000Z</time>
      </trkpt>
      <trkpt lat="50.50548" lon="3.4295">
        <ele>19</ele>
        <time>2022-04-03T08:30:34.000Z</time>
      </trkpt>
      <trkpt lat="50.50544" lon="3.42956">
        <ele>19</ele>
        <time>2022-04-03T08:30:35.000Z</time>
      </trkpt>
      <trkpt lat="50.50541" lon="3.42961">
        <ele>19</ele>
        <time>2022-04-03T08:30:36.000Z</time>
      </trkpt>
      <trkpt lat="50.50538" lon="3.42967">
        <ele>19</ele>
        <time>2022-04-03T08:30:37.000Z</time>
      </trkpt>
      <trkpt lat="50.50535" lon="3.42972">
        <ele>19</ele>
        <time>2022-04-03T08:30:38.000Z</time>
      </trkpt>
      <trkpt lat="50.5053" lon="3.42983">
        <ele>19</ele>
        <time>2022-04-03T08:30:40.000Z</time>
      </trkpt>
      <trkpt lat="50.50524" lon="3.42992">
        <ele>19</ele>
        <time>2022-04-03T08:30:42.000Z</time>
      </trkpt>
      <trkpt lat="50.50517" lon="3.42999">
        <ele>19</ele>
        <time>2022-04-03T08:30:44.000Z</time>
      </trkpt>
      <trkpt lat="50.50511" lon="3.43008">
        <ele>19</ele>
        <time>2022-04-03T08:30:46.000Z</time>
      </trkpt>
      <trkpt lat="50.50506" lon="3.43017">
        <ele>19</ele>
        <time>2022-04-03T08:30:48.000Z</time>
      </trkpt>
      <trkpt lat="50.505" lon="3.43024">
        <ele>19</ele>
        <time>2022-04-03T08:30:49.911Z</time>
      </trkpt>
      <trkpt lat="50.50494" lon="3.43033">
        <ele>19</ele>
        <time>2022-04-03T08:30:51.950Z</time>
      </trkpt>
      <trkpt lat="50.5049" lon="3.43039">
        <ele>19</ele>
        <time>2022-04-03T08:30:53.411Z</time>
      </trkpt>
      <trkpt lat="50.50482" lon="3.4305">
        <ele>19</ele>
        <time>2022-04-03T08:30:56.000Z</time>
      </trkpt>
      <trkpt lat="50.50476" lon="3.43058">
        <ele>19.1</ele>
        <time>2022-04-03T08:30:58.000Z</time>
      </trkpt>
      <trkpt lat="50.50473" lon="3.43064">
        <ele>19.3</ele>
        <time>2022-04-03T08:30:59.071Z</time>
      </trkpt>
      <trkpt lat="50.5047" lon="3.43069">
        <ele>19.5</ele>
        <time>2022-04-03T08:31:00.098Z</time>
      </trkpt>
      <trkpt lat="50.50461" lon="3.43081">
        <ele>19.9</ele>
        <time>2022-04-03T08:31:02.871Z</time>
      </trkpt>
      <trkpt lat="50.50454" lon="3.43089">
        <ele>20</ele>
        <time>2022-04-03T08:31:05.000Z</time>
      </trkpt>
      <trkpt lat="50.50449" lon="3.43096">
        <ele>20</ele>
        <time>2022-04-03T08:31:06.868Z</time>
      </trkpt>
      <trkpt lat="50.50442" lon="3.43104">
        <ele>20</ele>
        <time>2022-04-03T08:31:09.000Z</time>
      </trkpt>
      <trkpt lat="50.50437" lon="3.43112">
        <ele>20</ele>
        <time>2022-04-03T08:31:11.000Z</time>
      </trkpt>
      <trkpt lat="50.50431" lon="3.43118">
        <ele>20</ele>
        <time>2022-04-03T08:31:13.000Z</time>
      </trkpt>
      <trkpt lat="50.50425" lon="3.43126">
        <ele>20</ele>
        <time>2022-04-03T08:31:15.011Z</time>
      </trkpt>
      <trkpt lat="50.50419" lon="3.43132">
        <ele>20</ele>
        <time>2022-04-03T08:31:17.000Z</time>
      </trkpt>
      <trkpt lat="50.50414" lon="3.4314">
        <ele>20.1</ele>
        <time>2022-04-03T08:31:19.000Z</time>
      </trkpt>
      <trkpt lat="50.50409" lon="3.43147">
        <ele>20.5</ele>
        <time>2022-04-03T08:31:21.000Z</time>
      </trkpt>
      <trkpt lat="50.50404" lon="3.43155">
        <ele>20.8</ele>
        <time>2022-04-03T08:31:23.000Z</time>
      </trkpt>
      <trkpt lat="50.50398" lon="3.43163">
        <ele>21</ele>
        <time>2022-04-03T08:31:25.000Z</time>
      </trkpt>
      <trkpt lat="50.50394" lon="3.43172">
        <ele>21</ele>
        <time>2022-04-03T08:31:27.010Z</time>
      </trkpt>
      <trkpt lat="50.50386" lon="3.43182">
        <ele>21</ele>
        <time>2022-04-03T08:31:30.000Z</time>
      </trkpt>
      <trkpt lat="50.5038" lon="3.43188">
        <ele>21</ele>
        <time>2022-04-03T08:31:32.000Z</time>
      </trkpt>
      <trkpt lat="50.50375" lon="3.43193">
        <ele>21</ele>
        <time>2022-04-03T08:31:34.000Z</time>
      </trkpt>
      <trkpt lat="50.5037" lon="3.43197">
        <ele>21</ele>
        <time>2022-04-03T08:31:36.000Z</time>
      </trkpt>
      <trkpt lat="50.50365" lon="3.432">
        <ele>21</ele>
        <time>2022-04-03T08:31:37.927Z</time>
      </trkpt>
      <trkpt lat="50.5036" lon="3.43201">
        <ele>21</ele>
        <time>2022-04-03T08:31:45.000Z</time>
      </trkpt>
      <trkpt lat="50.50357" lon="3.43209">
        <ele>21</ele>
        <time>2022-04-03T08:31:49.000Z</time>
      </trkpt>
      <trkpt lat="50.50357" lon="3.43219">
        <ele>21</ele>
        <time>2022-04-03T08:31:51.000Z</time>
      </trkpt>
      <trkpt lat="50.50355" lon="3.4323">
        <ele>21.1</ele>
        <time>2022-04-03T08:31:53.000Z</time>
      </trkpt>
      <trkpt lat="50.50352" lon="3.43236">
        <ele>21.2</ele>
        <time>2022-04-03T08:31:54.000Z</time>
      </trkpt>
      <trkpt lat="50.50348" lon="3.43245">
        <ele>21.4</ele>
        <time>2022-04-03T08:31:56.000Z</time>
      </trkpt>
      <trkpt lat="50.50344" lon="3.43255">
        <ele>21.5</ele>
        <time>2022-04-03T08:31:58.028Z</time>
      </trkpt>
      <trkpt lat="50.50339" lon="3.43264">
        <ele>21.4</ele>
        <time>2022-04-03T08:32:00.000Z</time>
      </trkpt>
      <trkpt lat="50.50334" lon="3.43273">
        <ele>21.2</ele>
        <time>2022-04-03T08:32:02.000Z</time>
      </trkpt>
      <trkpt lat="50.50329" lon="3.43282">
        <ele>21.3</ele>
        <time>2022-04-03T08:32:04.000Z</time>
      </trkpt>
      <trkpt lat="50.50325" lon="3.4329">
        <ele>21.6</ele>
        <time>2022-04-03T08:32:06.000Z</time>
      </trkpt>
      <trkpt lat="50.50321" lon="3.43296">
        <ele>21.8</ele>
        <time>2022-04-03T08:32:08.000Z</time>
      </trkpt>
      <trkpt lat="50.50317" lon="3.43303">
        <ele>22</ele>
        <time>2022-04-03T08:32:10.000Z</time>
      </trkpt>
      <trkpt lat="50.50313" lon="3.4331">
        <ele>22</ele>
        <time>2022-04-03T08:32:12.000Z</time>
      </trkpt>
      <trkpt lat="50.5031" lon="3.43315">
        <ele>22</ele>
        <time>2022-04-03T08:32:13.848Z</time>
      </trkpt>
      <trkpt lat="50.50305" lon="3.43321">
        <ele>22</ele>
        <time>2022-04-03T08:32:16.000Z</time>
      </trkpt>
      <trkpt lat="50.50302" lon="3.43328">
        <ele>22</ele>
        <time>2022-04-03T08:32:18.000Z</time>
      </trkpt>
      <trkpt lat="50.50296" lon="3.43338">
        <ele>22</ele>
        <time>2022-04-03T08:32:20.890Z</time>
      </trkpt>
      <trkpt lat="50.5029" lon="3.43345">
        <ele>22</ele>
        <time>2022-04-03T08:32:23.000Z</time>
      </trkpt>
      <trkpt lat="50.50286" lon="3.43353">
        <ele>22</ele>
        <time>2022-04-03T08:32:25.000Z</time>
      </trkpt>
      <trkpt lat="50.50281" lon="3.4336">
        <ele>22</ele>
        <time>2022-04-03T08:32:26.909Z</time>
      </trkpt>
      <trkpt lat="50.50276" lon="3.43368">
        <ele>22.3</ele>
        <time>2022-04-03T08:32:29.000Z</time>
      </trkpt>
      <trkpt lat="50.50271" lon="3.43375">
        <ele>22.6</ele>
        <time>2022-04-03T08:32:31.000Z</time>
      </trkpt>
      <trkpt lat="50.50266" lon="3.43382">
        <ele>22.9</ele>
        <time>2022-04-03T08:32:33.000Z</time>
      </trkpt>
      <trkpt lat="50.50262" lon="3.43389">
        <ele>23</ele>
        <time>2022-04-03T08:32:35.000Z</time>
      </trkpt>
      <trkpt lat="50.50257" lon="3.43396">
        <ele>23</ele>
        <time>2022-04-03T08:32:37.000Z</time>
      </trkpt>
      <trkpt lat="50.50253" lon="3.43403">
        <ele>23</ele>
        <time>2022-04-03T08:32:39.000Z</time>
      </trkpt>
      <trkpt lat="50.50248" lon="3.43411">
        <ele>23</ele>
        <time>2022-04-03T08:32:41.000Z</time>
      </trkpt>
      <trkpt lat="50.50243" lon="3.43418">
        <ele>23</ele>
        <time>2022-04-03T08:32:43.000Z</time>
      </trkpt>
      <trkpt lat="50.50239" lon="3.43424">
        <ele>22.9</ele>
        <time>2022-04-03T08:32:45.000Z</time>
      </trkpt>
      <trkpt lat="50.50234" lon="3.43432">
        <ele>22.7</ele>
        <time>2022-04-03T08:32:47.000Z</time>
      </trkpt>
      <trkpt lat="50.50228" lon="3.4344">
        <ele>22.3</ele>
        <time>2022-04-03T08:32:49.000Z</time>
      </trkpt>
      <trkpt lat="50.50222" lon="3.43448">
        <ele>22</ele>
        <time>2022-04-03T08:32:51.000Z</time>
      </trkpt>
      <trkpt lat="50.50213" lon="3.43459">
        <ele>22.2</ele>
        <time>2022-04-03T08:32:53.815Z</time>
      </trkpt>
      <trkpt lat="50.5021" lon="3.43464">
        <ele>22.1</ele>
        <time>2022-04-03T08:32:55.000Z</time>
      </trkpt>
      <trkpt lat="50.50199" lon="3.43478">
        <ele>21.8</ele>
        <time>2022-04-03T08:32:58.000Z</time>
      </trkpt>
      <trkpt lat="50.50196" lon="3.43483">
        <ele>21.6</ele>
        <time>2022-04-03T08:32:59.000Z</time>
      </trkpt>
      <trkpt lat="50.50192" lon="3.43489">
        <ele>21.4</ele>
        <time>2022-04-03T08:33:00.072Z</time>
      </trkpt>
      <trkpt lat="50.50186" lon="3.43498">
        <ele>21.4</ele>
        <time>2022-04-03T08:33:02.000Z</time>
      </trkpt>
      <trkpt lat="50.5018" lon="3.43505">
        <ele>21.4</ele>
        <time>2022-04-03T08:33:03.571Z</time>
      </trkpt>
      <trkpt lat="50.50172" lon="3.43517">
        <ele>21.3</ele>
        <time>2022-04-03T08:33:06.000Z</time>
      </trkpt>
      <trkpt lat="50.50168" lon="3.43521">
        <ele>21.2</ele>
        <time>2022-04-03T08:33:07.000Z</time>
      </trkpt>
      <trkpt lat="50.50165" lon="3.43527">
        <ele>21.1</ele>
        <time>2022-04-03T08:33:08.000Z</time>
      </trkpt>
      <trkpt lat="50.50162" lon="3.43532">
        <ele>21.1</ele>
        <time>2022-04-03T08:33:09.000Z</time>
      </trkpt>
      <trkpt lat="50.50155" lon="3.43542">
        <ele>21.2</ele>
        <time>2022-04-03T08:33:11.000Z</time>
      </trkpt>
      <trkpt lat="50.50152" lon="3.43547">
        <ele>21.2</ele>
        <time>2022-04-03T08:33:12.000Z</time>
      </trkpt>
      <trkpt lat="50.50151" lon="3.43555">
        <ele>21</ele>
        <time>2022-04-03T08:33:14.000Z</time>
      </trkpt>
      <trkpt lat="50.50148" lon="3.4356">
        <ele>20.9</ele>
        <time>2022-04-03T08:33:15.000Z</time>
      </trkpt>
      <trkpt lat="50.50143" lon="3.43565">
        <ele>20.9</ele>
        <time>2022-04-03T08:33:16.000Z</time>
      </trkpt>
      <trkpt lat="50.50139" lon="3.4357">
        <ele>21</ele>
        <time>2022-04-03T08:33:17.000Z</time>
      </trkpt>
      <trkpt lat="50.50135" lon="3.43575">
        <ele>21</ele>
        <time>2022-04-03T08:33:18.000Z</time>
      </trkpt>
      <trkpt lat="50.50132" lon="3.4358">
        <ele>21</ele>
        <time>2022-04-03T08:33:19.000Z</time>
      </trkpt>
      <trkpt lat="50.50128" lon="3.43585">
        <ele>21</ele>
        <time>2022-04-03T08:33:20.000Z</time>
      </trkpt>
      <trkpt lat="50.50125" lon="3.4359">
        <ele>20.9</ele>
        <time>2022-04-03T08:33:21.000Z</time>
      </trkpt>
      <trkpt lat="50.50121" lon="3.43596">
        <ele>20.8</ele>
        <time>2022-04-03T08:33:22.000Z</time>
      </trkpt>
      <trkpt lat="50.50115" lon="3.43605">
        <ele>20.9</ele>
        <time>2022-04-03T08:33:24.000Z</time>
      </trkpt>
      <trkpt lat="50.50109" lon="3.43614">
        <ele>21</ele>
        <time>2022-04-03T08:33:26.000Z</time>
      </trkpt>
      <trkpt lat="50.50102" lon="3.43623">
        <ele>20.9</ele>
        <time>2022-04-03T08:33:28.000Z</time>
      </trkpt>
      <trkpt lat="50.50098" lon="3.43628">
        <ele>20.9</ele>
        <time>2022-04-03T08:33:29.000Z</time>
      </trkpt>
      <trkpt lat="50.50094" lon="3.43633">
        <ele>20.8</ele>
        <time>2022-04-03T08:33:29.992Z</time>
      </trkpt>
      <trkpt lat="50.50091" lon="3.43638">
        <ele>20.8</ele>
        <time>2022-04-03T08:33:31.073Z</time>
      </trkpt>
      <trkpt lat="50.50087" lon="3.43644">
        <ele>20.9</ele>
        <time>2022-04-03T08:33:32.294Z</time>
      </trkpt>
      <trkpt lat="50.50082" lon="3.4365">
        <ele>21</ele>
        <time>2022-04-03T08:33:34.000Z</time>
      </trkpt>
      <trkpt lat="50.50075" lon="3.43659">
        <ele>21.3</ele>
        <time>2022-04-03T08:33:36.000Z</time>
      </trkpt>
      <trkpt lat="50.5007" lon="3.43667">
        <ele>21.5</ele>
        <time>2022-04-03T08:33:38.000Z</time>
      </trkpt>
      <trkpt lat="50.50064" lon="3.43675">
        <ele>21.5</ele>
        <time>2022-04-03T08:33:40.000Z</time>
      </trkpt>
      <trkpt lat="50.50058" lon="3.43683">
        <ele>21.4</ele>
        <time>2022-04-03T08:33:42.071Z</time>
      </trkpt>
      <trkpt lat="50.50053" lon="3.4369">
        <ele>21.3</ele>
        <time>2022-04-03T08:33:44.000Z</time>
      </trkpt>
      <trkpt lat="50.50048" lon="3.43696">
        <ele>21.6</ele>
        <time>2022-04-03T08:33:46.000Z</time>
      </trkpt>
      <trkpt lat="50.50043" lon="3.43703">
        <ele>21.9</ele>
        <time>2022-04-03T08:33:48.000Z</time>
      </trkpt>
      <trkpt lat="50.50038" lon="3.43711">
        <ele>22.1</ele>
        <time>2022-04-03T08:33:50.013Z</time>
      </trkpt>
      <trkpt lat="50.50033" lon="3.43717">
        <ele>22.1</ele>
        <time>2022-04-03T08:33:52.000Z</time>
      </trkpt>
      <trkpt lat="50.50028" lon="3.43723">
        <ele>22</ele>
        <time>2022-04-03T08:33:54.000Z</time>
      </trkpt>
      <trkpt lat="50.50024" lon="3.4373">
        <ele>22.2</ele>
        <time>2022-04-03T08:33:56.000Z</time>
      </trkpt>
      <trkpt lat="50.5002" lon="3.43736">
        <ele>22.4</ele>
        <time>2022-04-03T08:33:58.000Z</time>
      </trkpt>
      <trkpt lat="50.50015" lon="3.43743">
        <ele>22.6</ele>
        <time>2022-04-03T08:34:00.000Z</time>
      </trkpt>
      <trkpt lat="50.50011" lon="3.43749">
        <ele>22.6</ele>
        <time>2022-04-03T08:34:02.000Z</time>
      </trkpt>
      <trkpt lat="50.50006" lon="3.43756">
        <ele>22.6</ele>
        <time>2022-04-03T08:34:04.000Z</time>
      </trkpt>
      <trkpt lat="50.50001" lon="3.43763">
        <ele>22.5</ele>
        <time>2022-04-03T08:34:06.000Z</time>
      </trkpt>
      <trkpt lat="50.49996" lon="3.4377">
        <ele>22.6</ele>
        <time>2022-04-03T08:34:08.000Z</time>
      </trkpt>
      <trkpt lat="50.4999" lon="3.43776">
        <ele>22.8</ele>
        <time>2022-04-03T08:34:09.957Z</time>
      </trkpt>
      <trkpt lat="50.49983" lon="3.43788">
        <ele>22.8</ele>
        <time>2022-04-03T08:34:13.000Z</time>
      </trkpt>
      <trkpt lat="50.49978" lon="3.43794">
        <ele>22.7</ele>
        <time>2022-04-03T08:34:15.000Z</time>
      </trkpt>
      <trkpt lat="50.49973" lon="3.43802">
        <ele>22.2</ele>
        <time>2022-04-03T08:34:17.000Z</time>
      </trkpt>
      <trkpt lat="50.49967" lon="3.4381">
        <ele>22.2</ele>
        <time>2022-04-03T08:34:19.000Z</time>
      </trkpt>
      <trkpt lat="50.49961" lon="3.43818">
        <ele>22.4</ele>
        <time>2022-04-03T08:34:21.000Z</time>
      </trkpt>
      <trkpt lat="50.49956" lon="3.43826">
        <ele>22.4</ele>
        <time>2022-04-03T08:34:23.000Z</time>
      </trkpt>
      <trkpt lat="50.49951" lon="3.43833">
        <ele>22.5</ele>
        <time>2022-04-03T08:34:25.000Z</time>
      </trkpt>
      <trkpt lat="50.49945" lon="3.43842">
        <ele>22.3</ele>
        <time>2022-04-03T08:34:27.000Z</time>
      </trkpt>
      <trkpt lat="50.4994" lon="3.43851">
        <ele>21.9</ele>
        <time>2022-04-03T08:34:29.000Z</time>
      </trkpt>
      <trkpt lat="50.49934" lon="3.4386">
        <ele>21.8</ele>
        <time>2022-04-03T08:34:31.000Z</time>
      </trkpt>
      <trkpt lat="50.49931" lon="3.43867">
        <ele>21.9</ele>
        <time>2022-04-03T08:34:32.395Z</time>
      </trkpt>
      <trkpt lat="50.49927" lon="3.43875">
        <ele>21.9</ele>
        <time>2022-04-03T08:34:34.000Z</time>
      </trkpt>
      <trkpt lat="50.49921" lon="3.43885">
        <ele>22</ele>
        <time>2022-04-03T08:34:36.000Z</time>
      </trkpt>
      <trkpt lat="50.49916" lon="3.43893">
        <ele>21.9</ele>
        <time>2022-04-03T08:34:38.000Z</time>
      </trkpt>
      <trkpt lat="50.49911" lon="3.43902">
        <ele>21.7</ele>
        <time>2022-04-03T08:34:40.000Z</time>
      </trkpt>
      <trkpt lat="50.49906" lon="3.4391">
        <ele>21.6</ele>
        <time>2022-04-03T08:34:42.000Z</time>
      </trkpt>
      <trkpt lat="50.49901" lon="3.43919">
        <ele>21.5</ele>
        <time>2022-04-03T08:34:44.000Z</time>
      </trkpt>
      <trkpt lat="50.49894" lon="3.43927">
        <ele>21.5</ele>
        <time>2022-04-03T08:34:45.993Z</time>
      </trkpt>
      <trkpt lat="50.49888" lon="3.43936">
        <ele>21.3</ele>
        <time>2022-04-03T08:34:48.073Z</time>
      </trkpt>
      <trkpt lat="50.49882" lon="3.43943">
        <ele>21.3</ele>
        <time>2022-04-03T08:34:49.876Z</time>
      </trkpt>
      <trkpt lat="50.49875" lon="3.43951">
        <ele>21.4</ele>
        <time>2022-04-03T08:34:52.000Z</time>
      </trkpt>
      <trkpt lat="50.49868" lon="3.43958">
        <ele>21.4</ele>
        <time>2022-04-03T08:34:54.000Z</time>
      </trkpt>
      <trkpt lat="50.49864" lon="3.43961">
        <ele>21.4</ele>
        <time>2022-04-03T08:34:55.000Z</time>
      </trkpt>
      <trkpt lat="50.49856" lon="3.43968">
        <ele>21.3</ele>
        <time>2022-04-03T08:34:57.000Z</time>
      </trkpt>
      <trkpt lat="50.49851" lon="3.43972">
        <ele>21.4</ele>
        <time>2022-04-03T08:34:58.088Z</time>
      </trkpt>
      <trkpt lat="50.49842" lon="3.43981">
        <ele>21.5</ele>
        <time>2022-04-03T08:35:00.000Z</time>
      </trkpt>
      <trkpt lat="50.49838" lon="3.43985">
        <ele>21.4</ele>
        <time>2022-04-03T08:35:01.000Z</time>
      </trkpt>
      <trkpt lat="50.49834" lon="3.43989">
        <ele>21.4</ele>
        <time>2022-04-03T08:35:02.000Z</time>
      </trkpt>
      <trkpt lat="50.49829" lon="3.43992">
        <ele>21.4</ele>
        <time>2022-04-03T08:35:03.000Z</time>
      </trkpt>
      <trkpt lat="50.49824" lon="3.43995">
        <ele>21.5</ele>
        <time>2022-04-03T08:35:04.000Z</time>
      </trkpt>
      <trkpt lat="50.4982" lon="3.43997">
        <ele>21.6</ele>
        <time>2022-04-03T08:35:05.000Z</time>
      </trkpt>
      <trkpt lat="50.49815" lon="3.44">
        <ele>21.7</ele>
        <time>2022-04-03T08:35:06.000Z</time>
      </trkpt>
      <trkpt lat="50.49811" lon="3.44003">
        <ele>21.8</ele>
        <time>2022-04-03T08:35:07.000Z</time>
      </trkpt>
      <trkpt lat="50.49806" lon="3.44005">
        <ele>22</ele>
        <time>2022-04-03T08:35:08.000Z</time>
      </trkpt>
      <trkpt lat="50.49802" lon="3.44007">
        <ele>22.1</ele>
        <time>2022-04-03T08:35:09.000Z</time>
      </trkpt>
      <trkpt lat="50.49793" lon="3.44012">
        <ele>22.3</ele>
        <time>2022-04-03T08:35:11.000Z</time>
      </trkpt>
      <trkpt lat="50.49782" lon="3.44016">
        <ele>22.4</ele>
        <time>2022-04-03T08:35:14.000Z</time>
      </trkpt>
      <trkpt lat="50.49774" lon="3.44022">
        <ele>22.3</ele>
        <time>2022-04-03T08:35:16.000Z</time>
      </trkpt>
      <trkpt lat="50.49768" lon="3.4403">
        <ele>22.3</ele>
        <time>2022-04-03T08:35:18.000Z</time>
      </trkpt>
      <trkpt lat="50.49761" lon="3.44039">
        <ele>22.2</ele>
        <time>2022-04-03T08:35:20.000Z</time>
      </trkpt>
      <trkpt lat="50.49756" lon="3.44044">
        <ele>22.2</ele>
        <time>2022-04-03T08:35:21.401Z</time>
      </trkpt>
      <trkpt lat="50.49753" lon="3.44048">
        <ele>22.2</ele>
        <time>2022-04-03T08:35:22.480Z</time>
      </trkpt>
      <trkpt lat="50.49745" lon="3.44056">
        <ele>22.2</ele>
        <time>2022-04-03T08:35:24.000Z</time>
      </trkpt>
      <trkpt lat="50.49741" lon="3.4406">
        <ele>22.3</ele>
        <time>2022-04-03T08:35:25.000Z</time>
      </trkpt>
      <trkpt lat="50.49737" lon="3.44065">
        <ele>22.3</ele>
        <time>2022-04-03T08:35:26.000Z</time>
      </trkpt>
      <trkpt lat="50.49733" lon="3.4407">
        <ele>22.3</ele>
        <time>2022-04-03T08:35:27.000Z</time>
      </trkpt>
      <trkpt lat="50.49729" lon="3.44075">
        <ele>22.2</ele>
        <time>2022-04-03T08:35:28.000Z</time>
      </trkpt>
      <trkpt lat="50.49725" lon="3.4408">
        <ele>22.1</ele>
        <time>2022-04-03T08:35:29.000Z</time>
      </trkpt>
      <trkpt lat="50.49721" lon="3.44086">
        <ele>21.9</ele>
        <time>2022-04-03T08:35:30.000Z</time>
      </trkpt>
      <trkpt lat="50.49716" lon="3.44091">
        <ele>21.9</ele>
        <time>2022-04-03T08:35:31.000Z</time>
      </trkpt>
      <trkpt lat="50.49712" lon="3.44096">
        <ele>21.9</ele>
        <time>2022-04-03T08:35:32.000Z</time>
      </trkpt>
      <trkpt lat="50.49708" lon="3.44102">
        <ele>21.8</ele>
        <time>2022-04-03T08:35:33.000Z</time>
      </trkpt>
      <trkpt lat="50.49703" lon="3.44107">
        <ele>21.8</ele>
        <time>2022-04-03T08:35:34.000Z</time>
      </trkpt>
      <trkpt lat="50.49699" lon="3.44112">
        <ele>21.8</ele>
        <time>2022-04-03T08:35:35.000Z</time>
      </trkpt>
      <trkpt lat="50.49694" lon="3.44117">
        <ele>22</ele>
        <time>2022-04-03T08:35:36.000Z</time>
      </trkpt>
      <trkpt lat="50.4969" lon="3.44122">
        <ele>22.1</ele>
        <time>2022-04-03T08:35:37.000Z</time>
      </trkpt>
      <trkpt lat="50.49686" lon="3.44127">
        <ele>22.1</ele>
        <time>2022-04-03T08:35:38.000Z</time>
      </trkpt>
      <trkpt lat="50.49682" lon="3.44133">
        <ele>22.1</ele>
        <time>2022-04-03T08:35:39.000Z</time>
      </trkpt>
      <trkpt lat="50.49678" lon="3.44139">
        <ele>22</ele>
        <time>2022-04-03T08:35:40.000Z</time>
      </trkpt>
      <trkpt lat="50.49674" lon="3.44145">
        <ele>21.9</ele>
        <time>2022-04-03T08:35:41.000Z</time>
      </trkpt>
      <trkpt lat="50.4967" lon="3.44152">
        <ele>21.9</ele>
        <time>2022-04-03T08:35:42.000Z</time>
      </trkpt>
      <trkpt lat="50.49667" lon="3.44158">
        <ele>22</ele>
        <time>2022-04-03T08:35:43.000Z</time>
      </trkpt>
      <trkpt lat="50.49663" lon="3.44165">
        <ele>22</ele>
        <time>2022-04-03T08:35:44.000Z</time>
      </trkpt>
      <trkpt lat="50.49659" lon="3.44171">
        <ele>21.9</ele>
        <time>2022-04-03T08:35:45.000Z</time>
      </trkpt>
      <trkpt lat="50.49655" lon="3.44178">
        <ele>21.8</ele>
        <time>2022-04-03T08:35:46.000Z</time>
      </trkpt>
      <trkpt lat="50.49652" lon="3.44185">
        <ele>21.7</ele>
        <time>2022-04-03T08:35:47.000Z</time>
      </trkpt>
      <trkpt lat="50.49648" lon="3.44192">
        <ele>21.7</ele>
        <time>2022-04-03T08:35:48.000Z</time>
      </trkpt>
      <trkpt lat="50.49644" lon="3.44199">
        <ele>21.8</ele>
        <time>2022-04-03T08:35:49.000Z</time>
      </trkpt>
      <trkpt lat="50.49641" lon="3.44206">
        <ele>21.9</ele>
        <time>2022-04-03T08:35:50.000Z</time>
      </trkpt>
      <trkpt lat="50.49638" lon="3.44213">
        <ele>22</ele>
        <time>2022-04-03T08:35:51.000Z</time>
      </trkpt>
      <trkpt lat="50.49635" lon="3.4422">
        <ele>22.1</ele>
        <time>2022-04-03T08:35:52.000Z</time>
      </trkpt>
      <trkpt lat="50.49631" lon="3.44227">
        <ele>22.2</ele>
        <time>2022-04-03T08:35:53.000Z</time>
      </trkpt>
      <trkpt lat="50.49627" lon="3.44234">
        <ele>22.2</ele>
        <time>2022-04-03T08:35:54.000Z</time>
      </trkpt>
      <trkpt lat="50.49623" lon="3.44241">
        <ele>22.2</ele>
        <time>2022-04-03T08:35:55.000Z</time>
      </trkpt>
      <trkpt lat="50.49619" lon="3.44248">
        <ele>22.1</ele>
        <time>2022-04-03T08:35:56.000Z</time>
      </trkpt>
      <trkpt lat="50.49616" lon="3.44254">
        <ele>21.9</ele>
        <time>2022-04-03T08:35:57.000Z</time>
      </trkpt>
      <trkpt lat="50.49612" lon="3.44261">
        <ele>21.6</ele>
        <time>2022-04-03T08:35:58.000Z</time>
      </trkpt>
      <trkpt lat="50.4961" lon="3.44268">
        <ele>21.4</ele>
        <time>2022-04-03T08:35:59.000Z</time>
      </trkpt>
      <trkpt lat="50.49607" lon="3.44276">
        <ele>21.2</ele>
        <time>2022-04-03T08:36:00.000Z</time>
      </trkpt>
      <trkpt lat="50.49605" lon="3.44283">
        <ele>21.2</ele>
        <time>2022-04-03T08:36:01.000Z</time>
      </trkpt>
      <trkpt lat="50.49603" lon="3.44291">
        <ele>21.3</ele>
        <time>2022-04-03T08:36:02.000Z</time>
      </trkpt>
      <trkpt lat="50.49601" lon="3.44298">
        <ele>21.4</ele>
        <time>2022-04-03T08:36:03.000Z</time>
      </trkpt>
      <trkpt lat="50.49599" lon="3.44306">
        <ele>21.4</ele>
        <time>2022-04-03T08:36:04.000Z</time>
      </trkpt>
      <trkpt lat="50.49598" lon="3.44313">
        <ele>21.3</ele>
        <time>2022-04-03T08:36:05.000Z</time>
      </trkpt>
      <trkpt lat="50.49599" lon="3.44321">
        <ele>21.2</ele>
        <time>2022-04-03T08:36:06.000Z</time>
      </trkpt>
      <trkpt lat="50.49602" lon="3.44328">
        <ele>21.1</ele>
        <time>2022-04-03T08:36:07.000Z</time>
      </trkpt>
      <trkpt lat="50.49606" lon="3.44334">
        <ele>21</ele>
        <time>2022-04-03T08:36:08.000Z</time>
      </trkpt>
      <trkpt lat="50.4961" lon="3.44338">
        <ele>21</ele>
        <time>2022-04-03T08:36:09.000Z</time>
      </trkpt>
      <trkpt lat="50.49615" lon="3.44342">
        <ele>20.9</ele>
        <time>2022-04-03T08:36:10.000Z</time>
      </trkpt>
      <trkpt lat="50.4962" lon="3.44346">
        <ele>20.7</ele>
        <time>2022-04-03T08:36:11.000Z</time>
      </trkpt>
      <trkpt lat="50.49624" lon="3.4435">
        <ele>20.5</ele>
        <time>2022-04-03T08:36:12.000Z</time>
      </trkpt>
      <trkpt lat="50.49628" lon="3.44354">
        <ele>20.4</ele>
        <time>2022-04-03T08:36:13.000Z</time>
      </trkpt>
      <trkpt lat="50.49633" lon="3.44358">
        <ele>20.2</ele>
        <time>2022-04-03T08:36:14.000Z</time>
      </trkpt>
      <trkpt lat="50.49638" lon="3.44363">
        <ele>20</ele>
        <time>2022-04-03T08:36:15.000Z</time>
      </trkpt>
      <trkpt lat="50.49642" lon="3.44367">
        <ele>19.9</ele>
        <time>2022-04-03T08:36:16.000Z</time>
      </trkpt>
      <trkpt lat="50.49647" lon="3.44371">
        <ele>19.8</ele>
        <time>2022-04-03T08:36:17.000Z</time>
      </trkpt>
      <trkpt lat="50.49651" lon="3.44376">
        <ele>19.8</ele>
        <time>2022-04-03T08:36:18.000Z</time>
      </trkpt>
      <trkpt lat="50.49655" lon="3.44381">
        <ele>19.8</ele>
        <time>2022-04-03T08:36:19.000Z</time>
      </trkpt>
      <trkpt lat="50.49659" lon="3.44388">
        <ele>20</ele>
        <time>2022-04-03T08:36:21.000Z</time>
      </trkpt>
      <trkpt lat="50.49658" lon="3.44395">
        <ele>19.8</ele>
        <time>2022-04-03T08:36:25.000Z</time>
      </trkpt>
      <trkpt lat="50.49662" lon="3.444">
        <ele>19.6</ele>
        <time>2022-04-03T08:36:28.000Z</time>
      </trkpt>
      <trkpt lat="50.49668" lon="3.44403">
        <ele>19.5</ele>
        <time>2022-04-03T08:36:33.000Z</time>
      </trkpt>
      <trkpt lat="50.49672" lon="3.44406">
        <ele>19.3</ele>
        <time>2022-04-03T08:36:36.000Z</time>
      </trkpt>
      <trkpt lat="50.49675" lon="3.4441">
        <ele>19.2</ele>
        <time>2022-04-03T08:36:39.000Z</time>
      </trkpt>
      <trkpt lat="50.49679" lon="3.44416">
        <ele>19</ele>
        <time>2022-04-03T08:36:42.000Z</time>
      </trkpt>
      <trkpt lat="50.49682" lon="3.44409">
        <ele>19.1</ele>
        <time>2022-04-03T08:36:45.000Z</time>
      </trkpt>
      <trkpt lat="50.49682" lon="3.44397">
        <ele>19.3</ele>
        <time>2022-04-03T08:36:47.000Z</time>
      </trkpt>
      <trkpt lat="50.49686" lon="3.44387">
        <ele>19.3</ele>
        <time>2022-04-03T08:36:49.000Z</time>
      </trkpt>
      <trkpt lat="50.49691" lon="3.44379">
        <ele>19.4</ele>
        <time>2022-04-03T08:36:51.000Z</time>
      </trkpt>
      <trkpt lat="50.49696" lon="3.44374">
        <ele>19.5</ele>
        <time>2022-04-03T08:36:53.000Z</time>
      </trkpt>
      <trkpt lat="50.49701" lon="3.44367">
        <ele>19.8</ele>
        <time>2022-04-03T08:36:55.000Z</time>
      </trkpt>
      <trkpt lat="50.49705" lon="3.4436">
        <ele>20</ele>
        <time>2022-04-03T08:36:57.000Z</time>
      </trkpt>
      <trkpt lat="50.49708" lon="3.44354">
        <ele>20</ele>
        <time>2022-04-03T08:36:59.000Z</time>
      </trkpt>
      <trkpt lat="50.49712" lon="3.44347">
        <ele>20</ele>
        <time>2022-04-03T08:37:01.000Z</time>
      </trkpt>
      <trkpt lat="50.49716" lon="3.44342">
        <ele>20</ele>
        <time>2022-04-03T08:37:03.000Z</time>
      </trkpt>
      <trkpt lat="50.49721" lon="3.44337">
        <ele>20</ele>
        <time>2022-04-03T08:37:05.000Z</time>
      </trkpt>
      <trkpt lat="50.49726" lon="3.44332">
        <ele>19.9</ele>
        <time>2022-04-03T08:37:07.000Z</time>
      </trkpt>
      <trkpt lat="50.4973" lon="3.44325">
        <ele>19.8</ele>
        <time>2022-04-03T08:37:09.000Z</time>
      </trkpt>
      <trkpt lat="50.49731" lon="3.44317">
        <ele>19.9</ele>
        <time>2022-04-03T08:37:11.000Z</time>
      </trkpt>
      <trkpt lat="50.49724" lon="3.4432">
        <ele>20</ele>
        <time>2022-04-03T08:37:13.000Z</time>
      </trkpt>
      <trkpt lat="50.4972" lon="3.44329">
        <ele>20</ele>
        <time>2022-04-03T08:37:15.000Z</time>
      </trkpt>
      <trkpt lat="50.49716" lon="3.44338">
        <ele>20</ele>
        <time>2022-04-03T08:37:16.990Z</time>
      </trkpt>
      <trkpt lat="50.4971" lon="3.44346">
        <ele>20</ele>
        <time>2022-04-03T08:37:19.000Z</time>
      </trkpt>
      <trkpt lat="50.49705" lon="3.44354">
        <ele>20</ele>
        <time>2022-04-03T08:37:21.000Z</time>
      </trkpt>
      <trkpt lat="50.49699" lon="3.44362">
        <ele>20</ele>
        <time>2022-04-03T08:37:22.870Z</time>
      </trkpt>
      <trkpt lat="50.49693" lon="3.44371">
        <ele>19.6</ele>
        <time>2022-04-03T08:37:25.000Z</time>
      </trkpt>
      <trkpt lat="50.49686" lon="3.4438">
        <ele>19.4</ele>
        <time>2022-04-03T08:37:26.931Z</time>
      </trkpt>
      <trkpt lat="50.49681" lon="3.44384">
        <ele>19.5</ele>
        <time>2022-04-03T08:37:28.000Z</time>
      </trkpt>
      <trkpt lat="50.49678" lon="3.44389">
        <ele>19.6</ele>
        <time>2022-04-03T08:37:29.000Z</time>
      </trkpt>
      <trkpt lat="50.49667" lon="3.44394">
        <ele>19.8</ele>
        <time>2022-04-03T08:37:32.000Z</time>
      </trkpt>
      <trkpt lat="50.49659" lon="3.44393">
        <ele>19.9</ele>
        <time>2022-04-03T08:37:34.000Z</time>
      </trkpt>
      <trkpt lat="50.49652" lon="3.44396">
        <ele>19.7</ele>
        <time>2022-04-03T08:37:35.906Z</time>
      </trkpt>
      <trkpt lat="50.49645" lon="3.44403">
        <ele>19.5</ele>
        <time>2022-04-03T08:37:37.929Z</time>
      </trkpt>
      <trkpt lat="50.49638" lon="3.44411">
        <ele>19.2</ele>
        <time>2022-04-03T08:37:39.967Z</time>
      </trkpt>
      <trkpt lat="50.49634" lon="3.44417">
        <ele>19.2</ele>
        <time>2022-04-03T08:37:41.288Z</time>
      </trkpt>
      <trkpt lat="50.49629" lon="3.44424">
        <ele>19.5</ele>
        <time>2022-04-03T08:37:43.013Z</time>
      </trkpt>
      <trkpt lat="50.49621" lon="3.44432">
        <ele>19.8</ele>
        <time>2022-04-03T08:37:45.000Z</time>
      </trkpt>
      <trkpt lat="50.49614" lon="3.44441">
        <ele>20</ele>
        <time>2022-04-03T08:37:47.000Z</time>
      </trkpt>
      <trkpt lat="50.49608" lon="3.44448">
        <ele>20.1</ele>
        <time>2022-04-03T08:37:49.000Z</time>
      </trkpt>
      <trkpt lat="50.49602" lon="3.44456">
        <ele>20.2</ele>
        <time>2022-04-03T08:37:51.000Z</time>
      </trkpt>
      <trkpt lat="50.49596" lon="3.44464">
        <ele>20.2</ele>
        <time>2022-04-03T08:37:52.970Z</time>
      </trkpt>
      <trkpt lat="50.49589" lon="3.44471">
        <ele>20</ele>
        <time>2022-04-03T08:37:55.000Z</time>
      </trkpt>
      <trkpt lat="50.49583" lon="3.44478">
        <ele>20</ele>
        <time>2022-04-03T08:37:56.930Z</time>
      </trkpt>
      <trkpt lat="50.49579" lon="3.44481">
        <ele>20.1</ele>
        <time>2022-04-03T08:37:58.288Z</time>
      </trkpt>
      <trkpt lat="50.49575" lon="3.44486">
        <ele>20.2</ele>
        <time>2022-04-03T08:37:59.649Z</time>
      </trkpt>
      <trkpt lat="50.4957" lon="3.44491">
        <ele>20.2</ele>
        <time>2022-04-03T08:38:01.000Z</time>
      </trkpt>
      <trkpt lat="50.49564" lon="3.44498">
        <ele>20.1</ele>
        <time>2022-04-03T08:38:02.930Z</time>
      </trkpt>
      <trkpt lat="50.49558" lon="3.44505">
        <ele>20</ele>
        <time>2022-04-03T08:38:05.000Z</time>
      </trkpt>
      <trkpt lat="50.49554" lon="3.44508">
        <ele>20</ele>
        <time>2022-04-03T08:38:06.000Z</time>
      </trkpt>
      <trkpt lat="50.49549" lon="3.44513">
        <ele>20.1</ele>
        <time>2022-04-03T08:38:07.351Z</time>
      </trkpt>
      <trkpt lat="50.49544" lon="3.44519">
        <ele>20.1</ele>
        <time>2022-04-03T08:38:08.791Z</time>
      </trkpt>
      <trkpt lat="50.49539" lon="3.44523">
        <ele>20.1</ele>
        <time>2022-04-03T08:38:10.000Z</time>
      </trkpt>
      <trkpt lat="50.49531" lon="3.44529">
        <ele>20</ele>
        <time>2022-04-03T08:38:12.000Z</time>
      </trkpt>
      <trkpt lat="50.49527" lon="3.44532">
        <ele>20</ele>
        <time>2022-04-03T08:38:13.000Z</time>
      </trkpt>
      <trkpt lat="50.49523" lon="3.44535">
        <ele>19.8</ele>
        <time>2022-04-03T08:38:14.000Z</time>
      </trkpt>
      <trkpt lat="50.49512" lon="3.44543">
        <ele>19.4</ele>
        <time>2022-04-03T08:38:16.811Z</time>
      </trkpt>
      <trkpt lat="50.49507" lon="3.44546">
        <ele>19.3</ele>
        <time>2022-04-03T08:38:17.948Z</time>
      </trkpt>
      <trkpt lat="50.49499" lon="3.44552">
        <ele>19</ele>
        <time>2022-04-03T08:38:20.000Z</time>
      </trkpt>
      <trkpt lat="50.49495" lon="3.44555">
        <ele>19</ele>
        <time>2022-04-03T08:38:21.013Z</time>
      </trkpt>
      <trkpt lat="50.49487" lon="3.44561">
        <ele>18.9</ele>
        <time>2022-04-03T08:38:23.000Z</time>
      </trkpt>
      <trkpt lat="50.49477" lon="3.44569">
        <ele>18.9</ele>
        <time>2022-04-03T08:38:25.647Z</time>
      </trkpt>
      <trkpt lat="50.49474" lon="3.44574">
        <ele>19</ele>
        <time>2022-04-03T08:38:26.729Z</time>
      </trkpt>
      <trkpt lat="50.4947" lon="3.44579">
        <ele>19</ele>
        <time>2022-04-03T08:38:27.852Z</time>
      </trkpt>
      <trkpt lat="50.49467" lon="3.44584">
        <ele>19</ele>
        <time>2022-04-03T08:38:29.000Z</time>
      </trkpt>
      <trkpt lat="50.49464" lon="3.4459">
        <ele>18.8</ele>
        <time>2022-04-03T08:38:30.070Z</time>
      </trkpt>
      <trkpt lat="50.4946" lon="3.44595">
        <ele>18.8</ele>
        <time>2022-04-03T08:38:31.009Z</time>
      </trkpt>
      <trkpt lat="50.49457" lon="3.44602">
        <ele>18.7</ele>
        <time>2022-04-03T08:38:32.000Z</time>
      </trkpt>
      <trkpt lat="50.49453" lon="3.44607">
        <ele>18.7</ele>
        <time>2022-04-03T08:38:33.000Z</time>
      </trkpt>
      <trkpt lat="50.4945" lon="3.44613">
        <ele>18.7</ele>
        <time>2022-04-03T08:38:34.000Z</time>
      </trkpt>
      <trkpt lat="50.49447" lon="3.44618">
        <ele>18.7</ele>
        <time>2022-04-03T08:38:35.000Z</time>
      </trkpt>
      <trkpt lat="50.49443" lon="3.44624">
        <ele>18.5</ele>
        <time>2022-04-03T08:38:36.000Z</time>
      </trkpt>
      <trkpt lat="50.49439" lon="3.4463">
        <ele>18.3</ele>
        <time>2022-04-03T08:38:37.000Z</time>
      </trkpt>
      <trkpt lat="50.49436" lon="3.44635">
        <ele>18.1</ele>
        <time>2022-04-03T08:38:38.000Z</time>
      </trkpt>
      <trkpt lat="50.49433" lon="3.44641">
        <ele>18</ele>
        <time>2022-04-03T08:38:39.000Z</time>
      </trkpt>
      <trkpt lat="50.49429" lon="3.44647">
        <ele>18</ele>
        <time>2022-04-03T08:38:40.000Z</time>
      </trkpt>
      <trkpt lat="50.49425" lon="3.44653">
        <ele>18</ele>
        <time>2022-04-03T08:38:41.000Z</time>
      </trkpt>
      <trkpt lat="50.49421" lon="3.44659">
        <ele>18</ele>
        <time>2022-04-03T08:38:42.000Z</time>
      </trkpt>
      <trkpt lat="50.49417" lon="3.44665">
        <ele>18</ele>
        <time>2022-04-03T08:38:43.000Z</time>
      </trkpt>
      <trkpt lat="50.49413" lon="3.44671">
        <ele>17.9</ele>
        <time>2022-04-03T08:38:44.000Z</time>
      </trkpt>
      <trkpt lat="50.49409" lon="3.44678">
        <ele>17.7</ele>
        <time>2022-04-03T08:38:45.000Z</time>
      </trkpt>
      <trkpt lat="50.49405" lon="3.44684">
        <ele>17.6</ele>
        <time>2022-04-03T08:38:46.000Z</time>
      </trkpt>
      <trkpt lat="50.49401" lon="3.44691">
        <ele>17.6</ele>
        <time>2022-04-03T08:38:47.000Z</time>
      </trkpt>
      <trkpt lat="50.49397" lon="3.44697">
        <ele>17.6</ele>
        <time>2022-04-03T08:38:48.000Z</time>
      </trkpt>
      <trkpt lat="50.49393" lon="3.44703">
        <ele>17.6</ele>
        <time>2022-04-03T08:38:49.000Z</time>
      </trkpt>
      <trkpt lat="50.49388" lon="3.4471">
        <ele>17.4</ele>
        <time>2022-04-03T08:38:50.000Z</time>
      </trkpt>
      <trkpt lat="50.49384" lon="3.44716">
        <ele>17.2</ele>
        <time>2022-04-03T08:38:51.000Z</time>
      </trkpt>
      <trkpt lat="50.4938" lon="3.44722">
        <ele>17</ele>
        <time>2022-04-03T08:38:52.000Z</time>
      </trkpt>
      <trkpt lat="50.49376" lon="3.44729">
        <ele>17</ele>
        <time>2022-04-03T08:38:53.000Z</time>
      </trkpt>
      <trkpt lat="50.49372" lon="3.44735">
        <ele>17</ele>
        <time>2022-04-03T08:38:54.000Z</time>
      </trkpt>
      <trkpt lat="50.49368" lon="3.4474">
        <ele>17</ele>
        <time>2022-04-03T08:38:55.000Z</time>
      </trkpt>
      <trkpt lat="50.49364" lon="3.44747">
        <ele>17</ele>
        <time>2022-04-03T08:38:56.000Z</time>
      </trkpt>
      <trkpt lat="50.4936" lon="3.44753">
        <ele>17</ele>
        <time>2022-04-03T08:38:57.000Z</time>
      </trkpt>
      <trkpt lat="50.49356" lon="3.44759">
        <ele>17.2</ele>
        <time>2022-04-03T08:38:58.000Z</time>
      </trkpt>
      <trkpt lat="50.49352" lon="3.44765">
        <ele>17.3</ele>
        <time>2022-04-03T08:38:59.000Z</time>
      </trkpt>
      <trkpt lat="50.49348" lon="3.44771">
        <ele>17.5</ele>
        <time>2022-04-03T08:39:00.000Z</time>
      </trkpt>
      <trkpt lat="50.49344" lon="3.44777">
        <ele>17.6</ele>
        <time>2022-04-03T08:39:01.000Z</time>
      </trkpt>
      <trkpt lat="50.4934" lon="3.44783">
        <ele>17.6</ele>
        <time>2022-04-03T08:39:02.000Z</time>
      </trkpt>
      <trkpt lat="50.49336" lon="3.4479">
        <ele>17.5</ele>
        <time>2022-04-03T08:39:03.000Z</time>
      </trkpt>
      <trkpt lat="50.49332" lon="3.44796">
        <ele>17.4</ele>
        <time>2022-04-03T08:39:04.000Z</time>
      </trkpt>
      <trkpt lat="50.49328" lon="3.44802">
        <ele>17.3</ele>
        <time>2022-04-03T08:39:05.000Z</time>
      </trkpt>
      <trkpt lat="50.49325" lon="3.44807">
        <ele>17.3</ele>
        <time>2022-04-03T08:39:06.000Z</time>
      </trkpt>
      <trkpt lat="50.49319" lon="3.44817">
        <ele>17.3</ele>
        <time>2022-04-03T08:39:08.000Z</time>
      </trkpt>
      <trkpt lat="50.49316" lon="3.44822">
        <ele>17.3</ele>
        <time>2022-04-03T08:39:09.000Z</time>
      </trkpt>
      <trkpt lat="50.4931" lon="3.44832">
        <ele>17</ele>
        <time>2022-04-03T08:39:11.000Z</time>
      </trkpt>
      <trkpt lat="50.49307" lon="3.44837">
        <ele>17</ele>
        <time>2022-04-03T08:39:12.000Z</time>
      </trkpt>
      <trkpt lat="50.49301" lon="3.44847">
        <ele>17.2</ele>
        <time>2022-04-03T08:39:14.000Z</time>
      </trkpt>
      <trkpt lat="50.49297" lon="3.44852">
        <ele>17.3</ele>
        <time>2022-04-03T08:39:15.000Z</time>
      </trkpt>
      <trkpt lat="50.49294" lon="3.44857">
        <ele>17.4</ele>
        <time>2022-04-03T08:39:16.000Z</time>
      </trkpt>
      <trkpt lat="50.49291" lon="3.44862">
        <ele>17.5</ele>
        <time>2022-04-03T08:39:17.000Z</time>
      </trkpt>
      <trkpt lat="50.49287" lon="3.44867">
        <ele>17.5</ele>
        <time>2022-04-03T08:39:18.000Z</time>
      </trkpt>
      <trkpt lat="50.49283" lon="3.44873">
        <ele>17.5</ele>
        <time>2022-04-03T08:39:19.000Z</time>
      </trkpt>
      <trkpt lat="50.4928" lon="3.44878">
        <ele>17.4</ele>
        <time>2022-04-03T08:39:20.000Z</time>
      </trkpt>
      <trkpt lat="50.49276" lon="3.44884">
        <ele>17.2</ele>
        <time>2022-04-03T08:39:21.000Z</time>
      </trkpt>
      <trkpt lat="50.49273" lon="3.44889">
        <ele>17.2</ele>
        <time>2022-04-03T08:39:22.000Z</time>
      </trkpt>
      <trkpt lat="50.49269" lon="3.44894">
        <ele>17.3</ele>
        <time>2022-04-03T08:39:23.000Z</time>
      </trkpt>
      <trkpt lat="50.49266" lon="3.44899">
        <ele>17.3</ele>
        <time>2022-04-03T08:39:24.000Z</time>
      </trkpt>
      <trkpt lat="50.49263" lon="3.44905">
        <ele>17.2</ele>
        <time>2022-04-03T08:39:25.000Z</time>
      </trkpt>
      <trkpt lat="50.49257" lon="3.44914">
        <ele>17.1</ele>
        <time>2022-04-03T08:39:27.000Z</time>
      </trkpt>
      <trkpt lat="50.49251" lon="3.44923">
        <ele>17</ele>
        <time>2022-04-03T08:39:29.000Z</time>
      </trkpt>
      <trkpt lat="50.49245" lon="3.44933">
        <ele>17.1</ele>
        <time>2022-04-03T08:39:31.000Z</time>
      </trkpt>
      <trkpt lat="50.49241" lon="3.44939">
        <ele>17.1</ele>
        <time>2022-04-03T08:39:32.000Z</time>
      </trkpt>
      <trkpt lat="50.49238" lon="3.44944">
        <ele>17</ele>
        <time>2022-04-03T08:39:33.000Z</time>
      </trkpt>
      <trkpt lat="50.49235" lon="3.44949">
        <ele>17</ele>
        <time>2022-04-03T08:39:34.000Z</time>
      </trkpt>
      <trkpt lat="50.49228" lon="3.44959">
        <ele>17</ele>
        <time>2022-04-03T08:39:36.000Z</time>
      </trkpt>
      <trkpt lat="50.49222" lon="3.44969">
        <ele>17</ele>
        <time>2022-04-03T08:39:38.000Z</time>
      </trkpt>
      <trkpt lat="50.49219" lon="3.44974">
        <ele>17</ele>
        <time>2022-04-03T08:39:39.000Z</time>
      </trkpt>
      <trkpt lat="50.49215" lon="3.44979">
        <ele>17</ele>
        <time>2022-04-03T08:39:40.000Z</time>
      </trkpt>
      <trkpt lat="50.49212" lon="3.44985">
        <ele>17</ele>
        <time>2022-04-03T08:39:41.000Z</time>
      </trkpt>
      <trkpt lat="50.49208" lon="3.4499">
        <ele>17</ele>
        <time>2022-04-03T08:39:42.000Z</time>
      </trkpt>
      <trkpt lat="50.49204" lon="3.44995">
        <ele>17</ele>
        <time>2022-04-03T08:39:43.000Z</time>
      </trkpt>
      <trkpt lat="50.49201" lon="3.45001">
        <ele>17</ele>
        <time>2022-04-03T08:39:44.000Z</time>
      </trkpt>
      <trkpt lat="50.49197" lon="3.45006">
        <ele>17</ele>
        <time>2022-04-03T08:39:45.000Z</time>
      </trkpt>
      <trkpt lat="50.49194" lon="3.45011">
        <ele>17</ele>
        <time>2022-04-03T08:39:46.000Z</time>
      </trkpt>
      <trkpt lat="50.4919" lon="3.45017">
        <ele>17.2</ele>
        <time>2022-04-03T08:39:47.000Z</time>
      </trkpt>
      <trkpt lat="50.49187" lon="3.45022">
        <ele>17.3</ele>
        <time>2022-04-03T08:39:48.000Z</time>
      </trkpt>
      <trkpt lat="50.49183" lon="3.45028">
        <ele>17.4</ele>
        <time>2022-04-03T08:39:49.000Z</time>
      </trkpt>
      <trkpt lat="50.4918" lon="3.45033">
        <ele>17.5</ele>
        <time>2022-04-03T08:39:50.000Z</time>
      </trkpt>
      <trkpt lat="50.49176" lon="3.45038">
        <ele>17.7</ele>
        <time>2022-04-03T08:39:51.000Z</time>
      </trkpt>
      <trkpt lat="50.49172" lon="3.45044">
        <ele>17.8</ele>
        <time>2022-04-03T08:39:52.000Z</time>
      </trkpt>
      <trkpt lat="50.49169" lon="3.45049">
        <ele>17.9</ele>
        <time>2022-04-03T08:39:53.000Z</time>
      </trkpt>
      <trkpt lat="50.49165" lon="3.45055">
        <ele>18</ele>
        <time>2022-04-03T08:39:54.000Z</time>
      </trkpt>
      <trkpt lat="50.49161" lon="3.4506">
        <ele>17.9</ele>
        <time>2022-04-03T08:39:55.000Z</time>
      </trkpt>
      <trkpt lat="50.49158" lon="3.45065">
        <ele>17.8</ele>
        <time>2022-04-03T08:39:56.000Z</time>
      </trkpt>
      <trkpt lat="50.49154" lon="3.45071">
        <ele>17.7</ele>
        <time>2022-04-03T08:39:57.000Z</time>
      </trkpt>
      <trkpt lat="50.4915" lon="3.45076">
        <ele>17.7</ele>
        <time>2022-04-03T08:39:58.000Z</time>
      </trkpt>
      <trkpt lat="50.49147" lon="3.4508">
        <ele>17.7</ele>
        <time>2022-04-03T08:39:59.000Z</time>
      </trkpt>
      <trkpt lat="50.49143" lon="3.45085">
        <ele>17.8</ele>
        <time>2022-04-03T08:40:00.000Z</time>
      </trkpt>
      <trkpt lat="50.49139" lon="3.4509">
        <ele>17.8</ele>
        <time>2022-04-03T08:40:01.000Z</time>
      </trkpt>
      <trkpt lat="50.49136" lon="3.45095">
        <ele>17.6</ele>
        <time>2022-04-03T08:40:02.000Z</time>
      </trkpt>
      <trkpt lat="50.49132" lon="3.45099">
        <ele>17.6</ele>
        <time>2022-04-03T08:40:03.000Z</time>
      </trkpt>
      <trkpt lat="50.49128" lon="3.45104">
        <ele>17.5</ele>
        <time>2022-04-03T08:40:04.000Z</time>
      </trkpt>
      <trkpt lat="50.49125" lon="3.4511">
        <ele>17.5</ele>
        <time>2022-04-03T08:40:05.000Z</time>
      </trkpt>
      <trkpt lat="50.49121" lon="3.45115">
        <ele>17.6</ele>
        <time>2022-04-03T08:40:06.000Z</time>
      </trkpt>
      <trkpt lat="50.49115" lon="3.45125">
        <ele>17.4</ele>
        <time>2022-04-03T08:40:08.000Z</time>
      </trkpt>
      <trkpt lat="50.49112" lon="3.4513">
        <ele>17.3</ele>
        <time>2022-04-03T08:40:09.000Z</time>
      </trkpt>
      <trkpt lat="50.49108" lon="3.45136">
        <ele>17.2</ele>
        <time>2022-04-03T08:40:10.000Z</time>
      </trkpt>
      <trkpt lat="50.49105" lon="3.45141">
        <ele>17.2</ele>
        <time>2022-04-03T08:40:11.000Z</time>
      </trkpt>
      <trkpt lat="50.49101" lon="3.45147">
        <ele>17.4</ele>
        <time>2022-04-03T08:40:12.000Z</time>
      </trkpt>
      <trkpt lat="50.49097" lon="3.45152">
        <ele>17.5</ele>
        <time>2022-04-03T08:40:13.000Z</time>
      </trkpt>
      <trkpt lat="50.49094" lon="3.45157">
        <ele>17.6</ele>
        <time>2022-04-03T08:40:14.000Z</time>
      </trkpt>
      <trkpt lat="50.4909" lon="3.45162">
        <ele>17.8</ele>
        <time>2022-04-03T08:40:15.000Z</time>
      </trkpt>
      <trkpt lat="50.49086" lon="3.45167">
        <ele>17.9</ele>
        <time>2022-04-03T08:40:16.000Z</time>
      </trkpt>
      <trkpt lat="50.49083" lon="3.45172">
        <ele>17.8</ele>
        <time>2022-04-03T08:40:17.000Z</time>
      </trkpt>
      <trkpt lat="50.49079" lon="3.45178">
        <ele>17.6</ele>
        <time>2022-04-03T08:40:18.000Z</time>
      </trkpt>
      <trkpt lat="50.49075" lon="3.45184">
        <ele>17.4</ele>
        <time>2022-04-03T08:40:19.000Z</time>
      </trkpt>
      <trkpt lat="50.49072" lon="3.4519">
        <ele>17.2</ele>
        <time>2022-04-03T08:40:20.000Z</time>
      </trkpt>
      <trkpt lat="50.49067" lon="3.45196">
        <ele>17</ele>
        <time>2022-04-03T08:40:21.000Z</time>
      </trkpt>
      <trkpt lat="50.49063" lon="3.45202">
        <ele>17</ele>
        <time>2022-04-03T08:40:22.000Z</time>
      </trkpt>
      <trkpt lat="50.49059" lon="3.45209">
        <ele>17</ele>
        <time>2022-04-03T08:40:23.000Z</time>
      </trkpt>
      <trkpt lat="50.49054" lon="3.45215">
        <ele>17</ele>
        <time>2022-04-03T08:40:24.000Z</time>
      </trkpt>
      <trkpt lat="50.4905" lon="3.45221">
        <ele>17</ele>
        <time>2022-04-03T08:40:25.000Z</time>
      </trkpt>
      <trkpt lat="50.49045" lon="3.45227">
        <ele>17</ele>
        <time>2022-04-03T08:40:26.000Z</time>
      </trkpt>
      <trkpt lat="50.4904" lon="3.45233">
        <ele>17</ele>
        <time>2022-04-03T08:40:27.000Z</time>
      </trkpt>
      <trkpt lat="50.49035" lon="3.4524">
        <ele>17</ele>
        <time>2022-04-03T08:40:28.000Z</time>
      </trkpt>
      <trkpt lat="50.49031" lon="3.45247">
        <ele>17</ele>
        <time>2022-04-03T08:40:29.000Z</time>
      </trkpt>
      <trkpt lat="50.49027" lon="3.45253">
        <ele>17</ele>
        <time>2022-04-03T08:40:30.000Z</time>
      </trkpt>
      <trkpt lat="50.49023" lon="3.4526">
        <ele>17</ele>
        <time>2022-04-03T08:40:31.000Z</time>
      </trkpt>
      <trkpt lat="50.4902" lon="3.45267">
        <ele>17</ele>
        <time>2022-04-03T08:40:32.000Z</time>
      </trkpt>
      <trkpt lat="50.49016" lon="3.45274">
        <ele>17</ele>
        <time>2022-04-03T08:40:33.000Z</time>
      </trkpt>
      <trkpt lat="50.49013" lon="3.45281">
        <ele>17</ele>
        <time>2022-04-03T08:40:34.000Z</time>
      </trkpt>
      <trkpt lat="50.4901" lon="3.45288">
        <ele>17</ele>
        <time>2022-04-03T08:40:35.000Z</time>
      </trkpt>
      <trkpt lat="50.49007" lon="3.45295">
        <ele>17</ele>
        <time>2022-04-03T08:40:36.000Z</time>
      </trkpt>
      <trkpt lat="50.49004" lon="3.45301">
        <ele>17</ele>
        <time>2022-04-03T08:40:37.000Z</time>
      </trkpt>
      <trkpt lat="50.49" lon="3.45307">
        <ele>17</ele>
        <time>2022-04-03T08:40:38.000Z</time>
      </trkpt>
      <trkpt lat="50.48997" lon="3.45313">
        <ele>17</ele>
        <time>2022-04-03T08:40:39.000Z</time>
      </trkpt>
      <trkpt lat="50.48993" lon="3.45318">
        <ele>17</ele>
        <time>2022-04-03T08:40:40.000Z</time>
      </trkpt>
      <trkpt lat="50.4899" lon="3.45324">
        <ele>17</ele>
        <time>2022-04-03T08:40:41.000Z</time>
      </trkpt>
      <trkpt lat="50.48986" lon="3.4533">
        <ele>17</ele>
        <time>2022-04-03T08:40:42.000Z</time>
      </trkpt>
      <trkpt lat="50.48982" lon="3.45335">
        <ele>17</ele>
        <time>2022-04-03T08:40:43.000Z</time>
      </trkpt>
      <trkpt lat="50.48977" lon="3.4534">
        <ele>17</ele>
        <time>2022-04-03T08:40:44.000Z</time>
      </trkpt>
      <trkpt lat="50.48973" lon="3.45345">
        <ele>17</ele>
        <time>2022-04-03T08:40:45.000Z</time>
      </trkpt>
      <trkpt lat="50.48969" lon="3.4535">
        <ele>17</ele>
        <time>2022-04-03T08:40:46.000Z</time>
      </trkpt>
      <trkpt lat="50.48965" lon="3.45355">
        <ele>17</ele>
        <time>2022-04-03T08:40:47.000Z</time>
      </trkpt>
      <trkpt lat="50.48961" lon="3.45359">
        <ele>17</ele>
        <time>2022-04-03T08:40:48.000Z</time>
      </trkpt>
      <trkpt lat="50.48958" lon="3.45364">
        <ele>17</ele>
        <time>2022-04-03T08:40:49.000Z</time>
      </trkpt>
      <trkpt lat="50.48954" lon="3.45369">
        <ele>17</ele>
        <time>2022-04-03T08:40:50.000Z</time>
      </trkpt>
      <trkpt lat="50.4895" lon="3.45373">
        <ele>17</ele>
        <time>2022-04-03T08:40:51.000Z</time>
      </trkpt>
      <trkpt lat="50.48947" lon="3.45378">
        <ele>17</ele>
        <time>2022-04-03T08:40:52.000Z</time>
      </trkpt>
      <trkpt lat="50.48943" lon="3.45382">
        <ele>17</ele>
        <time>2022-04-03T08:40:53.000Z</time>
      </trkpt>
      <trkpt lat="50.48936" lon="3.4539">
        <ele>17</ele>
        <time>2022-04-03T08:40:55.000Z</time>
      </trkpt>
      <trkpt lat="50.4893" lon="3.45397">
        <ele>17</ele>
        <time>2022-04-03T08:40:57.000Z</time>
      </trkpt>
      <trkpt lat="50.48923" lon="3.45404">
        <ele>17</ele>
        <time>2022-04-03T08:40:59.000Z</time>
      </trkpt>
      <trkpt lat="50.48919" lon="3.45408">
        <ele>17</ele>
        <time>2022-04-03T08:41:00.000Z</time>
      </trkpt>
      <trkpt lat="50.48912" lon="3.45417">
        <ele>17</ele>
        <time>2022-04-03T08:41:01.974Z</time>
      </trkpt>
      <trkpt lat="50.48905" lon="3.4542">
        <ele>17</ele>
        <time>2022-04-03T08:41:04.000Z</time>
      </trkpt>
      <trkpt lat="50.48899" lon="3.4543">
        <ele>17</ele>
        <time>2022-04-03T08:41:05.979Z</time>
      </trkpt>
      <trkpt lat="50.48894" lon="3.45438">
        <ele>17</ele>
        <time>2022-04-03T08:41:08.000Z</time>
      </trkpt>
      <trkpt lat="50.48888" lon="3.45446">
        <ele>17</ele>
        <time>2022-04-03T08:41:09.935Z</time>
      </trkpt>
      <trkpt lat="50.48882" lon="3.45454">
        <ele>17</ele>
        <time>2022-04-03T08:41:12.000Z</time>
      </trkpt>
      <trkpt lat="50.48877" lon="3.4546">
        <ele>17</ele>
        <time>2022-04-03T08:41:13.898Z</time>
      </trkpt>
      <trkpt lat="50.4887" lon="3.45468">
        <ele>17</ele>
        <time>2022-04-03T08:41:16.000Z</time>
      </trkpt>
      <trkpt lat="50.48864" lon="3.45475">
        <ele>17</ele>
        <time>2022-04-03T08:41:18.013Z</time>
      </trkpt>
      <trkpt lat="50.48857" lon="3.45482">
        <ele>17</ele>
        <time>2022-04-03T08:41:20.000Z</time>
      </trkpt>
      <trkpt lat="50.48851" lon="3.4549">
        <ele>17</ele>
        <time>2022-04-03T08:41:22.000Z</time>
      </trkpt>
      <trkpt lat="50.48844" lon="3.45497">
        <ele>17</ele>
        <time>2022-04-03T08:41:24.000Z</time>
      </trkpt>
      <trkpt lat="50.48837" lon="3.45504">
        <ele>17</ele>
        <time>2022-04-03T08:41:26.000Z</time>
      </trkpt>
      <trkpt lat="50.48829" lon="3.45511">
        <ele>17</ele>
        <time>2022-04-03T08:41:28.019Z</time>
      </trkpt>
      <trkpt lat="50.48825" lon="3.45515">
        <ele>17</ele>
        <time>2022-04-03T08:41:29.000Z</time>
      </trkpt>
      <trkpt lat="50.48817" lon="3.45524">
        <ele>17</ele>
        <time>2022-04-03T08:41:31.000Z</time>
      </trkpt>
      <trkpt lat="50.48813" lon="3.45528">
        <ele>17</ele>
        <time>2022-04-03T08:41:32.089Z</time>
      </trkpt>
      <trkpt lat="50.48809" lon="3.45532">
        <ele>17</ele>
        <time>2022-04-03T08:41:33.136Z</time>
      </trkpt>
      <trkpt lat="50.48804" lon="3.45536">
        <ele>17</ele>
        <time>2022-04-03T08:41:34.377Z</time>
      </trkpt>
      <trkpt lat="50.48799" lon="3.4554">
        <ele>17</ele>
        <time>2022-04-03T08:41:35.616Z</time>
      </trkpt>
      <trkpt lat="50.48795" lon="3.45544">
        <ele>17</ele>
        <time>2022-04-03T08:41:36.733Z</time>
      </trkpt>
      <trkpt lat="50.4879" lon="3.45549">
        <ele>17</ele>
        <time>2022-04-03T08:41:37.876Z</time>
      </trkpt>
      <trkpt lat="50.48783" lon="3.45554">
        <ele>17</ele>
        <time>2022-04-03T08:41:39.000Z</time>
      </trkpt>
      <trkpt lat="50.48779" lon="3.45558">
        <ele>17</ele>
        <time>2022-04-03T08:41:40.000Z</time>
      </trkpt>
      <trkpt lat="50.48774" lon="3.45561">
        <ele>16.9</ele>
        <time>2022-04-03T08:41:41.000Z</time>
      </trkpt>
      <trkpt lat="50.48769" lon="3.45564">
        <ele>16.8</ele>
        <time>2022-04-03T08:41:42.000Z</time>
      </trkpt>
      <trkpt lat="50.48765" lon="3.45567">
        <ele>16.7</ele>
        <time>2022-04-03T08:41:43.000Z</time>
      </trkpt>
      <trkpt lat="50.4876" lon="3.4557">
        <ele>16.7</ele>
        <time>2022-04-03T08:41:44.000Z</time>
      </trkpt>
      <trkpt lat="50.48755" lon="3.45572">
        <ele>16.7</ele>
        <time>2022-04-03T08:41:45.000Z</time>
      </trkpt>
      <trkpt lat="50.4875" lon="3.45575">
        <ele>16.7</ele>
        <time>2022-04-03T08:41:46.000Z</time>
      </trkpt>
      <trkpt lat="50.48745" lon="3.45577">
        <ele>16.8</ele>
        <time>2022-04-03T08:41:47.000Z</time>
      </trkpt>
      <trkpt lat="50.4874" lon="3.45578">
        <ele>16.8</ele>
        <time>2022-04-03T08:41:48.000Z</time>
      </trkpt>
      <trkpt lat="50.48735" lon="3.4558">
        <ele>16.9</ele>
        <time>2022-04-03T08:41:49.000Z</time>
      </trkpt>
      <trkpt lat="50.48729" lon="3.45581">
        <ele>16.9</ele>
        <time>2022-04-03T08:41:50.000Z</time>
      </trkpt>
      <trkpt lat="50.48724" lon="3.45582">
        <ele>17</ele>
        <time>2022-04-03T08:41:51.000Z</time>
      </trkpt>
      <trkpt lat="50.48719" lon="3.45583">
        <ele>16.9</ele>
        <time>2022-04-03T08:41:52.000Z</time>
      </trkpt>
      <trkpt lat="50.48714" lon="3.45584">
        <ele>16.7</ele>
        <time>2022-04-03T08:41:53.000Z</time>
      </trkpt>
      <trkpt lat="50.48708" lon="3.45584">
        <ele>16.5</ele>
        <time>2022-04-03T08:41:54.000Z</time>
      </trkpt>
      <trkpt lat="50.48703" lon="3.45584">
        <ele>16.3</ele>
        <time>2022-04-03T08:41:55.000Z</time>
      </trkpt>
      <trkpt lat="50.48698" lon="3.45583">
        <ele>16.1</ele>
        <time>2022-04-03T08:41:56.000Z</time>
      </trkpt>
      <trkpt lat="50.48693" lon="3.45583">
        <ele>16</ele>
        <time>2022-04-03T08:41:57.000Z</time>
      </trkpt>
      <trkpt lat="50.48688" lon="3.45583">
        <ele>16.2</ele>
        <time>2022-04-03T08:41:58.000Z</time>
      </trkpt>
      <trkpt lat="50.48683" lon="3.45582">
        <ele>16.4</ele>
        <time>2022-04-03T08:41:59.000Z</time>
      </trkpt>
      <trkpt lat="50.48678" lon="3.45581">
        <ele>16.5</ele>
        <time>2022-04-03T08:42:00.000Z</time>
      </trkpt>
      <trkpt lat="50.48669" lon="3.45578">
        <ele>16.7</ele>
        <time>2022-04-03T08:42:02.000Z</time>
      </trkpt>
      <trkpt lat="50.48665" lon="3.45577">
        <ele>16.7</ele>
        <time>2022-04-03T08:42:03.000Z</time>
      </trkpt>
      <trkpt lat="50.48657" lon="3.45572">
        <ele>16.5</ele>
        <time>2022-04-03T08:42:05.000Z</time>
      </trkpt>
      <trkpt lat="50.48649" lon="3.45568">
        <ele>16.5</ele>
        <time>2022-04-03T08:42:07.000Z</time>
      </trkpt>
      <trkpt lat="50.48642" lon="3.45565">
        <ele>16.6</ele>
        <time>2022-04-03T08:42:09.000Z</time>
      </trkpt>
      <trkpt lat="50.48635" lon="3.45561">
        <ele>16.8</ele>
        <time>2022-04-03T08:42:11.000Z</time>
      </trkpt>
      <trkpt lat="50.48627" lon="3.45558">
        <ele>16.9</ele>
        <time>2022-04-03T08:42:13.000Z</time>
      </trkpt>
      <trkpt lat="50.48619" lon="3.45555">
        <ele>17</ele>
        <time>2022-04-03T08:42:15.000Z</time>
      </trkpt>
      <trkpt lat="50.48609" lon="3.4555">
        <ele>16.9</ele>
        <time>2022-04-03T08:42:17.642Z</time>
      </trkpt>
      <trkpt lat="50.486" lon="3.45548">
        <ele>16.7</ele>
        <time>2022-04-03T08:42:20.023Z</time>
      </trkpt>
      <trkpt lat="50.48592" lon="3.45545">
        <ele>16.6</ele>
        <time>2022-04-03T08:42:22.000Z</time>
      </trkpt>
      <trkpt lat="50.48583" lon="3.45542">
        <ele>16.5</ele>
        <time>2022-04-03T08:42:24.040Z</time>
      </trkpt>
      <trkpt lat="50.48575" lon="3.45541">
        <ele>16.5</ele>
        <time>2022-04-03T08:42:26.000Z</time>
      </trkpt>
      <trkpt lat="50.48567" lon="3.4554">
        <ele>16.6</ele>
        <time>2022-04-03T08:42:27.861Z</time>
      </trkpt>
      <trkpt lat="50.48559" lon="3.45539">
        <ele>16.6</ele>
        <time>2022-04-03T08:42:30.000Z</time>
      </trkpt>
      <trkpt lat="50.48551" lon="3.45538">
        <ele>16.6</ele>
        <time>2022-04-03T08:42:31.861Z</time>
      </trkpt>
      <trkpt lat="50.48546" lon="3.45539">
        <ele>16.6</ele>
        <time>2022-04-03T08:42:33.000Z</time>
      </trkpt>
      <trkpt lat="50.48541" lon="3.45539">
        <ele>16.6</ele>
        <time>2022-04-03T08:42:34.000Z</time>
      </trkpt>
      <trkpt lat="50.48533" lon="3.45539">
        <ele>16.6</ele>
        <time>2022-04-03T08:42:36.000Z</time>
      </trkpt>
      <trkpt lat="50.48527" lon="3.45539">
        <ele>16.6</ele>
        <time>2022-04-03T08:42:37.201Z</time>
      </trkpt>
      <trkpt lat="50.48523" lon="3.45539">
        <ele>16.6</ele>
        <time>2022-04-03T08:42:38.300Z</time>
      </trkpt>
      <trkpt lat="50.48516" lon="3.45539">
        <ele>16.6</ele>
        <time>2022-04-03T08:42:39.758Z</time>
      </trkpt>
      <trkpt lat="50.48508" lon="3.45539">
        <ele>16.6</ele>
        <time>2022-04-03T08:42:41.763Z</time>
      </trkpt>
      <trkpt lat="50.48502" lon="3.45539">
        <ele>16.6</ele>
        <time>2022-04-03T08:42:43.000Z</time>
      </trkpt>
      <trkpt lat="50.48493" lon="3.4554">
        <ele>16.4</ele>
        <time>2022-04-03T08:42:45.000Z</time>
      </trkpt>
      <trkpt lat="50.48484" lon="3.45539">
        <ele>16.3</ele>
        <time>2022-04-03T08:42:46.859Z</time>
      </trkpt>
      <trkpt lat="50.48474" lon="3.45539">
        <ele>16</ele>
        <time>2022-04-03T08:42:49.000Z</time>
      </trkpt>
      <trkpt lat="50.48469" lon="3.45539">
        <ele>16.1</ele>
        <time>2022-04-03T08:42:50.000Z</time>
      </trkpt>
      <trkpt lat="50.48464" lon="3.45539">
        <ele>16.2</ele>
        <time>2022-04-03T08:42:51.000Z</time>
      </trkpt>
      <trkpt lat="50.4846" lon="3.45539">
        <ele>16.3</ele>
        <time>2022-04-03T08:42:52.000Z</time>
      </trkpt>
      <trkpt lat="50.48451" lon="3.4554">
        <ele>16.4</ele>
        <time>2022-04-03T08:42:54.000Z</time>
      </trkpt>
      <trkpt lat="50.48442" lon="3.4554">
        <ele>16.6</ele>
        <time>2022-04-03T08:42:56.000Z</time>
      </trkpt>
      <trkpt lat="50.48438" lon="3.4554">
        <ele>16.6</ele>
        <time>2022-04-03T08:42:57.000Z</time>
      </trkpt>
      <trkpt lat="50.48433" lon="3.45541">
        <ele>16.5</ele>
        <time>2022-04-03T08:42:58.000Z</time>
      </trkpt>
      <trkpt lat="50.48429" lon="3.45542">
        <ele>16.5</ele>
        <time>2022-04-03T08:42:59.000Z</time>
      </trkpt>
      <trkpt lat="50.4842" lon="3.45545">
        <ele>16.4</ele>
        <time>2022-04-03T08:43:01.000Z</time>
      </trkpt>
      <trkpt lat="50.48415" lon="3.45548">
        <ele>16.3</ele>
        <time>2022-04-03T08:43:02.000Z</time>
      </trkpt>
      <trkpt lat="50.48411" lon="3.45549">
        <ele>16.4</ele>
        <time>2022-04-03T08:43:03.000Z</time>
      </trkpt>
      <trkpt lat="50.48406" lon="3.45551">
        <ele>16.5</ele>
        <time>2022-04-03T08:43:04.000Z</time>
      </trkpt>
      <trkpt lat="50.48402" lon="3.45553">
        <ele>16.6</ele>
        <time>2022-04-03T08:43:05.000Z</time>
      </trkpt>
      <trkpt lat="50.48398" lon="3.45556">
        <ele>16.7</ele>
        <time>2022-04-03T08:43:06.000Z</time>
      </trkpt>
      <trkpt lat="50.4839" lon="3.45561">
        <ele>16.8</ele>
        <time>2022-04-03T08:43:08.000Z</time>
      </trkpt>
      <trkpt lat="50.48382" lon="3.45567">
        <ele>16.6</ele>
        <time>2022-04-03T08:43:10.000Z</time>
      </trkpt>
      <trkpt lat="50.48375" lon="3.45573">
        <ele>16.4</ele>
        <time>2022-04-03T08:43:12.000Z</time>
      </trkpt>
      <trkpt lat="50.48367" lon="3.45578">
        <ele>16.2</ele>
        <time>2022-04-03T08:43:13.917Z</time>
      </trkpt>
      <trkpt lat="50.48363" lon="3.45583">
        <ele>16</ele>
        <time>2022-04-03T08:43:15.054Z</time>
      </trkpt>
      <trkpt lat="50.4836" lon="3.45588">
        <ele>16</ele>
        <time>2022-04-03T08:43:16.000Z</time>
      </trkpt>
      <trkpt lat="50.48352" lon="3.45596">
        <ele>15.8</ele>
        <time>2022-04-03T08:43:18.081Z</time>
      </trkpt>
      <trkpt lat="50.48347" lon="3.45602">
        <ele>15.8</ele>
        <time>2022-04-03T08:43:19.658Z</time>
      </trkpt>
      <trkpt lat="50.48343" lon="3.45606">
        <ele>15.9</ele>
        <time>2022-04-03T08:43:20.795Z</time>
      </trkpt>
      <trkpt lat="50.48338" lon="3.45612">
        <ele>16</ele>
        <time>2022-04-03T08:43:22.000Z</time>
      </trkpt>
      <trkpt lat="50.48334" lon="3.45617">
        <ele>16</ele>
        <time>2022-04-03T08:43:23.175Z</time>
      </trkpt>
      <trkpt lat="50.48328" lon="3.45624">
        <ele>16</ele>
        <time>2022-04-03T08:43:24.918Z</time>
      </trkpt>
      <trkpt lat="50.48323" lon="3.45628">
        <ele>16</ele>
        <time>2022-04-03T08:43:26.000Z</time>
      </trkpt>
      <trkpt lat="50.48316" lon="3.45636">
        <ele>16</ele>
        <time>2022-04-03T08:43:28.000Z</time>
      </trkpt>
      <trkpt lat="50.48312" lon="3.4564">
        <ele>16</ele>
        <time>2022-04-03T08:43:29.000Z</time>
      </trkpt>
      <trkpt lat="50.48304" lon="3.45646">
        <ele>16</ele>
        <time>2022-04-03T08:43:31.000Z</time>
      </trkpt>
      <trkpt lat="50.48299" lon="3.4565">
        <ele>16</ele>
        <time>2022-04-03T08:43:32.000Z</time>
      </trkpt>
      <trkpt lat="50.48295" lon="3.45653">
        <ele>16</ele>
        <time>2022-04-03T08:43:33.000Z</time>
      </trkpt>
      <trkpt lat="50.4829" lon="3.45656">
        <ele>16</ele>
        <time>2022-04-03T08:43:34.000Z</time>
      </trkpt>
      <trkpt lat="50.48286" lon="3.45659">
        <ele>16</ele>
        <time>2022-04-03T08:43:35.000Z</time>
      </trkpt>
      <trkpt lat="50.48281" lon="3.45663">
        <ele>16</ele>
        <time>2022-04-03T08:43:36.000Z</time>
      </trkpt>
      <trkpt lat="50.48277" lon="3.45667">
        <ele>16</ele>
        <time>2022-04-03T08:43:37.000Z</time>
      </trkpt>
      <trkpt lat="50.48273" lon="3.45671">
        <ele>16</ele>
        <time>2022-04-03T08:43:38.000Z</time>
      </trkpt>
      <trkpt lat="50.48269" lon="3.45675">
        <ele>16</ele>
        <time>2022-04-03T08:43:39.000Z</time>
      </trkpt>
      <trkpt lat="50.48265" lon="3.45679">
        <ele>16</ele>
        <time>2022-04-03T08:43:40.000Z</time>
      </trkpt>
      <trkpt lat="50.48262" lon="3.45684">
        <ele>16</ele>
        <time>2022-04-03T08:43:41.000Z</time>
      </trkpt>
      <trkpt lat="50.48258" lon="3.45689">
        <ele>16</ele>
        <time>2022-04-03T08:43:42.000Z</time>
      </trkpt>
      <trkpt lat="50.48254" lon="3.45694">
        <ele>16</ele>
        <time>2022-04-03T08:43:43.000Z</time>
      </trkpt>
      <trkpt lat="50.4825" lon="3.45698">
        <ele>16</ele>
        <time>2022-04-03T08:43:44.000Z</time>
      </trkpt>
      <trkpt lat="50.48246" lon="3.45703">
        <ele>16</ele>
        <time>2022-04-03T08:43:45.000Z</time>
      </trkpt>
      <trkpt lat="50.48242" lon="3.45707">
        <ele>16</ele>
        <time>2022-04-03T08:43:46.000Z</time>
      </trkpt>
      <trkpt lat="50.48238" lon="3.4571">
        <ele>16</ele>
        <time>2022-04-03T08:43:47.000Z</time>
      </trkpt>
      <trkpt lat="50.48234" lon="3.45714">
        <ele>16</ele>
        <time>2022-04-03T08:43:48.000Z</time>
      </trkpt>
      <trkpt lat="50.4823" lon="3.45718">
        <ele>16</ele>
        <time>2022-04-03T08:43:49.000Z</time>
      </trkpt>
      <trkpt lat="50.48226" lon="3.45723">
        <ele>16</ele>
        <time>2022-04-03T08:43:50.000Z</time>
      </trkpt>
      <trkpt lat="50.48219" lon="3.45731">
        <ele>16</ele>
        <time>2022-04-03T08:43:52.000Z</time>
      </trkpt>
      <trkpt lat="50.48212" lon="3.45739">
        <ele>16</ele>
        <time>2022-04-03T08:43:54.000Z</time>
      </trkpt>
      <trkpt lat="50.48208" lon="3.45744">
        <ele>16</ele>
        <time>2022-04-03T08:43:55.000Z</time>
      </trkpt>
      <trkpt lat="50.48204" lon="3.45748">
        <ele>16</ele>
        <time>2022-04-03T08:43:56.000Z</time>
      </trkpt>
      <trkpt lat="50.482" lon="3.45753">
        <ele>16</ele>
        <time>2022-04-03T08:43:57.000Z</time>
      </trkpt>
      <trkpt lat="50.48196" lon="3.45758">
        <ele>16</ele>
        <time>2022-04-03T08:43:58.000Z</time>
      </trkpt>
      <trkpt lat="50.48192" lon="3.45762">
        <ele>16</ele>
        <time>2022-04-03T08:43:59.000Z</time>
      </trkpt>
      <trkpt lat="50.48188" lon="3.45768">
        <ele>16</ele>
        <time>2022-04-03T08:44:00.000Z</time>
      </trkpt>
      <trkpt lat="50.48183" lon="3.45773">
        <ele>16</ele>
        <time>2022-04-03T08:44:01.000Z</time>
      </trkpt>
      <trkpt lat="50.4818" lon="3.45777">
        <ele>16</ele>
        <time>2022-04-03T08:44:02.000Z</time>
      </trkpt>
      <trkpt lat="50.48176" lon="3.45782">
        <ele>16.1</ele>
        <time>2022-04-03T08:44:03.000Z</time>
      </trkpt>
      <trkpt lat="50.48172" lon="3.45787">
        <ele>16.1</ele>
        <time>2022-04-03T08:44:04.000Z</time>
      </trkpt>
      <trkpt lat="50.48165" lon="3.45796">
        <ele>16.1</ele>
        <time>2022-04-03T08:44:06.000Z</time>
      </trkpt>
      <trkpt lat="50.48162" lon="3.458">
        <ele>16.2</ele>
        <time>2022-04-03T08:44:07.000Z</time>
      </trkpt>
      <trkpt lat="50.48158" lon="3.45805">
        <ele>16.3</ele>
        <time>2022-04-03T08:44:08.000Z</time>
      </trkpt>
      <trkpt lat="50.48151" lon="3.45813">
        <ele>16.7</ele>
        <time>2022-04-03T08:44:10.000Z</time>
      </trkpt>
      <trkpt lat="50.48145" lon="3.45822">
        <ele>16.9</ele>
        <time>2022-04-03T08:44:12.000Z</time>
      </trkpt>
      <trkpt lat="50.4814" lon="3.45832">
        <ele>17</ele>
        <time>2022-04-03T08:44:14.000Z</time>
      </trkpt>
      <trkpt lat="50.48134" lon="3.45841">
        <ele>17</ele>
        <time>2022-04-03T08:44:16.000Z</time>
      </trkpt>
      <trkpt lat="50.48128" lon="3.4585">
        <ele>17</ele>
        <time>2022-04-03T08:44:18.000Z</time>
      </trkpt>
      <trkpt lat="50.48123" lon="3.4586">
        <ele>17</ele>
        <time>2022-04-03T08:44:20.000Z</time>
      </trkpt>
      <trkpt lat="50.48116" lon="3.45869">
        <ele>17</ele>
        <time>2022-04-03T08:44:22.000Z</time>
      </trkpt>
      <trkpt lat="50.48112" lon="3.45873">
        <ele>17</ele>
        <time>2022-04-03T08:44:23.000Z</time>
      </trkpt>
      <trkpt lat="50.48107" lon="3.45878">
        <ele>17</ele>
        <time>2022-04-03T08:44:24.000Z</time>
      </trkpt>
      <trkpt lat="50.48102" lon="3.45881">
        <ele>17</ele>
        <time>2022-04-03T08:44:25.000Z</time>
      </trkpt>
      <trkpt lat="50.48098" lon="3.45883">
        <ele>17</ele>
        <time>2022-04-03T08:44:26.000Z</time>
      </trkpt>
      <trkpt lat="50.48093" lon="3.45884">
        <ele>17</ele>
        <time>2022-04-03T08:44:27.000Z</time>
      </trkpt>
      <trkpt lat="50.48088" lon="3.45884">
        <ele>17</ele>
        <time>2022-04-03T08:44:28.000Z</time>
      </trkpt>
      <trkpt lat="50.48082" lon="3.45884">
        <ele>17</ele>
        <time>2022-04-03T08:44:29.000Z</time>
      </trkpt>
      <trkpt lat="50.48077" lon="3.45884">
        <ele>17</ele>
        <time>2022-04-03T08:44:30.000Z</time>
      </trkpt>
      <trkpt lat="50.48072" lon="3.45884">
        <ele>17</ele>
        <time>2022-04-03T08:44:31.000Z</time>
      </trkpt>
      <trkpt lat="50.48067" lon="3.45885">
        <ele>17</ele>
        <time>2022-04-03T08:44:32.000Z</time>
      </trkpt>
      <trkpt lat="50.48062" lon="3.45885">
        <ele>17</ele>
        <time>2022-04-03T08:44:33.000Z</time>
      </trkpt>
      <trkpt lat="50.48058" lon="3.45885">
        <ele>17</ele>
        <time>2022-04-03T08:44:34.000Z</time>
      </trkpt>
      <trkpt lat="50.48053" lon="3.45886">
        <ele>17</ele>
        <time>2022-04-03T08:44:35.000Z</time>
      </trkpt>
      <trkpt lat="50.48048" lon="3.45887">
        <ele>17</ele>
        <time>2022-04-03T08:44:36.000Z</time>
      </trkpt>
      <trkpt lat="50.48043" lon="3.45887">
        <ele>17</ele>
        <time>2022-04-03T08:44:37.000Z</time>
      </trkpt>
      <trkpt lat="50.48038" lon="3.45888">
        <ele>17</ele>
        <time>2022-04-03T08:44:38.000Z</time>
      </trkpt>
      <trkpt lat="50.48034" lon="3.4589">
        <ele>17</ele>
        <time>2022-04-03T08:44:39.000Z</time>
      </trkpt>
      <trkpt lat="50.4803" lon="3.45891">
        <ele>17</ele>
        <time>2022-04-03T08:44:40.000Z</time>
      </trkpt>
      <trkpt lat="50.48021" lon="3.45895">
        <ele>17</ele>
        <time>2022-04-03T08:44:42.000Z</time>
      </trkpt>
      <trkpt lat="50.48014" lon="3.45898">
        <ele>17</ele>
        <time>2022-04-03T08:44:44.000Z</time>
      </trkpt>
      <trkpt lat="50.48009" lon="3.459">
        <ele>17</ele>
        <time>2022-04-03T08:44:45.000Z</time>
      </trkpt>
      <trkpt lat="50.48003" lon="3.45896">
        <ele>17</ele>
        <time>2022-04-03T08:44:47.000Z</time>
      </trkpt>
      <trkpt lat="50.47997" lon="3.45902">
        <ele>17</ele>
        <time>2022-04-03T08:44:48.000Z</time>
      </trkpt>
      <trkpt lat="50.47991" lon="3.45907">
        <ele>17</ele>
        <time>2022-04-03T08:44:49.000Z</time>
      </trkpt>
      <trkpt lat="50.47986" lon="3.4591">
        <ele>17</ele>
        <time>2022-04-03T08:44:50.000Z</time>
      </trkpt>
      <trkpt lat="50.47981" lon="3.45913">
        <ele>17</ele>
        <time>2022-04-03T08:44:51.000Z</time>
      </trkpt>
      <trkpt lat="50.47976" lon="3.45915">
        <ele>17</ele>
        <time>2022-04-03T08:44:52.000Z</time>
      </trkpt>
      <trkpt lat="50.47971" lon="3.45917">
        <ele>17</ele>
        <time>2022-04-03T08:44:53.000Z</time>
      </trkpt>
      <trkpt lat="50.47966" lon="3.45919">
        <ele>17</ele>
        <time>2022-04-03T08:44:54.000Z</time>
      </trkpt>
      <trkpt lat="50.47961" lon="3.45921">
        <ele>17</ele>
        <time>2022-04-03T08:44:55.000Z</time>
      </trkpt>
      <trkpt lat="50.47957" lon="3.45923">
        <ele>17</ele>
        <time>2022-04-03T08:44:56.000Z</time>
      </trkpt>
      <trkpt lat="50.47952" lon="3.45924">
        <ele>17</ele>
        <time>2022-04-03T08:44:57.000Z</time>
      </trkpt>
      <trkpt lat="50.47947" lon="3.45924">
        <ele>17</ele>
        <time>2022-04-03T08:44:58.000Z</time>
      </trkpt>
      <trkpt lat="50.47942" lon="3.45925">
        <ele>17</ele>
        <time>2022-04-03T08:44:59.000Z</time>
      </trkpt>
      <trkpt lat="50.47937" lon="3.45925">
        <ele>17</ele>
        <time>2022-04-03T08:45:00.000Z</time>
      </trkpt>
      <trkpt lat="50.47932" lon="3.45925">
        <ele>17</ele>
        <time>2022-04-03T08:45:01.000Z</time>
      </trkpt>
      <trkpt lat="50.47928" lon="3.45925">
        <ele>17</ele>
        <time>2022-04-03T08:45:02.000Z</time>
      </trkpt>
      <trkpt lat="50.47923" lon="3.45924">
        <ele>17</ele>
        <time>2022-04-03T08:45:03.000Z</time>
      </trkpt>
      <trkpt lat="50.47918" lon="3.45923">
        <ele>17</ele>
        <time>2022-04-03T08:45:04.000Z</time>
      </trkpt>
      <trkpt lat="50.47913" lon="3.45922">
        <ele>17</ele>
        <time>2022-04-03T08:45:05.000Z</time>
      </trkpt>
      <trkpt lat="50.47907" lon="3.45921">
        <ele>17</ele>
        <time>2022-04-03T08:45:06.000Z</time>
      </trkpt>
      <trkpt lat="50.47902" lon="3.4592">
        <ele>17</ele>
        <time>2022-04-03T08:45:07.000Z</time>
      </trkpt>
      <trkpt lat="50.47896" lon="3.45919">
        <ele>17</ele>
        <time>2022-04-03T08:45:08.000Z</time>
      </trkpt>
      <trkpt lat="50.47891" lon="3.45917">
        <ele>17</ele>
        <time>2022-04-03T08:45:09.000Z</time>
      </trkpt>
      <trkpt lat="50.47885" lon="3.45916">
        <ele>17</ele>
        <time>2022-04-03T08:45:10.000Z</time>
      </trkpt>
      <trkpt lat="50.4788" lon="3.45915">
        <ele>17</ele>
        <time>2022-04-03T08:45:11.000Z</time>
      </trkpt>
      <trkpt lat="50.47875" lon="3.45913">
        <ele>16.9</ele>
        <time>2022-04-03T08:45:12.000Z</time>
      </trkpt>
      <trkpt lat="50.4787" lon="3.45911">
        <ele>16.9</ele>
        <time>2022-04-03T08:45:13.000Z</time>
      </trkpt>
      <trkpt lat="50.47865" lon="3.45909">
        <ele>16.8</ele>
        <time>2022-04-03T08:45:14.000Z</time>
      </trkpt>
      <trkpt lat="50.4786" lon="3.45907">
        <ele>16.7</ele>
        <time>2022-04-03T08:45:15.000Z</time>
      </trkpt>
      <trkpt lat="50.47855" lon="3.45904">
        <ele>16.5</ele>
        <time>2022-04-03T08:45:16.000Z</time>
      </trkpt>
      <trkpt lat="50.4785" lon="3.45902">
        <ele>16.5</ele>
        <time>2022-04-03T08:45:17.000Z</time>
      </trkpt>
      <trkpt lat="50.47845" lon="3.45898">
        <ele>16.3</ele>
        <time>2022-04-03T08:45:18.000Z</time>
      </trkpt>
      <trkpt lat="50.4784" lon="3.45895">
        <ele>16.2</ele>
        <time>2022-04-03T08:45:19.000Z</time>
      </trkpt>
      <trkpt lat="50.47835" lon="3.45892">
        <ele>16.1</ele>
        <time>2022-04-03T08:45:20.000Z</time>
      </trkpt>
      <trkpt lat="50.4783" lon="3.45889">
        <ele>16.1</ele>
        <time>2022-04-03T08:45:21.000Z</time>
      </trkpt>
      <trkpt lat="50.47825" lon="3.45886">
        <ele>16.3</ele>
        <time>2022-04-03T08:45:22.000Z</time>
      </trkpt>
      <trkpt lat="50.4782" lon="3.45883">
        <ele>16.4</ele>
        <time>2022-04-03T08:45:23.000Z</time>
      </trkpt>
      <trkpt lat="50.47815" lon="3.4588">
        <ele>16.4</ele>
        <time>2022-04-03T08:45:24.000Z</time>
      </trkpt>
      <trkpt lat="50.4781" lon="3.45877">
        <ele>16.5</ele>
        <time>2022-04-03T08:45:25.000Z</time>
      </trkpt>
      <trkpt lat="50.47805" lon="3.45873">
        <ele>16.4</ele>
        <time>2022-04-03T08:45:26.000Z</time>
      </trkpt>
      <trkpt lat="50.478" lon="3.4587">
        <ele>16.5</ele>
        <time>2022-04-03T08:45:27.000Z</time>
      </trkpt>
      <trkpt lat="50.47795" lon="3.45867">
        <ele>16.5</ele>
        <time>2022-04-03T08:45:28.000Z</time>
      </trkpt>
      <trkpt lat="50.4779" lon="3.45864">
        <ele>16.6</ele>
        <time>2022-04-03T08:45:29.000Z</time>
      </trkpt>
      <trkpt lat="50.47786" lon="3.4586">
        <ele>16.7</ele>
        <time>2022-04-03T08:45:30.000Z</time>
      </trkpt>
      <trkpt lat="50.47781" lon="3.45855">
        <ele>16.9</ele>
        <time>2022-04-03T08:45:31.000Z</time>
      </trkpt>
      <trkpt lat="50.47776" lon="3.45851">
        <ele>17</ele>
        <time>2022-04-03T08:45:32.000Z</time>
      </trkpt>
      <trkpt lat="50.47771" lon="3.45846">
        <ele>17</ele>
        <time>2022-04-03T08:45:33.000Z</time>
      </trkpt>
      <trkpt lat="50.47766" lon="3.45842">
        <ele>17</ele>
        <time>2022-04-03T08:45:34.000Z</time>
      </trkpt>
      <trkpt lat="50.47761" lon="3.45837">
        <ele>17</ele>
        <time>2022-04-03T08:45:35.000Z</time>
      </trkpt>
      <trkpt lat="50.47757" lon="3.45833">
        <ele>17</ele>
        <time>2022-04-03T08:45:36.000Z</time>
      </trkpt>
      <trkpt lat="50.47752" lon="3.45829">
        <ele>17</ele>
        <time>2022-04-03T08:45:37.000Z</time>
      </trkpt>
      <trkpt lat="50.47747" lon="3.45824">
        <ele>17</ele>
        <time>2022-04-03T08:45:38.000Z</time>
      </trkpt>
      <trkpt lat="50.47742" lon="3.4582">
        <ele>17</ele>
        <time>2022-04-03T08:45:39.000Z</time>
      </trkpt>
      <trkpt lat="50.47737" lon="3.45816">
        <ele>17</ele>
        <time>2022-04-03T08:45:40.000Z</time>
      </trkpt>
      <trkpt lat="50.47732" lon="3.45812">
        <ele>17</ele>
        <time>2022-04-03T08:45:41.000Z</time>
      </trkpt>
      <trkpt lat="50.47727" lon="3.45808">
        <ele>17</ele>
        <time>2022-04-03T08:45:42.000Z</time>
      </trkpt>
      <trkpt lat="50.47723" lon="3.45804">
        <ele>17</ele>
        <time>2022-04-03T08:45:43.000Z</time>
      </trkpt>
      <trkpt lat="50.47718" lon="3.458">
        <ele>17</ele>
        <time>2022-04-03T08:45:44.000Z</time>
      </trkpt>
      <trkpt lat="50.47713" lon="3.45798">
        <ele>17</ele>
        <time>2022-04-03T08:45:45.000Z</time>
      </trkpt>
      <trkpt lat="50.47709" lon="3.45796">
        <ele>17</ele>
        <time>2022-04-03T08:45:46.000Z</time>
      </trkpt>
      <trkpt lat="50.47704" lon="3.45795">
        <ele>17</ele>
        <time>2022-04-03T08:45:47.000Z</time>
      </trkpt>
      <trkpt lat="50.47695" lon="3.45793">
        <ele>17</ele>
        <time>2022-04-03T08:45:49.000Z</time>
      </trkpt>
      <trkpt lat="50.47691" lon="3.45791">
        <ele>17.1</ele>
        <time>2022-04-03T08:45:50.000Z</time>
      </trkpt>
      <trkpt lat="50.47686" lon="3.4579">
        <ele>17.3</ele>
        <time>2022-04-03T08:45:51.000Z</time>
      </trkpt>
      <trkpt lat="50.47682" lon="3.45788">
        <ele>17.4</ele>
        <time>2022-04-03T08:45:52.000Z</time>
      </trkpt>
      <trkpt lat="50.47677" lon="3.45787">
        <ele>17.6</ele>
        <time>2022-04-03T08:45:53.000Z</time>
      </trkpt>
      <trkpt lat="50.47668" lon="3.45785">
        <ele>18</ele>
        <time>2022-04-03T08:45:55.000Z</time>
      </trkpt>
      <trkpt lat="50.47663" lon="3.45784">
        <ele>18</ele>
        <time>2022-04-03T08:45:56.000Z</time>
      </trkpt>
      <trkpt lat="50.47659" lon="3.45783">
        <ele>18</ele>
        <time>2022-04-03T08:45:57.000Z</time>
      </trkpt>
      <trkpt lat="50.47654" lon="3.45781">
        <ele>18</ele>
        <time>2022-04-03T08:45:58.000Z</time>
      </trkpt>
      <trkpt lat="50.4765" lon="3.4578">
        <ele>18</ele>
        <time>2022-04-03T08:45:59.000Z</time>
      </trkpt>
      <trkpt lat="50.47645" lon="3.45779">
        <ele>18</ele>
        <time>2022-04-03T08:46:00.000Z</time>
      </trkpt>
      <trkpt lat="50.47641" lon="3.45777">
        <ele>18</ele>
        <time>2022-04-03T08:46:01.000Z</time>
      </trkpt>
      <trkpt lat="50.47636" lon="3.45774">
        <ele>17.9</ele>
        <time>2022-04-03T08:46:02.000Z</time>
      </trkpt>
      <trkpt lat="50.47631" lon="3.45771">
        <ele>17.8</ele>
        <time>2022-04-03T08:46:03.000Z</time>
      </trkpt>
      <trkpt lat="50.47627" lon="3.45768">
        <ele>17.7</ele>
        <time>2022-04-03T08:46:04.000Z</time>
      </trkpt>
      <trkpt lat="50.47622" lon="3.45764">
        <ele>17.7</ele>
        <time>2022-04-03T08:46:05.000Z</time>
      </trkpt>
      <trkpt lat="50.47617" lon="3.45761">
        <ele>17.7</ele>
        <time>2022-04-03T08:46:06.000Z</time>
      </trkpt>
      <trkpt lat="50.47613" lon="3.45757">
        <ele>17.8</ele>
        <time>2022-04-03T08:46:07.000Z</time>
      </trkpt>
      <trkpt lat="50.47608" lon="3.45753">
        <ele>17.8</ele>
        <time>2022-04-03T08:46:08.000Z</time>
      </trkpt>
      <trkpt lat="50.47603" lon="3.4575">
        <ele>17.7</ele>
        <time>2022-04-03T08:46:09.000Z</time>
      </trkpt>
      <trkpt lat="50.47599" lon="3.45745">
        <ele>17.6</ele>
        <time>2022-04-03T08:46:10.000Z</time>
      </trkpt>
      <trkpt lat="50.47594" lon="3.45741">
        <ele>17.6</ele>
        <time>2022-04-03T08:46:11.000Z</time>
      </trkpt>
      <trkpt lat="50.4759" lon="3.45736">
        <ele>17.6</ele>
        <time>2022-04-03T08:46:12.000Z</time>
      </trkpt>
      <trkpt lat="50.47586" lon="3.45731">
        <ele>17.7</ele>
        <time>2022-04-03T08:46:13.000Z</time>
      </trkpt>
      <trkpt lat="50.47582" lon="3.45726">
        <ele>17.8</ele>
        <time>2022-04-03T08:46:14.000Z</time>
      </trkpt>
      <trkpt lat="50.47578" lon="3.45722">
        <ele>17.8</ele>
        <time>2022-04-03T08:46:15.000Z</time>
      </trkpt>
      <trkpt lat="50.47574" lon="3.45717">
        <ele>17.7</ele>
        <time>2022-04-03T08:46:16.000Z</time>
      </trkpt>
      <trkpt lat="50.4757" lon="3.45712">
        <ele>17.7</ele>
        <time>2022-04-03T08:46:17.000Z</time>
      </trkpt>
      <trkpt lat="50.47567" lon="3.45708">
        <ele>17.7</ele>
        <time>2022-04-03T08:46:18.000Z</time>
      </trkpt>
      <trkpt lat="50.47563" lon="3.45703">
        <ele>17.8</ele>
        <time>2022-04-03T08:46:19.000Z</time>
      </trkpt>
      <trkpt lat="50.47559" lon="3.45699">
        <ele>17.9</ele>
        <time>2022-04-03T08:46:20.000Z</time>
      </trkpt>
      <trkpt lat="50.47556" lon="3.45694">
        <ele>18</ele>
        <time>2022-04-03T08:46:21.000Z</time>
      </trkpt>
      <trkpt lat="50.47552" lon="3.4569">
        <ele>17.9</ele>
        <time>2022-04-03T08:46:22.000Z</time>
      </trkpt>
      <trkpt lat="50.47548" lon="3.45685">
        <ele>17.7</ele>
        <time>2022-04-03T08:46:23.000Z</time>
      </trkpt>
      <trkpt lat="50.47545" lon="3.4568">
        <ele>17.6</ele>
        <time>2022-04-03T08:46:24.000Z</time>
      </trkpt>
      <trkpt lat="50.47541" lon="3.45676">
        <ele>17.5</ele>
        <time>2022-04-03T08:46:25.000Z</time>
      </trkpt>
      <trkpt lat="50.47537" lon="3.45672">
        <ele>17.3</ele>
        <time>2022-04-03T08:46:26.000Z</time>
      </trkpt>
      <trkpt lat="50.47533" lon="3.45668">
        <ele>17.2</ele>
        <time>2022-04-03T08:46:27.000Z</time>
      </trkpt>
      <trkpt lat="50.47529" lon="3.45664">
        <ele>17.1</ele>
        <time>2022-04-03T08:46:28.000Z</time>
      </trkpt>
      <trkpt lat="50.47525" lon="3.4566">
        <ele>17.2</ele>
        <time>2022-04-03T08:46:29.000Z</time>
      </trkpt>
      <trkpt lat="50.47521" lon="3.45656">
        <ele>17.3</ele>
        <time>2022-04-03T08:46:30.000Z</time>
      </trkpt>
      <trkpt lat="50.47516" lon="3.45652">
        <ele>17.3</ele>
        <time>2022-04-03T08:46:31.000Z</time>
      </trkpt>
      <trkpt lat="50.47512" lon="3.45648">
        <ele>17.3</ele>
        <time>2022-04-03T08:46:32.000Z</time>
      </trkpt>
      <trkpt lat="50.47508" lon="3.45645">
        <ele>17.2</ele>
        <time>2022-04-03T08:46:33.000Z</time>
      </trkpt>
      <trkpt lat="50.47504" lon="3.45641">
        <ele>17.1</ele>
        <time>2022-04-03T08:46:34.000Z</time>
      </trkpt>
      <trkpt lat="50.47499" lon="3.45637">
        <ele>17.1</ele>
        <time>2022-04-03T08:46:35.000Z</time>
      </trkpt>
      <trkpt lat="50.47495" lon="3.45634">
        <ele>17.1</ele>
        <time>2022-04-03T08:46:36.000Z</time>
      </trkpt>
      <trkpt lat="50.47491" lon="3.4563">
        <ele>17.2</ele>
        <time>2022-04-03T08:46:37.000Z</time>
      </trkpt>
      <trkpt lat="50.47486" lon="3.45626">
        <ele>17.2</ele>
        <time>2022-04-03T08:46:38.000Z</time>
      </trkpt>
      <trkpt lat="50.47482" lon="3.45622">
        <ele>17.2</ele>
        <time>2022-04-03T08:46:39.000Z</time>
      </trkpt>
      <trkpt lat="50.47478" lon="3.45618">
        <ele>17.2</ele>
        <time>2022-04-03T08:46:40.000Z</time>
      </trkpt>
      <trkpt lat="50.47474" lon="3.45614">
        <ele>17.1</ele>
        <time>2022-04-03T08:46:41.000Z</time>
      </trkpt>
      <trkpt lat="50.47469" lon="3.4561">
        <ele>16.9</ele>
        <time>2022-04-03T08:46:42.000Z</time>
      </trkpt>
      <trkpt lat="50.47465" lon="3.45606">
        <ele>16.9</ele>
        <time>2022-04-03T08:46:43.000Z</time>
      </trkpt>
      <trkpt lat="50.47461" lon="3.45602">
        <ele>16.9</ele>
        <time>2022-04-03T08:46:44.000Z</time>
      </trkpt>
      <trkpt lat="50.47456" lon="3.45599">
        <ele>16.9</ele>
        <time>2022-04-03T08:46:45.000Z</time>
      </trkpt>
      <trkpt lat="50.47452" lon="3.45595">
        <ele>16.9</ele>
        <time>2022-04-03T08:46:46.000Z</time>
      </trkpt>
      <trkpt lat="50.47447" lon="3.45592">
        <ele>16.8</ele>
        <time>2022-04-03T08:46:47.000Z</time>
      </trkpt>
      <trkpt lat="50.47443" lon="3.45589">
        <ele>16.8</ele>
        <time>2022-04-03T08:46:48.000Z</time>
      </trkpt>
      <trkpt lat="50.47438" lon="3.45585">
        <ele>16.9</ele>
        <time>2022-04-03T08:46:49.000Z</time>
      </trkpt>
      <trkpt lat="50.47434" lon="3.45581">
        <ele>17</ele>
        <time>2022-04-03T08:46:50.000Z</time>
      </trkpt>
      <trkpt lat="50.47429" lon="3.45578">
        <ele>17</ele>
        <time>2022-04-03T08:46:51.000Z</time>
      </trkpt>
      <trkpt lat="50.47425" lon="3.45575">
        <ele>17</ele>
        <time>2022-04-03T08:46:52.000Z</time>
      </trkpt>
      <trkpt lat="50.47421" lon="3.45572">
        <ele>17</ele>
        <time>2022-04-03T08:46:53.000Z</time>
      </trkpt>
      <trkpt lat="50.47416" lon="3.45569">
        <ele>17</ele>
        <time>2022-04-03T08:46:54.000Z</time>
      </trkpt>
      <trkpt lat="50.47411" lon="3.45567">
        <ele>17</ele>
        <time>2022-04-03T08:46:55.000Z</time>
      </trkpt>
      <trkpt lat="50.47406" lon="3.45565">
        <ele>17</ele>
        <time>2022-04-03T08:46:56.000Z</time>
      </trkpt>
      <trkpt lat="50.47402" lon="3.45563">
        <ele>17</ele>
        <time>2022-04-03T08:46:57.000Z</time>
      </trkpt>
      <trkpt lat="50.47397" lon="3.45562">
        <ele>17</ele>
        <time>2022-04-03T08:46:58.000Z</time>
      </trkpt>
      <trkpt lat="50.47392" lon="3.4556">
        <ele>17</ele>
        <time>2022-04-03T08:46:59.000Z</time>
      </trkpt>
      <trkpt lat="50.47388" lon="3.45559">
        <ele>17</ele>
        <time>2022-04-03T08:47:00.000Z</time>
      </trkpt>
      <trkpt lat="50.47379" lon="3.45558">
        <ele>17</ele>
        <time>2022-04-03T08:47:02.000Z</time>
      </trkpt>
      <trkpt lat="50.4737" lon="3.45556">
        <ele>17</ele>
        <time>2022-04-03T08:47:04.000Z</time>
      </trkpt>
      <trkpt lat="50.47362" lon="3.45555">
        <ele>17</ele>
        <time>2022-04-03T08:47:06.000Z</time>
      </trkpt>
      <trkpt lat="50.47357" lon="3.45555">
        <ele>17</ele>
        <time>2022-04-03T08:47:07.000Z</time>
      </trkpt>
      <trkpt lat="50.47352" lon="3.45556">
        <ele>17</ele>
        <time>2022-04-03T08:47:08.000Z</time>
      </trkpt>
      <trkpt lat="50.47347" lon="3.45557">
        <ele>16.9</ele>
        <time>2022-04-03T08:47:09.000Z</time>
      </trkpt>
      <trkpt lat="50.47342" lon="3.45558">
        <ele>16.9</ele>
        <time>2022-04-03T08:47:10.000Z</time>
      </trkpt>
      <trkpt lat="50.47337" lon="3.45558">
        <ele>16.9</ele>
        <time>2022-04-03T08:47:11.000Z</time>
      </trkpt>
      <trkpt lat="50.47332" lon="3.4556">
        <ele>16.8</ele>
        <time>2022-04-03T08:47:12.000Z</time>
      </trkpt>
      <trkpt lat="50.47327" lon="3.45561">
        <ele>16.7</ele>
        <time>2022-04-03T08:47:13.000Z</time>
      </trkpt>
      <trkpt lat="50.47322" lon="3.45563">
        <ele>16.5</ele>
        <time>2022-04-03T08:47:14.000Z</time>
      </trkpt>
      <trkpt lat="50.47318" lon="3.45566">
        <ele>16.5</ele>
        <time>2022-04-03T08:47:15.000Z</time>
      </trkpt>
      <trkpt lat="50.47313" lon="3.45568">
        <ele>16.5</ele>
        <time>2022-04-03T08:47:16.000Z</time>
      </trkpt>
      <trkpt lat="50.47308" lon="3.45571">
        <ele>16.5</ele>
        <time>2022-04-03T08:47:17.000Z</time>
      </trkpt>
      <trkpt lat="50.47304" lon="3.45574">
        <ele>16.7</ele>
        <time>2022-04-03T08:47:18.000Z</time>
      </trkpt>
      <trkpt lat="50.47299" lon="3.45577">
        <ele>16.8</ele>
        <time>2022-04-03T08:47:19.000Z</time>
      </trkpt>
      <trkpt lat="50.47294" lon="3.45579">
        <ele>16.8</ele>
        <time>2022-04-03T08:47:20.000Z</time>
      </trkpt>
      <trkpt lat="50.47289" lon="3.45582">
        <ele>17</ele>
        <time>2022-04-03T08:47:21.000Z</time>
      </trkpt>
      <trkpt lat="50.47285" lon="3.45585">
        <ele>17</ele>
        <time>2022-04-03T08:47:22.000Z</time>
      </trkpt>
      <trkpt lat="50.4728" lon="3.45589">
        <ele>17</ele>
        <time>2022-04-03T08:47:23.000Z</time>
      </trkpt>
      <trkpt lat="50.47276" lon="3.45592">
        <ele>17</ele>
        <time>2022-04-03T08:47:24.000Z</time>
      </trkpt>
      <trkpt lat="50.47272" lon="3.45595">
        <ele>16.9</ele>
        <time>2022-04-03T08:47:25.000Z</time>
      </trkpt>
      <trkpt lat="50.47268" lon="3.45598">
        <ele>16.8</ele>
        <time>2022-04-03T08:47:26.000Z</time>
      </trkpt>
      <trkpt lat="50.4726" lon="3.45604">
        <ele>16.8</ele>
        <time>2022-04-03T08:47:28.000Z</time>
      </trkpt>
      <trkpt lat="50.47255" lon="3.45607">
        <ele>16.9</ele>
        <time>2022-04-03T08:47:29.000Z</time>
      </trkpt>
      <trkpt lat="50.47247" lon="3.45613">
        <ele>16.8</ele>
        <time>2022-04-03T08:47:31.000Z</time>
      </trkpt>
      <trkpt lat="50.47239" lon="3.4562">
        <ele>16.5</ele>
        <time>2022-04-03T08:47:33.000Z</time>
      </trkpt>
      <trkpt lat="50.47235" lon="3.45623">
        <ele>16.5</ele>
        <time>2022-04-03T08:47:34.000Z</time>
      </trkpt>
      <trkpt lat="50.47228" lon="3.45629">
        <ele>16.6</ele>
        <time>2022-04-03T08:47:36.000Z</time>
      </trkpt>
      <trkpt lat="50.47221" lon="3.45635">
        <ele>16.8</ele>
        <time>2022-04-03T08:47:38.000Z</time>
      </trkpt>
      <trkpt lat="50.47214" lon="3.45641">
        <ele>16.7</ele>
        <time>2022-04-03T08:47:40.000Z</time>
      </trkpt>
      <trkpt lat="50.47209" lon="3.45645">
        <ele>16.4</ele>
        <time>2022-04-03T08:47:42.000Z</time>
      </trkpt>
      <trkpt lat="50.47203" lon="3.45646">
        <ele>16.2</ele>
        <time>2022-04-03T08:47:43.892Z</time>
      </trkpt>
      <trkpt lat="50.47196" lon="3.45654">
        <ele>16</ele>
        <time>2022-04-03T08:47:46.000Z</time>
      </trkpt>
      <trkpt lat="50.47192" lon="3.45658">
        <ele>16.1</ele>
        <time>2022-04-03T08:47:47.391Z</time>
      </trkpt>
      <trkpt lat="50.47187" lon="3.45662">
        <ele>16.2</ele>
        <time>2022-04-03T08:47:48.591Z</time>
      </trkpt>
      <trkpt lat="50.4718" lon="3.45664">
        <ele>16.5</ele>
        <time>2022-04-03T08:47:50.610Z</time>
      </trkpt>
      <trkpt lat="50.47175" lon="3.45665">
        <ele>16.7</ele>
        <time>2022-04-03T08:47:51.811Z</time>
      </trkpt>
      <trkpt lat="50.4717" lon="3.45666">
        <ele>16.9</ele>
        <time>2022-04-03T08:47:53.000Z</time>
      </trkpt>
      <trkpt lat="50.47162" lon="3.45666">
        <ele>17</ele>
        <time>2022-04-03T08:47:55.000Z</time>
      </trkpt>
      <trkpt lat="50.47155" lon="3.45662">
        <ele>16.8</ele>
        <time>2022-04-03T08:47:56.289Z</time>
      </trkpt>
      <trkpt lat="50.47149" lon="3.45661">
        <ele>16.7</ele>
        <time>2022-04-03T08:47:57.709Z</time>
      </trkpt>
      <trkpt lat="50.47142" lon="3.4566">
        <ele>16.5</ele>
        <time>2022-04-03T08:47:59.000Z</time>
      </trkpt>
      <trkpt lat="50.47136" lon="3.45659">
        <ele>16.5</ele>
        <time>2022-04-03T08:48:00.000Z</time>
      </trkpt>
      <trkpt lat="50.47131" lon="3.45658">
        <ele>16.5</ele>
        <time>2022-04-03T08:48:01.000Z</time>
      </trkpt>
      <trkpt lat="50.47127" lon="3.45656">
        <ele>16.4</ele>
        <time>2022-04-03T08:48:02.000Z</time>
      </trkpt>
      <trkpt lat="50.47122" lon="3.45654">
        <ele>16.4</ele>
        <time>2022-04-03T08:48:03.000Z</time>
      </trkpt>
      <trkpt lat="50.47117" lon="3.45651">
        <ele>16.3</ele>
        <time>2022-04-03T08:48:04.000Z</time>
      </trkpt>
      <trkpt lat="50.47112" lon="3.45648">
        <ele>16.3</ele>
        <time>2022-04-03T08:48:05.000Z</time>
      </trkpt>
      <trkpt lat="50.47108" lon="3.45644">
        <ele>16.3</ele>
        <time>2022-04-03T08:48:06.000Z</time>
      </trkpt>
      <trkpt lat="50.47103" lon="3.4564">
        <ele>16.3</ele>
        <time>2022-04-03T08:48:07.000Z</time>
      </trkpt>
      <trkpt lat="50.47099" lon="3.45636">
        <ele>16.3</ele>
        <time>2022-04-03T08:48:08.000Z</time>
      </trkpt>
      <trkpt lat="50.47094" lon="3.45633">
        <ele>16.4</ele>
        <time>2022-04-03T08:48:09.000Z</time>
      </trkpt>
      <trkpt lat="50.4709" lon="3.45629">
        <ele>16.4</ele>
        <time>2022-04-03T08:48:10.000Z</time>
      </trkpt>
      <trkpt lat="50.47086" lon="3.45626">
        <ele>16.4</ele>
        <time>2022-04-03T08:48:11.000Z</time>
      </trkpt>
      <trkpt lat="50.47081" lon="3.45622">
        <ele>16.4</ele>
        <time>2022-04-03T08:48:12.000Z</time>
      </trkpt>
      <trkpt lat="50.47077" lon="3.45618">
        <ele>16.4</ele>
        <time>2022-04-03T08:48:13.000Z</time>
      </trkpt>
      <trkpt lat="50.47073" lon="3.45615">
        <ele>16.5</ele>
        <time>2022-04-03T08:48:14.000Z</time>
      </trkpt>
      <trkpt lat="50.47069" lon="3.45611">
        <ele>16.5</ele>
        <time>2022-04-03T08:48:15.000Z</time>
      </trkpt>
      <trkpt lat="50.47064" lon="3.45607">
        <ele>16.5</ele>
        <time>2022-04-03T08:48:16.000Z</time>
      </trkpt>
      <trkpt lat="50.4706" lon="3.45603">
        <ele>16.5</ele>
        <time>2022-04-03T08:48:17.000Z</time>
      </trkpt>
      <trkpt lat="50.47056" lon="3.45599">
        <ele>16.5</ele>
        <time>2022-04-03T08:48:18.000Z</time>
      </trkpt>
      <trkpt lat="50.47052" lon="3.45594">
        <ele>16.5</ele>
        <time>2022-04-03T08:48:19.000Z</time>
      </trkpt>
      <trkpt lat="50.47048" lon="3.4559">
        <ele>16.5</ele>
        <time>2022-04-03T08:48:20.000Z</time>
      </trkpt>
      <trkpt lat="50.47044" lon="3.45586">
        <ele>16.5</ele>
        <time>2022-04-03T08:48:21.000Z</time>
      </trkpt>
      <trkpt lat="50.4704" lon="3.45582">
        <ele>16.5</ele>
        <time>2022-04-03T08:48:22.000Z</time>
      </trkpt>
      <trkpt lat="50.47036" lon="3.45578">
        <ele>16.6</ele>
        <time>2022-04-03T08:48:23.000Z</time>
      </trkpt>
      <trkpt lat="50.47032" lon="3.45573">
        <ele>16.5</ele>
        <time>2022-04-03T08:48:24.000Z</time>
      </trkpt>
      <trkpt lat="50.47028" lon="3.45569">
        <ele>16.5</ele>
        <time>2022-04-03T08:48:25.000Z</time>
      </trkpt>
      <trkpt lat="50.47023" lon="3.45564">
        <ele>16.4</ele>
        <time>2022-04-03T08:48:26.000Z</time>
      </trkpt>
      <trkpt lat="50.47019" lon="3.4556">
        <ele>16.2</ele>
        <time>2022-04-03T08:48:27.000Z</time>
      </trkpt>
      <trkpt lat="50.47015" lon="3.45556">
        <ele>16</ele>
        <time>2022-04-03T08:48:28.000Z</time>
      </trkpt>
      <trkpt lat="50.47011" lon="3.45552">
        <ele>16</ele>
        <time>2022-04-03T08:48:29.000Z</time>
      </trkpt>
      <trkpt lat="50.47007" lon="3.45547">
        <ele>16</ele>
        <time>2022-04-03T08:48:30.000Z</time>
      </trkpt>
      <trkpt lat="50.47002" lon="3.45543">
        <ele>16</ele>
        <time>2022-04-03T08:48:31.000Z</time>
      </trkpt>
      <trkpt lat="50.46998" lon="3.45538">
        <ele>16</ele>
        <time>2022-04-03T08:48:32.000Z</time>
      </trkpt>
      <trkpt lat="50.46994" lon="3.45534">
        <ele>16</ele>
        <time>2022-04-03T08:48:33.000Z</time>
      </trkpt>
      <trkpt lat="50.4699" lon="3.45529">
        <ele>16</ele>
        <time>2022-04-03T08:48:34.000Z</time>
      </trkpt>
      <trkpt lat="50.46986" lon="3.45525">
        <ele>15.9</ele>
        <time>2022-04-03T08:48:35.000Z</time>
      </trkpt>
      <trkpt lat="50.46983" lon="3.45521">
        <ele>15.8</ele>
        <time>2022-04-03T08:48:36.000Z</time>
      </trkpt>
      <trkpt lat="50.46979" lon="3.45516">
        <ele>15.6</ele>
        <time>2022-04-03T08:48:37.000Z</time>
      </trkpt>
      <trkpt lat="50.46975" lon="3.45512">
        <ele>15.4</ele>
        <time>2022-04-03T08:48:38.000Z</time>
      </trkpt>
      <trkpt lat="50.46971" lon="3.45509">
        <ele>15.4</ele>
        <time>2022-04-03T08:48:39.000Z</time>
      </trkpt>
      <trkpt lat="50.46966" lon="3.45505">
        <ele>15.4</ele>
        <time>2022-04-03T08:48:40.000Z</time>
      </trkpt>
      <trkpt lat="50.46962" lon="3.45501">
        <ele>15.4</ele>
        <time>2022-04-03T08:48:41.000Z</time>
      </trkpt>
      <trkpt lat="50.46958" lon="3.45496">
        <ele>15.5</ele>
        <time>2022-04-03T08:48:42.000Z</time>
      </trkpt>
      <trkpt lat="50.46954" lon="3.45492">
        <ele>15.7</ele>
        <time>2022-04-03T08:48:43.000Z</time>
      </trkpt>
      <trkpt lat="50.4695" lon="3.45488">
        <ele>15.8</ele>
        <time>2022-04-03T08:48:44.000Z</time>
      </trkpt>
      <trkpt lat="50.46947" lon="3.45484">
        <ele>15.9</ele>
        <time>2022-04-03T08:48:45.000Z</time>
      </trkpt>
      <trkpt lat="50.46943" lon="3.45479">
        <ele>16</ele>
        <time>2022-04-03T08:48:46.000Z</time>
      </trkpt>
      <trkpt lat="50.46936" lon="3.45471">
        <ele>16</ele>
        <time>2022-04-03T08:48:48.000Z</time>
      </trkpt>
      <trkpt lat="50.46931" lon="3.45468">
        <ele>16</ele>
        <time>2022-04-03T08:48:49.000Z</time>
      </trkpt>
      <trkpt lat="50.46927" lon="3.45464">
        <ele>16</ele>
        <time>2022-04-03T08:48:50.000Z</time>
      </trkpt>
      <trkpt lat="50.4692" lon="3.45457">
        <ele>16</ele>
        <time>2022-04-03T08:48:52.000Z</time>
      </trkpt>
      <trkpt lat="50.46911" lon="3.45452">
        <ele>16.2</ele>
        <time>2022-04-03T08:48:54.000Z</time>
      </trkpt>
      <trkpt lat="50.46904" lon="3.45447">
        <ele>16.5</ele>
        <time>2022-04-03T08:48:56.000Z</time>
      </trkpt>
      <trkpt lat="50.46898" lon="3.45443">
        <ele>16.7</ele>
        <time>2022-04-03T08:48:58.000Z</time>
      </trkpt>
      <trkpt lat="50.46889" lon="3.45439">
        <ele>17</ele>
        <time>2022-04-03T08:49:00.000Z</time>
      </trkpt>
      <trkpt lat="50.46882" lon="3.45435">
        <ele>16.9</ele>
        <time>2022-04-03T08:49:02.000Z</time>
      </trkpt>
      <trkpt lat="50.46876" lon="3.45433">
        <ele>16.8</ele>
        <time>2022-04-03T08:49:04.000Z</time>
      </trkpt>
      <trkpt lat="50.46871" lon="3.45432">
        <ele>16.7</ele>
        <time>2022-04-03T08:49:05.488Z</time>
      </trkpt>
      <trkpt lat="50.46867" lon="3.45431">
        <ele>16.6</ele>
        <time>2022-04-03T08:49:06.909Z</time>
      </trkpt>
      <trkpt lat="50.46859" lon="3.4543">
        <ele>16.5</ele>
        <time>2022-04-03T08:49:09.000Z</time>
      </trkpt>
      <trkpt lat="50.46852" lon="3.45429">
        <ele>16.4</ele>
        <time>2022-04-03T08:49:11.000Z</time>
      </trkpt>
      <trkpt lat="50.46843" lon="3.45429">
        <ele>16.4</ele>
        <time>2022-04-03T08:49:13.000Z</time>
      </trkpt>
      <trkpt lat="50.46838" lon="3.45429">
        <ele>16.4</ele>
        <time>2022-04-03T08:49:14.000Z</time>
      </trkpt>
      <trkpt lat="50.4683" lon="3.4543">
        <ele>16.5</ele>
        <time>2022-04-03T08:49:16.000Z</time>
      </trkpt>
      <trkpt lat="50.46825" lon="3.45431">
        <ele>16.5</ele>
        <time>2022-04-03T08:49:17.000Z</time>
      </trkpt>
      <trkpt lat="50.4682" lon="3.45432">
        <ele>16.6</ele>
        <time>2022-04-03T08:49:18.088Z</time>
      </trkpt>
      <trkpt lat="50.46811" lon="3.45436">
        <ele>16.7</ele>
        <time>2022-04-03T08:49:20.000Z</time>
      </trkpt>
      <trkpt lat="50.46806" lon="3.45437">
        <ele>16.7</ele>
        <time>2022-04-03T08:49:21.000Z</time>
      </trkpt>
      <trkpt lat="50.46802" lon="3.45438">
        <ele>16.8</ele>
        <time>2022-04-03T08:49:22.000Z</time>
      </trkpt>
      <trkpt lat="50.46797" lon="3.45439">
        <ele>16.8</ele>
        <time>2022-04-03T08:49:23.000Z</time>
      </trkpt>
      <trkpt lat="50.46789" lon="3.45441">
        <ele>16.9</ele>
        <time>2022-04-03T08:49:25.000Z</time>
      </trkpt>
      <trkpt lat="50.46777" lon="3.45443">
        <ele>16.9</ele>
        <time>2022-04-03T08:49:28.000Z</time>
      </trkpt>
      <trkpt lat="50.46769" lon="3.45443">
        <ele>16.9</ele>
        <time>2022-04-03T08:49:30.000Z</time>
      </trkpt>
      <trkpt lat="50.46761" lon="3.45441">
        <ele>16.9</ele>
        <time>2022-04-03T08:49:32.000Z</time>
      </trkpt>
      <trkpt lat="50.46754" lon="3.45438">
        <ele>16.8</ele>
        <time>2022-04-03T08:49:33.953Z</time>
      </trkpt>
      <trkpt lat="50.46746" lon="3.45437">
        <ele>16.7</ele>
        <time>2022-04-03T08:49:36.073Z</time>
      </trkpt>
      <trkpt lat="50.4674" lon="3.45442">
        <ele>16.9</ele>
        <time>2022-04-03T08:49:38.000Z</time>
      </trkpt>
      <trkpt lat="50.46743" lon="3.45454">
        <ele>17</ele>
        <time>2022-04-03T08:49:40.000Z</time>
      </trkpt>
      <trkpt lat="50.46741" lon="3.45464">
        <ele>17</ele>
        <time>2022-04-03T08:49:42.000Z</time>
      </trkpt>
      <trkpt lat="50.46735" lon="3.45467">
        <ele>17</ele>
        <time>2022-04-03T08:49:44.650Z</time>
      </trkpt>
      <trkpt lat="50.46732" lon="3.45475">
        <ele>17</ele>
        <time>2022-04-03T08:49:47.007Z</time>
      </trkpt>
      <trkpt lat="50.46732" lon="3.45484">
        <ele>17</ele>
        <time>2022-04-03T08:49:49.000Z</time>
      </trkpt>
      <trkpt lat="50.46734" lon="3.45494">
        <ele>17</ele>
        <time>2022-04-03T08:49:51.000Z</time>
      </trkpt>
      <trkpt lat="50.46735" lon="3.45505">
        <ele>17.1</ele>
        <time>2022-04-03T08:49:53.000Z</time>
      </trkpt>
      <trkpt lat="50.46737" lon="3.45516">
        <ele>17.3</ele>
        <time>2022-04-03T08:49:55.047Z</time>
      </trkpt>
      <trkpt lat="50.46739" lon="3.45527">
        <ele>17.6</ele>
        <time>2022-04-03T08:49:57.000Z</time>
      </trkpt>
      <trkpt lat="50.46742" lon="3.45539">
        <ele>17.8</ele>
        <time>2022-04-03T08:49:59.000Z</time>
      </trkpt>
      <trkpt lat="50.46743" lon="3.45549">
        <ele>17.9</ele>
        <time>2022-04-03T08:50:01.000Z</time>
      </trkpt>
      <trkpt lat="50.46746" lon="3.45559">
        <ele>18</ele>
        <time>2022-04-03T08:50:03.000Z</time>
      </trkpt>
      <trkpt lat="50.46748" lon="3.45567">
        <ele>18</ele>
        <time>2022-04-03T08:50:04.887Z</time>
      </trkpt>
      <trkpt lat="50.4675" lon="3.45577">
        <ele>18</ele>
        <time>2022-04-03T08:50:07.000Z</time>
      </trkpt>
      <trkpt lat="50.46755" lon="3.4559">
        <ele>18.5</ele>
        <time>2022-04-03T08:50:10.000Z</time>
      </trkpt>
      <trkpt lat="50.46758" lon="3.45597">
        <ele>18.7</ele>
        <time>2022-04-03T08:50:12.029Z</time>
      </trkpt>
      <trkpt lat="50.46764" lon="3.45608">
        <ele>19.1</ele>
        <time>2022-04-03T08:50:15.066Z</time>
      </trkpt>
      <trkpt lat="50.46767" lon="3.45614">
        <ele>19.2</ele>
        <time>2022-04-03T08:50:16.848Z</time>
      </trkpt>
      <trkpt lat="50.46771" lon="3.45622">
        <ele>19.2</ele>
        <time>2022-04-03T08:50:19.093Z</time>
      </trkpt>
      <trkpt lat="50.46774" lon="3.45629">
        <ele>19.2</ele>
        <time>2022-04-03T08:50:20.807Z</time>
      </trkpt>
      <trkpt lat="50.46777" lon="3.45636">
        <ele>19.1</ele>
        <time>2022-04-03T08:50:23.000Z</time>
      </trkpt>
      <trkpt lat="50.46781" lon="3.45644">
        <ele>19.6</ele>
        <time>2022-04-03T08:50:25.049Z</time>
      </trkpt>
      <trkpt lat="50.46784" lon="3.4565">
        <ele>19.9</ele>
        <time>2022-04-03T08:50:27.000Z</time>
      </trkpt>
      <trkpt lat="50.46787" lon="3.45657">
        <ele>19.9</ele>
        <time>2022-04-03T08:50:29.000Z</time>
      </trkpt>
      <trkpt lat="50.46791" lon="3.45664">
        <ele>19.7</ele>
        <time>2022-04-03T08:50:31.367Z</time>
      </trkpt>
      <trkpt lat="50.46795" lon="3.45672">
        <ele>19.5</ele>
        <time>2022-04-03T08:50:33.469Z</time>
      </trkpt>
      <trkpt lat="50.46801" lon="3.4568">
        <ele>19.8</ele>
        <time>2022-04-03T08:50:36.090Z</time>
      </trkpt>
      <trkpt lat="50.46804" lon="3.45686">
        <ele>19.9</ele>
        <time>2022-04-03T08:50:37.790Z</time>
      </trkpt>
      <trkpt lat="50.46808" lon="3.45693">
        <ele>20.1</ele>
        <time>2022-04-03T08:50:40.000Z</time>
      </trkpt>
      <trkpt lat="50.46812" lon="3.457">
        <ele>19.9</ele>
        <time>2022-04-03T08:50:42.000Z</time>
      </trkpt>
      <trkpt lat="50.46816" lon="3.45706">
        <ele>19.7</ele>
        <time>2022-04-03T08:50:44.000Z</time>
      </trkpt>
      <trkpt lat="50.46821" lon="3.45712">
        <ele>19.6</ele>
        <time>2022-04-03T08:50:45.889Z</time>
      </trkpt>
      <trkpt lat="50.46828" lon="3.45719">
        <ele>19.8</ele>
        <time>2022-04-03T08:50:48.000Z</time>
      </trkpt>
      <trkpt lat="50.46833" lon="3.45726">
        <ele>19.8</ele>
        <time>2022-04-03T08:50:50.056Z</time>
      </trkpt>
      <trkpt lat="50.46838" lon="3.45733">
        <ele>19.8</ele>
        <time>2022-04-03T08:50:51.967Z</time>
      </trkpt>
      <trkpt lat="50.46844" lon="3.45739">
        <ele>19.8</ele>
        <time>2022-04-03T08:50:54.000Z</time>
      </trkpt>
      <trkpt lat="50.4685" lon="3.45745">
        <ele>19.8</ele>
        <time>2022-04-03T08:50:56.000Z</time>
      </trkpt>
      <trkpt lat="50.46857" lon="3.45752">
        <ele>19.8</ele>
        <time>2022-04-03T08:50:58.000Z</time>
      </trkpt>
      <trkpt lat="50.46863" lon="3.4576">
        <ele>19.7</ele>
        <time>2022-04-03T08:51:00.000Z</time>
      </trkpt>
      <trkpt lat="50.46869" lon="3.45767">
        <ele>19.6</ele>
        <time>2022-04-03T08:51:02.000Z</time>
      </trkpt>
      <trkpt lat="50.46875" lon="3.45776">
        <ele>19.5</ele>
        <time>2022-04-03T08:51:04.000Z</time>
      </trkpt>
      <trkpt lat="50.46881" lon="3.45787">
        <ele>19.4</ele>
        <time>2022-04-03T08:51:06.088Z</time>
      </trkpt>
      <trkpt lat="50.46886" lon="3.45794">
        <ele>19.3</ele>
        <time>2022-04-03T08:51:08.000Z</time>
      </trkpt>
      <trkpt lat="50.46891" lon="3.45804">
        <ele>19.1</ele>
        <time>2022-04-03T08:51:10.228Z</time>
      </trkpt>
      <trkpt lat="50.46895" lon="3.45812">
        <ele>19</ele>
        <time>2022-04-03T08:51:12.000Z</time>
      </trkpt>
      <trkpt lat="50.469" lon="3.45821">
        <ele>19</ele>
        <time>2022-04-03T08:51:14.000Z</time>
      </trkpt>
      <trkpt lat="50.46905" lon="3.4583">
        <ele>19</ele>
        <time>2022-04-03T08:51:15.926Z</time>
      </trkpt>
      <trkpt lat="50.46911" lon="3.4584">
        <ele>19</ele>
        <time>2022-04-03T08:51:18.151Z</time>
      </trkpt>
      <trkpt lat="50.46916" lon="3.45851">
        <ele>19</ele>
        <time>2022-04-03T08:51:20.348Z</time>
      </trkpt>
      <trkpt lat="50.46922" lon="3.45862">
        <ele>19</ele>
        <time>2022-04-03T08:51:22.645Z</time>
      </trkpt>
      <trkpt lat="50.46926" lon="3.45868">
        <ele>18.8</ele>
        <time>2022-04-03T08:51:24.000Z</time>
      </trkpt>
      <trkpt lat="50.46932" lon="3.45877">
        <ele>18.7</ele>
        <time>2022-04-03T08:51:26.068Z</time>
      </trkpt>
      <trkpt lat="50.46936" lon="3.45883">
        <ele>18.8</ele>
        <time>2022-04-03T08:51:27.409Z</time>
      </trkpt>
      <trkpt lat="50.46939" lon="3.4589">
        <ele>18.8</ele>
        <time>2022-04-03T08:51:28.887Z</time>
      </trkpt>
      <trkpt lat="50.46945" lon="3.459">
        <ele>19</ele>
        <time>2022-04-03T08:51:31.000Z</time>
      </trkpt>
      <trkpt lat="50.4695" lon="3.4591">
        <ele>19</ele>
        <time>2022-04-03T08:51:33.000Z</time>
      </trkpt>
      <trkpt lat="50.46956" lon="3.45921">
        <ele>18.9</ele>
        <time>2022-04-03T08:51:35.000Z</time>
      </trkpt>
      <trkpt lat="50.46961" lon="3.45931">
        <ele>18.8</ele>
        <time>2022-04-03T08:51:37.000Z</time>
      </trkpt>
      <trkpt lat="50.46965" lon="3.45941">
        <ele>18.8</ele>
        <time>2022-04-03T08:51:39.000Z</time>
      </trkpt>
      <trkpt lat="50.4697" lon="3.45952">
        <ele>18.7</ele>
        <time>2022-04-03T08:51:41.000Z</time>
      </trkpt>
      <trkpt lat="50.46975" lon="3.45963">
        <ele>18.3</ele>
        <time>2022-04-03T08:51:42.978Z</time>
      </trkpt>
      <trkpt lat="50.46978" lon="3.45969">
        <ele>18.1</ele>
        <time>2022-04-03T08:51:43.987Z</time>
      </trkpt>
      <trkpt lat="50.4698" lon="3.45976">
        <ele>18</ele>
        <time>2022-04-03T08:51:45.000Z</time>
      </trkpt>
      <trkpt lat="50.46983" lon="3.45988">
        <ele>18</ele>
        <time>2022-04-03T08:51:47.000Z</time>
      </trkpt>
      <trkpt lat="50.46985" lon="3.45999">
        <ele>18</ele>
        <time>2022-04-03T08:51:48.589Z</time>
      </trkpt>
      <trkpt lat="50.46985" lon="3.46008">
        <ele>18</ele>
        <time>2022-04-03T08:51:50.000Z</time>
      </trkpt>
      <trkpt lat="50.46985" lon="3.46021">
        <ele>18</ele>
        <time>2022-04-03T08:51:51.867Z</time>
      </trkpt>
      <trkpt lat="50.46984" lon="3.46036">
        <ele>17.7</ele>
        <time>2022-04-03T08:51:54.009Z</time>
      </trkpt>
      <trkpt lat="50.46983" lon="3.46049">
        <ele>17.2</ele>
        <time>2022-04-03T08:51:56.000Z</time>
      </trkpt>
      <trkpt lat="50.46983" lon="3.46056">
        <ele>17</ele>
        <time>2022-04-03T08:51:56.991Z</time>
      </trkpt>
      <trkpt lat="50.46981" lon="3.46064">
        <ele>17.2</ele>
        <time>2022-04-03T08:51:58.000Z</time>
      </trkpt>
      <trkpt lat="50.46981" lon="3.46072">
        <ele>17.4</ele>
        <time>2022-04-03T08:51:59.000Z</time>
      </trkpt>
      <trkpt lat="50.4698" lon="3.46079">
        <ele>17.6</ele>
        <time>2022-04-03T08:52:00.000Z</time>
      </trkpt>
      <trkpt lat="50.46979" lon="3.46086">
        <ele>17.8</ele>
        <time>2022-04-03T08:52:01.000Z</time>
      </trkpt>
      <trkpt lat="50.46978" lon="3.46094">
        <ele>17.8</ele>
        <time>2022-04-03T08:52:02.000Z</time>
      </trkpt>
      <trkpt lat="50.46977" lon="3.46101">
        <ele>17.8</ele>
        <time>2022-04-03T08:52:03.000Z</time>
      </trkpt>
      <trkpt lat="50.46976" lon="3.46109">
        <ele>17.9</ele>
        <time>2022-04-03T08:52:04.000Z</time>
      </trkpt>
      <trkpt lat="50.46975" lon="3.46122">
        <ele>17.9</ele>
        <time>2022-04-03T08:52:06.000Z</time>
      </trkpt>
      <trkpt lat="50.46975" lon="3.46136">
        <ele>17.9</ele>
        <time>2022-04-03T08:52:08.000Z</time>
      </trkpt>
      <trkpt lat="50.46976" lon="3.46143">
        <ele>17.9</ele>
        <time>2022-04-03T08:52:09.000Z</time>
      </trkpt>
      <trkpt lat="50.46976" lon="3.46151">
        <ele>17.9</ele>
        <time>2022-04-03T08:52:10.000Z</time>
      </trkpt>
      <trkpt lat="50.46976" lon="3.46158">
        <ele>17.9</ele>
        <time>2022-04-03T08:52:11.000Z</time>
      </trkpt>
      <trkpt lat="50.46976" lon="3.46166">
        <ele>17.9</ele>
        <time>2022-04-03T08:52:12.000Z</time>
      </trkpt>
      <trkpt lat="50.46976" lon="3.46174">
        <ele>17.9</ele>
        <time>2022-04-03T08:52:13.000Z</time>
      </trkpt>
      <trkpt lat="50.46976" lon="3.46182">
        <ele>17.9</ele>
        <time>2022-04-03T08:52:14.000Z</time>
      </trkpt>
      <trkpt lat="50.46977" lon="3.46189">
        <ele>17.8</ele>
        <time>2022-04-03T08:52:15.000Z</time>
      </trkpt>
      <trkpt lat="50.46977" lon="3.46197">
        <ele>17.8</ele>
        <time>2022-04-03T08:52:16.000Z</time>
      </trkpt>
      <trkpt lat="50.46977" lon="3.46205">
        <ele>17.5</ele>
        <time>2022-04-03T08:52:17.000Z</time>
      </trkpt>
      <trkpt lat="50.46976" lon="3.46212">
        <ele>17.3</ele>
        <time>2022-04-03T08:52:18.000Z</time>
      </trkpt>
      <trkpt lat="50.46975" lon="3.46221">
        <ele>17</ele>
        <time>2022-04-03T08:52:19.000Z</time>
      </trkpt>
      <trkpt lat="50.46975" lon="3.46229">
        <ele>17</ele>
        <time>2022-04-03T08:52:20.000Z</time>
      </trkpt>
      <trkpt lat="50.46974" lon="3.46238">
        <ele>17</ele>
        <time>2022-04-03T08:52:21.000Z</time>
      </trkpt>
      <trkpt lat="50.46972" lon="3.46246">
        <ele>17</ele>
        <time>2022-04-03T08:52:22.000Z</time>
      </trkpt>
      <trkpt lat="50.46971" lon="3.46253">
        <ele>17</ele>
        <time>2022-04-03T08:52:23.000Z</time>
      </trkpt>
      <trkpt lat="50.4697" lon="3.46261">
        <ele>17</ele>
        <time>2022-04-03T08:52:24.000Z</time>
      </trkpt>
      <trkpt lat="50.46969" lon="3.46269">
        <ele>17</ele>
        <time>2022-04-03T08:52:25.000Z</time>
      </trkpt>
      <trkpt lat="50.46967" lon="3.46276">
        <ele>17</ele>
        <time>2022-04-03T08:52:26.000Z</time>
      </trkpt>
      <trkpt lat="50.46965" lon="3.46284">
        <ele>17</ele>
        <time>2022-04-03T08:52:27.000Z</time>
      </trkpt>
      <trkpt lat="50.46964" lon="3.46292">
        <ele>17</ele>
        <time>2022-04-03T08:52:28.000Z</time>
      </trkpt>
      <trkpt lat="50.46963" lon="3.463">
        <ele>17</ele>
        <time>2022-04-03T08:52:29.000Z</time>
      </trkpt>
      <trkpt lat="50.46963" lon="3.46309">
        <ele>17</ele>
        <time>2022-04-03T08:52:30.000Z</time>
      </trkpt>
      <trkpt lat="50.46964" lon="3.46318">
        <ele>17</ele>
        <time>2022-04-03T08:52:31.000Z</time>
      </trkpt>
      <trkpt lat="50.46967" lon="3.46325">
        <ele>17</ele>
        <time>2022-04-03T08:52:32.000Z</time>
      </trkpt>
      <trkpt lat="50.46971" lon="3.46332">
        <ele>17</ele>
        <time>2022-04-03T08:52:33.000Z</time>
      </trkpt>
      <trkpt lat="50.46976" lon="3.46337">
        <ele>17</ele>
        <time>2022-04-03T08:52:34.000Z</time>
      </trkpt>
      <trkpt lat="50.4698" lon="3.46342">
        <ele>17</ele>
        <time>2022-04-03T08:52:35.000Z</time>
      </trkpt>
      <trkpt lat="50.46985" lon="3.46348">
        <ele>17</ele>
        <time>2022-04-03T08:52:36.000Z</time>
      </trkpt>
      <trkpt lat="50.46989" lon="3.46353">
        <ele>17</ele>
        <time>2022-04-03T08:52:37.000Z</time>
      </trkpt>
      <trkpt lat="50.46994" lon="3.46358">
        <ele>17</ele>
        <time>2022-04-03T08:52:38.000Z</time>
      </trkpt>
      <trkpt lat="50.46998" lon="3.46364">
        <ele>17</ele>
        <time>2022-04-03T08:52:39.000Z</time>
      </trkpt>
      <trkpt lat="50.47001" lon="3.46369">
        <ele>17</ele>
        <time>2022-04-03T08:52:40.000Z</time>
      </trkpt>
      <trkpt lat="50.47005" lon="3.46375">
        <ele>17</ele>
        <time>2022-04-03T08:52:41.000Z</time>
      </trkpt>
      <trkpt lat="50.47009" lon="3.46381">
        <ele>17</ele>
        <time>2022-04-03T08:52:42.000Z</time>
      </trkpt>
      <trkpt lat="50.47013" lon="3.46387">
        <ele>17</ele>
        <time>2022-04-03T08:52:43.000Z</time>
      </trkpt>
      <trkpt lat="50.47016" lon="3.46394">
        <ele>17.1</ele>
        <time>2022-04-03T08:52:44.000Z</time>
      </trkpt>
      <trkpt lat="50.47019" lon="3.46401">
        <ele>17.3</ele>
        <time>2022-04-03T08:52:45.000Z</time>
      </trkpt>
      <trkpt lat="50.47022" lon="3.46408">
        <ele>17.5</ele>
        <time>2022-04-03T08:52:46.000Z</time>
      </trkpt>
      <trkpt lat="50.47024" lon="3.46415">
        <ele>17.8</ele>
        <time>2022-04-03T08:52:47.000Z</time>
      </trkpt>
      <trkpt lat="50.47026" lon="3.46422">
        <ele>18.1</ele>
        <time>2022-04-03T08:52:48.000Z</time>
      </trkpt>
      <trkpt lat="50.47028" lon="3.4643">
        <ele>18.5</ele>
        <time>2022-04-03T08:52:49.000Z</time>
      </trkpt>
      <trkpt lat="50.4703" lon="3.46437">
        <ele>18.5</ele>
        <time>2022-04-03T08:52:50.000Z</time>
      </trkpt>
      <trkpt lat="50.47031" lon="3.46444">
        <ele>18.6</ele>
        <time>2022-04-03T08:52:51.000Z</time>
      </trkpt>
      <trkpt lat="50.47032" lon="3.46451">
        <ele>18.4</ele>
        <time>2022-04-03T08:52:52.000Z</time>
      </trkpt>
      <trkpt lat="50.47033" lon="3.46458">
        <ele>18.1</ele>
        <time>2022-04-03T08:52:53.000Z</time>
      </trkpt>
      <trkpt lat="50.47035" lon="3.46471">
        <ele>17.8</ele>
        <time>2022-04-03T08:52:55.000Z</time>
      </trkpt>
      <trkpt lat="50.47037" lon="3.46482">
        <ele>17.3</ele>
        <time>2022-04-03T08:52:57.000Z</time>
      </trkpt>
      <trkpt lat="50.47038" lon="3.46491">
        <ele>17</ele>
        <time>2022-04-03T08:52:59.000Z</time>
      </trkpt>
      <trkpt lat="50.47038" lon="3.46503">
        <ele>16.7</ele>
        <time>2022-04-03T08:53:01.000Z</time>
      </trkpt>
      <trkpt lat="50.47039" lon="3.46514">
        <ele>16.9</ele>
        <time>2022-04-03T08:53:03.000Z</time>
      </trkpt>
      <trkpt lat="50.47038" lon="3.46527">
        <ele>17.2</ele>
        <time>2022-04-03T08:53:06.000Z</time>
      </trkpt>
      <trkpt lat="50.47036" lon="3.46539">
        <ele>17.7</ele>
        <time>2022-04-03T08:53:07.533Z</time>
      </trkpt>
      <trkpt lat="50.47034" lon="3.46546">
        <ele>18.1</ele>
        <time>2022-04-03T08:53:08.684Z</time>
      </trkpt>
      <trkpt lat="50.47032" lon="3.46554">
        <ele>18.5</ele>
        <time>2022-04-03T08:53:10.000Z</time>
      </trkpt>
      <trkpt lat="50.47029" lon="3.46565">
        <ele>18.9</ele>
        <time>2022-04-03T08:53:12.000Z</time>
      </trkpt>
      <trkpt lat="50.47026" lon="3.46575">
        <ele>18.9</ele>
        <time>2022-04-03T08:53:14.029Z</time>
      </trkpt>
      <trkpt lat="50.47022" lon="3.46584">
        <ele>18.5</ele>
        <time>2022-04-03T08:53:16.000Z</time>
      </trkpt>
      <trkpt lat="50.47019" lon="3.46592">
        <ele>17.9</ele>
        <time>2022-04-03T08:53:18.000Z</time>
      </trkpt>
      <trkpt lat="50.47016" lon="3.46599">
        <ele>17.5</ele>
        <time>2022-04-03T08:53:20.000Z</time>
      </trkpt>
      <trkpt lat="50.47014" lon="3.46606">
        <ele>17.2</ele>
        <time>2022-04-03T08:53:22.000Z</time>
      </trkpt>
      <trkpt lat="50.47011" lon="3.46612">
        <ele>17.1</ele>
        <time>2022-04-03T08:53:24.000Z</time>
      </trkpt>
      <trkpt lat="50.47008" lon="3.46619">
        <ele>17.8</ele>
        <time>2022-04-03T08:53:26.000Z</time>
      </trkpt>
      <trkpt lat="50.47005" lon="3.46626">
        <ele>18.8</ele>
        <time>2022-04-03T08:53:28.000Z</time>
      </trkpt>
      <trkpt lat="50.47001" lon="3.46633">
        <ele>20</ele>
        <time>2022-04-03T08:53:30.000Z</time>
      </trkpt>
      <trkpt lat="50.46999" lon="3.46642">
        <ele>20.5</ele>
        <time>2022-04-03T08:53:32.000Z</time>
      </trkpt>
      <trkpt lat="50.46998" lon="3.46653">
        <ele>19.2</ele>
        <time>2022-04-03T08:53:34.000Z</time>
      </trkpt>
      <trkpt lat="50.46995" lon="3.46668">
        <ele>17.6</ele>
        <time>2022-04-03T08:53:36.360Z</time>
      </trkpt>
      <trkpt lat="50.46994" lon="3.46676">
        <ele>17.6</ele>
        <time>2022-04-03T08:53:37.627Z</time>
      </trkpt>
      <trkpt lat="50.46993" lon="3.46685">
        <ele>17.7</ele>
        <time>2022-04-03T08:53:39.000Z</time>
      </trkpt>
      <trkpt lat="50.4699" lon="3.46698">
        <ele>17.8</ele>
        <time>2022-04-03T08:53:41.000Z</time>
      </trkpt>
      <trkpt lat="50.46989" lon="3.46705">
        <ele>18.1</ele>
        <time>2022-04-03T08:53:42.025Z</time>
      </trkpt>
      <trkpt lat="50.46989" lon="3.46718">
        <ele>18.6</ele>
        <time>2022-04-03T08:53:44.000Z</time>
      </trkpt>
      <trkpt lat="50.46991" lon="3.46732">
        <ele>18.9</ele>
        <time>2022-04-03T08:53:46.000Z</time>
      </trkpt>
      <trkpt lat="50.46994" lon="3.46742">
        <ele>19.2</ele>
        <time>2022-04-03T08:53:47.000Z</time>
      </trkpt>
      <trkpt lat="50.46997" lon="3.46749">
        <ele>19.6</ele>
        <time>2022-04-03T08:53:48.000Z</time>
      </trkpt>
      <trkpt lat="50.47" lon="3.46756">
        <ele>19.4</ele>
        <time>2022-04-03T08:53:49.000Z</time>
      </trkpt>
      <trkpt lat="50.47003" lon="3.46763">
        <ele>18.5</ele>
        <time>2022-04-03T08:53:50.000Z</time>
      </trkpt>
      <trkpt lat="50.47006" lon="3.4677">
        <ele>17.8</ele>
        <time>2022-04-03T08:53:51.000Z</time>
      </trkpt>
      <trkpt lat="50.4701" lon="3.46776">
        <ele>17.5</ele>
        <time>2022-04-03T08:53:52.000Z</time>
      </trkpt>
      <trkpt lat="50.47013" lon="3.46783">
        <ele>17.5</ele>
        <time>2022-04-03T08:53:53.000Z</time>
      </trkpt>
      <trkpt lat="50.47017" lon="3.46791">
        <ele>17.7</ele>
        <time>2022-04-03T08:53:54.000Z</time>
      </trkpt>
      <trkpt lat="50.4702" lon="3.46798">
        <ele>18</ele>
        <time>2022-04-03T08:53:55.000Z</time>
      </trkpt>
      <trkpt lat="50.47024" lon="3.46805">
        <ele>18.6</ele>
        <time>2022-04-03T08:53:56.000Z</time>
      </trkpt>
      <trkpt lat="50.47028" lon="3.46812">
        <ele>18.5</ele>
        <time>2022-04-03T08:53:57.000Z</time>
      </trkpt>
      <trkpt lat="50.47031" lon="3.46819">
        <ele>17.9</ele>
        <time>2022-04-03T08:53:58.000Z</time>
      </trkpt>
      <trkpt lat="50.47035" lon="3.46827">
        <ele>17.3</ele>
        <time>2022-04-03T08:53:59.000Z</time>
      </trkpt>
      <trkpt lat="50.47039" lon="3.46834">
        <ele>17</ele>
        <time>2022-04-03T08:54:00.000Z</time>
      </trkpt>
      <trkpt lat="50.47042" lon="3.46842">
        <ele>16.8</ele>
        <time>2022-04-03T08:54:01.000Z</time>
      </trkpt>
      <trkpt lat="50.47046" lon="3.46849">
        <ele>16.8</ele>
        <time>2022-04-03T08:54:02.000Z</time>
      </trkpt>
      <trkpt lat="50.47049" lon="3.46857">
        <ele>16.8</ele>
        <time>2022-04-03T08:54:03.000Z</time>
      </trkpt>
      <trkpt lat="50.47052" lon="3.46865">
        <ele>16.9</ele>
        <time>2022-04-03T08:54:04.000Z</time>
      </trkpt>
      <trkpt lat="50.47055" lon="3.46873">
        <ele>17</ele>
        <time>2022-04-03T08:54:05.000Z</time>
      </trkpt>
      <trkpt lat="50.47059" lon="3.46881">
        <ele>17</ele>
        <time>2022-04-03T08:54:06.000Z</time>
      </trkpt>
      <trkpt lat="50.47062" lon="3.46888">
        <ele>17</ele>
        <time>2022-04-03T08:54:07.000Z</time>
      </trkpt>
      <trkpt lat="50.47064" lon="3.46897">
        <ele>16.8</ele>
        <time>2022-04-03T08:54:08.000Z</time>
      </trkpt>
      <trkpt lat="50.47065" lon="3.46906">
        <ele>16.6</ele>
        <time>2022-04-03T08:54:09.000Z</time>
      </trkpt>
      <trkpt lat="50.47065" lon="3.46914">
        <ele>16.4</ele>
        <time>2022-04-03T08:54:10.000Z</time>
      </trkpt>
      <trkpt lat="50.47064" lon="3.46923">
        <ele>16.3</ele>
        <time>2022-04-03T08:54:11.000Z</time>
      </trkpt>
      <trkpt lat="50.47063" lon="3.46932">
        <ele>16.3</ele>
        <time>2022-04-03T08:54:12.000Z</time>
      </trkpt>
      <trkpt lat="50.47061" lon="3.4694">
        <ele>16.2</ele>
        <time>2022-04-03T08:54:13.000Z</time>
      </trkpt>
      <trkpt lat="50.47059" lon="3.46948">
        <ele>16.2</ele>
        <time>2022-04-03T08:54:14.000Z</time>
      </trkpt>
      <trkpt lat="50.47057" lon="3.46957">
        <ele>16.5</ele>
        <time>2022-04-03T08:54:15.000Z</time>
      </trkpt>
      <trkpt lat="50.47056" lon="3.46964">
        <ele>16.7</ele>
        <time>2022-04-03T08:54:16.000Z</time>
      </trkpt>
      <trkpt lat="50.47053" lon="3.46971">
        <ele>17</ele>
        <time>2022-04-03T08:54:17.000Z</time>
      </trkpt>
      <trkpt lat="50.47051" lon="3.46978">
        <ele>17</ele>
        <time>2022-04-03T08:54:18.000Z</time>
      </trkpt>
      <trkpt lat="50.47048" lon="3.46991">
        <ele>17</ele>
        <time>2022-04-03T08:54:20.000Z</time>
      </trkpt>
      <trkpt lat="50.47044" lon="3.47003">
        <ele>17</ele>
        <time>2022-04-03T08:54:22.000Z</time>
      </trkpt>
      <trkpt lat="50.4704" lon="3.47015">
        <ele>17</ele>
        <time>2022-04-03T08:54:24.000Z</time>
      </trkpt>
      <trkpt lat="50.47036" lon="3.47025">
        <ele>17</ele>
        <time>2022-04-03T08:54:26.000Z</time>
      </trkpt>
      <trkpt lat="50.47032" lon="3.47036">
        <ele>17</ele>
        <time>2022-04-03T08:54:28.000Z</time>
      </trkpt>
      <trkpt lat="50.4703" lon="3.47042">
        <ele>17</ele>
        <time>2022-04-03T08:54:29.000Z</time>
      </trkpt>
      <trkpt lat="50.47026" lon="3.47053">
        <ele>17</ele>
        <time>2022-04-03T08:54:31.000Z</time>
      </trkpt>
      <trkpt lat="50.47021" lon="3.47062">
        <ele>17.1</ele>
        <time>2022-04-03T08:54:33.000Z</time>
      </trkpt>
      <trkpt lat="50.47019" lon="3.47068">
        <ele>17.1</ele>
        <time>2022-04-03T08:54:34.000Z</time>
      </trkpt>
      <trkpt lat="50.47015" lon="3.47081">
        <ele>17.4</ele>
        <time>2022-04-03T08:54:35.986Z</time>
      </trkpt>
      <trkpt lat="50.47011" lon="3.47092">
        <ele>17.7</ele>
        <time>2022-04-03T08:54:38.129Z</time>
      </trkpt>
      <trkpt lat="50.47007" lon="3.47104">
        <ele>17.9</ele>
        <time>2022-04-03T08:54:40.047Z</time>
      </trkpt>
      <trkpt lat="50.47003" lon="3.47115">
        <ele>18</ele>
        <time>2022-04-03T08:54:42.000Z</time>
      </trkpt>
      <trkpt lat="50.46999" lon="3.47127">
        <ele>18</ele>
        <time>2022-04-03T08:54:43.970Z</time>
      </trkpt>
      <trkpt lat="50.46996" lon="3.47137">
        <ele>18</ele>
        <time>2022-04-03T08:54:46.000Z</time>
      </trkpt>
      <trkpt lat="50.46992" lon="3.47147">
        <ele>18</ele>
        <time>2022-04-03T08:54:48.000Z</time>
      </trkpt>
      <trkpt lat="50.46988" lon="3.47157">
        <ele>18</ele>
        <time>2022-04-03T08:54:50.000Z</time>
      </trkpt>
      <trkpt lat="50.46984" lon="3.47166">
        <ele>18</ele>
        <time>2022-04-03T08:54:52.000Z</time>
      </trkpt>
      <trkpt lat="50.46979" lon="3.47176">
        <ele>18</ele>
        <time>2022-04-03T08:54:54.286Z</time>
      </trkpt>
      <trkpt lat="50.46975" lon="3.47184">
        <ele>18</ele>
        <time>2022-04-03T08:54:56.000Z</time>
      </trkpt>
      <trkpt lat="50.46968" lon="3.47197">
        <ele>18</ele>
        <time>2022-04-03T08:54:58.726Z</time>
      </trkpt>
      <trkpt lat="50.46965" lon="3.47203">
        <ele>18</ele>
        <time>2022-04-03T08:55:00.000Z</time>
      </trkpt>
      <trkpt lat="50.46959" lon="3.47212">
        <ele>18</ele>
        <time>2022-04-03T08:55:02.004Z</time>
      </trkpt>
      <trkpt lat="50.46952" lon="3.47225">
        <ele>18</ele>
        <time>2022-04-03T08:55:04.648Z</time>
      </trkpt>
      <trkpt lat="50.46948" lon="3.47231">
        <ele>18</ele>
        <time>2022-04-03T08:55:06.008Z</time>
      </trkpt>
      <trkpt lat="50.46942" lon="3.47241">
        <ele>18</ele>
        <time>2022-04-03T08:55:08.000Z</time>
      </trkpt>
      <trkpt lat="50.46937" lon="3.4725">
        <ele>18</ele>
        <time>2022-04-03T08:55:09.986Z</time>
      </trkpt>
      <trkpt lat="50.46931" lon="3.47258">
        <ele>18</ele>
        <time>2022-04-03T08:55:12.005Z</time>
      </trkpt>
      <trkpt lat="50.46926" lon="3.47265">
        <ele>18</ele>
        <time>2022-04-03T08:55:13.407Z</time>
      </trkpt>
      <trkpt lat="50.46921" lon="3.47272">
        <ele>18</ele>
        <time>2022-04-03T08:55:15.000Z</time>
      </trkpt>
      <trkpt lat="50.46915" lon="3.47281">
        <ele>17.9</ele>
        <time>2022-04-03T08:55:16.868Z</time>
      </trkpt>
      <trkpt lat="50.46911" lon="3.47285">
        <ele>17.8</ele>
        <time>2022-04-03T08:55:18.000Z</time>
      </trkpt>
      <trkpt lat="50.46903" lon="3.47295">
        <ele>17.5</ele>
        <time>2022-04-03T08:55:20.175Z</time>
      </trkpt>
      <trkpt lat="50.46896" lon="3.47302">
        <ele>17.3</ele>
        <time>2022-04-03T08:55:22.000Z</time>
      </trkpt>
      <trkpt lat="50.46891" lon="3.47305">
        <ele>17.1</ele>
        <time>2022-04-03T08:55:23.000Z</time>
      </trkpt>
      <trkpt lat="50.46887" lon="3.47309">
        <ele>17</ele>
        <time>2022-04-03T08:55:24.000Z</time>
      </trkpt>
      <trkpt lat="50.46882" lon="3.47312">
        <ele>17</ele>
        <time>2022-04-03T08:55:25.000Z</time>
      </trkpt>
      <trkpt lat="50.46878" lon="3.47316">
        <ele>17</ele>
        <time>2022-04-03T08:55:26.000Z</time>
      </trkpt>
      <trkpt lat="50.46874" lon="3.4732">
        <ele>17</ele>
        <time>2022-04-03T08:55:27.000Z</time>
      </trkpt>
      <trkpt lat="50.46871" lon="3.47325">
        <ele>17</ele>
        <time>2022-04-03T08:55:28.000Z</time>
      </trkpt>
      <trkpt lat="50.46869" lon="3.47332">
        <ele>17</ele>
        <time>2022-04-03T08:55:29.000Z</time>
      </trkpt>
      <trkpt lat="50.46867" lon="3.47338">
        <ele>17</ele>
        <time>2022-04-03T08:55:30.000Z</time>
      </trkpt>
      <trkpt lat="50.46867" lon="3.47346">
        <ele>17</ele>
        <time>2022-04-03T08:55:31.000Z</time>
      </trkpt>
      <trkpt lat="50.46866" lon="3.47355">
        <ele>17</ele>
        <time>2022-04-03T08:55:32.000Z</time>
      </trkpt>
      <trkpt lat="50.46867" lon="3.47363">
        <ele>17</ele>
        <time>2022-04-03T08:55:33.000Z</time>
      </trkpt>
      <trkpt lat="50.46869" lon="3.4737">
        <ele>17.1</ele>
        <time>2022-04-03T08:55:34.000Z</time>
      </trkpt>
      <trkpt lat="50.46871" lon="3.47377">
        <ele>17.2</ele>
        <time>2022-04-03T08:55:35.000Z</time>
      </trkpt>
      <trkpt lat="50.46874" lon="3.47384">
        <ele>17.4</ele>
        <time>2022-04-03T08:55:36.000Z</time>
      </trkpt>
      <trkpt lat="50.46877" lon="3.4739">
        <ele>17.6</ele>
        <time>2022-04-03T08:55:37.000Z</time>
      </trkpt>
      <trkpt lat="50.4688" lon="3.47396">
        <ele>17.7</ele>
        <time>2022-04-03T08:55:38.000Z</time>
      </trkpt>
      <trkpt lat="50.46883" lon="3.47402">
        <ele>17.8</ele>
        <time>2022-04-03T08:55:39.000Z</time>
      </trkpt>
      <trkpt lat="50.46885" lon="3.47408">
        <ele>17.9</ele>
        <time>2022-04-03T08:55:40.000Z</time>
      </trkpt>
      <trkpt lat="50.4689" lon="3.47419">
        <ele>17.9</ele>
        <time>2022-04-03T08:55:42.000Z</time>
      </trkpt>
      <trkpt lat="50.46895" lon="3.4743">
        <ele>17.5</ele>
        <time>2022-04-03T08:55:44.000Z</time>
      </trkpt>
      <trkpt lat="50.46898" lon="3.47439">
        <ele>17.2</ele>
        <time>2022-04-03T08:55:46.000Z</time>
      </trkpt>
      <trkpt lat="50.469" lon="3.47451">
        <ele>17</ele>
        <time>2022-04-03T08:55:48.000Z</time>
      </trkpt>
      <trkpt lat="50.46901" lon="3.47463">
        <ele>17</ele>
        <time>2022-04-03T08:55:50.000Z</time>
      </trkpt>
      <trkpt lat="50.46902" lon="3.47474">
        <ele>17</ele>
        <time>2022-04-03T08:55:52.000Z</time>
      </trkpt>
      <trkpt lat="50.46899" lon="3.4748">
        <ele>17.1</ele>
        <time>2022-04-03T08:55:53.000Z</time>
      </trkpt>
      <trkpt lat="50.46894" lon="3.47491">
        <ele>17.1</ele>
        <time>2022-04-03T08:55:54.579Z</time>
      </trkpt>
      <trkpt lat="50.46891" lon="3.47499">
        <ele>17.1</ele>
        <time>2022-04-03T08:55:55.791Z</time>
      </trkpt>
      <trkpt lat="50.46889" lon="3.47507">
        <ele>17</ele>
        <time>2022-04-03T08:55:56.991Z</time>
      </trkpt>
      <trkpt lat="50.46883" lon="3.47522">
        <ele>17</ele>
        <time>2022-04-03T08:55:59.688Z</time>
      </trkpt>
      <trkpt lat="50.46881" lon="3.47528">
        <ele>17</ele>
        <time>2022-04-03T08:56:00.870Z</time>
      </trkpt>
      <trkpt lat="50.46878" lon="3.4754">
        <ele>17.3</ele>
        <time>2022-04-03T08:56:03.000Z</time>
      </trkpt>
      <trkpt lat="50.46874" lon="3.4755">
        <ele>17.4</ele>
        <time>2022-04-03T08:56:05.000Z</time>
      </trkpt>
      <trkpt lat="50.46871" lon="3.47562">
        <ele>17.4</ele>
        <time>2022-04-03T08:56:07.071Z</time>
      </trkpt>
      <trkpt lat="50.46867" lon="3.4757">
        <ele>17.2</ele>
        <time>2022-04-03T08:56:08.889Z</time>
      </trkpt>
      <trkpt lat="50.46865" lon="3.47581">
        <ele>17.1</ele>
        <time>2022-04-03T08:56:11.113Z</time>
      </trkpt>
      <trkpt lat="50.46861" lon="3.4759">
        <ele>17</ele>
        <time>2022-04-03T08:56:12.969Z</time>
      </trkpt>
      <trkpt lat="50.46857" lon="3.476">
        <ele>17</ele>
        <time>2022-04-03T08:56:15.051Z</time>
      </trkpt>
      <trkpt lat="50.46855" lon="3.47606">
        <ele>17</ele>
        <time>2022-04-03T08:56:16.448Z</time>
      </trkpt>
      <trkpt lat="50.46851" lon="3.47615">
        <ele>17.1</ele>
        <time>2022-04-03T08:56:18.589Z</time>
      </trkpt>
      <trkpt lat="50.46848" lon="3.47626">
        <ele>17.3</ele>
        <time>2022-04-03T08:56:21.000Z</time>
      </trkpt>
      <trkpt lat="50.46845" lon="3.47635">
        <ele>17.4</ele>
        <time>2022-04-03T08:56:23.000Z</time>
      </trkpt>
      <trkpt lat="50.46841" lon="3.47644">
        <ele>17.4</ele>
        <time>2022-04-03T08:56:25.000Z</time>
      </trkpt>
      <trkpt lat="50.46836" lon="3.47652">
        <ele>17.5</ele>
        <time>2022-04-03T08:56:27.088Z</time>
      </trkpt>
      <trkpt lat="50.46832" lon="3.4766">
        <ele>17.7</ele>
        <time>2022-04-03T08:56:28.731Z</time>
      </trkpt>
      <trkpt lat="50.4683" lon="3.47665">
        <ele>17.8</ele>
        <time>2022-04-03T08:56:30.000Z</time>
      </trkpt>
      <trkpt lat="50.46825" lon="3.47674">
        <ele>17.7</ele>
        <time>2022-04-03T08:56:32.000Z</time>
      </trkpt>
      <trkpt lat="50.46818" lon="3.47686">
        <ele>17.4</ele>
        <time>2022-04-03T08:56:34.932Z</time>
      </trkpt>
      <trkpt lat="50.46813" lon="3.47695">
        <ele>17.3</ele>
        <time>2022-04-03T08:56:37.000Z</time>
      </trkpt>
      <trkpt lat="50.46808" lon="3.47704">
        <ele>17.4</ele>
        <time>2022-04-03T08:56:38.952Z</time>
      </trkpt>
      <trkpt lat="50.46804" lon="3.47713">
        <ele>17.6</ele>
        <time>2022-04-03T08:56:41.000Z</time>
      </trkpt>
      <trkpt lat="50.468" lon="3.47721">
        <ele>17.8</ele>
        <time>2022-04-03T08:56:43.000Z</time>
      </trkpt>
      <trkpt lat="50.46795" lon="3.47734">
        <ele>17.8</ele>
        <time>2022-04-03T08:56:45.584Z</time>
      </trkpt>
      <trkpt lat="50.46792" lon="3.47741">
        <ele>17.8</ele>
        <time>2022-04-03T08:56:47.068Z</time>
      </trkpt>
      <trkpt lat="50.46788" lon="3.4775">
        <ele>18</ele>
        <time>2022-04-03T08:56:48.585Z</time>
      </trkpt>
      <trkpt lat="50.46782" lon="3.47762">
        <ele>18</ele>
        <time>2022-04-03T08:56:51.000Z</time>
      </trkpt>
      <trkpt lat="50.46779" lon="3.47771">
        <ele>18</ele>
        <time>2022-04-03T08:56:52.731Z</time>
      </trkpt>
      <trkpt lat="50.46775" lon="3.47778">
        <ele>17.9</ele>
        <time>2022-04-03T08:56:54.129Z</time>
      </trkpt>
      <trkpt lat="50.46771" lon="3.47785">
        <ele>17.8</ele>
        <time>2022-04-03T08:56:55.580Z</time>
      </trkpt>
      <trkpt lat="50.46768" lon="3.47791">
        <ele>17.8</ele>
        <time>2022-04-03T08:56:56.831Z</time>
      </trkpt>
      <trkpt lat="50.46764" lon="3.47796">
        <ele>17.8</ele>
        <time>2022-04-03T08:56:57.892Z</time>
      </trkpt>
      <trkpt lat="50.4676" lon="3.47804">
        <ele>18</ele>
        <time>2022-04-03T08:56:59.313Z</time>
      </trkpt>
      <trkpt lat="50.46755" lon="3.47812">
        <ele>18</ele>
        <time>2022-04-03T08:57:00.771Z</time>
      </trkpt>
      <trkpt lat="50.46751" lon="3.47818">
        <ele>18</ele>
        <time>2022-04-03T08:57:01.952Z</time>
      </trkpt>
      <trkpt lat="50.46748" lon="3.47823">
        <ele>18</ele>
        <time>2022-04-03T08:57:03.011Z</time>
      </trkpt>
      <trkpt lat="50.46742" lon="3.47833">
        <ele>18</ele>
        <time>2022-04-03T08:57:05.110Z</time>
      </trkpt>
      <trkpt lat="50.46736" lon="3.47843">
        <ele>18</ele>
        <time>2022-04-03T08:57:07.030Z</time>
      </trkpt>
      <trkpt lat="50.46731" lon="3.47851">
        <ele>18</ele>
        <time>2022-04-03T08:57:09.000Z</time>
      </trkpt>
      <trkpt lat="50.46725" lon="3.4786">
        <ele>18</ele>
        <time>2022-04-03T08:57:11.000Z</time>
      </trkpt>
      <trkpt lat="50.4672" lon="3.47867">
        <ele>18</ele>
        <time>2022-04-03T08:57:13.000Z</time>
      </trkpt>
      <trkpt lat="50.46713" lon="3.47875">
        <ele>18</ele>
        <time>2022-04-03T08:57:15.000Z</time>
      </trkpt>
      <trkpt lat="50.46707" lon="3.47883">
        <ele>18</ele>
        <time>2022-04-03T08:57:17.000Z</time>
      </trkpt>
      <trkpt lat="50.46703" lon="3.47888">
        <ele>18</ele>
        <time>2022-04-03T08:57:18.184Z</time>
      </trkpt>
      <trkpt lat="50.467" lon="3.47893">
        <ele>18</ele>
        <time>2022-04-03T08:57:19.368Z</time>
      </trkpt>
      <trkpt lat="50.46698" lon="3.479">
        <ele>18</ele>
        <time>2022-04-03T08:57:20.630Z</time>
      </trkpt>
      <trkpt lat="50.46701" lon="3.47908">
        <ele>18</ele>
        <time>2022-04-03T08:57:22.000Z</time>
      </trkpt>
      <trkpt lat="50.46705" lon="3.47914">
        <ele>18</ele>
        <time>2022-04-03T08:57:23.000Z</time>
      </trkpt>
      <trkpt lat="50.46708" lon="3.4792">
        <ele>18</ele>
        <time>2022-04-03T08:57:23.971Z</time>
      </trkpt>
      <trkpt lat="50.46713" lon="3.47932">
        <ele>18</ele>
        <time>2022-04-03T08:57:26.000Z</time>
      </trkpt>
      <trkpt lat="50.46718" lon="3.47942">
        <ele>18</ele>
        <time>2022-04-03T08:57:27.892Z</time>
      </trkpt>
      <trkpt lat="50.46722" lon="3.47952">
        <ele>18.3</ele>
        <time>2022-04-03T08:57:30.000Z</time>
      </trkpt>
      <trkpt lat="50.46725" lon="3.47961">
        <ele>18.6</ele>
        <time>2022-04-03T08:57:32.000Z</time>
      </trkpt>
      <trkpt lat="50.46728" lon="3.47971">
        <ele>19</ele>
        <time>2022-04-03T08:57:34.000Z</time>
      </trkpt>
      <trkpt lat="50.46732" lon="3.47979">
        <ele>19.1</ele>
        <time>2022-04-03T08:57:36.000Z</time>
      </trkpt>
      <trkpt lat="50.46735" lon="3.47991">
        <ele>19.3</ele>
        <time>2022-04-03T08:57:38.584Z</time>
      </trkpt>
      <trkpt lat="50.46739" lon="3.48001">
        <ele>19.6</ele>
        <time>2022-04-03T08:57:41.090Z</time>
      </trkpt>
      <trkpt lat="50.46742" lon="3.48011">
        <ele>19.8</ele>
        <time>2022-04-03T08:57:42.930Z</time>
      </trkpt>
      <trkpt lat="50.46745" lon="3.48019">
        <ele>19.9</ele>
        <time>2022-04-03T08:57:45.000Z</time>
      </trkpt>
      <trkpt lat="50.4675" lon="3.48033">
        <ele>20</ele>
        <time>2022-04-03T08:57:47.810Z</time>
      </trkpt>
      <trkpt lat="50.46755" lon="3.48045">
        <ele>20</ele>
        <time>2022-04-03T08:57:50.872Z</time>
      </trkpt>
      <trkpt lat="50.4676" lon="3.48054">
        <ele>20</ele>
        <time>2022-04-03T08:57:53.000Z</time>
      </trkpt>
      <trkpt lat="50.46765" lon="3.48062">
        <ele>20.1</ele>
        <time>2022-04-03T08:57:55.131Z</time>
      </trkpt>
      <trkpt lat="50.4677" lon="3.48069">
        <ele>20.3</ele>
        <time>2022-04-03T08:57:57.180Z</time>
      </trkpt>
      <trkpt lat="50.46773" lon="3.48074">
        <ele>20.5</ele>
        <time>2022-04-03T08:57:58.751Z</time>
      </trkpt>
      <trkpt lat="50.46779" lon="3.48082">
        <ele>21</ele>
        <time>2022-04-03T08:58:01.000Z</time>
      </trkpt>
      <trkpt lat="50.46783" lon="3.4809">
        <ele>21.2</ele>
        <time>2022-04-03T08:58:03.000Z</time>
      </trkpt>
      <trkpt lat="50.46788" lon="3.48097">
        <ele>21.5</ele>
        <time>2022-04-03T08:58:05.009Z</time>
      </trkpt>
      <trkpt lat="50.46795" lon="3.48106">
        <ele>21.8</ele>
        <time>2022-04-03T08:58:07.772Z</time>
      </trkpt>
      <trkpt lat="50.468" lon="3.48114">
        <ele>22.1</ele>
        <time>2022-04-03T08:58:10.000Z</time>
      </trkpt>
      <trkpt lat="50.46804" lon="3.48122">
        <ele>22.4</ele>
        <time>2022-04-03T08:58:12.000Z</time>
      </trkpt>
      <trkpt lat="50.46809" lon="3.4813">
        <ele>22.7</ele>
        <time>2022-04-03T08:58:14.142Z</time>
      </trkpt>
      <trkpt lat="50.46814" lon="3.48138">
        <ele>23</ele>
        <time>2022-04-03T08:58:16.160Z</time>
      </trkpt>
      <trkpt lat="50.46818" lon="3.48144">
        <ele>23.2</ele>
        <time>2022-04-03T08:58:17.848Z</time>
      </trkpt>
      <trkpt lat="50.46823" lon="3.48152">
        <ele>23.5</ele>
        <time>2022-04-03T08:58:20.089Z</time>
      </trkpt>
      <trkpt lat="50.46827" lon="3.48159">
        <ele>23.7</ele>
        <time>2022-04-03T08:58:22.000Z</time>
      </trkpt>
      <trkpt lat="50.46832" lon="3.48166">
        <ele>24</ele>
        <time>2022-04-03T08:58:24.175Z</time>
      </trkpt>
      <trkpt lat="50.46837" lon="3.48175">
        <ele>24.3</ele>
        <time>2022-04-03T08:58:26.591Z</time>
      </trkpt>
      <trkpt lat="50.46842" lon="3.48183">
        <ele>24.6</ele>
        <time>2022-04-03T08:58:29.031Z</time>
      </trkpt>
      <trkpt lat="50.46846" lon="3.4819">
        <ele>24.8</ele>
        <time>2022-04-03T08:58:31.000Z</time>
      </trkpt>
      <trkpt lat="50.46852" lon="3.48199">
        <ele>25</ele>
        <time>2022-04-03T08:58:34.000Z</time>
      </trkpt>
      <trkpt lat="50.46856" lon="3.48205">
        <ele>25</ele>
        <time>2022-04-03T08:58:36.000Z</time>
      </trkpt>
      <trkpt lat="50.46859" lon="3.48212">
        <ele>25</ele>
        <time>2022-04-03T08:58:38.000Z</time>
      </trkpt>
      <trkpt lat="50.46866" lon="3.48222">
        <ele>25</ele>
        <time>2022-04-03T08:58:41.000Z</time>
      </trkpt>
      <trkpt lat="50.46869" lon="3.48229">
        <ele>25.1</ele>
        <time>2022-04-03T08:58:43.000Z</time>
      </trkpt>
      <trkpt lat="50.46873" lon="3.48235">
        <ele>25.2</ele>
        <time>2022-04-03T08:58:45.000Z</time>
      </trkpt>
      <trkpt lat="50.46874" lon="3.48243">
        <ele>25.3</ele>
        <time>2022-04-03T08:58:47.000Z</time>
      </trkpt>
      <trkpt lat="50.46878" lon="3.48249">
        <ele>25.6</ele>
        <time>2022-04-03T08:58:50.000Z</time>
      </trkpt>
      <trkpt lat="50.46884" lon="3.48253">
        <ele>25.8</ele>
        <time>2022-04-03T08:58:53.164Z</time>
      </trkpt>
      <trkpt lat="50.46889" lon="3.48261">
        <ele>26</ele>
        <time>2022-04-03T08:58:56.000Z</time>
      </trkpt>
      <trkpt lat="50.46892" lon="3.48269">
        <ele>26.1</ele>
        <time>2022-04-03T08:58:58.000Z</time>
      </trkpt>
      <trkpt lat="50.46894" lon="3.48278">
        <ele>26.2</ele>
        <time>2022-04-03T08:59:00.000Z</time>
      </trkpt>
      <trkpt lat="50.46897" lon="3.48287">
        <ele>26.5</ele>
        <time>2022-04-03T08:59:02.000Z</time>
      </trkpt>
      <trkpt lat="50.469" lon="3.48296">
        <ele>26.8</ele>
        <time>2022-04-03T08:59:04.000Z</time>
      </trkpt>
      <trkpt lat="50.46902" lon="3.48305">
        <ele>27</ele>
        <time>2022-04-03T08:59:06.000Z</time>
      </trkpt>
      <trkpt lat="50.46905" lon="3.48314">
        <ele>27</ele>
        <time>2022-04-03T08:59:08.000Z</time>
      </trkpt>
      <trkpt lat="50.46908" lon="3.48327">
        <ele>27</ele>
        <time>2022-04-03T08:59:10.892Z</time>
      </trkpt>
      <trkpt lat="50.46911" lon="3.48334">
        <ele>27</ele>
        <time>2022-04-03T08:59:12.873Z</time>
      </trkpt>
      <trkpt lat="50.46914" lon="3.48343">
        <ele>27.3</ele>
        <time>2022-04-03T08:59:14.868Z</time>
      </trkpt>
      <trkpt lat="50.46917" lon="3.48351">
        <ele>27.6</ele>
        <time>2022-04-03T08:59:17.000Z</time>
      </trkpt>
      <trkpt lat="50.4692" lon="3.48359">
        <ele>27.9</ele>
        <time>2022-04-03T08:59:19.000Z</time>
      </trkpt>
      <trkpt lat="50.46924" lon="3.48371">
        <ele>28</ele>
        <time>2022-04-03T08:59:21.952Z</time>
      </trkpt>
      <trkpt lat="50.46926" lon="3.48378">
        <ele>28</ele>
        <time>2022-04-03T08:59:23.589Z</time>
      </trkpt>
      <trkpt lat="50.46929" lon="3.48388">
        <ele>28</ele>
        <time>2022-04-03T08:59:26.000Z</time>
      </trkpt>
      <trkpt lat="50.46935" lon="3.484">
        <ele>28.1</ele>
        <time>2022-04-03T08:59:29.030Z</time>
      </trkpt>
      <trkpt lat="50.46938" lon="3.48407">
        <ele>28.2</ele>
        <time>2022-04-03T08:59:31.000Z</time>
      </trkpt>
      <trkpt lat="50.4694" lon="3.48415">
        <ele>28.2</ele>
        <time>2022-04-03T08:59:33.000Z</time>
      </trkpt>
      <trkpt lat="50.46943" lon="3.48422">
        <ele>28.2</ele>
        <time>2022-04-03T08:59:35.000Z</time>
      </trkpt>
      <trkpt lat="50.46946" lon="3.4843">
        <ele>28.5</ele>
        <time>2022-04-03T08:59:37.000Z</time>
      </trkpt>
      <trkpt lat="50.4695" lon="3.48442">
        <ele>28.9</ele>
        <time>2022-04-03T08:59:40.000Z</time>
      </trkpt>
      <trkpt lat="50.46953" lon="3.48449">
        <ele>29</ele>
        <time>2022-04-03T08:59:42.000Z</time>
      </trkpt>
      <trkpt lat="50.46956" lon="3.48456">
        <ele>29</ele>
        <time>2022-04-03T08:59:44.000Z</time>
      </trkpt>
      <trkpt lat="50.46961" lon="3.48466">
        <ele>29</ele>
        <time>2022-04-03T08:59:46.770Z</time>
      </trkpt>
      <trkpt lat="50.46966" lon="3.48473">
        <ele>29</ele>
        <time>2022-04-03T08:59:49.000Z</time>
      </trkpt>
      <trkpt lat="50.46969" lon="3.4848">
        <ele>29.3</ele>
        <time>2022-04-03T08:59:50.829Z</time>
      </trkpt>
      <trkpt lat="50.46973" lon="3.48487">
        <ele>29.5</ele>
        <time>2022-04-03T08:59:53.000Z</time>
      </trkpt>
      <trkpt lat="50.46977" lon="3.48494">
        <ele>29.8</ele>
        <time>2022-04-03T08:59:54.956Z</time>
      </trkpt>
      <trkpt lat="50.46981" lon="3.48501">
        <ele>30</ele>
        <time>2022-04-03T08:59:57.000Z</time>
      </trkpt>
      <trkpt lat="50.46986" lon="3.48508">
        <ele>30</ele>
        <time>2022-04-03T08:59:58.811Z</time>
      </trkpt>
      <trkpt lat="50.46991" lon="3.48516">
        <ele>30</ele>
        <time>2022-04-03T09:00:01.000Z</time>
      </trkpt>
      <trkpt lat="50.46996" lon="3.48524">
        <ele>30</ele>
        <time>2022-04-03T09:00:03.000Z</time>
      </trkpt>
      <trkpt lat="50.47" lon="3.48532">
        <ele>30</ele>
        <time>2022-04-03T09:00:04.930Z</time>
      </trkpt>
      <trkpt lat="50.47006" lon="3.48541">
        <ele>30</ele>
        <time>2022-04-03T09:00:07.000Z</time>
      </trkpt>
      <trkpt lat="50.4701" lon="3.48548">
        <ele>30</ele>
        <time>2022-04-03T09:00:09.000Z</time>
      </trkpt>
      <trkpt lat="50.47013" lon="3.48554">
        <ele>30</ele>
        <time>2022-04-03T09:00:10.411Z</time>
      </trkpt>
      <trkpt lat="50.47018" lon="3.48563">
        <ele>30</ele>
        <time>2022-04-03T09:00:12.728Z</time>
      </trkpt>
      <trkpt lat="50.47024" lon="3.48572">
        <ele>30</ele>
        <time>2022-04-03T09:00:15.000Z</time>
      </trkpt>
      <trkpt lat="50.47029" lon="3.4858">
        <ele>30</ele>
        <time>2022-04-03T09:00:17.000Z</time>
      </trkpt>
      <trkpt lat="50.47033" lon="3.48585">
        <ele>30</ele>
        <time>2022-04-03T09:00:18.586Z</time>
      </trkpt>
      <trkpt lat="50.47037" lon="3.48591">
        <ele>30</ele>
        <time>2022-04-03T09:00:20.010Z</time>
      </trkpt>
      <trkpt lat="50.47043" lon="3.48598">
        <ele>30</ele>
        <time>2022-04-03T09:00:22.000Z</time>
      </trkpt>
      <trkpt lat="50.47049" lon="3.48604">
        <ele>30</ele>
        <time>2022-04-03T09:00:23.968Z</time>
      </trkpt>
      <trkpt lat="50.47054" lon="3.48611">
        <ele>30</ele>
        <time>2022-04-03T09:00:26.000Z</time>
      </trkpt>
      <trkpt lat="50.47059" lon="3.48617">
        <ele>30.1</ele>
        <time>2022-04-03T09:00:28.000Z</time>
      </trkpt>
      <trkpt lat="50.47064" lon="3.48624">
        <ele>30.2</ele>
        <time>2022-04-03T09:00:30.000Z</time>
      </trkpt>
      <trkpt lat="50.47069" lon="3.48631">
        <ele>30.1</ele>
        <time>2022-04-03T09:00:32.000Z</time>
      </trkpt>
      <trkpt lat="50.47075" lon="3.48636">
        <ele>30.1</ele>
        <time>2022-04-03T09:00:34.000Z</time>
      </trkpt>
      <trkpt lat="50.47082" lon="3.48645">
        <ele>30</ele>
        <time>2022-04-03T09:00:36.528Z</time>
      </trkpt>
      <trkpt lat="50.47089" lon="3.48653">
        <ele>30</ele>
        <time>2022-04-03T09:00:39.000Z</time>
      </trkpt>
      <trkpt lat="50.47095" lon="3.48661">
        <ele>30</ele>
        <time>2022-04-03T09:00:41.000Z</time>
      </trkpt>
      <trkpt lat="50.47105" lon="3.48672">
        <ele>30</ele>
        <time>2022-04-03T09:00:44.012Z</time>
      </trkpt>
      <trkpt lat="50.47114" lon="3.48682">
        <ele>30</ele>
        <time>2022-04-03T09:00:46.651Z</time>
      </trkpt>
      <trkpt lat="50.47118" lon="3.48688">
        <ele>30</ele>
        <time>2022-04-03T09:00:48.000Z</time>
      </trkpt>
      <trkpt lat="50.47124" lon="3.48696">
        <ele>30</ele>
        <time>2022-04-03T09:00:49.858Z</time>
      </trkpt>
      <trkpt lat="50.47128" lon="3.48701">
        <ele>30</ele>
        <time>2022-04-03T09:00:51.000Z</time>
      </trkpt>
      <trkpt lat="50.47134" lon="3.48708">
        <ele>30</ele>
        <time>2022-04-03T09:00:52.951Z</time>
      </trkpt>
      <trkpt lat="50.47143" lon="3.4872">
        <ele>30</ele>
        <time>2022-04-03T09:00:55.692Z</time>
      </trkpt>
      <trkpt lat="50.47147" lon="3.48725">
        <ele>30</ele>
        <time>2022-04-03T09:00:56.968Z</time>
      </trkpt>
      <trkpt lat="50.47154" lon="3.48735">
        <ele>30</ele>
        <time>2022-04-03T09:00:59.071Z</time>
      </trkpt>
      <trkpt lat="50.47158" lon="3.48742">
        <ele>30</ele>
        <time>2022-04-03T09:01:00.492Z</time>
      </trkpt>
      <trkpt lat="50.47161" lon="3.48749">
        <ele>30</ele>
        <time>2022-04-03T09:01:01.628Z</time>
      </trkpt>
      <trkpt lat="50.47163" lon="3.48757">
        <ele>30</ele>
        <time>2022-04-03T09:01:02.911Z</time>
      </trkpt>
      <trkpt lat="50.47162" lon="3.48772">
        <ele>30</ele>
        <time>2022-04-03T09:01:05.112Z</time>
      </trkpt>
      <trkpt lat="50.47159" lon="3.48779">
        <ele>30</ele>
        <time>2022-04-03T09:01:06.067Z</time>
      </trkpt>
      <trkpt lat="50.47156" lon="3.48785">
        <ele>29.8</ele>
        <time>2022-04-03T09:01:07.091Z</time>
      </trkpt>
      <trkpt lat="50.47151" lon="3.48792">
        <ele>29.8</ele>
        <time>2022-04-03T09:01:08.492Z</time>
      </trkpt>
      <trkpt lat="50.47147" lon="3.48799">
        <ele>29.8</ele>
        <time>2022-04-03T09:01:09.811Z</time>
      </trkpt>
      <trkpt lat="50.47142" lon="3.48804">
        <ele>29.9</ele>
        <time>2022-04-03T09:01:10.974Z</time>
      </trkpt>
      <trkpt lat="50.47138" lon="3.48809">
        <ele>30</ele>
        <time>2022-04-03T09:01:12.000Z</time>
      </trkpt>
      <trkpt lat="50.47135" lon="3.48814">
        <ele>30</ele>
        <time>2022-04-03T09:01:13.000Z</time>
      </trkpt>
      <trkpt lat="50.47131" lon="3.48819">
        <ele>30</ele>
        <time>2022-04-03T09:01:14.011Z</time>
      </trkpt>
      <trkpt lat="50.47126" lon="3.48824">
        <ele>30</ele>
        <time>2022-04-03T09:01:15.000Z</time>
      </trkpt>
      <trkpt lat="50.47122" lon="3.48829">
        <ele>30</ele>
        <time>2022-04-03T09:01:16.000Z</time>
      </trkpt>
      <trkpt lat="50.47119" lon="3.48835">
        <ele>30</ele>
        <time>2022-04-03T09:01:17.000Z</time>
      </trkpt>
      <trkpt lat="50.47115" lon="3.4884">
        <ele>30</ele>
        <time>2022-04-03T09:01:18.000Z</time>
      </trkpt>
      <trkpt lat="50.47112" lon="3.48845">
        <ele>30</ele>
        <time>2022-04-03T09:01:19.000Z</time>
      </trkpt>
      <trkpt lat="50.47108" lon="3.48851">
        <ele>30</ele>
        <time>2022-04-03T09:01:20.000Z</time>
      </trkpt>
      <trkpt lat="50.47106" lon="3.48857">
        <ele>30</ele>
        <time>2022-04-03T09:01:21.000Z</time>
      </trkpt>
      <trkpt lat="50.47104" lon="3.48864">
        <ele>30</ele>
        <time>2022-04-03T09:01:22.000Z</time>
      </trkpt>
      <trkpt lat="50.47104" lon="3.48871">
        <ele>30</ele>
        <time>2022-04-03T09:01:23.000Z</time>
      </trkpt>
      <trkpt lat="50.47104" lon="3.48879">
        <ele>30</ele>
        <time>2022-04-03T09:01:24.000Z</time>
      </trkpt>
      <trkpt lat="50.47105" lon="3.48886">
        <ele>30</ele>
        <time>2022-04-03T09:01:25.000Z</time>
      </trkpt>
      <trkpt lat="50.47107" lon="3.48893">
        <ele>30</ele>
        <time>2022-04-03T09:01:26.000Z</time>
      </trkpt>
      <trkpt lat="50.47111" lon="3.489">
        <ele>30</ele>
        <time>2022-04-03T09:01:27.000Z</time>
      </trkpt>
      <trkpt lat="50.47114" lon="3.48906">
        <ele>29.9</ele>
        <time>2022-04-03T09:01:28.000Z</time>
      </trkpt>
      <trkpt lat="50.47117" lon="3.48911">
        <ele>29.8</ele>
        <time>2022-04-03T09:01:29.000Z</time>
      </trkpt>
      <trkpt lat="50.4712" lon="3.48917">
        <ele>29.7</ele>
        <time>2022-04-03T09:01:30.000Z</time>
      </trkpt>
      <trkpt lat="50.47124" lon="3.48923">
        <ele>29.6</ele>
        <time>2022-04-03T09:01:31.000Z</time>
      </trkpt>
      <trkpt lat="50.47127" lon="3.48928">
        <ele>29.7</ele>
        <time>2022-04-03T09:01:32.000Z</time>
      </trkpt>
      <trkpt lat="50.4713" lon="3.48934">
        <ele>29.7</ele>
        <time>2022-04-03T09:01:33.000Z</time>
      </trkpt>
      <trkpt lat="50.47133" lon="3.4894">
        <ele>29.9</ele>
        <time>2022-04-03T09:01:34.000Z</time>
      </trkpt>
      <trkpt lat="50.47137" lon="3.48946">
        <ele>30</ele>
        <time>2022-04-03T09:01:35.000Z</time>
      </trkpt>
      <trkpt lat="50.4714" lon="3.48951">
        <ele>30</ele>
        <time>2022-04-03T09:01:36.000Z</time>
      </trkpt>
      <trkpt lat="50.47143" lon="3.48956">
        <ele>29.9</ele>
        <time>2022-04-03T09:01:37.000Z</time>
      </trkpt>
      <trkpt lat="50.47146" lon="3.48962">
        <ele>29.7</ele>
        <time>2022-04-03T09:01:38.000Z</time>
      </trkpt>
      <trkpt lat="50.47149" lon="3.48967">
        <ele>29.6</ele>
        <time>2022-04-03T09:01:39.000Z</time>
      </trkpt>
      <trkpt lat="50.47152" lon="3.48973">
        <ele>29.5</ele>
        <time>2022-04-03T09:01:40.000Z</time>
      </trkpt>
      <trkpt lat="50.47158" lon="3.48983">
        <ele>29.6</ele>
        <time>2022-04-03T09:01:42.000Z</time>
      </trkpt>
      <trkpt lat="50.47164" lon="3.48993">
        <ele>29.8</ele>
        <time>2022-04-03T09:01:44.000Z</time>
      </trkpt>
      <trkpt lat="50.47168" lon="3.48998">
        <ele>29.9</ele>
        <time>2022-04-03T09:01:45.000Z</time>
      </trkpt>
      <trkpt lat="50.47173" lon="3.49006">
        <ele>29.8</ele>
        <time>2022-04-03T09:01:47.000Z</time>
      </trkpt>
      <trkpt lat="50.47178" lon="3.49016">
        <ele>29.8</ele>
        <time>2022-04-03T09:01:49.000Z</time>
      </trkpt>
      <trkpt lat="50.47184" lon="3.49025">
        <ele>29.9</ele>
        <time>2022-04-03T09:01:51.000Z</time>
      </trkpt>
      <trkpt lat="50.47188" lon="3.49035">
        <ele>30</ele>
        <time>2022-04-03T09:01:53.000Z</time>
      </trkpt>
      <trkpt lat="50.47194" lon="3.49044">
        <ele>30</ele>
        <time>2022-04-03T09:01:55.021Z</time>
      </trkpt>
      <trkpt lat="50.47199" lon="3.49051">
        <ele>30</ele>
        <time>2022-04-03T09:01:57.000Z</time>
      </trkpt>
      <trkpt lat="50.47205" lon="3.4906">
        <ele>30</ele>
        <time>2022-04-03T09:01:59.080Z</time>
      </trkpt>
      <trkpt lat="50.4721" lon="3.49067">
        <ele>30</ele>
        <time>2022-04-03T09:02:01.000Z</time>
      </trkpt>
      <trkpt lat="50.47215" lon="3.49076">
        <ele>30</ele>
        <time>2022-04-03T09:02:03.104Z</time>
      </trkpt>
      <trkpt lat="50.47221" lon="3.49084">
        <ele>30</ele>
        <time>2022-04-03T09:02:05.173Z</time>
      </trkpt>
      <trkpt lat="50.47225" lon="3.4909">
        <ele>29.9</ele>
        <time>2022-04-03T09:02:07.019Z</time>
      </trkpt>
      <trkpt lat="50.47231" lon="3.49099">
        <ele>29.7</ele>
        <time>2022-04-03T09:02:09.103Z</time>
      </trkpt>
      <trkpt lat="50.47236" lon="3.49107">
        <ele>29.5</ele>
        <time>2022-04-03T09:02:11.060Z</time>
      </trkpt>
      <trkpt lat="50.47241" lon="3.49116">
        <ele>29.3</ele>
        <time>2022-04-03T09:02:12.880Z</time>
      </trkpt>
      <trkpt lat="50.47246" lon="3.49124">
        <ele>29.1</ele>
        <time>2022-04-03T09:02:15.000Z</time>
      </trkpt>
      <trkpt lat="50.4725" lon="3.49132">
        <ele>29</ele>
        <time>2022-04-03T09:02:16.902Z</time>
      </trkpt>
      <trkpt lat="50.47255" lon="3.49141">
        <ele>29.1</ele>
        <time>2022-04-03T09:02:19.000Z</time>
      </trkpt>
      <trkpt lat="50.47259" lon="3.4915">
        <ele>29.3</ele>
        <time>2022-04-03T09:02:21.000Z</time>
      </trkpt>
      <trkpt lat="50.47265" lon="3.49157">
        <ele>29.3</ele>
        <time>2022-04-03T09:02:23.171Z</time>
      </trkpt>
      <trkpt lat="50.47272" lon="3.49166">
        <ele>29.2</ele>
        <time>2022-04-03T09:02:25.760Z</time>
      </trkpt>
      <trkpt lat="50.47277" lon="3.49174">
        <ele>29</ele>
        <time>2022-04-03T09:02:27.864Z</time>
      </trkpt>
      <trkpt lat="50.47283" lon="3.49183">
        <ele>29</ele>
        <time>2022-04-03T09:02:30.060Z</time>
      </trkpt>
      <trkpt lat="50.47288" lon="3.49192">
        <ele>29</ele>
        <time>2022-04-03T09:02:32.000Z</time>
      </trkpt>
      <trkpt lat="50.47292" lon="3.49202">
        <ele>29.1</ele>
        <time>2022-04-03T09:02:34.000Z</time>
      </trkpt>
      <trkpt lat="50.47297" lon="3.49211">
        <ele>29.2</ele>
        <time>2022-04-03T09:02:36.000Z</time>
      </trkpt>
      <trkpt lat="50.47302" lon="3.49219">
        <ele>29.1</ele>
        <time>2022-04-03T09:02:38.000Z</time>
      </trkpt>
      <trkpt lat="50.47308" lon="3.49229">
        <ele>29.2</ele>
        <time>2022-04-03T09:02:40.425Z</time>
      </trkpt>
      <trkpt lat="50.47312" lon="3.49236">
        <ele>29.4</ele>
        <time>2022-04-03T09:02:42.022Z</time>
      </trkpt>
      <trkpt lat="50.47315" lon="3.49241">
        <ele>29.4</ele>
        <time>2022-04-03T09:02:43.339Z</time>
      </trkpt>
      <trkpt lat="50.47319" lon="3.49246">
        <ele>29.4</ele>
        <time>2022-04-03T09:02:44.799Z</time>
      </trkpt>
      <trkpt lat="50.47322" lon="3.49252">
        <ele>29.4</ele>
        <time>2022-04-03T09:02:46.024Z</time>
      </trkpt>
      <trkpt lat="50.47327" lon="3.4926">
        <ele>29.2</ele>
        <time>2022-04-03T09:02:48.000Z</time>
      </trkpt>
      <trkpt lat="50.47332" lon="3.49269">
        <ele>29</ele>
        <time>2022-04-03T09:02:50.156Z</time>
      </trkpt>
      <trkpt lat="50.47336" lon="3.49275">
        <ele>29</ele>
        <time>2022-04-03T09:02:51.620Z</time>
      </trkpt>
      <trkpt lat="50.47342" lon="3.49286">
        <ele>29</ele>
        <time>2022-04-03T09:02:54.000Z</time>
      </trkpt>
      <trkpt lat="50.47346" lon="3.49291">
        <ele>29</ele>
        <time>2022-04-03T09:02:55.123Z</time>
      </trkpt>
      <trkpt lat="50.47351" lon="3.49299">
        <ele>29</ele>
        <time>2022-04-03T09:02:56.638Z</time>
      </trkpt>
      <trkpt lat="50.47355" lon="3.49304">
        <ele>29</ele>
        <time>2022-04-03T09:02:58.000Z</time>
      </trkpt>
      <trkpt lat="50.47361" lon="3.49315">
        <ele>29</ele>
        <time>2022-04-03T09:03:00.251Z</time>
      </trkpt>
      <trkpt lat="50.47364" lon="3.49321">
        <ele>29</ele>
        <time>2022-04-03T09:03:01.343Z</time>
      </trkpt>
      <trkpt lat="50.47367" lon="3.49327">
        <ele>29</ele>
        <time>2022-04-03T09:03:02.576Z</time>
      </trkpt>
      <trkpt lat="50.4737" lon="3.49334">
        <ele>29</ele>
        <time>2022-04-03T09:03:04.000Z</time>
      </trkpt>
      <trkpt lat="50.47375" lon="3.49344">
        <ele>29</ele>
        <time>2022-04-03T09:03:06.109Z</time>
      </trkpt>
      <trkpt lat="50.47378" lon="3.49355">
        <ele>29</ele>
        <time>2022-04-03T09:03:08.000Z</time>
      </trkpt>
      <trkpt lat="50.47381" lon="3.49366">
        <ele>29</ele>
        <time>2022-04-03T09:03:10.042Z</time>
      </trkpt>
      <trkpt lat="50.47384" lon="3.49376">
        <ele>29.1</ele>
        <time>2022-04-03T09:03:12.000Z</time>
      </trkpt>
      <trkpt lat="50.47387" lon="3.49388">
        <ele>29.1</ele>
        <time>2022-04-03T09:03:14.000Z</time>
      </trkpt>
      <trkpt lat="50.47391" lon="3.494">
        <ele>29</ele>
        <time>2022-04-03T09:03:16.000Z</time>
      </trkpt>
      <trkpt lat="50.47394" lon="3.49411">
        <ele>29</ele>
        <time>2022-04-03T09:03:17.981Z</time>
      </trkpt>
      <trkpt lat="50.47398" lon="3.49423">
        <ele>29</ele>
        <time>2022-04-03T09:03:20.000Z</time>
      </trkpt>
      <trkpt lat="50.47401" lon="3.49434">
        <ele>29</ele>
        <time>2022-04-03T09:03:22.000Z</time>
      </trkpt>
      <trkpt lat="50.47404" lon="3.49446">
        <ele>29</ele>
        <time>2022-04-03T09:03:24.000Z</time>
      </trkpt>
      <trkpt lat="50.47406" lon="3.49453">
        <ele>29</ele>
        <time>2022-04-03T09:03:25.079Z</time>
      </trkpt>
      <trkpt lat="50.47408" lon="3.49466">
        <ele>29</ele>
        <time>2022-04-03T09:03:26.959Z</time>
      </trkpt>
      <trkpt lat="50.4741" lon="3.49478">
        <ele>29</ele>
        <time>2022-04-03T09:03:29.000Z</time>
      </trkpt>
      <trkpt lat="50.47413" lon="3.49491">
        <ele>29</ele>
        <time>2022-04-03T09:03:31.000Z</time>
      </trkpt>
      <trkpt lat="50.47415" lon="3.49503">
        <ele>29</ele>
        <time>2022-04-03T09:03:33.000Z</time>
      </trkpt>
      <trkpt lat="50.47417" lon="3.4951">
        <ele>29</ele>
        <time>2022-04-03T09:03:34.040Z</time>
      </trkpt>
      <trkpt lat="50.4742" lon="3.49525">
        <ele>28.9</ele>
        <time>2022-04-03T09:03:36.381Z</time>
      </trkpt>
      <trkpt lat="50.47422" lon="3.4954">
        <ele>28.8</ele>
        <time>2022-04-03T09:03:38.819Z</time>
      </trkpt>
      <trkpt lat="50.47424" lon="3.49548">
        <ele>28.7</ele>
        <time>2022-04-03T09:03:40.067Z</time>
      </trkpt>
      <trkpt lat="50.47427" lon="3.49559">
        <ele>28.6</ele>
        <time>2022-04-03T09:03:42.000Z</time>
      </trkpt>
      <trkpt lat="50.47432" lon="3.4957">
        <ele>28.2</ele>
        <time>2022-04-03T09:03:44.000Z</time>
      </trkpt>
      <trkpt lat="50.47438" lon="3.4958">
        <ele>28</ele>
        <time>2022-04-03T09:03:45.999Z</time>
      </trkpt>
      <trkpt lat="50.47441" lon="3.49586">
        <ele>28</ele>
        <time>2022-04-03T09:03:47.380Z</time>
      </trkpt>
      <trkpt lat="50.47446" lon="3.49595">
        <ele>28</ele>
        <time>2022-04-03T09:03:48.961Z</time>
      </trkpt>
      <trkpt lat="50.47451" lon="3.49605">
        <ele>28</ele>
        <time>2022-04-03T09:03:51.000Z</time>
      </trkpt>
      <trkpt lat="50.47457" lon="3.49614">
        <ele>28</ele>
        <time>2022-04-03T09:03:53.000Z</time>
      </trkpt>
      <trkpt lat="50.47464" lon="3.49627">
        <ele>28</ele>
        <time>2022-04-03T09:03:55.604Z</time>
      </trkpt>
      <trkpt lat="50.47468" lon="3.49634">
        <ele>28</ele>
        <time>2022-04-03T09:03:56.980Z</time>
      </trkpt>
      <trkpt lat="50.47473" lon="3.49644">
        <ele>28</ele>
        <time>2022-04-03T09:03:59.000Z</time>
      </trkpt>
      <trkpt lat="50.47479" lon="3.49654">
        <ele>27.9</ele>
        <time>2022-04-03T09:04:01.000Z</time>
      </trkpt>
      <trkpt lat="50.47484" lon="3.49664">
        <ele>27.6</ele>
        <time>2022-04-03T09:04:03.000Z</time>
      </trkpt>
      <trkpt lat="50.47487" lon="3.49669">
        <ele>27.4</ele>
        <time>2022-04-03T09:04:04.144Z</time>
      </trkpt>
      <trkpt lat="50.47493" lon="3.4968">
        <ele>27.1</ele>
        <time>2022-04-03T09:04:06.343Z</time>
      </trkpt>
      <trkpt lat="50.47497" lon="3.49686">
        <ele>27</ele>
        <time>2022-04-03T09:04:07.682Z</time>
      </trkpt>
      <trkpt lat="50.475" lon="3.49692">
        <ele>27</ele>
        <time>2022-04-03T09:04:08.782Z</time>
      </trkpt>
      <trkpt lat="50.47504" lon="3.49697">
        <ele>26.9</ele>
        <time>2022-04-03T09:04:10.000Z</time>
      </trkpt>
      <trkpt lat="50.47509" lon="3.49708">
        <ele>26.5</ele>
        <time>2022-04-03T09:04:12.000Z</time>
      </trkpt>
      <trkpt lat="50.47509" lon="3.49717">
        <ele>26.2</ele>
        <time>2022-04-03T09:04:13.062Z</time>
      </trkpt>
      <trkpt lat="50.47506" lon="3.49724">
        <ele>26</ele>
        <time>2022-04-03T09:04:14.174Z</time>
      </trkpt>
      <trkpt lat="50.47499" lon="3.49734">
        <ele>26</ele>
        <time>2022-04-03T09:04:16.024Z</time>
      </trkpt>
      <trkpt lat="50.47488" lon="3.49738">
        <ele>25.8</ele>
        <time>2022-04-03T09:04:17.000Z</time>
      </trkpt>
      <trkpt lat="50.47482" lon="3.49742">
        <ele>25.5</ele>
        <time>2022-04-03T09:04:18.000Z</time>
      </trkpt>
      <trkpt lat="50.47476" lon="3.49747">
        <ele>25.2</ele>
        <time>2022-04-03T09:04:19.000Z</time>
      </trkpt>
      <trkpt lat="50.47471" lon="3.49752">
        <ele>25.1</ele>
        <time>2022-04-03T09:04:20.000Z</time>
      </trkpt>
      <trkpt lat="50.47465" lon="3.49758">
        <ele>25.1</ele>
        <time>2022-04-03T09:04:21.000Z</time>
      </trkpt>
      <trkpt lat="50.4746" lon="3.49764">
        <ele>25.1</ele>
        <time>2022-04-03T09:04:22.000Z</time>
      </trkpt>
      <trkpt lat="50.47455" lon="3.49771">
        <ele>24.8</ele>
        <time>2022-04-03T09:04:23.000Z</time>
      </trkpt>
      <trkpt lat="50.47449" lon="3.49778">
        <ele>24.3</ele>
        <time>2022-04-03T09:04:24.000Z</time>
      </trkpt>
      <trkpt lat="50.47444" lon="3.49785">
        <ele>24</ele>
        <time>2022-04-03T09:04:25.000Z</time>
      </trkpt>
      <trkpt lat="50.47439" lon="3.49792">
        <ele>24.1</ele>
        <time>2022-04-03T09:04:26.000Z</time>
      </trkpt>
      <trkpt lat="50.47434" lon="3.49799">
        <ele>24.1</ele>
        <time>2022-04-03T09:04:27.000Z</time>
      </trkpt>
      <trkpt lat="50.47429" lon="3.49807">
        <ele>24</ele>
        <time>2022-04-03T09:04:28.000Z</time>
      </trkpt>
      <trkpt lat="50.47425" lon="3.49815">
        <ele>23.8</ele>
        <time>2022-04-03T09:04:29.000Z</time>
      </trkpt>
      <trkpt lat="50.47422" lon="3.49823">
        <ele>23.5</ele>
        <time>2022-04-03T09:04:30.000Z</time>
      </trkpt>
      <trkpt lat="50.47418" lon="3.49831">
        <ele>23.1</ele>
        <time>2022-04-03T09:04:31.000Z</time>
      </trkpt>
      <trkpt lat="50.47414" lon="3.49838">
        <ele>23</ele>
        <time>2022-04-03T09:04:32.000Z</time>
      </trkpt>
      <trkpt lat="50.4741" lon="3.49845">
        <ele>23</ele>
        <time>2022-04-03T09:04:33.000Z</time>
      </trkpt>
      <trkpt lat="50.47407" lon="3.49853">
        <ele>23</ele>
        <time>2022-04-03T09:04:34.000Z</time>
      </trkpt>
      <trkpt lat="50.47403" lon="3.4986">
        <ele>23</ele>
        <time>2022-04-03T09:04:35.000Z</time>
      </trkpt>
      <trkpt lat="50.47399" lon="3.49867">
        <ele>22.9</ele>
        <time>2022-04-03T09:04:36.000Z</time>
      </trkpt>
      <trkpt lat="50.47395" lon="3.49874">
        <ele>22.6</ele>
        <time>2022-04-03T09:04:37.000Z</time>
      </trkpt>
      <trkpt lat="50.47391" lon="3.49881">
        <ele>22.3</ele>
        <time>2022-04-03T09:04:38.000Z</time>
      </trkpt>
      <trkpt lat="50.47387" lon="3.49886">
        <ele>22.1</ele>
        <time>2022-04-03T09:04:39.000Z</time>
      </trkpt>
      <trkpt lat="50.47382" lon="3.4989">
        <ele>22</ele>
        <time>2022-04-03T09:04:40.000Z</time>
      </trkpt>
      <trkpt lat="50.47377" lon="3.49895">
        <ele>21.9</ele>
        <time>2022-04-03T09:04:41.000Z</time>
      </trkpt>
      <trkpt lat="50.47372" lon="3.49898">
        <ele>21.9</ele>
        <time>2022-04-03T09:04:42.000Z</time>
      </trkpt>
      <trkpt lat="50.47367" lon="3.49901">
        <ele>21.9</ele>
        <time>2022-04-03T09:04:43.000Z</time>
      </trkpt>
      <trkpt lat="50.47362" lon="3.499">
        <ele>22</ele>
        <time>2022-04-03T09:04:44.000Z</time>
      </trkpt>
      <trkpt lat="50.47358" lon="3.49896">
        <ele>22.1</ele>
        <time>2022-04-03T09:04:45.000Z</time>
      </trkpt>
      <trkpt lat="50.47355" lon="3.49889">
        <ele>22.2</ele>
        <time>2022-04-03T09:04:46.000Z</time>
      </trkpt>
      <trkpt lat="50.47352" lon="3.49882">
        <ele>22.3</ele>
        <time>2022-04-03T09:04:47.000Z</time>
      </trkpt>
      <trkpt lat="50.47349" lon="3.49875">
        <ele>22.4</ele>
        <time>2022-04-03T09:04:48.000Z</time>
      </trkpt>
      <trkpt lat="50.47346" lon="3.49869">
        <ele>22.5</ele>
        <time>2022-04-03T09:04:49.000Z</time>
      </trkpt>
      <trkpt lat="50.47343" lon="3.49863">
        <ele>22.7</ele>
        <time>2022-04-03T09:04:50.000Z</time>
      </trkpt>
      <trkpt lat="50.47338" lon="3.49858">
        <ele>22.9</ele>
        <time>2022-04-03T09:04:51.000Z</time>
      </trkpt>
      <trkpt lat="50.47334" lon="3.49853">
        <ele>23</ele>
        <time>2022-04-03T09:04:52.000Z</time>
      </trkpt>
      <trkpt lat="50.4733" lon="3.49849">
        <ele>23.1</ele>
        <time>2022-04-03T09:04:53.000Z</time>
      </trkpt>
      <trkpt lat="50.47324" lon="3.49842">
        <ele>23.1</ele>
        <time>2022-04-03T09:04:55.000Z</time>
      </trkpt>
      <trkpt lat="50.47318" lon="3.49835">
        <ele>23</ele>
        <time>2022-04-03T09:04:57.000Z</time>
      </trkpt>
      <trkpt lat="50.47312" lon="3.49828">
        <ele>23</ele>
        <time>2022-04-03T09:04:59.000Z</time>
      </trkpt>
      <trkpt lat="50.47305" lon="3.49824">
        <ele>23</ele>
        <time>2022-04-03T09:05:02.032Z</time>
      </trkpt>
      <trkpt lat="50.47301" lon="3.49819">
        <ele>23.2</ele>
        <time>2022-04-03T09:05:03.114Z</time>
      </trkpt>
      <trkpt lat="50.47297" lon="3.49814">
        <ele>23.4</ele>
        <time>2022-04-03T09:05:04.192Z</time>
      </trkpt>
      <trkpt lat="50.47293" lon="3.49809">
        <ele>23.5</ele>
        <time>2022-04-03T09:05:05.411Z</time>
      </trkpt>
      <trkpt lat="50.47289" lon="3.49803">
        <ele>23.6</ele>
        <time>2022-04-03T09:05:06.874Z</time>
      </trkpt>
      <trkpt lat="50.47282" lon="3.49795">
        <ele>23.6</ele>
        <time>2022-04-03T09:05:09.000Z</time>
      </trkpt>
      <trkpt lat="50.47276" lon="3.49789">
        <ele>23.5</ele>
        <time>2022-04-03T09:05:11.000Z</time>
      </trkpt>
      <trkpt lat="50.47271" lon="3.49783">
        <ele>23.4</ele>
        <time>2022-04-03T09:05:13.000Z</time>
      </trkpt>
      <trkpt lat="50.47265" lon="3.49777">
        <ele>23.5</ele>
        <time>2022-04-03T09:05:14.952Z</time>
      </trkpt>
      <trkpt lat="50.4726" lon="3.4977">
        <ele>23.6</ele>
        <time>2022-04-03T09:05:17.000Z</time>
      </trkpt>
      <trkpt lat="50.47255" lon="3.49763">
        <ele>23.5</ele>
        <time>2022-04-03T09:05:19.000Z</time>
      </trkpt>
      <trkpt lat="50.47247" lon="3.49756">
        <ele>23.3</ele>
        <time>2022-04-03T09:05:22.032Z</time>
      </trkpt>
      <trkpt lat="50.47241" lon="3.49753">
        <ele>23.4</ele>
        <time>2022-04-03T09:05:24.000Z</time>
      </trkpt>
      <trkpt lat="50.47237" lon="3.49751">
        <ele>23.5</ele>
        <time>2022-04-03T09:05:25.851Z</time>
      </trkpt>
      <trkpt lat="50.47231" lon="3.49755">
        <ele>23.7</ele>
        <time>2022-04-03T09:05:28.000Z</time>
      </trkpt>
      <trkpt lat="50.47228" lon="3.49762">
        <ele>23.9</ele>
        <time>2022-04-03T09:05:30.000Z</time>
      </trkpt>
      <trkpt lat="50.47225" lon="3.49767">
        <ele>24</ele>
        <time>2022-04-03T09:05:32.000Z</time>
      </trkpt>
      <trkpt lat="50.47219" lon="3.49777">
        <ele>24.2</ele>
        <time>2022-04-03T09:05:35.813Z</time>
      </trkpt>
      <trkpt lat="50.47215" lon="3.49782">
        <ele>24.7</ele>
        <time>2022-04-03T09:05:38.454Z</time>
      </trkpt>
      <trkpt lat="50.47211" lon="3.49789">
        <ele>25.3</ele>
        <time>2022-04-03T09:05:41.000Z</time>
      </trkpt>
      <trkpt lat="50.47208" lon="3.49797">
        <ele>25.7</ele>
        <time>2022-04-03T09:05:42.932Z</time>
      </trkpt>
      <trkpt lat="50.47204" lon="3.49804">
        <ele>26</ele>
        <time>2022-04-03T09:05:45.000Z</time>
      </trkpt>
      <trkpt lat="50.47201" lon="3.49811">
        <ele>26.2</ele>
        <time>2022-04-03T09:05:47.000Z</time>
      </trkpt>
      <trkpt lat="50.47197" lon="3.49819">
        <ele>26.5</ele>
        <time>2022-04-03T09:05:49.971Z</time>
      </trkpt>
      <trkpt lat="50.47193" lon="3.49826">
        <ele>26.8</ele>
        <time>2022-04-03T09:05:52.111Z</time>
      </trkpt>
      <trkpt lat="50.47189" lon="3.49833">
        <ele>27.2</ele>
        <time>2022-04-03T09:05:54.075Z</time>
      </trkpt>
      <trkpt lat="50.47186" lon="3.49842">
        <ele>27.5</ele>
        <time>2022-04-03T09:05:56.910Z</time>
      </trkpt>
      <trkpt lat="50.47182" lon="3.49846">
        <ele>27.7</ele>
        <time>2022-04-03T09:05:59.413Z</time>
      </trkpt>
      <trkpt lat="50.47179" lon="3.49854">
        <ele>27.9</ele>
        <time>2022-04-03T09:06:02.000Z</time>
      </trkpt>
      <trkpt lat="50.47174" lon="3.49861">
        <ele>28</ele>
        <time>2022-04-03T09:06:04.911Z</time>
      </trkpt>
      <trkpt lat="50.47171" lon="3.49866">
        <ele>28.1</ele>
        <time>2022-04-03T09:06:07.547Z</time>
      </trkpt>
      <trkpt lat="50.47168" lon="3.49872">
        <ele>28.4</ele>
        <time>2022-04-03T09:06:10.000Z</time>
      </trkpt>
      <trkpt lat="50.47164" lon="3.49877">
        <ele>28.6</ele>
        <time>2022-04-03T09:06:12.000Z</time>
      </trkpt>
      <trkpt lat="50.47161" lon="3.49882">
        <ele>28.8</ele>
        <time>2022-04-03T09:06:14.000Z</time>
      </trkpt>
      <trkpt lat="50.47157" lon="3.49889">
        <ele>29</ele>
        <time>2022-04-03T09:06:17.000Z</time>
      </trkpt>
      <trkpt lat="50.47152" lon="3.49896">
        <ele>29</ele>
        <time>2022-04-03T09:06:19.812Z</time>
      </trkpt>
      <trkpt lat="50.47147" lon="3.49903">
        <ele>29</ele>
        <time>2022-04-03T09:06:22.073Z</time>
      </trkpt>
      <trkpt lat="50.47141" lon="3.4991">
        <ele>29</ele>
        <time>2022-04-03T09:06:24.872Z</time>
      </trkpt>
      <trkpt lat="50.47138" lon="3.49916">
        <ele>29</ele>
        <time>2022-04-03T09:06:27.000Z</time>
      </trkpt>
      <trkpt lat="50.47132" lon="3.49925">
        <ele>29.2</ele>
        <time>2022-04-03T09:06:29.834Z</time>
      </trkpt>
      <trkpt lat="50.47129" lon="3.49932">
        <ele>29.4</ele>
        <time>2022-04-03T09:06:32.000Z</time>
      </trkpt>
      <trkpt lat="50.47125" lon="3.49939">
        <ele>29.4</ele>
        <time>2022-04-03T09:06:34.000Z</time>
      </trkpt>
      <trkpt lat="50.47121" lon="3.49947">
        <ele>29.4</ele>
        <time>2022-04-03T09:06:36.293Z</time>
      </trkpt>
      <trkpt lat="50.47117" lon="3.49953">
        <ele>29.5</ele>
        <time>2022-04-03T09:06:38.332Z</time>
      </trkpt>
      <trkpt lat="50.47114" lon="3.49959">
        <ele>29.6</ele>
        <time>2022-04-03T09:06:40.000Z</time>
      </trkpt>
      <trkpt lat="50.47109" lon="3.49971">
        <ele>30</ele>
        <time>2022-04-03T09:06:42.872Z</time>
      </trkpt>
      <trkpt lat="50.47104" lon="3.49982">
        <ele>30</ele>
        <time>2022-04-03T09:06:45.953Z</time>
      </trkpt>
      <trkpt lat="50.47101" lon="3.4999">
        <ele>30</ele>
        <time>2022-04-03T09:06:48.012Z</time>
      </trkpt>
      <trkpt lat="50.47098" lon="3.49997">
        <ele>30</ele>
        <time>2022-04-03T09:06:50.013Z</time>
      </trkpt>
      <trkpt lat="50.47094" lon="3.50006">
        <ele>30</ele>
        <time>2022-04-03T09:06:52.155Z</time>
      </trkpt>
      <trkpt lat="50.4709" lon="3.50015">
        <ele>30</ele>
        <time>2022-04-03T09:06:54.453Z</time>
      </trkpt>
      <trkpt lat="50.47086" lon="3.50023">
        <ele>30</ele>
        <time>2022-04-03T09:06:56.713Z</time>
      </trkpt>
      <trkpt lat="50.47083" lon="3.50031">
        <ele>30</ele>
        <time>2022-04-03T09:06:59.000Z</time>
      </trkpt>
      <trkpt lat="50.47079" lon="3.50038">
        <ele>30</ele>
        <time>2022-04-03T09:07:01.457Z</time>
      </trkpt>
      <trkpt lat="50.47076" lon="3.50045">
        <ele>30</ele>
        <time>2022-04-03T09:07:04.000Z</time>
      </trkpt>
      <trkpt lat="50.47073" lon="3.50053">
        <ele>30</ele>
        <time>2022-04-03T09:07:07.000Z</time>
      </trkpt>
      <trkpt lat="50.47069" lon="3.50061">
        <ele>30</ele>
        <time>2022-04-03T09:07:10.000Z</time>
      </trkpt>
      <trkpt lat="50.47065" lon="3.50063">
        <ele>30</ele>
        <time>2022-04-03T09:07:14.000Z</time>
      </trkpt>
      <trkpt lat="50.47065" lon="3.5007">
        <ele>30</ele>
        <time>2022-04-03T09:09:22.000Z</time>
      </trkpt>
      <trkpt lat="50.47061" lon="3.5008">
        <ele>30</ele>
        <time>2022-04-03T09:09:24.000Z</time>
      </trkpt>
      <trkpt lat="50.47056" lon="3.50089">
        <ele>30</ele>
        <time>2022-04-03T09:09:26.000Z</time>
      </trkpt>
      <trkpt lat="50.47052" lon="3.50098">
        <ele>30</ele>
        <time>2022-04-03T09:09:28.000Z</time>
      </trkpt>
      <trkpt lat="50.47047" lon="3.50108">
        <ele>30</ele>
        <time>2022-04-03T09:09:30.053Z</time>
      </trkpt>
      <trkpt lat="50.47044" lon="3.50116">
        <ele>30</ele>
        <time>2022-04-03T09:09:31.895Z</time>
      </trkpt>
      <trkpt lat="50.47038" lon="3.50126">
        <ele>30</ele>
        <time>2022-04-03T09:09:34.294Z</time>
      </trkpt>
      <trkpt lat="50.47034" lon="3.50138">
        <ele>30</ele>
        <time>2022-04-03T09:09:36.871Z</time>
      </trkpt>
      <trkpt lat="50.4703" lon="3.50146">
        <ele>30</ele>
        <time>2022-04-03T09:09:39.000Z</time>
      </trkpt>
      <trkpt lat="50.47024" lon="3.50157">
        <ele>30</ele>
        <time>2022-04-03T09:09:41.534Z</time>
      </trkpt>
      <trkpt lat="50.47021" lon="3.50163">
        <ele>30</ele>
        <time>2022-04-03T09:09:43.071Z</time>
      </trkpt>
      <trkpt lat="50.47017" lon="3.50168">
        <ele>30</ele>
        <time>2022-04-03T09:09:44.531Z</time>
      </trkpt>
      <trkpt lat="50.47013" lon="3.50176">
        <ele>30</ele>
        <time>2022-04-03T09:09:46.532Z</time>
      </trkpt>
      <trkpt lat="50.47009" lon="3.50181">
        <ele>30</ele>
        <time>2022-04-03T09:09:48.054Z</time>
      </trkpt>
      <trkpt lat="50.47004" lon="3.50188">
        <ele>30</ele>
        <time>2022-04-03T09:09:49.954Z</time>
      </trkpt>
      <trkpt lat="50.46998" lon="3.50194">
        <ele>30</ele>
        <time>2022-04-03T09:09:52.097Z</time>
      </trkpt>
      <trkpt lat="50.46994" lon="3.502">
        <ele>30</ele>
        <time>2022-04-03T09:09:53.933Z</time>
      </trkpt>
      <trkpt lat="50.46987" lon="3.50205">
        <ele>30</ele>
        <time>2022-04-03T09:09:56.000Z</time>
      </trkpt>
      <trkpt lat="50.46981" lon="3.50209">
        <ele>30</ele>
        <time>2022-04-03T09:09:58.000Z</time>
      </trkpt>
      <trkpt lat="50.46973" lon="3.50216">
        <ele>30</ele>
        <time>2022-04-03T09:10:00.292Z</time>
      </trkpt>
      <trkpt lat="50.46969" lon="3.50219">
        <ele>30</ele>
        <time>2022-04-03T09:10:01.832Z</time>
      </trkpt>
      <trkpt lat="50.46961" lon="3.50224">
        <ele>30</ele>
        <time>2022-04-03T09:10:04.316Z</time>
      </trkpt>
      <trkpt lat="50.46956" lon="3.50228">
        <ele>30</ele>
        <time>2022-04-03T09:10:05.974Z</time>
      </trkpt>
      <trkpt lat="50.4695" lon="3.50232">
        <ele>30</ele>
        <time>2022-04-03T09:10:08.000Z</time>
      </trkpt>
      <trkpt lat="50.46943" lon="3.50236">
        <ele>30</ele>
        <time>2022-04-03T09:10:10.000Z</time>
      </trkpt>
      <trkpt lat="50.46937" lon="3.50241">
        <ele>30</ele>
        <time>2022-04-03T09:10:11.992Z</time>
      </trkpt>
      <trkpt lat="50.4693" lon="3.50244">
        <ele>30</ele>
        <time>2022-04-03T09:10:14.000Z</time>
      </trkpt>
      <trkpt lat="50.4692" lon="3.50248">
        <ele>30</ele>
        <time>2022-04-03T09:10:16.913Z</time>
      </trkpt>
      <trkpt lat="50.46912" lon="3.50251">
        <ele>30</ele>
        <time>2022-04-03T09:10:19.000Z</time>
      </trkpt>
      <trkpt lat="50.46903" lon="3.50255">
        <ele>30</ele>
        <time>2022-04-03T09:10:21.692Z</time>
      </trkpt>
      <trkpt lat="50.46895" lon="3.50257">
        <ele>30</ele>
        <time>2022-04-03T09:10:24.000Z</time>
      </trkpt>
      <trkpt lat="50.46889" lon="3.5026">
        <ele>30</ele>
        <time>2022-04-03T09:10:26.000Z</time>
      </trkpt>
      <trkpt lat="50.46882" lon="3.50264">
        <ele>30</ele>
        <time>2022-04-03T09:10:27.992Z</time>
      </trkpt>
      <trkpt lat="50.46874" lon="3.50267">
        <ele>30</ele>
        <time>2022-04-03T09:10:30.254Z</time>
      </trkpt>
      <trkpt lat="50.46867" lon="3.5027">
        <ele>30</ele>
        <time>2022-04-03T09:10:32.615Z</time>
      </trkpt>
      <trkpt lat="50.46862" lon="3.50271">
        <ele>30</ele>
        <time>2022-04-03T09:10:33.910Z</time>
      </trkpt>
      <trkpt lat="50.46855" lon="3.50275">
        <ele>30</ele>
        <time>2022-04-03T09:10:36.000Z</time>
      </trkpt>
      <trkpt lat="50.46847" lon="3.50278">
        <ele>30</ele>
        <time>2022-04-03T09:10:38.176Z</time>
      </trkpt>
      <trkpt lat="50.46842" lon="3.5028">
        <ele>30</ele>
        <time>2022-04-03T09:10:39.436Z</time>
      </trkpt>
      <trkpt lat="50.46836" lon="3.50282">
        <ele>30</ele>
        <time>2022-04-03T09:10:40.832Z</time>
      </trkpt>
      <trkpt lat="50.4683" lon="3.50285">
        <ele>30</ele>
        <time>2022-04-03T09:10:42.000Z</time>
      </trkpt>
      <trkpt lat="50.46825" lon="3.50287">
        <ele>29.9</ele>
        <time>2022-04-03T09:10:43.000Z</time>
      </trkpt>
      <trkpt lat="50.4682" lon="3.5029">
        <ele>29.8</ele>
        <time>2022-04-03T09:10:44.000Z</time>
      </trkpt>
      <trkpt lat="50.46815" lon="3.50293">
        <ele>29.6</ele>
        <time>2022-04-03T09:10:45.000Z</time>
      </trkpt>
      <trkpt lat="50.4681" lon="3.50299">
        <ele>29.4</ele>
        <time>2022-04-03T09:10:46.000Z</time>
      </trkpt>
      <trkpt lat="50.46806" lon="3.50305">
        <ele>29</ele>
        <time>2022-04-03T09:10:47.000Z</time>
      </trkpt>
      <trkpt lat="50.46802" lon="3.50312">
        <ele>29.1</ele>
        <time>2022-04-03T09:10:48.000Z</time>
      </trkpt>
      <trkpt lat="50.46798" lon="3.5032">
        <ele>29.1</ele>
        <time>2022-04-03T09:10:49.000Z</time>
      </trkpt>
      <trkpt lat="50.46796" lon="3.50328">
        <ele>29.1</ele>
        <time>2022-04-03T09:10:50.000Z</time>
      </trkpt>
      <trkpt lat="50.46793" lon="3.50336">
        <ele>28.9</ele>
        <time>2022-04-03T09:10:51.000Z</time>
      </trkpt>
      <trkpt lat="50.46791" lon="3.50343">
        <ele>28.7</ele>
        <time>2022-04-03T09:10:54.079Z</time>
      </trkpt>
      <trkpt lat="50.46789" lon="3.50351">
        <ele>28.5</ele>
        <time>2022-04-03T09:10:55.694Z</time>
      </trkpt>
      <trkpt lat="50.46783" lon="3.50353">
        <ele>28.7</ele>
        <time>2022-04-03T09:10:58.000Z</time>
      </trkpt>
      <trkpt lat="50.46778" lon="3.50347">
        <ele>29</ele>
        <time>2022-04-03T09:11:00.000Z</time>
      </trkpt>
      <trkpt lat="50.46771" lon="3.50343">
        <ele>29.1</ele>
        <time>2022-04-03T09:11:02.000Z</time>
      </trkpt>
      <trkpt lat="50.46766" lon="3.50338">
        <ele>29.1</ele>
        <time>2022-04-03T09:11:04.000Z</time>
      </trkpt>
      <trkpt lat="50.46761" lon="3.50334">
        <ele>29</ele>
        <time>2022-04-03T09:11:06.000Z</time>
      </trkpt>
      <trkpt lat="50.46756" lon="3.50331">
        <ele>29.1</ele>
        <time>2022-04-03T09:11:08.000Z</time>
      </trkpt>
      <trkpt lat="50.46751" lon="3.50325">
        <ele>29.3</ele>
        <time>2022-04-03T09:11:10.000Z</time>
      </trkpt>
      <trkpt lat="50.46747" lon="3.5032">
        <ele>29.6</ele>
        <time>2022-04-03T09:11:12.000Z</time>
      </trkpt>
      <trkpt lat="50.46741" lon="3.50316">
        <ele>29.9</ele>
        <time>2022-04-03T09:11:14.000Z</time>
      </trkpt>
      <trkpt lat="50.46736" lon="3.50312">
        <ele>30</ele>
        <time>2022-04-03T09:11:16.000Z</time>
      </trkpt>
      <trkpt lat="50.46732" lon="3.50306">
        <ele>30</ele>
        <time>2022-04-03T09:11:18.000Z</time>
      </trkpt>
      <trkpt lat="50.46728" lon="3.50303">
        <ele>30.1</ele>
        <time>2022-04-03T09:11:20.000Z</time>
      </trkpt>
      <trkpt lat="50.46723" lon="3.50298">
        <ele>30.3</ele>
        <time>2022-04-03T09:11:22.000Z</time>
      </trkpt>
      <trkpt lat="50.46719" lon="3.50293">
        <ele>30.4</ele>
        <time>2022-04-03T09:11:24.000Z</time>
      </trkpt>
      <trkpt lat="50.46715" lon="3.50288">
        <ele>30.5</ele>
        <time>2022-04-03T09:11:26.000Z</time>
      </trkpt>
      <trkpt lat="50.46711" lon="3.50282">
        <ele>30.5</ele>
        <time>2022-04-03T09:11:28.000Z</time>
      </trkpt>
      <trkpt lat="50.46708" lon="3.50276">
        <ele>30.5</ele>
        <time>2022-04-03T09:11:30.000Z</time>
      </trkpt>
      <trkpt lat="50.46703" lon="3.5027">
        <ele>30.3</ele>
        <time>2022-04-03T09:11:32.000Z</time>
      </trkpt>
      <trkpt lat="50.46698" lon="3.50265">
        <ele>30.1</ele>
        <time>2022-04-03T09:11:34.000Z</time>
      </trkpt>
      <trkpt lat="50.46694" lon="3.5026">
        <ele>30</ele>
        <time>2022-04-03T09:11:36.000Z</time>
      </trkpt>
      <trkpt lat="50.46689" lon="3.50255">
        <ele>30.2</ele>
        <time>2022-04-03T09:11:38.000Z</time>
      </trkpt>
      <trkpt lat="50.46684" lon="3.50249">
        <ele>30.4</ele>
        <time>2022-04-03T09:11:40.000Z</time>
      </trkpt>
      <trkpt lat="50.4668" lon="3.50242">
        <ele>30.7</ele>
        <time>2022-04-03T09:11:42.000Z</time>
      </trkpt>
      <trkpt lat="50.46676" lon="3.50235">
        <ele>30.8</ele>
        <time>2022-04-03T09:11:44.000Z</time>
      </trkpt>
      <trkpt lat="50.46671" lon="3.50228">
        <ele>31</ele>
        <time>2022-04-03T09:11:46.000Z</time>
      </trkpt>
      <trkpt lat="50.46666" lon="3.50223">
        <ele>31</ele>
        <time>2022-04-03T09:11:48.000Z</time>
      </trkpt>
      <trkpt lat="50.46661" lon="3.50217">
        <ele>31</ele>
        <time>2022-04-03T09:11:50.000Z</time>
      </trkpt>
      <trkpt lat="50.46656" lon="3.50213">
        <ele>31</ele>
        <time>2022-04-03T09:11:52.000Z</time>
      </trkpt>
      <trkpt lat="50.46652" lon="3.50208">
        <ele>31</ele>
        <time>2022-04-03T09:11:54.000Z</time>
      </trkpt>
      <trkpt lat="50.46644" lon="3.50207">
        <ele>31</ele>
        <time>2022-04-03T09:11:57.000Z</time>
      </trkpt>
      <trkpt lat="50.46637" lon="3.50209">
        <ele>31</ele>
        <time>2022-04-03T09:11:59.000Z</time>
      </trkpt>
      <trkpt lat="50.4663" lon="3.50212">
        <ele>31</ele>
        <time>2022-04-03T09:12:01.000Z</time>
      </trkpt>
      <trkpt lat="50.46622" lon="3.50216">
        <ele>31</ele>
        <time>2022-04-03T09:12:03.096Z</time>
      </trkpt>
      <trkpt lat="50.46614" lon="3.50221">
        <ele>31</ele>
        <time>2022-04-03T09:12:05.000Z</time>
      </trkpt>
      <trkpt lat="50.4661" lon="3.50223">
        <ele>31</ele>
        <time>2022-04-03T09:12:06.000Z</time>
      </trkpt>
      <trkpt lat="50.46606" lon="3.50225">
        <ele>31</ele>
        <time>2022-04-03T09:12:07.000Z</time>
      </trkpt>
      <trkpt lat="50.46601" lon="3.50228">
        <ele>31</ele>
        <time>2022-04-03T09:12:08.000Z</time>
      </trkpt>
      <trkpt lat="50.46597" lon="3.50231">
        <ele>31</ele>
        <time>2022-04-03T09:12:09.000Z</time>
      </trkpt>
      <trkpt lat="50.46589" lon="3.50236">
        <ele>31</ele>
        <time>2022-04-03T09:12:11.000Z</time>
      </trkpt>
      <trkpt lat="50.4658" lon="3.50239">
        <ele>30.9</ele>
        <time>2022-04-03T09:12:13.000Z</time>
      </trkpt>
      <trkpt lat="50.46576" lon="3.50241">
        <ele>30.8</ele>
        <time>2022-04-03T09:12:14.000Z</time>
      </trkpt>
      <trkpt lat="50.46572" lon="3.50243">
        <ele>30.7</ele>
        <time>2022-04-03T09:12:15.000Z</time>
      </trkpt>
      <trkpt lat="50.46567" lon="3.50244">
        <ele>30.5</ele>
        <time>2022-04-03T09:12:16.000Z</time>
      </trkpt>
      <trkpt lat="50.46562" lon="3.50246">
        <ele>30.3</ele>
        <time>2022-04-03T09:12:17.000Z</time>
      </trkpt>
      <trkpt lat="50.46557" lon="3.50247">
        <ele>30.2</ele>
        <time>2022-04-03T09:12:18.000Z</time>
      </trkpt>
      <trkpt lat="50.46552" lon="3.50248">
        <ele>30.1</ele>
        <time>2022-04-03T09:12:19.000Z</time>
      </trkpt>
      <trkpt lat="50.46547" lon="3.5025">
        <ele>30</ele>
        <time>2022-04-03T09:12:20.000Z</time>
      </trkpt>
      <trkpt lat="50.46542" lon="3.50252">
        <ele>30</ele>
        <time>2022-04-03T09:12:21.000Z</time>
      </trkpt>
      <trkpt lat="50.46537" lon="3.50254">
        <ele>30</ele>
        <time>2022-04-03T09:12:22.000Z</time>
      </trkpt>
      <trkpt lat="50.46532" lon="3.50256">
        <ele>30</ele>
        <time>2022-04-03T09:12:23.000Z</time>
      </trkpt>
      <trkpt lat="50.46527" lon="3.50258">
        <ele>30</ele>
        <time>2022-04-03T09:12:24.000Z</time>
      </trkpt>
      <trkpt lat="50.46521" lon="3.5026">
        <ele>30</ele>
        <time>2022-04-03T09:12:25.000Z</time>
      </trkpt>
      <trkpt lat="50.46516" lon="3.50262">
        <ele>30</ele>
        <time>2022-04-03T09:12:26.000Z</time>
      </trkpt>
      <trkpt lat="50.46511" lon="3.50264">
        <ele>30</ele>
        <time>2022-04-03T09:12:27.000Z</time>
      </trkpt>
      <trkpt lat="50.46506" lon="3.50265">
        <ele>30</ele>
        <time>2022-04-03T09:12:28.000Z</time>
      </trkpt>
      <trkpt lat="50.46501" lon="3.50267">
        <ele>30</ele>
        <time>2022-04-03T09:12:29.000Z</time>
      </trkpt>
      <trkpt lat="50.46495" lon="3.50269">
        <ele>29.9</ele>
        <time>2022-04-03T09:12:30.000Z</time>
      </trkpt>
      <trkpt lat="50.46491" lon="3.50271">
        <ele>29.9</ele>
        <time>2022-04-03T09:12:31.000Z</time>
      </trkpt>
      <trkpt lat="50.46486" lon="3.50273">
        <ele>29.9</ele>
        <time>2022-04-03T09:12:32.000Z</time>
      </trkpt>
      <trkpt lat="50.46481" lon="3.50274">
        <ele>29.9</ele>
        <time>2022-04-03T09:12:33.000Z</time>
      </trkpt>
      <trkpt lat="50.46476" lon="3.50274">
        <ele>29.9</ele>
        <time>2022-04-03T09:12:34.000Z</time>
      </trkpt>
      <trkpt lat="50.46471" lon="3.50274">
        <ele>29.9</ele>
        <time>2022-04-03T09:12:35.000Z</time>
      </trkpt>
      <trkpt lat="50.46466" lon="3.50274">
        <ele>29.9</ele>
        <time>2022-04-03T09:12:36.000Z</time>
      </trkpt>
      <trkpt lat="50.46461" lon="3.50273">
        <ele>29.8</ele>
        <time>2022-04-03T09:12:37.000Z</time>
      </trkpt>
      <trkpt lat="50.46457" lon="3.50274">
        <ele>29.9</ele>
        <time>2022-04-03T09:12:38.000Z</time>
      </trkpt>
      <trkpt lat="50.46452" lon="3.50274">
        <ele>29.9</ele>
        <time>2022-04-03T09:12:39.000Z</time>
      </trkpt>
      <trkpt lat="50.46447" lon="3.50275">
        <ele>29.9</ele>
        <time>2022-04-03T09:12:40.000Z</time>
      </trkpt>
      <trkpt lat="50.46442" lon="3.50275">
        <ele>29.9</ele>
        <time>2022-04-03T09:12:41.000Z</time>
      </trkpt>
      <trkpt lat="50.46438" lon="3.50274">
        <ele>29.9</ele>
        <time>2022-04-03T09:12:42.000Z</time>
      </trkpt>
      <trkpt lat="50.46433" lon="3.50274">
        <ele>29.9</ele>
        <time>2022-04-03T09:12:43.000Z</time>
      </trkpt>
      <trkpt lat="50.46424" lon="3.50273">
        <ele>30</ele>
        <time>2022-04-03T09:12:45.000Z</time>
      </trkpt>
      <trkpt lat="50.46416" lon="3.50273">
        <ele>30</ele>
        <time>2022-04-03T09:12:47.000Z</time>
      </trkpt>
      <trkpt lat="50.46409" lon="3.50273">
        <ele>30</ele>
        <time>2022-04-03T09:12:49.000Z</time>
      </trkpt>
      <trkpt lat="50.46402" lon="3.50273">
        <ele>30</ele>
        <time>2022-04-03T09:12:51.000Z</time>
      </trkpt>
      <trkpt lat="50.46393" lon="3.50273">
        <ele>30</ele>
        <time>2022-04-03T09:12:53.000Z</time>
      </trkpt>
      <trkpt lat="50.46386" lon="3.50272">
        <ele>30</ele>
        <time>2022-04-03T09:12:55.000Z</time>
      </trkpt>
      <trkpt lat="50.46378" lon="3.50271">
        <ele>30</ele>
        <time>2022-04-03T09:12:57.000Z</time>
      </trkpt>
      <trkpt lat="50.46371" lon="3.5027">
        <ele>30</ele>
        <time>2022-04-03T09:12:59.000Z</time>
      </trkpt>
      <trkpt lat="50.46363" lon="3.5027">
        <ele>30</ele>
        <time>2022-04-03T09:13:01.000Z</time>
      </trkpt>
      <trkpt lat="50.46355" lon="3.5027">
        <ele>30.2</ele>
        <time>2022-04-03T09:13:03.000Z</time>
      </trkpt>
      <trkpt lat="50.46348" lon="3.5027">
        <ele>30.3</ele>
        <time>2022-04-03T09:13:05.000Z</time>
      </trkpt>
      <trkpt lat="50.4634" lon="3.5027">
        <ele>30.5</ele>
        <time>2022-04-03T09:13:07.000Z</time>
      </trkpt>
      <trkpt lat="50.46333" lon="3.5027">
        <ele>30.7</ele>
        <time>2022-04-03T09:13:09.000Z</time>
      </trkpt>
      <trkpt lat="50.46326" lon="3.50271">
        <ele>30.8</ele>
        <time>2022-04-03T09:13:11.000Z</time>
      </trkpt>
      <trkpt lat="50.46319" lon="3.50271">
        <ele>30.9</ele>
        <time>2022-04-03T09:13:13.000Z</time>
      </trkpt>
      <trkpt lat="50.46312" lon="3.50272">
        <ele>31</ele>
        <time>2022-04-03T09:13:15.000Z</time>
      </trkpt>
      <trkpt lat="50.46305" lon="3.50272">
        <ele>31</ele>
        <time>2022-04-03T09:13:17.000Z</time>
      </trkpt>
      <trkpt lat="50.46298" lon="3.50273">
        <ele>31</ele>
        <time>2022-04-03T09:13:19.000Z</time>
      </trkpt>
      <trkpt lat="50.46291" lon="3.50274">
        <ele>31</ele>
        <time>2022-04-03T09:13:21.000Z</time>
      </trkpt>
      <trkpt lat="50.46283" lon="3.50276">
        <ele>31</ele>
        <time>2022-04-03T09:13:23.000Z</time>
      </trkpt>
      <trkpt lat="50.46276" lon="3.50277">
        <ele>31.1</ele>
        <time>2022-04-03T09:13:25.000Z</time>
      </trkpt>
      <trkpt lat="50.46269" lon="3.50279">
        <ele>31.3</ele>
        <time>2022-04-03T09:13:27.000Z</time>
      </trkpt>
      <trkpt lat="50.46262" lon="3.50281">
        <ele>31.6</ele>
        <time>2022-04-03T09:13:29.000Z</time>
      </trkpt>
      <trkpt lat="50.46254" lon="3.50283">
        <ele>31.9</ele>
        <time>2022-04-03T09:13:31.000Z</time>
      </trkpt>
      <trkpt lat="50.46246" lon="3.50286">
        <ele>32</ele>
        <time>2022-04-03T09:13:33.000Z</time>
      </trkpt>
      <trkpt lat="50.46238" lon="3.50288">
        <ele>32</ele>
        <time>2022-04-03T09:13:35.000Z</time>
      </trkpt>
      <trkpt lat="50.46231" lon="3.5029">
        <ele>32</ele>
        <time>2022-04-03T09:13:37.000Z</time>
      </trkpt>
      <trkpt lat="50.46223" lon="3.50293">
        <ele>32</ele>
        <time>2022-04-03T09:13:39.000Z</time>
      </trkpt>
      <trkpt lat="50.46215" lon="3.50295">
        <ele>32</ele>
        <time>2022-04-03T09:13:41.000Z</time>
      </trkpt>
      <trkpt lat="50.46208" lon="3.50297">
        <ele>32</ele>
        <time>2022-04-03T09:13:43.000Z</time>
      </trkpt>
      <trkpt lat="50.462" lon="3.50299">
        <ele>32</ele>
        <time>2022-04-03T09:13:45.000Z</time>
      </trkpt>
      <trkpt lat="50.46192" lon="3.50302">
        <ele>32.1</ele>
        <time>2022-04-03T09:13:47.000Z</time>
      </trkpt>
      <trkpt lat="50.46184" lon="3.50304">
        <ele>32.4</ele>
        <time>2022-04-03T09:13:49.000Z</time>
      </trkpt>
      <trkpt lat="50.46176" lon="3.50305">
        <ele>32.7</ele>
        <time>2022-04-03T09:13:51.000Z</time>
      </trkpt>
      <trkpt lat="50.46171" lon="3.50307">
        <ele>32.9</ele>
        <time>2022-04-03T09:13:52.000Z</time>
      </trkpt>
      <trkpt lat="50.46168" lon="3.50316">
        <ele>33</ele>
        <time>2022-04-03T09:13:53.476Z</time>
      </trkpt>
      <trkpt lat="50.46168" lon="3.50327">
        <ele>33</ele>
        <time>2022-04-03T09:13:55.000Z</time>
      </trkpt>
      <trkpt lat="50.46168" lon="3.50339">
        <ele>33</ele>
        <time>2022-04-03T09:13:57.000Z</time>
      </trkpt>
      <trkpt lat="50.46167" lon="3.50352">
        <ele>33</ele>
        <time>2022-04-03T09:13:59.000Z</time>
      </trkpt>
      <trkpt lat="50.46167" lon="3.50359">
        <ele>33</ele>
        <time>2022-04-03T09:14:00.105Z</time>
      </trkpt>
      <trkpt lat="50.46166" lon="3.50371">
        <ele>33</ele>
        <time>2022-04-03T09:14:02.000Z</time>
      </trkpt>
      <trkpt lat="50.46165" lon="3.50385">
        <ele>33</ele>
        <time>2022-04-03T09:14:04.381Z</time>
      </trkpt>
      <trkpt lat="50.46162" lon="3.50398">
        <ele>33</ele>
        <time>2022-04-03T09:14:06.843Z</time>
      </trkpt>
      <trkpt lat="50.4616" lon="3.50405">
        <ele>33</ele>
        <time>2022-04-03T09:14:08.000Z</time>
      </trkpt>
      <trkpt lat="50.46157" lon="3.50416">
        <ele>33</ele>
        <time>2022-04-03T09:14:10.000Z</time>
      </trkpt>
      <trkpt lat="50.46153" lon="3.50427">
        <ele>33</ele>
        <time>2022-04-03T09:14:12.000Z</time>
      </trkpt>
      <trkpt lat="50.4615" lon="3.50438">
        <ele>33</ele>
        <time>2022-04-03T09:14:14.000Z</time>
      </trkpt>
      <trkpt lat="50.46146" lon="3.50449">
        <ele>33</ele>
        <time>2022-04-03T09:14:16.005Z</time>
      </trkpt>
      <trkpt lat="50.46142" lon="3.50462">
        <ele>33</ele>
        <time>2022-04-03T09:14:18.085Z</time>
      </trkpt>
      <trkpt lat="50.46139" lon="3.50472">
        <ele>33</ele>
        <time>2022-04-03T09:14:20.000Z</time>
      </trkpt>
      <trkpt lat="50.46135" lon="3.50483">
        <ele>33</ele>
        <time>2022-04-03T09:14:21.944Z</time>
      </trkpt>
      <trkpt lat="50.46131" lon="3.50494">
        <ele>33</ele>
        <time>2022-04-03T09:14:24.000Z</time>
      </trkpt>
      <trkpt lat="50.46127" lon="3.50506">
        <ele>33</ele>
        <time>2022-04-03T09:14:26.000Z</time>
      </trkpt>
      <trkpt lat="50.46124" lon="3.50518">
        <ele>33</ele>
        <time>2022-04-03T09:14:28.004Z</time>
      </trkpt>
      <trkpt lat="50.46122" lon="3.50526">
        <ele>33</ele>
        <time>2022-04-03T09:14:29.171Z</time>
      </trkpt>
      <trkpt lat="50.46121" lon="3.50534">
        <ele>33</ele>
        <time>2022-04-03T09:14:30.588Z</time>
      </trkpt>
      <trkpt lat="50.46119" lon="3.50543">
        <ele>33</ele>
        <time>2022-04-03T09:14:32.108Z</time>
      </trkpt>
      <trkpt lat="50.46118" lon="3.50552">
        <ele>33</ele>
        <time>2022-04-03T09:14:33.441Z</time>
      </trkpt>
      <trkpt lat="50.46117" lon="3.50561">
        <ele>33</ele>
        <time>2022-04-03T09:14:34.924Z</time>
      </trkpt>
      <trkpt lat="50.46116" lon="3.50573">
        <ele>33</ele>
        <time>2022-04-03T09:14:36.944Z</time>
      </trkpt>
      <trkpt lat="50.46116" lon="3.50585">
        <ele>33</ele>
        <time>2022-04-03T09:14:38.983Z</time>
      </trkpt>
      <trkpt lat="50.46116" lon="3.50596">
        <ele>33</ele>
        <time>2022-04-03T09:14:41.000Z</time>
      </trkpt>
      <trkpt lat="50.46115" lon="3.50606">
        <ele>33</ele>
        <time>2022-04-03T09:14:43.000Z</time>
      </trkpt>
      <trkpt lat="50.46116" lon="3.50617">
        <ele>33</ele>
        <time>2022-04-03T09:14:45.103Z</time>
      </trkpt>
      <trkpt lat="50.46116" lon="3.50626">
        <ele>33</ele>
        <time>2022-04-03T09:14:46.745Z</time>
      </trkpt>
      <trkpt lat="50.46115" lon="3.5064">
        <ele>33</ele>
        <time>2022-04-03T09:14:49.626Z</time>
      </trkpt>
      <trkpt lat="50.46115" lon="3.50651">
        <ele>33</ele>
        <time>2022-04-03T09:14:52.000Z</time>
      </trkpt>
      <trkpt lat="50.46116" lon="3.50661">
        <ele>33</ele>
        <time>2022-04-03T09:14:54.000Z</time>
      </trkpt>
      <trkpt lat="50.46116" lon="3.5067">
        <ele>33</ele>
        <time>2022-04-03T09:14:56.021Z</time>
      </trkpt>
      <trkpt lat="50.46116" lon="3.50679">
        <ele>33</ele>
        <time>2022-04-03T09:14:58.000Z</time>
      </trkpt>
      <trkpt lat="50.46115" lon="3.50689">
        <ele>33</ele>
        <time>2022-04-03T09:15:00.000Z</time>
      </trkpt>
      <trkpt lat="50.46115" lon="3.50699">
        <ele>33</ele>
        <time>2022-04-03T09:15:02.000Z</time>
      </trkpt>
      <trkpt lat="50.46116" lon="3.50709">
        <ele>33</ele>
        <time>2022-04-03T09:15:04.000Z</time>
      </trkpt>
      <trkpt lat="50.46116" lon="3.5072">
        <ele>33</ele>
        <time>2022-04-03T09:15:06.244Z</time>
      </trkpt>
      <trkpt lat="50.46116" lon="3.50731">
        <ele>33</ele>
        <time>2022-04-03T09:15:08.745Z</time>
      </trkpt>
      <trkpt lat="50.46116" lon="3.50746">
        <ele>33</ele>
        <time>2022-04-03T09:15:11.702Z</time>
      </trkpt>
      <trkpt lat="50.46115" lon="3.50758">
        <ele>33</ele>
        <time>2022-04-03T09:15:14.084Z</time>
      </trkpt>
      <trkpt lat="50.46114" lon="3.50768">
        <ele>33</ele>
        <time>2022-04-03T09:15:16.176Z</time>
      </trkpt>
      <trkpt lat="50.46113" lon="3.50775">
        <ele>33</ele>
        <time>2022-04-03T09:15:17.846Z</time>
      </trkpt>
      <trkpt lat="50.46112" lon="3.50785">
        <ele>33</ele>
        <time>2022-04-03T09:15:20.000Z</time>
      </trkpt>
      <trkpt lat="50.46109" lon="3.50794">
        <ele>33</ele>
        <time>2022-04-03T09:15:22.044Z</time>
      </trkpt>
      <trkpt lat="50.46106" lon="3.50802">
        <ele>33</ele>
        <time>2022-04-03T09:15:24.142Z</time>
      </trkpt>
      <trkpt lat="50.46103" lon="3.50811">
        <ele>33</ele>
        <time>2022-04-03T09:15:26.623Z</time>
      </trkpt>
      <trkpt lat="50.46099" lon="3.50819">
        <ele>33</ele>
        <time>2022-04-03T09:15:29.000Z</time>
      </trkpt>
      <trkpt lat="50.46096" lon="3.50827">
        <ele>33</ele>
        <time>2022-04-03T09:15:31.000Z</time>
      </trkpt>
      <trkpt lat="50.46093" lon="3.50834">
        <ele>33</ele>
        <time>2022-04-03T09:15:32.943Z</time>
      </trkpt>
      <trkpt lat="50.46089" lon="3.50842">
        <ele>33</ele>
        <time>2022-04-03T09:15:35.000Z</time>
      </trkpt>
      <trkpt lat="50.46085" lon="3.5085">
        <ele>33</ele>
        <time>2022-04-03T09:15:37.000Z</time>
      </trkpt>
      <trkpt lat="50.46081" lon="3.50859">
        <ele>33</ele>
        <time>2022-04-03T09:15:39.000Z</time>
      </trkpt>
      <trkpt lat="50.46078" lon="3.50867">
        <ele>33</ele>
        <time>2022-04-03T09:15:40.844Z</time>
      </trkpt>
      <trkpt lat="50.46073" lon="3.50877">
        <ele>33</ele>
        <time>2022-04-03T09:15:43.153Z</time>
      </trkpt>
      <trkpt lat="50.46067" lon="3.50887">
        <ele>33</ele>
        <time>2022-04-03T09:15:46.000Z</time>
      </trkpt>
      <trkpt lat="50.46064" lon="3.50894">
        <ele>33</ele>
        <time>2022-04-03T09:15:47.601Z</time>
      </trkpt>
      <trkpt lat="50.46062" lon="3.509">
        <ele>33</ele>
        <time>2022-04-03T09:15:49.000Z</time>
      </trkpt>
      <trkpt lat="50.46057" lon="3.50912">
        <ele>33</ele>
        <time>2022-04-03T09:15:51.662Z</time>
      </trkpt>
      <trkpt lat="50.46053" lon="3.50922">
        <ele>33.1</ele>
        <time>2022-04-03T09:15:54.041Z</time>
      </trkpt>
      <trkpt lat="50.4605" lon="3.50931">
        <ele>33.1</ele>
        <time>2022-04-03T09:15:55.886Z</time>
      </trkpt>
      <trkpt lat="50.46046" lon="3.5094">
        <ele>33.1</ele>
        <time>2022-04-03T09:15:58.000Z</time>
      </trkpt>
      <trkpt lat="50.46044" lon="3.50951">
        <ele>33</ele>
        <time>2022-04-03T09:16:00.000Z</time>
      </trkpt>
      <trkpt lat="50.46039" lon="3.50961">
        <ele>33</ele>
        <time>2022-04-03T09:16:02.205Z</time>
      </trkpt>
      <trkpt lat="50.46035" lon="3.50969">
        <ele>33</ele>
        <time>2022-04-03T09:16:04.000Z</time>
      </trkpt>
      <trkpt lat="50.46032" lon="3.50975">
        <ele>32.9</ele>
        <time>2022-04-03T09:16:05.302Z</time>
      </trkpt>
      <trkpt lat="50.46028" lon="3.50986">
        <ele>32.5</ele>
        <time>2022-04-03T09:16:07.409Z</time>
      </trkpt>
      <trkpt lat="50.46024" lon="3.51">
        <ele>32.1</ele>
        <time>2022-04-03T09:16:09.885Z</time>
      </trkpt>
      <trkpt lat="50.4602" lon="3.5101">
        <ele>32.3</ele>
        <time>2022-04-03T09:16:12.000Z</time>
      </trkpt>
      <trkpt lat="50.46017" lon="3.51021">
        <ele>32.4</ele>
        <time>2022-04-03T09:16:14.000Z</time>
      </trkpt>
      <trkpt lat="50.46014" lon="3.51032">
        <ele>32.4</ele>
        <time>2022-04-03T09:16:16.025Z</time>
      </trkpt>
      <trkpt lat="50.46011" lon="3.51041">
        <ele>32.3</ele>
        <time>2022-04-03T09:16:18.000Z</time>
      </trkpt>
      <trkpt lat="50.46008" lon="3.51052">
        <ele>32.1</ele>
        <time>2022-04-03T09:16:20.177Z</time>
      </trkpt>
      <trkpt lat="50.46004" lon="3.51064">
        <ele>32</ele>
        <time>2022-04-03T09:16:22.666Z</time>
      </trkpt>
      <trkpt lat="50.46003" lon="3.51071">
        <ele>32</ele>
        <time>2022-04-03T09:16:24.000Z</time>
      </trkpt>
      <trkpt lat="50.46" lon="3.51081">
        <ele>32</ele>
        <time>2022-04-03T09:16:26.000Z</time>
      </trkpt>
      <trkpt lat="50.45997" lon="3.51092">
        <ele>32.1</ele>
        <time>2022-04-03T09:16:27.983Z</time>
      </trkpt>
      <trkpt lat="50.45994" lon="3.51103">
        <ele>32.2</ele>
        <time>2022-04-03T09:16:30.184Z</time>
      </trkpt>
      <trkpt lat="50.45991" lon="3.51112">
        <ele>32.3</ele>
        <time>2022-04-03T09:16:32.029Z</time>
      </trkpt>
      <trkpt lat="50.45989" lon="3.51121">
        <ele>32.4</ele>
        <time>2022-04-03T09:16:34.001Z</time>
      </trkpt>
      <trkpt lat="50.45986" lon="3.51131">
        <ele>32.5</ele>
        <time>2022-04-03T09:16:36.000Z</time>
      </trkpt>
      <trkpt lat="50.45983" lon="3.51142">
        <ele>32.6</ele>
        <time>2022-04-03T09:16:38.529Z</time>
      </trkpt>
      <trkpt lat="50.45981" lon="3.5115">
        <ele>32.7</ele>
        <time>2022-04-03T09:16:40.524Z</time>
      </trkpt>
      <trkpt lat="50.45978" lon="3.51161">
        <ele>32.8</ele>
        <time>2022-04-03T09:16:42.925Z</time>
      </trkpt>
      <trkpt lat="50.45976" lon="3.51168">
        <ele>32.9</ele>
        <time>2022-04-03T09:16:45.000Z</time>
      </trkpt>
      <trkpt lat="50.45973" lon="3.51176">
        <ele>33</ele>
        <time>2022-04-03T09:16:47.042Z</time>
      </trkpt>
      <trkpt lat="50.45971" lon="3.51185">
        <ele>33</ele>
        <time>2022-04-03T09:16:49.764Z</time>
      </trkpt>
      <trkpt lat="50.45969" lon="3.51193">
        <ele>33</ele>
        <time>2022-04-03T09:16:52.000Z</time>
      </trkpt>
      <trkpt lat="50.45966" lon="3.512">
        <ele>33</ele>
        <time>2022-04-03T09:16:54.006Z</time>
      </trkpt>
      <trkpt lat="50.45964" lon="3.51206">
        <ele>33</ele>
        <time>2022-04-03T09:16:56.000Z</time>
      </trkpt>
      <trkpt lat="50.4596" lon="3.51215">
        <ele>33</ele>
        <time>2022-04-03T09:16:59.000Z</time>
      </trkpt>
      <trkpt lat="50.45958" lon="3.51222">
        <ele>33</ele>
        <time>2022-04-03T09:17:01.000Z</time>
      </trkpt>
      <trkpt lat="50.45955" lon="3.51231">
        <ele>33</ele>
        <time>2022-04-03T09:17:04.000Z</time>
      </trkpt>
      <trkpt lat="50.45953" lon="3.51238">
        <ele>33</ele>
        <time>2022-04-03T09:17:06.090Z</time>
      </trkpt>
      <trkpt lat="50.4595" lon="3.51248">
        <ele>33</ele>
        <time>2022-04-03T09:17:09.565Z</time>
      </trkpt>
      <trkpt lat="50.45947" lon="3.51256">
        <ele>33.2</ele>
        <time>2022-04-03T09:17:12.000Z</time>
      </trkpt>
      <trkpt lat="50.45943" lon="3.51264">
        <ele>33.5</ele>
        <time>2022-04-03T09:17:15.086Z</time>
      </trkpt>
      <trkpt lat="50.45942" lon="3.51271">
        <ele>33.8</ele>
        <time>2022-04-03T09:17:17.202Z</time>
      </trkpt>
      <trkpt lat="50.45938" lon="3.51279">
        <ele>34</ele>
        <time>2022-04-03T09:17:19.828Z</time>
      </trkpt>
      <trkpt lat="50.45934" lon="3.51287">
        <ele>34</ele>
        <time>2022-04-03T09:17:22.000Z</time>
      </trkpt>
      <trkpt lat="50.45931" lon="3.51293">
        <ele>34</ele>
        <time>2022-04-03T09:17:23.000Z</time>
      </trkpt>
      <trkpt lat="50.45928" lon="3.513">
        <ele>34</ele>
        <time>2022-04-03T09:17:25.060Z</time>
      </trkpt>
      <trkpt lat="50.45925" lon="3.51308">
        <ele>34</ele>
        <time>2022-04-03T09:17:27.328Z</time>
      </trkpt>
      <trkpt lat="50.45922" lon="3.51318">
        <ele>34</ele>
        <time>2022-04-03T09:17:30.000Z</time>
      </trkpt>
      <trkpt lat="50.45919" lon="3.51326">
        <ele>34</ele>
        <time>2022-04-03T09:17:32.000Z</time>
      </trkpt>
      <trkpt lat="50.45916" lon="3.51335">
        <ele>34</ele>
        <time>2022-04-03T09:17:34.000Z</time>
      </trkpt>
      <trkpt lat="50.45912" lon="3.51345">
        <ele>34</ele>
        <time>2022-04-03T09:17:36.321Z</time>
      </trkpt>
      <trkpt lat="50.4591" lon="3.51355">
        <ele>34</ele>
        <time>2022-04-03T09:17:38.424Z</time>
      </trkpt>
      <trkpt lat="50.45907" lon="3.51367">
        <ele>34</ele>
        <time>2022-04-03T09:17:41.000Z</time>
      </trkpt>
      <trkpt lat="50.45904" lon="3.51378">
        <ele>34</ele>
        <time>2022-04-03T09:17:43.242Z</time>
      </trkpt>
      <trkpt lat="50.45902" lon="3.51387">
        <ele>34</ele>
        <time>2022-04-03T09:17:45.527Z</time>
      </trkpt>
      <trkpt lat="50.459" lon="3.51397">
        <ele>34.2</ele>
        <time>2022-04-03T09:17:47.644Z</time>
      </trkpt>
      <trkpt lat="50.45898" lon="3.51404">
        <ele>34.4</ele>
        <time>2022-04-03T09:17:49.001Z</time>
      </trkpt>
      <trkpt lat="50.45896" lon="3.51414">
        <ele>34.7</ele>
        <time>2022-04-03T09:17:51.127Z</time>
      </trkpt>
      <trkpt lat="50.45894" lon="3.51421">
        <ele>34.8</ele>
        <time>2022-04-03T09:17:52.801Z</time>
      </trkpt>
      <trkpt lat="50.45893" lon="3.5143">
        <ele>34.9</ele>
        <time>2022-04-03T09:17:54.842Z</time>
      </trkpt>
      <trkpt lat="50.4589" lon="3.5144">
        <ele>35</ele>
        <time>2022-04-03T09:17:56.963Z</time>
      </trkpt>
      <trkpt lat="50.45888" lon="3.5145">
        <ele>35</ele>
        <time>2022-04-03T09:17:59.000Z</time>
      </trkpt>
      <trkpt lat="50.45884" lon="3.5146">
        <ele>34.8</ele>
        <time>2022-04-03T09:18:01.201Z</time>
      </trkpt>
      <trkpt lat="50.45882" lon="3.51472">
        <ele>34.8</ele>
        <time>2022-04-03T09:18:03.705Z</time>
      </trkpt>
      <trkpt lat="50.4588" lon="3.51483">
        <ele>34.4</ele>
        <time>2022-04-03T09:18:05.723Z</time>
      </trkpt>
      <trkpt lat="50.45877" lon="3.51495">
        <ele>34.1</ele>
        <time>2022-04-03T09:18:07.843Z</time>
      </trkpt>
      <trkpt lat="50.45874" lon="3.51508">
        <ele>34</ele>
        <time>2022-04-03T09:18:10.518Z</time>
      </trkpt>
      <trkpt lat="50.45873" lon="3.51521">
        <ele>34</ele>
        <time>2022-04-03T09:18:13.103Z</time>
      </trkpt>
      <trkpt lat="50.45873" lon="3.51529">
        <ele>34</ele>
        <time>2022-04-03T09:18:14.625Z</time>
      </trkpt>
      <trkpt lat="50.45872" lon="3.5154">
        <ele>33.8</ele>
        <time>2022-04-03T09:18:16.904Z</time>
      </trkpt>
      <trkpt lat="50.4587" lon="3.51552">
        <ele>33.7</ele>
        <time>2022-04-03T09:18:19.000Z</time>
      </trkpt>
      <trkpt lat="50.45868" lon="3.51559">
        <ele>33.8</ele>
        <time>2022-04-03T09:18:20.173Z</time>
      </trkpt>
      <trkpt lat="50.45866" lon="3.51566">
        <ele>33.8</ele>
        <time>2022-04-03T09:18:21.565Z</time>
      </trkpt>
      <trkpt lat="50.45864" lon="3.51574">
        <ele>33.9</ele>
        <time>2022-04-03T09:18:23.000Z</time>
      </trkpt>
      <trkpt lat="50.45861" lon="3.51585">
        <ele>33.9</ele>
        <time>2022-04-03T09:18:24.905Z</time>
      </trkpt>
      <trkpt lat="50.45859" lon="3.51591">
        <ele>33.7</ele>
        <time>2022-04-03T09:18:26.000Z</time>
      </trkpt>
      <trkpt lat="50.45854" lon="3.51603">
        <ele>33.3</ele>
        <time>2022-04-03T09:18:28.028Z</time>
      </trkpt>
      <trkpt lat="50.45851" lon="3.51612">
        <ele>33</ele>
        <time>2022-04-03T09:18:29.522Z</time>
      </trkpt>
      <trkpt lat="50.45848" lon="3.51622">
        <ele>33</ele>
        <time>2022-04-03T09:18:31.101Z</time>
      </trkpt>
      <trkpt lat="50.45845" lon="3.5163">
        <ele>33</ele>
        <time>2022-04-03T09:18:32.179Z</time>
      </trkpt>
      <trkpt lat="50.45843" lon="3.51636">
        <ele>33</ele>
        <time>2022-04-03T09:18:33.157Z</time>
      </trkpt>
      <trkpt lat="50.45838" lon="3.51649">
        <ele>32.9</ele>
        <time>2022-04-03T09:18:35.000Z</time>
      </trkpt>
      <trkpt lat="50.45836" lon="3.51656">
        <ele>32.9</ele>
        <time>2022-04-03T09:18:36.000Z</time>
      </trkpt>
      <trkpt lat="50.45834" lon="3.51663">
        <ele>33</ele>
        <time>2022-04-03T09:18:37.000Z</time>
      </trkpt>
      <trkpt lat="50.45831" lon="3.5167">
        <ele>32.9</ele>
        <time>2022-04-03T09:18:38.000Z</time>
      </trkpt>
      <trkpt lat="50.45828" lon="3.51676">
        <ele>32.7</ele>
        <time>2022-04-03T09:18:39.000Z</time>
      </trkpt>
      <trkpt lat="50.45825" lon="3.51683">
        <ele>32.6</ele>
        <time>2022-04-03T09:18:40.000Z</time>
      </trkpt>
      <trkpt lat="50.45822" lon="3.5169">
        <ele>32.5</ele>
        <time>2022-04-03T09:18:41.000Z</time>
      </trkpt>
      <trkpt lat="50.45819" lon="3.51697">
        <ele>32.5</ele>
        <time>2022-04-03T09:18:42.000Z</time>
      </trkpt>
      <trkpt lat="50.45816" lon="3.51704">
        <ele>32.6</ele>
        <time>2022-04-03T09:18:43.000Z</time>
      </trkpt>
      <trkpt lat="50.45814" lon="3.51711">
        <ele>32.7</ele>
        <time>2022-04-03T09:18:44.000Z</time>
      </trkpt>
      <trkpt lat="50.45811" lon="3.51717">
        <ele>32.8</ele>
        <time>2022-04-03T09:18:45.000Z</time>
      </trkpt>
      <trkpt lat="50.45809" lon="3.51724">
        <ele>32.8</ele>
        <time>2022-04-03T09:18:46.000Z</time>
      </trkpt>
      <trkpt lat="50.45806" lon="3.51731">
        <ele>32.7</ele>
        <time>2022-04-03T09:18:47.000Z</time>
      </trkpt>
      <trkpt lat="50.45803" lon="3.51738">
        <ele>32.4</ele>
        <time>2022-04-03T09:18:48.000Z</time>
      </trkpt>
      <trkpt lat="50.45801" lon="3.51745">
        <ele>32.2</ele>
        <time>2022-04-03T09:18:49.000Z</time>
      </trkpt>
      <trkpt lat="50.45798" lon="3.51752">
        <ele>32</ele>
        <time>2022-04-03T09:18:50.000Z</time>
      </trkpt>
      <trkpt lat="50.45794" lon="3.51759">
        <ele>32</ele>
        <time>2022-04-03T09:18:51.000Z</time>
      </trkpt>
      <trkpt lat="50.4579" lon="3.51765">
        <ele>32</ele>
        <time>2022-04-03T09:18:52.000Z</time>
      </trkpt>
      <trkpt lat="50.45786" lon="3.51771">
        <ele>32</ele>
        <time>2022-04-03T09:18:53.000Z</time>
      </trkpt>
      <trkpt lat="50.45782" lon="3.51777">
        <ele>32</ele>
        <time>2022-04-03T09:18:54.000Z</time>
      </trkpt>
      <trkpt lat="50.45777" lon="3.51782">
        <ele>31.9</ele>
        <time>2022-04-03T09:18:55.000Z</time>
      </trkpt>
      <trkpt lat="50.45773" lon="3.51786">
        <ele>31.8</ele>
        <time>2022-04-03T09:18:56.000Z</time>
      </trkpt>
      <trkpt lat="50.4577" lon="3.51791">
        <ele>31.7</ele>
        <time>2022-04-03T09:18:57.000Z</time>
      </trkpt>
      <trkpt lat="50.45766" lon="3.51797">
        <ele>31.6</ele>
        <time>2022-04-03T09:18:58.000Z</time>
      </trkpt>
      <trkpt lat="50.45763" lon="3.51802">
        <ele>31.6</ele>
        <time>2022-04-03T09:18:59.000Z</time>
      </trkpt>
      <trkpt lat="50.45757" lon="3.51812">
        <ele>31.7</ele>
        <time>2022-04-03T09:19:01.000Z</time>
      </trkpt>
      <trkpt lat="50.45755" lon="3.51817">
        <ele>31.8</ele>
        <time>2022-04-03T09:19:02.000Z</time>
      </trkpt>
      <trkpt lat="50.4575" lon="3.51826">
        <ele>32</ele>
        <time>2022-04-03T09:19:04.000Z</time>
      </trkpt>
      <trkpt lat="50.45745" lon="3.51837">
        <ele>32</ele>
        <time>2022-04-03T09:19:06.000Z</time>
      </trkpt>
      <trkpt lat="50.45741" lon="3.51847">
        <ele>32</ele>
        <time>2022-04-03T09:19:08.000Z</time>
      </trkpt>
      <trkpt lat="50.45739" lon="3.51858">
        <ele>32</ele>
        <time>2022-04-03T09:19:10.074Z</time>
      </trkpt>
      <trkpt lat="50.45735" lon="3.51862">
        <ele>32</ele>
        <time>2022-04-03T09:19:11.075Z</time>
      </trkpt>
      <trkpt lat="50.45731" lon="3.51869">
        <ele>31.9</ele>
        <time>2022-04-03T09:19:12.409Z</time>
      </trkpt>
      <trkpt lat="50.45727" lon="3.51875">
        <ele>31.9</ele>
        <time>2022-04-03T09:19:13.628Z</time>
      </trkpt>
      <trkpt lat="50.45723" lon="3.51882">
        <ele>32</ele>
        <time>2022-04-03T09:19:14.874Z</time>
      </trkpt>
      <trkpt lat="50.4572" lon="3.51889">
        <ele>32</ele>
        <time>2022-04-03T09:19:16.000Z</time>
      </trkpt>
      <trkpt lat="50.45717" lon="3.51895">
        <ele>31.8</ele>
        <time>2022-04-03T09:19:17.000Z</time>
      </trkpt>
      <trkpt lat="50.45715" lon="3.51901">
        <ele>31.7</ele>
        <time>2022-04-03T09:19:18.000Z</time>
      </trkpt>
      <trkpt lat="50.45712" lon="3.51907">
        <ele>31.6</ele>
        <time>2022-04-03T09:19:19.000Z</time>
      </trkpt>
      <trkpt lat="50.45708" lon="3.51919">
        <ele>31.5</ele>
        <time>2022-04-03T09:19:21.000Z</time>
      </trkpt>
      <trkpt lat="50.45706" lon="3.51925">
        <ele>31.6</ele>
        <time>2022-04-03T09:19:22.000Z</time>
      </trkpt>
      <trkpt lat="50.45702" lon="3.51939">
        <ele>31.7</ele>
        <time>2022-04-03T09:19:24.000Z</time>
      </trkpt>
      <trkpt lat="50.457" lon="3.51945">
        <ele>31.8</ele>
        <time>2022-04-03T09:19:25.000Z</time>
      </trkpt>
      <trkpt lat="50.45699" lon="3.51952">
        <ele>31.8</ele>
        <time>2022-04-03T09:19:26.000Z</time>
      </trkpt>
      <trkpt lat="50.45697" lon="3.51959">
        <ele>31.9</ele>
        <time>2022-04-03T09:19:27.000Z</time>
      </trkpt>
      <trkpt lat="50.45695" lon="3.51967">
        <ele>32</ele>
        <time>2022-04-03T09:19:28.000Z</time>
      </trkpt>
      <trkpt lat="50.45694" lon="3.51974">
        <ele>32</ele>
        <time>2022-04-03T09:19:29.000Z</time>
      </trkpt>
      <trkpt lat="50.45693" lon="3.51982">
        <ele>32</ele>
        <time>2022-04-03T09:19:30.000Z</time>
      </trkpt>
      <trkpt lat="50.45692" lon="3.5199">
        <ele>32</ele>
        <time>2022-04-03T09:19:31.000Z</time>
      </trkpt>
      <trkpt lat="50.45691" lon="3.51997">
        <ele>32</ele>
        <time>2022-04-03T09:19:32.000Z</time>
      </trkpt>
      <trkpt lat="50.4569" lon="3.52005">
        <ele>31.8</ele>
        <time>2022-04-03T09:19:33.000Z</time>
      </trkpt>
      <trkpt lat="50.45689" lon="3.52013">
        <ele>31.5</ele>
        <time>2022-04-03T09:19:34.000Z</time>
      </trkpt>
      <trkpt lat="50.45689" lon="3.52021">
        <ele>31.2</ele>
        <time>2022-04-03T09:19:35.000Z</time>
      </trkpt>
      <trkpt lat="50.45688" lon="3.52029">
        <ele>31</ele>
        <time>2022-04-03T09:19:36.000Z</time>
      </trkpt>
      <trkpt lat="50.45687" lon="3.52037">
        <ele>31</ele>
        <time>2022-04-03T09:19:37.000Z</time>
      </trkpt>
      <trkpt lat="50.45685" lon="3.52044">
        <ele>31</ele>
        <time>2022-04-03T09:19:38.000Z</time>
      </trkpt>
      <trkpt lat="50.45684" lon="3.52051">
        <ele>31</ele>
        <time>2022-04-03T09:19:39.000Z</time>
      </trkpt>
      <trkpt lat="50.45683" lon="3.52059">
        <ele>31</ele>
        <time>2022-04-03T09:19:40.000Z</time>
      </trkpt>
      <trkpt lat="50.45681" lon="3.52066">
        <ele>31</ele>
        <time>2022-04-03T09:19:41.000Z</time>
      </trkpt>
      <trkpt lat="50.45679" lon="3.52074">
        <ele>31</ele>
        <time>2022-04-03T09:19:42.000Z</time>
      </trkpt>
      <trkpt lat="50.45678" lon="3.52082">
        <ele>31</ele>
        <time>2022-04-03T09:19:43.000Z</time>
      </trkpt>
      <trkpt lat="50.45677" lon="3.52089">
        <ele>31</ele>
        <time>2022-04-03T09:19:44.000Z</time>
      </trkpt>
      <trkpt lat="50.45676" lon="3.52097">
        <ele>31</ele>
        <time>2022-04-03T09:19:45.000Z</time>
      </trkpt>
      <trkpt lat="50.45675" lon="3.52104">
        <ele>31</ele>
        <time>2022-04-03T09:19:46.000Z</time>
      </trkpt>
      <trkpt lat="50.45674" lon="3.52111">
        <ele>31</ele>
        <time>2022-04-03T09:19:47.000Z</time>
      </trkpt>
      <trkpt lat="50.45673" lon="3.52119">
        <ele>31</ele>
        <time>2022-04-03T09:19:48.000Z</time>
      </trkpt>
      <trkpt lat="50.45672" lon="3.52126">
        <ele>31</ele>
        <time>2022-04-03T09:19:49.000Z</time>
      </trkpt>
      <trkpt lat="50.45672" lon="3.52134">
        <ele>31</ele>
        <time>2022-04-03T09:19:50.000Z</time>
      </trkpt>
      <trkpt lat="50.45672" lon="3.52141">
        <ele>31</ele>
        <time>2022-04-03T09:19:51.000Z</time>
      </trkpt>
      <trkpt lat="50.45672" lon="3.5215">
        <ele>30.9</ele>
        <time>2022-04-03T09:19:52.000Z</time>
      </trkpt>
      <trkpt lat="50.45672" lon="3.52158">
        <ele>30.9</ele>
        <time>2022-04-03T09:19:53.000Z</time>
      </trkpt>
      <trkpt lat="50.45671" lon="3.52165">
        <ele>30.9</ele>
        <time>2022-04-03T09:19:54.000Z</time>
      </trkpt>
      <trkpt lat="50.4567" lon="3.52173">
        <ele>30.7</ele>
        <time>2022-04-03T09:19:55.000Z</time>
      </trkpt>
      <trkpt lat="50.45669" lon="3.52181">
        <ele>30.4</ele>
        <time>2022-04-03T09:19:56.000Z</time>
      </trkpt>
      <trkpt lat="50.45669" lon="3.52189">
        <ele>30.2</ele>
        <time>2022-04-03T09:19:57.000Z</time>
      </trkpt>
      <trkpt lat="50.45668" lon="3.52197">
        <ele>30</ele>
        <time>2022-04-03T09:19:58.000Z</time>
      </trkpt>
      <trkpt lat="50.45667" lon="3.52206">
        <ele>30</ele>
        <time>2022-04-03T09:19:59.000Z</time>
      </trkpt>
      <trkpt lat="50.45666" lon="3.52214">
        <ele>30</ele>
        <time>2022-04-03T09:20:00.000Z</time>
      </trkpt>
      <trkpt lat="50.45664" lon="3.52222">
        <ele>29.9</ele>
        <time>2022-04-03T09:20:01.000Z</time>
      </trkpt>
      <trkpt lat="50.45663" lon="3.52232">
        <ele>29.5</ele>
        <time>2022-04-03T09:20:02.000Z</time>
      </trkpt>
      <trkpt lat="50.45663" lon="3.52241">
        <ele>29.2</ele>
        <time>2022-04-03T09:20:03.000Z</time>
      </trkpt>
      <trkpt lat="50.45662" lon="3.5225">
        <ele>28.8</ele>
        <time>2022-04-03T09:20:04.000Z</time>
      </trkpt>
      <trkpt lat="50.45661" lon="3.52258">
        <ele>28.6</ele>
        <time>2022-04-03T09:20:05.000Z</time>
      </trkpt>
      <trkpt lat="50.45659" lon="3.52268">
        <ele>28.3</ele>
        <time>2022-04-03T09:20:06.000Z</time>
      </trkpt>
      <trkpt lat="50.45658" lon="3.52277">
        <ele>28</ele>
        <time>2022-04-03T09:20:07.000Z</time>
      </trkpt>
      <trkpt lat="50.45657" lon="3.52286">
        <ele>27.9</ele>
        <time>2022-04-03T09:20:08.000Z</time>
      </trkpt>
      <trkpt lat="50.45657" lon="3.52295">
        <ele>27.8</ele>
        <time>2022-04-03T09:20:09.000Z</time>
      </trkpt>
      <trkpt lat="50.45657" lon="3.52303">
        <ele>27.7</ele>
        <time>2022-04-03T09:20:10.000Z</time>
      </trkpt>
      <trkpt lat="50.45657" lon="3.52312">
        <ele>27.4</ele>
        <time>2022-04-03T09:20:11.000Z</time>
      </trkpt>
      <trkpt lat="50.45658" lon="3.52321">
        <ele>27.1</ele>
        <time>2022-04-03T09:20:12.000Z</time>
      </trkpt>
      <trkpt lat="50.45659" lon="3.5233">
        <ele>26.8</ele>
        <time>2022-04-03T09:20:13.000Z</time>
      </trkpt>
      <trkpt lat="50.45659" lon="3.52339">
        <ele>26.5</ele>
        <time>2022-04-03T09:20:14.000Z</time>
      </trkpt>
      <trkpt lat="50.45659" lon="3.52348">
        <ele>26.2</ele>
        <time>2022-04-03T09:20:15.000Z</time>
      </trkpt>
      <trkpt lat="50.45659" lon="3.52358">
        <ele>25.8</ele>
        <time>2022-04-03T09:20:16.000Z</time>
      </trkpt>
      <trkpt lat="50.4566" lon="3.52367">
        <ele>25.8</ele>
        <time>2022-04-03T09:20:17.000Z</time>
      </trkpt>
      <trkpt lat="50.4566" lon="3.52375">
        <ele>25.8</ele>
        <time>2022-04-03T09:20:18.000Z</time>
      </trkpt>
      <trkpt lat="50.4566" lon="3.52386">
        <ele>25.8</ele>
        <time>2022-04-03T09:20:20.000Z</time>
      </trkpt>
      <trkpt lat="50.45657" lon="3.52395">
        <ele>25.4</ele>
        <time>2022-04-03T09:20:22.000Z</time>
      </trkpt>
      <trkpt lat="50.45652" lon="3.52394">
        <ele>25.3</ele>
        <time>2022-04-03T09:20:25.000Z</time>
      </trkpt>
      <trkpt lat="50.45649" lon="3.52403">
        <ele>24.9</ele>
        <time>2022-04-03T09:20:28.000Z</time>
      </trkpt>
      <trkpt lat="50.45649" lon="3.52414">
        <ele>24.5</ele>
        <time>2022-04-03T09:20:29.713Z</time>
      </trkpt>
      <trkpt lat="50.45651" lon="3.52425">
        <ele>24.3</ele>
        <time>2022-04-03T09:20:31.000Z</time>
      </trkpt>
      <trkpt lat="50.45652" lon="3.52434">
        <ele>24.2</ele>
        <time>2022-04-03T09:20:32.000Z</time>
      </trkpt>
      <trkpt lat="50.45652" lon="3.52443">
        <ele>24</ele>
        <time>2022-04-03T09:20:33.000Z</time>
      </trkpt>
      <trkpt lat="50.45653" lon="3.52452">
        <ele>23.9</ele>
        <time>2022-04-03T09:20:34.000Z</time>
      </trkpt>
      <trkpt lat="50.45653" lon="3.52461">
        <ele>23.7</ele>
        <time>2022-04-03T09:20:35.000Z</time>
      </trkpt>
      <trkpt lat="50.45652" lon="3.5247">
        <ele>23.5</ele>
        <time>2022-04-03T09:20:36.000Z</time>
      </trkpt>
      <trkpt lat="50.45651" lon="3.52479">
        <ele>23.3</ele>
        <time>2022-04-03T09:20:37.000Z</time>
      </trkpt>
      <trkpt lat="50.45651" lon="3.52488">
        <ele>23.2</ele>
        <time>2022-04-03T09:20:38.000Z</time>
      </trkpt>
      <trkpt lat="50.4565" lon="3.52496">
        <ele>23.1</ele>
        <time>2022-04-03T09:20:39.000Z</time>
      </trkpt>
      <trkpt lat="50.4565" lon="3.52503">
        <ele>23</ele>
        <time>2022-04-03T09:20:40.000Z</time>
      </trkpt>
      <trkpt lat="50.45651" lon="3.52515">
        <ele>23</ele>
        <time>2022-04-03T09:20:42.000Z</time>
      </trkpt>
      <trkpt lat="50.4565" lon="3.52522">
        <ele>23</ele>
        <time>2022-04-03T09:20:44.259Z</time>
      </trkpt>
      <trkpt lat="50.45648" lon="3.52531">
        <ele>22.9</ele>
        <time>2022-04-03T09:20:48.000Z</time>
      </trkpt>
      <trkpt lat="50.45651" lon="3.52542">
        <ele>22.5</ele>
        <time>2022-04-03T09:20:51.000Z</time>
      </trkpt>
      <trkpt lat="50.45653" lon="3.5255">
        <ele>22.2</ele>
        <time>2022-04-03T09:20:53.000Z</time>
      </trkpt>
      <trkpt lat="50.45653" lon="3.52562">
        <ele>21.8</ele>
        <time>2022-04-03T09:20:55.000Z</time>
      </trkpt>
      <trkpt lat="50.45652" lon="3.52574">
        <ele>21.3</ele>
        <time>2022-04-03T09:20:57.000Z</time>
      </trkpt>
      <trkpt lat="50.4565" lon="3.52589">
        <ele>21</ele>
        <time>2022-04-03T09:20:59.000Z</time>
      </trkpt>
      <trkpt lat="50.4565" lon="3.52598">
        <ele>21</ele>
        <time>2022-04-03T09:21:00.000Z</time>
      </trkpt>
      <trkpt lat="50.45651" lon="3.52607">
        <ele>21</ele>
        <time>2022-04-03T09:21:01.000Z</time>
      </trkpt>
      <trkpt lat="50.45651" lon="3.52617">
        <ele>20.8</ele>
        <time>2022-04-03T09:21:02.000Z</time>
      </trkpt>
      <trkpt lat="50.45652" lon="3.52626">
        <ele>20.5</ele>
        <time>2022-04-03T09:21:03.000Z</time>
      </trkpt>
      <trkpt lat="50.45652" lon="3.52636">
        <ele>20.1</ele>
        <time>2022-04-03T09:21:04.000Z</time>
      </trkpt>
      <trkpt lat="50.45652" lon="3.52646">
        <ele>20</ele>
        <time>2022-04-03T09:21:05.000Z</time>
      </trkpt>
      <trkpt lat="50.45651" lon="3.52657">
        <ele>20</ele>
        <time>2022-04-03T09:21:06.000Z</time>
      </trkpt>
      <trkpt lat="50.45651" lon="3.52667">
        <ele>20</ele>
        <time>2022-04-03T09:21:07.000Z</time>
      </trkpt>
      <trkpt lat="50.4565" lon="3.52678">
        <ele>19.6</ele>
        <time>2022-04-03T09:21:08.000Z</time>
      </trkpt>
      <trkpt lat="50.45649" lon="3.52689">
        <ele>19.2</ele>
        <time>2022-04-03T09:21:09.000Z</time>
      </trkpt>
      <trkpt lat="50.45649" lon="3.52701">
        <ele>19</ele>
        <time>2022-04-03T09:21:10.000Z</time>
      </trkpt>
      <trkpt lat="50.45648" lon="3.52714">
        <ele>19</ele>
        <time>2022-04-03T09:21:11.000Z</time>
      </trkpt>
      <trkpt lat="50.45647" lon="3.52726">
        <ele>19</ele>
        <time>2022-04-03T09:21:12.000Z</time>
      </trkpt>
      <trkpt lat="50.45647" lon="3.52738">
        <ele>19</ele>
        <time>2022-04-03T09:21:13.000Z</time>
      </trkpt>
      <trkpt lat="50.45647" lon="3.5275">
        <ele>19</ele>
        <time>2022-04-03T09:21:14.000Z</time>
      </trkpt>
      <trkpt lat="50.45647" lon="3.52762">
        <ele>18.9</ele>
        <time>2022-04-03T09:21:15.000Z</time>
      </trkpt>
      <trkpt lat="50.45646" lon="3.52775">
        <ele>18.8</ele>
        <time>2022-04-03T09:21:16.000Z</time>
      </trkpt>
      <trkpt lat="50.45646" lon="3.52787">
        <ele>18.7</ele>
        <time>2022-04-03T09:21:17.000Z</time>
      </trkpt>
      <trkpt lat="50.45646" lon="3.52799">
        <ele>18.7</ele>
        <time>2022-04-03T09:21:18.000Z</time>
      </trkpt>
      <trkpt lat="50.45646" lon="3.52812">
        <ele>18.6</ele>
        <time>2022-04-03T09:21:19.000Z</time>
      </trkpt>
      <trkpt lat="50.45646" lon="3.52823">
        <ele>18.3</ele>
        <time>2022-04-03T09:21:20.000Z</time>
      </trkpt>
      <trkpt lat="50.45646" lon="3.52835">
        <ele>18</ele>
        <time>2022-04-03T09:21:21.000Z</time>
      </trkpt>
      <trkpt lat="50.45646" lon="3.52847">
        <ele>18</ele>
        <time>2022-04-03T09:21:22.000Z</time>
      </trkpt>
      <trkpt lat="50.45645" lon="3.52859">
        <ele>18</ele>
        <time>2022-04-03T09:21:23.000Z</time>
      </trkpt>
      <trkpt lat="50.45645" lon="3.5287">
        <ele>18</ele>
        <time>2022-04-03T09:21:24.000Z</time>
      </trkpt>
      <trkpt lat="50.45645" lon="3.52883">
        <ele>18</ele>
        <time>2022-04-03T09:21:25.000Z</time>
      </trkpt>
      <trkpt lat="50.45644" lon="3.52894">
        <ele>18.1</ele>
        <time>2022-04-03T09:21:26.000Z</time>
      </trkpt>
      <trkpt lat="50.45643" lon="3.52904">
        <ele>18.4</ele>
        <time>2022-04-03T09:21:27.000Z</time>
      </trkpt>
      <trkpt lat="50.45642" lon="3.52915">
        <ele>18.7</ele>
        <time>2022-04-03T09:21:28.000Z</time>
      </trkpt>
      <trkpt lat="50.45641" lon="3.52925">
        <ele>18.9</ele>
        <time>2022-04-03T09:21:29.000Z</time>
      </trkpt>
      <trkpt lat="50.4564" lon="3.52935">
        <ele>18.9</ele>
        <time>2022-04-03T09:21:30.000Z</time>
      </trkpt>
      <trkpt lat="50.4564" lon="3.52945">
        <ele>19</ele>
        <time>2022-04-03T09:21:31.000Z</time>
      </trkpt>
      <trkpt lat="50.45639" lon="3.52955">
        <ele>19</ele>
        <time>2022-04-03T09:21:32.000Z</time>
      </trkpt>
      <trkpt lat="50.45639" lon="3.52965">
        <ele>19</ele>
        <time>2022-04-03T09:21:33.000Z</time>
      </trkpt>
      <trkpt lat="50.45638" lon="3.52974">
        <ele>19</ele>
        <time>2022-04-03T09:21:34.000Z</time>
      </trkpt>
      <trkpt lat="50.45638" lon="3.52983">
        <ele>19</ele>
        <time>2022-04-03T09:21:35.000Z</time>
      </trkpt>
      <trkpt lat="50.45637" lon="3.52992">
        <ele>19</ele>
        <time>2022-04-03T09:21:36.000Z</time>
      </trkpt>
      <trkpt lat="50.45637" lon="3.53002">
        <ele>19</ele>
        <time>2022-04-03T09:21:37.000Z</time>
      </trkpt>
      <trkpt lat="50.45637" lon="3.53011">
        <ele>19</ele>
        <time>2022-04-03T09:21:38.000Z</time>
      </trkpt>
      <trkpt lat="50.45636" lon="3.53019">
        <ele>19</ele>
        <time>2022-04-03T09:21:39.000Z</time>
      </trkpt>
      <trkpt lat="50.45636" lon="3.53028">
        <ele>19</ele>
        <time>2022-04-03T09:21:40.000Z</time>
      </trkpt>
      <trkpt lat="50.45636" lon="3.53038">
        <ele>19</ele>
        <time>2022-04-03T09:21:41.000Z</time>
      </trkpt>
      <trkpt lat="50.45635" lon="3.53046">
        <ele>19</ele>
        <time>2022-04-03T09:21:42.000Z</time>
      </trkpt>
      <trkpt lat="50.45635" lon="3.53055">
        <ele>19</ele>
        <time>2022-04-03T09:21:43.000Z</time>
      </trkpt>
      <trkpt lat="50.45635" lon="3.53063">
        <ele>19</ele>
        <time>2022-04-03T09:21:44.000Z</time>
      </trkpt>
      <trkpt lat="50.45634" lon="3.53072">
        <ele>19</ele>
        <time>2022-04-03T09:21:45.000Z</time>
      </trkpt>
      <trkpt lat="50.45635" lon="3.5308">
        <ele>19</ele>
        <time>2022-04-03T09:21:46.000Z</time>
      </trkpt>
      <trkpt lat="50.45635" lon="3.53087">
        <ele>19</ele>
        <time>2022-04-03T09:21:47.000Z</time>
      </trkpt>
      <trkpt lat="50.45635" lon="3.53095">
        <ele>19</ele>
        <time>2022-04-03T09:21:48.000Z</time>
      </trkpt>
      <trkpt lat="50.45634" lon="3.53102">
        <ele>19</ele>
        <time>2022-04-03T09:21:49.000Z</time>
      </trkpt>
      <trkpt lat="50.45634" lon="3.53109">
        <ele>19</ele>
        <time>2022-04-03T09:21:50.000Z</time>
      </trkpt>
      <trkpt lat="50.45633" lon="3.53117">
        <ele>19.2</ele>
        <time>2022-04-03T09:21:51.000Z</time>
      </trkpt>
      <trkpt lat="50.45633" lon="3.53131">
        <ele>19.7</ele>
        <time>2022-04-03T09:21:53.000Z</time>
      </trkpt>
      <trkpt lat="50.45633" lon="3.53144">
        <ele>20</ele>
        <time>2022-04-03T09:21:55.000Z</time>
      </trkpt>
      <trkpt lat="50.45632" lon="3.53156">
        <ele>20.2</ele>
        <time>2022-04-03T09:21:57.000Z</time>
      </trkpt>
      <trkpt lat="50.45632" lon="3.53163">
        <ele>20.2</ele>
        <time>2022-04-03T09:21:58.000Z</time>
      </trkpt>
      <trkpt lat="50.45631" lon="3.53177">
        <ele>20.3</ele>
        <time>2022-04-03T09:22:00.000Z</time>
      </trkpt>
      <trkpt lat="50.45631" lon="3.53188">
        <ele>20.3</ele>
        <time>2022-04-03T09:22:02.000Z</time>
      </trkpt>
      <trkpt lat="50.45631" lon="3.53201">
        <ele>20.3</ele>
        <time>2022-04-03T09:22:04.000Z</time>
      </trkpt>
      <trkpt lat="50.45631" lon="3.53213">
        <ele>20.3</ele>
        <time>2022-04-03T09:22:06.000Z</time>
      </trkpt>
      <trkpt lat="50.4563" lon="3.53225">
        <ele>20.4</ele>
        <time>2022-04-03T09:22:08.000Z</time>
      </trkpt>
      <trkpt lat="50.45631" lon="3.53238">
        <ele>20.4</ele>
        <time>2022-04-03T09:22:10.000Z</time>
      </trkpt>
      <trkpt lat="50.4563" lon="3.5325">
        <ele>20.6</ele>
        <time>2022-04-03T09:22:12.166Z</time>
      </trkpt>
      <trkpt lat="50.4563" lon="3.53261">
        <ele>20.6</ele>
        <time>2022-04-03T09:22:14.000Z</time>
      </trkpt>
      <trkpt lat="50.4563" lon="3.53273">
        <ele>20.6</ele>
        <time>2022-04-03T09:22:16.000Z</time>
      </trkpt>
      <trkpt lat="50.45629" lon="3.53285">
        <ele>20.9</ele>
        <time>2022-04-03T09:22:18.000Z</time>
      </trkpt>
      <trkpt lat="50.45628" lon="3.53296">
        <ele>21.2</ele>
        <time>2022-04-03T09:22:20.000Z</time>
      </trkpt>
      <trkpt lat="50.45628" lon="3.53307">
        <ele>21.4</ele>
        <time>2022-04-03T09:22:22.000Z</time>
      </trkpt>
      <trkpt lat="50.45627" lon="3.53319">
        <ele>21.4</ele>
        <time>2022-04-03T09:22:24.000Z</time>
      </trkpt>
      <trkpt lat="50.45626" lon="3.53331">
        <ele>21.5</ele>
        <time>2022-04-03T09:22:26.000Z</time>
      </trkpt>
      <trkpt lat="50.45626" lon="3.53341">
        <ele>21.5</ele>
        <time>2022-04-03T09:22:28.000Z</time>
      </trkpt>
      <trkpt lat="50.45626" lon="3.53352">
        <ele>21.5</ele>
        <time>2022-04-03T09:22:30.000Z</time>
      </trkpt>
      <trkpt lat="50.45626" lon="3.53363">
        <ele>21.5</ele>
        <time>2022-04-03T09:22:32.000Z</time>
      </trkpt>
      <trkpt lat="50.45626" lon="3.53375">
        <ele>21.5</ele>
        <time>2022-04-03T09:22:34.000Z</time>
      </trkpt>
      <trkpt lat="50.45626" lon="3.53386">
        <ele>21.5</ele>
        <time>2022-04-03T09:22:36.000Z</time>
      </trkpt>
      <trkpt lat="50.45626" lon="3.53397">
        <ele>21.5</ele>
        <time>2022-04-03T09:22:38.000Z</time>
      </trkpt>
      <trkpt lat="50.45625" lon="3.53408">
        <ele>21.5</ele>
        <time>2022-04-03T09:22:40.000Z</time>
      </trkpt>
      <trkpt lat="50.45624" lon="3.53419">
        <ele>21.5</ele>
        <time>2022-04-03T09:22:42.000Z</time>
      </trkpt>
      <trkpt lat="50.45622" lon="3.5343">
        <ele>21.6</ele>
        <time>2022-04-03T09:22:44.000Z</time>
      </trkpt>
      <trkpt lat="50.45622" lon="3.5344">
        <ele>21.6</ele>
        <time>2022-04-03T09:22:46.000Z</time>
      </trkpt>
      <trkpt lat="50.45622" lon="3.53451">
        <ele>21.6</ele>
        <time>2022-04-03T09:22:48.000Z</time>
      </trkpt>
      <trkpt lat="50.45621" lon="3.53464">
        <ele>21.6</ele>
        <time>2022-04-03T09:22:50.000Z</time>
      </trkpt>
      <trkpt lat="50.45619" lon="3.53476">
        <ele>21.7</ele>
        <time>2022-04-03T09:22:52.000Z</time>
      </trkpt>
      <trkpt lat="50.45613" lon="3.53484">
        <ele>21.9</ele>
        <time>2022-04-03T09:22:54.044Z</time>
      </trkpt>
      <trkpt lat="50.45608" lon="3.53482">
        <ele>22</ele>
        <time>2022-04-03T09:22:55.000Z</time>
      </trkpt>
      <trkpt lat="50.45604" lon="3.53477">
        <ele>22</ele>
        <time>2022-04-03T09:22:56.000Z</time>
      </trkpt>
      <trkpt lat="50.456" lon="3.53473">
        <ele>22</ele>
        <time>2022-04-03T09:22:57.000Z</time>
      </trkpt>
      <trkpt lat="50.45597" lon="3.53469">
        <ele>22</ele>
        <time>2022-04-03T09:22:58.000Z</time>
      </trkpt>
      <trkpt lat="50.45593" lon="3.53464">
        <ele>22</ele>
        <time>2022-04-03T09:22:59.000Z</time>
      </trkpt>
      <trkpt lat="50.4559" lon="3.53459">
        <ele>22</ele>
        <time>2022-04-03T09:23:00.000Z</time>
      </trkpt>
      <trkpt lat="50.45584" lon="3.5345">
        <ele>22</ele>
        <time>2022-04-03T09:23:02.000Z</time>
      </trkpt>
      <trkpt lat="50.45578" lon="3.53442">
        <ele>22.2</ele>
        <time>2022-04-03T09:23:04.000Z</time>
      </trkpt>
      <trkpt lat="50.45571" lon="3.53436">
        <ele>22.4</ele>
        <time>2022-04-03T09:23:06.105Z</time>
      </trkpt>
      <trkpt lat="50.45565" lon="3.53429">
        <ele>22.7</ele>
        <time>2022-04-03T09:23:08.175Z</time>
      </trkpt>
      <trkpt lat="50.45561" lon="3.53423">
        <ele>22.8</ele>
        <time>2022-04-03T09:23:09.906Z</time>
      </trkpt>
      <trkpt lat="50.45555" lon="3.53416">
        <ele>23</ele>
        <time>2022-04-03T09:23:12.000Z</time>
      </trkpt>
      <trkpt lat="50.4555" lon="3.5341">
        <ele>23.2</ele>
        <time>2022-04-03T09:23:14.000Z</time>
      </trkpt>
      <trkpt lat="50.45544" lon="3.53403">
        <ele>23.4</ele>
        <time>2022-04-03T09:23:16.000Z</time>
      </trkpt>
      <trkpt lat="50.45539" lon="3.53395">
        <ele>23.6</ele>
        <time>2022-04-03T09:23:18.000Z</time>
      </trkpt>
      <trkpt lat="50.45535" lon="3.53388">
        <ele>23.7</ele>
        <time>2022-04-03T09:23:20.000Z</time>
      </trkpt>
      <trkpt lat="50.4553" lon="3.53382">
        <ele>23.9</ele>
        <time>2022-04-03T09:23:22.000Z</time>
      </trkpt>
      <trkpt lat="50.45525" lon="3.53379">
        <ele>24</ele>
        <time>2022-04-03T09:23:24.000Z</time>
      </trkpt>
      <trkpt lat="50.45519" lon="3.53377">
        <ele>24</ele>
        <time>2022-04-03T09:23:26.000Z</time>
      </trkpt>
      <trkpt lat="50.45514" lon="3.53374">
        <ele>24</ele>
        <time>2022-04-03T09:23:28.106Z</time>
      </trkpt>
      <trkpt lat="50.45508" lon="3.5337">
        <ele>24</ele>
        <time>2022-04-03T09:23:30.802Z</time>
      </trkpt>
      <trkpt lat="50.45504" lon="3.53362">
        <ele>24</ele>
        <time>2022-04-03T09:23:33.000Z</time>
      </trkpt>
      <trkpt lat="50.45502" lon="3.53352">
        <ele>24</ele>
        <time>2022-04-03T09:23:35.000Z</time>
      </trkpt>
      <trkpt lat="50.45499" lon="3.53343">
        <ele>24</ele>
        <time>2022-04-03T09:23:37.000Z</time>
      </trkpt>
      <trkpt lat="50.45495" lon="3.53334">
        <ele>24.2</ele>
        <time>2022-04-03T09:23:39.000Z</time>
      </trkpt>
      <trkpt lat="50.45488" lon="3.5333">
        <ele>24.4</ele>
        <time>2022-04-03T09:23:41.000Z</time>
      </trkpt>
      <trkpt lat="50.45482" lon="3.53324">
        <ele>24.6</ele>
        <time>2022-04-03T09:23:43.000Z</time>
      </trkpt>
      <trkpt lat="50.45477" lon="3.53317">
        <ele>24.8</ele>
        <time>2022-04-03T09:23:45.065Z</time>
      </trkpt>
      <trkpt lat="50.45472" lon="3.5331">
        <ele>25</ele>
        <time>2022-04-03T09:23:47.107Z</time>
      </trkpt>
      <trkpt lat="50.45467" lon="3.53305">
        <ele>25</ele>
        <time>2022-04-03T09:23:49.000Z</time>
      </trkpt>
      <trkpt lat="50.45463" lon="3.53299">
        <ele>25.1</ele>
        <time>2022-04-03T09:23:50.964Z</time>
      </trkpt>
      <trkpt lat="50.45458" lon="3.53292">
        <ele>25.2</ele>
        <time>2022-04-03T09:23:53.000Z</time>
      </trkpt>
      <trkpt lat="50.45453" lon="3.53287">
        <ele>25.5</ele>
        <time>2022-04-03T09:23:55.000Z</time>
      </trkpt>
      <trkpt lat="50.45449" lon="3.5328">
        <ele>25.8</ele>
        <time>2022-04-03T09:23:57.000Z</time>
      </trkpt>
      <trkpt lat="50.45444" lon="3.53274">
        <ele>26</ele>
        <time>2022-04-03T09:23:59.000Z</time>
      </trkpt>
      <trkpt lat="50.4544" lon="3.53269">
        <ele>26.1</ele>
        <time>2022-04-03T09:24:01.000Z</time>
      </trkpt>
      <trkpt lat="50.45435" lon="3.53262">
        <ele>26.2</ele>
        <time>2022-04-03T09:24:03.000Z</time>
      </trkpt>
      <trkpt lat="50.45431" lon="3.53256">
        <ele>26.4</ele>
        <time>2022-04-03T09:24:05.000Z</time>
      </trkpt>
      <trkpt lat="50.45427" lon="3.5325">
        <ele>26.6</ele>
        <time>2022-04-03T09:24:07.000Z</time>
      </trkpt>
      <trkpt lat="50.45422" lon="3.53244">
        <ele>26.8</ele>
        <time>2022-04-03T09:24:08.985Z</time>
      </trkpt>
      <trkpt lat="50.45417" lon="3.53237">
        <ele>27</ele>
        <time>2022-04-03T09:24:11.000Z</time>
      </trkpt>
      <trkpt lat="50.45413" lon="3.53233">
        <ele>27.1</ele>
        <time>2022-04-03T09:24:13.000Z</time>
      </trkpt>
      <trkpt lat="50.45408" lon="3.53227">
        <ele>27.3</ele>
        <time>2022-04-03T09:24:15.043Z</time>
      </trkpt>
      <trkpt lat="50.45403" lon="3.53223">
        <ele>27.5</ele>
        <time>2022-04-03T09:24:17.000Z</time>
      </trkpt>
      <trkpt lat="50.45399" lon="3.53216">
        <ele>27.6</ele>
        <time>2022-04-03T09:24:19.000Z</time>
      </trkpt>
      <trkpt lat="50.45394" lon="3.53211">
        <ele>27.8</ele>
        <time>2022-04-03T09:24:21.000Z</time>
      </trkpt>
      <trkpt lat="50.4539" lon="3.53204">
        <ele>28</ele>
        <time>2022-04-03T09:24:23.000Z</time>
      </trkpt>
      <trkpt lat="50.45385" lon="3.53199">
        <ele>28.1</ele>
        <time>2022-04-03T09:24:24.924Z</time>
      </trkpt>
      <trkpt lat="50.45378" lon="3.5319">
        <ele>28.4</ele>
        <time>2022-04-03T09:24:27.982Z</time>
      </trkpt>
      <trkpt lat="50.45374" lon="3.53182">
        <ele>28.5</ele>
        <time>2022-04-03T09:24:30.000Z</time>
      </trkpt>
      <trkpt lat="50.4537" lon="3.53176">
        <ele>28.7</ele>
        <time>2022-04-03T09:24:32.000Z</time>
      </trkpt>
      <trkpt lat="50.45365" lon="3.53169">
        <ele>28.9</ele>
        <time>2022-04-03T09:24:34.000Z</time>
      </trkpt>
      <trkpt lat="50.4536" lon="3.53164">
        <ele>29</ele>
        <time>2022-04-03T09:24:36.000Z</time>
      </trkpt>
      <trkpt lat="50.45355" lon="3.53157">
        <ele>29</ele>
        <time>2022-04-03T09:24:38.000Z</time>
      </trkpt>
      <trkpt lat="50.4535" lon="3.53149">
        <ele>29</ele>
        <time>2022-04-03T09:24:40.000Z</time>
      </trkpt>
      <trkpt lat="50.45342" lon="3.53139">
        <ele>29</ele>
        <time>2022-04-03T09:24:42.943Z</time>
      </trkpt>
      <trkpt lat="50.45338" lon="3.53133">
        <ele>29</ele>
        <time>2022-04-03T09:24:45.000Z</time>
      </trkpt>
      <trkpt lat="50.45333" lon="3.53126">
        <ele>29</ele>
        <time>2022-04-03T09:24:47.087Z</time>
      </trkpt>
      <trkpt lat="50.45329" lon="3.53122">
        <ele>29.2</ele>
        <time>2022-04-03T09:24:48.558Z</time>
      </trkpt>
      <trkpt lat="50.45323" lon="3.53114">
        <ele>29.4</ele>
        <time>2022-04-03T09:24:51.000Z</time>
      </trkpt>
      <trkpt lat="50.45319" lon="3.53109">
        <ele>29.5</ele>
        <time>2022-04-03T09:24:53.000Z</time>
      </trkpt>
      <trkpt lat="50.45313" lon="3.53101">
        <ele>29.7</ele>
        <time>2022-04-03T09:24:55.444Z</time>
      </trkpt>
      <trkpt lat="50.45307" lon="3.53091">
        <ele>29.9</ele>
        <time>2022-04-03T09:24:57.964Z</time>
      </trkpt>
      <trkpt lat="50.45302" lon="3.53085">
        <ele>30</ele>
        <time>2022-04-03T09:25:00.000Z</time>
      </trkpt>
      <trkpt lat="50.45298" lon="3.53077">
        <ele>30</ele>
        <time>2022-04-03T09:25:02.132Z</time>
      </trkpt>
      <trkpt lat="50.45293" lon="3.53069">
        <ele>30</ele>
        <time>2022-04-03T09:25:04.462Z</time>
      </trkpt>
      <trkpt lat="50.45289" lon="3.53063">
        <ele>30</ele>
        <time>2022-04-03T09:25:06.064Z</time>
      </trkpt>
      <trkpt lat="50.45284" lon="3.53056">
        <ele>30</ele>
        <time>2022-04-03T09:25:08.000Z</time>
      </trkpt>
      <trkpt lat="50.45279" lon="3.53048">
        <ele>30</ele>
        <time>2022-04-03T09:25:10.000Z</time>
      </trkpt>
      <trkpt lat="50.45273" lon="3.5304">
        <ele>30.1</ele>
        <time>2022-04-03T09:25:12.000Z</time>
      </trkpt>
      <trkpt lat="50.45268" lon="3.53031">
        <ele>30</ele>
        <time>2022-04-03T09:25:14.000Z</time>
      </trkpt>
      <trkpt lat="50.45263" lon="3.53022">
        <ele>30</ele>
        <time>2022-04-03T09:25:16.000Z</time>
      </trkpt>
      <trkpt lat="50.45257" lon="3.53013">
        <ele>30</ele>
        <time>2022-04-03T09:25:18.000Z</time>
      </trkpt>
      <trkpt lat="50.45252" lon="3.53003">
        <ele>30</ele>
        <time>2022-04-03T09:25:19.724Z</time>
      </trkpt>
      <trkpt lat="50.45248" lon="3.52996">
        <ele>30</ele>
        <time>2022-04-03T09:25:21.145Z</time>
      </trkpt>
      <trkpt lat="50.45243" lon="3.52989">
        <ele>30</ele>
        <time>2022-04-03T09:25:22.491Z</time>
      </trkpt>
      <trkpt lat="50.4524" lon="3.52982">
        <ele>30</ele>
        <time>2022-04-03T09:25:23.604Z</time>
      </trkpt>
      <trkpt lat="50.45235" lon="3.52975">
        <ele>30</ele>
        <time>2022-04-03T09:25:25.000Z</time>
      </trkpt>
      <trkpt lat="50.45231" lon="3.5297">
        <ele>29.9</ele>
        <time>2022-04-03T09:25:26.000Z</time>
      </trkpt>
      <trkpt lat="50.45227" lon="3.52966">
        <ele>29.8</ele>
        <time>2022-04-03T09:25:27.000Z</time>
      </trkpt>
      <trkpt lat="50.45224" lon="3.52962">
        <ele>29.6</ele>
        <time>2022-04-03T09:25:28.000Z</time>
      </trkpt>
      <trkpt lat="50.4522" lon="3.52956">
        <ele>29.5</ele>
        <time>2022-04-03T09:25:29.000Z</time>
      </trkpt>
      <trkpt lat="50.45217" lon="3.52951">
        <ele>29.4</ele>
        <time>2022-04-03T09:25:30.000Z</time>
      </trkpt>
      <trkpt lat="50.45213" lon="3.52946">
        <ele>29.4</ele>
        <time>2022-04-03T09:25:31.000Z</time>
      </trkpt>
      <trkpt lat="50.4521" lon="3.52941">
        <ele>29.4</ele>
        <time>2022-04-03T09:25:32.000Z</time>
      </trkpt>
      <trkpt lat="50.45206" lon="3.52935">
        <ele>29.4</ele>
        <time>2022-04-03T09:25:33.000Z</time>
      </trkpt>
      <trkpt lat="50.45202" lon="3.5293">
        <ele>29.3</ele>
        <time>2022-04-03T09:25:34.000Z</time>
      </trkpt>
      <trkpt lat="50.45199" lon="3.52925">
        <ele>29.3</ele>
        <time>2022-04-03T09:25:35.000Z</time>
      </trkpt>
      <trkpt lat="50.45195" lon="3.5292">
        <ele>29.1</ele>
        <time>2022-04-03T09:25:36.000Z</time>
      </trkpt>
      <trkpt lat="50.45191" lon="3.52914">
        <ele>28.9</ele>
        <time>2022-04-03T09:25:37.000Z</time>
      </trkpt>
      <trkpt lat="50.45187" lon="3.52908">
        <ele>28.8</ele>
        <time>2022-04-03T09:25:38.000Z</time>
      </trkpt>
      <trkpt lat="50.45182" lon="3.52902">
        <ele>28.7</ele>
        <time>2022-04-03T09:25:39.000Z</time>
      </trkpt>
      <trkpt lat="50.45178" lon="3.52896">
        <ele>28.7</ele>
        <time>2022-04-03T09:25:40.000Z</time>
      </trkpt>
      <trkpt lat="50.45173" lon="3.5289">
        <ele>28.8</ele>
        <time>2022-04-03T09:25:41.000Z</time>
      </trkpt>
      <trkpt lat="50.45169" lon="3.52884">
        <ele>28.7</ele>
        <time>2022-04-03T09:25:42.000Z</time>
      </trkpt>
      <trkpt lat="50.45164" lon="3.52878">
        <ele>28.6</ele>
        <time>2022-04-03T09:25:43.000Z</time>
      </trkpt>
      <trkpt lat="50.45159" lon="3.52872">
        <ele>28.6</ele>
        <time>2022-04-03T09:25:44.000Z</time>
      </trkpt>
      <trkpt lat="50.45155" lon="3.52866">
        <ele>28.5</ele>
        <time>2022-04-03T09:25:45.000Z</time>
      </trkpt>
      <trkpt lat="50.4515" lon="3.5286">
        <ele>28.6</ele>
        <time>2022-04-03T09:25:46.000Z</time>
      </trkpt>
      <trkpt lat="50.45146" lon="3.52854">
        <ele>28.5</ele>
        <time>2022-04-03T09:25:47.000Z</time>
      </trkpt>
      <trkpt lat="50.45141" lon="3.52849">
        <ele>28.5</ele>
        <time>2022-04-03T09:25:48.000Z</time>
      </trkpt>
      <trkpt lat="50.45137" lon="3.52844">
        <ele>28.4</ele>
        <time>2022-04-03T09:25:49.000Z</time>
      </trkpt>
      <trkpt lat="50.45133" lon="3.52838">
        <ele>28.3</ele>
        <time>2022-04-03T09:25:50.000Z</time>
      </trkpt>
      <trkpt lat="50.4513" lon="3.52832">
        <ele>28.3</ele>
        <time>2022-04-03T09:25:51.000Z</time>
      </trkpt>
      <trkpt lat="50.45126" lon="3.52827">
        <ele>28.5</ele>
        <time>2022-04-03T09:25:52.000Z</time>
      </trkpt>
      <trkpt lat="50.45122" lon="3.52822">
        <ele>28.6</ele>
        <time>2022-04-03T09:25:53.000Z</time>
      </trkpt>
      <trkpt lat="50.45118" lon="3.52816">
        <ele>28.8</ele>
        <time>2022-04-03T09:25:54.000Z</time>
      </trkpt>
      <trkpt lat="50.45114" lon="3.52811">
        <ele>28.9</ele>
        <time>2022-04-03T09:25:55.000Z</time>
      </trkpt>
      <trkpt lat="50.45111" lon="3.52806">
        <ele>29</ele>
        <time>2022-04-03T09:25:56.000Z</time>
      </trkpt>
      <trkpt lat="50.45107" lon="3.52801">
        <ele>29</ele>
        <time>2022-04-03T09:25:57.000Z</time>
      </trkpt>
      <trkpt lat="50.45101" lon="3.52793">
        <ele>29.2</ele>
        <time>2022-04-03T09:25:59.000Z</time>
      </trkpt>
      <trkpt lat="50.45094" lon="3.52784">
        <ele>29.5</ele>
        <time>2022-04-03T09:26:01.000Z</time>
      </trkpt>
      <trkpt lat="50.45091" lon="3.5278">
        <ele>29.7</ele>
        <time>2022-04-03T09:26:02.000Z</time>
      </trkpt>
      <trkpt lat="50.45084" lon="3.52771">
        <ele>30</ele>
        <time>2022-04-03T09:26:04.000Z</time>
      </trkpt>
      <trkpt lat="50.4508" lon="3.52765">
        <ele>30</ele>
        <time>2022-04-03T09:26:07.000Z</time>
      </trkpt>
      <trkpt lat="50.45075" lon="3.52757">
        <ele>30</ele>
        <time>2022-04-03T09:26:08.159Z</time>
      </trkpt>
      <trkpt lat="50.45071" lon="3.52751">
        <ele>30</ele>
        <time>2022-04-03T09:26:09.170Z</time>
      </trkpt>
      <trkpt lat="50.45065" lon="3.52744">
        <ele>30</ele>
        <time>2022-04-03T09:26:10.728Z</time>
      </trkpt>
      <trkpt lat="50.45061" lon="3.52739">
        <ele>30</ele>
        <time>2022-04-03T09:26:11.688Z</time>
      </trkpt>
      <trkpt lat="50.45057" lon="3.52732">
        <ele>30</ele>
        <time>2022-04-03T09:26:13.000Z</time>
      </trkpt>
      <trkpt lat="50.45053" lon="3.52727">
        <ele>30.1</ele>
        <time>2022-04-03T09:26:14.000Z</time>
      </trkpt>
      <trkpt lat="50.45049" lon="3.52722">
        <ele>30.2</ele>
        <time>2022-04-03T09:26:15.066Z</time>
      </trkpt>
      <trkpt lat="50.45045" lon="3.52717">
        <ele>30.4</ele>
        <time>2022-04-03T09:26:16.000Z</time>
      </trkpt>
      <trkpt lat="50.45041" lon="3.52712">
        <ele>30.5</ele>
        <time>2022-04-03T09:26:17.000Z</time>
      </trkpt>
      <trkpt lat="50.45035" lon="3.52703">
        <ele>30.7</ele>
        <time>2022-04-03T09:26:19.000Z</time>
      </trkpt>
      <trkpt lat="50.45029" lon="3.52694">
        <ele>30.9</ele>
        <time>2022-04-03T09:26:21.000Z</time>
      </trkpt>
      <trkpt lat="50.45026" lon="3.5269">
        <ele>30.8</ele>
        <time>2022-04-03T09:26:22.000Z</time>
      </trkpt>
      <trkpt lat="50.45022" lon="3.52686">
        <ele>30.7</ele>
        <time>2022-04-03T09:26:23.000Z</time>
      </trkpt>
      <trkpt lat="50.45018" lon="3.52682">
        <ele>30.6</ele>
        <time>2022-04-03T09:26:24.000Z</time>
      </trkpt>
      <trkpt lat="50.45012" lon="3.52674">
        <ele>30.3</ele>
        <time>2022-04-03T09:26:26.000Z</time>
      </trkpt>
      <trkpt lat="50.45006" lon="3.52666">
        <ele>30</ele>
        <time>2022-04-03T09:26:28.000Z</time>
      </trkpt>
      <trkpt lat="50.45" lon="3.52658">
        <ele>29.7</ele>
        <time>2022-04-03T09:26:29.929Z</time>
      </trkpt>
      <trkpt lat="50.44993" lon="3.5265">
        <ele>29.4</ele>
        <time>2022-04-03T09:26:32.000Z</time>
      </trkpt>
      <trkpt lat="50.44987" lon="3.52642">
        <ele>29.1</ele>
        <time>2022-04-03T09:26:34.000Z</time>
      </trkpt>
      <trkpt lat="50.4498" lon="3.52634">
        <ele>29</ele>
        <time>2022-04-03T09:26:36.626Z</time>
      </trkpt>
      <trkpt lat="50.44996" lon="3.52621">
        <ele>29</ele>
        <time>2022-04-03T09:26:39.000Z</time>
      </trkpt>
      <trkpt lat="50.45003" lon="3.52615">
        <ele>28.9</ele>
        <time>2022-04-03T09:26:41.000Z</time>
      </trkpt>
    </trkseg>
  </trk>
</gpx>